
Distance (Route):
Temperature : 17.1°C
Humidity : 85.5%
Pressure : 992.9hPa| Receiver | Frames | First received | Last received |
|---|---|---|---|
| DL1XH-west | 987 | 2026-09-03 22:47:39 | 2026-09-04 01:08:40 |
| DL1XH1-15 | 639 | 2026-09-03 22:48:17 | 2026-09-04 01:08:40 |
| AA1-15 | 576 | 2026-09-03 23:11:52 | 2026-09-04 01:05:17 |
| DM0DOS-11 | 551 | 2026-09-03 22:47:25 | 2026-09-04 01:07:51 |
| BIOWL1-15 | 549 | 2026-09-03 22:50:38 | 2026-09-04 01:05:38 |
| DO2JMG | 478 | 2026-09-03 23:12:37 | 2026-09-04 00:50:27 |
| DL1XH-15 | 454 | 2026-09-03 23:01:33 | 2026-09-04 01:08:10 |
| DB0DAN | 402 | 2026-09-03 22:54:55 | 2026-09-04 01:09:25 |
| DF8AY | 393 | 2026-09-03 23:16:08 | 2026-09-04 00:58:51 |
| DO2SHX-10 | 351 | 2026-09-03 23:25:24 | 2026-09-04 01:01:19 |
| GOEST3-10 | 203 | 2026-09-03 22:49:09 | 2026-09-04 00:58:39 |
| DJ2DS-15 | 176 | 2026-09-03 22:45:02 | 2026-09-04 01:05:59 |
| HSKMA3-T | 165 | 2026-09-04 00:04:22 | 2026-09-04 00:39:12 |
| DF5WG-10 | 120 | 2026-09-03 22:47:34 | 2026-09-04 00:52:28 |
| DL4BBY-15 | 78 | 2026-09-03 22:56:46 | 2026-09-04 01:00:17 |
| DL1NUX | 68 | 2026-09-03 23:44:31 | 2026-09-04 00:33:38 |
| DB0UT-7 | 59 | 2026-09-03 23:16:26 | 2026-09-04 00:46:31 |
| DF8AY-15 | 59 | 2026-09-03 23:28:34 | 2026-09-04 00:57:06 |
| DF4FW | 58 | 2026-09-03 22:56:45 | 2026-09-04 00:28:42 |
| BIOWL9-15 | 45 | 2026-09-03 22:51:58 | 2026-09-04 01:03:00 |
| DL3AQ-11 | 44 | 2026-09-03 23:33:48 | 2026-09-04 00:51:50 |
| HTAHTA | 43 | 2026-09-03 22:49:45 | 2026-09-04 00:40:00 |
| DO9FK | 32 | 2026-09-03 22:47:06 | 2026-09-03 23:21:05 |
| SMARD9-15 | 30 | 2026-09-03 23:02:29 | 2026-09-04 01:09:53 |
| SONDE2-11 | 30 | 2026-09-03 23:47:23 | 2026-09-04 00:51:34 |
| DL1CLM-18 | 28 | 2026-09-03 22:56:33 | 2026-09-04 00:55:33 |
| DL1LOL-11 | 28 | 2026-09-03 23:06:45 | 2026-09-04 01:00:29 |
| DL4XJ-10 | 27 | 2026-09-03 23:21:54 | 2026-09-04 00:56:07 |
| SONCRA | 26 | 2026-09-03 23:14:02 | 2026-09-04 00:56:00 |
| DO9LL-15 | 24 | 2026-09-03 22:58:17 | 2026-09-04 00:45:43 |
| BUE01 | 17 | 2026-09-03 23:16:00 | 2026-09-04 00:41:59 |
| DL1ZP-14 | 17 | 2026-09-03 23:41:04 | 2026-09-04 00:33:54 |
| EDDB2-12 | 17 | 2026-09-03 23:50:47 | 2026-09-04 00:51:51 |
| S3001 | 16 | 2026-09-03 23:50:03 | 2026-09-04 00:25:45 |
| DB0NH | 15 | 2026-09-03 23:28:38 | 2026-09-04 00:47:50 |
| DO2LYB-13 | 12 | 2026-09-03 23:04:17 | 2026-09-04 00:58:02 |
| DL8OAI-8 | 10 | 2026-09-03 23:22:08 | 2026-09-04 00:48:24 |
| DK1YY | 10 | 2026-09-03 23:38:58 | 2026-09-04 00:32:47 |
| DC6BW-12 | 9 | 2026-09-03 22:59:00 | 2026-09-03 23:27:29 |
| AP2371 | 9 | 2026-09-03 23:42:55 | 2026-09-04 01:03:15 |
| WEDDY | 8 | 2026-09-03 23:01:32 | 2026-09-03 23:23:05 |
| AU51GT2 | 8 | 2026-09-03 23:59:36 | 2026-09-04 00:27:32 |
| EDDB2-11 | 8 | 2026-09-04 00:16:51 | 2026-09-04 00:36:31 |
| SMARD9-10 | 7 | 2026-09-03 23:32:15 | 2026-09-04 01:09:18 |
| BIOWL7-15 | 4 | 2026-09-03 22:50:39 | 2026-09-04 00:58:45 |
| SP3BTT-10 | 4 | 2026-09-04 00:15:48 | 2026-09-04 00:22:51 |
| D01LWL | 4 | 2026-09-04 01:00:35 | 2026-09-04 01:04:13 |
| SO1NDE-10 | 3 | 2026-09-03 23:59:14 | 2026-09-04 00:01:11 |
| DL2RXE-15 | 3 | 2026-09-03 23:59:40 | 2026-09-04 00:01:28 |
| DF2AP-13 | 3 | 2026-09-04 00:36:10 | 2026-09-04 00:48:10 |
| DB0ND-19 | 2 | 2026-09-03 23:39:16 | 2026-09-03 23:39:47 |
| DK9SH | 1 | 2026-09-03 23:13:54 | 2026-09-03 23:13:54 |
| Receiver | Date | Latitude | Longitude | Direction | Speed | Altitude | Climb | Temperature | Humidity | Pressure | Voltage | Killtimer | Uptime | BKT | XDATA |
|---|---|---|---|---|---|---|---|---|---|---|---|---|---|---|---|
| SMARD9-15 | 2026-09-04 01:09:53 | 53.28331 | 10.00049 | 62° | 27km/h | 198m | -7.1m/s | 17.1°C | 85.5% | 992.9hPa | 2.7V | 00:00:00 | 00:00:00 | 00:00:00 | |
| DB0DAN | 2026-09-04 01:09:25 | 53.28304 | 9.99943 | 67° | 35km/h | 254m | -4.6m/s | 16.8°C | 87.3% | 986.01hPa | 2.7V | 00:00:00 | 00:00:00 | 00:00:00 | |
| SMARD9-15 | 2026-09-04 01:09:22 | 53.28293 | 9.99897 | 68° | 40km/h | 269m | -5.1m/s | 16.8°C | 87.4% | 984.2hPa | 2.7V | 00:00:00 | 00:00:00 | 00:00:00 | |
| SMARD9-10 | 2026-09-04 01:09:18 | 53.28279 | 9.99831 | 74° | 42km/h | 289m | -5.4m/s | 16.8°C | 87.8% | 981.8hPa | 2.7V | 00:00:00 | 00:00:00 | 00:00:00 | |
| DB0DAN | 2026-09-04 01:09:10 | 53.28256 | 9.99688 | 77° | 44km/h | 336m | -6m/s | 16.6°C | 89.3% | 976.75hPa | 2.7V | 00:00:00 | 00:00:00 | 00:00:00 | |
| DB0DAN | 2026-09-04 01:08:55 | 53.28227 | 9.99383 | 86° | 49km/h | 430m | -5.9m/s | 16.4°C | 88.1% | 965.95hPa | 2.6V | 00:00:00 | 00:00:00 | 00:00:00 | |
| SMARD9-15 | 2026-09-04 01:08:53 | 53.28224 | 9.99296 | 86° | 51km/h | 454m | -6.6m/s | 16.4°C | 85.7% | 963.2hPa | 2.7V | 00:00:00 | 00:00:00 | 00:00:00 | |
| DB0DAN | 2026-09-04 01:08:40 | 53.28216 | 9.99052 | 87° | 51km/h | 523m | -6.7m/s | 16°C | 81.9% | 955.57hPa | 2.7V | 00:00:00 | 00:00:00 | 00:00:00 | |
| DL1XH1-15 | 2026-09-04 01:08:40 | 53.28215 | 9.99030 | 87° | 53km/h | 529m | -5.2m/s | 16°C | 81% | 954.9hPa | 2.7V | 07:42:59 | 02:49:09 | 00:00:00 | |
| DL1XH-west | 2026-09-04 01:08:40 | 53.28216 | 9.99052 | 87° | 53km/h | 523m | -6.7m/s | 16°C | 86.1% | 955.6hPa | 2.7V | 07:42:59 | 02:49:10 | 00:00:00 | |
| DL1XH-west | 2026-09-04 01:08:38 | 53.28214 | 9.99007 | 86° | 53km/h | 534m | -4.8m/s | 16°C | 82.3% | 954.3hPa | 2.7V | 07:43:50 | 02:49:08 | 00:00:00 | |
| DL1XH-west | 2026-09-04 01:08:33 | 53.28209 | 9.98893 | 86° | 55km/h | 559m | -5.1m/s | 15.9°C | 81.5% | 951.6hPa | 2.7V | 07:43:50 | 02:49:03 | 00:00:00 | |
| DL1XH-west | 2026-09-04 01:08:31 | 53.28207 | 9.98847 | 86° | 55km/h | 570m | -5.5m/s | 15.8°C | 81.8% | 950.3hPa | 2.6V | 07:43:50 | 02:49:01 | 00:00:00 | |
| DL1XH-west | 2026-09-04 01:08:26 | 53.28201 | 9.98731 | 87° | 57km/h | 598m | -5.7m/s | 15.7°C | 80.5% | 947.3hPa | 2.7V | 07:43:50 | 02:48:56 | 00:00:00 | |
| DB0DAN | 2026-09-04 01:08:25 | 53.28200 | 9.98707 | 87° | 53km/h | 603m | -5m/s | 15.6°C | 76.4% | 946.67hPa | 2.7V | 00:00:00 | 00:00:00 | 00:00:00 | |
| DL1XH-west | 2026-09-04 01:08:25 | 53.28200 | 9.98707 | 88° | 57km/h | 603m | -5m/s | 15.6°C | 80.4% | 946.7hPa | 2.7V | 07:43:50 | 02:48:55 | 00:00:00 | |
| DL1XH-west | 2026-09-04 01:08:23 | 53.28199 | 9.98660 | 87° | 57km/h | 614m | -5m/s | 15.5°C | 82.3% | 945.5hPa | 2.7V | 07:43:50 | 02:48:53 | 00:00:00 | |
| DL1XH-west | 2026-09-04 01:08:22 | 53.28199 | 9.98636 | 87° | 55km/h | 619m | -6.3m/s | 15.5°C | 82.9% | 945hPa | 2.7V | 07:43:50 | 02:48:52 | 00:00:00 | |
| DL1XH1-15 | 2026-09-04 01:08:20 | 53.28195 | 9.98543 | 86° | 55km/h | 643m | -5.5m/s | 15.3°C | 76.4% | 942.3hPa | 2.6V | 07:43:20 | 02:48:48 | 00:00:00 | |
| DL1XH1-15 | 2026-09-04 01:08:20 | 53.28194 | 9.98496 | 86° | 55km/h | 655m | -5.5m/s | 15.3°C | 75.6% | 940.9hPa | 2.7V | 07:43:22 | 02:48:46 | 00:00:00 | |
| DL1XH-west | 2026-09-04 01:08:20 | 53.28197 | 9.98590 | 86° | 55km/h | 632m | -5.9m/s | 15.4°C | 82.7% | 943.6hPa | 2.7V | 07:43:50 | 02:48:50 | 00:00:00 | |
| DL1XH-west | 2026-09-04 01:08:18 | 53.28195 | 9.98543 | 87° | 55km/h | 643m | -5.5m/s | 15.4°C | 81.6% | 942.3hPa | 2.6V | 07:43:50 | 02:48:48 | 00:00:00 | |
| DL1XH-west | 2026-09-04 01:08:16 | 53.28194 | 9.98496 | 87° | 55km/h | 655m | -5.5m/s | 15.3°C | 80.3% | 940.9hPa | 2.7V | 07:43:50 | 02:48:46 | 00:00:00 | |
| DL1XH1-15 | 2026-09-04 01:08:15 | 53.28192 | 9.98449 | 87° | 57km/h | 666m | -5.7m/s | 15.3°C | 74.8% | 939.8hPa | 2.7V | 07:43:24 | 02:48:44 | 00:00:00 | |
| DL1XH-west | 2026-09-04 01:08:15 | 53.28193 | 9.98473 | 87° | 55km/h | 661m | -5.7m/s | 15.3°C | 79.9% | 940.4hPa | 2.7V | 07:43:50 | 02:48:45 | 00:00:00 | |
| DL1XH-west | 2026-09-04 01:08:13 | 53.28192 | 9.98426 | 87° | 55km/h | 671m | -5.6m/s | 15.2°C | 79.3% | 939.1hPa | 2.7V | 07:43:50 | 02:48:43 | 00:00:00 | |
| DL1XH-west | 2026-09-04 01:08:11 | 53.28190 | 9.98379 | 87° | 57km/h | 681m | -4.2m/s | 15.1°C | 79.1% | 937.9hPa | 2.7V | 07:43:50 | 02:48:41 | 00:00:00 | |
| DB0DAN | 2026-09-04 01:08:10 | 53.28190 | 9.98355 | 88° | 53km/h | 685m | -4.9m/s | 15.1°C | 74.5% | 937.55hPa | 2.7V | 00:00:00 | 00:00:00 | 00:00:00 | |
| DL1XH-15 | 2026-09-04 01:08:10 | 53.28189 | 9.98331 | 88° | 57km/h | 689m | -4.2m/s | 15.1°C | 74.4% | 936.8hPa | 2.7V | 07:43:29 | 02:48:39 | 00:00:00 | |
| DL1XH1-15 | 2026-09-04 01:08:10 | 53.28188 | 9.98236 | 89° | 57km/h | 708m | -5.4m/s | 14.9°C | 74% | 934.8hPa | 2.7V | 07:43:33 | 02:48:35 | 00:00:00 | |
| DL1XH-west | 2026-09-04 01:08:09 | 53.28189 | 9.98331 | 88° | 57km/h | 689m | -4.2m/s | 15.1°C | 79% | 936.8hPa | 2.7V | 07:43:50 | 02:48:39 | 00:00:00 | |
| DL1XH-west | 2026-09-04 01:08:08 | 53.28189 | 9.98307 | 89° | 57km/h | 694m | -4.8m/s | 15°C | 79% | 936.4hPa | 2.6V | 07:43:50 | 02:48:38 | 00:00:00 | |
| DL1XH-west | 2026-09-04 01:08:07 | 53.28189 | 9.98283 | 89° | 57km/h | 699m | -5m/s | 15°C | 78.7% | 935.8hPa | 2.6V | 07:43:50 | 02:48:37 | 00:00:00 | |
| DL1XH-west | 2026-09-04 01:08:05 | 53.28188 | 9.98236 | 89° | 57km/h | 708m | -5.4m/s | 14.9°C | 78.7% | 934.8hPa | 2.7V | 07:43:50 | 02:48:35 | 00:00:00 | |
| DL1XH-west | 2026-09-04 01:08:04 | 53.28188 | 9.98213 | 89° | 55km/h | 713m | -4.8m/s | 14.9°C | 78.6% | 934.2hPa | 2.7V | 07:43:50 | 02:48:34 | 00:00:00 | |
| DL1XH1-15 | 2026-09-04 01:08:03 | 53.28188 | 9.98189 | 89° | 55km/h | 718m | -5.5m/s | 14.8°C | 74.5% | 933.7hPa | 2.7V | 07:43:35 | 02:48:33 | 00:00:00 | |
| DL1XH1-15 | 2026-09-04 01:08:03 | 53.28188 | 9.98143 | 89° | 55km/h | 728m | -5.5m/s | 14.8°C | 74.6% | 932.5hPa | 2.7V | 07:43:37 | 02:48:31 | 00:00:00 | |
| DL1XH-west | 2026-09-04 01:08:02 | 53.28188 | 9.98166 | 90° | 55km/h | 723m | -4.8m/s | 14.8°C | 79.1% | 933.1hPa | 2.7V | 07:43:50 | 02:48:32 | 00:00:00 | |
| DL1XH-15 | 2026-09-04 01:08:00 | 53.28188 | 9.98097 | 89° | 55km/h | 739m | -4.8m/s | 14.7°C | 75% | 931.3hPa | 2.7V | 07:43:39 | 02:48:29 | 00:00:00 | |
| DL1XH-west | 2026-09-04 01:08:00 | 53.28188 | 9.98120 | 89° | 55km/h | 734m | -6m/s | 14.7°C | 79.7% | 932hPa | 2.7V | 07:43:50 | 02:48:30 | 00:00:00 | |
| DL1XH-west | 2026-09-04 01:07:58 | 53.28187 | 9.98074 | 87° | 57km/h | 745m | -5.6m/s | 14.6°C | 79.1% | 930.8hPa | 2.7V | 07:43:50 | 02:48:28 | 00:00:00 | |
| DL1XH-west | 2026-09-04 01:07:56 | 53.28186 | 9.98027 | 87° | 57km/h | 755m | -6m/s | 14.5°C | 79.5% | 929.6hPa | 2.6V | 07:43:50 | 02:48:26 | 00:00:00 | |
| DB0DAN | 2026-09-04 01:07:55 | 53.28185 | 9.98003 | 87° | 55km/h | 761m | -5.8m/s | 14.5°C | 74.3% | 928.96hPa | 2.7V | 00:00:00 | 00:00:00 | 00:00:00 | |
| DL1XH-west | 2026-09-04 01:07:55 | 53.28185 | 9.98003 | 87° | 57km/h | 761m | -5.8m/s | 14.5°C | 79.7% | 929hPa | 2.7V | 07:43:50 | 02:48:25 | 00:00:00 | |
| DL1XH-15 | 2026-09-04 01:07:54 | 53.28184 | 9.97955 | 86° | 57km/h | 772m | -5.2m/s | 14.4°C | 74.9% | 927.8hPa | 2.7V | 07:43:45 | 02:48:23 | 00:00:00 | |
| DL1XH-west | 2026-09-04 01:07:53 | 53.28184 | 9.97955 | 87° | 57km/h | 772m | -5.2m/s | 14.4°C | 80.1% | 927.8hPa | 2.7V | 07:43:50 | 02:48:23 | 00:00:00 | |
| DL1XH-west | 2026-09-04 01:07:52 | 53.28183 | 9.97931 | 88° | 57km/h | 778m | -5.8m/s | 14.3°C | 80.4% | 927.2hPa | 2.7V | 07:43:50 | 02:48:22 | 00:00:00 | |
| DM0DOS-11 | 2026-09-04 01:07:51 | 53.28181 | 9.97860 | 88° | 55km/h | 796m | -5.8m/s | 14.1°C | 75.8% | 925.3hPa | 2.7V | 07:43:49 | 02:48:19 | 00:00:00 | |
| DL1XH-west | 2026-09-04 01:07:51 | 53.28182 | 9.97907 | 87° | 57km/h | 784m | -6.4m/s | 14.3°C | 80.4% | 926.6hPa | 2.7V | 07:43:50 | 02:48:21 | 00:00:00 | |
| DL1XH-west | 2026-09-04 01:07:49 | 53.28181 | 9.97860 | 88° | 55km/h | 796m | -5.8m/s | 14.1°C | 80.5% | 925.3hPa | 2.7V | 07:43:50 | 02:48:19 | 00:00:00 | |
| DL1XH-west | 2026-09-04 01:07:47 | 53.28181 | 9.97813 | 89° | 57km/h | 807m | -5.6m/s | 14°C | 80.8% | 924hPa | 2.7V | 07:44:41 | 02:48:17 | 00:00:00 | |
| DL1XH-west | 2026-09-04 01:07:45 | 53.28180 | 9.97766 | 88° | 57km/h | 818m | -5.7m/s | 13.9°C | 81% | 922.9hPa | 2.6V | 07:44:41 | 02:48:15 | 00:00:00 | |
| DL1XH-west | 2026-09-04 01:07:43 | 53.28179 | 9.97719 | 88° | 55km/h | 830m | -6.2m/s | 13.8°C | 81.3% | 921.7hPa | 2.7V | 07:44:41 | 02:48:13 | 00:00:00 | |
| DL1XH-west | 2026-09-04 01:07:42 | 53.28179 | 9.97696 | 88° | 55km/h | 836m | -5.5m/s | 13.8°C | 81.5% | 921hPa | 2.7V | 07:44:41 | 02:48:12 | 00:00:00 | |
| DB0DAN | 2026-09-04 01:07:40 | 53.28178 | 9.97649 | 87° | 53km/h | 846m | -5.8m/s | 13.7°C | 76.9% | 919.91hPa | 2.7V | 00:00:00 | 00:00:00 | 00:00:00 | |
| DL1XH-west | 2026-09-04 01:07:40 | 53.28178 | 9.97649 | 87° | 55km/h | 846m | -5.8m/s | 13.7°C | 81.7% | 919.9hPa | 2.7V | 07:44:41 | 02:48:10 | 00:00:00 | |
| DL1XH-west | 2026-09-04 01:07:39 | 53.28177 | 9.97626 | 87° | 55km/h | 852m | -5.2m/s | 13.6°C | 82.1% | 919.2hPa | 2.7V | 07:44:41 | 02:48:09 | 00:00:00 | |
| DL1XH-west | 2026-09-04 01:07:37 | 53.28176 | 9.97580 | 89° | 53km/h | 863m | -5.3m/s | 13.5°C | 82.7% | 918.1hPa | 2.7V | 07:44:41 | 02:48:07 | 00:00:00 | |
| DM0DOS-11 | 2026-09-04 01:07:36 | 53.28176 | 9.97535 | 90° | 55km/h | 874m | -6m/s | 13.4°C | 78.2% | 917hPa | 2.6V | 07:44:03 | 02:48:05 | 00:00:00 | |
| DL1XH-west | 2026-09-04 01:07:36 | 53.28176 | 9.97558 | 89° | 53km/h | 868m | -5.9m/s | 13.5°C | 83% | 917.5hPa | 2.7V | 07:44:41 | 02:48:06 | 00:00:00 | |
| DL1XH-west | 2026-09-04 01:07:35 | 53.28176 | 9.97535 | 90° | 55km/h | 874m | -6m/s | 13.4°C | 83.2% | 917hPa | 2.6V | 07:44:41 | 02:48:05 | 00:00:00 | |
| DL1XH-west | 2026-09-04 01:07:33 | 53.28176 | 9.97488 | 90° | 55km/h | 886m | -5.1m/s | 13.3°C | 82.7% | 915.6hPa | 2.7V | 07:44:41 | 02:48:03 | 00:00:00 | |
| DL1XH-west | 2026-09-04 01:07:32 | 53.28176 | 9.97465 | 91° | 55km/h | 892m | -5.8m/s | 13.3°C | 82% | 915hPa | 2.7V | 07:44:41 | 02:48:02 | 00:00:00 | |
| DL1XH-west | 2026-09-04 01:07:30 | 53.28176 | 9.97418 | 91° | 55km/h | 904m | -6.1m/s | 13.2°C | 81.7% | 913.6hPa | 2.7V | 07:44:41 | 02:48:00 | 00:00:00 | |
| DL1XH-west | 2026-09-04 01:07:28 | 53.28177 | 9.97372 | 91° | 55km/h | 914m | -5.5m/s | 13.1°C | 82.9% | 912.7hPa | 2.6V | 07:44:41 | 02:47:58 | 00:00:00 | |
| DL1XH-west | 2026-09-04 01:07:26 | 53.28178 | 9.97326 | 91° | 53km/h | 926m | -6.4m/s | 13°C | 83.7% | 911.4hPa | 2.7V | 07:44:41 | 02:47:56 | 00:00:00 | |
| DB0DAN | 2026-09-04 01:07:25 | 53.28178 | 9.97304 | 92° | 51km/h | 932m | -6m/s | 12.9°C | 77.9% | 910.65hPa | 2.7V | 00:00:00 | 00:00:00 | 00:00:00 | |
| DL1XH-west | 2026-09-04 01:07:24 | 53.28179 | 9.97281 | 93° | 53km/h | 938m | -5.9m/s | 12.9°C | 82.9% | 910.1hPa | 2.7V | 07:44:41 | 02:47:54 | 00:00:00 | |
| DL1XH-west | 2026-09-04 01:07:22 | 53.28180 | 9.97236 | 93° | 53km/h | 950m | -5.6m/s | 12.7°C | 82.9% | 908.7hPa | 2.6V | 07:44:41 | 02:47:52 | 00:00:00 | |
| DL1XH-west | 2026-09-04 01:07:21 | 53.28180 | 9.97213 | 92° | 53km/h | 955m | -4.7m/s | 12.7°C | 83% | 908hPa | 2.7V | 07:44:41 | 02:47:51 | 00:00:00 | |
| DL1XH-west | 2026-09-04 01:07:19 | 53.28181 | 9.97168 | 94° | 53km/h | 965m | -5.6m/s | 12.6°C | 83.3% | 906.9hPa | 2.7V | 07:44:41 | 02:47:49 | 00:00:00 | |
| DL1XH-15 | 2026-09-04 01:07:18 | 53.28183 | 9.97123 | 94° | 53km/h | 976m | -5.4m/s | 12.5°C | 79.6% | 905.8hPa | 2.6V | 07:44:21 | 02:47:47 | 00:00:00 | |
| DL1XH-west | 2026-09-04 01:07:18 | 53.28182 | 9.97145 | 94° | 53km/h | 971m | -5.7m/s | 12.6°C | 83.1% | 906.3hPa | 2.7V | 07:44:41 | 02:47:48 | 00:00:00 | |
| DL1XH-west | 2026-09-04 01:07:16 | 53.28185 | 9.97100 | 95° | 53km/h | 981m | -5m/s | 12.5°C | 83.3% | 905hPa | 2.7V | 07:44:41 | 02:47:46 | 00:00:00 | |
| DM0DOS-11 | 2026-09-04 01:07:16 | 53.28186 | 9.97078 | 94° | 53km/h | 986m | -5.1m/s | 12.4°C | 79.6% | 904.6hPa | 2.7V | 07:44:23 | 02:47:45 | 00:00:00 | |
| DM0DOS-11 | 2026-09-04 01:07:16 | 53.28188 | 9.97033 | 94° | 53km/h | 998m | -5.6m/s | 12.3°C | 78.9% | 903.2hPa | 2.7V | 07:44:25 | 02:47:43 | 00:00:00 | |
| DL1XH-west | 2026-09-04 01:07:14 | 53.28187 | 9.97056 | 94° | 53km/h | 992m | -6.1m/s | 12.4°C | 84% | 904hPa | 2.7V | 07:44:41 | 02:47:44 | 00:00:00 | |
| DL1XH-15 | 2026-09-04 01:07:12 | 53.28191 | 9.96988 | 95° | 53km/h | 1008m | -5.6m/s | 12.2°C | 78.5% | 902.1hPa | 2.7V | 07:44:27 | 02:47:41 | 00:00:00 | |
| DL1XH-west | 2026-09-04 01:07:12 | 53.28189 | 9.97010 | 95° | 55km/h | 1003m | -5.1m/s | 12.3°C | 83.6% | 902.8hPa | 2.7V | 07:44:41 | 02:47:42 | 00:00:00 | |
| DB0DAN | 2026-09-04 01:07:10 | 53.28192 | 9.96965 | 95° | 51km/h | 1014m | -5.4m/s | 12.2°C | 78.2% | 901.7hPa | 2.7V | 00:00:00 | 00:00:00 | 00:00:00 | |
| DL1XH-west | 2026-09-04 01:07:10 | 53.28192 | 9.96965 | 95° | 55km/h | 1014m | -5.4m/s | 12.2°C | 82.7% | 901.7hPa | 2.7V | 07:44:41 | 02:47:40 | 00:00:00 | |
| DL1XH1-15 | 2026-09-04 01:07:10 | 53.28193 | 9.96942 | 94° | 55km/h | 1019m | -5.1m/s | 12.1°C | 79.5% | 900.9hPa | 2.7V | 07:44:29 | 02:47:39 | 00:00:00 | |
| DL1XH1-15 | 2026-09-04 01:07:10 | 53.28196 | 9.96897 | 96° | 53km/h | 1029m | -6.3m/s | 12.1°C | 79.3% | 899.9hPa | 2.6V | 07:44:31 | 02:47:37 | 00:00:00 | |
| DL1XH-west | 2026-09-04 01:07:08 | 53.28194 | 9.96919 | 96° | 55km/h | 1024m | -4.4m/s | 12.1°C | 83.5% | 900.4hPa | 2.6V | 07:44:41 | 02:47:38 | 00:00:00 | |
| DL1XH-west | 2026-09-04 01:07:06 | 53.28197 | 9.96874 | 97° | 53km/h | 1035m | -5.7m/s | 12.1°C | 80.2% | 899.2hPa | 2.7V | 07:44:41 | 02:47:36 | 00:00:00 | |
| DL1XH-west | 2026-09-04 01:07:05 | 53.28199 | 9.96852 | 98° | 53km/h | 1040m | -4.9m/s | 12.1°C | 79.4% | 898.6hPa | 2.7V | 07:44:41 | 02:47:35 | 00:00:00 | |
| DL1XH-west | 2026-09-04 01:07:04 | 53.28201 | 9.96830 | 97° | 53km/h | 1045m | -5.4m/s | 12°C | 77.8% | 898.1hPa | 2.7V | 07:44:41 | 02:47:34 | 00:00:00 | |
| DL1XH-west | 2026-09-04 01:07:03 | 53.28202 | 9.96807 | 97° | 53km/h | 1050m | -5.2m/s | 12°C | 77.7% | 897.6hPa | 2.7V | 07:44:41 | 02:47:33 | 00:00:00 | |
| DL1XH-west | 2026-09-04 01:07:01 | 53.28206 | 9.96763 | 97° | 53km/h | 1060m | -5.5m/s | 12°C | 76.5% | 896.5hPa | 2.7V | 07:44:41 | 02:47:31 | 00:00:00 | |
| DL1XH-west | 2026-09-04 01:06:59 | 53.28209 | 9.96718 | 98° | 53km/h | 1071m | -5.8m/s | 12°C | 72.9% | 895.3hPa | 2.7V | 07:44:41 | 02:47:29 | 00:00:00 | |
| DL1XH-west | 2026-09-04 01:06:57 | 53.28213 | 9.96674 | 97° | 53km/h | 1083m | -6.2m/s | 12°C | 71.5% | 894hPa | 2.6V | 07:44:41 | 02:47:27 | 00:00:00 | |
| DM0DOS-11 | 2026-09-04 01:06:56 | 53.28217 | 9.96630 | 98° | 51km/h | 1093m | -5.1m/s | 11.9°C | 66.4% | 892.9hPa | 2.7V | 07:44:43 | 02:47:25 | 00:00:00 | |
| DB0DAN | 2026-09-04 01:06:55 | 53.28217 | 9.96630 | 99° | 49km/h | 1093m | -5.1m/s | 11.9°C | 66% | 892.93hPa | 2.7V | 00:00:00 | 00:00:00 | 00:00:00 | |
| DL1XH-west | 2026-09-04 01:06:55 | 53.28217 | 9.96630 | 99° | 51km/h | 1093m | -5.1m/s | 11.9°C | 71.2% | 892.9hPa | 2.7V | 07:45:32 | 02:47:25 | 00:00:00 | |
| DL1XH-west | 2026-09-04 01:06:53 | 53.28221 | 9.96587 | 100° | 51km/h | 1104m | -6.4m/s | 11.9°C | 70.7% | 891.8hPa | 2.7V | 07:45:32 | 02:47:23 | 00:00:00 | |
| DL1XH1-15 | 2026-09-04 01:06:52 | 53.28226 | 9.96544 | 101° | 51km/h | 1116m | -5.4m/s | 11.8°C | 64.5% | 890.6hPa | 2.7V | 07:44:47 | 02:47:21 | 00:00:00 | |
| DM0DOS-11 | 2026-09-04 01:06:51 | 53.28231 | 9.96502 | 100° | 51km/h | 1127m | -5.9m/s | 11.7°C | 64.2% | 889.4hPa | 2.7V | 07:44:49 | 02:47:19 | 00:00:00 | |
| DL1XH-west | 2026-09-04 01:06:51 | 53.28226 | 9.96544 | 101° | 51km/h | 1116m | -5.4m/s | 11.8°C | 69.5% | 890.6hPa | 2.7V | 07:45:32 | 02:47:21 | 00:00:00 | |
| DL1XH-west | 2026-09-04 01:06:50 | 53.28228 | 9.96523 | 101° | 51km/h | 1122m | -5.8m/s | 11.8°C | 69.3% | 890hPa | 2.7V | 07:45:32 | 02:47:20 | 00:00:00 | |
| DL1XH-west | 2026-09-04 01:06:48 | 53.28233 | 9.96481 | 101° | 49km/h | 1133m | -5.3m/s | 11.7°C | 68.5% | 888.9hPa | 2.6V | 07:45:32 | 02:47:18 | 00:00:00 | |
| DL1XH-west | 2026-09-04 01:06:46 | 53.28238 | 9.96441 | 100° | 49km/h | 1144m | -6.1m/s | 11.6°C | 68.3% | 887.8hPa | 2.7V | 07:45:32 | 02:47:16 | 00:00:00 | |
| DL1XH-west | 2026-09-04 01:06:45 | 53.28240 | 9.96421 | 101° | 47km/h | 1149m | -6m/s | 11.6°C | 68.1% | 887.2hPa | 2.7V | 07:45:32 | 02:47:15 | 00:00:00 | |
| DL1XH-west | 2026-09-04 01:06:44 | 53.28242 | 9.96401 | 101° | 47km/h | 1155m | -5.2m/s | 11.5°C | 67.9% | 886.5hPa | 2.7V | 07:45:32 | 02:47:14 | 00:00:00 | |
| DL1XH-west | 2026-09-04 01:06:42 | 53.28247 | 9.96361 | 102° | 49km/h | 1164m | -5.2m/s | 11.5°C | 68.4% | 885.4hPa | 2.7V | 07:45:32 | 02:47:12 | 00:00:00 | |
| DL1XH-west | 2026-09-04 01:06:41 | 53.28250 | 9.96340 | 103° | 49km/h | 1170m | -6m/s | 11.4°C | 68.4% | 884.8hPa | 2.6V | 07:45:32 | 02:47:11 | 00:00:00 | |
| DB0DAN | 2026-09-04 01:06:40 | 53.28253 | 9.96320 | 103° | 47km/h | 1176m | -6.1m/s | 11.4°C | 62.8% | 884.39hPa | 2.7V | 00:00:00 | 00:00:00 | 00:00:00 | |
| DL1XH1-15 | 2026-09-04 01:06:40 | 53.28262 | 9.96258 | 102° | 51km/h | 1195m | -5.6m/s | 11.3°C | 63.2% | 882.2hPa | 2.7V | 07:45:01 | 02:47:07 | 00:00:00 | |
| DL1XH-west | 2026-09-04 01:06:39 | 53.28256 | 9.96299 | 103° | 51km/h | 1182m | -7.3m/s | 11.3°C | 68.3% | 883.8hPa | 2.7V | 07:45:32 | 02:47:09 | 00:00:00 | |
| DL1XH-west | 2026-09-04 01:06:38 | 53.28259 | 9.96279 | 103° | 51km/h | 1189m | -5.8m/s | 11.3°C | 67.9% | 882.9hPa | 2.7V | 07:45:32 | 02:47:08 | 00:00:00 | |
| DL1XH-west | 2026-09-04 01:06:37 | 53.28262 | 9.96258 | 103° | 51km/h | 1195m | -5.6m/s | 11.3°C | 67.4% | 882.3hPa | 2.7V | 07:45:32 | 02:47:07 | 00:00:00 | |
| DL1XH-west | 2026-09-04 01:06:35 | 53.28268 | 9.96215 | 103° | 51km/h | 1205m | -5.8m/s | 11.3°C | 66.7% | 881.4hPa | 2.7V | 07:45:32 | 02:47:05 | 00:00:00 | |
| DL1XH1-15 | 2026-09-04 01:06:33 | 53.28273 | 9.96173 | 102° | 51km/h | 1216m | -6m/s | 11.2°C | 62.5% | 880.2hPa | 2.7V | 07:45:05 | 02:47:03 | 00:00:00 | |
| DL1XH1-15 | 2026-09-04 01:06:33 | 53.28279 | 9.96131 | 102° | 51km/h | 1227m | -5.9m/s | 11.1°C | 62.3% | 879hPa | 2.6V | 07:45:07 | 02:47:01 | 00:00:00 | |
| DL1XH-west | 2026-09-04 01:06:33 | 53.28274 | 9.96173 | 102° | 51km/h | 1216m | -6m/s | 11.2°C | 66.9% | 880.2hPa | 2.7V | 07:45:32 | 02:47:03 | 00:00:00 | |
| DL1XH-west | 2026-09-04 01:06:32 | 53.28276 | 9.96152 | 102° | 51km/h | 1222m | -5.5m/s | 11.1°C | 66.8% | 879.7hPa | 2.7V | 07:45:32 | 02:47:02 | 00:00:00 | |
| DL1XH-west | 2026-09-04 01:06:30 | 53.28282 | 9.96110 | 102° | 51km/h | 1233m | -5.2m/s | 11.1°C | 65.8% | 878.3hPa | 2.7V | 07:45:32 | 02:47:00 | 00:00:00 | |
| DL1XH-west | 2026-09-04 01:06:30 | 53.28284 | 9.96089 | 102° | 51km/h | 1238m | -4.9m/s | 11.1°C | 65.9% | 877.8hPa | 2.7V | 07:45:32 | 02:46:59 | 00:00:00 | |
| DL1XH1-15 | 2026-09-04 01:06:28 | 53.28290 | 9.96046 | 102° | 53km/h | 1248m | -5.8m/s | 11°C | 61.9% | 876.6hPa | 2.7V | 07:45:11 | 02:46:57 | 00:00:00 | |
| DL1XH-west | 2026-09-04 01:06:28 | 53.28287 | 9.96067 | 102° | 53km/h | 1243m | -5.4m/s | 11°C | 66% | 877.4hPa | 2.7V | 07:45:32 | 02:46:58 | 00:00:00 | |
| DM0DOS-11 | 2026-09-04 01:06:26 | 53.28296 | 9.96002 | 102° | 53km/h | 1260m | -5.9m/s | 10.9°C | 62.1% | 875.4hPa | 2.7V | 07:45:13 | 02:46:55 | 00:00:00 | |
| DL1XH-west | 2026-09-04 01:06:26 | 53.28293 | 9.96024 | 104° | 53km/h | 1254m | -5.8m/s | 11°C | 66.9% | 876hPa | 2.6V | 07:45:32 | 02:46:56 | 00:00:00 | |
| DB0DAN | 2026-09-04 01:06:25 | 53.28296 | 9.96002 | 102° | 51km/h | 1260m | -5.9m/s | 10.9°C | 61.7% | 875.4hPa | 2.7V | 00:00:00 | 00:00:00 | 00:00:00 | |
| DL1XH-west | 2026-09-04 01:06:25 | 53.28296 | 9.96002 | 103° | 53km/h | 1260m | -5.9m/s | 10.9°C | 67.4% | 875.4hPa | 2.7V | 07:45:32 | 02:46:55 | 00:00:00 | |
| DL1XH-15 | 2026-09-04 01:06:24 | 53.28302 | 9.95957 | 103° | 55km/h | 1274m | -7.9m/s | 10.9°C | 61.8% | 874.2hPa | 2.7V | 07:45:15 | 02:46:53 | 00:00:00 | |
| DL1XH-west | 2026-09-04 01:06:24 | 53.28299 | 9.95980 | 102° | 55km/h | 1266m | -6.5m/s | 10.9°C | 67.5% | 874.9hPa | 2.7V | 07:45:32 | 02:46:54 | 00:00:00 | |
| DL1XH-west | 2026-09-04 01:06:23 | 53.28302 | 9.95957 | 103° | 55km/h | 1274m | -7.9m/s | 10.9°C | 67.3% | 874.2hPa | 2.7V | 07:45:32 | 02:46:53 | 00:00:00 | |
| DM0DOS-11 | 2026-09-04 01:06:21 | 53.28313 | 9.95866 | 100° | 55km/h | 1298m | -6m/s | 10.7°C | 62.1% | 871.4hPa | 2.7V | 07:45:19 | 02:46:49 | 00:00:00 | |
| DL1XH-west | 2026-09-04 01:06:21 | 53.28308 | 9.95912 | 101° | 55km/h | 1287m | -6.7m/s | 10.8°C | 66.6% | 872.8hPa | 2.6V | 07:45:32 | 02:46:51 | 00:00:00 | |
| DL1XH-west | 2026-09-04 01:06:20 | 53.28310 | 9.95889 | 102° | 55km/h | 1292m | -5.4m/s | 10.7°C | 66.8% | 872hPa | 2.7V | 07:45:32 | 02:46:50 | 00:00:00 | |
| DL1XH-west | 2026-09-04 01:06:19 | 53.28313 | 9.95866 | 101° | 55km/h | 1298m | -6m/s | 10.7°C | 67.2% | 871.4hPa | 2.7V | 07:45:32 | 02:46:49 | 00:00:00 | |
| DL1XH-15 | 2026-09-04 01:06:18 | 53.28318 | 9.95821 | 99° | 55km/h | 1310m | -6.7m/s | 10.6°C | 62.7% | 870.3hPa | 2.7V | 07:45:21 | 02:46:47 | 00:00:00 | |
| DL1XH-west | 2026-09-04 01:06:17 | 53.28318 | 9.95821 | 100° | 55km/h | 1310m | -6.7m/s | 10.6°C | 67.9% | 870.3hPa | 2.7V | 07:45:32 | 02:46:47 | 00:00:00 | |
| DL1XH1-15 | 2026-09-04 01:06:16 | 53.28322 | 9.95774 | 98° | 57km/h | 1322m | -5.6m/s | 10.5°C | 63.3% | 869.1hPa | 2.7V | 07:45:23 | 02:46:45 | 00:00:00 | |
| DL1XH-west | 2026-09-04 01:06:15 | 53.28322 | 9.95774 | 99° | 57km/h | 1322m | -5.6m/s | 10.5°C | 68.3% | 869.1hPa | 2.7V | 07:45:32 | 02:46:45 | 00:00:00 | |
| DL1XH-west | 2026-09-04 01:06:14 | 53.28324 | 9.95751 | 99° | 57km/h | 1328m | -6m/s | 10.5°C | 68.3% | 868.4hPa | 2.7V | 07:45:32 | 02:46:44 | 00:00:00 | |
| DL1XH-west | 2026-09-04 01:06:13 | 53.28327 | 9.95727 | 99° | 57km/h | 1333m | -4.8m/s | 10.4°C | 68.8% | 867.9hPa | 2.7V | 07:45:32 | 02:46:43 | 00:00:00 | |
| DL1XH-15 | 2026-09-04 01:06:12 | 53.28331 | 9.95680 | 99° | 57km/h | 1343m | -5.3m/s | 10.3°C | 64.6% | 866.7hPa | 2.7V | 07:45:27 | 02:46:41 | 00:00:00 | |
| DL1XH-west | 2026-09-04 01:06:11 | 53.28331 | 9.95680 | 100° | 57km/h | 1343m | -5.3m/s | 10.3°C | 69.1% | 866.7hPa | 2.7V | 07:45:32 | 02:46:41 | 00:00:00 | |
| DB0DAN | 2026-09-04 01:06:10 | 53.28334 | 9.95656 | 101° | 55km/h | 1349m | -5.7m/s | 10.3°C | 64.8% | 866.22hPa | 2.7V | 00:00:00 | 00:00:00 | 00:00:00 | |
| DL1XH1-15 | 2026-09-04 01:06:10 | 53.28336 | 9.95632 | 100° | 57km/h | 1355m | -5.7m/s | 10.3°C | 63.3% | 865.7hPa | 2.7V | 07:45:29 | 02:46:39 | 00:00:00 | |
| DL1XH1-15 | 2026-09-04 01:06:10 | 53.28342 | 9.95586 | 101° | 55km/h | 1366m | -6.1m/s | 10.3°C | 65% | 864.4hPa | 2.6V | 07:45:31 | 02:46:37 | 00:00:00 | |
| DL1XH-west | 2026-09-04 01:06:09 | 53.28336 | 9.95632 | 100° | 57km/h | 1355m | -5.7m/s | 10.3°C | 68.3% | 865.7hPa | 2.7V | 07:45:32 | 02:46:39 | 00:00:00 | |
| DL1XH-west | 2026-09-04 01:06:07 | 53.28342 | 9.95586 | 101° | 55km/h | 1366m | -6.1m/s | 10.3°C | 69.9% | 864.4hPa | 2.6V | 07:45:32 | 02:46:37 | 00:00:00 | |
| DL1XH-15 | 2026-09-04 01:06:06 | 53.28347 | 9.95540 | 99° | 55km/h | 1378m | -5.5m/s | 10.2°C | 60.6% | 863.3hPa | 2.7V | 07:45:33 | 02:46:35 | 00:00:00 | |
| DL1XH-west | 2026-09-04 01:06:06 | 53.28344 | 9.95563 | 101° | 55km/h | 1372m | -6.1m/s | 10.3°C | 66% | 863.9hPa | 2.7V | 07:45:32 | 02:46:36 | 00:00:00 | |
| DL1XH-west | 2026-09-04 01:06:05 | 53.28347 | 9.95540 | 100° | 55km/h | 1378m | -5.5m/s | 10.3°C | 65.3% | 863.3hPa | 2.7V | 07:46:23 | 02:46:35 | 00:00:00 | |
| DL1XH-west | 2026-09-04 01:06:03 | 53.28352 | 9.95493 | 99° | 57km/h | 1387m | -4.8m/s | 10.2°C | 65.5% | 862.2hPa | 2.7V | 07:46:23 | 02:46:33 | 00:00:00 | |
| DL1XH-west | 2026-09-04 01:06:01 | 53.28356 | 9.95445 | 98° | 58km/h | 1397m | -3.9m/s | 10.1°C | 65.4% | 861.1hPa | 2.7V | 07:46:23 | 02:46:31 | 00:00:00 | |
| DL1XH-west | 2026-09-04 01:05:59 | 53.28361 | 9.95396 | 99° | 58km/h | 1408m | -6.3m/s | 10°C | 69.8% | 860hPa | 2.6V | 07:46:23 | 02:46:29 | 00:00:00 | |
| DJ2DS-15 | 2026-09-04 01:05:59 | 53.28360 | 9.95396 | 100° | 58km/h | 1408m | -6.2m/s | 10.0°C | 64.9% | 859.9hPa | 2.7V | 00:00:00 | 02:46:29 | 00:00:00 | |
| DL1XH1-15 | 2026-09-04 01:05:58 | 53.28369 | 9.95299 | 97° | 58km/h | 1431m | -5.8m/s | 9.9°C | 67.2% | 857.8hPa | 2.7V | 07:45:43 | 02:46:25 | 00:00:00 | |
| DL1XH-west | 2026-09-04 01:05:58 | 53.28363 | 9.95372 | 98° | 58km/h | 1414m | -5.7m/s | 10°C | 71.6% | 859.5hPa | 2.6V | 07:46:23 | 02:46:28 | 00:00:00 | |
| DL1XH-west | 2026-09-04 01:05:57 | 53.28365 | 9.95348 | 98° | 58km/h | 1419m | -5.9m/s | 10°C | 71.2% | 858.9hPa | 2.7V | 07:46:23 | 02:46:27 | 00:00:00 | |
| DB0DAN | 2026-09-04 01:05:55 | 53.28369 | 9.95299 | 98° | 55km/h | 1431m | -5.8m/s | 9.9°C | 66.6% | 857.76hPa | 2.7V | 00:00:00 | 00:00:00 | 00:00:00 | |
| DL1XH-west | 2026-09-04 01:05:55 | 53.28369 | 9.95299 | 98° | 58km/h | 1431m | -5.8m/s | 9.9°C | 71.5% | 857.8hPa | 2.7V | 07:46:23 | 02:46:25 | 00:00:00 | |
| DJ2DS-15 | 2026-09-04 01:05:54 | 53.28371 | 9.95275 | 98° | 58km/h | 1436m | -4.5m/s | 9.9°C | 68.1% | 857.2hPa | 2.7V | 00:00:00 | 02:46:24 | 00:00:00 | |
| DL1XH1-15 | 2026-09-04 01:05:53 | 53.28376 | 9.95202 | 97° | 58km/h | 1451m | -5.8m/s | 9.8°C | 71.1% | 855.4hPa | 2.7V | 07:45:47 | 02:46:21 | 00:00:00 | |
| DL1XH-west | 2026-09-04 01:05:53 | 53.28373 | 9.95251 | 97° | 57km/h | 1441m | -5.3m/s | 9.9°C | 74% | 856.7hPa | 2.7V | 07:46:23 | 02:46:23 | 00:00:00 | |
| DL1XH-west | 2026-09-04 01:05:51 | 53.28376 | 9.95202 | 97° | 58km/h | 1451m | -5.9m/s | 9.8°C | 75.2% | 855.4hPa | 2.7V | 07:46:23 | 02:46:21 | 00:00:00 | |
| DL1XH-west | 2026-09-04 01:05:49 | 53.28380 | 9.95153 | 98° | 58km/h | 1462m | -5.3m/s | 9.8°C | 75.7% | 854.5hPa | 2.6V | 07:46:23 | 02:46:19 | 00:00:00 | |
| DL1XH-west | 2026-09-04 01:05:48 | 53.28382 | 9.95128 | 98° | 58km/h | 1467m | -4.6m/s | 9.8°C | 76.8% | 854hPa | 2.7V | 07:46:23 | 02:46:18 | 00:00:00 | |
| DL1XH-west | 2026-09-04 01:05:46 | 53.28386 | 9.95079 | 99° | 58km/h | 1477m | -5m/s | 9.7°C | 77.5% | 853hPa | 2.7V | 07:46:23 | 02:46:16 | 00:00:00 | |
| DL1XH-west | 2026-09-04 01:05:45 | 53.28388 | 9.95055 | 98° | 58km/h | 1482m | -5.5m/s | 9.7°C | 77.4% | 852.5hPa | 2.7V | 07:46:23 | 02:46:15 | 00:00:00 | |
| DM0DOS-11 | 2026-09-04 01:05:44 | 53.28392 | 9.95006 | 98° | 58km/h | 1492m | -5.5m/s | 9.6°C | 73.7% | 851.6hPa | 2.7V | 07:45:55 | 02:46:13 | 00:00:00 | |
| DL1XH-west | 2026-09-04 01:05:44 | 53.28390 | 9.95030 | 98° | 58km/h | 1487m | -4.9m/s | 9.6°C | 77.3% | 851.9hPa | 2.7V | 07:46:23 | 02:46:14 | 00:00:00 | |
| DL1XH-west | 2026-09-04 01:05:43 | 53.28392 | 9.95006 | 98° | 58km/h | 1492m | -5.5m/s | 9.6°C | 77.3% | 851.6hPa | 2.7V | 07:46:23 | 02:46:13 | 00:00:00 | |
| DL1XH-15 | 2026-09-04 01:05:42 | 53.28397 | 9.94957 | 97° | 58km/h | 1503m | -5.9m/s | 9.5°C | 73.2% | 850.4hPa | 2.6V | 07:45:57 | 02:46:11 | 00:00:00 | |
| DL1XH-15 | 2026-09-04 01:05:42 | 53.28400 | 9.94907 | 94° | 60km/h | 1514m | -6.1m/s | 9.5°C | 74.1% | 849.3hPa | 2.7V | 07:45:59 | 02:46:09 | 00:00:00 | |
| DL1XH-west | 2026-09-04 01:05:42 | 53.28395 | 9.94981 | 98° | 58km/h | 1497m | -4.9m/s | 9.6°C | 77.3% | 851hPa | 2.7V | 07:46:23 | 02:46:12 | 00:00:00 | |
| DL1XH-west | 2026-09-04 01:05:41 | 53.28397 | 9.94957 | 97° | 58km/h | 1503m | -5.9m/s | 9.5°C | 77% | 850.4hPa | 2.6V | 07:46:23 | 02:46:11 | 00:00:00 | |
| DB0DAN | 2026-09-04 01:05:40 | 53.28398 | 9.94932 | 96° | 57km/h | 1508m | -5.7m/s | 9.5°C | 72.7% | 849.89hPa | 2.6V | 00:00:00 | 00:00:00 | 00:00:00 | |
| DL1XH-west | 2026-09-04 01:05:39 | 53.28400 | 9.94907 | 95° | 60km/h | 1514m | -6.1m/s | 9.5°C | 77.6% | 849.3hPa | 2.7V | 07:46:23 | 02:46:09 | 00:00:00 | |
| DL1XH1-15 | 2026-09-04 01:05:38 | 53.28402 | 9.94857 | 94° | 60km/h | 1525m | -4.4m/s | 9.5°C | 71.3% | 848.3hPa | 2.7V | 07:46:01 | 02:46:07 | 00:00:00 | |
| BIOWL1-15 | 2026-09-04 01:05:38 | 53.28401 | 9.94882 | 95° | 60km/h | 1520m | -5.2m/s | 9.5°C | 76.7% | 848.8hPa | 2.7V | 07:46:23 | 02:46:08 | 00:00:00 | |
| DL1XH-west | 2026-09-04 01:05:37 | 53.28402 | 9.94857 | 94° | 60km/h | 1525m | -4.4m/s | 9.5°C | 74.9% | 848.3hPa | 2.7V | 07:46:23 | 02:46:07 | 00:00:00 | |
| BIOWL1-15 | 2026-09-04 01:05:36 | 53.28406 | 9.94781 | 94° | 62km/h | 1540m | -6.6m/s | 9.5°C | 71.7% | 846.7hPa | 2.7V | 07:46:23 | 02:46:04 | 00:00:00 | |
| DL1XH-west | 2026-09-04 01:05:35 | 53.28405 | 9.94806 | 94° | 62km/h | 1534m | -5.3m/s | 9.5°C | 71% | 847.2hPa | 2.7V | 07:46:23 | 02:46:05 | 00:00:00 | |
| DL1XH-west | 2026-09-04 01:05:33 | 53.28407 | 9.94755 | 94° | 62km/h | 1546m | -5.2m/s | 9.6°C | 67.5% | 846hPa | 2.7V | 07:46:23 | 02:46:03 | 00:00:00 | |
| DL1XH-west | 2026-09-04 01:05:32 | 53.28408 | 9.94728 | 95° | 62km/h | 1551m | -5.1m/s | 9.5°C | 63.8% | 845.4hPa | 2.6V | 07:46:23 | 02:46:02 | 00:00:00 | |
| DL1XH-15 | 2026-09-04 01:05:30 | 53.28413 | 9.94649 | 96° | 64km/h | 1568m | -5.9m/s | 9.3°C | 68.6% | 843.9hPa | 2.7V | 07:46:09 | 02:45:59 | 00:00:00 | |
| DL1XH-west | 2026-09-04 01:05:30 | 53.28411 | 9.94676 | 96° | 64km/h | 1562m | -5.7m/s | 9.3°C | 76.2% | 844.3hPa | 2.7V | 07:46:23 | 02:46:00 | 00:00:00 | |
| DL1XH-west | 2026-09-04 01:05:29 | 53.28413 | 9.94649 | 96° | 64km/h | 1568m | -5.9m/s | 9.3°C | 73.8% | 843.9hPa | 2.7V | 07:46:23 | 02:45:59 | 00:00:00 | |
| DJ2DS-15 | 2026-09-04 01:05:29 | 53.28413 | 9.94649 | 97° | 62km/h | 1568m | -5.8m/s | 9.3°C | 68.6% | 843.8hPa | 2.7V | 00:00:00 | 02:45:59 | 00:00:00 | |
| DL1XH1-15 | 2026-09-04 01:05:28 | 53.28419 | 9.94544 | 95° | 62km/h | 1593m | -6.5m/s | 9.3°C | 61.9% | 841.4hPa | 2.7V | 07:46:13 | 02:45:55 | 00:00:00 | |
| DL1XH-west | 2026-09-04 01:05:27 | 53.28416 | 9.94597 | 97° | 62km/h | 1580m | -6.2m/s | 9.3°C | 71.2% | 842.6hPa | 2.7V | 07:46:23 | 02:45:57 | 00:00:00 | |
| DB0DAN | 2026-09-04 01:05:25 | 53.28419 | 9.94544 | 96° | 60km/h | 1593m | -6.5m/s | 9.3°C | 61.4% | 841.37hPa | 2.7V | 00:00:00 | 00:00:00 | 00:00:00 | |
| DL1XH-west | 2026-09-04 01:05:25 | 53.28419 | 9.94544 | 96° | 62km/h | 1593m | -6.5m/s | 9.3°C | 67.2% | 841.4hPa | 2.7V | 07:46:23 | 02:45:55 | 00:00:00 | |
| DL1XH-west | 2026-09-04 01:05:23 | 53.28422 | 9.94492 | 95° | 62km/h | 1606m | -5.7m/s | 9.2°C | 68.3% | 840hPa | 2.7V | 07:46:23 | 02:45:53 | 00:00:00 | |
| DL1XH-west | 2026-09-04 01:05:21 | 53.28425 | 9.94439 | 95° | 62km/h | 1617m | -5.3m/s | 9.1°C | 69% | 838.8hPa | 2.7V | 07:46:23 | 02:45:51 | 00:00:00 | |
| DL1XH-west | 2026-09-04 01:05:20 | 53.28427 | 9.94413 | 95° | 62km/h | 1622m | -5.4m/s | 9.1°C | 69.7% | 838.3hPa | 2.7V | 07:46:23 | 02:45:50 | 00:00:00 | |
| DL1XH-west | 2026-09-04 01:05:18 | 53.28429 | 9.94360 | 94° | 64km/h | 1632m | -5.4m/s | 9°C | 72.6% | 837.3hPa | 2.6V | 07:46:23 | 02:45:48 | 00:00:00 | |
| AA1-15 | 2026-09-04 01:05:17 | 53.28430 | 9.94334 | 93° | 64km/h | 1638m | -5.7m/s | 9°C | 74.5% | 836.7hPa | 2.7V | 07:46:23 | 02:45:47 | 00:00:00 | |
| DL1XH1-15 | 2026-09-04 01:05:16 | 53.28432 | 9.94280 | 93° | 64km/h | 1649m | -4.8m/s | 8.8°C | 73.8% | 835.5hPa | 2.7V | 07:46:23 | 02:45:45 | 00:00:00 | |
| DL1XH-west | 2026-09-04 01:05:16 | 53.28431 | 9.94307 | 94° | 64km/h | 1644m | -5.5m/s | 8.9°C | 77.2% | 836.1hPa | 2.7V | 07:46:23 | 02:45:46 | 00:00:00 | |
| AA1-15 | 2026-09-04 01:05:15 | 53.28432 | 9.94280 | 94° | 64km/h | 1649m | -4.9m/s | 8.9°C | 78.3% | 835.5hPa | 2.7V | 07:46:23 | 02:45:45 | 00:00:00 | |
| DL1XH-west | 2026-09-04 01:05:13 | 53.28434 | 9.94225 | 94° | 66km/h | 1659m | -5m/s | 8.8°C | 79.6% | 834.6hPa | 2.7V | 07:47:14 | 02:45:43 | 00:00:00 | |
| DL1XH-15 | 2026-09-04 01:05:12 | 53.28436 | 9.94171 | 93° | 64km/h | 1670m | -6.4m/s | 8.7°C | 75% | 833.5hPa | 2.7V | 07:46:27 | 02:45:41 | 00:00:00 | |
| DL1XH-west | 2026-09-04 01:05:12 | 53.28435 | 9.94198 | 94° | 66km/h | 1664m | -5m/s | 8.8°C | 79.8% | 834hPa | 2.7V | 07:47:14 | 02:45:42 | 00:00:00 | |
| AA1-15 | 2026-09-04 01:05:11 | 53.28436 | 9.94171 | 94° | 64km/h | 1670m | -6.4m/s | 8.7°C | 80% | 833.5hPa | 2.7V | 07:47:14 | 02:45:41 | 00:00:00 | |
| DB0DAN | 2026-09-04 01:05:10 | 53.28437 | 9.94144 | 94° | 60km/h | 1676m | -6.1m/s | 8.7°C | 74.6% | 832.88hPa | 2.6V | 00:00:00 | 00:00:00 | 00:00:00 | |
| DL1XH-west | 2026-09-04 01:05:10 | 53.28439 | 9.94117 | 95° | 64km/h | 1682m | -5.5m/s | 8.6°C | 79.5% | 832.2hPa | 2.6V | 07:47:14 | 02:45:39 | 00:00:00 | |
| DL1XH1-15 | 2026-09-04 01:05:10 | 53.28439 | 9.94117 | 95° | 64km/h | 1682m | -5.5m/s | 8.6°C | 75.4% | 832.2hPa | 2.6V | 07:46:29 | 02:45:39 | 00:00:00 | |
| DM0DOS-11 | 2026-09-04 01:05:09 | 53.28441 | 9.94064 | 95° | 62km/h | 1692m | -5.3m/s | 8.5°C | 75.9% | 831.1hPa | 2.7V | 07:46:31 | 02:45:37 | 00:00:00 | |
| DL1XH-west | 2026-09-04 01:05:08 | 53.28440 | 9.94090 | 95° | 64km/h | 1687m | -4.9m/s | 8.6°C | 79.4% | 831.6hPa | 2.7V | 07:47:14 | 02:45:38 | 00:00:00 | |
| DL1XH-west | 2026-09-04 01:05:06 | 53.28443 | 9.94038 | 95° | 62km/h | 1697m | -5.1m/s | 8.5°C | 80.1% | 830.5hPa | 2.7V | 07:47:14 | 02:45:36 | 00:00:00 | |
| DL1XH-west | 2026-09-04 01:05:05 | 53.28444 | 9.94012 | 96° | 62km/h | 1702m | -5m/s | 8.4°C | 80.4% | 830.2hPa | 2.7V | 07:47:14 | 02:45:35 | 00:00:00 | |
| AA1-15 | 2026-09-04 01:05:04 | 53.28446 | 9.93986 | 95° | 62km/h | 1707m | -5.2m/s | 8.4°C | 80.7% | 829.6hPa | 2.6V | 07:47:14 | 02:45:34 | 00:00:00 | |
| AA1-15 | 2026-09-04 01:05:03 | 53.28447 | 9.93960 | 95° | 62km/h | 1713m | -5.6m/s | 8.3°C | 81.1% | 829.2hPa | 2.7V | 07:47:14 | 02:45:33 | 00:00:00 | |
| DL1XH-west | 2026-09-04 01:05:02 | 53.28448 | 9.93934 | 95° | 62km/h | 1718m | -5.6m/s | 8.3°C | 81.4% | 828.7hPa | 2.7V | 07:47:14 | 02:45:32 | 00:00:00 | |
| DL1XH-west | 2026-09-04 01:05:01 | 53.28450 | 9.93908 | 95° | 62km/h | 1724m | -6m/s | 8.3°C | 81.6% | 828.1hPa | 2.7V | 07:47:14 | 02:45:31 | 00:00:00 | |
| DL1XH-west | 2026-09-04 01:04:59 | 53.28452 | 9.93855 | 94° | 62km/h | 1736m | -5.8m/s | 8.2°C | 81.6% | 826.9hPa | 2.7V | 07:47:14 | 02:45:29 | 00:00:00 | |
| DL1XH-west | 2026-09-04 01:04:58 | 53.28453 | 9.93829 | 93° | 62km/h | 1741m | -6.3m/s | 8.1°C | 81.7% | 826.4hPa | 2.7V | 07:47:14 | 02:45:28 | 00:00:00 | |
| DL1XH-west | 2026-09-04 01:04:57 | 53.28454 | 9.93803 | 94° | 62km/h | 1747m | -6m/s | 8.1°C | 81.7% | 825.6hPa | 2.6V | 07:47:14 | 02:45:27 | 00:00:00 | |
| DB0DAN | 2026-09-04 01:04:55 | 53.28456 | 9.93752 | 93° | 58km/h | 1758m | -4.7m/s | 8°C | 76.6% | 824.66hPa | 2.7V | 00:00:00 | 00:00:00 | 00:00:00 | |
| DL1XH-west | 2026-09-04 01:04:55 | 53.28456 | 9.93752 | 93° | 60km/h | 1758m | -4.7m/s | 8°C | 81.6% | 824.7hPa | 2.7V | 07:47:14 | 02:45:25 | 00:00:00 | |
| DL1XH-west | 2026-09-04 01:04:53 | 53.28458 | 9.93701 | 93° | 60km/h | 1768m | -4.9m/s | 8°C | 80.7% | 823.7hPa | 2.7V | 07:47:14 | 02:45:23 | 00:00:00 | |
| DL1XH-west | 2026-09-04 01:04:51 | 53.28459 | 9.93650 | 92° | 60km/h | 1778m | -5m/s | 7.9°C | 80.4% | 822.7hPa | 2.6V | 07:47:14 | 02:45:21 | 00:00:00 | |
| DL1XH-west | 2026-09-04 01:04:50 | 53.28460 | 9.93624 | 92° | 60km/h | 1783m | -5m/s | 7.9°C | 80% | 822hPa | 2.7V | 07:47:14 | 02:45:20 | 00:00:00 | |
| DL1XH-west | 2026-09-04 01:04:48 | 53.28461 | 9.93572 | 93° | 62km/h | 1793m | -5.3m/s | 7.8°C | 80% | 821.1hPa | 2.7V | 07:47:14 | 02:45:18 | 00:00:00 | |
| AA1-15 | 2026-09-04 01:04:47 | 53.28462 | 9.93546 | 93° | 62km/h | 1799m | -5.2m/s | 7.8°C | 80.1% | 820.3hPa | 2.6V | 07:47:14 | 02:45:17 | 00:00:00 | |
| DL1XH-west | 2026-09-04 01:04:46 | 53.28463 | 9.93519 | 93° | 62km/h | 1804m | -5.1m/s | 7.7°C | 80.2% | 819.9hPa | 2.7V | 07:47:14 | 02:45:16 | 00:00:00 | |
| DL1XH-west | 2026-09-04 01:04:45 | 53.28463 | 9.93493 | 93° | 62km/h | 1809m | -5.5m/s | 7.7°C | 80.4% | 819.5hPa | 2.7V | 07:47:14 | 02:45:15 | 00:00:00 | |
| DL1XH-west | 2026-09-04 01:04:44 | 53.28464 | 9.93467 | 93° | 62km/h | 1814m | -5.6m/s | 7.7°C | 80.5% | 818.9hPa | 2.7V | 07:47:14 | 02:45:14 | 00:00:00 | |
| DL1XH-west | 2026-09-04 01:04:42 | 53.28466 | 9.93415 | 93° | 62km/h | 1826m | -5.6m/s | 7.6°C | 80.4% | 817.8hPa | 2.7V | 07:47:14 | 02:45:12 | 00:00:00 | |
| AA1-15 | 2026-09-04 01:04:41 | 53.28467 | 9.93389 | 94° | 62km/h | 1831m | -5.1m/s | 7.5°C | 80.2% | 817.3hPa | 2.7V | 07:47:14 | 02:45:11 | 00:00:00 | |
| DB0DAN | 2026-09-04 01:04:40 | 53.28468 | 9.93363 | 94° | 58km/h | 1836m | -4.2m/s | 7.5°C | 75.6% | 816.69hPa | 2.6V | 00:00:00 | 00:00:00 | 00:00:00 | |
| DL1XH1-15 | 2026-09-04 01:04:40 | 53.28469 | 9.93336 | 93° | 62km/h | 1840m | -4.8m/s | 7.4°C | 76.3% | 816.3hPa | 2.6V | 07:46:59 | 02:45:09 | 00:00:00 | |
| AA1-15 | 2026-09-04 01:04:40 | 53.28468 | 9.93363 | 94° | 62km/h | 1836m | -4.2m/s | 7.5°C | 80.4% | 816.7hPa | 2.6V | 07:47:14 | 02:45:10 | 00:00:00 | |
| DL1XH-west | 2026-09-04 01:04:39 | 53.28469 | 9.93336 | 94° | 62km/h | 1840m | -4.8m/s | 7.4°C | 80.5% | 816.3hPa | 2.6V | 07:47:14 | 02:45:09 | 00:00:00 | |
| AA1-15 | 2026-09-04 01:04:38 | 53.28470 | 9.93310 | 94° | 64km/h | 1845m | -5.4m/s | 7.4°C | 81% | 815.9hPa | 2.7V | 07:47:14 | 02:45:08 | 00:00:00 | |
| AA1-15 | 2026-09-04 01:04:37 | 53.28471 | 9.93283 | 93° | 62km/h | 1850m | -5.1m/s | 7.4°C | 81% | 815.4hPa | 2.7V | 07:47:14 | 02:45:07 | 00:00:00 | |
| DL1XH-west | 2026-09-04 01:04:36 | 53.28472 | 9.93256 | 93° | 64km/h | 1855m | -5.3m/s | 7.3°C | 81.3% | 814.9hPa | 2.7V | 07:47:14 | 02:45:06 | 00:00:00 | |
| AA1-15 | 2026-09-04 01:04:35 | 53.28473 | 9.93230 | 93° | 64km/h | 1861m | -5.7m/s | 7.3°C | 81.7% | 814.4hPa | 2.7V | 07:47:14 | 02:45:05 | 00:00:00 | |
| DL1XH1-15 | 2026-09-04 01:04:34 | 53.28475 | 9.93176 | 93° | 64km/h | 1871m | -5m/s | 7.2°C | 77.5% | 813.1hPa | 2.7V | 07:47:05 | 02:45:03 | 00:00:00 | |
| DL1XH-west | 2026-09-04 01:04:34 | 53.28474 | 9.93203 | 93° | 64km/h | 1866m | -5.3m/s | 7.3°C | 81.8% | 813.8hPa | 2.7V | 07:47:14 | 02:45:04 | 00:00:00 | |
| BIOWL1-15 | 2026-09-04 01:04:33 | 53.28475 | 9.93176 | 94° | 64km/h | 1871m | -5m/s | 7.2°C | 82.1% | 813.2hPa | 2.7V | 07:47:14 | 02:45:03 | 00:00:00 | |
| DL1XH-west | 2026-09-04 01:04:32 | 53.28476 | 9.93149 | 94° | 64km/h | 1876m | -5.1m/s | 7.2°C | 82.7% | 812.9hPa | 2.6V | 07:47:14 | 02:45:02 | 00:00:00 | |
| AA1-15 | 2026-09-04 01:04:31 | 53.28477 | 9.93122 | 95° | 64km/h | 1881m | -4.6m/s | 7.1°C | 83.1% | 812.2hPa | 2.6V | 07:47:14 | 02:45:01 | 00:00:00 | |
| DL1XH-west | 2026-09-04 01:04:30 | 53.28479 | 9.93095 | 96° | 64km/h | 1886m | -5.8m/s | 7.1°C | 83.3% | 811.8hPa | 2.7V | 07:47:14 | 02:45:00 | 00:00:00 | |
| AA1-15 | 2026-09-04 01:04:29 | 53.28480 | 9.93069 | 96° | 64km/h | 1892m | -6.2m/s | 7°C | 84.3% | 811.2hPa | 2.7V | 07:47:14 | 02:44:59 | 00:00:00 | |
| DL1XH-west | 2026-09-04 01:04:28 | 53.28482 | 9.93042 | 96° | 64km/h | 1898m | -5.6m/s | 7°C | 83.5% | 810.6hPa | 2.7V | 07:47:14 | 02:44:58 | 00:00:00 | |
| BIOWL1-15 | 2026-09-04 01:04:27 | 53.28483 | 9.93014 | 96° | 66km/h | 1903m | -5m/s | 7°C | 83.6% | 810hPa | 2.7V | 07:47:14 | 02:44:57 | 00:00:00 | |
| AA1-15 | 2026-09-04 01:04:26 | 53.28485 | 9.92987 | 96° | 66km/h | 1908m | -5.4m/s | 7°C | 83.7% | 809.6hPa | 2.7V | 07:47:14 | 02:44:56 | 00:00:00 | |
| DL1XH-west | 2026-09-04 01:04:26 | 53.28487 | 9.92960 | 96° | 66km/h | 1913m | -5.1m/s | 7°C | 84% | 809.1hPa | 2.7V | 07:47:14 | 02:44:55 | 00:00:00 | |
| DB0DAN | 2026-09-04 01:04:25 | 53.28487 | 9.92960 | 96° | 62km/h | 1914m | -5.1m/s | 7°C | 78.3% | 809.08hPa | 2.7V | 00:00:00 | 00:00:00 | 00:00:00 | |
| DL1XH-15 | 2026-09-04 01:04:23 | 53.28490 | 9.92905 | 96° | 66km/h | 1924m | -5.5m/s | 6.9°C | 79.3% | 808.1hPa | 2.6V | 07:47:15 | 02:44:53 | 00:00:00 | |
| DL1XH-west | 2026-09-04 01:04:23 | 53.28491 | 9.92905 | 97° | 66km/h | 1924m | -5.5m/s | 6.9°C | 84.1% | 808.1hPa | 2.6V | 07:48:05 | 02:44:53 | 00:00:00 | |
| DL1XH1-15 | 2026-09-04 01:04:22 | 53.28494 | 9.92850 | 96° | 64km/h | 1935m | -6.2m/s | 6.8°C | 79.6% | 807.1hPa | 2.7V | 07:47:17 | 02:44:51 | 00:00:00 | |
| AA1-15 | 2026-09-04 01:04:22 | 53.28492 | 9.92877 | 97° | 66km/h | 1929m | -4.9m/s | 6.8°C | 84.3% | 807.5hPa | 2.7V | 07:48:05 | 02:44:52 | 00:00:00 | |
| DL1XH-west | 2026-09-04 01:04:21 | 53.28494 | 9.92850 | 97° | 64km/h | 1935m | -6.2m/s | 6.8°C | 84.2% | 807.1hPa | 2.7V | 07:48:05 | 02:44:51 | 00:00:00 | |
| DM0DOS-11 | 2026-09-04 01:04:20 | 53.28498 | 9.92796 | 95° | 66km/h | 1946m | -5.1m/s | 6.7°C | 80.3% | 805.9hPa | 2.7V | 07:47:19 | 02:44:49 | 00:00:00 | |
| AA1-15 | 2026-09-04 01:04:20 | 53.28496 | 9.92823 | 96° | 64km/h | 1941m | -5.8m/s | 6.7°C | 83.8% | 806.4hPa | 2.7V | 07:48:05 | 02:44:50 | 00:00:00 | |
| AA1-15 | 2026-09-04 01:04:19 | 53.28498 | 9.92796 | 96° | 66km/h | 1946m | -5.1m/s | 6.7°C | 83.5% | 805.9hPa | 2.7V | 07:48:05 | 02:44:49 | 00:00:00 | |
| DL1XH-west | 2026-09-04 01:04:17 | 53.28501 | 9.92741 | 95° | 64km/h | 1955m | -5m/s | 6.6°C | 84.5% | 804.9hPa | 2.7V | 07:48:05 | 02:44:47 | 00:00:00 | |
| AA1-15 | 2026-09-04 01:04:16 | 53.28502 | 9.92714 | 95° | 64km/h | 1960m | -5m/s | 6.6°C | 85.3% | 804.5hPa | 2.6V | 07:48:05 | 02:44:46 | 00:00:00 | |
| DL1XH-west | 2026-09-04 01:04:15 | 53.28504 | 9.92687 | 95° | 66km/h | 1965m | -5m/s | 6.5°C | 85.6% | 803.9hPa | 2.6V | 07:48:05 | 02:44:45 | 00:00:00 | |
| DM0DOS-11 | 2026-09-04 01:04:14 | 53.28506 | 9.92632 | 94° | 66km/h | 1977m | -5.3m/s | 6.4°C | 82.1% | 802.9hPa | 2.7V | 07:47:25 | 02:44:43 | 00:00:00 | |
| DL1XH-west | 2026-09-04 01:04:14 | 53.28505 | 9.92659 | 95° | 66km/h | 1971m | -7.3m/s | 6.5°C | 85.9% | 803.5hPa | 2.7V | 07:48:05 | 02:44:44 | 00:00:00 | |
| DL1XH-west | 2026-09-04 01:04:13 | 53.28507 | 9.92632 | 95° | 66km/h | 1977m | -5.3m/s | 6.4°C | 86.1% | 802.9hPa | 2.7V | 07:48:05 | 02:44:43 | 00:00:00 | |
| D01LWL | 2026-09-04 01:04:13 | 53.28507 | 9.92632 | 94° | 64km/h | 1977m | -5.3m/s | 6.4°C | 81.2% | 802.9hPa | 2.6V | 00:00:00 | 00:00:00 | 00:00:00 | |
| DJ2DS-15 | 2026-09-04 01:04:13 | 53.28508 | 9.92604 | 94° | 64km/h | 1982m | -5.1m/s | 6.4°C | 81.3% | 802.4hPa | 2.6V | 00:00:00 | 00:00:00 | 00:00:00 | |
| DL1XH-15 | 2026-09-04 01:04:12 | 53.28514 | 9.92467 | 93° | 66km/h | 2012m | -5.5m/s | 6.1°C | 82.7% | 799.5hPa | 2.6V | 07:47:31 | 02:44:37 | 00:00:00 | |
| DL1XH-west | 2026-09-04 01:04:12 | 53.28508 | 9.92604 | 95° | 66km/h | 1982m | -5.1m/s | 6.4°C | 86.5% | 802.4hPa | 2.7V | 07:48:05 | 02:44:42 | 00:00:00 | |
| DL1XH-west | 2026-09-04 01:04:11 | 53.28509 | 9.92577 | 94° | 66km/h | 1988m | -5m/s | 6.3°C | 87.1% | 801.9hPa | 2.7V | 07:48:05 | 02:44:41 | 00:00:00 | |
| DB0DAN | 2026-09-04 01:04:10 | 53.28511 | 9.92549 | 95° | 62km/h | 1993m | -6.2m/s | 6.3°C | 81.6% | 801.23hPa | 2.7V | 00:00:00 | 00:00:00 | 00:00:00 | |
| AA1-15 | 2026-09-04 01:04:10 | 53.28511 | 9.92549 | 95° | 64km/h | 1993m | -6.2m/s | 6.3°C | 87.3% | 801.2hPa | 2.7V | 07:48:05 | 02:44:40 | 00:00:00 | |
| DM0DOS-11 | 2026-09-04 01:04:09 | 53.28512 | 9.92522 | 94° | 66km/h | 2000m | -6.6m/s | 6.2°C | 82.6% | 800.7hPa | 2.7V | 07:47:29 | 02:44:39 | 00:00:00 | |
| DM0DOS-11 | 2026-09-04 01:04:09 | 53.28518 | 9.92383 | 93° | 68km/h | 2029m | -4.7m/s | 6.1°C | 81.2% | 797.9hPa | 2.7V | 07:47:34 | 02:44:34 | 00:00:00 | |
| DL1XH-west | 2026-09-04 01:04:09 | 53.28512 | 9.92522 | 95° | 66km/h | 2000m | -6.6m/s | 6.3°C | 87.5% | 800.7hPa | 2.7V | 07:48:05 | 02:44:39 | 00:00:00 | |
| BIOWL1-15 | 2026-09-04 01:04:06 | 53.28522 | 9.92240 | 94° | 68km/h | 2057m | -6.4m/s | 5.9°C | 85.8% | 795.2hPa | 2.6V | 07:48:05 | 02:44:29 | 00:00:00 | |
| DL1XH1-15 | 2026-09-04 01:04:05 | 53.28521 | 9.92268 | 93° | 66km/h | 2050m | -6.1m/s | 5.9°C | 80.8% | 795.9hPa | 2.6V | 07:47:38 | 02:44:30 | 00:00:00 | |
| DM0DOS-11 | 2026-09-04 01:04:04 | 53.28522 | 9.92240 | 94° | 68km/h | 2057m | -6.4m/s | 5.9°C | 80.7% | 795.2hPa | 2.6V | 07:47:39 | 02:44:29 | 00:00:00 | |
| DL1XH-15 | 2026-09-04 01:04:02 | 53.28519 | 9.92326 | 92° | 69km/h | 2039m | -4.4m/s | 6°C | 81% | 796.9hPa | 2.7V | 07:47:36 | 02:44:32 | 00:00:00 | |
| DL1XH-15 | 2026-09-04 01:04:02 | 53.28524 | 9.92183 | 94° | 68km/h | 2069m | -5m/s | 5.8°C | 80.4% | 794hPa | 2.7V | 07:47:41 | 02:44:27 | 00:00:00 | |
| AA1-15 | 2026-09-04 01:04:02 | 53.28519 | 9.92326 | 93° | 69km/h | 2039m | -4.4m/s | 6°C | 85.8% | 796.9hPa | 2.7V | 07:48:05 | 02:44:32 | 00:00:00 | |
| DL1XH1-15 | 2026-09-04 01:04:00 | 53.28527 | 9.92127 | 93° | 68km/h | 2080m | -5.7m/s | 5.7°C | 80.7% | 792.9hPa | 2.7V | 07:47:43 | 02:44:25 | 00:00:00 | |
| DL1XH-west | 2026-09-04 01:04:00 | 53.28521 | 9.92268 | 93° | 68km/h | 2050m | -6.1m/s | 5.9°C | 86.2% | 795.9hPa | 2.6V | 07:48:05 | 02:44:30 | 00:00:00 | |
| BIOWL1-15 | 2026-09-04 01:03:56 | 53.28525 | 9.92155 | 94° | 68km/h | 2074m | -5.7m/s | 5.8°C | 84.9% | 793.4hPa | 2.7V | 07:48:05 | 02:44:26 | 00:00:00 | |
| DB0DAN | 2026-09-04 01:03:55 | 53.28527 | 9.92127 | 94° | 64km/h | 2080m | -5.7m/s | 5.7°C | 79.8% | 792.85hPa | 2.7V | 00:00:00 | 00:00:00 | 00:00:00 | |
| DL1XH-15 | 2026-09-04 01:03:53 | 53.28530 | 9.92042 | 93° | 68km/h | 2096m | -5m/s | 5.6°C | 81.1% | 791.3hPa | 2.6V | 07:47:46 | 02:44:22 | 00:00:00 | |
| DL1XH-15 | 2026-09-04 01:03:53 | 53.28535 | 9.91899 | 92° | 68km/h | 2123m | -5.4m/s | 5.3°C | 81.3% | 788.7hPa | 2.7V | 07:47:51 | 02:44:17 | 00:00:00 | |
| DM0DOS-11 | 2026-09-04 01:03:52 | 53.28533 | 9.91956 | 93° | 68km/h | 2112m | -5.5m/s | 5.4°C | 81.1% | 789.9hPa | 2.7V | 07:47:49 | 02:44:19 | 00:00:00 | |
| AA1-15 | 2026-09-04 01:03:51 | 53.28531 | 9.92013 | 93° | 68km/h | 2101m | -5.5m/s | 5.5°C | 84.9% | 790.9hPa | 2.6V | 07:48:05 | 02:44:21 | 00:00:00 | |
| DL1XH-west | 2026-09-04 01:03:50 | 53.28532 | 9.91985 | 93° | 68km/h | 2106m | -5.6m/s | 5.5°C | 85% | 790.4hPa | 2.7V | 07:48:05 | 02:44:20 | 00:00:00 | |
| DJ2DS-15 | 2026-09-04 01:03:50 | 53.28532 | 9.91984 | 94° | 68km/h | 2106m | -5.6m/s | 5.4°C | 80.9% | 790.4hPa | 2.7V | 07:47:00 | 02:44:20 | 00:00:00 | |
| DL1XH-15 | 2026-09-04 01:03:47 | 53.28538 | 9.91755 | 91° | 68km/h | 2149m | -5.7m/s | 5.1°C | 81.4% | 786.1hPa | 2.7V | 07:47:56 | 02:44:12 | 00:00:00 | |
| DL1XH1-15 | 2026-09-04 01:03:45 | 53.28539 | 9.91698 | 92° | 69km/h | 2159m | -5.6m/s | 5.1°C | 81.4% | 785.1hPa | 2.7V | 07:47:58 | 02:44:10 | 00:00:00 | |
| DM0DOS-11 | 2026-09-04 01:03:42 | 53.28540 | 9.91669 | 92° | 68km/h | 2164m | -5.3m/s | 5.1°C | 81% | 784.7hPa | 2.7V | 07:47:59 | 02:44:09 | 00:00:00 | |
| DL1XH-15 | 2026-09-04 01:03:42 | 53.28541 | 9.91611 | 92° | 68km/h | 2175m | -6.2m/s | 5°C | 81% | 783.6hPa | 2.7V | 07:48:01 | 02:44:07 | 00:00:00 | |
| AA1-15 | 2026-09-04 01:03:41 | 53.28538 | 9.91727 | 92° | 69km/h | 2154m | -4m/s | 5.1°C | 85.3% | 785.6hPa | 2.7V | 07:48:05 | 02:44:11 | 00:00:00 | |
| DB0DAN | 2026-09-04 01:03:40 | 53.28539 | 9.91697 | 93° | 66km/h | 2159m | -5.6m/s | 5.1°C | 80.4% | 785.1hPa | 2.7V | 00:00:00 | 00:00:00 | 00:00:00 | |
| DL1XH-west | 2026-09-04 01:03:39 | 53.28540 | 9.91668 | 92° | 68km/h | 2164m | -5.3m/s | 5.1°C | 84.4% | 784.7hPa | 2.7V | 07:48:05 | 02:44:09 | 00:00:00 | |
| DJ2DS-15 | 2026-09-04 01:03:36 | 53.28542 | 9.91582 | 92° | 68km/h | 2180m | -5.1m/s | 4.9°C | 79.9% | 783.0hPa | 2.7V | 00:00:00 | 00:00:00 | 00:00:00 | |
| DL1XH1-15 | 2026-09-04 01:03:35 | 53.28546 | 9.91413 | 92° | 66km/h | 2213m | -6.3m/s | 4.7°C | 80.9% | 780.1hPa | 2.7V | 07:48:08 | 02:44:00 | 00:00:00 | |
| BIOWL1-15 | 2026-09-04 01:03:35 | 53.28543 | 9.91554 | 92° | 68km/h | 2186m | -5.8m/s | 4.9°C | 83.6% | 782.6hPa | 2.6V | 07:48:05 | 02:44:05 | 00:00:00 | |
| DL1XH-15 | 2026-09-04 01:03:34 | 53.28545 | 9.91469 | 92° | 66km/h | 2201m | -6.3m/s | 4.8°C | 81.1% | 781.2hPa | 2.7V | 07:48:06 | 02:44:02 | 00:00:00 | |
| AA1-15 | 2026-09-04 01:03:30 | 53.28546 | 9.91413 | 92° | 66km/h | 2213m | -6.4m/s | 4.7°C | 83.8% | 780.1hPa | 2.7V | 07:48:56 | 02:44:00 | 00:00:00 | |
| DL1XH-west | 2026-09-04 01:03:29 | 53.28547 | 9.91385 | 93° | 66km/h | 2219m | -5.6m/s | 4.7°C | 83.6% | 779.5hPa | 2.6V | 07:48:56 | 02:43:59 | 00:00:00 | |
| DM0DOS-11 | 2026-09-04 01:03:27 | 53.28550 | 9.91247 | 89° | 66km/h | 2249m | -7m/s | 4.5°C | 79.6% | 776.7hPa | 2.7V | 07:48:14 | 02:43:54 | 00:00:00 | |
| DL1XH-15 | 2026-09-04 01:03:27 | 53.28548 | 9.91329 | 91° | 66km/h | 2230m | -4.6m/s | 4.6°C | 80.5% | 778.3hPa | 2.7V | 07:48:11 | 02:43:57 | 00:00:00 | |
| DL1XH-15 | 2026-09-04 01:03:27 | 53.28550 | 9.91192 | 90° | 64km/h | 2262m | -6.4m/s | 4.5°C | 77.4% | 775.4hPa | 2.7V | 07:48:16 | 02:43:52 | 00:00:00 | |
| DB0DAN | 2026-09-04 01:03:25 | 53.28549 | 9.91274 | 91° | 62km/h | 2242m | -6.7m/s | 4.5°C | 78.6% | 777.29hPa | 2.7V | 00:00:00 | 00:00:00 | 00:00:00 | |
| BIOWL1-15 | 2026-09-04 01:03:24 | 53.28550 | 9.91164 | 91° | 66km/h | 2268m | -5.5m/s | 4.5°C | 79.6% | 774.8hPa | 2.6V | 07:48:56 | 02:43:51 | 00:00:00 | |
| DL1XH-15 | 2026-09-04 01:03:22 | 53.28551 | 9.91057 | 92° | 62km/h | 2294m | -6.5m/s | 4.4°C | 74.6% | 772.4hPa | 2.7V | 07:48:21 | 02:43:47 | 00:00:00 | |
| DL1XH1-15 | 2026-09-04 01:03:20 | 53.28550 | 9.91137 | 90° | 66km/h | 2274m | -6.3m/s | 4.5°C | 75.4% | 774.2hPa | 2.6V | 07:48:18 | 02:43:50 | 00:00:00 | |
| DL1XH1-15 | 2026-09-04 01:03:20 | 53.28552 | 9.91005 | 93° | 60km/h | 2308m | -6.5m/s | 4.3°C | 73.6% | 771.2hPa | 2.7V | 07:48:23 | 02:43:45 | 00:00:00 | |
| AA1-15 | 2026-09-04 01:03:20 | 53.28550 | 9.91137 | 90° | 66km/h | 2274m | -6.3m/s | 4.5°C | 79.4% | 774.2hPa | 2.6V | 07:48:56 | 02:43:50 | 00:00:00 | |
| DL1XH-west | 2026-09-04 01:03:19 | 53.28550 | 9.91110 | 91° | 64km/h | 2281m | -7.3m/s | 4.5°C | 79.9% | 773.6hPa | 2.7V | 07:48:56 | 02:43:49 | 00:00:00 | |
| AP2371 | 2026-09-04 01:03:15 | 53.28551 | 9.91031 | 93° | 62km/h | 2301m | -6.7m/s | 4.4°C | 72.9% | 771.7hPa | 2.7V | 07:48:00 | 00:00:00 | 00:00:00 | |
| DM0DOS-11 | 2026-09-04 01:03:14 | 53.28556 | 9.90849 | 92° | 62km/h | 2341m | -5.1m/s | 4.2°C | 70.8% | 767.9hPa | 2.7V | 07:48:29 | 02:43:39 | 00:00:00 | |
| BIOWL1-15 | 2026-09-04 01:03:14 | 53.28553 | 9.90979 | 93° | 62km/h | 2314m | -5.5m/s | 4.3°C | 77.2% | 770.5hPa | 2.6V | 07:48:56 | 02:43:44 | 00:00:00 | |
| DB0DAN | 2026-09-04 01:03:10 | 53.28555 | 9.90875 | 92° | 58km/h | 2336m | -5.6m/s | 4.3°C | 70.5% | 768.43hPa | 2.7V | 00:00:00 | 00:00:00 | 00:00:00 | |
| DL1XH-15 | 2026-09-04 01:03:10 | 53.28557 | 9.90797 | 92° | 62km/h | 2351m | -4.7m/s | 4.2°C | 70.7% | 766.9hPa | 2.7V | 07:48:31 | 02:43:37 | 00:00:00 | |
| DL1XH1-15 | 2026-09-04 01:03:10 | 53.28555 | 9.90875 | 91° | 62km/h | 2336m | -5.6m/s | 4.2°C | 71.4% | 768.4hPa | 2.7V | 07:48:28 | 02:43:40 | 00:00:00 | |
| DL1XH1-15 | 2026-09-04 01:03:10 | 53.28558 | 9.90745 | 92° | 62km/h | 2363m | -6.5m/s | 4.1°C | 70.2% | 766hPa | 2.6V | 07:48:33 | 02:43:35 | 00:00:00 | |
| AA1-15 | 2026-09-04 01:03:10 | 53.28555 | 9.90875 | 92° | 62km/h | 2336m | -5.6m/s | 4.3°C | 75.7% | 768.4hPa | 2.7V | 07:48:56 | 02:43:40 | 00:00:00 | |
| DJ2DS-15 | 2026-09-04 01:03:10 | 53.28555 | 9.90875 | 92° | 64km/h | 2336m | -5.6m/s | 4.2°C | 71.4% | 768.4hPa | 2.7V | 00:00:00 | 02:43:40 | 00:00:00 | |
| DM0DOS-11 | 2026-09-04 01:03:09 | 53.28559 | 9.90718 | 92° | 62km/h | 2368m | -5.5m/s | 4.1°C | 69.8% | 765.5hPa | 2.7V | 07:48:34 | 02:43:34 | 00:00:00 | |
| DL1XH-west | 2026-09-04 01:03:08 | 53.28557 | 9.90823 | 92° | 62km/h | 2346m | -5m/s | 4.2°C | 75.1% | 767.3hPa | 2.7V | 07:48:56 | 02:43:38 | 00:00:00 | |
| BIOWL1-15 | 2026-09-04 01:03:06 | 53.28559 | 9.90718 | 92° | 62km/h | 2369m | -5.5m/s | 4.1°C | 73.8% | 765.5hPa | 2.7V | 07:48:56 | 02:43:34 | 00:00:00 | |
| DM0DOS-11 | 2026-09-04 01:03:04 | 53.28563 | 9.90585 | 91° | 64km/h | 2395m | -4.8m/s | 4°C | 67.3% | 762.8hPa | 2.6V | 07:48:39 | 02:43:29 | 00:00:00 | |
| DL1XH-15 | 2026-09-04 01:03:03 | 53.28561 | 9.90666 | 92° | 64km/h | 2380m | -6.4m/s | 4.1°C | 66.9% | 764.3hPa | 2.7V | 07:48:36 | 02:43:32 | 00:00:00 | |
| DL1XH-15 | 2026-09-04 01:03:03 | 53.28563 | 9.90530 | 90° | 64km/h | 2406m | -5.5m/s | 4°C | 67.2% | 761.9hPa | 2.7V | 07:48:41 | 02:43:27 | 00:00:00 | |
| DL1XH1-15 | 2026-09-04 01:03:00 | 53.28562 | 9.90612 | 92° | 64km/h | 2391m | -5m/s | 4°C | 67.1% | 763.2hPa | 2.7V | 07:48:38 | 02:43:30 | 00:00:00 | |
| DL1XH1-15 | 2026-09-04 01:03:00 | 53.28563 | 9.90477 | 90° | 64km/h | 2417m | -6.2m/s | 3.9°C | 67.1% | 760.9hPa | 2.7V | 07:48:43 | 02:43:25 | 00:00:00 | |
| BIOWL9-15 | 2026-09-04 01:03:00 | 53.28563 | 9.90585 | 91° | 64km/h | 2395m | -4.8m/s | 4.0°C | 66.4% | 762.8hPa | 2.7V | 00:00:00 | 00:00:00 | 00:00:00 | |
| DM0DOS-11 | 2026-09-04 01:02:59 | 53.28564 | 9.90450 | 90° | 64km/h | 2423m | -5.6m/s | 3.8°C | 66.9% | 760.2hPa | 2.7V | 07:48:44 | 02:43:24 | 00:00:00 | |
| AA1-15 | 2026-09-04 01:02:59 | 53.28563 | 9.90585 | 92° | 64km/h | 2395m | -4.8m/s | 4°C | 70.5% | 762.8hPa | 2.6V | 07:48:56 | 02:43:29 | 00:00:00 | |
| DL1XH-west | 2026-09-04 01:02:57 | 53.28563 | 9.90531 | 90° | 64km/h | 2406m | -5.5m/s | 4°C | 70.5% | 761.9hPa | 2.7V | 07:48:56 | 02:43:27 | 00:00:00 | |
| DB0DAN | 2026-09-04 01:02:55 | 53.28563 | 9.90477 | 90° | 60km/h | 2417m | -6.2m/s | 3.9°C | 66.2% | 760.93hPa | 2.7V | 00:00:00 | 00:00:00 | 00:00:00 | |
| DL1XH1-15 | 2026-09-04 01:02:55 | 53.28565 | 9.90343 | 91° | 62km/h | 2446m | -4.7m/s | 3.6°C | 67.8% | 758.1hPa | 2.6V | 07:48:48 | 02:43:20 | 00:00:00 | |
| DM0DOS-11 | 2026-09-04 01:02:54 | 53.28566 | 9.90317 | 91° | 62km/h | 2451m | -5.5m/s | 3.6°C | 67.9% | 757.8hPa | 2.7V | 07:48:49 | 02:43:19 | 00:00:00 | |
| BIOWL1-15 | 2026-09-04 01:02:53 | 53.28564 | 9.90423 | 91° | 64km/h | 2429m | -5.3m/s | 3.8°C | 69.4% | 759.8hPa | 2.7V | 07:48:56 | 02:43:23 | 00:00:00 | |
| DL1XH1-15 | 2026-09-04 01:02:50 | 53.28567 | 9.90210 | 89° | 64km/h | 2473m | -6.7m/s | 3.6°C | 66.5% | 755.6hPa | 2.7V | 07:48:53 | 02:43:15 | 00:00:00 | |
| DJ2DS-15 | 2026-09-04 01:02:50 | 53.28565 | 9.90343 | 92° | 64km/h | 2446m | -4.6m/s | 3.6°C | 67.8% | 758.1hPa | 2.6V | 00:00:00 | 02:43:20 | 00:00:00 | |
| DM0DOS-11 | 2026-09-04 01:02:49 | 53.28566 | 9.90183 | 88° | 64km/h | 2480m | -6m/s | 3.6°C | 65.1% | 755hPa | 2.6V | 07:48:54 | 02:43:14 | 00:00:00 | |
| AA1-15 | 2026-09-04 01:02:48 | 53.28566 | 9.90290 | 92° | 64km/h | 2456m | -5.4m/s | 3.5°C | 70% | 757.3hPa | 2.7V | 07:48:56 | 02:43:18 | 00:00:00 | |
| DL1XH-west | 2026-09-04 01:02:46 | 53.28567 | 9.90237 | 91° | 64km/h | 2467m | -5.7m/s | 3.6°C | 69.9% | 756.1hPa | 2.7V | 07:48:56 | 02:43:16 | 00:00:00 | |
| DM0DOS-11 | 2026-09-04 01:02:44 | 53.28564 | 9.90047 | 88° | 66km/h | 2510m | -6.2m/s | 4°C | 55.6% | 752.2hPa | 2.7V | 07:48:59 | 02:43:09 | 00:00:00 | |
| BIOWL1-15 | 2026-09-04 01:02:43 | 53.28566 | 9.90156 | 89° | 64km/h | 2486m | -6.6m/s | 3.7°C | 67.3% | 754.6hPa | 2.6V | 07:48:56 | 02:43:13 | 00:00:00 | |
| DB0DAN | 2026-09-04 01:02:40 | 53.28565 | 9.90075 | 88° | 62km/h | 2504m | -5.4m/s | 3.9°C | 57.2% | 752.71hPa | 2.7V | 00:00:00 | 00:00:00 | 00:00:00 | |
| DL1XH1-15 | 2026-09-04 01:02:40 | 53.28565 | 9.90075 | 88° | 64km/h | 2504m | -5.4m/s | 3.9°C | 58% | 752.7hPa | 2.7V | 07:48:58 | 02:43:10 | 00:00:00 | |
| D01LWL | 2026-09-04 01:02:40 | 53.28564 | 9.90047 | 88° | 64km/h | 2510m | -6.2m/s | 4.0°C | 54.9% | 752.2hPa | 2.7V | 00:00:00 | 00:00:00 | 00:00:00 | |
| DM0DOS-11 | 2026-09-04 01:02:39 | 53.28562 | 9.89909 | 88° | 66km/h | 2539m | -5.4m/s | 4.3°C | 50.6% | 749.5hPa | 2.7V | 07:49:04 | 02:43:04 | 00:00:00 | |
| AA1-15 | 2026-09-04 01:02:37 | 53.28563 | 9.89992 | 88° | 66km/h | 2522m | -5.7m/s | 4.2°C | 58.8% | 751hPa | 2.6V | 07:49:47 | 02:43:07 | 00:00:00 | |
| DL1XH-15 | 2026-09-04 01:02:37 | 53.28563 | 9.89992 | 88° | 66km/h | 2522m | -5.7m/s | 4.2°C | 54.4% | 751hPa | 2.6V | 07:49:01 | 02:43:07 | 00:00:00 | |
| DL1XH-15 | 2026-09-04 01:02:37 | 53.28561 | 9.89854 | 87° | 66km/h | 2551m | -5m/s | 4.3°C | 49.3% | 748.4hPa | 2.7V | 07:49:06 | 02:43:02 | 00:00:00 | |
| DL1XH-west | 2026-09-04 01:02:36 | 53.28563 | 9.89965 | 88° | 66km/h | 2527m | -5.9m/s | 4.3°C | 57.8% | 750.6hPa | 2.6V | 07:49:47 | 02:43:06 | 00:00:00 | |
| DM0DOS-11 | 2026-09-04 01:02:34 | 53.28557 | 9.89742 | 85° | 68km/h | 2571m | -5.5m/s | 4.2°C | 48.7% | 746.4hPa | 2.7V | 07:49:10 | 02:42:58 | 00:00:00 | |
| BIOWL1-15 | 2026-09-04 01:02:32 | 53.28561 | 9.89854 | 87° | 66km/h | 2551m | -5m/s | 4.3°C | 53.8% | 748.4hPa | 2.7V | 07:49:47 | 02:43:02 | 00:00:00 | |
| DJ2DS-15 | 2026-09-04 01:02:30 | 53.28559 | 9.89798 | 87° | 69km/h | 2561m | -5.8m/s | 4.2°C | 48.9% | 747.3hPa | 2.6V | 00:00:00 | 02:43:00 | 00:00:00 | |
| BIOWL9-15 | 2026-09-04 01:02:29 | 53.28557 | 9.89742 | 85° | 66km/h | 2571m | -5.5m/s | 4.2°C | 48.1% | 746.4hPa | 2.6V | 00:00:00 | 00:00:00 | 00:00:00 | |
| DM0DOS-11 | 2026-09-04 01:02:28 | 53.28550 | 9.89601 | 85° | 68km/h | 2600m | -5.5m/s | 4.1°C | 48.8% | 743.8hPa | 2.6V | 07:49:15 | 02:42:53 | 00:00:00 | |
| AA1-15 | 2026-09-04 01:02:27 | 53.28556 | 9.89714 | 85° | 66km/h | 2577m | -6.1m/s | 4.2°C | 53.1% | 746hPa | 2.7V | 07:49:47 | 02:42:57 | 00:00:00 | |
| DL1XH1-15 | 2026-09-04 01:02:26 | 53.28553 | 9.89657 | 84° | 68km/h | 2588m | -5.6m/s | 4.1°C | 49.2% | 744.8hPa | 2.7V | 07:49:13 | 02:42:55 | 00:00:00 | |
| DL1XH-west | 2026-09-04 01:02:26 | 53.28554 | 9.89686 | 85° | 68km/h | 2583m | -5.4m/s | 4.1°C | 53.5% | 745.3hPa | 2.7V | 07:49:47 | 02:42:56 | 00:00:00 | |
| DB0DAN | 2026-09-04 01:02:25 | 53.28553 | 9.89657 | 85° | 64km/h | 2588m | -5.6m/s | 4.1°C | 48.6% | 744.78hPa | 2.7V | 00:00:00 | 00:00:00 | 00:00:00 | |
| DJ2DS-15 | 2026-09-04 01:02:24 | 53.28551 | 9.89629 | 85° | 68km/h | 2594m | -6.6m/s | 4.1°C | 48.6% | 744.3hPa | 2.7V | 00:00:00 | 00:00:00 | 00:00:00 | |
| DM0DOS-11 | 2026-09-04 01:02:23 | 53.28542 | 9.89458 | 84° | 69km/h | 2629m | -5.1m/s | 3.9°C | 48.8% | 741hPa | 2.7V | 07:49:20 | 02:42:48 | 00:00:00 | |
| BIOWL1-15 | 2026-09-04 01:02:22 | 53.28545 | 9.89516 | 85° | 68km/h | 2617m | -6m/s | 4°C | 52.9% | 742.3hPa | 2.7V | 07:49:47 | 02:42:50 | 00:00:00 | |
| DL1XH-15 | 2026-09-04 01:02:22 | 53.28548 | 9.89572 | 84° | 68km/h | 2606m | -5.8m/s | 4°C | 48.5% | 743.2hPa | 2.6V | 07:49:16 | 02:42:52 | 00:00:00 | |
| DL1XH-15 | 2026-09-04 01:02:22 | 53.28540 | 9.89429 | 84° | 69km/h | 2634m | -5.8m/s | 3.9°C | 48.8% | 740.6hPa | 2.7V | 07:49:21 | 02:42:47 | 00:00:00 | |
| DL1XH1-15 | 2026-09-04 01:02:20 | 53.28545 | 9.89516 | 84° | 68km/h | 2617m | -6m/s | 4°C | 48.6% | 742.3hPa | 2.7V | 07:49:18 | 02:42:50 | 00:00:00 | |
| DL1XH1-15 | 2026-09-04 01:02:20 | 53.28536 | 9.89370 | 83° | 71km/h | 2646m | -5.9m/s | 3.9°C | 49.6% | 739.6hPa | 2.6V | 07:49:23 | 02:42:45 | 00:00:00 | |
| DM0DOS-11 | 2026-09-04 01:02:18 | 53.28531 | 9.89311 | 82° | 71km/h | 2660m | -6.5m/s | 3.8°C | 48.8% | 738.4hPa | 2.7V | 07:49:25 | 02:42:43 | 00:00:00 | |
| DL1XH-15 | 2026-09-04 01:02:17 | 53.28529 | 9.89281 | 82° | 71km/h | 2666m | -5.9m/s | 3.8°C | 48.6% | 737.9hPa | 2.7V | 07:49:26 | 02:42:42 | 00:00:00 | |
| AA1-15 | 2026-09-04 01:02:16 | 53.28538 | 9.89400 | 84° | 71km/h | 2640m | -6.4m/s | 3.9°C | 53.6% | 740.1hPa | 2.6V | 07:49:47 | 02:42:46 | 00:00:00 | |
| DL1XH-west | 2026-09-04 01:02:15 | 53.28536 | 9.89370 | 84° | 71km/h | 2646m | -5.9m/s | 3.9°C | 54.1% | 739.6hPa | 2.6V | 07:49:47 | 02:42:45 | 00:00:00 | |
| DM0DOS-11 | 2026-09-04 01:02:13 | 53.28518 | 9.89163 | 82° | 69km/h | 2690m | -5.8m/s | 3.8°C | 45.4% | 735.7hPa | 2.6V | 07:49:30 | 02:42:38 | 00:00:00 | |
| BIOWL1-15 | 2026-09-04 01:02:12 | 53.28529 | 9.89281 | 82° | 71km/h | 2666m | -5.9m/s | 3.8°C | 52.9% | 737.9hPa | 2.7V | 07:49:47 | 02:42:42 | 00:00:00 | |
| DL1XH-15 | 2026-09-04 01:02:12 | 53.28516 | 9.89134 | 81° | 71km/h | 2696m | -6.8m/s | 3.7°C | 44.8% | 735.1hPa | 2.7V | 07:49:31 | 02:42:37 | 00:00:00 | |
| DB0DAN | 2026-09-04 01:02:10 | 53.28523 | 9.89222 | 81° | 68km/h | 2678m | -5.9m/s | 3.9°C | 45.4% | 736.79hPa | 2.7V | 00:00:00 | 00:00:00 | 00:00:00 | |
| DL1XH1-15 | 2026-09-04 01:02:10 | 53.28510 | 9.89074 | 81° | 71km/h | 2708m | -5.6m/s | 3.7°C | 47.3% | 734hPa | 2.7V | 07:49:33 | 02:42:35 | 00:00:00 | |
| DJ2DS-15 | 2026-09-04 01:02:10 | 53.28523 | 9.89222 | 82° | 73km/h | 2678m | -5.9m/s | 3.8°C | 46.0% | 736.7hPa | 2.7V | 00:00:00 | 02:42:40 | 00:00:00 | |
| D01LWL | 2026-09-04 01:02:09 | 53.28518 | 9.89163 | 82° | 69km/h | 2690m | -5.8m/s | 3.8°C | 44.8% | 735.7hPa | 2.7V | 00:00:00 | 00:00:00 | 00:00:00 | |
| DM0DOS-11 | 2026-09-04 01:02:08 | 53.28505 | 9.89014 | 81° | 73km/h | 2722m | -7.3m/s | 3.6°C | 48% | 733hPa | 2.7V | 07:49:35 | 02:42:33 | 00:00:00 | |
| DL1XH-15 | 2026-09-04 01:02:07 | 53.28503 | 9.88983 | 82° | 73km/h | 2728m | -6m/s | 3.6°C | 48.1% | 732.3hPa | 2.6V | 07:49:36 | 02:42:32 | 00:00:00 | |
| AA1-15 | 2026-09-04 01:02:06 | 53.28513 | 9.89104 | 82° | 71km/h | 2703m | -6.3m/s | 3.7°C | 49.4% | 734.5hPa | 2.7V | 07:49:47 | 02:42:36 | 00:00:00 | |
| DL1XH1-15 | 2026-09-04 01:02:05 | 53.28497 | 9.88923 | 80° | 73km/h | 2740m | -6.5m/s | 3.5°C | 49.4% | 731.3hPa | 2.7V | 07:49:38 | 02:42:30 | 00:00:00 | |
| DL1XH-west | 2026-09-04 01:02:04 | 53.28508 | 9.89044 | 82° | 73km/h | 2715m | -6.7m/s | 3.6°C | 52% | 733.5hPa | 2.7V | 07:49:47 | 02:42:34 | 00:00:00 | |
| DM0DOS-11 | 2026-09-04 01:02:03 | 53.28491 | 9.88863 | 79° | 73km/h | 2751m | -5.3m/s | 3.4°C | 50.7% | 730.1hPa | 2.7V | 07:49:40 | 02:42:28 | 00:00:00 | |
| DL1XH-15 | 2026-09-04 01:02:02 | 53.28487 | 9.88833 | 78° | 73km/h | 2757m | -6m/s | 3.4°C | 50.3% | 729.6hPa | 2.7V | 07:49:41 | 02:42:27 | 00:00:00 | |
| BIOWL1-15 | 2026-09-04 01:02:01 | 53.28500 | 9.88953 | 82° | 71km/h | 2734m | -5.3m/s | 3.5°C | 52.7% | 731.7hPa | 2.6V | 07:49:47 | 02:42:31 | 00:00:00 | |
| DM0DOS-11 | 2026-09-04 01:01:58 | 53.28472 | 9.88710 | 78° | 75km/h | 2779m | -5.2m/s | 3.3°C | 48% | 727.5hPa | 2.7V | 07:49:45 | 02:42:23 | 00:00:00 | |
| BIOWL9-15 | 2026-09-04 01:01:57 | 53.28488 | 9.88833 | 78° | 73km/h | 2757m | -6.0m/s | 3.4°C | 49.6% | 729.6hPa | 2.6V | 00:00:00 | 00:00:00 | 00:00:00 | |
| DB0DAN | 2026-09-04 01:01:55 | 53.28480 | 9.88772 | 78° | 71km/h | 2768m | -5m/s | 3.3°C | 49.4% | 728.65hPa | 2.6V | 00:00:00 | 00:00:00 | 00:00:00 | |
| AA1-15 | 2026-09-04 01:01:55 | 53.28480 | 9.88772 | 78° | 75km/h | 2768m | -5m/s | 3.3°C | 53.8% | 728.6hPa | 2.6V | 07:49:47 | 02:42:25 | 00:00:00 | |
| DL1XH1-15 | 2026-09-04 01:01:55 | 53.28461 | 9.88616 | 78° | 77km/h | 2796m | -5.8m/s | 3.2°C | 48% | 726.1hPa | 2.7V | 07:49:48 | 02:42:20 | 00:00:00 | |
| DL1XH-west | 2026-09-04 01:01:54 | 53.28476 | 9.88741 | 78° | 75km/h | 2774m | -6m/s | 3.3°C | 52.2% | 728.2hPa | 2.6V | 07:49:47 | 02:42:24 | 00:00:00 | |
| DM0DOS-11 | 2026-09-04 01:01:53 | 53.28453 | 9.88552 | 78° | 77km/h | 2807m | -4.3m/s | 3.2°C | 48.3% | 725.2hPa | 2.6V | 07:49:50 | 02:42:18 | 00:00:00 | |
| DL1XH-15 | 2026-09-04 01:01:52 | 53.28468 | 9.88678 | 78° | 77km/h | 2784m | -5.4m/s | 3.3°C | 48% | 727.2hPa | 2.7V | 07:49:46 | 02:42:22 | 00:00:00 | |
| DL1XH-15 | 2026-09-04 01:01:52 | 53.28450 | 9.88520 | 79° | 77km/h | 2812m | -5.8m/s | 3.2°C | 48.7% | 724.8hPa | 2.6V | 07:49:51 | 02:42:17 | 00:00:00 | |
| BIOWL1-15 | 2026-09-04 01:01:51 | 53.28465 | 9.88647 | 79° | 75km/h | 2790m | -6.3m/s | 3.2°C | 51.6% | 726.8hPa | 2.7V | 07:49:47 | 02:42:21 | 00:00:00 | |
| DJ2DS-15 | 2026-09-04 01:01:50 | 53.28461 | 9.88616 | 79° | 80km/h | 2796m | -5.7m/s | 3.2°C | 48.0% | 726.1hPa | 2.7V | 00:00:00 | 02:42:20 | 00:00:00 | |
| DM0DOS-11 | 2026-09-04 01:01:48 | 53.28433 | 9.88391 | 76° | 80km/h | 2834m | -5.3m/s | 3.4°C | 42.1% | 722.7hPa | 2.7V | 07:49:55 | 02:42:13 | 00:00:00 | |
| DL1XH1-15 | 2026-09-04 01:01:45 | 53.28442 | 9.88456 | 77° | 78km/h | 2823m | -6.2m/s | 3.3°C | 45.1% | 723.7hPa | 2.7V | 07:49:53 | 02:42:15 | 00:00:00 | |
| DL1XH-15 | 2026-09-04 01:01:44 | 53.28429 | 9.88358 | 76° | 80km/h | 2840m | -5.7m/s | 3.4°C | 40.5% | 722.2hPa | 2.6V | 07:49:56 | 02:42:12 | 00:00:00 | |
| DL1XH-west | 2026-09-04 01:01:44 | 53.28438 | 9.88424 | 78° | 78km/h | 2829m | -6m/s | 3.3°C | 47.3% | 723.1hPa | 2.7V | 07:50:38 | 02:42:14 | 00:00:00 | |
| BIOWL1-15 | 2026-09-04 01:01:42 | 53.28419 | 9.88291 | 76° | 80km/h | 2852m | -6.5m/s | 3.4°C | 41.2% | 721hPa | 2.7V | 07:50:38 | 02:42:10 | 00:00:00 | |
| DB0DAN | 2026-09-04 01:01:40 | 53.28419 | 9.88291 | 76° | 77km/h | 2852m | -6.5m/s | 3.4°C | 36.9% | 721.05hPa | 2.7V | 00:00:00 | 00:00:00 | 00:00:00 | |
| DL1XH1-15 | 2026-09-04 01:01:40 | 53.28394 | 9.88122 | 76° | 84km/h | 2879m | -5.5m/s | 3.5°C | 34.5% | 718.5hPa | 2.6V | 07:50:03 | 02:42:05 | 00:00:00 | |
| DM0DOS-11 | 2026-09-04 01:01:38 | 53.28384 | 9.88053 | 76° | 86km/h | 2891m | -6.5m/s | 3.4°C | 36% | 717.5hPa | 2.7V | 07:50:05 | 02:42:03 | 00:00:00 | |
| DL1XH-15 | 2026-09-04 01:01:37 | 53.28404 | 9.88191 | 76° | 82km/h | 2868m | -6m/s | 3.4°C | 34.2% | 719.7hPa | 2.7V | 07:50:01 | 02:42:07 | 00:00:00 | |
| DL1XH-15 | 2026-09-04 01:01:37 | 53.28379 | 9.88018 | 76° | 86km/h | 2897m | -5.9m/s | 3.4°C | 35.9% | 717hPa | 2.7V | 07:50:06 | 02:42:02 | 00:00:00 | |
| DL1XH-west | 2026-09-04 01:01:34 | 53.28389 | 9.88088 | 76° | 84km/h | 2885m | -5.2m/s | 3.5°C | 39.1% | 718hPa | 2.6V | 07:50:38 | 02:42:04 | 00:00:00 | |
| DL1XH1-15 | 2026-09-04 01:01:30 | 53.28347 | 9.87769 | 78° | 88km/h | 2939m | -6.7m/s | 3.4°C | 27.5% | 713.3hPa | 2.7V | 07:50:13 | 02:41:55 | 00:00:00 | |
| BIOWL1-15 | 2026-09-04 01:01:29 | 53.28346 | 9.87769 | 78° | 88km/h | 2939m | -6.7m/s | 3.4°C | 30.8% | 713.3hPa | 2.7V | 07:50:38 | 02:41:55 | 00:00:00 | |
| DM0DOS-11 | 2026-09-04 01:01:28 | 53.28338 | 9.87698 | 78° | 86km/h | 2953m | -6.8m/s | 3.3°C | 26.1% | 712hPa | 2.6V | 07:50:15 | 02:41:53 | 00:00:00 | |
| DL1XH-15 | 2026-09-04 01:01:27 | 53.28333 | 9.87663 | 77° | 84km/h | 2960m | -6.8m/s | 3.2°C | 25.3% | 711.6hPa | 2.6V | 07:50:16 | 02:41:52 | 00:00:00 | |
| BIOWL9-15 | 2026-09-04 01:01:26 | 53.28351 | 9.87804 | 78° | 86km/h | 2932m | -7.2m/s | 3.4°C | 27.0% | 713.9hPa | 2.6V | 00:00:00 | 00:00:00 | 00:00:00 | |
| DL1XH1-15 | 2026-09-04 01:01:25 | 53.28325 | 9.87593 | 77° | 84km/h | 2973m | -6.8m/s | 3.2°C | 23.9% | 710.5hPa | 2.6V | 07:50:18 | 02:41:50 | 00:00:00 | |
| DB0DAN | 2026-09-04 01:01:25 | 53.28346 | 9.87769 | 78° | 82km/h | 2939m | -6.7m/s | 3.4°C | 27.1% | 713.29hPa | 2.7V | 00:00:00 | 00:00:00 | 00:00:00 | |
| DL1XH-west | 2026-09-04 01:01:24 | 53.28342 | 9.87733 | 78° | 86km/h | 2946m | -6.6m/s | 3.3°C | 30.3% | 712.7hPa | 2.7V | 07:50:38 | 02:41:54 | 00:00:00 | |
| AA1-15 | 2026-09-04 01:01:24 | 53.28338 | 9.87698 | 79° | 86km/h | 2953m | -6.8m/s | 3.3°C | 29.2% | 712hPa | 2.6V | 07:52:20 | 02:41:53 | 00:00:00 | |
| DL1XH-15 | 2026-09-04 01:01:22 | 53.28312 | 9.87487 | 78° | 88km/h | 2994m | -6.5m/s | 3.1°C | 23.5% | 708.8hPa | 2.6V | 07:50:21 | 02:41:47 | 00:00:00 | |
| DL1XH1-15 | 2026-09-04 01:01:20 | 53.28303 | 9.87415 | 79° | 89km/h | 3007m | -5.7m/s | 3.1°C | 23.2% | 707.6hPa | 2.6V | 07:50:23 | 02:41:45 | 00:00:00 | |
| DO2SHX-10 | 2026-09-04 01:01:19 | 53.28320 | 9.87558 | 79° | 88km/h | 2981m | -6.4m/s | 3.1°C | 23.6% | 709.9hPa | 2.6V | 00:00:00 | 02:41:49 | 00:00:00 | |
| DM0DOS-11 | 2026-09-04 01:01:18 | 53.28294 | 9.87341 | 79° | 89km/h | 3019m | -5.9m/s | 3.1°C | 22.6% | 706.6hPa | 2.7V | 07:50:25 | 02:41:43 | 00:00:00 | |
| DL1XH-15 | 2026-09-04 01:01:17 | 53.28290 | 9.87304 | 80° | 89km/h | 3025m | -6.7m/s | 3.1°C | 22.4% | 706.1hPa | 2.6V | 07:50:26 | 02:41:42 | 00:00:00 | |
| BIOWL1-15 | 2026-09-04 01:01:16 | 53.28303 | 9.87415 | 79° | 89km/h | 3007m | -5.7m/s | 3.1°C | 25.9% | 707.6hPa | 2.6V | 07:50:38 | 02:41:45 | 00:00:00 | |
| AA1-15 | 2026-09-04 01:01:13 | 53.28290 | 9.87304 | 80° | 89km/h | 3025m | -6.7m/s | 3.1°C | 25.4% | 706.1hPa | 2.6V | 07:52:20 | 02:41:42 | 00:00:00 | |
| DM0DOS-11 | 2026-09-04 01:01:13 | 53.28275 | 9.87155 | 80° | 89km/h | 3056m | -7.5m/s | 3.2°C | 20.9% | 703.4hPa | 2.6V | 07:50:30 | 02:41:38 | 00:00:00 | |
| DL1XH-west | 2026-09-04 01:01:13 | 53.28294 | 9.87341 | 80° | 89km/h | 3019m | -5.9m/s | 3.1°C | 25.5% | 706.6hPa | 2.7V | 07:50:38 | 02:41:43 | 00:00:00 | |
| DB0DAN | 2026-09-04 01:01:10 | 53.28283 | 9.87229 | 80° | 86km/h | 3039m | -8.2m/s | 3.2°C | 18.9% | 704.89hPa | 2.7V | 00:00:00 | 00:00:00 | 00:00:00 | |
| DJ2DS-15 | 2026-09-04 01:01:10 | 53.28282 | 9.87229 | 81° | 91km/h | 3039m | -8.2m/s | 3.2°C | 19.2% | 704.8hPa | 2.7V | 07:50:00 | 02:41:40 | 00:00:00 | |
| DM0DOS-11 | 2026-09-04 01:01:08 | 53.28257 | 9.86968 | 81° | 91km/h | 3085m | -6.4m/s | 2.9°C | 43.6% | 700.8hPa | 2.7V | 07:50:35 | 02:41:33 | 00:00:00 | |
| DL1XH1-15 | 2026-09-04 01:01:07 | 53.28265 | 9.87043 | 81° | 89km/h | 3072m | -5.6m/s | 3°C | 30.1% | 701.7hPa | 2.6V | 07:50:33 | 02:41:35 | 00:00:00 | |
| DL1XH-15 | 2026-09-04 01:01:07 | 53.28254 | 9.86930 | 81° | 91km/h | 3091m | -6.1m/s | 3°C | 40.2% | 700.3hPa | 2.6V | 07:50:36 | 02:41:32 | 00:00:00 | |
| BIOWL1-15 | 2026-09-04 01:01:06 | 53.28236 | 9.86699 | 84° | 91km/h | 3128m | -5.7m/s | 3.1°C | 23.3% | 697hPa | 2.6V | 07:51:29 | 02:41:26 | 00:00:00 | |
| SMARD9-15 | 2026-09-04 01:01:05 | 53.28265 | 9.87043 | 81° | 89km/h | 3072m | -5.6m/s | 3.0°C | 29.7% | 701.7hPa | 2.6V | 00:00:00 | 00:00:00 | 00:00:00 | |
| DM0DOS-11 | 2026-09-04 01:01:03 | 53.28241 | 9.86777 | 82° | 91km/h | 3117m | -5.9m/s | 3.1°C | 25% | 698hPa | 2.6V | 07:50:40 | 02:41:28 | 00:00:00 | |
| DL1XH-west | 2026-09-04 01:01:03 | 53.28257 | 9.86968 | 81° | 91km/h | 3085m | -6.4m/s | 2.9°C | 48.4% | 700.8hPa | 2.7V | 07:50:38 | 02:41:33 | 00:00:00 | |
| AA1-15 | 2026-09-04 01:01:01 | 53.28250 | 9.86892 | 82° | 91km/h | 3097m | -6.4m/s | 3.2°C | 33.2% | 699.7hPa | 2.6V | 07:52:20 | 02:41:31 | 00:00:00 | |
| DL1XH1-15 | 2026-09-04 01:01:00 | 53.28247 | 9.86853 | 81° | 91km/h | 3103m | -6.8m/s | 3.2°C | 24.5% | 699.2hPa | 2.7V | 07:50:38 | 02:41:30 | 00:00:00 | |
| DL1XH1-15 | 2026-09-04 01:01:00 | 53.28233 | 9.86661 | 84° | 91km/h | 3135m | -5.7m/s | 3°C | 19.9% | 696.5hPa | 2.6V | 07:50:43 | 02:41:25 | 00:00:00 | |
| BIOWL1-15 | 2026-09-04 01:00:59 | 53.28233 | 9.86661 | 85° | 91km/h | 3135m | -5.7m/s | 3°C | 22.8% | 696.5hPa | 2.6V | 07:51:29 | 02:41:25 | 00:00:00 | |
| DM0DOS-11 | 2026-09-04 01:00:58 | 53.28229 | 9.86583 | 84° | 93km/h | 3146m | -5.4m/s | 2.9°C | 20% | 695.6hPa | 2.6V | 07:50:45 | 02:41:23 | 00:00:00 | |
| DB0DAN | 2026-09-04 01:00:55 | 53.28233 | 9.86661 | 85° | 88km/h | 3135m | -5.7m/s | 3°C | 19.6% | 696.54hPa | 2.6V | 00:00:00 | 00:00:00 | 00:00:00 | |
| DL1XH1-15 | 2026-09-04 01:00:55 | 53.28222 | 9.86466 | 83° | 93km/h | 3163m | -5.9m/s | 2.8°C | 17.9% | 694.1hPa | 2.6V | 07:50:48 | 02:41:20 | 00:00:00 | |
| DM0DOS-11 | 2026-09-04 01:00:53 | 53.28215 | 9.86350 | 85° | 91km/h | 3180m | -5.9m/s | 2.7°C | 16.6% | 692.6hPa | 2.7V | 07:50:51 | 02:41:17 | 00:00:00 | |
| DL1XH-15 | 2026-09-04 01:00:52 | 53.28226 | 9.86544 | 84° | 93km/h | 3152m | -6m/s | 2.9°C | 18.5% | 695.1hPa | 2.7V | 07:50:46 | 02:41:22 | 00:00:00 | |
| DL1XH-west | 2026-09-04 01:00:52 | 53.28227 | 9.86544 | 84° | 93km/h | 3152m | -6m/s | 2.9°C | 21.1% | 695.1hPa | 2.7V | 07:51:29 | 02:41:22 | 00:00:00 | |
| DL1XH1-15 | 2026-09-04 01:00:50 | 53.28212 | 9.86272 | 86° | 93km/h | 3191m | -5.1m/s | 2.6°C | 16.7% | 691.6hPa | 2.6V | 07:50:53 | 02:41:15 | 00:00:00 | |
| DJ2DS-15 | 2026-09-04 01:00:50 | 53.28222 | 9.86466 | 84° | 95km/h | 3163m | -5.9m/s | 2.8°C | 17.9% | 694.0hPa | 2.6V | 00:00:00 | 02:41:20 | 00:00:00 | |
| SMARD9-10 | 2026-09-04 01:00:48 | 53.28217 | 9.86388 | 86° | 93km/h | 3174m | -5.5m/s | 2.7°C | 16.6% | 693.1hPa | 2.6V | 00:00:00 | 00:00:00 | 00:00:00 | |
| DL1XH-15 | 2026-09-04 01:00:47 | 53.28208 | 9.86155 | 87° | 93km/h | 3211m | -7.4m/s | 2.4°C | 15.3% | 690hPa | 2.6V | 07:50:56 | 02:41:12 | 00:00:00 | |
| DL1XH-west | 2026-09-04 01:00:42 | 53.28208 | 9.86155 | 87° | 93km/h | 3211m | -7.4m/s | 2.4°C | 17.6% | 690hPa | 2.6V | 07:51:29 | 02:41:12 | 00:00:00 | |
| DL1XH-15 | 2026-09-04 01:00:41 | 53.28204 | 9.85957 | 88° | 95km/h | 3242m | -6.5m/s | 2.2°C | 12.4% | 687.1hPa | 2.6V | 07:51:01 | 02:41:07 | 00:00:00 | |
| DB0DAN | 2026-09-04 01:00:40 | 53.28206 | 9.86077 | 88° | 89km/h | 3224m | -5.2m/s | 2.3°C | 13.8% | 688.81hPa | 2.6V | 00:00:00 | 00:00:00 | 00:00:00 | |
| DL1XH1-15 | 2026-09-04 01:00:40 | 53.28206 | 9.86077 | 88° | 93km/h | 3224m | -5.2m/s | 2.3°C | 14% | 688.8hPa | 2.6V | 07:50:58 | 02:41:10 | 00:00:00 | |
| DO2SHX-10 | 2026-09-04 01:00:36 | 53.28204 | 9.85916 | 90° | 97km/h | 3249m | -6.0m/s | 2.1°C | 12.2% | 686.5hPa | 2.7V | 00:00:00 | 02:41:06 | 00:00:00 | |
| D01LWL | 2026-09-04 01:00:35 | 53.28204 | 9.85876 | 88° | 95km/h | 3255m | -6.7m/s | 2.1°C | 11.9% | 686.1hPa | 2.7V | 00:00:00 | 00:00:00 | 00:00:00 | |
| DL1XH-15 | 2026-09-04 01:00:34 | 53.28202 | 9.85754 | 88° | 97km/h | 3274m | -6.7m/s | 1.9°C | 12.8% | 684.4hPa | 2.7V | 07:51:06 | 02:41:02 | 00:00:00 | |
| BIOWL1-15 | 2026-09-04 01:00:32 | 53.28202 | 9.85754 | 88° | 97km/h | 3274m | -6.7m/s | 2°C | 15.5% | 684.4hPa | 2.7V | 07:51:29 | 02:41:02 | 00:00:00 | |
| DL1XH-west | 2026-09-04 01:00:31 | 53.28201 | 9.85713 | 88° | 95km/h | 3281m | -7.1m/s | 1.9°C | 16.2% | 683.9hPa | 2.7V | 07:51:29 | 02:41:01 | 00:00:00 | |
| DL1XH1-15 | 2026-09-04 01:00:30 | 53.28200 | 9.85673 | 88° | 97km/h | 3288m | -7.7m/s | 1.8°C | 13.8% | 683.3hPa | 2.7V | 07:51:08 | 02:41:00 | 00:00:00 | |
| DJ2DS-15 | 2026-09-04 01:00:30 | 53.28200 | 9.85673 | 89° | 102km/h | 3288m | -7.7m/s | 1.8°C | 13.8% | 683.3hPa | 2.7V | 00:00:00 | 02:41:00 | 00:00:00 | |
| DL1LOL-11 | 2026-09-04 01:00:29 | 53.28200 | 9.85673 | 89° | 97km/h | 3288m | -7.7m/s | 1.8°C | 13.6% | 683.3hPa | 2.7V | 00:00:00 | 00:00:00 | 00:00:00 | |
| DM0DOS-11 | 2026-09-04 01:00:27 | 53.28197 | 9.85549 | 88° | 99km/h | 3307m | -5.3m/s | 1.6°C | 22.4% | 681.6hPa | 2.7V | 07:51:11 | 02:40:57 | 00:00:00 | |
| DM0DOS-11 | 2026-09-04 01:00:27 | 53.28196 | 9.85339 | 89° | 102km/h | 3335m | -5.3m/s | 0.5°C | 44.5% | 679.3hPa | 2.6V | 07:51:16 | 02:40:52 | 00:00:00 | |
| DB0DAN | 2026-09-04 01:00:25 | 53.28197 | 9.85466 | 89° | 95km/h | 3319m | -5.8m/s | 1.2°C | 26.5% | 680.69hPa | 2.7V | 00:00:00 | 00:00:00 | 00:00:00 | |
| DL1XH1-15 | 2026-09-04 01:00:25 | 53.28195 | 9.85253 | 89° | 102km/h | 3347m | -6.4m/s | 0.2°C | 55.6% | 678.2hPa | 2.7V | 07:51:18 | 02:40:50 | 00:00:00 | |
| DO2SHX-10 | 2026-09-04 01:00:25 | 53.28197 | 9.85466 | 89° | 100km/h | 3319m | -5.7m/s | 1.2°C | 27.0% | 680.6hPa | 2.6V | 00:00:00 | 02:40:55 | 00:00:00 | |
| BIOWL9-15 | 2026-09-04 01:00:24 | 53.28196 | 9.85424 | 89° | 99km/h | 3324m | -5.0m/s | 0.9°C | 30.1% | 680.2hPa | 2.6V | 00:00:00 | 00:00:00 | 00:00:00 | |
| DM0DOS-11 | 2026-09-04 01:00:22 | 53.28194 | 9.85078 | 89° | 104km/h | 3372m | -5.8m/s | -0.3°C | 64.8% | 676.3hPa | 2.6V | 07:51:22 | 02:40:46 | 00:00:00 | |
| BIOWL1-15 | 2026-09-04 01:00:21 | 53.28195 | 9.85296 | 89° | 102km/h | 3341m | -6.3m/s | 0.4°C | 59% | 678.8hPa | 2.7V | 07:51:29 | 02:40:51 | 00:00:00 | |
| DL1XH-west | 2026-09-04 01:00:20 | 53.28195 | 9.85253 | 89° | 102km/h | 3347m | -6.4m/s | 0.2°C | 61.1% | 678.2hPa | 2.7V | 07:51:29 | 02:40:50 | 00:00:00 | |
| DO2SHX-10 | 2026-09-04 01:00:20 | 53.28195 | 9.85209 | 90° | 104km/h | 3354m | -6.5m/s | 0.0°C | 58.5% | 677.7hPa | 2.7V | 00:00:00 | 02:40:49 | 00:00:00 | |
| DM0DOS-11 | 2026-09-04 01:00:17 | 53.28192 | 9.84857 | 89° | 106km/h | 3405m | -6.3m/s | -0.6°C | 74.6% | 673.5hPa | 2.6V | 07:51:27 | 02:40:41 | 00:00:00 | |
| DL4BBY-15 | 2026-09-04 01:00:17 | 53.28194 | 9.85078 | 90° | 110km/h | 3373m | -5.8m/s | 0.3°C | 0% | 0hPa | 2.6V | 00:00:00 | 00:00:00 | 00:00:00 | |
| DO2SHX-10 | 2026-09-04 01:00:13 | 53.28192 | 9.84945 | 90° | 104km/h | 3392m | -6.9m/s | -0.6°C | 70.2% | 674.6hPa | 2.6V | 00:00:00 | 02:40:43 | 00:00:00 | |
| DM0DOS-11 | 2026-09-04 01:00:11 | 53.28191 | 9.84631 | 90° | 108km/h | 3436m | -7m/s | -0.4°C | 84.9% | 670.8hPa | 2.6V | 07:51:32 | 02:40:36 | 00:00:00 | |
| DB0DAN | 2026-09-04 01:00:10 | 53.28191 | 9.84812 | 89° | 100km/h | 3411m | -6.5m/s | -0.4°C | 77.9% | 672.9hPa | 2.6V | 00:00:00 | 00:00:00 | 00:00:00 | |
| DL1XH1-15 | 2026-09-04 01:00:10 | 53.28191 | 9.84812 | 89° | 106km/h | 3411m | -6.5m/s | -0.4°C | 79.2% | 672.9hPa | 2.6V | 07:51:28 | 02:40:40 | 00:00:00 | |
| DL1XH1-15 | 2026-09-04 01:00:10 | 53.28191 | 9.84585 | 90° | 108km/h | 3443m | -6.8m/s | -0.5°C | 84.7% | 670.2hPa | 2.6V | 07:51:33 | 02:40:35 | 00:00:00 | |
| DL1XH-west | 2026-09-04 01:00:10 | 53.28191 | 9.84812 | 89° | 106km/h | 3411m | -6.5m/s | -0.4°C | 81.2% | 672.9hPa | 2.6V | 07:51:29 | 02:40:40 | 00:00:00 | |
| DO2SHX-10 | 2026-09-04 01:00:10 | 53.28191 | 9.84812 | 90° | 108km/h | 3411m | -6.5m/s | -0.4°C | 79.2% | 672.9hPa | 2.6V | 00:00:00 | 02:40:40 | 00:00:00 | |
| DO2SHX-10 | 2026-09-04 01:00:07 | 53.28191 | 9.84676 | 90° | 108km/h | 3430m | -5.7m/s | -0.3°C | 84.5% | 671.3hPa | 2.6V | 00:00:00 | 02:40:37 | 00:00:00 | |
| DL1XH1-15 | 2026-09-04 01:00:05 | 53.28193 | 9.84353 | 90° | 110km/h | 3474m | -5.2m/s | -0.4°C | 89.6% | 667.6hPa | 2.6V | 07:51:38 | 02:40:30 | 00:00:00 | |
| DL1XH-15 | 2026-09-04 01:00:04 | 53.28192 | 9.84400 | 90° | 110km/h | 3468m | -5.8m/s | -0.4°C | 89.3% | 668.1hPa | 2.6V | 07:51:37 | 02:40:31 | 00:00:00 | |
| DL1XH-west | 2026-09-04 01:00:00 | 53.28192 | 9.84353 | 91° | 110km/h | 3474m | -5.2m/s | -0.4°C | 91.1% | 667.6hPa | 2.6V | 07:52:20 | 02:40:30 | 00:00:00 | |
| BIOWL1-15 | 2026-09-04 00:59:59 | 53.28194 | 9.84213 | 92° | 111km/h | 3492m | -7.8m/s | -0.4°C | 93.3% | 666.1hPa | 2.6V | 07:52:20 | 02:40:27 | 00:00:00 | |
| AA1-15 | 2026-09-04 00:59:59 | 53.28193 | 9.84306 | 91° | 111km/h | 3479m | -5.5m/s | -0.4°C | 92.3% | 667.2hPa | 2.6V | 07:52:20 | 02:40:29 | 00:00:00 | |
| DL1LOL-11 | 2026-09-04 00:59:58 | 53.28192 | 9.84306 | 92° | 111km/h | 3479m | -5.5m/s | -0.4°C | 88.6% | 667.2hPa | 2.6V | 07:52:00 | 00:00:00 | 00:00:00 | |
| DL1XH-15 | 2026-09-04 00:59:57 | 53.28194 | 9.84165 | 91° | 113km/h | 3499m | -6.9m/s | -0.5°C | 90.8% | 665.6hPa | 2.6V | 07:51:42 | 02:40:26 | 00:00:00 | |
| DB0DAN | 2026-09-04 00:59:55 | 53.28195 | 9.84118 | 93° | 108km/h | 3506m | -7.1m/s | -0.5°C | 89.5% | 664.93hPa | 2.6V | 00:00:00 | 00:00:00 | 00:00:00 | |
| DL1XH1-15 | 2026-09-04 00:59:55 | 53.28204 | 9.83878 | 93° | 113km/h | 3538m | -6.3m/s | -0.7°C | 92% | 662.4hPa | 2.6V | 07:51:48 | 02:40:20 | 00:00:00 | |
| BIOWL9-15 | 2026-09-04 00:59:53 | 53.28198 | 9.84022 | 93° | 113km/h | 3519m | -6.8m/s | -0.6°C | 89.9% | 663.9hPa | 2.6V | 00:00:00 | 00:00:00 | 00:00:00 | |
| DL1XH-15 | 2026-09-04 00:59:51 | 53.28202 | 9.83926 | 93° | 115km/h | 3532m | -6.5m/s | -0.6°C | 91.9% | 662.9hPa | 2.6V | 07:51:47 | 02:40:21 | 00:00:00 | |
| DM0DOS-11 | 2026-09-04 00:59:51 | 53.28212 | 9.83637 | 93° | 115km/h | 3568m | -6.3m/s | -0.9°C | 93% | 659.8hPa | 2.6V | 07:51:53 | 02:40:15 | 00:00:00 | |
| DL1XH-west | 2026-09-04 00:59:49 | 53.28205 | 9.83830 | 94° | 113km/h | 3545m | -6.2m/s | -0.7°C | 94.1% | 661.7hPa | 2.6V | 07:52:20 | 02:40:19 | 00:00:00 | |
| BIOWL1-15 | 2026-09-04 00:59:47 | 53.28221 | 9.83391 | 93° | 117km/h | 3596m | -6.8m/s | -1°C | 94.3% | 657.7hPa | 2.6V | 07:52:20 | 02:40:10 | 00:00:00 | |
| DL1XH-15 | 2026-09-04 00:59:46 | 53.28221 | 9.83391 | 92° | 117km/h | 3596m | -6.8m/s | -1°C | 93.5% | 657.7hPa | 2.6V | 07:51:58 | 02:40:10 | 00:00:00 | |
| DL4BBY-15 | 2026-09-04 00:59:46 | 53.28211 | 9.83685 | 94° | 120km/h | 3563m | -4.2m/s | -0.2°C | 0% | 0hPa | 2.6V | 00:00:00 | 00:00:00 | 00:00:00 | |
| DL1XH1-15 | 2026-09-04 00:59:45 | 53.28221 | 9.83391 | 92° | 117km/h | 3596m | -6.8m/s | -1°C | 93.5% | 657.7hPa | 2.6V | 07:51:58 | 02:40:10 | 00:00:00 | |
| DO2SHX-10 | 2026-09-04 00:59:43 | 53.28216 | 9.83539 | 94° | 117km/h | 3578m | -5.3m/s | -0.9°C | 93.3% | 658.9hPa | 2.6V | 00:00:00 | 02:40:13 | 00:00:00 | |
| DM0DOS-11 | 2026-09-04 00:59:40 | 53.28230 | 9.83141 | 94° | 119km/h | 3630m | -6.5m/s | -1.2°C | 92.6% | 655hPa | 2.6V | 07:52:03 | 02:40:05 | 00:00:00 | |
| AA1-15 | 2026-09-04 00:59:39 | 53.28222 | 9.83341 | 93° | 119km/h | 3603m | -6.3m/s | -1.1°C | 94.1% | 657.1hPa | 2.6V | 07:52:20 | 02:40:09 | 00:00:00 | |
| DL1XH-west | 2026-09-04 00:59:38 | 53.28224 | 9.83291 | 93° | 119km/h | 3609m | -6.8m/s | -1.1°C | 93.5% | 656.7hPa | 2.6V | 07:52:20 | 02:40:08 | 00:00:00 | |
| DM0DOS-11 | 2026-09-04 00:59:35 | 53.28242 | 9.82888 | 94° | 120km/h | 3663m | -6.2m/s | -1.3°C | 94.3% | 652.3hPa | 2.6V | 07:52:08 | 02:40:00 | 00:00:00 | |
| BIOWL1-15 | 2026-09-04 00:59:33 | 53.28242 | 9.82888 | 95° | 120km/h | 3663m | -6.2m/s | -1.3°C | 93.2% | 652.3hPa | 2.6V | 07:52:20 | 02:40:00 | 00:00:00 | |
| DL1XH-west | 2026-09-04 00:59:28 | 53.28247 | 9.82786 | 95° | 122km/h | 3675m | -5.4m/s | -1.3°C | 93.6% | 651.2hPa | 2.5V | 07:52:20 | 02:39:58 | 00:00:00 | |
| DB0DAN | 2026-09-04 00:59:25 | 53.28255 | 9.82632 | 94° | 117km/h | 3692m | -6.1m/s | -1.3°C | 93.6% | 649.83hPa | 2.6V | 00:00:00 | 00:00:00 | 00:00:00 | |
| DM0DOS-11 | 2026-09-04 00:59:25 | 53.28268 | 9.82373 | 95° | 124km/h | 3724m | -6.9m/s | -1.4°C | 96.2% | 647.2hPa | 2.6V | 07:52:18 | 02:39:50 | 00:00:00 | |
| DJ2DS-15 | 2026-09-04 00:59:25 | 53.28260 | 9.82529 | 94° | 122km/h | 3704m | -6.4m/s | -1.4°C | 93.7% | 648.8hPa | 2.6V | 00:00:00 | 00:00:00 | 00:00:00 | |
| DO2SHX-10 | 2026-09-04 00:59:22 | 53.28262 | 9.82477 | 95° | 124km/h | 3711m | -7.2m/s | -1.4°C | 95.4% | 648.2hPa | 2.6V | 00:00:00 | 02:39:52 | 00:00:00 | |
| DL1XH-15 | 2026-09-04 00:59:19 | 53.28271 | 9.82321 | 95° | 124km/h | 3731m | -6.7m/s | -1.3°C | 97.1% | 646.7hPa | 2.6V | 07:52:19 | 02:39:49 | 00:00:00 | |
| DL1XH1-15 | 2026-09-04 00:59:19 | 53.28286 | 9.82061 | 94° | 124km/h | 3764m | -6.8m/s | -1°C | 99.4% | 644hPa | 2.6V | 07:52:24 | 02:39:44 | 00:00:00 | |
| DL1XH-west | 2026-09-04 00:59:18 | 53.28274 | 9.82269 | 96° | 124km/h | 3737m | -6.1m/s | -1.1°C | 98.4% | 646.1hPa | 2.6V | 07:52:20 | 02:39:48 | 00:00:00 | |
| AA1-15 | 2026-09-04 00:59:17 | 53.28277 | 9.82217 | 96° | 124km/h | 3744m | -6.5m/s | -1.1°C | 99.5% | 645.5hPa | 2.6V | 07:53:11 | 02:39:47 | 00:00:00 | |
| DL1LOL-11 | 2026-09-04 00:59:17 | 53.28277 | 9.82217 | 97° | 124km/h | 3744m | -6.5m/s | -1.1°C | 96.9% | 645.5hPa | 2.5V | 00:00:00 | 00:00:00 | 00:00:00 | |
| DO2SHX-10 | 2026-09-04 00:59:16 | 53.28280 | 9.82165 | 96° | 124km/h | 3751m | -6.6m/s | -0.9°C | 99.7% | 645.0hPa | 2.5V | 00:00:00 | 02:39:46 | 00:00:00 | |
| DM0DOS-11 | 2026-09-04 00:59:15 | 53.28297 | 9.81853 | 95° | 124km/h | 3791m | -6.6m/s | -1.3°C | 98.2% | 641.8hPa | 2.5V | 07:52:28 | 02:39:40 | 00:00:00 | |
| DL1XH1-15 | 2026-09-04 00:59:14 | 53.28300 | 9.81801 | 96° | 124km/h | 3798m | -6.8m/s | -1.2°C | 99.1% | 641.2hPa | 2.6V | 07:52:29 | 02:39:39 | 00:00:00 | |
| DL1XH-15 | 2026-09-04 00:59:14 | 53.28304 | 9.81749 | 96° | 122km/h | 3804m | -5.8m/s | -1.2°C | 99.3% | 640.7hPa | 2.6V | 07:52:30 | 02:39:38 | 00:00:00 | |
| DO2SHX-10 | 2026-09-04 00:59:13 | 53.28288 | 9.82009 | 95° | 124km/h | 3771m | -6.7m/s | -1.1°C | 98.8% | 643.3hPa | 2.5V | 00:00:00 | 02:39:43 | 00:00:00 | |
| DB0DAN | 2026-09-04 00:59:10 | 53.28297 | 9.81853 | 96° | 119km/h | 3791m | -6.6m/s | -1.3°C | 96.5% | 641.77hPa | 2.5V | 00:00:00 | 00:00:00 | 00:00:00 | |
| DM0DOS-11 | 2026-09-04 00:59:10 | 53.28315 | 9.81594 | 96° | 124km/h | 3821m | -6.2m/s | -1.2°C | 99.5% | 639.3hPa | 2.6V | 07:52:33 | 02:39:35 | 00:00:00 | |
| BIOWL1-15 | 2026-09-04 00:59:10 | 53.28297 | 9.81853 | 96° | 124km/h | 3791m | -6.6m/s | -1.3°C | 98.8% | 641.8hPa | 2.5V | 07:53:11 | 02:39:40 | 00:00:00 | |
| DO2SHX-10 | 2026-09-04 00:59:10 | 53.28297 | 9.81853 | 96° | 124km/h | 3791m | -6.6m/s | -1.3°C | 98.2% | 641.7hPa | 2.5V | 07:52:00 | 02:39:40 | 00:00:00 | |
| DL1XH-15 | 2026-09-04 00:59:08 | 53.28322 | 9.81490 | 96° | 124km/h | 3834m | -5.8m/s | -1.2°C | 99.8% | 638.3hPa | 2.5V | 07:52:35 | 02:39:33 | 00:00:00 | |
| AA1-15 | 2026-09-04 00:59:07 | 53.28307 | 9.81698 | 97° | 124km/h | 3810m | -5.7m/s | -1.2°C | 100% | 640.3hPa | 2.6V | 07:53:11 | 02:39:37 | 00:00:00 | |
| DO2SHX-10 | 2026-09-04 00:59:07 | 53.28307 | 9.81697 | 97° | 124km/h | 3810m | -5.6m/s | -1.1°C | 99.5% | 640.2hPa | 2.6V | 00:00:00 | 02:39:37 | 00:00:00 | |
| DM0DOS-11 | 2026-09-04 00:59:05 | 53.28332 | 9.81333 | 96° | 124km/h | 3851m | -6.6m/s | -1.3°C | 99.9% | 637hPa | 2.6V | 07:52:38 | 02:39:30 | 00:00:00 | |
| DL1XH1-15 | 2026-09-04 00:59:04 | 53.28335 | 9.81281 | 96° | 124km/h | 3857m | -4.7m/s | -1.4°C | 0% | 636.4hPa | 2.6V | 07:52:39 | 02:39:29 | 00:00:00 | |
| DO2SHX-10 | 2026-09-04 00:59:04 | 53.28318 | 9.81542 | 97° | 124km/h | 3828m | -6.4m/s | -1.2°C | 0% | 638.7hPa | 2.5V | 00:00:00 | 02:39:34 | 00:00:00 | |
| DL1XH-15 | 2026-09-04 00:59:03 | 53.28338 | 9.81229 | 96° | 124km/h | 3863m | -6.9m/s | -1.4°C | 0% | 636hPa | 2.5V | 07:52:40 | 02:39:28 | 00:00:00 | |
| DO2SHX-10 | 2026-09-04 00:59:01 | 53.28328 | 9.81385 | 96° | 124km/h | 3845m | -6.3m/s | -1.3°C | 0% | 637.3hPa | 2.6V | 00:00:00 | 02:39:31 | 00:00:00 | |
| DM0DOS-11 | 2026-09-04 00:59:00 | 53.28349 | 9.81071 | 96° | 126km/h | 3882m | -5.9m/s | -1.5°C | 0% | 634.3hPa | 2.6V | 07:52:43 | 02:39:25 | 00:00:00 | |
| BIOWL1-15 | 2026-09-04 00:59:00 | 53.28332 | 9.81333 | 96° | 124km/h | 3851m | -6.6m/s | -1.3°C | 100% | 637hPa | 2.6V | 07:53:11 | 02:39:30 | 00:00:00 | |
| AA1-15 | 2026-09-04 00:58:57 | 53.28342 | 9.81176 | 96° | 124km/h | 3870m | -7.1m/s | -1.4°C | 100% | 635.4hPa | 2.5V | 07:53:11 | 02:39:27 | 00:00:00 | |
| DB0DAN | 2026-09-04 00:58:55 | 53.28349 | 9.81071 | 97° | 120km/h | 3883m | -5.9m/s | -1.5°C | 99% | 634.33hPa | 2.6V | 00:00:00 | 00:00:00 | 00:00:00 | |
| DL1XH1-15 | 2026-09-04 00:58:54 | 53.28353 | 9.81018 | 96° | 126km/h | 3888m | -5m/s | -1.5°C | 0% | 633.9hPa | 2.6V | 07:52:44 | 02:39:24 | 00:00:00 | |
| DL1XH1-15 | 2026-09-04 00:58:54 | 53.28371 | 9.80753 | 97° | 126km/h | 3919m | -6.6m/s | -1.7°C | 0% | 631.5hPa | 2.6V | 07:52:49 | 02:39:19 | 00:00:00 | |
| DL1XH-15 | 2026-09-04 00:58:53 | 53.28376 | 9.80700 | 96° | 126km/h | 3926m | -7.2m/s | -1.7°C | 0% | 631hPa | 2.6V | 07:52:50 | 02:39:18 | 00:00:00 | |
| BIOWL1-15 | 2026-09-04 00:58:53 | 53.28372 | 9.80753 | 97° | 126km/h | 3919m | -6.6m/s | -1.7°C | 100% | 631.5hPa | 2.6V | 07:53:11 | 02:39:19 | 00:00:00 | |
| DF8AY | 2026-09-04 00:58:51 | 53.28364 | 9.80859 | 97° | 126km/h | 3907m | -6.1m/s | -1.6°C | 100% | 632.4hPa | 2.5V | 07:53:11 | 02:39:21 | 00:00:00 | |
| DJ2DS-15 | 2026-09-04 00:58:50 | 53.28368 | 9.80806 | 97° | 126km/h | 3913m | -5.7m/s | -1.6°C | 0% | 632.0hPa | 2.6V | 00:00:00 | 02:39:20 | 00:00:00 | |
| DL1XH1-15 | 2026-09-04 00:58:49 | 53.28392 | 9.80490 | 97° | 126km/h | 3954m | -7.6m/s | -1.9°C | 0% | 629hPa | 2.6V | 07:52:54 | 02:39:14 | 00:00:00 | |
| DL1XH-15 | 2026-09-04 00:58:48 | 53.28397 | 9.80438 | 97° | 124km/h | 3961m | -7.3m/s | -2°C | 99.8% | 628.3hPa | 2.6V | 07:52:55 | 02:39:13 | 00:00:00 | |
| AA1-15 | 2026-09-04 00:58:47 | 53.28380 | 9.80647 | 98° | 126km/h | 3933m | -6.1m/s | -1.8°C | 100% | 630.4hPa | 2.5V | 07:53:11 | 02:39:17 | 00:00:00 | |
| DL1XH-west | 2026-09-04 00:58:46 | 53.28384 | 9.80595 | 98° | 124km/h | 3940m | -6.9m/s | -1.8°C | 100% | 629.9hPa | 2.5V | 07:53:11 | 02:39:16 | 00:00:00 | |
| DO2SHX-10 | 2026-09-04 00:58:46 | 53.28384 | 9.80595 | 98° | 126km/h | 3940m | -6.8m/s | -1.8°C | 0% | 629.9hPa | 2.6V | 07:52:00 | 02:39:16 | 00:00:00 | |
| BIOWL7-15 | 2026-09-04 00:58:45 | 53.28384 | 9.80595 | 99° | 124km/h | 3940m | -6.9m/s | -1.8°C | 98.7% | 629.9hPa | 2.6V | 00:00:00 | 00:00:00 | 00:00:00 | |
| DL1XH1-15 | 2026-09-04 00:58:44 | 53.28413 | 9.80229 | 97° | 126km/h | 3991m | -8m/s | -2.2°C | 99.6% | 626.1hPa | 2.6V | 07:52:59 | 02:39:09 | 00:00:00 | |
| DF8AY | 2026-09-04 00:58:41 | 53.28455 | 9.79756 | 99° | 124km/h | 4046m | -5.8m/s | -2.5°C | 100% | 621.5hPa | 2.5V | 07:53:11 | 02:39:00 | 00:00:00 | |
| DB0DAN | 2026-09-04 00:58:40 | 53.28409 | 9.80281 | 97° | 120km/h | 3983m | -7m/s | -2.2°C | 97.5% | 626.64hPa | 2.5V | 00:00:00 | 00:00:00 | 00:00:00 | |
| DM0DOS-11 | 2026-09-04 00:58:40 | 53.28431 | 9.80018 | 98° | 126km/h | 4016m | -6.2m/s | -2.4°C | 0% | 624hPa | 2.5V | 07:53:03 | 02:39:05 | 00:00:00 | |
| DO2SHX-10 | 2026-09-04 00:58:40 | 53.28409 | 9.80281 | 98° | 126km/h | 3984m | -6.9m/s | -2.2°C | 0% | 626.6hPa | 2.5V | 00:00:00 | 02:39:10 | 00:00:00 | |
| DL1XH1-15 | 2026-09-04 00:58:39 | 53.28435 | 9.79965 | 98° | 126km/h | 4022m | -6.5m/s | -2.4°C | 0% | 623.5hPa | 2.5V | 07:53:04 | 02:39:04 | 00:00:00 | |
| GOEST3-10 | 2026-09-04 00:58:39 | 53.28413 | 9.80229 | 98° | 124km/h | 3991m | -8.0m/s | -2.2°C | 0% | 626.0hPa | 2.6V | 07:52:00 | 00:00:00 | 00:00:00 | |
| DL1XH-15 | 2026-09-04 00:58:38 | 53.28440 | 9.79912 | 98° | 126km/h | 4028m | -6.4m/s | -2.4°C | 0% | 623hPa | 2.6V | 07:53:05 | 02:39:03 | 00:00:00 | |
| BIOWL1-15 | 2026-09-04 00:58:38 | 53.28418 | 9.80176 | 98° | 126km/h | 3998m | -6.4m/s | -2.3°C | 100% | 625.4hPa | 2.6V | 07:53:11 | 02:39:08 | 00:00:00 | |
| AA1-15 | 2026-09-04 00:58:36 | 53.28426 | 9.80071 | 98° | 126km/h | 4010m | -6.5m/s | -2.3°C | 100% | 624.5hPa | 2.6V | 07:53:11 | 02:39:06 | 00:00:00 | |
| DL1XH-west | 2026-09-04 00:58:35 | 53.28431 | 9.80018 | 98° | 126km/h | 4016m | -6.2m/s | -2.4°C | 100% | 624hPa | 2.5V | 07:53:11 | 02:39:05 | 00:00:00 | |
| DO2SHX-10 | 2026-09-04 00:58:34 | 53.28435 | 9.79965 | 99° | 126km/h | 4022m | -6.4m/s | -2.3°C | 0% | 623.5hPa | 2.5V | 00:00:00 | 02:39:04 | 00:00:00 | |
| DL1XH-15 | 2026-09-04 00:58:33 | 53.28465 | 9.79653 | 99° | 122km/h | 4058m | -6.9m/s | -2.5°C | 0% | 620.5hPa | 2.6V | 07:53:10 | 02:38:58 | 00:00:00 | |
| DO2SHX-10 | 2026-09-04 00:58:31 | 53.28449 | 9.79808 | 99° | 124km/h | 4040m | -6.3m/s | -2.4°C | 0% | 621.9hPa | 2.6V | 00:00:00 | 02:39:01 | 00:00:00 | |
| DM0DOS-11 | 2026-09-04 00:58:30 | 53.28480 | 9.79499 | 99° | 122km/h | 4075m | -6.4m/s | -2.7°C | 99.9% | 619.2hPa | 2.6V | 07:53:13 | 02:38:55 | 00:00:00 | |
| DJ2DS-15 | 2026-09-04 00:58:30 | 53.28455 | 9.79756 | 100° | 122km/h | 4046m | -5.8m/s | -2.4°C | 0% | 621.5hPa | 2.5V | 07:53:00 | 02:39:00 | 00:00:00 | |
| DL1XH1-15 | 2026-09-04 00:58:29 | 53.28485 | 9.79448 | 99° | 122km/h | 4082m | -7.1m/s | -2.8°C | 99.8% | 618.6hPa | 2.5V | 07:53:14 | 02:38:54 | 00:00:00 | |
| BIOWL1-15 | 2026-09-04 00:58:27 | 53.28470 | 9.79601 | 99° | 122km/h | 4064m | -4.7m/s | -2.6°C | 100% | 620hPa | 2.6V | 07:53:11 | 02:38:57 | 00:00:00 | |
| AA1-15 | 2026-09-04 00:58:26 | 53.28475 | 9.79550 | 100° | 122km/h | 4069m | -6.3m/s | -2.6°C | 100% | 619.5hPa | 2.6V | 07:54:02 | 02:38:56 | 00:00:00 | |
| DB0DAN | 2026-09-04 00:58:25 | 53.28480 | 9.79499 | 100° | 117km/h | 4075m | -6.4m/s | -2.7°C | 97.9% | 619.17hPa | 2.6V | 00:00:00 | 00:00:00 | 00:00:00 | |
| DL1XH-west | 2026-09-04 00:58:25 | 53.28480 | 9.79499 | 100° | 122km/h | 4075m | -6.4m/s | -2.7°C | 100% | 619.2hPa | 2.6V | 07:54:02 | 02:38:55 | 00:00:00 | |
| DL1XH-15 | 2026-09-04 00:58:24 | 53.28490 | 9.79397 | 99° | 122km/h | 4088m | -5.5m/s | -2.8°C | 99.7% | 618.1hPa | 2.5V | 07:53:15 | 02:38:53 | 00:00:00 | |
| DF8AY | 2026-09-04 00:58:24 | 53.28490 | 9.79397 | 100° | 122km/h | 4088m | -5.5m/s | -2.8°C | 100% | 618.1hPa | 2.5V | 07:54:02 | 02:38:53 | 00:00:00 | |
| DO2SHX-10 | 2026-09-04 00:58:22 | 53.28495 | 9.79346 | 100° | 122km/h | 4094m | -7.1m/s | -2.8°C | 99.3% | 617.7hPa | 2.6V | 07:53:00 | 02:38:52 | 00:00:00 | |
| DM0DOS-11 | 2026-09-04 00:58:20 | 53.28532 | 9.78993 | 100° | 120km/h | 4138m | -5.6m/s | -3.1°C | 99% | 614.2hPa | 2.6V | 07:53:23 | 02:38:45 | 00:00:00 | |
| DL1XH1-15 | 2026-09-04 00:58:19 | 53.28538 | 9.78943 | 100° | 120km/h | 4144m | -5.6m/s | -3.1°C | 99.2% | 613.8hPa | 2.6V | 07:53:24 | 02:38:44 | 00:00:00 | |
| DO2SHX-10 | 2026-09-04 00:58:19 | 53.28511 | 9.79194 | 100° | 122km/h | 4114m | -6.2m/s | -2.9°C | 99.5% | 616.2hPa | 2.5V | 00:00:00 | 02:38:49 | 00:00:00 | |
| DL1XH-15 | 2026-09-04 00:58:18 | 53.28543 | 9.78893 | 100° | 120km/h | 4150m | -6.6m/s | -3.1°C | 99.4% | 613.3hPa | 2.5V | 07:53:25 | 02:38:43 | 00:00:00 | |
| BIOWL1-15 | 2026-09-04 00:58:16 | 53.28532 | 9.78993 | 100° | 120km/h | 4139m | -5.6m/s | -3.1°C | 99.3% | 614.2hPa | 2.6V | 07:54:02 | 02:38:45 | 00:00:00 | |
| AA1-15 | 2026-09-04 00:58:16 | 53.28527 | 9.79043 | 100° | 120km/h | 4132m | -6.4m/s | -3.1°C | 100% | 614.7hPa | 2.6V | 07:54:02 | 02:38:46 | 00:00:00 | |
| DL1XH-west | 2026-09-04 00:58:14 | 53.28538 | 9.78943 | 100° | 120km/h | 4144m | -5.6m/s | -3.1°C | 99.3% | 613.8hPa | 2.6V | 07:54:02 | 02:38:44 | 00:00:00 | |
| DL1XH-15 | 2026-09-04 00:58:13 | 53.28573 | 9.78643 | 101° | 120km/h | 4180m | -6.2m/s | -3.1°C | 98.3% | 611hPa | 2.5V | 07:53:30 | 02:38:38 | 00:00:00 | |
| DO2SHX-10 | 2026-09-04 00:58:13 | 53.28543 | 9.78893 | 101° | 120km/h | 4150m | -6.6m/s | -3.0°C | 99.4% | 613.3hPa | 2.6V | 00:00:00 | 02:38:43 | 00:00:00 | |
| DB0DAN | 2026-09-04 00:58:10 | 53.28561 | 9.78743 | 101° | 115km/h | 4168m | -5.5m/s | -3.1°C | 97% | 611.96hPa | 2.6V | 00:00:00 | 00:00:00 | 00:00:00 | |
| DM0DOS-11 | 2026-09-04 00:58:10 | 53.28591 | 9.78493 | 101° | 120km/h | 4197m | -5.6m/s | -3.1°C | 98.8% | 609.7hPa | 2.6V | 07:53:33 | 02:38:35 | 00:00:00 | |
| DJ2DS-15 | 2026-09-04 00:58:10 | 53.28561 | 9.78743 | 102° | 117km/h | 4168m | -5.5m/s | -3.0°C | 98.9% | 611.9hPa | 2.6V | 00:00:00 | 02:38:40 | 00:00:00 | |
| DL1XH1-15 | 2026-09-04 00:58:09 | 53.28598 | 9.78444 | 101° | 119km/h | 4203m | -6.5m/s | -3.1°C | 98.8% | 609.2hPa | 2.6V | 07:53:34 | 02:38:34 | 00:00:00 | |
| DL1XH-15 | 2026-09-04 00:58:08 | 53.28604 | 9.78395 | 102° | 117km/h | 4209m | -6.1m/s | -3.1°C | 98.9% | 608.8hPa | 2.6V | 07:53:35 | 02:38:33 | 00:00:00 | |
| BIOWL1-15 | 2026-09-04 00:58:06 | 53.28604 | 9.78395 | 102° | 117km/h | 4209m | -6.1m/s | -3.1°C | 97.8% | 608.8hPa | 2.6V | 07:54:02 | 02:38:33 | 00:00:00 | |
| AA1-15 | 2026-09-04 00:58:05 | 53.28591 | 9.78493 | 102° | 120km/h | 4197m | -5.6m/s | -3.1°C | 97.5% | 609.7hPa | 2.6V | 07:54:02 | 02:38:35 | 00:00:00 | |
| DM0DOS-11 | 2026-09-04 00:58:05 | 53.28622 | 9.78250 | 102° | 117km/h | 4228m | -6.7m/s | -3.2°C | 99.3% | 607.4hPa | 2.6V | 07:53:38 | 02:38:30 | 00:00:00 | |
| DL1XH1-15 | 2026-09-04 00:58:04 | 53.28629 | 9.78202 | 102° | 115km/h | 4235m | -6.5m/s | -3.2°C | 99.5% | 606.8hPa | 2.6V | 07:53:39 | 02:38:29 | 00:00:00 | |
| DL1XH-west | 2026-09-04 00:58:04 | 53.28598 | 9.78444 | 102° | 119km/h | 4203m | -6.5m/s | -3.1°C | 97.7% | 609.2hPa | 2.6V | 07:54:02 | 02:38:34 | 00:00:00 | |
| DO2SHX-10 | 2026-09-04 00:58:04 | 53.28597 | 9.78443 | 102° | 119km/h | 4203m | -6.4m/s | -3.1°C | 98.8% | 609.2hPa | 2.6V | 00:00:00 | 02:38:34 | 00:00:00 | |
| DL1LOL-11 | 2026-09-04 00:58:03 | 53.28597 | 9.78443 | 103° | 119km/h | 4203m | -6.5m/s | -3.1°C | 96.8% | 609.2hPa | 2.6V | 00:00:00 | 00:00:00 | 00:00:00 | |
| DO2LYB-13 | 2026-09-04 00:58:02 | 53.28604 | 9.78395 | 103° | 117km/h | 4209m | -6.1m/s | -3.1°C | 97.0% | 608.8hPa | 2.6V | 00:00:00 | 00:00:00 | 00:00:00 | |
| DO2SHX-10 | 2026-09-04 00:58:01 | 53.28616 | 9.78298 | 103° | 115km/h | 4222m | -6.7m/s | -3.1°C | 99.1% | 607.8hPa | 2.6V | 00:00:00 | 02:38:31 | 00:00:00 | |
| DM0DOS-11 | 2026-09-04 00:58:00 | 53.28655 | 9.78013 | 103° | 113km/h | 4262m | -8.6m/s | -3.3°C | 99.4% | 604.9hPa | 2.6V | 07:53:43 | 02:38:25 | 00:00:00 | |
| DL1XH1-15 | 2026-09-04 00:57:59 | 53.28662 | 9.77966 | 103° | 115km/h | 4271m | -8.8m/s | -3.3°C | 99.2% | 604.3hPa | 2.6V | 07:53:44 | 02:38:24 | 00:00:00 | |
| SMARD9-15 | 2026-09-04 00:57:59 | 53.28635 | 9.78154 | 102° | 115km/h | 4241m | -6.9m/s | -3.2°C | 97.7% | 606.4hPa | 2.6V | 00:00:00 | 00:00:00 | 00:00:00 | |
| DL1XH-15 | 2026-09-04 00:57:58 | 53.28669 | 9.77919 | 103° | 115km/h | 4279m | -8.7m/s | -3.4°C | 99.3% | 603.7hPa | 2.6V | 07:53:45 | 02:38:23 | 00:00:00 | |
| DF8AY | 2026-09-04 00:57:57 | 53.28642 | 9.78107 | 103° | 115km/h | 4248m | -6.6m/s | -3.2°C | 100% | 605.9hPa | 2.5V | 07:54:02 | 02:38:27 | 00:00:00 | |
| DB0DAN | 2026-09-04 00:57:55 | 53.28655 | 9.78013 | 104° | 108km/h | 4262m | -8.6m/s | -3.3°C | 97.4% | 604.93hPa | 2.6V | 00:00:00 | 00:00:00 | 00:00:00 | |
| BIOWL1-15 | 2026-09-04 00:57:55 | 53.28655 | 9.78013 | 104° | 113km/h | 4262m | -8.6m/s | -3.3°C | 100% | 604.9hPa | 2.6V | 07:54:02 | 02:38:25 | 00:00:00 | |
| DM0DOS-11 | 2026-09-04 00:57:55 | 53.28689 | 9.77778 | 104° | 115km/h | 4301m | -7.8m/s | -3.5°C | 99.6% | 601.9hPa | 2.5V | 07:53:48 | 02:38:20 | 00:00:00 | |
| DO2SHX-10 | 2026-09-04 00:57:55 | 53.28655 | 9.78013 | 104° | 115km/h | 4262m | -8.5m/s | -3.2°C | 99.4% | 604.9hPa | 2.6V | 00:00:00 | 02:38:25 | 00:00:00 | |
| DL1XH1-15 | 2026-09-04 00:57:54 | 53.28696 | 9.77731 | 104° | 115km/h | 4309m | -7m/s | -3.5°C | 99.7% | 601.3hPa | 2.6V | 07:53:49 | 02:38:19 | 00:00:00 | |
| DL1XH-west | 2026-09-04 00:57:54 | 53.28662 | 9.77966 | 104° | 115km/h | 4271m | -8.8m/s | -3.3°C | 100% | 604.3hPa | 2.6V | 07:54:02 | 02:38:24 | 00:00:00 | |
| DL1XH-15 | 2026-09-04 00:57:53 | 53.28704 | 9.77684 | 104° | 115km/h | 4315m | -6m/s | -3.5°C | 99.8% | 600.7hPa | 2.6V | 07:53:50 | 02:38:18 | 00:00:00 | |
| DO2SHX-10 | 2026-09-04 00:57:52 | 53.28675 | 9.77871 | 104° | 115km/h | 4287m | -7.5m/s | -3.4°C | 99.6% | 602.8hPa | 2.6V | 00:00:00 | 02:38:22 | 00:00:00 | |
| DJ2DS-15 | 2026-09-04 00:57:50 | 53.28689 | 9.77777 | 105° | 115km/h | 4302m | -7.7m/s | -3.4°C | 99.6% | 601.9hPa | 2.6V | 00:00:00 | 02:38:20 | 00:00:00 | |
| DL1XH1-15 | 2026-09-04 00:57:49 | 53.28733 | 9.77497 | 104° | 113km/h | 4339m | -6.7m/s | -3.6°C | 99.9% | 599hPa | 2.6V | 07:53:54 | 02:38:14 | 00:00:00 | |
| DO2SHX-10 | 2026-09-04 00:57:49 | 53.28697 | 9.77730 | 105° | 115km/h | 4309m | -6.9m/s | -3.4°C | 99.7% | 601.3hPa | 2.6V | 00:00:00 | 02:38:19 | 00:00:00 | |
| DL1XH-15 | 2026-09-04 00:57:48 | 53.28740 | 9.77451 | 104° | 113km/h | 4345m | -5.7m/s | -3.6°C | 99.9% | 598.5hPa | 2.6V | 07:53:55 | 02:38:13 | 00:00:00 | |
| DF8AY | 2026-09-04 00:57:47 | 53.28711 | 9.77637 | 105° | 115km/h | 4321m | -5.4m/s | -3.5°C | 100% | 600.3hPa | 2.6V | 07:54:02 | 02:38:17 | 00:00:00 | |
| DL4BBY-15 | 2026-09-04 00:57:46 | 53.28718 | 9.77590 | 105° | 115km/h | 4327m | -6.6m/s | -2.8°C | 0% | 0hPa | 2.6V | 00:00:00 | 00:00:00 | 00:00:00 | |
| DL1XH1-15 | 2026-09-04 00:57:44 | 53.28769 | 9.77264 | 104° | 115km/h | 4370m | -6.7m/s | -3.7°C | 99.8% | 596.7hPa | 2.6V | 07:53:59 | 02:38:09 | 00:00:00 | |
| AP2371 | 2026-09-04 00:57:44 | 53.28733 | 9.77497 | 105° | 113km/h | 4339m | -6.7m/s | -3.6°C | 97.9% | 599.0hPa | 2.6V | 00:00:00 | 00:00:00 | 00:00:00 | |
| DL1XH-15 | 2026-09-04 00:57:43 | 53.28777 | 9.77217 | 105° | 115km/h | 4376m | -5.9m/s | -3.8°C | 99.9% | 596.2hPa | 2.6V | 07:54:00 | 02:38:08 | 00:00:00 | |
| DL1XH-west | 2026-09-04 00:57:43 | 53.28740 | 9.77451 | 104° | 113km/h | 4345m | -5.7m/s | -3.6°C | 100% | 598.5hPa | 2.6V | 07:54:02 | 02:38:13 | 00:00:00 | |
| DO2SHX-10 | 2026-09-04 00:57:43 | 53.28740 | 9.77451 | 105° | 113km/h | 4345m | -5.6m/s | -3.6°C | 99.9% | 598.4hPa | 2.5V | 00:00:00 | 02:38:13 | 00:00:00 | |
| DB0DAN | 2026-09-04 00:57:40 | 53.28762 | 9.77311 | 105° | 110km/h | 4363m | -7.4m/s | -3.7°C | 97.8% | 597.16hPa | 2.5V | 00:00:00 | 00:00:00 | 00:00:00 | |
| DO2SHX-10 | 2026-09-04 00:57:40 | 53.28762 | 9.77311 | 105° | 115km/h | 4363m | -7.4m/s | -3.7°C | 0% | 597.1hPa | 2.5V | 00:00:00 | 02:38:10 | 00:00:00 | |
| DL1XH1-15 | 2026-09-04 00:57:39 | 53.28807 | 9.77028 | 105° | 117km/h | 4399m | -6.2m/s | -3.9°C | 0% | 594.4hPa | 2.5V | 07:54:04 | 02:38:04 | 00:00:00 | |
| DL1XH-15 | 2026-09-04 00:57:38 | 53.28815 | 9.76981 | 105° | 115km/h | 4406m | -6.7m/s | -3.9°C | 0% | 593.9hPa | 2.6V | 07:54:05 | 02:38:03 | 00:00:00 | |
| DM0DOS-11 | 2026-09-04 00:57:38 | 53.28800 | 9.77075 | 105° | 115km/h | 4394m | -4.8m/s | -3.9°C | 0% | 594.9hPa | 2.5V | 07:54:03 | 02:38:05 | 00:00:00 | |
| DF8AY | 2026-09-04 00:57:37 | 53.28792 | 9.77123 | 105° | 117km/h | 4388m | -6.3m/s | -3.8°C | 100% | 595.3hPa | 2.6V | 07:54:02 | 02:38:06 | 00:00:00 | |
| DO2SHX-10 | 2026-09-04 00:57:37 | 53.28784 | 9.77170 | 106° | 117km/h | 4382m | -5.7m/s | -3.7°C | 0% | 595.7hPa | 2.6V | 00:00:00 | 02:38:07 | 00:00:00 | |
| DJ2DS-15 | 2026-09-04 00:57:36 | 53.28800 | 9.77075 | 105° | 115km/h | 4394m | -4.8m/s | -3.9°C | 98.2% | 594.9hPa | 2.6V | 00:00:00 | 00:00:00 | 00:00:00 | |
| DO2SHX-10 | 2026-09-04 00:57:34 | 53.28808 | 9.77028 | 106° | 115km/h | 4399m | -6.2m/s | -3.8°C | 0% | 594.4hPa | 2.6V | 07:54:00 | 02:38:04 | 00:00:00 | |
| DL1XH-15 | 2026-09-04 00:57:33 | 53.28854 | 9.76748 | 105° | 115km/h | 4438m | -6.4m/s | -4.1°C | 0% | 591.6hPa | 2.6V | 07:54:10 | 02:37:58 | 00:00:00 | |
| DL1XH-west | 2026-09-04 00:57:32 | 53.28823 | 9.76934 | 106° | 115km/h | 4412m | -5.6m/s | -4°C | 100% | 593.4hPa | 2.6V | 07:54:53 | 02:38:02 | 00:00:00 | |
| BIOWL1-15 | 2026-09-04 00:57:32 | 53.28839 | 9.76841 | 106° | 115km/h | 4425m | -6.6m/s | -4°C | 100% | 592.6hPa | 2.5V | 07:54:53 | 02:38:00 | 00:00:00 | |
| DO2SHX-10 | 2026-09-04 00:57:31 | 53.28831 | 9.76888 | 106° | 115km/h | 4418m | -7.0m/s | -3.9°C | 0% | 593.0hPa | 2.6V | 00:00:00 | 02:38:01 | 00:00:00 | |
| DJ2DS-15 | 2026-09-04 00:57:30 | 53.28838 | 9.76841 | 106° | 115km/h | 4425m | -6.6m/s | -4.0°C | 0% | 592.5hPa | 2.5V | 00:00:00 | 02:38:00 | 00:00:00 | |
| DL1XH1-15 | 2026-09-04 00:57:29 | 53.28887 | 9.76560 | 106° | 117km/h | 4464m | -7.1m/s | -4.2°C | 0% | 589.6hPa | 2.5V | 07:54:14 | 02:37:54 | 00:00:00 | |
| DM0DOS-11 | 2026-09-04 00:57:28 | 53.28878 | 9.76607 | 105° | 117km/h | 4457m | -6.6m/s | -4.2°C | 0% | 590hPa | 2.6V | 07:54:13 | 02:37:55 | 00:00:00 | |
| SMARD9-15 | 2026-09-04 00:57:28 | 53.28862 | 9.76701 | 106° | 113km/h | 4444m | -6.0m/s | -4.2°C | 98.1% | 591.0hPa | 2.5V | 00:00:00 | 00:00:00 | 00:00:00 | |
| DL1XH-15 | 2026-09-04 00:57:26 | 53.28895 | 9.76513 | 106° | 117km/h | 4470m | -4.4m/s | -4.3°C | 0% | 589.1hPa | 2.5V | 07:54:15 | 02:37:53 | 00:00:00 | |
| DB0DAN | 2026-09-04 00:57:25 | 53.28879 | 9.76607 | 106° | 111km/h | 4457m | -6.6m/s | -4.2°C | 98.2% | 590.05hPa | 2.6V | 00:00:00 | 00:00:00 | 00:00:00 | |
| DF8AY | 2026-09-04 00:57:25 | 53.28879 | 9.76607 | 106° | 117km/h | 4457m | -6.6m/s | -4.2°C | 100% | 590hPa | 2.6V | 07:54:53 | 02:37:55 | 00:00:00 | |
| DO2SHX-10 | 2026-09-04 00:57:25 | 53.28879 | 9.76607 | 106° | 117km/h | 4457m | -6.5m/s | -4.2°C | 0% | 590.0hPa | 2.6V | 00:00:00 | 02:37:55 | 00:00:00 | |
| DM0DOS-11 | 2026-09-04 00:57:22 | 53.28920 | 9.76371 | 105° | 115km/h | 4488m | -6.2m/s | -4.4°C | 0% | 587.7hPa | 2.6V | 07:54:18 | 02:37:50 | 00:00:00 | |
| DL1XH-west | 2026-09-04 00:57:22 | 53.28903 | 9.76465 | 106° | 117km/h | 4475m | -6.9m/s | -4.3°C | 100% | 588.8hPa | 2.5V | 07:54:53 | 02:37:52 | 00:00:00 | |
| DO2SHX-10 | 2026-09-04 00:57:22 | 53.28903 | 9.76465 | 107° | 117km/h | 4475m | -6.9m/s | -4.3°C | 0% | 588.7hPa | 2.5V | 00:00:00 | 02:37:52 | 00:00:00 | |
| DL1LOL-11 | 2026-09-04 00:57:21 | 53.28903 | 9.76465 | 107° | 117km/h | 4475m | -6.9m/s | -4.3°C | 97.9% | 588.8hPa | 2.6V | 07:54:00 | 00:00:00 | 00:00:00 | |
| DL1XH-15 | 2026-09-04 00:57:20 | 53.28936 | 9.76276 | 106° | 117km/h | 4500m | -5.7m/s | -4.4°C | 0% | 586.9hPa | 2.6V | 07:54:20 | 02:37:48 | 00:00:00 | |
| BIOWL1-15 | 2026-09-04 00:57:19 | 53.28962 | 9.76136 | 107° | 117km/h | 4515m | -5.7m/s | -4.5°C | 100% | 585.5hPa | 2.6V | 07:54:53 | 02:37:45 | 00:00:00 | |
| DL1XH1-15 | 2026-09-04 00:57:19 | 53.28970 | 9.76089 | 108° | 115km/h | 4522m | -7.3m/s | -4.6°C | 0% | 585.2hPa | 2.6V | 07:54:24 | 02:37:44 | 00:00:00 | |
| DO2SHX-10 | 2026-09-04 00:57:19 | 53.28928 | 9.76323 | 107° | 117km/h | 4494m | -5.8m/s | -4.4°C | 0% | 587.3hPa | 2.6V | 00:00:00 | 02:37:49 | 00:00:00 | |
| BIOWL9-15 | 2026-09-04 00:57:18 | 53.28936 | 9.76276 | 106° | 115km/h | 4500m | -5.7m/s | -4.4°C | 98.3% | 586.9hPa | 2.6V | 00:00:00 | 00:00:00 | 00:00:00 | |
| DM0DOS-11 | 2026-09-04 00:57:16 | 53.28962 | 9.76136 | 106° | 117km/h | 4515m | -5.7m/s | -4.5°C | 0% | 585.5hPa | 2.6V | 07:54:23 | 02:37:45 | 00:00:00 | |
| DF8AY | 2026-09-04 00:57:15 | 53.28970 | 9.76089 | 108° | 115km/h | 4522m | -7.3m/s | -4.6°C | 100% | 585.2hPa | 2.6V | 07:54:53 | 02:37:44 | 00:00:00 | |
| DL1XH-15 | 2026-09-04 00:57:14 | 53.28979 | 9.76042 | 107° | 117km/h | 4529m | -6.9m/s | -4.6°C | 0% | 584.7hPa | 2.6V | 07:54:25 | 02:37:43 | 00:00:00 | |
| AA1-15 | 2026-09-04 00:57:12 | 53.28988 | 9.75996 | 108° | 115km/h | 4535m | -6.5m/s | -4.7°C | 100% | 584.1hPa | 2.5V | 07:54:53 | 02:37:42 | 00:00:00 | |
| DB0DAN | 2026-09-04 00:57:10 | 53.29006 | 9.75903 | 108° | 111km/h | 4547m | -6.9m/s | -4.7°C | 98.3% | 583.26hPa | 2.6V | 00:00:00 | 00:00:00 | 00:00:00 | |
| DM0DOS-11 | 2026-09-04 00:57:10 | 53.29006 | 9.75903 | 107° | 115km/h | 4547m | -6.9m/s | -4.7°C | 0% | 583.2hPa | 2.6V | 07:54:28 | 02:37:40 | 00:00:00 | |
| DJ2DS-15 | 2026-09-04 00:57:10 | 53.29006 | 9.75903 | 108° | 113km/h | 4547m | -6.8m/s | -4.7°C | 0% | 583.2hPa | 2.6V | 00:00:00 | 02:37:40 | 00:00:00 | |
| DL1XH1-15 | 2026-09-04 00:57:09 | 53.29068 | 9.75581 | 108° | 111km/h | 4592m | -5.9m/s | -4.9°C | 0% | 580hPa | 2.6V | 07:54:35 | 02:37:33 | 00:00:00 | |
| DL1XH-15 | 2026-09-04 00:57:08 | 53.29023 | 9.75809 | 107° | 115km/h | 4560m | -6.7m/s | -4.8°C | 0% | 582.3hPa | 2.6V | 07:54:30 | 02:37:38 | 00:00:00 | |
| DL1XH-15 | 2026-09-04 00:57:08 | 53.29077 | 9.75536 | 108° | 113km/h | 4598m | -6.2m/s | -5°C | 0% | 579.6hPa | 2.5V | 07:54:36 | 02:37:32 | 00:00:00 | |
| BIOWL1-15 | 2026-09-04 00:57:07 | 53.29032 | 9.75763 | 108° | 115km/h | 4567m | -6.7m/s | -4.8°C | 100% | 581.9hPa | 2.5V | 07:54:53 | 02:37:37 | 00:00:00 | |
| DF8AY-15 | 2026-09-04 00:57:06 | 53.29041 | 9.75717 | 108° | 113km/h | 4574m | -6.6m/s | -4.8°C | 0% | 581.3hPa | 2.6V | 00:00:00 | 02:37:36 | 00:00:00 | |
| DM0DOS-11 | 2026-09-04 00:57:05 | 53.29095 | 9.75445 | 108° | 113km/h | 4610m | -6.1m/s | -5°C | 0% | 578.7hPa | 2.6V | 07:54:38 | 02:37:30 | 00:00:00 | |
| DF8AY | 2026-09-04 00:57:04 | 53.29059 | 9.75626 | 108° | 113km/h | 4586m | -6.4m/s | -4.9°C | 100% | 580.5hPa | 2.6V | 07:54:53 | 02:37:34 | 00:00:00 | |
| DL1XH1-15 | 2026-09-04 00:57:04 | 53.29104 | 9.75399 | 107° | 113km/h | 4616m | -6.6m/s | -5°C | 0% | 578.3hPa | 2.6V | 07:54:39 | 02:37:29 | 00:00:00 | |
| DL1XH-15 | 2026-09-04 00:57:03 | 53.29121 | 9.75307 | 107° | 113km/h | 4629m | -6.3m/s | -5.1°C | 0% | 577.3hPa | 2.5V | 07:54:41 | 02:37:27 | 00:00:00 | |
| DL1XH-west | 2026-09-04 00:57:01 | 53.29086 | 9.75490 | 108° | 113km/h | 4604m | -6.3m/s | -5°C | 99.8% | 579.1hPa | 2.5V | 07:54:53 | 02:37:31 | 00:00:00 | |
| DJ2DS-15 | 2026-09-04 00:57:00 | 53.29104 | 9.75399 | 107° | 113km/h | 4616m | -6.6m/s | -5.0°C | 98.1% | 578.3hPa | 2.5V | 00:00:00 | 00:00:00 | 00:00:00 | |
| DO2SHX-10 | 2026-09-04 00:56:59 | 53.29104 | 9.75399 | 108° | 113km/h | 4616m | -6.6m/s | -5.0°C | 0% | 578.3hPa | 2.5V | 00:00:00 | 02:37:29 | 00:00:00 | |
| DL1XH-15 | 2026-09-04 00:56:57 | 53.29163 | 9.75080 | 107° | 111km/h | 4658m | -6m/s | -5.2°C | 0% | 575.1hPa | 2.5V | 07:54:46 | 02:37:22 | 00:00:00 | |
| BIOWL1-15 | 2026-09-04 00:56:56 | 53.29130 | 9.75262 | 107° | 113km/h | 4634m | -5.5m/s | -5.1°C | 100% | 576.9hPa | 2.5V | 07:54:53 | 02:37:26 | 00:00:00 | |
| DB0DAN | 2026-09-04 00:56:55 | 53.29138 | 9.75216 | 107° | 108km/h | 4640m | -6m/s | -5.1°C | 98.8% | 576.56hPa | 2.6V | 00:00:00 | 00:00:00 | 00:00:00 | |
| DM0DOS-11 | 2026-09-04 00:56:55 | 53.29180 | 9.74990 | 106° | 111km/h | 4670m | -5.9m/s | -5.3°C | 0% | 574.3hPa | 2.6V | 07:54:48 | 02:37:20 | 00:00:00 | |
| DF8AY | 2026-09-04 00:56:54 | 53.29146 | 9.75170 | 108° | 113km/h | 4646m | -6.4m/s | -5.1°C | 100% | 576.1hPa | 2.6V | 07:54:53 | 02:37:24 | 00:00:00 | |
| DO2SHX-10 | 2026-09-04 00:56:53 | 53.29155 | 9.75125 | 108° | 111km/h | 4652m | -5.8m/s | -5.1°C | 0% | 575.6hPa | 2.6V | 00:00:00 | 02:37:23 | 00:00:00 | |
| DL1XH1-15 | 2026-09-04 00:56:52 | 53.29188 | 9.74945 | 106° | 111km/h | 4676m | -5.7m/s | -5.3°C | 0% | 573.9hPa | 2.6V | 07:54:49 | 02:37:19 | 00:00:00 | |
| DL1XH-15 | 2026-09-04 00:56:52 | 53.29205 | 9.74854 | 106° | 113km/h | 4688m | -5.6m/s | -5.3°C | 0% | 573hPa | 2.5V | 07:54:51 | 02:37:17 | 00:00:00 | |
| DL1XH-west | 2026-09-04 00:56:50 | 53.29180 | 9.74990 | 107° | 111km/h | 4670m | -5.9m/s | -5.3°C | 100% | 574.3hPa | 2.6V | 07:54:53 | 02:37:20 | 00:00:00 | |
| BIOWL9-15 | 2026-09-04 00:56:47 | 53.29205 | 9.74854 | 106° | 111km/h | 4688m | -5.6m/s | -5.3°C | 98.6% | 573.0hPa | 2.5V | 00:00:00 | 00:00:00 | 00:00:00 | |
| BIOWL1-15 | 2026-09-04 00:56:45 | 53.29251 | 9.74578 | 105° | 113km/h | 4725m | -6.6m/s | -5.5°C | 99.6% | 570.4hPa | 2.5V | 07:55:44 | 02:37:11 | 00:00:00 | |
| DL1XH-15 | 2026-09-04 00:56:45 | 53.29244 | 9.74624 | 105° | 113km/h | 4719m | -5.4m/s | -5.5°C | 0% | 570.7hPa | 2.5V | 07:54:56 | 02:37:12 | 00:00:00 | |
| DM0DOS-11 | 2026-09-04 00:56:45 | 53.29258 | 9.74532 | 104° | 111km/h | 4730m | -5.3m/s | -5.6°C | 0% | 569.9hPa | 2.6V | 07:54:58 | 02:37:10 | 00:00:00 | |
| DF8AY | 2026-09-04 00:56:44 | 53.29237 | 9.74670 | 105° | 113km/h | 4713m | -6.2m/s | -5.5°C | 99.9% | 571.2hPa | 2.6V | 07:55:44 | 02:37:13 | 00:00:00 | |
| AA1-15 | 2026-09-04 00:56:40 | 53.29259 | 9.74532 | 105° | 111km/h | 4730m | -5.4m/s | -5.6°C | 100% | 569.9hPa | 2.6V | 07:55:44 | 02:37:10 | 00:00:00 | |
| DB0DAN | 2026-09-04 00:56:40 | 53.29259 | 9.74532 | 105° | 106km/h | 4730m | -5.4m/s | -5.6°C | 98.9% | 569.89hPa | 2.6V | 00:00:00 | 00:00:00 | 00:00:00 | |
| DM0DOS-11 | 2026-09-04 00:56:40 | 53.29295 | 9.74302 | 105° | 113km/h | 4760m | -6.3m/s | -5.8°C | 0% | 567.8hPa | 2.6V | 07:55:03 | 02:37:05 | 00:00:00 | |
| DL1XH1-15 | 2026-09-04 00:56:39 | 53.29266 | 9.74486 | 105° | 113km/h | 4736m | -6m/s | -5.6°C | 0% | 569.5hPa | 2.6V | 07:54:59 | 02:37:09 | 00:00:00 | |
| DL1XH-west | 2026-09-04 00:56:39 | 53.29266 | 9.74486 | 105° | 113km/h | 4736m | -6.1m/s | -5.6°C | 100% | 569.5hPa | 2.6V | 07:55:44 | 02:37:09 | 00:00:00 | |
| DO2SHX-10 | 2026-09-04 00:56:38 | 53.29273 | 9.74440 | 105° | 113km/h | 4742m | -5.8m/s | -5.6°C | 0% | 569.0hPa | 2.5V | 00:00:00 | 02:37:08 | 00:00:00 | |
| DL1XH-15 | 2026-09-04 00:56:35 | 53.29318 | 9.74163 | 105° | 113km/h | 4779m | -7m/s | -5.9°C | 99.9% | 566.5hPa | 2.5V | 07:55:06 | 02:37:02 | 00:00:00 | |
| DM0DOS-11 | 2026-09-04 00:56:35 | 53.29333 | 9.74072 | 105° | 111km/h | 4792m | -6.4m/s | -5.9°C | 0% | 565.5hPa | 2.6V | 07:55:08 | 02:37:00 | 00:00:00 | |
| DF8AY | 2026-09-04 00:56:33 | 53.29310 | 9.74209 | 106° | 113km/h | 4772m | -6.8m/s | -5.8°C | 100% | 566.8hPa | 2.6V | 07:55:44 | 02:37:03 | 00:00:00 | |
| DL1XH1-15 | 2026-09-04 00:56:33 | 53.29341 | 9.74027 | 105° | 111km/h | 4798m | -6.6m/s | -6°C | 0% | 565hPa | 2.6V | 07:55:09 | 02:36:59 | 00:00:00 | |
| BIOWL1-15 | 2026-09-04 00:56:33 | 53.29349 | 9.73982 | 106° | 110km/h | 4804m | -6.4m/s | -6°C | 100% | 564.6hPa | 2.6V | 07:55:44 | 02:36:58 | 00:00:00 | |
| AA1-15 | 2026-09-04 00:56:31 | 53.29334 | 9.74072 | 106° | 111km/h | 4792m | -6.4m/s | -5.9°C | 100% | 565.5hPa | 2.6V | 07:55:44 | 02:37:00 | 00:00:00 | |
| DM0DOS-11 | 2026-09-04 00:56:30 | 53.29372 | 9.73849 | 106° | 110km/h | 4824m | -6.8m/s | -6.1°C | 0% | 563.3hPa | 2.6V | 07:55:13 | 02:36:55 | 00:00:00 | |
| DL1XH-west | 2026-09-04 00:56:29 | 53.29341 | 9.74027 | 106° | 111km/h | 4798m | -6.6m/s | -6°C | 100% | 565.1hPa | 2.6V | 07:55:44 | 02:36:59 | 00:00:00 | |
| DO2SHX-10 | 2026-09-04 00:56:29 | 53.29341 | 9.74027 | 106° | 110km/h | 4798m | -6.6m/s | -5.9°C | 0% | 565.0hPa | 2.6V | 00:00:00 | 02:36:59 | 00:00:00 | |
| DB0DAN | 2026-09-04 00:56:25 | 53.29372 | 9.73849 | 106° | 104km/h | 4824m | -6.8m/s | -6.1°C | 97.8% | 563.28hPa | 2.6V | 00:00:00 | 00:00:00 | 00:00:00 | |
| GOEST3-10 | 2026-09-04 00:56:25 | 53.29372 | 9.73849 | 107° | 110km/h | 4824m | -6.7m/s | -6.0°C | 0% | 563.2hPa | 2.6V | 00:00:00 | 00:00:00 | 00:00:00 | |
| DL1XH-15 | 2026-09-04 00:56:24 | 53.29395 | 9.73716 | 105° | 110km/h | 4843m | -5.3m/s | -6.1°C | 99.4% | 561.8hPa | 2.6V | 07:55:16 | 02:36:52 | 00:00:00 | |
| DJ2DS-15 | 2026-09-04 00:56:24 | 53.29387 | 9.73760 | 105° | 108km/h | 4837m | -5.5m/s | -6.1°C | 97.5% | 562.2hPa | 2.5V | 00:00:00 | 00:00:00 | 00:00:00 | |
| DL1XH1-15 | 2026-09-04 00:56:23 | 53.29416 | 9.73582 | 104° | 110km/h | 4861m | -6.4m/s | -6.2°C | 97.6% | 560.5hPa | 2.5V | 07:55:19 | 02:36:49 | 00:00:00 | |
| DF8AY | 2026-09-04 00:56:22 | 53.29394 | 9.73716 | 105° | 110km/h | 4843m | -5.4m/s | -6.1°C | 99.4% | 561.8hPa | 2.6V | 07:55:44 | 02:36:52 | 00:00:00 | |
| AA1-15 | 2026-09-04 00:56:19 | 53.29416 | 9.73581 | 105° | 110km/h | 4861m | -6.4m/s | -6.2°C | 97.9% | 560.5hPa | 2.5V | 07:55:44 | 02:36:49 | 00:00:00 | |
| DL1XH-15 | 2026-09-04 00:56:18 | 53.29431 | 9.73493 | 104° | 108km/h | 4875m | -7.4m/s | -6.3°C | 97.8% | 559.5hPa | 2.6V | 07:55:21 | 02:36:47 | 00:00:00 | |
| DL1XH-west | 2026-09-04 00:56:18 | 53.29423 | 9.73537 | 106° | 108km/h | 4868m | -7.1m/s | -6.3°C | 97.8% | 560hPa | 2.6V | 07:55:44 | 02:36:48 | 00:00:00 | |
| DL1XH1-15 | 2026-09-04 00:56:17 | 53.29452 | 9.73362 | 104° | 108km/h | 4895m | -7m/s | -6.4°C | 97.9% | 558.1hPa | 2.5V | 07:55:24 | 02:36:44 | 00:00:00 | |
| DF8AY | 2026-09-04 00:56:12 | 53.29465 | 9.73275 | 105° | 108km/h | 4908m | -5.8m/s | -6.5°C | 97.4% | 557.2hPa | 2.6V | 07:55:44 | 02:36:42 | 00:00:00 | |
| DB0DAN | 2026-09-04 00:56:10 | 53.29480 | 9.73187 | 106° | 102km/h | 4920m | -6.5m/s | -6.5°C | 96.1% | 556.4hPa | 2.6V | 00:00:00 | 00:00:00 | 00:00:00 | |
| DL1XH1-15 | 2026-09-04 00:56:09 | 53.29487 | 9.73143 | 105° | 110km/h | 4926m | -5.8m/s | -6.6°C | 98.4% | 555.9hPa | 2.5V | 07:55:29 | 02:36:39 | 00:00:00 | |
| AA1-15 | 2026-09-04 00:56:09 | 53.29487 | 9.73143 | 106° | 110km/h | 4926m | -5.8m/s | -6.6°C | 97.7% | 555.9hPa | 2.5V | 07:55:44 | 02:36:39 | 00:00:00 | |
| DL1XH-15 | 2026-09-04 00:56:08 | 53.29502 | 9.73056 | 106° | 108km/h | 4937m | -5.7m/s | -6.6°C | 98.5% | 555hPa | 2.5V | 07:55:31 | 02:36:37 | 00:00:00 | |
| DL1XH-west | 2026-09-04 00:56:08 | 53.29494 | 9.73099 | 106° | 108km/h | 4931m | -5.7m/s | -6.6°C | 97.8% | 555.5hPa | 2.5V | 07:55:44 | 02:36:38 | 00:00:00 | |
| BIOWL1-15 | 2026-09-04 00:56:07 | 53.29517 | 9.72968 | 105° | 108km/h | 4949m | -6.1m/s | -6.7°C | 98.6% | 554.2hPa | 2.6V | 07:55:44 | 02:36:35 | 00:00:00 | |
| DL4XJ-10 | 2026-09-04 00:56:07 | 53.29502 | 9.73056 | 107° | 108km/h | 4937m | -5.6m/s | -6.0°C | 0% | 0hPa | 2.5V | 00:00:00 | 00:00:00 | 00:00:00 | |
| DM0DOS-11 | 2026-09-04 00:56:05 | 53.29551 | 9.72748 | 104° | 108km/h | 4980m | -6.2m/s | -6.8°C | 98.3% | 552.1hPa | 2.5V | 07:55:38 | 02:36:30 | 00:00:00 | |
| DL1XH1-15 | 2026-09-04 00:56:04 | 53.29524 | 9.72924 | 105° | 106km/h | 4955m | -6.4m/s | -6.7°C | 98.5% | 553.9hPa | 2.6V | 07:55:34 | 02:36:34 | 00:00:00 | |
| DL1XH1-15 | 2026-09-04 00:56:04 | 53.29558 | 9.72704 | 104° | 108km/h | 4987m | -6.7m/s | -6.8°C | 98.3% | 551.6hPa | 2.6V | 07:55:39 | 02:36:29 | 00:00:00 | |
| DF8AY | 2026-09-04 00:56:01 | 53.29551 | 9.72748 | 105° | 108km/h | 4980m | -6.3m/s | -6.8°C | 98.8% | 552.1hPa | 2.5V | 07:55:44 | 02:36:30 | 00:00:00 | |
| SONCRA | 2026-09-04 00:56:00 | 53.29558 | 9.72704 | 104° | 108km/h | 4986m | -6.7m/s | -6.8°C | 96.0% | 551.6hPa | 2.5V | 00:00:00 | 00:00:00 | 00:00:00 | |
| DM0DOS-11 | 2026-09-04 00:55:59 | 53.29585 | 9.72528 | 104° | 106km/h | 5011m | -5.9m/s | -6.9°C | 99% | 549.8hPa | 2.5V | 07:55:43 | 02:36:25 | 00:00:00 | |
| DL1XH-15 | 2026-09-04 00:55:58 | 53.29572 | 9.72615 | 104° | 108km/h | 4999m | -6.4m/s | -6.9°C | 98.8% | 550.7hPa | 2.6V | 07:55:41 | 02:36:27 | 00:00:00 | |
| AA1-15 | 2026-09-04 00:55:58 | 53.29565 | 9.72659 | 104° | 108km/h | 4993m | -6.4m/s | -6.8°C | 99.2% | 551.2hPa | 2.6V | 07:55:44 | 02:36:28 | 00:00:00 | |
| BIOWL1-15 | 2026-09-04 00:55:57 | 53.29585 | 9.72527 | 105° | 106km/h | 5011m | -5.9m/s | -6.9°C | 98.7% | 549.9hPa | 2.5V | 07:55:44 | 02:36:25 | 00:00:00 | |
| DL1XH-west | 2026-09-04 00:55:57 | 53.29572 | 9.72615 | 105° | 108km/h | 4999m | -6.4m/s | -6.9°C | 99.1% | 550.7hPa | 2.6V | 07:55:44 | 02:36:27 | 00:00:00 | |
| DB0DAN | 2026-09-04 00:55:55 | 53.29585 | 9.72527 | 105° | 102km/h | 5011m | -5.9m/s | -6.9°C | 96.6% | 549.85hPa | 2.5V | 00:00:00 | 00:00:00 | 00:00:00 | |
| DF8AY | 2026-09-04 00:55:51 | 53.29619 | 9.72307 | 104° | 108km/h | 5039m | -6.2m/s | -7°C | 98.1% | 547.9hPa | 2.6V | 07:56:35 | 02:36:20 | 00:00:00 | |
| DJ2DS-15 | 2026-09-04 00:55:50 | 53.29619 | 9.72307 | 105° | 108km/h | 5039m | -6.1m/s | -7.0°C | 98.1% | 547.8hPa | 2.6V | 07:55:00 | 02:36:20 | 00:00:00 | |
| DM0DOS-11 | 2026-09-04 00:55:49 | 53.29651 | 9.72084 | 103° | 110km/h | 5070m | -7.1m/s | -7.2°C | 96.7% | 545.7hPa | 2.6V | 07:55:53 | 02:36:15 | 00:00:00 | |
| AA1-15 | 2026-09-04 00:55:48 | 53.29632 | 9.72218 | 104° | 108km/h | 5051m | -6.1m/s | -7.1°C | 97.8% | 547.1hPa | 2.5V | 07:56:35 | 02:36:18 | 00:00:00 | |
| DJ2DS-15 | 2026-09-04 00:55:48 | 53.29638 | 9.72174 | 103° | 108km/h | 5058m | -7.0m/s | -7.1°C | 95.1% | 546.6hPa | 2.6V | 00:00:00 | 00:00:00 | 00:00:00 | |
| BIOWL1-15 | 2026-09-04 00:55:47 | 53.29638 | 9.72174 | 104° | 108km/h | 5058m | -7m/s | -7.1°C | 97.7% | 546.6hPa | 2.5V | 07:56:35 | 02:36:17 | 00:00:00 | |
| DL1XH1-15 | 2026-09-04 00:55:47 | 53.29657 | 9.72039 | 102° | 110km/h | 5077m | -6.5m/s | -7.2°C | 96.8% | 545.3hPa | 2.6V | 07:55:54 | 02:36:14 | 00:00:00 | |
| DL1XH-west | 2026-09-04 00:55:46 | 53.29645 | 9.72129 | 103° | 110km/h | 5064m | -5.7m/s | -7.2°C | 97.3% | 546.1hPa | 2.5V | 07:56:35 | 02:36:16 | 00:00:00 | |
| DL4BBY-15 | 2026-09-04 00:55:46 | 53.29645 | 9.72129 | 104° | 108km/h | 5064m | -5.6m/s | -6.5°C | 0% | 0hPa | 2.5V | 00:00:00 | 00:00:00 | 00:00:00 | |
| GOEST3-10 | 2026-09-04 00:55:45 | 53.29651 | 9.72084 | 104° | 110km/h | 5070m | -7.1m/s | -7.1°C | 96.7% | 545.7hPa | 2.5V | 00:00:00 | 00:00:00 | 00:00:00 | |
| DO2SHX-10 | 2026-09-04 00:55:44 | 53.29657 | 9.72039 | 103° | 110km/h | 5077m | -6.5m/s | -7.2°C | 96.8% | 545.2hPa | 2.5V | 00:00:00 | 02:36:14 | 00:00:00 | |
| DL1XH-15 | 2026-09-04 00:55:43 | 53.29681 | 9.71857 | 102° | 110km/h | 5103m | -6.7m/s | -7.3°C | 97% | 543.5hPa | 2.5V | 07:55:58 | 02:36:10 | 00:00:00 | |
| DB0DAN | 2026-09-04 00:55:40 | 53.29681 | 9.71857 | 102° | 104km/h | 5103m | -6.7m/s | -7.3°C | 94.6% | 543.51hPa | 2.5V | 00:00:00 | 00:00:00 | 00:00:00 | |
| DF8AY | 2026-09-04 00:55:40 | 53.29687 | 9.71812 | 102° | 108km/h | 5109m | -6m/s | -7.4°C | 96.9% | 543hPa | 2.5V | 07:56:35 | 02:36:09 | 00:00:00 | |
| AA1-15 | 2026-09-04 00:55:37 | 53.29698 | 9.71722 | 102° | 110km/h | 5122m | -6.8m/s | -7.4°C | 96.1% | 542.2hPa | 2.6V | 07:56:35 | 02:36:07 | 00:00:00 | |
| BIOWL1-15 | 2026-09-04 00:55:36 | 53.29704 | 9.71677 | 102° | 108km/h | 5128m | -6.6m/s | -7.5°C | 96% | 541.7hPa | 2.6V | 07:56:35 | 02:36:06 | 00:00:00 | |
| DM0DOS-11 | 2026-09-04 00:55:36 | 53.29709 | 9.71633 | 101° | 106km/h | 5135m | -6.2m/s | -7.5°C | 95.8% | 541.2hPa | 2.5V | 07:56:03 | 02:36:05 | 00:00:00 | |
| DL1XH1-15 | 2026-09-04 00:55:36 | 53.29715 | 9.71589 | 101° | 108km/h | 5141m | -6.5m/s | -7.5°C | 95.9% | 540.8hPa | 2.5V | 07:56:04 | 02:36:04 | 00:00:00 | |
| DL1XH-west | 2026-09-04 00:55:35 | 53.29709 | 9.71633 | 102° | 106km/h | 5135m | -6.2m/s | -7.5°C | 95.9% | 541.3hPa | 2.5V | 07:56:35 | 02:36:05 | 00:00:00 | |
| DO2SHX-10 | 2026-09-04 00:55:35 | 53.29709 | 9.71633 | 102° | 108km/h | 5135m | -6.1m/s | -7.5°C | 95.8% | 541.2hPa | 2.5V | 00:00:00 | 02:36:05 | 00:00:00 | |
| DF8AY-15 | 2026-09-04 00:55:34 | 53.29715 | 9.71589 | 102° | 108km/h | 5141m | -6.4m/s | -7.5°C | 95.9% | 540.7hPa | 2.5V | 00:00:00 | 02:36:04 | 00:00:00 | |
| DL1CLM-18 | 2026-09-04 00:55:33 | 53.29715 | 9.71589 | 103° | 108km/h | 5141m | -6.5m/s | -7.5°C | 93.5% | 540.8hPa | 2.6V | 00:00:00 | 00:00:00 | 00:00:00 | |
| DO2SHX-10 | 2026-09-04 00:55:32 | 53.29725 | 9.71499 | 102° | 108km/h | 5154m | -6.4m/s | -7.6°C | 96.0% | 539.9hPa | 2.6V | 07:56:00 | 02:36:02 | 00:00:00 | |
| DJ2DS-15 | 2026-09-04 00:55:30 | 53.29736 | 9.71409 | 101° | 106km/h | 5166m | -6.1m/s | -7.6°C | 95.7% | 538.9hPa | 2.5V | 00:00:00 | 02:36:00 | 00:00:00 | |
| DL1XH1-15 | 2026-09-04 00:55:29 | 53.29763 | 9.71137 | 99° | 108km/h | 5204m | -6.4m/s | -7.9°C | 96.4% | 536.3hPa | 2.5V | 07:56:14 | 02:35:54 | 00:00:00 | |
| DF8AY | 2026-09-04 00:55:28 | 53.29750 | 9.71272 | 100° | 111km/h | 5186m | -6.5m/s | -7.8°C | 95.7% | 537.6hPa | 2.6V | 07:56:35 | 02:35:57 | 00:00:00 | |
| AA1-15 | 2026-09-04 00:55:26 | 53.29754 | 9.71227 | 99° | 110km/h | 5192m | -6.6m/s | -7.8°C | 95.6% | 537.2hPa | 2.6V | 07:56:35 | 02:35:56 | 00:00:00 | |
| DM0DOS-11 | 2026-09-04 00:55:26 | 53.29759 | 9.71181 | 99° | 108km/h | 5198m | -5.6m/s | -7.8°C | 96.4% | 536.7hPa | 2.5V | 07:56:13 | 02:35:55 | 00:00:00 | |
| DB0DAN | 2026-09-04 00:55:25 | 53.29759 | 9.71181 | 100° | 102km/h | 5198m | -5.6m/s | -7.9°C | 94% | 536.73hPa | 2.5V | 00:00:00 | 00:00:00 | 00:00:00 | |
| DL1XH-west | 2026-09-04 00:55:24 | 53.29764 | 9.71137 | 100° | 108km/h | 5204m | -6.4m/s | -7.9°C | 96.2% | 536.3hPa | 2.5V | 07:56:35 | 02:35:54 | 00:00:00 | |
| DO2SHX-10 | 2026-09-04 00:55:23 | 53.29768 | 9.71092 | 101° | 106km/h | 5211m | -7.2m/s | -7.9°C | 96.6% | 535.8hPa | 2.5V | 00:00:00 | 02:35:53 | 00:00:00 | |
| DM0DOS-11 | 2026-09-04 00:55:20 | 53.29805 | 9.70740 | 100° | 104km/h | 5264m | -5.8m/s | -8.2°C | 97.8% | 532.3hPa | 2.6V | 07:56:23 | 02:35:45 | 00:00:00 | |
| DF8AY | 2026-09-04 00:55:17 | 53.29796 | 9.70828 | 99° | 106km/h | 5250m | -7.7m/s | -8.1°C | 97.1% | 533.2hPa | 2.5V | 07:56:35 | 02:35:47 | 00:00:00 | |
| DL1XH1-15 | 2026-09-04 00:55:17 | 53.29809 | 9.70697 | 100° | 106km/h | 5270m | -6.5m/s | -8.2°C | 97.9% | 531.8hPa | 2.6V | 07:56:24 | 02:35:44 | 00:00:00 | |
| BIOWL1-15 | 2026-09-04 00:55:15 | 53.29818 | 9.70609 | 100° | 106km/h | 5282m | -5.3m/s | -8.3°C | 96.3% | 531hPa | 2.5V | 07:56:35 | 02:35:42 | 00:00:00 | |
| AA1-15 | 2026-09-04 00:55:15 | 53.29804 | 9.70740 | 100° | 104km/h | 5264m | -5.9m/s | -8.2°C | 96% | 532.3hPa | 2.6V | 07:56:35 | 02:35:45 | 00:00:00 | |
| DL1XH-west | 2026-09-04 00:55:14 | 53.29809 | 9.70697 | 100° | 106km/h | 5270m | -6.6m/s | -8.2°C | 95.9% | 531.8hPa | 2.6V | 07:56:35 | 02:35:44 | 00:00:00 | |
| BIOWL9-15 | 2026-09-04 00:55:14 | 53.29814 | 9.70653 | 99° | 104km/h | 5276m | -6.2m/s | -8.3°C | 95.8% | 531.4hPa | 2.6V | 00:00:00 | 00:00:00 | 00:00:00 | |
| DB0DAN | 2026-09-04 00:55:10 | 53.29828 | 9.70521 | 101° | 100km/h | 5294m | -7.7m/s | -8.4°C | 96.3% | 530.25hPa | 2.6V | 00:00:00 | 00:00:00 | 00:00:00 | |
| DJ2DS-15 | 2026-09-04 00:55:10 | 53.29828 | 9.70521 | 102° | 110km/h | 5294m | -7.6m/s | -8.4°C | 0% | 530.2hPa | 2.6V | 00:00:00 | 02:35:40 | 00:00:00 | |
| DM0DOS-11 | 2026-09-04 00:55:09 | 53.29854 | 9.70298 | 100° | 110km/h | 5329m | -6.8m/s | -8.6°C | 0% | 527.9hPa | 2.5V | 07:56:33 | 02:35:35 | 00:00:00 | |
| DO2SHX-10 | 2026-09-04 00:55:08 | 53.29839 | 9.70432 | 101° | 108km/h | 5309m | -7.9m/s | -8.4°C | 0% | 529.3hPa | 2.6V | 07:56:00 | 02:35:38 | 00:00:00 | |
| DL1XH1-15 | 2026-09-04 00:55:07 | 53.29860 | 9.70252 | 100° | 110km/h | 5336m | -6.7m/s | -8.6°C | 0% | 527.4hPa | 2.6V | 07:56:34 | 02:35:34 | 00:00:00 | |
| DF8AY | 2026-09-04 00:55:06 | 53.29849 | 9.70343 | 101° | 108km/h | 5322m | -6.8m/s | -8.6°C | 98.8% | 528.3hPa | 2.5V | 07:56:35 | 02:35:36 | 00:00:00 | |
| BIOWL1-15 | 2026-09-04 00:55:05 | 53.29854 | 9.70298 | 101° | 110km/h | 5329m | -6.9m/s | -8.6°C | 99.5% | 527.9hPa | 2.5V | 07:56:35 | 02:35:35 | 00:00:00 | |
| AA1-15 | 2026-09-04 00:55:04 | 53.29859 | 9.70252 | 101° | 110km/h | 5336m | -6.7m/s | -8.6°C | 100% | 527.4hPa | 2.6V | 07:56:35 | 02:35:34 | 00:00:00 | |
| DL1XH-west | 2026-09-04 00:55:03 | 53.29865 | 9.70207 | 101° | 108km/h | 5342m | -6.7m/s | -8.6°C | 100% | 526.9hPa | 2.6V | 07:56:35 | 02:35:33 | 00:00:00 | |
| SONCRA | 2026-09-04 00:54:58 | 53.29899 | 9.69939 | 101° | 108km/h | 5380m | -6.2m/s | -8.8°C | 97.2% | 524.3hPa | 2.5V | 00:00:00 | 00:00:00 | 00:00:00 | |
| DL1XH1-15 | 2026-09-04 00:54:57 | 53.29916 | 9.69803 | 101° | 111km/h | 5400m | -6.6m/s | -8.8°C | 97.5% | 523hPa | 2.5V | 07:56:44 | 02:35:24 | 00:00:00 | |
| DM0DOS-11 | 2026-09-04 00:54:56 | 53.29910 | 9.69849 | 101° | 111km/h | 5393m | -7.2m/s | -8.8°C | 98.3% | 523.5hPa | 2.5V | 07:56:43 | 02:35:25 | 00:00:00 | |
| DF8AY | 2026-09-04 00:54:56 | 53.29910 | 9.69849 | 101° | 111km/h | 5393m | -7.2m/s | -8.9°C | 98.3% | 523.5hPa | 2.5V | 07:57:26 | 02:35:25 | 00:00:00 | |
| DB0DAN | 2026-09-04 00:54:55 | 53.29910 | 9.69849 | 101° | 106km/h | 5393m | -7.2m/s | -8.9°C | 95.7% | 523.5hPa | 2.5V | 00:00:00 | 00:00:00 | 00:00:00 | |
| AA1-15 | 2026-09-04 00:54:54 | 53.29916 | 9.69803 | 102° | 111km/h | 5400m | -6.6m/s | -8.8°C | 97.7% | 523hPa | 2.5V | 07:57:26 | 02:35:24 | 00:00:00 | |
| DF8AY-15 | 2026-09-04 00:54:54 | 53.29916 | 9.69803 | 102° | 111km/h | 5400m | -6.6m/s | -8.8°C | 97.5% | 523.0hPa | 2.5V | 00:00:00 | 02:35:24 | 00:00:00 | |
| DL1XH-15 | 2026-09-04 00:54:53 | 53.29940 | 9.69618 | 102° | 113km/h | 5427m | -7m/s | -9°C | 97.5% | 521.2hPa | 2.5V | 07:56:48 | 02:35:20 | 00:00:00 | |
| DL1XH-west | 2026-09-04 00:54:53 | 53.29921 | 9.69757 | 102° | 111km/h | 5407m | -6.8m/s | -8.8°C | 97.9% | 522.5hPa | 2.6V | 07:57:26 | 02:35:23 | 00:00:00 | |
| DO2SHX-10 | 2026-09-04 00:54:53 | 53.29921 | 9.69757 | 103° | 111km/h | 5407m | -6.7m/s | -8.8°C | 97.7% | 522.4hPa | 2.5V | 00:00:00 | 02:35:23 | 00:00:00 | |
| GOEST3-10 | 2026-09-04 00:54:52 | 53.29927 | 9.69711 | 103° | 111km/h | 5414m | -6.9m/s | -8.8°C | 97.7% | 522.0hPa | 2.5V | 00:00:00 | 00:00:00 | 00:00:00 | |
| DM0DOS-11 | 2026-09-04 00:54:50 | 53.29971 | 9.69392 | 103° | 110km/h | 5459m | -6.2m/s | -9.1°C | 97.7% | 518.9hPa | 2.5V | 07:56:53 | 02:35:15 | 00:00:00 | |
| DF8AY | 2026-09-04 00:54:45 | 53.29971 | 9.69392 | 104° | 110km/h | 5459m | -6.2m/s | -9.1°C | 97.2% | 518.9hPa | 2.5V | 07:57:26 | 02:35:15 | 00:00:00 | |
| DO2SHX-10 | 2026-09-04 00:54:44 | 53.29978 | 9.69347 | 105° | 110km/h | 5465m | -5.6m/s | -9.1°C | 97.7% | 518.5hPa | 2.6V | 07:56:00 | 02:35:14 | 00:00:00 | |
| DL1XH-15 | 2026-09-04 00:54:43 | 53.30006 | 9.69168 | 104° | 111km/h | 5491m | -7m/s | -9.2°C | 96.9% | 516.9hPa | 2.6V | 07:56:58 | 02:35:10 | 00:00:00 | |
| AA1-15 | 2026-09-04 00:54:43 | 53.29985 | 9.69303 | 105° | 110km/h | 5471m | -7.2m/s | -9.2°C | 97% | 518.2hPa | 2.5V | 07:57:26 | 02:35:13 | 00:00:00 | |
| DL1XH-west | 2026-09-04 00:54:42 | 53.29992 | 9.69258 | 105° | 110km/h | 5478m | -6.7m/s | -9.2°C | 97.2% | 517.7hPa | 2.6V | 07:57:26 | 02:35:12 | 00:00:00 | |
| DB0DAN | 2026-09-04 00:54:40 | 53.30006 | 9.69168 | 105° | 106km/h | 5491m | -7m/s | -9.2°C | 94.3% | 516.9hPa | 2.6V | 00:00:00 | 00:00:00 | 00:00:00 | |
| DO2SHX-10 | 2026-09-04 00:54:38 | 53.30021 | 9.69077 | 105° | 111km/h | 5504m | -6.4m/s | -9.3°C | 96.9% | 515.9hPa | 2.5V | 00:00:00 | 02:35:08 | 00:00:00 | |
| DL1XH1-15 | 2026-09-04 00:54:37 | 53.30049 | 9.68894 | 103° | 111km/h | 5528m | -6m/s | -9.5°C | 97.1% | 514.4hPa | 2.5V | 07:57:04 | 02:35:04 | 00:00:00 | |
| DF8AY | 2026-09-04 00:54:34 | 53.30049 | 9.68894 | 104° | 111km/h | 5528m | -6m/s | -9.5°C | 96.3% | 514.4hPa | 2.5V | 07:57:26 | 02:35:04 | 00:00:00 | |
| DF8AY-15 | 2026-09-04 00:54:34 | 53.30049 | 9.68894 | 104° | 111km/h | 5528m | -6.0m/s | -9.5°C | 97.1% | 514.3hPa | 2.5V | 07:57:00 | 02:35:04 | 00:00:00 | |
| DL1XH-15 | 2026-09-04 00:54:33 | 53.30076 | 9.68713 | 103° | 111km/h | 5552m | -5.9m/s | -9.6°C | 97% | 512.7hPa | 2.5V | 07:57:08 | 02:35:00 | 00:00:00 | |
| AA1-15 | 2026-09-04 00:54:33 | 53.30056 | 9.68848 | 104° | 111km/h | 5534m | -7.1m/s | -9.5°C | 96.2% | 514hPa | 2.6V | 07:57:26 | 02:35:03 | 00:00:00 | |
| BIOWL1-15 | 2026-09-04 00:54:32 | 53.30083 | 9.68667 | 104° | 111km/h | 5559m | -6.8m/s | -9.7°C | 96.3% | 512.4hPa | 2.5V | 07:57:26 | 02:34:59 | 00:00:00 | |
| DL1XH-west | 2026-09-04 00:54:31 | 53.30070 | 9.68758 | 104° | 110km/h | 5546m | -6.2m/s | -9.6°C | 96.2% | 513.1hPa | 2.6V | 07:57:26 | 02:35:01 | 00:00:00 | |
| DL1CLM-18 | 2026-09-04 00:54:30 | 53.30076 | 9.68713 | 105° | 111km/h | 5553m | -5.9m/s | -9.6°C | 94.4% | 512.7hPa | 2.6V | 00:00:00 | 00:00:00 | 00:00:00 | |
| DM0DOS-11 | 2026-09-04 00:54:29 | 53.30110 | 9.68481 | 104° | 113km/h | 5585m | -6.5m/s | -9.8°C | 97% | 510.6hPa | 2.6V | 07:57:13 | 02:34:55 | 00:00:00 | |
| DO2SHX-10 | 2026-09-04 00:54:29 | 53.30083 | 9.68667 | 104° | 113km/h | 5559m | -6.8m/s | -9.6°C | 96.6% | 512.4hPa | 2.5V | 00:00:00 | 02:34:59 | 00:00:00 | |
| DB0DAN | 2026-09-04 00:54:25 | 53.30110 | 9.68481 | 104° | 108km/h | 5585m | -6.5m/s | -9.8°C | 94.3% | 510.64hPa | 2.6V | 00:00:00 | 00:00:00 | 00:00:00 | |
| DF8AY | 2026-09-04 00:54:24 | 53.30117 | 9.68435 | 104° | 115km/h | 5591m | -6.3m/s | -9.8°C | 96.4% | 510.2hPa | 2.5V | 07:57:26 | 02:34:54 | 00:00:00 | |
| DL1XH-15 | 2026-09-04 00:54:23 | 53.30145 | 9.68250 | 104° | 111km/h | 5618m | -6.2m/s | -9.9°C | 96.2% | 508.5hPa | 2.5V | 07:57:18 | 02:34:50 | 00:00:00 | |
| AA1-15 | 2026-09-04 00:54:23 | 53.30124 | 9.68388 | 105° | 113km/h | 5597m | -6.1m/s | -9.8°C | 96.7% | 509.8hPa | 2.5V | 07:57:26 | 02:34:53 | 00:00:00 | |
| BIOWL1-15 | 2026-09-04 00:54:20 | 53.30167 | 9.68115 | 105° | 110km/h | 5638m | -7.6m/s | -10°C | 96.1% | 507.1hPa | 2.6V | 07:57:26 | 02:34:47 | 00:00:00 | |
| DL1XH-west | 2026-09-04 00:54:20 | 53.30145 | 9.68250 | 105° | 111km/h | 5618m | -6.2m/s | -9.9°C | 96.3% | 508.5hPa | 2.5V | 07:57:26 | 02:34:50 | 00:00:00 | |
| DO2SHX-10 | 2026-09-04 00:54:20 | 53.30145 | 9.68250 | 105° | 111km/h | 5618m | -6.1m/s | -9.9°C | 96.2% | 508.4hPa | 2.5V | 07:57:00 | 02:34:50 | 00:00:00 | |
| DL1XH1-15 | 2026-09-04 00:54:18 | 53.30189 | 9.67980 | 105° | 110km/h | 5660m | -6.9m/s | -10.2°C | 93.9% | 505.8hPa | 2.5V | 07:57:24 | 02:34:44 | 00:00:00 | |
| DM0DOS-11 | 2026-09-04 00:54:16 | 53.30182 | 9.68025 | 105° | 111km/h | 5653m | -7.1m/s | -10.1°C | 94.1% | 506.2hPa | 2.5V | 07:57:23 | 02:34:45 | 00:00:00 | |
| DF8AY | 2026-09-04 00:54:13 | 53.30233 | 9.67709 | 105° | 110km/h | 5696m | -6.9m/s | -10.4°C | 93% | 503.3hPa | 2.5V | 07:58:17 | 02:34:38 | 00:00:00 | |
| DL1XH-15 | 2026-09-04 00:54:12 | 53.30219 | 9.67799 | 105° | 110km/h | 5685m | -6.5m/s | -10.3°C | 92.7% | 504hPa | 2.6V | 07:57:28 | 02:34:40 | 00:00:00 | |
| AA1-15 | 2026-09-04 00:54:12 | 53.30204 | 9.67890 | 106° | 111km/h | 5673m | -6.1m/s | -10.2°C | 93.8% | 504.9hPa | 2.6V | 07:57:26 | 02:34:42 | 00:00:00 | |
| DB0DAN | 2026-09-04 00:54:10 | 53.30219 | 9.67799 | 105° | 104km/h | 5685m | -6.5m/s | -10.3°C | 90.1% | 504.02hPa | 2.6V | 00:00:00 | 00:00:00 | 00:00:00 | |
| DJ2DS-15 | 2026-09-04 00:54:10 | 53.30219 | 9.67799 | 106° | 110km/h | 5685m | -6.4m/s | -10.2°C | 92.7% | 504.0hPa | 2.6V | 00:00:00 | 02:34:40 | 00:00:00 | |
| DL1XH1-15 | 2026-09-04 00:54:09 | 53.30262 | 9.67532 | 105° | 108km/h | 5723m | -6.1m/s | -10.5°C | 92% | 501.6hPa | 2.6V | 07:57:34 | 02:34:34 | 00:00:00 | |
| DL1XH-west | 2026-09-04 00:54:09 | 53.30226 | 9.67754 | 105° | 111km/h | 5691m | -5.7m/s | -10.3°C | 93% | 503.6hPa | 2.5V | 07:58:17 | 02:34:39 | 00:00:00 | |
| BIOWL1-15 | 2026-09-04 00:54:06 | 53.30262 | 9.67532 | 105° | 108km/h | 5723m | -6.1m/s | -10.5°C | 92.5% | 501.6hPa | 2.6V | 07:58:17 | 02:34:34 | 00:00:00 | |
| AA1-15 | 2026-09-04 00:54:02 | 53.30276 | 9.67443 | 104° | 108km/h | 5735m | -6.3m/s | -10.6°C | 92% | 500.7hPa | 2.5V | 07:58:17 | 02:34:32 | 00:00:00 | |
| DO2SHX-10 | 2026-09-04 00:54:02 | 53.30276 | 9.67443 | 105° | 110km/h | 5735m | -6.3m/s | -10.6°C | 91.9% | 500.7hPa | 2.5V | 00:00:00 | 02:34:32 | 00:00:00 | |
| GOEST3-10 | 2026-09-04 00:54:01 | 53.30282 | 9.67398 | 105° | 110km/h | 5741m | -5.5m/s | -10.6°C | 92.1% | 500.2hPa | 2.6V | 00:00:00 | 00:00:00 | 00:00:00 | |
| DL1XH1-15 | 2026-09-04 00:53:59 | 53.30335 | 9.67087 | 106° | 110km/h | 5788m | -7.9m/s | -10.9°C | 90.6% | 497.3hPa | 2.5V | 07:57:44 | 02:34:24 | 00:00:00 | |
| DL1XH-west | 2026-09-04 00:53:58 | 53.30304 | 9.67265 | 106° | 110km/h | 5760m | -6.5m/s | -10.8°C | 91.5% | 499.1hPa | 2.5V | 07:58:17 | 02:34:28 | 00:00:00 | |
| DF8AY | 2026-09-04 00:53:58 | 53.30312 | 9.67220 | 106° | 110km/h | 5766m | -6.7m/s | -10.8°C | 91.2% | 498.7hPa | 2.6V | 07:58:17 | 02:34:27 | 00:00:00 | |
| SONCRA | 2026-09-04 00:53:56 | 53.30327 | 9.67131 | 106° | 108km/h | 5779m | -8.1m/s | -10.9°C | 87.9% | 497.8hPa | 2.5V | 00:00:00 | 00:00:00 | 00:00:00 | |
| DB0DAN | 2026-09-04 00:53:55 | 53.30327 | 9.67131 | 106° | 104km/h | 5780m | -8.1m/s | -10.9°C | 87.9% | 497.83hPa | 2.5V | 00:00:00 | 00:00:00 | 00:00:00 | |
| BIOWL1-15 | 2026-09-04 00:53:53 | 53.30367 | 9.66911 | 108° | 110km/h | 5813m | -6.9m/s | -11°C | 91.1% | 495.6hPa | 2.5V | 07:58:17 | 02:34:20 | 00:00:00 | |
| DO2SHX-10 | 2026-09-04 00:53:53 | 53.30342 | 9.67043 | 107° | 110km/h | 5795m | -6.8m/s | -10.9°C | 90.6% | 496.8hPa | 2.6V | 00:00:00 | 02:34:23 | 00:00:00 | |
| DL1XH-15 | 2026-09-04 00:53:52 | 53.30367 | 9.66911 | 107° | 110km/h | 5813m | -6.9m/s | -11°C | 90.9% | 495.6hPa | 2.5V | 07:57:48 | 02:34:20 | 00:00:00 | |
| DF8AY | 2026-09-04 00:53:51 | 53.30409 | 9.66688 | 108° | 111km/h | 5846m | -7.5m/s | -11.2°C | 90.2% | 493.5hPa | 2.6V | 07:58:17 | 02:34:15 | 00:00:00 | |
| AA1-15 | 2026-09-04 00:53:51 | 53.30359 | 9.66955 | 107° | 110km/h | 5807m | -5.6m/s | -11°C | 91.1% | 496hPa | 2.6V | 07:58:17 | 02:34:21 | 00:00:00 | |
| GOEST3-10 | 2026-09-04 00:53:51 | 53.30358 | 9.66955 | 107° | 110km/h | 5807m | -5.5m/s | -11.0°C | 90.9% | 495.9hPa | 2.5V | 07:57:00 | 00:00:00 | 00:00:00 | |
| DJ2DS-15 | 2026-09-04 00:53:50 | 53.30367 | 9.66911 | 108° | 110km/h | 5813m | -6.9m/s | -11.0°C | 90.9% | 495.6hPa | 2.5V | 00:00:00 | 02:34:20 | 00:00:00 | |
| DL1XH1-15 | 2026-09-04 00:53:49 | 53.30418 | 9.66644 | 107° | 111km/h | 5853m | -7.1m/s | -11.2°C | 90.7% | 493.1hPa | 2.5V | 07:57:54 | 02:34:14 | 00:00:00 | |
| DL1XH-west | 2026-09-04 00:53:48 | 53.30384 | 9.66823 | 108° | 110km/h | 5827m | -6.8m/s | -11.1°C | 90.3% | 494.7hPa | 2.5V | 07:58:17 | 02:34:18 | 00:00:00 | |
| AA1-15 | 2026-09-04 00:53:40 | 53.30449 | 9.66466 | 107° | 111km/h | 5878m | -6.1m/s | -11.3°C | 90% | 491.4hPa | 2.6V | 07:58:17 | 02:34:10 | 00:00:00 | |
| DB0DAN | 2026-09-04 00:53:40 | 53.30449 | 9.66466 | 107° | 106km/h | 5878m | -6.1m/s | -11.3°C | 88.5% | 491.4hPa | 2.6V | 00:00:00 | 00:00:00 | 00:00:00 | |
| DL1XH-west | 2026-09-04 00:53:37 | 53.30473 | 9.66332 | 107° | 111km/h | 5899m | -8.6m/s | -11.4°C | 91.5% | 490.2hPa | 2.5V | 07:58:17 | 02:34:07 | 00:00:00 | |
| DF8AY | 2026-09-04 00:53:36 | 53.30481 | 9.66288 | 107° | 108km/h | 5908m | -9.6m/s | -11.5°C | 91.6% | 489.7hPa | 2.5V | 07:58:17 | 02:34:06 | 00:00:00 | |
| DM0DOS-11 | 2026-09-04 00:53:36 | 53.30489 | 9.66243 | 106° | 110km/h | 5917m | -10.4m/s | -11.5°C | 90.5% | 489.1hPa | 2.6V | 07:58:03 | 02:34:05 | 00:00:00 | |
| GOEST3-10 | 2026-09-04 00:53:36 | 53.30481 | 9.66288 | 108° | 110km/h | 5908m | -9.5m/s | -11.4°C | 90.7% | 489.6hPa | 2.6V | 00:00:00 | 02:34:06 | 00:00:00 | |
| DO2SHX-10 | 2026-09-04 00:53:35 | 53.30489 | 9.66243 | 107° | 110km/h | 5917m | -10.3m/s | -11.5°C | 90.5% | 489.1hPa | 2.6V | 00:00:00 | 02:34:05 | 00:00:00 | |
| DF8AY-15 | 2026-09-04 00:53:34 | 53.30497 | 9.66199 | 109° | 111km/h | 5927m | -10.5m/s | -11.6°C | 90.6% | 488.4hPa | 2.6V | 00:00:00 | 02:34:04 | 00:00:00 | |
| AP2371 | 2026-09-04 00:53:33 | 53.30497 | 9.66199 | 109° | 108km/h | 5927m | -10.6m/s | -11.6°C | 87.9% | 488.5hPa | 2.5V | 00:00:00 | 00:00:00 | 00:00:00 | |
| DL1XH-15 | 2026-09-04 00:53:32 | 53.30531 | 9.66023 | 107° | 108km/h | 5963m | -7m/s | -11.9°C | 91.6% | 486.2hPa | 2.5V | 07:58:08 | 02:34:00 | 00:00:00 | |
| AA1-15 | 2026-09-04 00:53:30 | 53.30531 | 9.66023 | 107° | 108km/h | 5963m | -7m/s | -11.9°C | 90.8% | 486.2hPa | 2.5V | 07:58:17 | 02:34:00 | 00:00:00 | |
| BIOWL1-15 | 2026-09-04 00:53:30 | 53.30596 | 9.65667 | 106° | 113km/h | 6028m | -7.1m/s | -12.2°C | 92% | 482.1hPa | 2.6V | 07:58:17 | 02:33:52 | 00:00:00 | |
| DL1XH1-15 | 2026-09-04 00:53:29 | 53.30579 | 9.65758 | 106° | 111km/h | 6013m | -9.1m/s | -12.1°C | 92.7% | 483.2hPa | 2.5V | 07:58:14 | 02:33:54 | 00:00:00 | |
| DL1XH-west | 2026-09-04 00:53:27 | 53.30555 | 9.65891 | 107° | 108km/h | 5987m | -9.6m/s | -12°C | 91.8% | 484.7hPa | 2.6V | 07:58:17 | 02:33:57 | 00:00:00 | |
| DM0DOS-11 | 2026-09-04 00:53:26 | 53.30571 | 9.65803 | 106° | 110km/h | 6004m | -8.7m/s | -12.1°C | 92.4% | 483.6hPa | 2.5V | 07:58:13 | 02:33:55 | 00:00:00 | |
| DB0DAN | 2026-09-04 00:53:25 | 53.30571 | 9.65803 | 107° | 104km/h | 6004m | -8.7m/s | -12.1°C | 89.6% | 483.61hPa | 2.5V | 00:00:00 | 00:00:00 | 00:00:00 | |
| DF8AY | 2026-09-04 00:53:25 | 53.30571 | 9.65803 | 107° | 110km/h | 6004m | -8.7m/s | -12.1°C | 92.1% | 483.6hPa | 2.5V | 07:58:17 | 02:33:55 | 00:00:00 | |
| SONCRA | 2026-09-04 00:53:25 | 53.30579 | 9.65758 | 106° | 111km/h | 6013m | -9.1m/s | -12.1°C | 89.8% | 483.2hPa | 2.5V | 00:00:00 | 00:00:00 | 00:00:00 | |
| DO2SHX-10 | 2026-09-04 00:53:23 | 53.30588 | 9.65713 | 107° | 113km/h | 6021m | -7.0m/s | -12.1°C | 93.0% | 482.5hPa | 2.5V | 00:00:00 | 02:33:53 | 00:00:00 | |
| DL1XH-15 | 2026-09-04 00:53:22 | 53.30612 | 9.65576 | 106° | 113km/h | 6041m | -7.4m/s | -12.2°C | 94% | 481.2hPa | 2.5V | 07:58:18 | 02:33:50 | 00:00:00 | |
| AA1-15 | 2026-09-04 00:53:19 | 53.30620 | 9.65531 | 107° | 111km/h | 6048m | -7.4m/s | -12.3°C | 93% | 480.8hPa | 2.5V | 07:59:08 | 02:33:49 | 00:00:00 | |
| DM0DOS-11 | 2026-09-04 00:53:19 | 53.30650 | 9.65348 | 104° | 113km/h | 6075m | -6.3m/s | -12.4°C | 94% | 479.1hPa | 2.6V | 07:58:23 | 02:33:45 | 00:00:00 | |
| DL1XH1-15 | 2026-09-04 00:53:19 | 53.30657 | 9.65302 | 104° | 113km/h | 6082m | -8m/s | -12.5°C | 93.9% | 478.7hPa | 2.5V | 07:58:24 | 02:33:44 | 00:00:00 | |
| DL1XH-west | 2026-09-04 00:53:17 | 53.30635 | 9.65439 | 105° | 111km/h | 6062m | -6.4m/s | -12.3°C | 92.9% | 479.9hPa | 2.6V | 07:59:08 | 02:33:47 | 00:00:00 | |
| BIOWL1-15 | 2026-09-04 00:53:15 | 53.30664 | 9.65256 | 104° | 113km/h | 6090m | -7.4m/s | -12.5°C | 91.9% | 478.1hPa | 2.5V | 07:59:08 | 02:33:43 | 00:00:00 | |
| DF8AY | 2026-09-04 00:53:15 | 53.30657 | 9.65302 | 104° | 113km/h | 6082m | -8m/s | -12.5°C | 91.8% | 478.7hPa | 2.5V | 07:59:59 | 02:33:44 | 00:00:00 | |
| SMARD9-10 | 2026-09-04 00:53:15 | 53.30657 | 9.65302 | 105° | 113km/h | 6082m | -8.0m/s | -12.5°C | 91.0% | 478.7hPa | 2.6V | 07:59:00 | 00:00:00 | 00:00:00 | |
| DL1XH-15 | 2026-09-04 00:53:12 | 53.30686 | 9.65117 | 105° | 113km/h | 6110m | -7m/s | -12.6°C | 94.9% | 476.8hPa | 2.6V | 07:58:28 | 02:33:40 | 00:00:00 | |
| DB0DAN | 2026-09-04 00:53:10 | 53.30686 | 9.65117 | 105° | 108km/h | 6110m | -7m/s | -12.6°C | 92% | 476.85hPa | 2.6V | 00:00:00 | 00:00:00 | 00:00:00 | |
| AA1-15 | 2026-09-04 00:53:08 | 53.30700 | 9.65025 | 104° | 111km/h | 6124m | -7.5m/s | -12.7°C | 93.9% | 476.1hPa | 2.5V | 07:59:08 | 02:33:38 | 00:00:00 | |
| DL1XH-west | 2026-09-04 00:53:07 | 53.30707 | 9.64979 | 105° | 111km/h | 6131m | -7.6m/s | -12.7°C | 94% | 475.5hPa | 2.6V | 07:59:08 | 02:33:37 | 00:00:00 | |
| DM0DOS-11 | 2026-09-04 00:53:06 | 53.30722 | 9.64889 | 104° | 110km/h | 6146m | -8.2m/s | -12.8°C | 95.9% | 474.6hPa | 2.5V | 07:58:33 | 02:33:35 | 00:00:00 | |
| DF8AY | 2026-09-04 00:53:05 | 53.30729 | 9.64844 | 106° | 110km/h | 6153m | -7.8m/s | -12.8°C | 95.3% | 474.1hPa | 2.5V | 07:59:59 | 02:33:34 | 00:00:00 | |
| BIOWL1-15 | 2026-09-04 00:53:03 | 53.30736 | 9.64799 | 106° | 113km/h | 6161m | -7.7m/s | -12.8°C | 95.8% | 473.8hPa | 2.6V | 07:59:08 | 02:33:33 | 00:00:00 | |
| DL1XH-15 | 2026-09-04 00:53:02 | 53.30759 | 9.64658 | 104° | 115km/h | 6184m | -7.8m/s | -12.8°C | 97.8% | 472.3hPa | 2.5V | 07:58:38 | 02:33:30 | 00:00:00 | |
| DO2SHX-10 | 2026-09-04 00:53:02 | 53.30744 | 9.64753 | 106° | 115km/h | 6169m | -8.2m/s | -12.8°C | 97.3% | 473.1hPa | 2.5V | 00:00:00 | 02:33:32 | 00:00:00 | |
| GOEST3-10 | 2026-09-04 00:53:01 | 53.30752 | 9.64706 | 105° | 115km/h | 6177m | -8.5m/s | -12.8°C | 97.5% | 472.7hPa | 2.5V | 00:00:00 | 00:00:00 | 00:00:00 | |
| DL1CLM-18 | 2026-09-04 00:53:00 | 53.30752 | 9.64706 | 105° | 115km/h | 6177m | -8.5m/s | -12.8°C | 94.4% | 472.8hPa | 2.5V | 00:00:00 | 00:00:00 | 00:00:00 | |
| DM0DOS-11 | 2026-09-04 00:52:59 | 53.30795 | 9.64424 | 104° | 113km/h | 6220m | -7.3m/s | -13.1°C | 97.6% | 470hPa | 2.5V | 07:58:43 | 02:33:25 | 00:00:00 | |
| DL1XH1-15 | 2026-09-04 00:52:59 | 53.30803 | 9.64377 | 105° | 113km/h | 6227m | -7m/s | -13.1°C | 97.6% | 469.6hPa | 2.6V | 07:58:44 | 02:33:24 | 00:00:00 | |
| AA1-15 | 2026-09-04 00:52:57 | 53.30781 | 9.64517 | 105° | 115km/h | 6206m | -7.4m/s | -13°C | 95.2% | 470.9hPa | 2.5V | 07:59:08 | 02:33:27 | 00:00:00 | |
| DL1XH-west | 2026-09-04 00:52:56 | 53.30788 | 9.64470 | 104° | 113km/h | 6213m | -7.2m/s | -13°C | 95% | 470.4hPa | 2.5V | 07:59:08 | 02:33:26 | 00:00:00 | |
| DB0DAN | 2026-09-04 00:52:55 | 53.30795 | 9.64424 | 105° | 108km/h | 6220m | -7.3m/s | -13.1°C | 94.5% | 470.04hPa | 2.5V | 00:00:00 | 00:00:00 | 00:00:00 | |
| DL1XH-15 | 2026-09-04 00:52:54 | 53.30833 | 9.64189 | 104° | 117km/h | 6254m | -6.7m/s | -13.2°C | 98.3% | 467.9hPa | 2.5V | 07:58:48 | 02:33:20 | 00:00:00 | |
| DF8AY | 2026-09-04 00:52:53 | 53.30849 | 9.64094 | 105° | 117km/h | 6268m | -7.3m/s | -13.2°C | 96.3% | 467.1hPa | 2.6V | 07:59:59 | 02:33:18 | 00:00:00 | |
| BIOWL1-15 | 2026-09-04 00:52:52 | 53.30841 | 9.64142 | 105° | 117km/h | 6261m | -7.5m/s | -13.2°C | 96.1% | 467.5hPa | 2.5V | 07:59:08 | 02:33:19 | 00:00:00 | |
| GOEST3-10 | 2026-09-04 00:52:51 | 53.30826 | 9.64237 | 105° | 117km/h | 6248m | -6.8m/s | -13.2°C | 98.1% | 468.3hPa | 2.5V | 00:00:00 | 00:00:00 | 00:00:00 | |
| DO2SHX-10 | 2026-09-04 00:52:50 | 53.30833 | 9.64189 | 105° | 117km/h | 6254m | -6.7m/s | -13.2°C | 98.3% | 467.9hPa | 2.5V | 00:00:00 | 02:33:20 | 00:00:00 | |
| DM0DOS-11 | 2026-09-04 00:52:49 | 53.30871 | 9.63951 | 104° | 117km/h | 6288m | -7.9m/s | -13.3°C | 99.2% | 465.9hPa | 2.5V | 07:58:53 | 02:33:15 | 00:00:00 | |
| DL1XH1-15 | 2026-09-04 00:52:49 | 53.30878 | 9.63903 | 103° | 117km/h | 6296m | -7.6m/s | -13.4°C | 99.6% | 465.4hPa | 2.5V | 07:58:54 | 02:33:14 | 00:00:00 | |
| DL1XH-west | 2026-09-04 00:52:46 | 53.30864 | 9.63999 | 104° | 117km/h | 6281m | -7.1m/s | -13.3°C | 97.4% | 466.2hPa | 2.5V | 07:59:08 | 02:33:16 | 00:00:00 | |
| DF8AY | 2026-09-04 00:52:42 | 53.30892 | 9.63807 | 104° | 117km/h | 6310m | -7.4m/s | -13.5°C | 98.9% | 464.5hPa | 2.6V | 07:59:59 | 02:33:12 | 00:00:00 | |
| DB0DAN | 2026-09-04 00:52:40 | 53.30907 | 9.63711 | 104° | 111km/h | 6325m | -6.6m/s | -13.6°C | 96.6% | 463.64hPa | 2.5V | 00:00:00 | 00:00:00 | 00:00:00 | |
| BIOWL1-15 | 2026-09-04 00:52:39 | 53.30958 | 9.63382 | 105° | 115km/h | 6374m | -7.6m/s | -13.8°C | 98.9% | 460.6hPa | 2.6V | 07:59:08 | 02:33:03 | 00:00:00 | |
| DL1XH1-15 | 2026-09-04 00:52:39 | 53.30951 | 9.63428 | 104° | 115km/h | 6367m | -7.5m/s | -13.7°C | 98.9% | 461hPa | 2.5V | 07:59:04 | 02:33:04 | 00:00:00 | |
| BIOWL9-15 | 2026-09-04 00:52:39 | 53.30921 | 9.63615 | 105° | 115km/h | 6338m | -7.3m/s | -13.6°C | 96.4% | 462.6hPa | 2.5V | 00:00:00 | 00:00:00 | 00:00:00 | |
| DO2SHX-10 | 2026-09-04 00:52:38 | 53.30921 | 9.63615 | 106° | 113km/h | 6338m | -7.2m/s | -13.6°C | 99.6% | 462.6hPa | 2.5V | 00:00:00 | 02:33:08 | 00:00:00 | |
| DM0DOS-11 | 2026-09-04 00:52:36 | 53.30943 | 9.63475 | 104° | 113km/h | 6360m | -8.2m/s | -13.7°C | 98.8% | 461.5hPa | 2.5V | 07:59:03 | 02:33:05 | 00:00:00 | |
| DL1XH-west | 2026-09-04 00:52:36 | 53.30936 | 9.63522 | 105° | 113km/h | 6352m | -7m/s | -13.7°C | 99% | 461.8hPa | 2.5V | 07:59:08 | 02:33:06 | 00:00:00 | |
| DO2SHX-10 | 2026-09-04 00:52:35 | 53.30943 | 9.63475 | 105° | 115km/h | 6360m | -8.2m/s | -13.6°C | 98.8% | 461.4hPa | 2.5V | 00:00:00 | 02:33:05 | 00:00:00 | |
| DF8AY-15 | 2026-09-04 00:52:34 | 53.30951 | 9.63428 | 105° | 117km/h | 6367m | -7.4m/s | -13.7°C | 98.9% | 461.0hPa | 2.5V | 00:00:00 | 02:33:04 | 00:00:00 | |
| DL1XH-15 | 2026-09-04 00:52:32 | 53.30981 | 9.63238 | 104° | 119km/h | 6396m | -7.3m/s | -14°C | 98.1% | 459.3hPa | 2.5V | 07:59:08 | 02:33:00 | 00:00:00 | |
| DF8AY | 2026-09-04 00:52:32 | 53.30966 | 9.63334 | 105° | 117km/h | 6382m | -7.4m/s | -13.8°C | 98.7% | 460.2hPa | 2.5V | 07:59:59 | 02:33:02 | 00:00:00 | |
| DO2SHX-10 | 2026-09-04 00:52:32 | 53.30966 | 9.63334 | 106° | 117km/h | 6382m | -7.4m/s | -13.8°C | 98.8% | 460.1hPa | 2.5V | 00:00:00 | 02:33:02 | 00:00:00 | |
| GOEST3-10 | 2026-09-04 00:52:30 | 53.30981 | 9.63238 | 105° | 120km/h | 6396m | -7.3m/s | -13.9°C | 98.1% | 459.2hPa | 2.5V | 07:59:00 | 00:00:00 | 00:00:00 | |
| DO2SHX-10 | 2026-09-04 00:52:29 | 53.30989 | 9.63189 | 105° | 120km/h | 6403m | -6.9m/s | -14.1°C | 97.1% | 458.8hPa | 2.5V | 00:00:00 | 02:32:59 | 00:00:00 | |
| DF5WG-10 | 2026-09-04 00:52:28 | 53.30997 | 9.63139 | 106° | 117km/h | 6410m | -8.0m/s | -14.2°C | 97.6% | 458.3hPa | 2.5V | 00:00:00 | 02:32:58 | 00:00:00 | |
| DL1XH1-15 | 2026-09-04 00:52:27 | 53.31030 | 9.62947 | 105° | 117km/h | 6439m | -7.5m/s | -14.3°C | 98.6% | 456.7hPa | 2.5V | 07:59:14 | 02:32:54 | 00:00:00 | |
| BIOWL1-15 | 2026-09-04 00:52:27 | 53.31005 | 9.63090 | 106° | 119km/h | 6417m | -6.5m/s | -14.3°C | 95.6% | 458hPa | 2.6V | 07:59:59 | 02:32:57 | 00:00:00 | |
| DM0DOS-11 | 2026-09-04 00:52:26 | 53.31022 | 9.62994 | 105° | 117km/h | 6432m | -7.8m/s | -14.3°C | 98.8% | 457.2hPa | 2.5V | 07:59:13 | 02:32:55 | 00:00:00 | |
| AA1-15 | 2026-09-04 00:52:26 | 53.31030 | 9.62947 | 106° | 117km/h | 6439m | -7.5m/s | -14.4°C | 97.6% | 456.7hPa | 2.5V | 07:59:59 | 02:32:54 | 00:00:00 | |
| DL1XH-west | 2026-09-04 00:52:26 | 53.31022 | 9.62995 | 106° | 117km/h | 6432m | -7.8m/s | -14.3°C | 98% | 457.2hPa | 2.5V | 07:59:59 | 02:32:55 | 00:00:00 | |
| DB0DAN | 2026-09-04 00:52:25 | 53.31022 | 9.62995 | 106° | 111km/h | 6432m | -7.8m/s | -14.3°C | 95.5% | 457.19hPa | 2.5V | 00:00:00 | 00:00:00 | 00:00:00 | |
| DF8AY | 2026-09-04 00:52:22 | 53.31054 | 9.62806 | 106° | 115km/h | 6461m | -8.2m/s | -14.6°C | 96% | 455.5hPa | 2.5V | 07:59:59 | 02:32:51 | 00:00:00 | |
| DL1XH-15 | 2026-09-04 00:52:22 | 53.31062 | 9.62759 | 105° | 115km/h | 6469m | -8.2m/s | -14.7°C | 96.4% | 454.9hPa | 2.5V | 07:59:18 | 02:32:50 | 00:00:00 | |
| DO2SHX-10 | 2026-09-04 00:52:20 | 53.31062 | 9.62759 | 106° | 115km/h | 6469m | -8.2m/s | -14.6°C | 96.4% | 454.9hPa | 2.6V | 07:59:00 | 02:32:50 | 00:00:00 | |
| DF5WG-10 | 2026-09-04 00:52:18 | 53.31077 | 9.62664 | 106° | 117km/h | 6484m | -7.3m/s | -14.8°C | 95.5% | 454.0hPa | 2.6V | 00:00:00 | 02:32:48 | 00:00:00 | |
| DO2SHX-10 | 2026-09-04 00:52:17 | 53.31085 | 9.62618 | 106° | 115km/h | 6491m | -7.1m/s | -14.9°C | 95.6% | 453.5hPa | 2.5V | 00:00:00 | 02:32:47 | 00:00:00 | |
| DL1XH1-15 | 2026-09-04 00:52:16 | 53.31110 | 9.62476 | 105° | 117km/h | 6513m | -7.9m/s | -15°C | 96.5% | 452.3hPa | 2.5V | 07:59:24 | 02:32:44 | 00:00:00 | |
| AA1-15 | 2026-09-04 00:52:14 | 53.31118 | 9.62428 | 106° | 117km/h | 6521m | -7.3m/s | -15°C | 94.7% | 451.9hPa | 2.5V | 07:59:59 | 02:32:43 | 00:00:00 | |
| DL1XH-west | 2026-09-04 00:52:14 | 53.31110 | 9.62476 | 106° | 119km/h | 6513m | -7.9m/s | -15°C | 94.6% | 452.3hPa | 2.5V | 07:59:59 | 02:32:44 | 00:00:00 | |
| DF8AY-15 | 2026-09-04 00:52:14 | 53.31110 | 9.62476 | 106° | 117km/h | 6513m | -7.9m/s | -14.9°C | 96.5% | 452.3hPa | 2.4V | 00:00:00 | 02:32:44 | 00:00:00 | |
| DL1XH-15 | 2026-09-04 00:52:13 | 53.31143 | 9.62288 | 106° | 117km/h | 6542m | -7.5m/s | -15.2°C | 94.8% | 450.6hPa | 2.4V | 07:59:28 | 02:32:40 | 00:00:00 | |
| DF8AY | 2026-09-04 00:52:11 | 53.31135 | 9.62335 | 107° | 115km/h | 6535m | -5.4m/s | -15.2°C | 93.4% | 451hPa | 2.5V | 07:59:59 | 02:32:41 | 00:00:00 | |
| DO2SHX-10 | 2026-09-04 00:52:11 | 53.31135 | 9.62335 | 107° | 115km/h | 6535m | -5.4m/s | -15.1°C | 95.6% | 450.9hPa | 2.4V | 00:00:00 | 02:32:41 | 00:00:00 | |
| AP2371 | 2026-09-04 00:52:10 | 53.31135 | 9.62335 | 108° | 115km/h | 6535m | -5.4m/s | -15.2°C | 92.3% | 451.0hPa | 2.4V | 07:59:00 | 00:00:00 | 00:00:00 | |
| DL1XH1-15 | 2026-09-04 00:52:09 | 53.31192 | 9.62003 | 104° | 117km/h | 6588m | -8.2m/s | -15.5°C | 94.9% | 447.9hPa | 2.4V | 07:59:34 | 02:32:34 | 00:00:00 | |
| DJ2DS-15 | 2026-09-04 00:52:09 | 53.31151 | 9.62241 | 107° | 117km/h | 6549m | -7.3m/s | -15.2°C | 94.9% | 450.1hPa | 2.5V | 00:00:00 | 02:32:39 | 00:00:00 | |
| DF5WG-10 | 2026-09-04 00:52:08 | 53.31160 | 9.62194 | 107° | 117km/h | 6557m | -8.7m/s | -15.3°C | 95.0% | 449.7hPa | 2.5V | 00:00:00 | 02:32:38 | 00:00:00 | |
| DM0DOS-11 | 2026-09-04 00:52:06 | 53.31184 | 9.62051 | 105° | 119km/h | 6580m | -7.8m/s | -15.5°C | 94.7% | 448.4hPa | 2.5V | 07:59:33 | 02:32:35 | 00:00:00 | |
| AA1-15 | 2026-09-04 00:52:03 | 53.31207 | 9.61907 | 105° | 119km/h | 6603m | -7.9m/s | -15.6°C | 94.2% | 447hPa | 2.5V | 07:59:59 | 02:32:32 | 00:00:00 | |
| DL1XH-west | 2026-09-04 00:52:03 | 53.31200 | 9.61955 | 106° | 117km/h | 6596m | -7.8m/s | -15.5°C | 94.2% | 447.4hPa | 2.4V | 07:59:59 | 02:32:33 | 00:00:00 | |
| DL1XH-15 | 2026-09-04 00:52:02 | 53.31223 | 9.61812 | 106° | 115km/h | 6619m | -8m/s | -15.7°C | 94.9% | 446.2hPa | 2.5V | 07:59:38 | 02:32:30 | 00:00:00 | |
| BIOWL1-15 | 2026-09-04 00:52:01 | 53.31239 | 9.61717 | 105° | 115km/h | 6635m | -8.4m/s | -15.8°C | 94.2% | 445.1hPa | 2.5V | 07:59:59 | 02:32:28 | 00:00:00 | |
| DF8AY | 2026-09-04 00:52:00 | 53.31223 | 9.61812 | 106° | 115km/h | 6619m | -8m/s | -15.7°C | 94.6% | 446.2hPa | 2.5V | 07:59:59 | 02:32:30 | 00:00:00 | |
| GOEST3-10 | 2026-09-04 00:52:00 | 53.31223 | 9.61812 | 107° | 115km/h | 6619m | -8.0m/s | -15.6°C | 94.9% | 446.1hPa | 2.5V | 00:00:00 | 00:00:00 | 00:00:00 | |
| DL1XH1-15 | 2026-09-04 00:51:59 | 53.31269 | 9.61528 | 105° | 117km/h | 6666m | -7.5m/s | -15.8°C | 93.2% | 443.3hPa | 2.5V | 07:59:44 | 02:32:24 | 00:00:00 | |
| DM0DOS-11 | 2026-09-04 00:51:59 | 53.31261 | 9.61576 | 104° | 115km/h | 6658m | -8.6m/s | -15.9°C | 93.8% | 443.9hPa | 2.5V | 07:59:43 | 02:32:25 | 00:00:00 | |
| DO2SHX-10 | 2026-09-04 00:51:59 | 53.31231 | 9.61764 | 106° | 115km/h | 6627m | -8.0m/s | -15.7°C | 94.9% | 445.6hPa | 2.5V | 00:00:00 | 02:32:29 | 00:00:00 | |
| DF5WG-10 | 2026-09-04 00:51:58 | 53.31238 | 9.61717 | 105° | 119km/h | 6635m | -8.4m/s | -15.8°C | 94.7% | 445.1hPa | 2.5V | 00:00:00 | 02:32:28 | 00:00:00 | |
| DB0DAN | 2026-09-04 00:51:55 | 53.31261 | 9.61576 | 105° | 110km/h | 6658m | -8.6m/s | -15.9°C | 90.4% | 443.86hPa | 2.5V | 00:00:00 | 00:00:00 | 00:00:00 | |
| DL1XH-west | 2026-09-04 00:51:53 | 53.31277 | 9.61480 | 104° | 120km/h | 6674m | -8.3m/s | -15.9°C | 90% | 442.9hPa | 2.4V | 07:59:59 | 02:32:23 | 00:00:00 | |
| DL1XH-15 | 2026-09-04 00:51:52 | 53.31300 | 9.61333 | 105° | 119km/h | 6699m | -7.8m/s | -16.1°C | 88.9% | 441.5hPa | 2.5V | 07:59:48 | 02:32:20 | 00:00:00 | |
| EDDB2-12 | 2026-09-04 00:51:51 | 53.31300 | 9.61333 | 105° | 119km/h | 6699m | -7.8m/s | -16.1°C | 85.6% | 441.5hPa | 2.5V | 00:00:00 | 00:00:00 | 00:00:00 | |
| DL3AQ-11 | 2026-09-04 00:51:50 | 53.31343 | 9.61089 | 106° | 122km/h | 6738m | -7.8m/s | -16.3°C | 85.0% | 439.2hPa | 2.5V | 00:00:00 | 00:00:00 | 00:00:00 | |
| DF8AY | 2026-09-04 00:51:49 | 53.31352 | 9.61039 | 106° | 124km/h | 6746m | -9.9m/s | -16.4°C | 87.3% | 438.8hPa | 2.5V | 07:59:59 | 02:32:14 | 00:00:00 | |
| BIOWL1-15 | 2026-09-04 00:51:48 | 53.31334 | 9.61138 | 107° | 122km/h | 6730m | -8.7m/s | -16.3°C | 87% | 439.7hPa | 2.4V | 07:59:59 | 02:32:16 | 00:00:00 | |
| DF5WG-10 | 2026-09-04 00:51:48 | 53.31317 | 9.61236 | 107° | 122km/h | 6715m | -7.9m/s | -16.2°C | 89.4% | 440.4hPa | 2.5V | 07:59:00 | 02:32:18 | 00:00:00 | |
| DO2SHX-10 | 2026-09-04 00:51:47 | 53.31325 | 9.61187 | 107° | 122km/h | 6722m | -6.8m/s | -16.2°C | 89.2% | 440.0hPa | 2.5V | 00:00:00 | 02:32:17 | 00:00:00 | |
| DL4BBY-15 | 2026-09-04 00:51:46 | 53.31334 | 9.61138 | 108° | 130km/h | 6730m | -8.7m/s | -15.7°C | 0% | 0hPa | 2.4V | 00:00:00 | 00:00:00 | 00:00:00 | |
| DL1XH1-15 | 2026-09-04 00:51:46 | 53.31352 | 9.61039 | 106° | 122km/h | 6746m | -9.9m/s | -16.4°C | 88.2% | 438.8hPa | 2.5V | 07:59:54 | 02:32:14 | 00:00:00 | |
| GOEST3-10 | 2026-09-04 00:51:45 | 53.31343 | 9.61089 | 107° | 122km/h | 6738m | -7.7m/s | -16.3°C | 88.2% | 439.2hPa | 2.4V | 00:00:00 | 02:32:15 | 00:00:00 | |
| DO2SHX-10 | 2026-09-04 00:51:44 | 53.31352 | 9.61039 | 107° | 122km/h | 6746m | -9.9m/s | -16.3°C | 88.2% | 438.7hPa | 2.4V | 00:00:00 | 02:32:14 | 00:00:00 | |
| DL1XH-15 | 2026-09-04 00:51:42 | 53.31388 | 9.60839 | 105° | 128km/h | 6781m | -10.3m/s | -16.5°C | 89.3% | 436.8hPa | 2.4V | 07:59:58 | 02:32:10 | 00:00:00 | |
| DL1XH-west | 2026-09-04 00:51:42 | 53.31370 | 9.60939 | 106° | 122km/h | 6764m | -8.6m/s | -16.4°C | 88.5% | 437.6hPa | 2.5V | 07:59:59 | 02:32:12 | 00:00:00 | |
| DB0DAN | 2026-09-04 00:51:40 | 53.31388 | 9.60838 | 106° | 120km/h | 6781m | -10.3m/s | -16.5°C | 86% | 436.77hPa | 2.4V | 00:00:00 | 00:00:00 | 00:00:00 | |
| DF8AY | 2026-09-04 00:51:38 | 53.31450 | 9.60470 | 105° | 131km/h | 6872m | -14.3m/s | -17°C | 83.9% | 431.8hPa | 2.4V | 08:01:41 | 02:32:03 | 00:00:00 | |
| BIOWL1-15 | 2026-09-04 00:51:38 | 53.31405 | 9.60734 | 106° | 130km/h | 6805m | -12.8m/s | -16.6°C | 88.7% | 435.5hPa | 2.5V | 08:00:50 | 02:32:08 | 00:00:00 | |
| DO2SHX-10 | 2026-09-04 00:51:38 | 53.31405 | 9.60734 | 106° | 130km/h | 6805m | -12.8m/s | -16.6°C | 86.7% | 435.4hPa | 2.5V | 00:00:00 | 02:32:08 | 00:00:00 | |
| BIOWL9-15 | 2026-09-04 00:51:36 | 53.31424 | 9.60629 | 105° | 126km/h | 6831m | -14.7m/s | -16.8°C | 81.9% | 434.1hPa | 2.5V | 00:00:00 | 00:00:00 | 00:00:00 | |
| DO2SHX-10 | 2026-09-04 00:51:35 | 53.31433 | 9.60577 | 106° | 131km/h | 6846m | -13.4m/s | -16.8°C | 83.6% | 433.3hPa | 2.5V | 00:00:00 | 02:32:05 | 00:00:00 | |
| SONDE2-11 | 2026-09-04 00:51:34 | 53.31450 | 9.60470 | 105° | 131km/h | 6872m | -14.3m/s | -17.0°C | 78.5% | 431.8hPa | 2.5V | 00:00:00 | 00:00:00 | 00:00:00 | |
| DL1XH-15 | 2026-09-04 00:51:32 | 53.31478 | 9.60309 | 107° | 131km/h | 6914m | -13.8m/s | -17.3°C | 81.3% | 429.6hPa | 2.5V | 08:00:08 | 02:32:00 | 00:00:00 | |
| AA1-15 | 2026-09-04 00:51:31 | 53.31478 | 9.60309 | 107° | 131km/h | 6914m | -13.8m/s | -17.3°C | 83.7% | 429.6hPa | 2.5V | 08:00:50 | 02:32:00 | 00:00:00 | |
| DL1XH-west | 2026-09-04 00:51:31 | 53.31468 | 9.60363 | 107° | 131km/h | 6899m | -14.7m/s | -17.2°C | 83.6% | 430.3hPa | 2.5V | 08:00:50 | 02:32:01 | 00:00:00 | |
| AP2371 | 2026-09-04 00:51:30 | 53.31478 | 9.60309 | 108° | 131km/h | 6914m | -13.8m/s | -17.3°C | 78.1% | 429.6hPa | 2.5V | 08:00:00 | 00:00:00 | 00:00:00 | |
| DL1XH1-15 | 2026-09-04 00:51:29 | 53.31534 | 9.59986 | 106° | 135km/h | 6996m | -14.5m/s | -17.9°C | 81% | 424.8hPa | 2.5V | 08:00:14 | 02:31:54 | 00:00:00 | |
| BIOWL1-15 | 2026-09-04 00:51:27 | 53.31505 | 9.60148 | 106° | 133km/h | 6955m | -14m/s | -17.6°C | 84.8% | 427.2hPa | 2.4V | 08:00:50 | 02:31:57 | 00:00:00 | |
| DB0DAN | 2026-09-04 00:51:25 | 53.31524 | 9.60040 | 107° | 128km/h | 6982m | -14.2m/s | -17.8°C | 78.1% | 425.56hPa | 2.4V | 00:00:00 | 00:00:00 | 00:00:00 | |
| DF8AY | 2026-09-04 00:51:23 | 53.31543 | 9.59931 | 106° | 131km/h | 7010m | -14.5m/s | -18.1°C | 82.1% | 423.9hPa | 2.5V | 08:01:41 | 02:31:53 | 00:00:00 | |
| DO2SHX-10 | 2026-09-04 00:51:23 | 53.31543 | 9.59931 | 106° | 133km/h | 7010m | -14.5m/s | -18.0°C | 80.7% | 423.9hPa | 2.4V | 00:00:00 | 02:31:53 | 00:00:00 | |
| DL1XH-15 | 2026-09-04 00:51:22 | 53.31572 | 9.59768 | 106° | 131km/h | 7047m | -12.4m/s | -18.3°C | 81.5% | 421.6hPa | 2.4V | 08:00:18 | 02:31:50 | 00:00:00 | |
| DL1XH-west | 2026-09-04 00:51:20 | 53.31572 | 9.59768 | 107° | 131km/h | 7047m | -12.4m/s | -18.3°C | 81.6% | 421.6hPa | 2.4V | 08:00:50 | 02:31:50 | 00:00:00 | |
| AA1-15 | 2026-09-04 00:51:20 | 53.31581 | 9.59715 | 107° | 133km/h | 7059m | -10.5m/s | -18.4°C | 80.8% | 420.9hPa | 2.4V | 08:00:50 | 02:31:49 | 00:00:00 | |
| DM0DOS-11 | 2026-09-04 00:51:19 | 53.31619 | 9.59494 | 106° | 135km/h | 7104m | -12.5m/s | -18.8°C | 81.7% | 418.3hPa | 2.5V | 08:00:23 | 02:31:45 | 00:00:00 | |
| BIOWL1-15 | 2026-09-04 00:51:16 | 53.31648 | 9.59331 | 107° | 133km/h | 7143m | -14.3m/s | -19.1°C | 83.3% | 416.3hPa | 2.4V | 08:00:50 | 02:31:42 | 00:00:00 | |
| DL4BBY-15 | 2026-09-04 00:51:16 | 53.31610 | 9.59549 | 105° | 139km/h | 7093m | -12.3m/s | -18.0°C | 0% | 0hPa | 2.5V | 00:00:00 | 00:00:00 | 00:00:00 | |
| GOEST3-10 | 2026-09-04 00:51:15 | 53.31619 | 9.59494 | 107° | 133km/h | 7105m | -12.5m/s | -18.7°C | 81.7% | 418.2hPa | 2.5V | 00:00:00 | 02:31:45 | 00:00:00 | |
| DF8AY-15 | 2026-09-04 00:51:14 | 53.31629 | 9.59440 | 107° | 139km/h | 7117m | -13.4m/s | -18.8°C | 81.6% | 417.6hPa | 2.5V | 00:00:00 | 02:31:44 | 00:00:00 | |
| DL1XH-15 | 2026-09-04 00:51:12 | 53.31666 | 9.59222 | 105° | 137km/h | 7169m | -13.5m/s | -19.3°C | 82.6% | 414.8hPa | 2.5V | 08:00:28 | 02:31:40 | 00:00:00 | |
| DF8AY | 2026-09-04 00:51:11 | 53.31657 | 9.59277 | 106° | 135km/h | 7156m | -13.5m/s | -19.2°C | 83.8% | 415.5hPa | 2.5V | 08:01:41 | 02:31:41 | 00:00:00 | |
| DB0DAN | 2026-09-04 00:51:10 | 53.31666 | 9.59222 | 105° | 131km/h | 7169m | -13.5m/s | -19.3°C | 79.2% | 414.81hPa | 2.5V | 00:00:00 | 00:00:00 | 00:00:00 | |
| DL1XH-west | 2026-09-04 00:51:10 | 53.31666 | 9.59222 | 105° | 137km/h | 7169m | -13.5m/s | -19.3°C | 84.2% | 414.8hPa | 2.5V | 08:00:50 | 02:31:40 | 00:00:00 | |
| AA1-15 | 2026-09-04 00:51:10 | 53.31686 | 9.59111 | 107° | 137km/h | 7196m | -14.8m/s | -19.4°C | 84.1% | 413.6hPa | 2.4V | 08:00:50 | 02:31:38 | 00:00:00 | |
| DL3AQ-11 | 2026-09-04 00:51:10 | 53.31676 | 9.59166 | 107° | 137km/h | 7183m | -13.2m/s | -19.4°C | 79.3% | 414.1hPa | 2.4V | 00:00:00 | 00:00:00 | 00:00:00 | |
| DJ2DS-15 | 2026-09-04 00:51:09 | 53.31676 | 9.59166 | 108° | 139km/h | 7183m | -13.2m/s | -19.3°C | 82.7% | 414.0hPa | 2.4V | 08:00:00 | 02:31:39 | 00:00:00 | |
| DO2SHX-10 | 2026-09-04 00:51:08 | 53.31686 | 9.59111 | 107° | 139km/h | 7196m | -14.8m/s | -19.4°C | 82.2% | 413.5hPa | 2.5V | 00:00:00 | 02:31:38 | 00:00:00 | |
| DM0DOS-11 | 2026-09-04 00:51:07 | 53.31717 | 9.58943 | 106° | 142km/h | 7233m | -11.2m/s | -19.7°C | 83% | 411.3hPa | 2.5V | 08:00:33 | 02:31:35 | 00:00:00 | |
| BIOWL1-15 | 2026-09-04 00:51:04 | 53.31748 | 9.58773 | 106° | 141km/h | 7269m | -8.9m/s | -20°C | 80.7% | 409.2hPa | 2.4V | 08:00:50 | 02:31:32 | 00:00:00 | |
| DL1XH-15 | 2026-09-04 00:51:02 | 53.31769 | 9.58659 | 106° | 139km/h | 7287m | -12.6m/s | -20.2°C | 80.7% | 408.3hPa | 2.4V | 08:00:38 | 02:31:30 | 00:00:00 | |
| DF8AY | 2026-09-04 00:51:01 | 53.31758 | 9.58716 | 108° | 142km/h | 7277m | -8.4m/s | -20.1°C | 81.3% | 408.7hPa | 2.4V | 08:01:41 | 02:31:31 | 00:00:00 | |
| DL1XH-west | 2026-09-04 00:50:59 | 53.31780 | 9.58603 | 107° | 137km/h | 7300m | -14m/s | -20.2°C | 81.5% | 407.7hPa | 2.5V | 08:00:50 | 02:31:29 | 00:00:00 | |
| AA1-15 | 2026-09-04 00:50:58 | 53.31790 | 9.58548 | 107° | 139km/h | 7314m | -13.9m/s | -20.3°C | 81.2% | 407hPa | 2.5V | 08:00:50 | 02:31:28 | 00:00:00 | |
| DF5WG-10 | 2026-09-04 00:50:58 | 53.31790 | 9.58547 | 107° | 139km/h | 7314m | -13.8m/s | -20.3°C | 80.2% | 406.9hPa | 2.4V | 00:00:00 | 02:31:28 | 00:00:00 | |
| DB0DAN | 2026-09-04 00:50:55 | 53.31821 | 9.58379 | 107° | 131km/h | 7352m | -14.2m/s | -20.6°C | 76.7% | 404.74hPa | 2.4V | 00:00:00 | 00:00:00 | 00:00:00 | |
| BIOWL1-15 | 2026-09-04 00:50:52 | 53.31852 | 9.58211 | 108° | 141km/h | 7389m | -8.9m/s | -20.9°C | 82.3% | 402.5hPa | 2.4V | 08:00:50 | 02:31:22 | 00:00:00 | |
| DL1XH-15 | 2026-09-04 00:50:52 | 53.31873 | 9.58097 | 106° | 139km/h | 7411m | -12m/s | -21°C | 82.1% | 401.5hPa | 2.4V | 08:00:48 | 02:31:20 | 00:00:00 | |
| DL1LOL-11 | 2026-09-04 00:50:50 | 53.31873 | 9.58097 | 107° | 139km/h | 7411m | -12.0m/s | -21.0°C | 78.6% | 401.5hPa | 2.4V | 00:00:00 | 00:00:00 | 00:00:00 | |
| DM0DOS-11 | 2026-09-04 00:50:49 | 53.31919 | 9.57818 | 106° | 137km/h | 7477m | -15.9m/s | -21.5°C | 81.5% | 398.1hPa | 2.4V | 08:00:53 | 02:31:15 | 00:00:00 | |
| DL1XH-west | 2026-09-04 00:50:49 | 53.31883 | 9.58041 | 105° | 135km/h | 7423m | -14.3m/s | -21.1°C | 83.4% | 400.9hPa | 2.5V | 08:00:50 | 02:31:19 | 00:00:00 | |
| AA1-15 | 2026-09-04 00:50:48 | 53.31892 | 9.57986 | 105° | 135km/h | 7437m | -13.7m/s | -21.2°C | 83.8% | 400.1hPa | 2.5V | 08:00:50 | 02:31:18 | 00:00:00 | |
| BIOWL1-15 | 2026-09-04 00:50:45 | 53.31965 | 9.57542 | 104° | 133km/h | 7540m | -11.9m/s | -22°C | 83.5% | 394.4hPa | 2.4V | 08:01:41 | 02:31:10 | 00:00:00 | |
| GOEST3-10 | 2026-09-04 00:50:45 | 53.31919 | 9.57818 | 107° | 135km/h | 7477m | -15.8m/s | -21.4°C | 81.5% | 398.0hPa | 2.4V | 08:00:00 | 02:31:15 | 00:00:00 | |
| DO2SHX-10 | 2026-09-04 00:50:44 | 53.31929 | 9.57763 | 106° | 135km/h | 7493m | -15.2m/s | -21.5°C | 81.8% | 397.2hPa | 2.5V | 00:00:00 | 02:31:14 | 00:00:00 | |
| DL1XH-15 | 2026-09-04 00:50:42 | 53.31964 | 9.57542 | 103° | 133km/h | 7540m | -11.8m/s | -22°C | 82.3% | 394.4hPa | 2.4V | 08:00:58 | 02:31:10 | 00:00:00 | |
| DB0DAN | 2026-09-04 00:50:40 | 53.31965 | 9.57542 | 104° | 128km/h | 7540m | -11.9m/s | -22°C | 78.6% | 394.39hPa | 2.4V | 00:00:00 | 00:00:00 | 00:00:00 | |
| DL1XH-west | 2026-09-04 00:50:39 | 53.31973 | 9.57487 | 105° | 131km/h | 7551m | -13.1m/s | -22.1°C | 83.3% | 393.9hPa | 2.5V | 08:01:41 | 02:31:09 | 00:00:00 | |
| AA1-15 | 2026-09-04 00:50:38 | 53.31981 | 9.57432 | 105° | 133km/h | 7564m | -13m/s | -22.2°C | 82.6% | 393.2hPa | 2.5V | 08:01:41 | 02:31:08 | 00:00:00 | |
| DF8AY | 2026-09-04 00:50:37 | 53.32030 | 9.57106 | 105° | 131km/h | 7644m | -12.7m/s | -22.8°C | 83.4% | 389hPa | 2.4V | 08:01:41 | 02:31:02 | 00:00:00 | |
| DM0DOS-11 | 2026-09-04 00:50:37 | 53.32006 | 9.57270 | 103° | 131km/h | 7607m | -14.5m/s | -22.6°C | 80.6% | 391.1hPa | 2.4V | 08:01:03 | 02:31:05 | 00:00:00 | |
| DO2SHX-10 | 2026-09-04 00:50:35 | 53.32006 | 9.57269 | 104° | 131km/h | 7608m | -14.5m/s | -22.5°C | 80.6% | 391.0hPa | 2.4V | 08:01:00 | 02:31:05 | 00:00:00 | |
| DF8AY-15 | 2026-09-04 00:50:34 | 53.32014 | 9.57215 | 105° | 133km/h | 7620m | -11.5m/s | -22.6°C | 81.9% | 390.2hPa | 2.5V | 08:01:00 | 02:31:04 | 00:00:00 | |
| DL1XH-15 | 2026-09-04 00:50:32 | 53.32047 | 9.56998 | 105° | 131km/h | 7670m | -13.7m/s | -23°C | 82.6% | 387.8hPa | 2.4V | 08:01:08 | 02:31:00 | 00:00:00 | |
| BIOWL1-15 | 2026-09-04 00:50:29 | 53.32055 | 9.56943 | 104° | 131km/h | 7683m | -13.8m/s | -23.1°C | 84.5% | 387.1hPa | 2.5V | 08:01:41 | 02:30:59 | 00:00:00 | |
| DL1XH1-15 | 2026-09-04 00:50:29 | 53.32094 | 9.56670 | 104° | 131km/h | 7745m | -13.1m/s | -23.6°C | 86.8% | 383.8hPa | 2.5V | 08:01:14 | 02:30:54 | 00:00:00 | |
| DL1XH-west | 2026-09-04 00:50:28 | 53.32063 | 9.56889 | 103° | 131km/h | 7697m | -13.8m/s | -23.2°C | 84.9% | 386.4hPa | 2.5V | 08:01:41 | 02:30:58 | 00:00:00 | |
| DO2JMG | 2026-09-04 00:50:27 | 53.32071 | 9.56835 | 102° | 131km/h | 7711m | -14m/s | -23.3°C | 85.1% | 385.7hPa | 2.4V | 08:01:41 | 02:30:57 | 00:00:00 | |
| DB0DAN | 2026-09-04 00:50:25 | 53.32086 | 9.56725 | 104° | 126km/h | 7734m | -11.3m/s | -23.5°C | 82.6% | 384.29hPa | 2.4V | 00:00:00 | 00:00:00 | 00:00:00 | |
| GOEST3-10 | 2026-09-04 00:50:25 | 53.32086 | 9.56725 | 105° | 131km/h | 7734m | -11.3m/s | -23.4°C | 86.7% | 384.2hPa | 2.4V | 00:00:00 | 02:30:55 | 00:00:00 | |
| DL1XH-15 | 2026-09-04 00:50:23 | 53.32126 | 9.56454 | 102° | 133km/h | 7798m | -11.9m/s | -23.9°C | 89.3% | 381hPa | 2.4V | 08:01:18 | 02:30:50 | 00:00:00 | |
| BIOWL1-15 | 2026-09-04 00:50:19 | 53.32134 | 9.56398 | 104° | 135km/h | 7810m | -11.4m/s | -24°C | 90.6% | 380.4hPa | 2.5V | 08:01:41 | 02:30:49 | 00:00:00 | |
| AA1-15 | 2026-09-04 00:50:17 | 53.32150 | 9.56287 | 103° | 137km/h | 7833m | -11.8m/s | -24.2°C | 91.9% | 379.2hPa | 2.4V | 08:01:41 | 02:30:47 | 00:00:00 | |
| DF8AY | 2026-09-04 00:50:17 | 53.32207 | 9.55895 | 103° | 137km/h | 7918m | -12.1m/s | -24.8°C | 95.7% | 374.8hPa | 2.4V | 08:01:41 | 02:30:40 | 00:00:00 | |
| DM0DOS-11 | 2026-09-04 00:50:16 | 53.32166 | 9.56174 | 103° | 139km/h | 7857m | -11.9m/s | -24.4°C | 91.5% | 378hPa | 2.4V | 08:01:23 | 02:30:45 | 00:00:00 | |
| DL1XH1-15 | 2026-09-04 00:50:16 | 53.32174 | 9.56118 | 104° | 137km/h | 7868m | -11.8m/s | -24.5°C | 91.9% | 377.4hPa | 2.5V | 08:01:24 | 02:30:44 | 00:00:00 | |
| BIOWL1-15 | 2026-09-04 00:50:10 | 53.32265 | 9.55498 | 104° | 137km/h | 8004m | -12.5m/s | -25.5°C | 100% | 370.5hPa | 2.4V | 08:01:41 | 02:30:33 | 00:00:00 | |
| DB0DAN | 2026-09-04 00:50:10 | 53.32207 | 9.55895 | 103° | 131km/h | 7918m | -12.1m/s | -24.8°C | 91% | 374.79hPa | 2.4V | 00:00:00 | 00:00:00 | 00:00:00 | |
| GOEST3-10 | 2026-09-04 00:50:10 | 53.32207 | 9.55895 | 104° | 137km/h | 7919m | -12.1m/s | -24.8°C | 95.6% | 374.7hPa | 2.4V | 00:00:00 | 00:00:00 | 00:00:00 | |
| DL1XH1-15 | 2026-09-04 00:50:09 | 53.32256 | 9.55555 | 103° | 139km/h | 7992m | -13.2m/s | -25.4°C | 99.7% | 371.1hPa | 2.4V | 08:01:34 | 02:30:34 | 00:00:00 | |
| DL1XH-west | 2026-09-04 00:50:07 | 53.32232 | 9.55725 | 104° | 137km/h | 7953m | -14.3m/s | -25.1°C | 97.3% | 373.1hPa | 2.5V | 08:01:41 | 02:30:37 | 00:00:00 | |
| AA1-15 | 2026-09-04 00:50:06 | 53.32240 | 9.55670 | 103° | 137km/h | 7967m | -13.2m/s | -25.2°C | 97.5% | 372.4hPa | 2.5V | 08:01:41 | 02:30:36 | 00:00:00 | |
| DM0DOS-11 | 2026-09-04 00:50:06 | 53.32248 | 9.55612 | 102° | 141km/h | 7979m | -12.2m/s | -25.3°C | 98.2% | 371.7hPa | 2.4V | 08:01:33 | 02:30:35 | 00:00:00 | |
| DO2JMG | 2026-09-04 00:50:04 | 53.32256 | 9.55555 | 104° | 139km/h | 7992m | -13.2m/s | -25.4°C | 99.6% | 371.1hPa | 2.4V | 08:01:41 | 02:30:34 | 00:00:00 | |
| BIOWL9-15 | 2026-09-04 00:50:03 | 53.32265 | 9.55498 | 103° | 135km/h | 8004m | -12.5m/s | -25.5°C | 96.9% | 370.5hPa | 2.5V | 00:00:00 | 00:00:00 | 00:00:00 | |
| DL1XH-15 | 2026-09-04 00:50:02 | 53.32289 | 9.55327 | 104° | 141km/h | 8041m | -12m/s | -25.8°C | 0% | 368.4hPa | 2.5V | 08:01:38 | 02:30:30 | 00:00:00 | |
| DF8AY | 2026-09-04 00:50:01 | 53.32281 | 9.55384 | 104° | 141km/h | 8029m | -12m/s | -25.7°C | 100% | 369.1hPa | 2.5V | 08:01:41 | 02:30:31 | 00:00:00 | |
| BIOWL1-15 | 2026-09-04 00:49:59 | 53.32314 | 9.55155 | 103° | 141km/h | 8078m | -13.5m/s | -26.1°C | 100% | 366.7hPa | 2.4V | 08:01:41 | 02:30:27 | 00:00:00 | |
| DL1XH-west | 2026-09-04 00:49:56 | 53.32322 | 9.55098 | 104° | 137km/h | 8090m | -12.1m/s | -26.2°C | 100% | 365.9hPa | 2.5V | 08:02:32 | 02:30:26 | 00:00:00 | |
| DL1XH1-15 | 2026-09-04 00:49:56 | 53.32338 | 9.54985 | 103° | 141km/h | 8114m | -13m/s | -26.4°C | 0% | 364.8hPa | 2.4V | 08:01:44 | 02:30:24 | 00:00:00 | |
| AA1-15 | 2026-09-04 00:49:56 | 53.32330 | 9.55042 | 103° | 137km/h | 8102m | -12m/s | -26.3°C | 100% | 365.3hPa | 2.5V | 08:02:32 | 02:30:25 | 00:00:00 | |
| DO2JMG | 2026-09-04 00:49:53 | 53.32346 | 9.54927 | 103° | 139km/h | 8127m | -14.6m/s | -26.5°C | 100% | 364.1hPa | 2.4V | 08:02:32 | 02:30:23 | 00:00:00 | |
| DF8AY | 2026-09-04 00:49:51 | 53.32364 | 9.54813 | 104° | 137km/h | 8153m | -13.1m/s | -26.8°C | 100% | 362.8hPa | 2.4V | 08:03:23 | 02:30:21 | 00:00:00 | |
| BIOWL1-15 | 2026-09-04 00:49:47 | 53.32399 | 9.54584 | 105° | 142km/h | 8199m | -12.9m/s | -27.1°C | 100% | 360.5hPa | 2.4V | 08:02:32 | 02:30:17 | 00:00:00 | |
| DM0DOS-11 | 2026-09-04 00:49:46 | 53.32418 | 9.54469 | 104° | 141km/h | 8224m | -12.4m/s | -27.4°C | 0% | 359.2hPa | 2.4V | 08:01:53 | 02:30:15 | 00:00:00 | |
| DL1XH-west | 2026-09-04 00:49:46 | 53.32408 | 9.54526 | 106° | 141km/h | 8211m | -13.8m/s | -27.3°C | 100% | 359.9hPa | 2.4V | 08:02:32 | 02:30:16 | 00:00:00 | |
| AA1-15 | 2026-09-04 00:49:45 | 53.32427 | 9.54412 | 105° | 139km/h | 8236m | -12.4m/s | -27.5°C | 100% | 358.6hPa | 2.4V | 08:02:32 | 02:30:14 | 00:00:00 | |
| DO2SHX-10 | 2026-09-04 00:49:44 | 53.32427 | 9.54412 | 106° | 141km/h | 8236m | -12.4m/s | -27.5°C | 0% | 358.5hPa | 2.5V | 00:00:00 | 02:30:14 | 00:00:00 | |
| DB0DAN | 2026-09-04 00:49:40 | 53.32466 | 9.54184 | 106° | 137km/h | 8277m | -12m/s | -27.9°C | 100% | 356.58hPa | 2.5V | 00:00:00 | 00:00:00 | 00:00:00 | |
| DO2JMG | 2026-09-04 00:49:40 | 53.32466 | 9.54184 | 106° | 144km/h | 8277m | -12m/s | -27.9°C | 100% | 356.6hPa | 2.5V | 08:02:32 | 02:30:10 | 00:00:00 | |
| DM0DOS-11 | 2026-09-04 00:49:39 | 53.32518 | 9.53895 | 106° | 142km/h | 8329m | -13m/s | -27.9°C | 96.6% | 354hPa | 2.5V | 08:02:03 | 02:30:05 | 00:00:00 | |
| BIOWL1-15 | 2026-09-04 00:49:37 | 53.32529 | 9.53837 | 107° | 146km/h | 8342m | -12m/s | -28.1°C | 96.2% | 353.4hPa | 2.5V | 08:02:32 | 02:30:04 | 00:00:00 | |
| DL1XH1-15 | 2026-09-04 00:49:36 | 53.32529 | 9.53837 | 107° | 146km/h | 8342m | -12m/s | -28.1°C | 97.4% | 353.4hPa | 2.5V | 08:02:04 | 02:30:04 | 00:00:00 | |
| DL1XH-west | 2026-09-04 00:49:35 | 53.32518 | 9.53895 | 106° | 142km/h | 8329m | -13m/s | -28°C | 96% | 354hPa | 2.5V | 08:02:32 | 02:30:05 | 00:00:00 | |
| AA1-15 | 2026-09-04 00:49:34 | 53.32550 | 9.53721 | 107° | 141km/h | 8362m | -10.8m/s | -28.3°C | 96.9% | 352.1hPa | 2.4V | 08:02:32 | 02:30:02 | 00:00:00 | |
| DO2JMG | 2026-09-04 00:49:29 | 53.32582 | 9.53548 | 108° | 142km/h | 8393m | -11m/s | -28.6°C | 98.8% | 350.7hPa | 2.5V | 08:02:32 | 02:29:59 | 00:00:00 | |
| DO2SHX-10 | 2026-09-04 00:49:29 | 53.32582 | 9.53548 | 108° | 141km/h | 8393m | -11.0m/s | -28.5°C | 0% | 350.6hPa | 2.5V | 00:00:00 | 02:29:59 | 00:00:00 | |
| DF5WG-10 | 2026-09-04 00:49:28 | 53.32593 | 9.53491 | 109° | 141km/h | 8404m | -11.5m/s | -28.6°C | 0% | 350.0hPa | 2.5V | 00:00:00 | 02:29:58 | 00:00:00 | |
| DL1XH1-15 | 2026-09-04 00:49:26 | 53.32637 | 9.53265 | 107° | 141km/h | 8451m | -11.8m/s | -29°C | 94.5% | 348hPa | 2.5V | 08:02:14 | 02:29:54 | 00:00:00 | |
| DB0DAN | 2026-09-04 00:49:25 | 53.32626 | 9.53322 | 107° | 137km/h | 8439m | -13m/s | -29°C | 90.8% | 348.56hPa | 2.4V | 00:00:00 | 00:00:00 | 00:00:00 | |
| DL1XH-west | 2026-09-04 00:49:25 | 53.32626 | 9.53322 | 107° | 142km/h | 8439m | -13m/s | -29°C | 94.5% | 348.6hPa | 2.4V | 08:02:32 | 02:29:55 | 00:00:00 | |
| AP2371 | 2026-09-04 00:49:24 | 53.32637 | 9.53264 | 108° | 141km/h | 8451m | -11.8m/s | -29.0°C | 89.3% | 348.0hPa | 2.5V | 00:00:00 | 00:00:00 | 00:00:00 | |
| DO2SHX-10 | 2026-09-04 00:49:23 | 53.32648 | 9.53209 | 109° | 139km/h | 8462m | -9.3m/s | -29.0°C | 93.1% | 347.3hPa | 2.5V | 00:00:00 | 02:29:53 | 00:00:00 | |
| DL1XH-15 | 2026-09-04 00:49:22 | 53.32682 | 9.53043 | 108° | 139km/h | 8493m | -10.7m/s | -29.1°C | 88% | 345.8hPa | 2.4V | 08:02:18 | 02:29:50 | 00:00:00 | |
| AA1-15 | 2026-09-04 00:49:21 | 53.32671 | 9.53098 | 109° | 137km/h | 8482m | -10.5m/s | -29.1°C | 88.2% | 346.4hPa | 2.4V | 08:02:32 | 02:29:51 | 00:00:00 | |
| DO2JMG | 2026-09-04 00:49:18 | 53.32705 | 9.52932 | 110° | 142km/h | 8515m | -12.2m/s | -29.3°C | 86.7% | 344.8hPa | 2.5V | 08:02:32 | 02:29:48 | 00:00:00 | |
| DF5WG-10 | 2026-09-04 00:49:18 | 53.32705 | 9.52932 | 110° | 139km/h | 8515m | -12.2m/s | -29.3°C | 87.7% | 344.7hPa | 2.5V | 00:00:00 | 02:29:48 | 00:00:00 | |
| DO2SHX-10 | 2026-09-04 00:49:17 | 53.32716 | 9.52876 | 110° | 139km/h | 8526m | -11.5m/s | -29.3°C | 86.7% | 344.2hPa | 2.4V | 00:00:00 | 02:29:47 | 00:00:00 | |
| DL1XH1-15 | 2026-09-04 00:49:16 | 53.32752 | 9.52709 | 110° | 141km/h | 8558m | -9.8m/s | -29.4°C | 82.6% | 342.7hPa | 2.4V | 08:02:24 | 02:29:44 | 00:00:00 | |
| DL1XH-west | 2026-09-04 00:49:15 | 53.32740 | 9.52765 | 110° | 137km/h | 8548m | -11m/s | -29.4°C | 83% | 343.2hPa | 2.4V | 08:02:32 | 02:29:45 | 00:00:00 | |
| BIOWL1-15 | 2026-09-04 00:49:13 | 53.32788 | 9.52543 | 111° | 137km/h | 8589m | -13m/s | -29.5°C | 80.1% | 341.3hPa | 2.4V | 08:02:32 | 02:29:41 | 00:00:00 | |
| DL1XH-15 | 2026-09-04 00:49:12 | 53.32800 | 9.52488 | 109° | 141km/h | 8601m | -12m/s | -29.5°C | 77% | 340.7hPa | 2.4V | 08:02:28 | 02:29:40 | 00:00:00 | |
| AA1-15 | 2026-09-04 00:49:11 | 53.32800 | 9.52488 | 110° | 141km/h | 8601m | -12m/s | -29.5°C | 78.7% | 340.7hPa | 2.4V | 08:02:32 | 02:29:40 | 00:00:00 | |
| DB0DAN | 2026-09-04 00:49:10 | 53.32800 | 9.52488 | 110° | 135km/h | 8601m | -12m/s | -29.5°C | 72.5% | 340.69hPa | 2.4V | 00:00:00 | 00:00:00 | 00:00:00 | |
| DO2JMG | 2026-09-04 00:49:07 | 53.32837 | 9.52322 | 110° | 141km/h | 8634m | -9.2m/s | -29.6°C | 70.8% | 339hPa | 2.5V | 08:02:32 | 02:29:37 | 00:00:00 | |
| DL1XH1-15 | 2026-09-04 00:49:06 | 53.32875 | 9.52154 | 111° | 144km/h | 8663m | -11m/s | -29.5°C | 61.2% | 337.7hPa | 2.4V | 08:02:34 | 02:29:34 | 00:00:00 | |
| DL1XH-west | 2026-09-04 00:49:04 | 53.32875 | 9.52154 | 111° | 144km/h | 8664m | -11m/s | -29.5°C | 64.7% | 337.7hPa | 2.4V | 08:03:23 | 02:29:34 | 00:00:00 | |
| GOEST3-10 | 2026-09-04 00:49:04 | 53.32875 | 9.52154 | 112° | 142km/h | 8664m | -10.9m/s | -29.4°C | 61.2% | 337.6hPa | 2.4V | 00:00:00 | 02:29:34 | 00:00:00 | |
| DO2LYB-13 | 2026-09-04 00:49:03 | 53.32875 | 9.52154 | 112° | 144km/h | 8664m | -11.0m/s | -29.5°C | 57.3% | 337.7hPa | 2.4V | 08:03:00 | 00:00:00 | 00:00:00 | |
| DL1XH-15 | 2026-09-04 00:49:02 | 53.32925 | 9.51930 | 111° | 142km/h | 8703m | -11m/s | -29.8°C | 61.6% | 335.8hPa | 2.4V | 08:02:38 | 02:29:30 | 00:00:00 | |
| BIOWL1-15 | 2026-09-04 00:49:01 | 53.32913 | 9.51987 | 111° | 142km/h | 8694m | -8.1m/s | -29.7°C | 65.5% | 336.2hPa | 2.5V | 08:03:23 | 02:29:31 | 00:00:00 | |
| AA1-15 | 2026-09-04 00:49:00 | 53.32925 | 9.51930 | 111° | 142km/h | 8703m | -11m/s | -29.8°C | 65.6% | 335.8hPa | 2.4V | 08:03:23 | 02:29:30 | 00:00:00 | |
| DO2JMG | 2026-09-04 00:48:57 | 53.32964 | 9.51763 | 110° | 141km/h | 8737m | -10m/s | -30.1°C | 65% | 334.1hPa | 2.4V | 08:03:23 | 02:29:27 | 00:00:00 | |
| DF8AY | 2026-09-04 00:48:56 | 53.32976 | 9.51707 | 111° | 144km/h | 8746m | -9.3m/s | -30.2°C | 65.3% | 333.7hPa | 2.5V | 08:03:23 | 02:29:26 | 00:00:00 | |
| DL1XH-west | 2026-09-04 00:48:53 | 53.33014 | 9.51539 | 110° | 142km/h | 8779m | -11m/s | -30.4°C | 64.2% | 332.2hPa | 2.4V | 08:03:23 | 02:29:23 | 00:00:00 | |
| BIOWL1-15 | 2026-09-04 00:48:51 | 53.33040 | 9.51427 | 110° | 141km/h | 8800m | -10.8m/s | -30.6°C | 63.7% | 331.2hPa | 2.5V | 08:03:23 | 02:29:21 | 00:00:00 | |
| AA1-15 | 2026-09-04 00:48:50 | 53.33052 | 9.51371 | 111° | 144km/h | 8811m | -11.4m/s | -30.6°C | 63.5% | 330.7hPa | 2.5V | 08:03:23 | 02:29:20 | 00:00:00 | |
| DO2JMG | 2026-09-04 00:48:46 | 53.33103 | 9.51145 | 111° | 144km/h | 8854m | -10.3m/s | -31°C | 63.5% | 328.7hPa | 2.4V | 08:03:23 | 02:29:16 | 00:00:00 | |
| DM0DOS-11 | 2026-09-04 00:48:46 | 53.33116 | 9.51089 | 110° | 141km/h | 8866m | -13.1m/s | -31.1°C | 59.6% | 328.3hPa | 2.5V | 08:02:53 | 02:29:15 | 00:00:00 | |
| SONCRA | 2026-09-04 00:48:45 | 53.33116 | 9.51089 | 110° | 141km/h | 8866m | -13.1m/s | -31.1°C | 55.7% | 328.3hPa | 2.4V | 00:00:00 | 00:00:00 | 00:00:00 | |
| DL1XH-west | 2026-09-04 00:48:42 | 53.33154 | 9.50918 | 111° | 142km/h | 8898m | -8.4m/s | -31.4°C | 63.7% | 326.7hPa | 2.4V | 08:03:23 | 02:29:12 | 00:00:00 | |
| DL1XH-15 | 2026-09-04 00:48:42 | 53.33179 | 9.50804 | 111° | 144km/h | 8919m | -11.7m/s | -31.6°C | 59.6% | 325.8hPa | 2.4V | 08:02:58 | 02:29:10 | 00:00:00 | |
| BIOWL1-15 | 2026-09-04 00:48:42 | 53.33179 | 9.50804 | 111° | 144km/h | 8919m | -11.7m/s | -31.6°C | 63% | 325.8hPa | 2.4V | 08:03:23 | 02:29:10 | 00:00:00 | |
| AA1-15 | 2026-09-04 00:48:40 | 53.33192 | 9.50747 | 110° | 146km/h | 8930m | -10.7m/s | -31.7°C | 62.7% | 325.3hPa | 2.5V | 08:03:23 | 02:29:09 | 00:00:00 | |
| DO2JMG | 2026-09-04 00:48:35 | 53.33243 | 9.50519 | 111° | 142km/h | 8974m | -13.2m/s | -32°C | 62.3% | 323.4hPa | 2.4V | 08:03:23 | 02:29:05 | 00:00:00 | |
| DL1XH-west | 2026-09-04 00:48:33 | 53.33283 | 9.50348 | 112° | 146km/h | 9011m | -9.4m/s | -32.4°C | 61.9% | 321.5hPa | 2.4V | 08:03:23 | 02:29:02 | 00:00:00 | |
| DL1XH-15 | 2026-09-04 00:48:32 | 53.33309 | 9.50234 | 110° | 142km/h | 9032m | -12.9m/s | -32.5°C | 56.7% | 320.7hPa | 2.4V | 08:03:08 | 02:29:00 | 00:00:00 | |
| BIOWL1-15 | 2026-09-04 00:48:29 | 53.33322 | 9.50178 | 111° | 142km/h | 9043m | -11.7m/s | -32.6°C | 61.9% | 320hPa | 2.4V | 08:03:23 | 02:28:59 | 00:00:00 | |
| BIOWL7-15 | 2026-09-04 00:48:29 | 53.33322 | 9.50178 | 112° | 142km/h | 9044m | -11.7m/s | -32.6°C | 53.3% | 320.0hPa | 2.4V | 00:00:00 | 00:00:00 | 00:00:00 | |
| DF5WG-10 | 2026-09-04 00:48:28 | 53.33335 | 9.50121 | 112° | 146km/h | 9055m | -11.8m/s | -32.7°C | 57.8% | 319.5hPa | 2.4V | 00:00:00 | 02:28:58 | 00:00:00 | |
| DB0DAN | 2026-09-04 00:48:25 | 53.33375 | 9.49949 | 112° | 139km/h | 9086m | -12.2m/s | -33°C | 54.5% | 318.17hPa | 2.4V | 00:00:00 | 00:00:00 | 00:00:00 | |
| DO2JMG | 2026-09-04 00:48:24 | 53.33388 | 9.49892 | 111° | 144km/h | 9097m | -10.7m/s | -33.1°C | 63.5% | 317.6hPa | 2.4V | 08:03:23 | 02:28:54 | 00:00:00 | |
| DL8OAI-8 | 2026-09-04 00:48:24 | 53.33388 | 9.49892 | 112° | 144km/h | 9097m | -10.7m/s | -33.1°C | 55.2% | 317.6hPa | 2.4V | 08:03:00 | 00:00:00 | 00:00:00 | |
| DO2SHX-10 | 2026-09-04 00:48:23 | 53.33401 | 9.49835 | 113° | 146km/h | 9107m | -9.8m/s | -33.2°C | 60.0% | 317.1hPa | 2.4V | 00:00:00 | 02:28:53 | 00:00:00 | |
| DL1XH-15 | 2026-09-04 00:48:22 | 53.33442 | 9.49664 | 110° | 146km/h | 9138m | -11.6m/s | -33.5°C | 59.6% | 315.9hPa | 2.4V | 08:03:18 | 02:28:50 | 00:00:00 | |
| DL1XH-west | 2026-09-04 00:48:21 | 53.33442 | 9.49664 | 110° | 146km/h | 9138m | -11.6m/s | -33.5°C | 64.6% | 315.9hPa | 2.4V | 08:03:23 | 02:28:50 | 00:00:00 | |
| BIOWL1-15 | 2026-09-04 00:48:20 | 53.33469 | 9.49547 | 111° | 148km/h | 9162m | -13.9m/s | -33.8°C | 65.1% | 314.8hPa | 2.4V | 08:03:23 | 02:28:48 | 00:00:00 | |
| DO2SHX-10 | 2026-09-04 00:48:20 | 53.33442 | 9.49664 | 111° | 148km/h | 9138m | -11.6m/s | -33.5°C | 59.6% | 315.8hPa | 2.4V | 08:03:00 | 02:28:50 | 00:00:00 | |
| DM0DOS-11 | 2026-09-04 00:48:19 | 53.33508 | 9.49375 | 111° | 146km/h | 9198m | -11.5m/s | -34.2°C | 62.8% | 313.1hPa | 2.5V | 08:03:23 | 02:28:45 | 00:00:00 | |
| AA1-15 | 2026-09-04 00:48:19 | 53.33455 | 9.49606 | 111° | 148km/h | 9149m | -11.8m/s | -33.6°C | 64.7% | 315.4hPa | 2.4V | 08:03:23 | 02:28:49 | 00:00:00 | |
| GOEST3-10 | 2026-09-04 00:48:19 | 53.33455 | 9.49606 | 112° | 146km/h | 9149m | -11.7m/s | -33.6°C | 60.0% | 315.4hPa | 2.4V | 00:00:00 | 00:00:00 | 00:00:00 | |
| DF5WG-10 | 2026-09-04 00:48:18 | 53.33469 | 9.49547 | 112° | 146km/h | 9162m | -13.8m/s | -33.7°C | 60.6% | 314.8hPa | 2.4V | 00:00:00 | 02:28:48 | 00:00:00 | |
| DO2SHX-10 | 2026-09-04 00:48:17 | 53.33482 | 9.49490 | 112° | 144km/h | 9174m | -12.5m/s | -33.9°C | 61.8% | 314.1hPa | 2.4V | 00:00:00 | 02:28:47 | 00:00:00 | |
| DL1XH1-15 | 2026-09-04 00:48:15 | 53.33522 | 9.49317 | 110° | 148km/h | 9209m | -11.4m/s | -34.3°C | 63.4% | 312.6hPa | 2.4V | 08:03:24 | 02:28:44 | 00:00:00 | |
| DO2JMG | 2026-09-04 00:48:13 | 53.33535 | 9.49259 | 111° | 144km/h | 9220m | -10.4m/s | -34.4°C | 67.1% | 312.1hPa | 2.4V | 08:04:14 | 02:28:43 | 00:00:00 | |
| DL1XH-15 | 2026-09-04 00:48:13 | 53.33575 | 9.49086 | 111° | 144km/h | 9252m | -13.6m/s | -34.6°C | 64.6% | 310.9hPa | 2.5V | 08:03:28 | 02:28:40 | 00:00:00 | |
| DL1XH-west | 2026-09-04 00:48:11 | 53.33575 | 9.49086 | 111° | 144km/h | 9252m | -13.6m/s | -34.6°C | 68.1% | 310.9hPa | 2.5V | 08:04:14 | 02:28:40 | 00:00:00 | |
| DB0DAN | 2026-09-04 00:48:10 | 53.33575 | 9.49086 | 111° | 137km/h | 9252m | -13.6m/s | -34.6°C | 59.9% | 310.87hPa | 2.5V | 00:00:00 | 00:00:00 | 00:00:00 | |
| DF2AP-13 | 2026-09-04 00:48:10 | 53.33575 | 9.49086 | 112° | 148km/h | 9252m | -13.5m/s | -34.6°C | 64.6% | 310.8hPa | 2.5V | 00:00:00 | 02:28:40 | 00:00:00 | |
| DL1XH1-15 | 2026-09-04 00:48:09 | 53.33654 | 9.48736 | 110° | 148km/h | 9319m | -11.4m/s | -35.2°C | 66.8% | 307.9hPa | 2.5V | 08:03:34 | 02:28:34 | 00:00:00 | |
| AA1-15 | 2026-09-04 00:48:09 | 53.33588 | 9.49028 | 110° | 146km/h | 9265m | -12.7m/s | -34.7°C | 68.4% | 310.3hPa | 2.5V | 08:04:14 | 02:28:39 | 00:00:00 | |
| BIOWL1-15 | 2026-09-04 00:48:07 | 53.33615 | 9.48912 | 111° | 150km/h | 9286m | -10.7m/s | -34.9°C | 69.2% | 309.3hPa | 2.4V | 08:04:14 | 02:28:37 | 00:00:00 | |
| DM0DOS-11 | 2026-09-04 00:48:06 | 53.33641 | 9.48795 | 111° | 150km/h | 9307m | -10.8m/s | -35.1°C | 66.5% | 308.4hPa | 2.4V | 08:03:33 | 02:28:35 | 00:00:00 | |
| DO2JMG | 2026-09-04 00:48:03 | 53.33668 | 9.48678 | 112° | 150km/h | 9331m | -10.9m/s | -35.3°C | 69.7% | 307.5hPa | 2.5V | 08:04:14 | 02:28:33 | 00:00:00 | |
| DL8OAI-8 | 2026-09-04 00:48:03 | 53.33668 | 9.48677 | 113° | 150km/h | 9331m | -10.9m/s | -35.3°C | 62.3% | 307.5hPa | 2.4V | 08:04:00 | 00:00:00 | 00:00:00 | |
| DL1XH-15 | 2026-09-04 00:48:02 | 53.33709 | 9.48502 | 110° | 150km/h | 9362m | -10.1m/s | -35.5°C | 68.7% | 306.1hPa | 2.4V | 08:03:38 | 02:28:30 | 00:00:00 | |
| DL1XH-west | 2026-09-04 00:48:01 | 53.33696 | 9.48561 | 112° | 148km/h | 9351m | -10.3m/s | -35.5°C | 70.2% | 306.5hPa | 2.4V | 08:04:14 | 02:28:31 | 00:00:00 | |
| DL3AQ-11 | 2026-09-04 00:48:01 | 53.33709 | 9.48502 | 110° | 150km/h | 9362m | -10.1m/s | -35.6°C | 63.6% | 306.1hPa | 2.4V | 00:00:00 | 00:00:00 | 00:00:00 | |
| DM0DOS-11 | 2026-09-04 00:47:59 | 53.33774 | 9.48209 | 110° | 146km/h | 9415m | -10.3m/s | -36°C | 70.3% | 303.8hPa | 2.4V | 08:03:43 | 02:28:25 | 00:00:00 | |
| AA1-15 | 2026-09-04 00:47:58 | 53.33736 | 9.48385 | 111° | 146km/h | 9380m | -10.7m/s | -35.7°C | 71.1% | 305.1hPa | 2.5V | 08:04:14 | 02:28:28 | 00:00:00 | |
| DF8AY | 2026-09-04 00:47:57 | 53.33748 | 9.48327 | 109° | 146km/h | 9391m | -12.8m/s | -35.8°C | 71.3% | 304.8hPa | 2.5V | 08:04:14 | 02:28:27 | 00:00:00 | |
| SONDE2-11 | 2026-09-04 00:47:57 | 53.33761 | 9.48268 | 110° | 150km/h | 9404m | -12.2m/s | -35.9°C | 64.5% | 304.3hPa | 2.4V | 00:00:00 | 00:00:00 | 00:00:00 | |
| DB0DAN | 2026-09-04 00:47:55 | 53.33774 | 9.48209 | 110° | 139km/h | 9415m | -10.3m/s | -36°C | 65.1% | 303.75hPa | 2.4V | 00:00:00 | 00:00:00 | 00:00:00 | |
| DL1XH1-15 | 2026-09-04 00:47:55 | 53.33787 | 9.48150 | 109° | 148km/h | 9425m | -11.2m/s | -36.1°C | 70.5% | 303.3hPa | 2.4V | 08:03:44 | 02:28:24 | 00:00:00 | |
| DO2JMG | 2026-09-04 00:47:53 | 53.33800 | 9.48092 | 111° | 148km/h | 9437m | -11.9m/s | -36.2°C | 72.6% | 302.8hPa | 2.4V | 08:04:14 | 02:28:23 | 00:00:00 | |
| DL1XH-west | 2026-09-04 00:47:51 | 53.33825 | 9.47975 | 110° | 146km/h | 9459m | -10.4m/s | -36.4°C | 73.5% | 301.8hPa | 2.5V | 08:04:14 | 02:28:21 | 00:00:00 | |
| DB0NH | 2026-09-04 00:47:50 | 53.33838 | 9.47917 | 112° | 153km/h | 9470m | -10.3m/s | -36.4°C | 72.0% | 301.3hPa | 2.4V | 00:00:00 | 02:28:20 | 00:00:00 | |
| DL1XH1-15 | 2026-09-04 00:47:49 | 53.33916 | 9.47564 | 109° | 150km/h | 9533m | -10.1m/s | -37.1°C | 71.9% | 298.5hPa | 2.4V | 08:03:54 | 02:28:14 | 00:00:00 | |
| AA1-15 | 2026-09-04 00:47:48 | 53.33865 | 9.47800 | 110° | 146km/h | 9490m | -10.3m/s | -36.7°C | 74.2% | 300.6hPa | 2.4V | 08:04:14 | 02:28:18 | 00:00:00 | |
| DF8AY | 2026-09-04 00:47:47 | 53.33878 | 9.47742 | 111° | 150km/h | 9500m | -11.1m/s | -36.8°C | 74% | 300.1hPa | 2.4V | 08:04:14 | 02:28:17 | 00:00:00 | |
| BIOWL1-15 | 2026-09-04 00:47:46 | 53.33890 | 9.47683 | 109° | 148km/h | 9511m | -10.7m/s | -36.9°C | 73.7% | 299.6hPa | 2.5V | 08:04:14 | 02:28:16 | 00:00:00 | |
| DO2JMG | 2026-09-04 00:47:43 | 53.33929 | 9.47504 | 110° | 150km/h | 9542m | -10.1m/s | -37.2°C | 73.4% | 298.1hPa | 2.4V | 08:04:14 | 02:28:13 | 00:00:00 | |
| DL1XH-15 | 2026-09-04 00:47:42 | 53.33968 | 9.47326 | 109° | 148km/h | 9570m | -9.3m/s | -37.4°C | 71.6% | 296.9hPa | 2.5V | 08:03:58 | 02:28:10 | 00:00:00 | |
| DL1XH-west | 2026-09-04 00:47:41 | 53.33955 | 9.47385 | 110° | 150km/h | 9562m | -8.4m/s | -37.3°C | 73.2% | 297.3hPa | 2.4V | 08:04:14 | 02:28:11 | 00:00:00 | |
| DB0DAN | 2026-09-04 00:47:40 | 53.33967 | 9.47326 | 110° | 141km/h | 9570m | -9.3m/s | -37.4°C | 66.1% | 296.95hPa | 2.5V | 00:00:00 | 00:00:00 | 00:00:00 | |
| AA1-15 | 2026-09-04 00:47:38 | 53.33993 | 9.47208 | 110° | 148km/h | 9589m | -10.5m/s | -37.5°C | 72.7% | 296.2hPa | 2.4V | 08:04:14 | 02:28:08 | 00:00:00 | |
| BIOWL1-15 | 2026-09-04 00:47:36 | 53.34019 | 9.47088 | 110° | 153km/h | 9609m | -10.6m/s | -37.6°C | 72.8% | 295.4hPa | 2.4V | 08:04:14 | 02:28:06 | 00:00:00 | |
| DF8AY | 2026-09-04 00:47:35 | 53.34032 | 9.47027 | 109° | 151km/h | 9619m | -10.4m/s | -37.7°C | 73.1% | 294.9hPa | 2.4V | 08:04:14 | 02:28:05 | 00:00:00 | |
| DL1XH1-15 | 2026-09-04 00:47:35 | 53.34045 | 9.46967 | 109° | 151km/h | 9629m | -8.9m/s | -37.8°C | 72.1% | 294.5hPa | 2.5V | 08:04:04 | 02:28:04 | 00:00:00 | |
| DO2SHX-10 | 2026-09-04 00:47:35 | 53.34032 | 9.47027 | 110° | 151km/h | 9619m | -10.3m/s | -37.6°C | 71.5% | 294.9hPa | 2.4V | 00:00:00 | 02:28:05 | 00:00:00 | |
| DL3AQ-11 | 2026-09-04 00:47:34 | 53.34058 | 9.46906 | 110° | 153km/h | 9638m | -10.7m/s | -37.9°C | 66.6% | 294.1hPa | 2.4V | 00:00:00 | 00:00:00 | 00:00:00 | |
| DL1XH-15 | 2026-09-04 00:47:32 | 53.34097 | 9.46724 | 109° | 155km/h | 9668m | -9m/s | -38.1°C | 73.4% | 292.8hPa | 2.4V | 08:04:08 | 02:28:00 | 00:00:00 | |
| DO2JMG | 2026-09-04 00:47:32 | 53.34071 | 9.46846 | 110° | 151km/h | 9648m | -10m/s | -37.9°C | 74.1% | 293.7hPa | 2.4V | 08:04:14 | 02:28:02 | 00:00:00 | |
| DL1XH-west | 2026-09-04 00:47:30 | 53.34097 | 9.46724 | 110° | 155km/h | 9668m | -9m/s | -38.1°C | 74.6% | 292.8hPa | 2.4V | 08:04:14 | 02:28:00 | 00:00:00 | |
| DL1XH1-15 | 2026-09-04 00:47:29 | 53.34175 | 9.46358 | 109° | 155km/h | 9723m | -10.4m/s | -38.5°C | 73.3% | 290.4hPa | 2.4V | 08:04:14 | 02:27:54 | 00:00:00 | |
| AA1-15 | 2026-09-04 00:47:28 | 53.34136 | 9.46542 | 109° | 155km/h | 9696m | -9.5m/s | -38.3°C | 75.1% | 291.6hPa | 2.5V | 08:04:14 | 02:27:57 | 00:00:00 | |
| BIOWL1-15 | 2026-09-04 00:47:26 | 53.34188 | 9.46297 | 109° | 151km/h | 9733m | -10.3m/s | -38.6°C | 75.3% | 290.1hPa | 2.4V | 08:05:05 | 02:27:53 | 00:00:00 | |
| DB0DAN | 2026-09-04 00:47:25 | 53.34162 | 9.46419 | 109° | 144km/h | 9713m | -8.7m/s | -38.4°C | 68.1% | 290.82hPa | 2.4V | 00:00:00 | 00:00:00 | 00:00:00 | |
| DF8AY | 2026-09-04 00:47:24 | 53.34175 | 9.46358 | 110° | 155km/h | 9723m | -10.4m/s | -38.5°C | 75.4% | 290.4hPa | 2.4V | 08:04:14 | 02:27:54 | 00:00:00 | |
| DO2JMG | 2026-09-04 00:47:21 | 53.34212 | 9.46173 | 109° | 157km/h | 9755m | -11.1m/s | -38.8°C | 75.1% | 289.2hPa | 2.5V | 08:05:05 | 02:27:51 | 00:00:00 | |
| DL1XH-west | 2026-09-04 00:47:20 | 53.34225 | 9.46111 | 109° | 153km/h | 9766m | -11.4m/s | -38.9°C | 75.3% | 288.7hPa | 2.4V | 08:05:05 | 02:27:50 | 00:00:00 | |
| AA1-15 | 2026-09-04 00:47:16 | 53.34274 | 9.45861 | 108° | 157km/h | 9803m | -6.6m/s | -39.2°C | 75.9% | 287hPa | 2.4V | 08:05:05 | 02:27:46 | 00:00:00 | |
| DM0DOS-11 | 2026-09-04 00:47:16 | 53.34286 | 9.45798 | 108° | 153km/h | 9811m | -8.4m/s | -39.3°C | 74.4% | 286.6hPa | 2.5V | 08:04:23 | 02:27:45 | 00:00:00 | |
| BIOWL1-15 | 2026-09-04 00:47:14 | 53.34324 | 9.45611 | 109° | 157km/h | 9841m | -10.3m/s | -39.5°C | 76% | 285.4hPa | 2.4V | 08:05:05 | 02:27:42 | 00:00:00 | |
| DF8AY | 2026-09-04 00:47:14 | 53.34388 | 9.45300 | 108° | 159km/h | 9895m | -8.7m/s | -40°C | 77% | 283.2hPa | 2.4V | 08:05:05 | 02:27:37 | 00:00:00 | |
| DO2JMG | 2026-09-04 00:47:11 | 53.34337 | 9.45549 | 108° | 155km/h | 9851m | -12.3m/s | -39.6°C | 76.1% | 285hPa | 2.4V | 08:05:05 | 02:27:41 | 00:00:00 | |
| DL1XH-west | 2026-09-04 00:47:10 | 53.34350 | 9.45488 | 109° | 155km/h | 9863m | -10.8m/s | -39.7°C | 76.2% | 284.5hPa | 2.4V | 08:05:05 | 02:27:40 | 00:00:00 | |
| AA1-15 | 2026-09-04 00:47:05 | 53.34412 | 9.45173 | 107° | 157km/h | 9912m | -9m/s | -40.1°C | 77.8% | 282.5hPa | 2.4V | 08:05:05 | 02:27:35 | 00:00:00 | |
| DF8AY | 2026-09-04 00:47:03 | 53.34435 | 9.45046 | 107° | 159km/h | 9930m | -9.6m/s | -40.3°C | 78% | 281.8hPa | 2.5V | 08:05:05 | 02:27:33 | 00:00:00 | |
| DL1XH-15 | 2026-09-04 00:47:02 | 53.34471 | 9.44855 | 107° | 161km/h | 9962m | -11.4m/s | -40.6°C | 75.7% | 280.5hPa | 2.4V | 08:04:38 | 02:27:30 | 00:00:00 | |
| DO2JMG | 2026-09-04 00:47:01 | 53.34459 | 9.44920 | 107° | 159km/h | 9951m | -11.1m/s | -40.5°C | 77.8% | 280.9hPa | 2.4V | 08:05:05 | 02:27:31 | 00:00:00 | |
| DL1XH-west | 2026-09-04 00:46:59 | 53.34483 | 9.44791 | 107° | 157km/h | 9972m | -11m/s | -40.7°C | 77.6% | 280.1hPa | 2.4V | 08:05:05 | 02:27:29 | 00:00:00 | |
| BIOWL9-15 | 2026-09-04 00:46:57 | 53.34508 | 9.44663 | 107° | 159km/h | 9994m | -10.7m/s | -40.9°C | 69.3% | 279.1hPa | 2.4V | 00:00:00 | 00:00:00 | 00:00:00 | |
| DB0DAN | 2026-09-04 00:46:55 | 53.34531 | 9.44535 | 107° | 151km/h | 10015m | -12.1m/s | -41.1°C | 67.9% | 278.33hPa | 2.4V | 00:00:00 | 00:00:00 | 00:00:00 | |
| AA1-15 | 2026-09-04 00:46:55 | 53.34531 | 9.44535 | 107° | 159km/h | 10015m | -12.1m/s | -41.1°C | 76.6% | 278.3hPa | 2.4V | 08:05:05 | 02:27:25 | 00:00:00 | |
| DF8AY | 2026-09-04 00:46:52 | 53.34567 | 9.44342 | 108° | 159km/h | 10047m | -11.2m/s | -41.4°C | 76.2% | 277hPa | 2.4V | 08:05:05 | 02:27:22 | 00:00:00 | |
| DL1XH-15 | 2026-09-04 00:46:52 | 53.34591 | 9.44215 | 107° | 159km/h | 10070m | -13.5m/s | -41.6°C | 72.1% | 276.1hPa | 2.5V | 08:04:48 | 02:27:20 | 00:00:00 | |
| DO2JMG | 2026-09-04 00:46:50 | 53.34591 | 9.44215 | 107° | 159km/h | 10070m | -13.5m/s | -41.6°C | 75.3% | 276.1hPa | 2.5V | 08:05:05 | 02:27:20 | 00:00:00 | |
| BIOWL1-15 | 2026-09-04 00:46:49 | 53.34603 | 9.44151 | 108° | 161km/h | 10082m | -12.4m/s | -41.7°C | 74.9% | 275.5hPa | 2.5V | 08:05:05 | 02:27:19 | 00:00:00 | |
| DL1XH1-15 | 2026-09-04 00:46:49 | 53.34665 | 9.43836 | 108° | 155km/h | 10134m | -10.2m/s | -42.2°C | 73.7% | 273.4hPa | 2.5V | 08:04:54 | 02:27:14 | 00:00:00 | |
| DL1XH-west | 2026-09-04 00:46:48 | 53.34616 | 9.44087 | 108° | 155km/h | 10093m | -11.2m/s | -41.8°C | 74.9% | 275hPa | 2.4V | 08:05:05 | 02:27:18 | 00:00:00 | |
| DJ2DS-15 | 2026-09-04 00:46:47 | 53.34641 | 9.43961 | 107° | 157km/h | 10115m | -10.4m/s | -42.0°C | 67.2% | 274.2hPa | 2.5V | 00:00:00 | 00:00:00 | 00:00:00 | |
| AA1-15 | 2026-09-04 00:46:44 | 53.34665 | 9.43836 | 109° | 155km/h | 10135m | -10.2m/s | -42.2°C | 75.8% | 273.4hPa | 2.5V | 08:05:05 | 02:27:14 | 00:00:00 | |
| DO2SHX-10 | 2026-09-04 00:46:44 | 53.34665 | 9.43836 | 109° | 155km/h | 10135m | -10.2m/s | -42.1°C | 73.7% | 273.3hPa | 2.4V | 00:00:00 | 02:27:14 | 00:00:00 | |
| DL1XH-15 | 2026-09-04 00:46:42 | 53.34715 | 9.43586 | 108° | 155km/h | 10174m | -11.4m/s | -42.5°C | 73.6% | 271.9hPa | 2.4V | 08:04:58 | 02:27:10 | 00:00:00 | |
| DB0DAN | 2026-09-04 00:46:40 | 53.34714 | 9.43586 | 108° | 148km/h | 10174m | -11.4m/s | -42.5°C | 67.2% | 271.89hPa | 2.4V | 00:00:00 | 00:00:00 | 00:00:00 | |
| DF8AY | 2026-09-04 00:46:40 | 53.34714 | 9.43586 | 108° | 155km/h | 10174m | -11.4m/s | -42.5°C | 76.2% | 271.9hPa | 2.4V | 08:05:05 | 02:27:10 | 00:00:00 | |
| DO2JMG | 2026-09-04 00:46:39 | 53.34727 | 9.43524 | 110° | 155km/h | 10185m | -10.7m/s | -42.6°C | 76.3% | 271.4hPa | 2.4V | 08:05:05 | 02:27:09 | 00:00:00 | |
| BIOWL1-15 | 2026-09-04 00:46:39 | 53.34766 | 9.43337 | 109° | 155km/h | 10215m | -9.9m/s | -42.9°C | 75.3% | 270.2hPa | 2.4V | 08:05:05 | 02:27:06 | 00:00:00 | |
| DL1XH-west | 2026-09-04 00:46:38 | 53.34740 | 9.43462 | 110° | 157km/h | 10196m | -10.7m/s | -42.7°C | 76.2% | 271hPa | 2.5V | 08:05:05 | 02:27:08 | 00:00:00 | |
| DO2SHX-10 | 2026-09-04 00:46:38 | 53.34740 | 9.43462 | 110° | 157km/h | 10196m | -10.6m/s | -42.6°C | 73.9% | 271.0hPa | 2.4V | 00:00:00 | 02:27:08 | 00:00:00 | |
| DM0DOS-11 | 2026-09-04 00:46:37 | 53.34779 | 9.43275 | 109° | 153km/h | 10225m | -10.2m/s | -42.9°C | 72.2% | 269.8hPa | 2.4V | 08:05:03 | 02:27:05 | 00:00:00 | |
| AA1-15 | 2026-09-04 00:46:34 | 53.34792 | 9.43213 | 109° | 153km/h | 10235m | -10.2m/s | -43°C | 73.7% | 269.3hPa | 2.4V | 08:05:05 | 02:27:04 | 00:00:00 | |
| DF8AY-15 | 2026-09-04 00:46:34 | 53.34792 | 9.43213 | 110° | 155km/h | 10235m | -10.2m/s | -43.0°C | 71.2% | 269.3hPa | 2.4V | 00:00:00 | 02:27:04 | 00:00:00 | |
| DL1XH-15 | 2026-09-04 00:46:32 | 53.34844 | 9.42966 | 109° | 159km/h | 10275m | -11.7m/s | -43.4°C | 69.8% | 267.9hPa | 2.5V | 08:05:08 | 02:27:00 | 00:00:00 | |
| DF8AY | 2026-09-04 00:46:31 | 53.34844 | 9.42966 | 109° | 159km/h | 10275m | -11.7m/s | -43.4°C | 73% | 267.9hPa | 2.5V | 08:05:56 | 02:27:00 | 00:00:00 | |
| DB0UT-7 | 2026-09-04 00:46:31 | 53.34830 | 9.43028 | 110° | 157km/h | 10264m | -10.9m/s | -43.3°C | 69.6% | 268.3hPa | 2.5V | 00:00:00 | 00:00:00 | 00:00:00 | |
| DL3AQ-11 | 2026-09-04 00:46:30 | 53.34857 | 9.42904 | 109° | 153km/h | 10285m | -9.4m/s | -43.5°C | 63.4% | 267.4hPa | 2.5V | 00:00:00 | 00:00:00 | 00:00:00 | |
| DL1XH1-15 | 2026-09-04 00:46:29 | 53.34923 | 9.42594 | 109° | 157km/h | 10339m | -7m/s | -44°C | 71.3% | 265.2hPa | 2.5V | 08:05:14 | 02:26:54 | 00:00:00 | |
| BIOWL1-15 | 2026-09-04 00:46:29 | 53.34896 | 9.42718 | 110° | 157km/h | 10320m | -11m/s | -43.9°C | 72.8% | 266hPa | 2.4V | 08:05:56 | 02:26:56 | 00:00:00 | |
| DL1XH-west | 2026-09-04 00:46:28 | 53.34870 | 9.42842 | 109° | 157km/h | 10296m | -12.1m/s | -43.6°C | 72.5% | 267hPa | 2.4V | 08:05:56 | 02:26:58 | 00:00:00 | |
| DF5WG-10 | 2026-09-04 00:46:28 | 53.34870 | 9.42842 | 110° | 157km/h | 10296m | -12.1m/s | -43.6°C | 69.5% | 266.9hPa | 2.5V | 00:00:00 | 02:26:58 | 00:00:00 | |
| DM0DOS-11 | 2026-09-04 00:46:26 | 53.34909 | 9.42656 | 109° | 155km/h | 10330m | -10.2m/s | -44°C | 71.3% | 265.6hPa | 2.5V | 08:05:13 | 02:26:55 | 00:00:00 | |
| AA1-15 | 2026-09-04 00:46:24 | 53.34923 | 9.42594 | 109° | 157km/h | 10339m | -7m/s | -44°C | 73.7% | 265.2hPa | 2.5V | 08:05:56 | 02:26:54 | 00:00:00 | |
| DO2SHX-10 | 2026-09-04 00:46:23 | 53.34936 | 9.42531 | 110° | 155km/h | 10348m | -12.0m/s | -44.1°C | 70.7% | 264.9hPa | 2.4V | 00:00:00 | 02:26:53 | 00:00:00 | |
| DL1XH-15 | 2026-09-04 00:46:22 | 53.34975 | 9.42345 | 108° | 157km/h | 10382m | -9.4m/s | -44.4°C | 72.8% | 263.5hPa | 2.4V | 08:05:18 | 02:26:50 | 00:00:00 | |
| DF8AY | 2026-09-04 00:46:19 | 53.34988 | 9.42282 | 109° | 155km/h | 10392m | -9.6m/s | -44.5°C | 75.5% | 263.2hPa | 2.4V | 08:05:56 | 02:26:49 | 00:00:00 | |
| DL1XH-west | 2026-09-04 00:46:17 | 53.35014 | 9.42157 | 110° | 155km/h | 10412m | -10m/s | -44.7°C | 76% | 262.4hPa | 2.5V | 08:05:56 | 02:26:47 | 00:00:00 | |
| DM0DOS-11 | 2026-09-04 00:46:16 | 53.35041 | 9.42031 | 110° | 157km/h | 10433m | -11.8m/s | -44.9°C | 71.9% | 261.6hPa | 2.4V | 08:05:23 | 02:26:45 | 00:00:00 | |
| BIOWL1-15 | 2026-09-04 00:46:15 | 53.35163 | 9.41468 | 110° | 161km/h | 10524m | -7.6m/s | -45.7°C | 75.4% | 258hPa | 2.4V | 08:05:56 | 02:26:36 | 00:00:00 | |
| DL1XH1-15 | 2026-09-04 00:46:15 | 53.35054 | 9.41968 | 108° | 157km/h | 10445m | -11.2m/s | -45°C | 72.3% | 261.1hPa | 2.4V | 08:05:24 | 02:26:44 | 00:00:00 | |
| AA1-15 | 2026-09-04 00:46:14 | 53.35054 | 9.41968 | 109° | 157km/h | 10445m | -11.2m/s | -45°C | 76.2% | 261.1hPa | 2.4V | 08:05:56 | 02:26:44 | 00:00:00 | |
| DL3AQ-11 | 2026-09-04 00:46:14 | 53.35067 | 9.41906 | 109° | 155km/h | 10455m | -10.1m/s | -45.1°C | 65.8% | 260.7hPa | 2.4V | 00:00:00 | 00:00:00 | 00:00:00 | |
| DL1XH-15 | 2026-09-04 00:46:13 | 53.35108 | 9.41719 | 110° | 157km/h | 10485m | -11m/s | -45.3°C | 72.5% | 259.6hPa | 2.4V | 08:05:28 | 02:26:40 | 00:00:00 | |
| DB0DAN | 2026-09-04 00:46:10 | 53.35108 | 9.41719 | 111° | 150km/h | 10485m | -11m/s | -45.3°C | 65.6% | 259.55hPa | 2.4V | 00:00:00 | 00:00:00 | 00:00:00 | |
| DL1LOL-11 | 2026-09-04 00:46:10 | 53.35108 | 9.41719 | 112° | 157km/h | 10485m | -11.0m/s | -45.3°C | 65.7% | 259.6hPa | 2.5V | 00:00:00 | 00:00:00 | 00:00:00 | |
| DL1XH1-15 | 2026-09-04 00:46:09 | 53.35191 | 9.41341 | 110° | 157km/h | 10542m | -10.6m/s | -45.9°C | 73.9% | 257.3hPa | 2.5V | 08:05:34 | 02:26:34 | 00:00:00 | |
| DL1XH-west | 2026-09-04 00:46:07 | 53.35149 | 9.41532 | 110° | 159km/h | 10515m | -8.9m/s | -45.6°C | 75.4% | 258.4hPa | 2.4V | 08:05:56 | 02:26:37 | 00:00:00 | |
| DM0DOS-11 | 2026-09-04 00:46:06 | 53.35176 | 9.41404 | 110° | 161km/h | 10532m | -9.5m/s | -45.8°C | 73.6% | 257.6hPa | 2.5V | 08:05:33 | 02:26:35 | 00:00:00 | |
| AA1-15 | 2026-09-04 00:46:04 | 53.35191 | 9.41341 | 111° | 159km/h | 10542m | -10.6m/s | -45.9°C | 75.7% | 257.3hPa | 2.5V | 08:05:56 | 02:26:34 | 00:00:00 | |
| GOEST3-10 | 2026-09-04 00:46:04 | 53.35190 | 9.41341 | 111° | 159km/h | 10542m | -10.5m/s | -45.8°C | 73.9% | 257.3hPa | 2.4V | 00:00:00 | 02:26:34 | 00:00:00 | |
| AP2371 | 2026-09-04 00:46:03 | 53.35190 | 9.41341 | 112° | 157km/h | 10542m | -10.6m/s | -45.9°C | 0% | 257.3hPa | 2.4V | 00:00:00 | 00:00:00 | 00:00:00 | |
| DL1XH-15 | 2026-09-04 00:46:02 | 53.35247 | 9.41089 | 110° | 157km/h | 10580m | -9.8m/s | -46.2°C | 74.6% | 255.8hPa | 2.4V | 08:05:38 | 02:26:30 | 00:00:00 | |
| DL3AQ-11 | 2026-09-04 00:46:01 | 53.35247 | 9.41089 | 110° | 155km/h | 10580m | -9.8m/s | -46.2°C | 67.4% | 255.8hPa | 2.4V | 00:00:00 | 00:00:00 | 00:00:00 | |
| DO2SHX-10 | 2026-09-04 00:45:59 | 53.35261 | 9.41027 | 112° | 155km/h | 10591m | -11.0m/s | -46.3°C | 73.1% | 255.4hPa | 2.4V | 00:00:00 | 02:26:29 | 00:00:00 | |
| DF5WG-10 | 2026-09-04 00:45:58 | 53.35276 | 9.40966 | 112° | 159km/h | 10604m | -14.5m/s | -46.3°C | 72.1% | 255.1hPa | 2.4V | 00:00:00 | 02:26:28 | 00:00:00 | |
| DM0DOS-11 | 2026-09-04 00:45:56 | 53.35319 | 9.40781 | 111° | 159km/h | 10644m | -13m/s | -46.8°C | 71.3% | 253.7hPa | 2.4V | 08:05:43 | 02:26:25 | 00:00:00 | |
| DL1XH-west | 2026-09-04 00:45:56 | 53.35305 | 9.40843 | 111° | 157km/h | 10631m | -11.8m/s | -46.6°C | 76.1% | 254.1hPa | 2.4V | 08:05:56 | 02:26:26 | 00:00:00 | |
| DB0DAN | 2026-09-04 00:45:55 | 53.35319 | 9.40781 | 111° | 150km/h | 10645m | -13m/s | -46.8°C | 64.2% | 253.68hPa | 2.4V | 00:00:00 | 00:00:00 | 00:00:00 | |
| AA1-15 | 2026-09-04 00:45:53 | 53.35349 | 9.40656 | 112° | 157km/h | 10671m | -13.3m/s | -47°C | 75.3% | 252.6hPa | 2.4V | 08:05:56 | 02:26:23 | 00:00:00 | |
| SONDE2-11 | 2026-09-04 00:45:52 | 53.35364 | 9.40594 | 112° | 157km/h | 10683m | -10.8m/s | -47.1°C | 65.3% | 252.1hPa | 2.4V | 00:00:00 | 00:00:00 | 00:00:00 | |
| DL3AQ-11 | 2026-09-04 00:45:50 | 53.35408 | 9.40407 | 111° | 161km/h | 10710m | -10.8m/s | -47.4°C | 64.5% | 251.0hPa | 2.4V | 00:00:00 | 00:00:00 | 00:00:00 | |
| DL1XH1-15 | 2026-09-04 00:45:49 | 53.35483 | 9.40094 | 111° | 157km/h | 10758m | -9.1m/s | -47.8°C | 72.1% | 249.2hPa | 2.4V | 08:05:54 | 02:26:14 | 00:00:00 | |
| BIOWL1-15 | 2026-09-04 00:45:46 | 53.35557 | 9.39779 | 111° | 162km/h | 10805m | -9.6m/s | -48.2°C | 75.3% | 247.4hPa | 2.5V | 08:06:47 | 02:26:09 | 00:00:00 | |
| DM0DOS-11 | 2026-09-04 00:45:46 | 53.35468 | 9.40156 | 111° | 157km/h | 10749m | -9.2m/s | -47.7°C | 72.4% | 249.5hPa | 2.5V | 08:05:53 | 02:26:15 | 00:00:00 | |
| DL1XH-west | 2026-09-04 00:45:46 | 53.35453 | 9.40218 | 112° | 159km/h | 10740m | -8.8m/s | -47.6°C | 74.9% | 249.7hPa | 2.5V | 08:05:56 | 02:26:16 | 00:00:00 | |
| AA1-15 | 2026-09-04 00:45:43 | 53.35497 | 9.40032 | 111° | 159km/h | 10767m | -8.3m/s | -47.9°C | 74.6% | 248.9hPa | 2.4V | 08:05:56 | 02:26:13 | 00:00:00 | |
| DO9LL-15 | 2026-09-04 00:45:43 | 53.35497 | 9.40032 | 112° | 162km/h | 10767m | -8.2m/s | -47.8°C | 71.9% | 248.8hPa | 2.4V | 00:00:00 | 02:26:13 | 00:00:00 | |
| DB0DAN | 2026-09-04 00:45:40 | 53.35542 | 9.39843 | 111° | 155km/h | 10796m | -10.2m/s | -48.1°C | 64.5% | 247.73hPa | 2.4V | 00:00:00 | 00:00:00 | 00:00:00 | |
| DL1CLM-18 | 2026-09-04 00:45:40 | 53.35542 | 9.39843 | 112° | 162km/h | 10796m | -10.2m/s | -48.1°C | 64.5% | 247.7hPa | 2.4V | 00:00:00 | 00:00:00 | 00:00:00 | |
| DL1XH1-15 | 2026-09-04 00:45:39 | 53.35629 | 9.39459 | 110° | 162km/h | 10855m | -11.4m/s | -48.7°C | 72.8% | 245.6hPa | 2.4V | 08:06:04 | 02:26:04 | 00:00:00 | |
| SONCRA | 2026-09-04 00:45:39 | 53.35571 | 9.39715 | 110° | 161km/h | 10815m | -8.9m/s | -48.3°C | 64.7% | 247.0hPa | 2.4V | 00:00:00 | 00:00:00 | 00:00:00 | |
| DF5WG-10 | 2026-09-04 00:45:38 | 53.35571 | 9.39715 | 111° | 162km/h | 10815m | -8.9m/s | -48.3°C | 72.2% | 247.0hPa | 2.4V | 00:00:00 | 02:26:08 | 00:00:00 | |
| DM0DOS-11 | 2026-09-04 00:45:36 | 53.35614 | 9.39524 | 110° | 162km/h | 10845m | -9.7m/s | -48.6°C | 72.6% | 245.9hPa | 2.4V | 08:06:03 | 02:26:05 | 00:00:00 | |
| DO2JMG | 2026-09-04 00:45:36 | 53.35600 | 9.39588 | 111° | 161km/h | 10835m | -10.5m/s | -48.5°C | 75.7% | 246.3hPa | 2.4V | 08:06:47 | 02:26:06 | 00:00:00 | |
| DL1XH-west | 2026-09-04 00:45:35 | 53.35614 | 9.39524 | 111° | 162km/h | 10845m | -9.7m/s | -48.6°C | 75.9% | 245.9hPa | 2.4V | 08:06:47 | 02:26:05 | 00:00:00 | |
| AA1-15 | 2026-09-04 00:45:32 | 53.35658 | 9.39331 | 111° | 161km/h | 10878m | -11.1m/s | -48.9°C | 76.5% | 244.8hPa | 2.5V | 08:06:47 | 02:26:02 | 00:00:00 | |
| DB0UT-7 | 2026-09-04 00:45:31 | 53.35672 | 9.39267 | 111° | 164km/h | 10888m | -8.5m/s | -48.9°C | 74.8% | 244.3hPa | 2.4V | 00:00:00 | 00:00:00 | 00:00:00 | |
| DL1XH1-15 | 2026-09-04 00:45:29 | 53.35772 | 9.38816 | 110° | 162km/h | 10954m | -10.1m/s | -49.5°C | 78.3% | 241.9hPa | 2.4V | 08:06:14 | 02:25:54 | 00:00:00 | |
| DJ2DS-15 | 2026-09-04 00:45:29 | 53.35701 | 9.39138 | 111° | 164km/h | 10905m | -10.5m/s | -49.1°C | 74.9% | 243.7hPa | 2.5V | 00:00:00 | 02:25:59 | 00:00:00 | |
| DF5WG-10 | 2026-09-04 00:45:28 | 53.35715 | 9.39073 | 111° | 162km/h | 10915m | -9.2m/s | -49.2°C | 75.9% | 243.3hPa | 2.5V | 00:00:00 | 02:25:58 | 00:00:00 | |
| DB0DAN | 2026-09-04 00:45:25 | 53.35758 | 9.38880 | 111° | 153km/h | 10944m | -10.7m/s | -49.5°C | 69.2% | 242.3hPa | 2.5V | 00:00:00 | 00:00:00 | 00:00:00 | |
| DO2JMG | 2026-09-04 00:45:25 | 53.35758 | 9.38880 | 111° | 161km/h | 10944m | -10.7m/s | -49.5°C | 80.3% | 242.3hPa | 2.5V | 08:06:47 | 02:25:55 | 00:00:00 | |
| DL1XH-west | 2026-09-04 00:45:24 | 53.35772 | 9.38816 | 111° | 162km/h | 10954m | -10.1m/s | -49.6°C | 81.2% | 241.9hPa | 2.4V | 08:06:47 | 02:25:54 | 00:00:00 | |
| GOEST3-10 | 2026-09-04 00:45:24 | 53.35772 | 9.38816 | 111° | 162km/h | 10954m | -10.0m/s | -49.5°C | 78.3% | 241.8hPa | 2.4V | 00:00:00 | 02:25:54 | 00:00:00 | |
| DL1XH-15 | 2026-09-04 00:45:22 | 53.35829 | 9.38558 | 110° | 164km/h | 10993m | -9.2m/s | -49.9°C | 80.3% | 240.5hPa | 2.4V | 08:06:18 | 02:25:50 | 00:00:00 | |
| BIOWL1-15 | 2026-09-04 00:45:22 | 53.35800 | 9.38687 | 111° | 162km/h | 10974m | -8.5m/s | -49.7°C | 82.9% | 241.1hPa | 2.4V | 08:06:47 | 02:25:52 | 00:00:00 | |
| AA1-15 | 2026-09-04 00:45:21 | 53.35815 | 9.38623 | 111° | 164km/h | 10983m | -10.2m/s | -49.8°C | 83.4% | 240.8hPa | 2.4V | 08:06:47 | 02:25:51 | 00:00:00 | |
| DO2LYB-13 | 2026-09-04 00:45:21 | 53.35815 | 9.38623 | 112° | 164km/h | 10983m | -10.2m/s | -49.8°C | 71.8% | 240.8hPa | 2.4V | 00:00:00 | 00:00:00 | 00:00:00 | |
| DL1XH1-15 | 2026-09-04 00:45:19 | 53.35915 | 9.38170 | 110° | 164km/h | 11043m | -7.7m/s | -50.3°C | 79.7% | 238.7hPa | 2.4V | 08:06:24 | 02:25:44 | 00:00:00 | |
| DO2JMG | 2026-09-04 00:45:15 | 53.35900 | 9.38235 | 110° | 164km/h | 11035m | -8m/s | -50.3°C | 83.2% | 238.9hPa | 2.4V | 08:06:47 | 02:25:45 | 00:00:00 | |
| DL1XH-west | 2026-09-04 00:45:14 | 53.35915 | 9.38170 | 111° | 164km/h | 11043m | -7.7m/s | -50.3°C | 83% | 238.7hPa | 2.4V | 08:06:47 | 02:25:44 | 00:00:00 | |
| DF8AY | 2026-09-04 00:45:13 | 53.35929 | 9.38104 | 111° | 164km/h | 11051m | -9m/s | -50.4°C | 82.6% | 238.4hPa | 2.5V | 08:06:47 | 02:25:43 | 00:00:00 | |
| DO2SHX-10 | 2026-09-04 00:45:13 | 53.35929 | 9.38104 | 111° | 164km/h | 11051m | -8.9m/s | -50.4°C | 79.5% | 238.3hPa | 2.4V | 00:00:00 | 02:25:43 | 00:00:00 | |
| DL1XH-15 | 2026-09-04 00:45:12 | 53.35974 | 9.37908 | 110° | 164km/h | 11075m | -6.7m/s | -50.6°C | 80.5% | 237.4hPa | 2.4V | 08:06:28 | 02:25:40 | 00:00:00 | |
| BIOWL1-15 | 2026-09-04 00:45:11 | 53.35959 | 9.37974 | 111° | 164km/h | 11068m | -8.1m/s | -50.6°C | 82% | 237.7hPa | 2.4V | 08:06:47 | 02:25:41 | 00:00:00 | |
| AA1-15 | 2026-09-04 00:45:10 | 53.35974 | 9.37908 | 111° | 164km/h | 11075m | -6.7m/s | -50.7°C | 82.1% | 237.4hPa | 2.4V | 08:06:47 | 02:25:40 | 00:00:00 | |
| DB0DAN | 2026-09-04 00:45:10 | 53.35974 | 9.37908 | 111° | 157km/h | 11075m | -6.7m/s | -50.7°C | 72% | 237.44hPa | 2.4V | 00:00:00 | 00:00:00 | 00:00:00 | |
| DL1XH1-15 | 2026-09-04 00:45:10 | 53.36060 | 9.37515 | 110° | 162km/h | 11121m | -10.1m/s | -51.1°C | 80.8% | 235.7hPa | 2.4V | 08:06:34 | 02:25:34 | 00:00:00 | |
| DO2JMG | 2026-09-04 00:45:04 | 53.36060 | 9.37515 | 110° | 162km/h | 11121m | -10.1m/s | -51.1°C | 83.5% | 235.7hPa | 2.4V | 08:06:47 | 02:25:34 | 00:00:00 | |
| DL1XH-west | 2026-09-04 00:45:03 | 53.36075 | 9.37451 | 111° | 162km/h | 11131m | -10.5m/s | -51.2°C | 83.5% | 235.5hPa | 2.4V | 08:06:47 | 02:25:33 | 00:00:00 | |
| DF8AY | 2026-09-04 00:45:03 | 53.36103 | 9.37321 | 111° | 164km/h | 11151m | -12.1m/s | -51.3°C | 83.1% | 234.7hPa | 2.4V | 08:06:47 | 02:25:31 | 00:00:00 | |
| DL1XH-15 | 2026-09-04 00:45:02 | 53.36118 | 9.37256 | 109° | 162km/h | 11162m | -10.7m/s | -51.4°C | 79.1% | 234.4hPa | 2.4V | 08:06:38 | 02:25:30 | 00:00:00 | |
| AA1-15 | 2026-09-04 00:45:00 | 53.36118 | 9.37256 | 110° | 162km/h | 11162m | -10.7m/s | -51.4°C | 83% | 234.4hPa | 2.4V | 08:06:47 | 02:25:30 | 00:00:00 | |
| GOEST3-10 | 2026-09-04 00:44:59 | 53.36132 | 9.37191 | 110° | 164km/h | 11175m | -13.9m/s | -51.5°C | 79.2% | 233.9hPa | 2.5V | 00:00:00 | 00:00:00 | 00:00:00 | |
| DF5WG-10 | 2026-09-04 00:44:58 | 53.36146 | 9.37125 | 110° | 166km/h | 11187m | -12.6m/s | -51.6°C | 79.9% | 233.5hPa | 2.4V | 00:00:00 | 02:25:28 | 00:00:00 | |
| DB0DAN | 2026-09-04 00:44:55 | 53.36189 | 9.36931 | 109° | 157km/h | 11218m | -10.7m/s | -51.9°C | 71.4% | 232.39hPa | 2.4V | 00:00:00 | 00:00:00 | 00:00:00 | |
| DO2JMG | 2026-09-04 00:44:54 | 53.36203 | 9.36865 | 110° | 166km/h | 11230m | -12.5m/s | -52°C | 83.9% | 232hPa | 2.4V | 08:06:47 | 02:25:24 | 00:00:00 | |
| DL1XH-west | 2026-09-04 00:44:53 | 53.36217 | 9.36800 | 110° | 166km/h | 11242m | -10.7m/s | -52.1°C | 84.2% | 231.5hPa | 2.5V | 08:06:47 | 02:25:23 | 00:00:00 | |
| BIOWL9-15 | 2026-09-04 00:44:53 | 53.36232 | 9.36734 | 109° | 164km/h | 11252m | -11.1m/s | -52.2°C | 71.9% | 231.2hPa | 2.4V | 00:00:00 | 00:00:00 | 00:00:00 | |
| DL1XH-15 | 2026-09-04 00:44:52 | 53.36261 | 9.36602 | 109° | 168km/h | 11275m | -11.4m/s | -52.4°C | 80.5% | 230.4hPa | 2.4V | 08:06:48 | 02:25:20 | 00:00:00 | |
| DF8AY | 2026-09-04 00:44:51 | 53.36246 | 9.36668 | 111° | 168km/h | 11264m | -11.5m/s | -52.3°C | 84% | 230.8hPa | 2.4V | 08:06:47 | 02:25:21 | 00:00:00 | |
| AA1-15 | 2026-09-04 00:44:50 | 53.36261 | 9.36602 | 110° | 168km/h | 11275m | -11.4m/s | -52.4°C | 83.8% | 230.4hPa | 2.4V | 08:07:38 | 02:25:20 | 00:00:00 | |
| DL1XH1-15 | 2026-09-04 00:44:49 | 53.36350 | 9.36206 | 110° | 166km/h | 11338m | -10.6m/s | -53°C | 79.4% | 228.1hPa | 2.4V | 08:06:54 | 02:25:14 | 00:00:00 | |
| DO2JMG | 2026-09-04 00:44:43 | 53.36365 | 9.36140 | 110° | 168km/h | 11349m | -10.9m/s | -53.1°C | 81.9% | 227.7hPa | 2.4V | 08:07:38 | 02:25:13 | 00:00:00 | |
| DL1XH-15 | 2026-09-04 00:44:42 | 53.36410 | 9.35942 | 110° | 168km/h | 11379m | -8.4m/s | -53.5°C | 81.6% | 226.6hPa | 2.4V | 08:06:58 | 02:25:10 | 00:00:00 | |
| DL1XH-west | 2026-09-04 00:44:42 | 53.36380 | 9.36074 | 111° | 168km/h | 11360m | -9.8m/s | -53.3°C | 82.1% | 227.3hPa | 2.4V | 08:07:38 | 02:25:12 | 00:00:00 | |
| DB0DAN | 2026-09-04 00:44:40 | 53.36410 | 9.35942 | 110° | 159km/h | 11379m | -8.4m/s | -53.5°C | 72.3% | 226.61hPa | 2.4V | 00:00:00 | 00:00:00 | 00:00:00 | |
| DF8AY | 2026-09-04 00:44:40 | 53.36410 | 9.35942 | 110° | 168km/h | 11379m | -8.4m/s | -53.5°C | 83.2% | 226.6hPa | 2.4V | 08:07:38 | 02:25:10 | 00:00:00 | |
| AA1-15 | 2026-09-04 00:44:40 | 53.36425 | 9.35876 | 110° | 168km/h | 11389m | -9.5m/s | -53.5°C | 83.7% | 226.3hPa | 2.5V | 08:07:38 | 02:25:09 | 00:00:00 | |
| DO2SHX-10 | 2026-09-04 00:44:39 | 53.36425 | 9.35876 | 111° | 168km/h | 11389m | -9.5m/s | -53.5°C | 81.8% | 226.2hPa | 2.4V | 00:00:00 | 02:25:09 | 00:00:00 | |
| DF5WG-10 | 2026-09-04 00:44:38 | 53.36440 | 9.35809 | 111° | 168km/h | 11398m | -9.7m/s | -53.6°C | 82.2% | 225.9hPa | 2.4V | 00:00:00 | 02:25:08 | 00:00:00 | |
| DM0DOS-11 | 2026-09-04 00:44:36 | 53.36483 | 9.35611 | 110° | 166km/h | 11428m | -9.3m/s | -53.9°C | 83.1% | 224.9hPa | 2.4V | 08:07:03 | 02:25:05 | 00:00:00 | |
| EDDB2-12 | 2026-09-04 00:44:36 | 53.36484 | 9.35611 | 110° | 164km/h | 11428m | -9.3m/s | -53.9°C | 73.6% | 224.9hPa | 2.4V | 00:00:00 | 00:00:00 | 00:00:00 | |
| DF8AY-15 | 2026-09-04 00:44:34 | 53.36498 | 9.35546 | 112° | 168km/h | 11439m | -11.0m/s | -53.9°C | 82.6% | 224.5hPa | 2.4V | 08:07:00 | 02:25:04 | 00:00:00 | |
| DL1XH-15 | 2026-09-04 00:44:32 | 53.36559 | 9.35282 | 111° | 170km/h | 11481m | -11.3m/s | -54.3°C | 82.2% | 223.1hPa | 2.4V | 08:07:08 | 02:25:00 | 00:00:00 | |
| DO2JMG | 2026-09-04 00:44:32 | 53.36529 | 9.35415 | 111° | 168km/h | 11461m | -10.8m/s | -54.1°C | 84.8% | 223.8hPa | 2.5V | 08:07:38 | 02:25:02 | 00:00:00 | |
| DL1XH-west | 2026-09-04 00:44:31 | 53.36544 | 9.35349 | 111° | 170km/h | 11471m | -8.6m/s | -54.2°C | 84.5% | 223.4hPa | 2.4V | 08:07:38 | 02:25:01 | 00:00:00 | |
| BIOWL1-15 | 2026-09-04 00:44:30 | 53.36559 | 9.35282 | 111° | 170km/h | 11481m | -11.3m/s | -54.3°C | 84.4% | 223.1hPa | 2.4V | 08:07:38 | 02:25:00 | 00:00:00 | |
| DF8AY | 2026-09-04 00:44:30 | 53.36606 | 9.35080 | 112° | 172km/h | 11512m | -11m/s | -54.6°C | 85.1% | 221.9hPa | 2.4V | 08:07:38 | 02:24:57 | 00:00:00 | |
| DL1XH1-15 | 2026-09-04 00:44:29 | 53.36653 | 9.34880 | 111° | 170km/h | 11542m | -10m/s | -54.9°C | 82.3% | 220.9hPa | 2.4V | 08:07:14 | 02:24:54 | 00:00:00 | |
| AA1-15 | 2026-09-04 00:44:28 | 53.36590 | 9.35148 | 111° | 172km/h | 11501m | -10.4m/s | -54.5°C | 84.9% | 222.3hPa | 2.4V | 08:07:38 | 02:24:58 | 00:00:00 | |
| DO2SHX-10 | 2026-09-04 00:44:28 | 53.36590 | 9.35147 | 112° | 170km/h | 11501m | -10.3m/s | -54.5°C | 83.0% | 222.3hPa | 2.5V | 00:00:00 | 02:24:58 | 00:00:00 | |
| DM0DOS-11 | 2026-09-04 00:44:26 | 53.36637 | 9.34946 | 111° | 170km/h | 11532m | -9.7m/s | -54.8°C | 82.6% | 221.2hPa | 2.5V | 08:07:13 | 02:24:55 | 00:00:00 | |
| DB0DAN | 2026-09-04 00:44:25 | 53.36638 | 9.34946 | 112° | 162km/h | 11532m | -9.7m/s | -54.8°C | 72.9% | 221.23hPa | 2.5V | 00:00:00 | 00:00:00 | 00:00:00 | |
| DO2SHX-10 | 2026-09-04 00:44:25 | 53.36638 | 9.34946 | 112° | 168km/h | 11532m | -9.6m/s | -54.7°C | 82.6% | 221.2hPa | 2.4V | 00:00:00 | 02:24:55 | 00:00:00 | |
| GOEST3-10 | 2026-09-04 00:44:24 | 53.36653 | 9.34880 | 112° | 166km/h | 11542m | -10.0m/s | -54.8°C | 82.3% | 220.8hPa | 2.4V | 00:00:00 | 02:24:54 | 00:00:00 | |
| DL1XH-15 | 2026-09-04 00:44:22 | 53.36715 | 9.34617 | 111° | 166km/h | 11580m | -10.6m/s | -55.2°C | 78.6% | 219.5hPa | 2.4V | 08:07:18 | 02:24:50 | 00:00:00 | |
| DL1XH-west | 2026-09-04 00:44:21 | 53.36700 | 9.34683 | 111° | 166km/h | 11570m | -10.6m/s | -55.1°C | 81.3% | 219.8hPa | 2.4V | 08:07:38 | 02:24:51 | 00:00:00 | |
| DF8AY | 2026-09-04 00:44:20 | 53.36730 | 9.34551 | 111° | 168km/h | 11591m | -10m/s | -55.3°C | 79.7% | 219.2hPa | 2.5V | 08:07:38 | 02:24:49 | 00:00:00 | |
| DL1XH1-15 | 2026-09-04 00:44:19 | 53.36805 | 9.34218 | 110° | 168km/h | 11644m | -9.1m/s | -55.8°C | 74.7% | 217.3hPa | 2.4V | 08:07:24 | 02:24:44 | 00:00:00 | |
| BIOWL1-15 | 2026-09-04 00:44:19 | 53.36805 | 9.34218 | 110° | 168km/h | 11644m | -9.1m/s | -55.8°C | 75.6% | 217.3hPa | 2.4V | 08:07:38 | 02:24:44 | 00:00:00 | |
| DM0DOS-11 | 2026-09-04 00:44:19 | 53.36790 | 9.34285 | 110° | 168km/h | 11634m | -10.7m/s | -55.7°C | 75.1% | 217.7hPa | 2.4V | 08:07:23 | 02:24:45 | 00:00:00 | |
| AA1-15 | 2026-09-04 00:44:18 | 53.36745 | 9.34485 | 111° | 168km/h | 11602m | -12m/s | -55.4°C | 78.7% | 218.8hPa | 2.5V | 08:07:38 | 02:24:48 | 00:00:00 | |
| DF5WG-10 | 2026-09-04 00:44:18 | 53.36745 | 9.34485 | 111° | 168km/h | 11602m | -11.9m/s | -55.3°C | 76.6% | 218.8hPa | 2.5V | 08:07:00 | 02:24:48 | 00:00:00 | |
| DL1LOL-11 | 2026-09-04 00:44:17 | 53.36760 | 9.34419 | 112° | 168km/h | 11613m | -11.1m/s | -55.5°C | 66.8% | 218.5hPa | 2.5V | 00:00:00 | 00:00:00 | 00:00:00 | |
| DO2SHX-10 | 2026-09-04 00:44:16 | 53.36775 | 9.34352 | 111° | 170km/h | 11624m | -10.1m/s | -55.5°C | 75.6% | 218.0hPa | 2.5V | 00:00:00 | 02:24:46 | 00:00:00 | |
| DL8OAI-8 | 2026-09-04 00:44:15 | 53.36790 | 9.34285 | 111° | 168km/h | 11634m | -10.7m/s | -55.7°C | 65.7% | 217.7hPa | 2.5V | 08:07:00 | 00:00:00 | 00:00:00 | |
| DL3AQ-11 | 2026-09-04 00:44:14 | 53.36820 | 9.34151 | 110° | 168km/h | 11653m | -9.1m/s | -55.9°C | 64.4% | 217.0hPa | 2.5V | 00:00:00 | 00:00:00 | 00:00:00 | |
| DO2SHX-10 | 2026-09-04 00:44:13 | 53.36820 | 9.34151 | 111° | 170km/h | 11653m | -9.1m/s | -55.8°C | 73.8% | 216.9hPa | 2.5V | 08:07:00 | 02:24:43 | 00:00:00 | |
| DL1XH-15 | 2026-09-04 00:44:12 | 53.36865 | 9.33950 | 110° | 168km/h | 11685m | -11.1m/s | -56.1°C | 73.6% | 216hPa | 2.4V | 08:07:28 | 02:24:40 | 00:00:00 | |
| DL1XH-west | 2026-09-04 00:44:11 | 53.36850 | 9.34017 | 111° | 170km/h | 11674m | -11.8m/s | -56°C | 74.5% | 216.4hPa | 2.4V | 08:07:38 | 02:24:41 | 00:00:00 | |
| DF8AY | 2026-09-04 00:44:08 | 53.36909 | 9.33752 | 111° | 166km/h | 11715m | -9.1m/s | -56.5°C | 75% | 215hPa | 2.4V | 08:07:38 | 02:24:37 | 00:00:00 | |
| DM0DOS-11 | 2026-09-04 00:44:06 | 53.36939 | 9.33620 | 111° | 166km/h | 11734m | -10m/s | -56.6°C | 74.4% | 214.4hPa | 2.5V | 08:07:33 | 02:24:35 | 00:00:00 | |
| BIOWL1-15 | 2026-09-04 00:44:04 | 53.36970 | 9.33488 | 111° | 168km/h | 11754m | -9.3m/s | -56.7°C | 75.8% | 213.7hPa | 2.4V | 08:07:38 | 02:24:33 | 00:00:00 | |
| DL1XH-15 | 2026-09-04 00:44:02 | 53.37016 | 9.33288 | 111° | 170km/h | 11778m | -7.7m/s | -56.9°C | 77.4% | 212.8hPa | 2.4V | 08:07:38 | 02:24:30 | 00:00:00 | |
| DL1XH-west | 2026-09-04 00:44:01 | 53.37000 | 9.33355 | 111° | 170km/h | 11771m | -7.7m/s | -56.9°C | 76.6% | 213.1hPa | 2.4V | 08:07:38 | 02:24:31 | 00:00:00 | |
| DO2SHX-10 | 2026-09-04 00:44:01 | 53.37000 | 9.33355 | 112° | 170km/h | 11771m | -7.7m/s | -56.8°C | 77.0% | 213.0hPa | 2.4V | 00:00:00 | 02:24:31 | 00:00:00 | |
| DL1XH1-15 | 2026-09-04 00:43:59 | 53.37110 | 9.32887 | 111° | 168km/h | 11821m | -7.1m/s | -57.3°C | 79.5% | 211.4hPa | 2.4V | 08:07:44 | 02:24:24 | 00:00:00 | |
| AA1-15 | 2026-09-04 00:43:57 | 53.37062 | 9.33087 | 111° | 172km/h | 11801m | -7.6m/s | -57.1°C | 78.6% | 212.1hPa | 2.4V | 08:08:29 | 02:24:27 | 00:00:00 | |
| DF8AY | 2026-09-04 00:43:56 | 53.37078 | 9.33019 | 112° | 170km/h | 11808m | -6.1m/s | -57.2°C | 78.9% | 211.8hPa | 2.4V | 08:08:29 | 02:24:26 | 00:00:00 | |
| DB0DAN | 2026-09-04 00:43:55 | 53.37094 | 9.32953 | 112° | 161km/h | 11814m | -6.1m/s | -57.2°C | 69.9% | 211.56hPa | 2.4V | 00:00:00 | 00:00:00 | 00:00:00 | |
| BIOWL1-15 | 2026-09-04 00:43:53 | 53.37188 | 9.32564 | 112° | 164km/h | 11855m | -6.9m/s | -57.5°C | 75.3% | 210.2hPa | 2.4V | 08:08:29 | 02:24:19 | 00:00:00 | |
| DL1XH-15 | 2026-09-04 00:43:52 | 53.37172 | 9.32628 | 111° | 164km/h | 11848m | -6.5m/s | -57.4°C | 77.4% | 210.4hPa | 2.4V | 08:07:48 | 02:24:20 | 00:00:00 | |
| DL1XH-west | 2026-09-04 00:43:51 | 53.37157 | 9.32692 | 112° | 164km/h | 11842m | -5.5m/s | -57.4°C | 76.2% | 210.6hPa | 2.4V | 08:08:29 | 02:24:21 | 00:00:00 | |
| AA1-15 | 2026-09-04 00:43:47 | 53.37219 | 9.32436 | 113° | 164km/h | 11868m | -5.7m/s | -57.6°C | 74.4% | 209.8hPa | 2.4V | 08:08:29 | 02:24:17 | 00:00:00 | |
| DJ2DS-15 | 2026-09-04 00:43:46 | 53.37235 | 9.32372 | 112° | 164km/h | 11873m | -5.4m/s | -57.6°C | 66.1% | 209.6hPa | 2.4V | 00:00:00 | 00:00:00 | 00:00:00 | |
| DF8AY | 2026-09-04 00:43:44 | 53.37267 | 9.32243 | 113° | 166km/h | 11885m | -5.9m/s | -57.7°C | 72.3% | 209.2hPa | 2.4V | 08:08:29 | 02:24:14 | 00:00:00 | |
| BIOWL1-15 | 2026-09-04 00:43:42 | 53.37299 | 9.32114 | 113° | 164km/h | 11898m | -7.7m/s | -57.7°C | 71.8% | 208.8hPa | 2.4V | 08:08:29 | 02:24:12 | 00:00:00 | |
| DO2JMG | 2026-09-04 00:43:41 | 53.37316 | 9.32050 | 113° | 166km/h | 11904m | -5.7m/s | -57.7°C | 71.8% | 208.6hPa | 2.4V | 08:08:29 | 02:24:11 | 00:00:00 | |
| DB0DAN | 2026-09-04 00:43:40 | 53.37332 | 9.31985 | 113° | 159km/h | 11910m | -5.5m/s | -57.8°C | 63.8% | 208.38hPa | 2.4V | 00:00:00 | 00:00:00 | 00:00:00 | |
| DL1XH-west | 2026-09-04 00:43:40 | 53.37332 | 9.31985 | 113° | 166km/h | 11910m | -5.5m/s | -57.8°C | 71.7% | 208.4hPa | 2.4V | 08:08:29 | 02:24:10 | 00:00:00 | |
| DL1XH1-15 | 2026-09-04 00:43:39 | 53.37431 | 9.31600 | 112° | 164km/h | 11943m | -5.9m/s | -57.9°C | 71.6% | 207.3hPa | 2.4V | 08:08:04 | 02:24:04 | 00:00:00 | |
| BIOWL1-15 | 2026-09-04 00:43:37 | 53.37480 | 9.31407 | 113° | 164km/h | 11959m | -5m/s | -58.1°C | 70.6% | 206.7hPa | 2.4V | 08:08:29 | 02:24:01 | 00:00:00 | |
| AA1-15 | 2026-09-04 00:43:36 | 53.37399 | 9.31728 | 113° | 164km/h | 11932m | -6m/s | -57.9°C | 71.3% | 207.6hPa | 2.4V | 08:08:29 | 02:24:06 | 00:00:00 | |
| DF8AY | 2026-09-04 00:43:34 | 53.37431 | 9.31600 | 113° | 164km/h | 11943m | -5.9m/s | -57.9°C | 71% | 207.3hPa | 2.4V | 08:08:29 | 02:24:04 | 00:00:00 | |
| DO2SHX-10 | 2026-09-04 00:43:34 | 53.37431 | 9.31600 | 113° | 166km/h | 11944m | -5.9m/s | -57.9°C | 71.6% | 207.2hPa | 2.4V | 00:00:00 | 02:24:04 | 00:00:00 | |
| DL8OAI-8 | 2026-09-04 00:43:33 | 53.37431 | 9.31600 | 114° | 164km/h | 11944m | -5.9m/s | -57.9°C | 61.7% | 207.3hPa | 2.4V | 08:08:00 | 00:00:00 | 00:00:00 | |
| DL1XH-15 | 2026-09-04 00:43:32 | 53.37496 | 9.31343 | 113° | 164km/h | 11965m | -5.2m/s | -58.1°C | 71.4% | 206.5hPa | 2.4V | 08:08:08 | 02:24:00 | 00:00:00 | |
| DO2JMG | 2026-09-04 00:43:30 | 53.37496 | 9.31343 | 113° | 164km/h | 11965m | -5.2m/s | -58.1°C | 70.3% | 206.5hPa | 2.4V | 08:08:29 | 02:24:00 | 00:00:00 | |
| DL1XH-west | 2026-09-04 00:43:29 | 53.37513 | 9.31278 | 113° | 166km/h | 11970m | -4.8m/s | -58.1°C | 70.1% | 206.4hPa | 2.4V | 08:08:29 | 02:23:59 | 00:00:00 | |
| DL1LOL-11 | 2026-09-04 00:43:29 | 53.37512 | 9.31279 | 114° | 166km/h | 11970m | -4.8m/s | -58.1°C | 61.4% | 206.4hPa | 2.5V | 00:00:00 | 00:00:00 | 00:00:00 | |
| DF5WG-10 | 2026-09-04 00:43:28 | 53.37529 | 9.31214 | 114° | 166km/h | 11974m | -4.5m/s | -58.1°C | 71.1% | 206.2hPa | 2.5V | 00:00:00 | 02:23:58 | 00:00:00 | |
| DM0DOS-11 | 2026-09-04 00:43:26 | 53.37579 | 9.31022 | 114° | 166km/h | 11988m | -5m/s | -58.3°C | 71.4% | 205.7hPa | 2.5V | 08:08:13 | 02:23:55 | 00:00:00 | |
| AA1-15 | 2026-09-04 00:43:25 | 53.37579 | 9.31022 | 114° | 166km/h | 11988m | -5m/s | -58.3°C | 69% | 205.7hPa | 2.5V | 08:08:29 | 02:23:55 | 00:00:00 | |
| DF8AY | 2026-09-04 00:43:23 | 53.37611 | 9.30894 | 113° | 166km/h | 11999m | -5.2m/s | -58.4°C | 68.7% | 205.4hPa | 2.4V | 08:08:29 | 02:23:53 | 00:00:00 | |
| DL1XH-15 | 2026-09-04 00:43:22 | 53.37661 | 9.30701 | 113° | 164km/h | 12013m | -4.5m/s | -58.5°C | 71.7% | 204.9hPa | 2.5V | 08:08:18 | 02:23:50 | 00:00:00 | |
| DO2JMG | 2026-09-04 00:43:20 | 53.37661 | 9.30701 | 114° | 164km/h | 12013m | -4.5m/s | -58.5°C | 68.1% | 204.9hPa | 2.5V | 08:08:29 | 02:23:50 | 00:00:00 | |
| BIOWL9-15 | 2026-09-04 00:43:20 | 53.37678 | 9.30637 | 113° | 164km/h | 12018m | -4.9m/s | -58.5°C | 61.1% | 204.7hPa | 2.4V | 00:00:00 | 00:00:00 | 00:00:00 | |
| DL1XH1-15 | 2026-09-04 00:43:19 | 53.37762 | 9.30315 | 113° | 166km/h | 12044m | -6.3m/s | -58.7°C | 66.2% | 204hPa | 2.4V | 08:08:24 | 02:23:44 | 00:00:00 | |
| DO2SHX-10 | 2026-09-04 00:43:19 | 53.37678 | 9.30637 | 114° | 166km/h | 12018m | -4.8m/s | -58.4°C | 71.3% | 204.7hPa | 2.5V | 08:08:00 | 02:23:49 | 00:00:00 | |
| DM0DOS-11 | 2026-09-04 00:43:18 | 53.37745 | 9.30380 | 113° | 166km/h | 12037m | -5.5m/s | -58.6°C | 67.3% | 204.2hPa | 2.4V | 08:08:23 | 02:23:45 | 00:00:00 | |
| DL1XH-west | 2026-09-04 00:43:18 | 53.37695 | 9.30573 | 113° | 164km/h | 12023m | -4.3m/s | -58.5°C | 67.6% | 204.6hPa | 2.4V | 08:08:29 | 02:23:48 | 00:00:00 | |
| AA1-15 | 2026-09-04 00:43:14 | 53.37762 | 9.30315 | 114° | 166km/h | 12044m | -6.3m/s | -58.7°C | 65.9% | 204hPa | 2.4V | 08:08:29 | 02:23:44 | 00:00:00 | |
| DF8AY | 2026-09-04 00:43:11 | 53.37812 | 9.30124 | 114° | 164km/h | 12066m | -7.8m/s | -58.8°C | 65% | 203.3hPa | 2.4V | 08:08:29 | 02:23:41 | 00:00:00 | |
| BIOWL1-15 | 2026-09-04 00:43:09 | 53.37862 | 9.29932 | 113° | 166km/h | 12086m | -5.9m/s | -59°C | 64.5% | 202.6hPa | 2.4V | 08:09:20 | 02:23:38 | 00:00:00 | |
| DL1XH1-15 | 2026-09-04 00:43:09 | 53.37930 | 9.29673 | 114° | 166km/h | 12106m | -4.7m/s | -59.1°C | 66.8% | 202hPa | 2.4V | 08:08:34 | 02:23:34 | 00:00:00 | |
| DO2JMG | 2026-09-04 00:43:09 | 53.37845 | 9.29996 | 114° | 166km/h | 12080m | -6m/s | -58.9°C | 64.6% | 202.9hPa | 2.4V | 08:08:29 | 02:23:39 | 00:00:00 | |
| DL1XH-west | 2026-09-04 00:43:07 | 53.37879 | 9.29868 | 114° | 164km/h | 12091m | -5.1m/s | -59°C | 64.5% | 202.4hPa | 2.4V | 08:09:20 | 02:23:37 | 00:00:00 | |
| DM0DOS-11 | 2026-09-04 00:43:06 | 53.37913 | 9.29738 | 113° | 168km/h | 12101m | -4.7m/s | -59.1°C | 67.2% | 202.1hPa | 2.5V | 08:08:33 | 02:23:35 | 00:00:00 | |
| AA1-15 | 2026-09-04 00:43:03 | 53.37947 | 9.29608 | 114° | 170km/h | 12110m | -4.8m/s | -59.2°C | 63.8% | 201.8hPa | 2.4V | 08:09:20 | 02:23:33 | 00:00:00 | |
| DF8AY | 2026-09-04 00:43:00 | 53.38088 | 9.29085 | 115° | 170km/h | 12147m | -4.7m/s | -59.4°C | 61.6% | 200.6hPa | 2.4V | 08:09:20 | 02:23:25 | 00:00:00 | |
| DL1XH1-15 | 2026-09-04 00:42:59 | 53.38105 | 9.29019 | 113° | 172km/h | 12152m | -4.7m/s | -59.4°C | 63% | 200.5hPa | 2.4V | 08:08:44 | 02:23:24 | 00:00:00 | |
| DO2SHX-10 | 2026-09-04 00:42:59 | 53.38017 | 9.29347 | 115° | 170km/h | 12130m | -4.5m/s | -59.2°C | 65.4% | 201.2hPa | 2.4V | 00:00:00 | 02:23:29 | 00:00:00 | |
| DM0DOS-11 | 2026-09-04 00:42:58 | 53.38088 | 9.29085 | 114° | 170km/h | 12147m | -4.7m/s | -59.4°C | 63.7% | 200.6hPa | 2.4V | 08:08:43 | 02:23:25 | 00:00:00 | |
| DO2JMG | 2026-09-04 00:42:58 | 53.38035 | 9.29282 | 114° | 170km/h | 12134m | -4.5m/s | -59.3°C | 62.3% | 201.1hPa | 2.4V | 08:10:11 | 02:23:28 | 00:00:00 | |
| DL1XH-west | 2026-09-04 00:42:57 | 53.38052 | 9.29217 | 115° | 170km/h | 12139m | -4.3m/s | -59.3°C | 62% | 200.9hPa | 2.4V | 08:09:20 | 02:23:27 | 00:00:00 | |
| DB0DAN | 2026-09-04 00:42:55 | 53.38088 | 9.29085 | 115° | 162km/h | 12147m | -4.7m/s | -59.4°C | 53.8% | 200.63hPa | 2.4V | 00:00:00 | 00:00:00 | 00:00:00 | |
| AA1-15 | 2026-09-04 00:42:52 | 53.38141 | 9.28887 | 114° | 172km/h | 12161m | -4.3m/s | -59.4°C | 60.4% | 200.2hPa | 2.5V | 08:09:20 | 02:23:22 | 00:00:00 | |
| DL8OAI-8 | 2026-09-04 00:42:51 | 53.38141 | 9.28887 | 115° | 172km/h | 12161m | -4.3m/s | -59.4°C | 51.9% | 200.2hPa | 2.4V | 08:09:00 | 00:00:00 | 00:00:00 | |
| DO2SHX-10 | 2026-09-04 00:42:50 | 53.38177 | 9.28753 | 115° | 172km/h | 12170m | -4.5m/s | -59.4°C | 61.0% | 199.8hPa | 2.4V | 00:00:00 | 02:23:20 | 00:00:00 | |
| DL1XH1-15 | 2026-09-04 00:42:49 | 53.38281 | 9.28356 | 114° | 170km/h | 12197m | -4.5m/s | -59.6°C | 62.9% | 199hPa | 2.4V | 08:08:54 | 02:23:14 | 00:00:00 | |
| DO2JMG | 2026-09-04 00:42:47 | 53.38229 | 9.28554 | 114° | 172km/h | 12183m | -4.8m/s | -59.5°C | 60.3% | 199.4hPa | 2.5V | 08:10:11 | 02:23:17 | 00:00:00 | |
| DM0DOS-11 | 2026-09-04 00:42:47 | 53.38264 | 9.28422 | 113° | 170km/h | 12193m | -4.7m/s | -59.6°C | 62.3% | 199.2hPa | 2.4V | 08:08:53 | 02:23:15 | 00:00:00 | |
| DF8AY | 2026-09-04 00:42:47 | 53.38264 | 9.28422 | 114° | 170km/h | 12193m | -4.7m/s | -59.6°C | 60.5% | 199.2hPa | 2.4V | 08:09:20 | 02:23:15 | 00:00:00 | |
| DL1XH-west | 2026-09-04 00:42:46 | 53.38247 | 9.28488 | 114° | 172km/h | 12188m | -4.6m/s | -59.5°C | 60.4% | 199.2hPa | 2.5V | 08:09:20 | 02:23:16 | 00:00:00 | |
| SONDE2-11 | 2026-09-04 00:42:46 | 53.38264 | 9.28422 | 113° | 170km/h | 12193m | -4.7m/s | -59.6°C | 52.5% | 199.2hPa | 2.4V | 00:00:00 | 00:00:00 | 00:00:00 | |
| AA1-15 | 2026-09-04 00:42:41 | 53.38334 | 9.28157 | 114° | 172km/h | 12211m | -4.5m/s | -59.7°C | 61.3% | 198.5hPa | 2.4V | 08:09:20 | 02:23:11 | 00:00:00 | |
| DO2SHX-10 | 2026-09-04 00:42:41 | 53.38334 | 9.28157 | 115° | 172km/h | 12211m | -4.5m/s | -59.6°C | 65.1% | 198.5hPa | 2.5V | 00:00:00 | 02:23:11 | 00:00:00 | |
| DL3AQ-11 | 2026-09-04 00:42:40 | 53.38352 | 9.28091 | 113° | 172km/h | 12216m | -4.7m/s | -59.7°C | 55.3% | 198.4hPa | 2.5V | 00:00:00 | 00:00:00 | 00:00:00 | |
| DL1XH1-15 | 2026-09-04 00:42:39 | 53.38455 | 9.27688 | 112° | 173km/h | 12250m | -8.8m/s | -59.8°C | 64.7% | 197.4hPa | 2.5V | 08:09:04 | 02:23:04 | 00:00:00 | |
| GOEST3-10 | 2026-09-04 00:42:39 | 53.38369 | 9.28024 | 114° | 173km/h | 12220m | -4.6m/s | -59.6°C | 66.2% | 198.2hPa | 2.4V | 00:00:00 | 00:00:00 | 00:00:00 | |
| DM0DOS-11 | 2026-09-04 00:42:38 | 53.38438 | 9.27756 | 112° | 173km/h | 12241m | -7.4m/s | -59.8°C | 64.9% | 197.6hPa | 2.4V | 08:09:03 | 02:23:05 | 00:00:00 | |
| DO2JMG | 2026-09-04 00:42:37 | 53.38404 | 9.27890 | 113° | 173km/h | 12230m | -4.9m/s | -59.7°C | 62.7% | 197.9hPa | 2.4V | 08:10:11 | 02:23:07 | 00:00:00 | |
| DL1XH-west | 2026-09-04 00:42:36 | 53.38421 | 9.27823 | 113° | 173km/h | 12235m | -5.6m/s | -59.8°C | 62.9% | 197.8hPa | 2.4V | 08:09:20 | 02:23:06 | 00:00:00 | |
| DF8AY | 2026-09-04 00:42:35 | 53.38438 | 9.27756 | 113° | 173km/h | 12242m | -7.4m/s | -59.8°C | 63% | 197.6hPa | 2.4V | 08:09:20 | 02:23:05 | 00:00:00 | |
| AA1-15 | 2026-09-04 00:42:31 | 53.38505 | 9.27485 | 113° | 173km/h | 12277m | -9.7m/s | -59.9°C | 64.4% | 196.6hPa | 2.4V | 08:09:20 | 02:23:01 | 00:00:00 | |
| DL1XH-15 | 2026-09-04 00:42:31 | 53.38522 | 9.27417 | 112° | 173km/h | 12286m | -9.6m/s | -60°C | 66.1% | 196.2hPa | 2.4V | 08:09:08 | 02:23:00 | 00:00:00 | |
| DL8OAI-8 | 2026-09-04 00:42:31 | 53.38505 | 9.27485 | 114° | 173km/h | 12277m | -9.7m/s | -59.9°C | 55.6% | 196.6hPa | 2.4V | 08:09:00 | 00:00:00 | 00:00:00 | |
| DL3AQ-11 | 2026-09-04 00:42:30 | 53.38539 | 9.27350 | 112° | 172km/h | 12296m | -9.5m/s | -60.0°C | 55.7% | 196.0hPa | 2.4V | 00:00:00 | 00:00:00 | 00:00:00 | |
| DL1XH1-15 | 2026-09-04 00:42:29 | 53.38624 | 9.27014 | 113° | 172km/h | 12346m | -10.2m/s | -60.3°C | 65.9% | 194.5hPa | 2.4V | 08:09:14 | 02:22:54 | 00:00:00 | |
| DO2SHX-10 | 2026-09-04 00:42:29 | 53.38539 | 9.27349 | 113° | 173km/h | 12296m | -9.4m/s | -59.9°C | 65.8% | 196.0hPa | 2.4V | 00:00:00 | 02:22:59 | 00:00:00 | |
| DF5WG-10 | 2026-09-04 00:42:28 | 53.38556 | 9.27282 | 113° | 172km/h | 12306m | -9.5m/s | -60.0°C | 65.9% | 195.6hPa | 2.4V | 00:00:00 | 02:22:58 | 00:00:00 | |
| DM0DOS-11 | 2026-09-04 00:42:26 | 53.38607 | 9.27081 | 113° | 172km/h | 12335m | -10.6m/s | -60.2°C | 66% | 194.8hPa | 2.4V | 08:09:13 | 02:22:55 | 00:00:00 | |
| DL1XH-west | 2026-09-04 00:42:25 | 53.38607 | 9.27081 | 113° | 172km/h | 12335m | -10.6m/s | -60.2°C | 65.8% | 194.8hPa | 2.4V | 08:09:20 | 02:22:55 | 00:00:00 | |
| BIOWL1-15 | 2026-09-04 00:42:23 | 53.38658 | 9.26880 | 113° | 172km/h | 12367m | -10.3m/s | -60.4°C | 66.2% | 193.8hPa | 2.4V | 08:09:20 | 02:22:52 | 00:00:00 | |
| DO2SHX-10 | 2026-09-04 00:42:23 | 53.38641 | 9.26947 | 114° | 172km/h | 12356m | -10.6m/s | -60.3°C | 66.1% | 194.1hPa | 2.5V | 00:00:00 | 02:22:53 | 00:00:00 | |
| DL1XH-15 | 2026-09-04 00:42:21 | 53.38693 | 9.26746 | 113° | 172km/h | 12387m | -10.5m/s | -60.6°C | 65.9% | 193.2hPa | 2.5V | 08:09:18 | 02:22:50 | 00:00:00 | |
| AA1-15 | 2026-09-04 00:42:21 | 53.38728 | 9.26612 | 114° | 173km/h | 12408m | -10.3m/s | -60.6°C | 66.1% | 192.6hPa | 2.4V | 08:09:20 | 02:22:48 | 00:00:00 | |
| DL1XH1-15 | 2026-09-04 00:42:20 | 53.38798 | 9.26342 | 113° | 173km/h | 12446m | -8.3m/s | -61°C | 66.9% | 191.3hPa | 2.5V | 08:09:24 | 02:22:44 | 00:00:00 | |
| DM0DOS-11 | 2026-09-04 00:42:19 | 53.38781 | 9.26409 | 113° | 173km/h | 12437m | -9.1m/s | -60.9°C | 66.8% | 191.6hPa | 2.4V | 08:09:23 | 02:22:45 | 00:00:00 | |
| DL1XH-west | 2026-09-04 00:42:14 | 53.38798 | 9.26342 | 113° | 173km/h | 12446m | -8.3m/s | -61°C | 66.2% | 191.3hPa | 2.5V | 08:10:11 | 02:22:44 | 00:00:00 | |
| BIOWL1-15 | 2026-09-04 00:42:13 | 53.38815 | 9.26275 | 113° | 173km/h | 12454m | -8.5m/s | -61°C | 66.1% | 191.1hPa | 2.5V | 08:10:11 | 02:22:43 | 00:00:00 | |
| DL1XH-15 | 2026-09-04 00:42:11 | 53.38867 | 9.26074 | 113° | 172km/h | 12479m | -8.2m/s | -61.2°C | 67.2% | 190.3hPa | 2.4V | 08:09:28 | 02:22:40 | 00:00:00 | |
| DB0DAN | 2026-09-04 00:42:10 | 53.38867 | 9.26074 | 113° | 164km/h | 12479m | -8.2m/s | -61.2°C | 56.6% | 190.29hPa | 2.4V | 00:00:00 | 00:00:00 | 00:00:00 | |
| DL1XH1-15 | 2026-09-04 00:42:09 | 53.38972 | 9.25671 | 113° | 173km/h | 12530m | -8.8m/s | -61.5°C | 65.4% | 188.7hPa | 2.4V | 08:09:34 | 02:22:34 | 00:00:00 | |
| AA1-15 | 2026-09-04 00:42:08 | 53.38902 | 9.25940 | 113° | 173km/h | 12496m | -9m/s | -61.2°C | 65.2% | 189.8hPa | 2.5V | 08:10:11 | 02:22:38 | 00:00:00 | |
| DF5WG-10 | 2026-09-04 00:42:08 | 53.38902 | 9.25940 | 114° | 173km/h | 12496m | -9.0m/s | -61.2°C | 66.0% | 189.7hPa | 2.4V | 00:00:00 | 02:22:38 | 00:00:00 | |
| DM0DOS-11 | 2026-09-04 00:42:06 | 53.38955 | 9.25738 | 113° | 173km/h | 12522m | -8.7m/s | -61.4°C | 65.5% | 189hPa | 2.4V | 08:09:33 | 02:22:35 | 00:00:00 | |
| DL1XH-west | 2026-09-04 00:42:04 | 53.38972 | 9.25672 | 114° | 173km/h | 12530m | -8.8m/s | -61.5°C | 64.7% | 188.7hPa | 2.4V | 08:10:11 | 02:22:34 | 00:00:00 | |
| BIOWL1-15 | 2026-09-04 00:42:03 | 53.38990 | 9.25605 | 114° | 172km/h | 12539m | -8.9m/s | -61.5°C | 64.6% | 188.5hPa | 2.4V | 08:10:11 | 02:22:33 | 00:00:00 | |
| DL1XH-15 | 2026-09-04 00:42:01 | 53.39043 | 9.25406 | 114° | 172km/h | 12565m | -8.8m/s | -61.7°C | 65.1% | 187.7hPa | 2.5V | 08:09:38 | 02:22:30 | 00:00:00 | |
| DL3AQ-11 | 2026-09-04 00:42:01 | 53.39043 | 9.25406 | 114° | 172km/h | 12566m | -8.8m/s | -61.7°C | 54.5% | 187.7hPa | 2.5V | 00:00:00 | 00:00:00 | 00:00:00 | |
| EDDB2-12 | 2026-09-04 00:42:00 | 53.39043 | 9.25406 | 114° | 172km/h | 12566m | -8.8m/s | -61.7°C | 54.5% | 187.7hPa | 2.5V | 00:00:00 | 00:00:00 | 00:00:00 | |
| DL1XH1-15 | 2026-09-04 00:41:59 | 53.39151 | 9.25007 | 114° | 173km/h | 12617m | -8.7m/s | -62.2°C | 63.9% | 186.1hPa | 2.5V | 08:09:44 | 02:22:24 | 00:00:00 | |
| BUE01 | 2026-09-04 00:41:59 | 53.39079 | 9.25273 | 114° | 172km/h | 12582m | -8.4m/s | -61.9°C | 54.2% | 187.2hPa | 2.5V | 00:00:00 | 00:00:00 | 00:00:00 | |
| DM0DOS-11 | 2026-09-04 00:41:58 | 53.39133 | 9.25074 | 114° | 172km/h | 12608m | -8.7m/s | -62.1°C | 64.1% | 186.4hPa | 2.5V | 08:09:43 | 02:22:25 | 00:00:00 | |
| AA1-15 | 2026-09-04 00:41:57 | 53.39097 | 9.25207 | 114° | 172km/h | 12591m | -8.8m/s | -62°C | 63.5% | 186.9hPa | 2.4V | 08:10:11 | 02:22:27 | 00:00:00 | |
| DO2JMG | 2026-09-04 00:41:54 | 53.39151 | 9.25007 | 114° | 173km/h | 12617m | -8.7m/s | -62.2°C | 62.9% | 186.1hPa | 2.5V | 08:10:11 | 02:22:24 | 00:00:00 | |
| DF8AY | 2026-09-04 00:41:53 | 53.39169 | 9.24941 | 114° | 173km/h | 12625m | -8.5m/s | -62.3°C | 62.7% | 185.8hPa | 2.4V | 08:11:02 | 02:22:23 | 00:00:00 | |
| BIOWL1-15 | 2026-09-04 00:41:52 | 53.39187 | 9.24874 | 115° | 173km/h | 12634m | -9.2m/s | -62.4°C | 62.4% | 185.6hPa | 2.4V | 08:10:11 | 02:22:22 | 00:00:00 | |
| DL1XH-15 | 2026-09-04 00:41:51 | 53.39224 | 9.24741 | 114° | 173km/h | 12652m | -8.3m/s | -62.5°C | 64.2% | 185hPa | 2.4V | 08:09:48 | 02:22:20 | 00:00:00 | |
| DL3AQ-11 | 2026-09-04 00:41:50 | 53.39243 | 9.24674 | 114° | 173km/h | 12660m | -8.4m/s | -62.6°C | 53.2% | 184.8hPa | 2.4V | 00:00:00 | 00:00:00 | 00:00:00 | |
| DL1XH1-15 | 2026-09-04 00:41:49 | 53.39336 | 9.24342 | 115° | 172km/h | 12704m | -8.6m/s | -63°C | 63.1% | 183.5hPa | 2.4V | 08:09:54 | 02:22:14 | 00:00:00 | |
| AA1-15 | 2026-09-04 00:41:47 | 53.39280 | 9.24540 | 115° | 173km/h | 12678m | -8.7m/s | -62.7°C | 61.4% | 184.3hPa | 2.5V | 08:10:11 | 02:22:17 | 00:00:00 | |
| BIOWL9-15 | 2026-09-04 00:41:47 | 53.39298 | 9.24474 | 115° | 172km/h | 12686m | -8.4m/s | -62.8°C | 52.4% | 184.0hPa | 2.4V | 00:00:00 | 00:00:00 | 00:00:00 | |
| DM0DOS-11 | 2026-09-04 00:41:46 | 53.39317 | 9.24408 | 115° | 172km/h | 12695m | -9.1m/s | -62.9°C | 63% | 183.8hPa | 2.4V | 08:09:53 | 02:22:15 | 00:00:00 | |
| DO2JMG | 2026-09-04 00:41:44 | 53.39335 | 9.24342 | 115° | 172km/h | 12704m | -8.6m/s | -63°C | 60.6% | 183.5hPa | 2.4V | 08:10:11 | 02:22:14 | 00:00:00 | |
| DL1XH-west | 2026-09-04 00:41:43 | 53.39354 | 9.24277 | 115° | 172km/h | 12712m | -8.5m/s | -63.1°C | 60.3% | 183.2hPa | 2.4V | 08:10:11 | 02:22:13 | 00:00:00 | |
| DF8AY | 2026-09-04 00:41:42 | 53.39372 | 9.24211 | 115° | 172km/h | 12721m | -8.7m/s | -63.2°C | 59.9% | 183hPa | 2.5V | 08:11:02 | 02:22:12 | 00:00:00 | |
| DL1XH-15 | 2026-09-04 00:41:41 | 53.39408 | 9.24081 | 114° | 170km/h | 12738m | -8.8m/s | -63.3°C | 61.9% | 182.5hPa | 2.4V | 08:09:58 | 02:22:10 | 00:00:00 | |
| DO2SHX-10 | 2026-09-04 00:41:40 | 53.39408 | 9.24080 | 115° | 168km/h | 12739m | -8.7m/s | -63.3°C | 61.9% | 182.4hPa | 2.5V | 00:00:00 | 02:22:10 | 00:00:00 | |
| GOEST3-10 | 2026-09-04 00:41:39 | 53.39427 | 9.24016 | 116° | 166km/h | 12747m | -8.9m/s | -63.3°C | 61.7% | 182.2hPa | 2.5V | 00:00:00 | 00:00:00 | 00:00:00 | |
| DM0DOS-11 | 2026-09-04 00:41:38 | 53.39498 | 9.23761 | 114° | 164km/h | 12783m | -8.5m/s | -63.5°C | 59.8% | 181.2hPa | 2.5V | 08:10:03 | 02:22:05 | 00:00:00 | |
| AA1-15 | 2026-09-04 00:41:37 | 53.39463 | 9.23887 | 115° | 166km/h | 12765m | -9m/s | -63.5°C | 58.2% | 181.7hPa | 2.4V | 08:10:11 | 02:22:07 | 00:00:00 | |
| DL1XH-west | 2026-09-04 00:41:33 | 53.39532 | 9.23636 | 115° | 161km/h | 12800m | -9.1m/s | -63.5°C | 56.5% | 180.7hPa | 2.4V | 08:10:11 | 02:22:03 | 00:00:00 | |
| BIOWL1-15 | 2026-09-04 00:41:32 | 53.39549 | 9.23574 | 114° | 161km/h | 12810m | -8.9m/s | -63.6°C | 56.1% | 180.4hPa | 2.4V | 08:10:11 | 02:22:02 | 00:00:00 | |
| DF8AY | 2026-09-04 00:41:32 | 53.39565 | 9.23512 | 114° | 161km/h | 12818m | -8.7m/s | -63.6°C | 55.6% | 180.1hPa | 2.4V | 08:11:02 | 02:22:01 | 00:00:00 | |
| DO2SHX-10 | 2026-09-04 00:41:31 | 53.39565 | 9.23512 | 115° | 161km/h | 12818m | -8.6m/s | -63.5°C | 57.3% | 180.1hPa | 2.4V | 00:00:00 | 02:22:01 | 00:00:00 | |
| SONCRA | 2026-09-04 00:41:30 | 53.39582 | 9.23450 | 113° | 159km/h | 12827m | -9.1m/s | -63.6°C | 46.4% | 179.8hPa | 2.4V | 00:00:00 | 00:00:00 | 00:00:00 | |
| DL1XH1-15 | 2026-09-04 00:41:29 | 53.39678 | 9.23075 | 112° | 162km/h | 12882m | -9.4m/s | -63.9°C | 54.2% | 178.3hPa | 2.4V | 08:10:14 | 02:21:54 | 00:00:00 | |
| AA1-15 | 2026-09-04 00:41:26 | 53.39646 | 9.23201 | 113° | 161km/h | 12863m | -9.3m/s | -63.8°C | 53.5% | 178.8hPa | 2.4V | 08:11:02 | 02:21:56 | 00:00:00 | |
| DM0DOS-11 | 2026-09-04 00:41:26 | 53.39662 | 9.23138 | 112° | 161km/h | 12873m | -9.5m/s | -63.9°C | 54.7% | 178.6hPa | 2.4V | 08:10:13 | 02:21:55 | 00:00:00 | |
| DB0DAN | 2026-09-04 00:41:25 | 53.39662 | 9.23138 | 113° | 153km/h | 12873m | -9.5m/s | -63.9°C | 44.4% | 178.56hPa | 2.4V | 00:00:00 | 00:00:00 | 00:00:00 | |
| DL1XH-15 | 2026-09-04 00:41:25 | 53.39740 | 9.22819 | 111° | 164km/h | 12919m | -8.9m/s | -63.9°C | 51.1% | 177.2hPa | 2.4V | 08:10:18 | 02:21:50 | 00:00:00 | |
| DO2JMG | 2026-09-04 00:41:23 | 53.39694 | 9.23011 | 112° | 162km/h | 12892m | -9.2m/s | -63.9°C | 52.1% | 178hPa | 2.5V | 08:11:02 | 02:21:53 | 00:00:00 | |
| DL1XH-west | 2026-09-04 00:41:23 | 53.39709 | 9.22948 | 112° | 162km/h | 12901m | -9.2m/s | -63.8°C | 51.5% | 177.7hPa | 2.5V | 08:11:02 | 02:21:52 | 00:00:00 | |
| BIOWL1-15 | 2026-09-04 00:41:22 | 53.39850 | 9.22364 | 112° | 168km/h | 12985m | -9.2m/s | -64.4°C | 46.2% | 175.3hPa | 2.4V | 08:11:02 | 02:21:43 | 00:00:00 | |
| DF8AY | 2026-09-04 00:41:19 | 53.39755 | 9.22755 | 112° | 164km/h | 12928m | -8.9m/s | -63.9°C | 49.7% | 176.9hPa | 2.4V | 08:11:02 | 02:21:49 | 00:00:00 | |
| DM0DOS-11 | 2026-09-04 00:41:18 | 53.39818 | 9.22495 | 112° | 166km/h | 12966m | -9.8m/s | -64.2°C | 48.2% | 175.8hPa | 2.4V | 08:10:23 | 02:21:45 | 00:00:00 | |
| AA1-15 | 2026-09-04 00:41:16 | 53.39818 | 9.22495 | 112° | 168km/h | 12966m | -9.8m/s | -64.2°C | 47.5% | 175.8hPa | 2.4V | 08:11:02 | 02:21:45 | 00:00:00 | |
| DO2JMG | 2026-09-04 00:41:12 | 53.39866 | 9.22298 | 112° | 166km/h | 12994m | -9.1m/s | -64.4°C | 45.8% | 175.1hPa | 2.4V | 08:11:02 | 02:21:42 | 00:00:00 | |
| DL1XH-west | 2026-09-04 00:41:11 | 53.39881 | 9.22233 | 112° | 166km/h | 13003m | -9.1m/s | -64.5°C | 45.1% | 174.8hPa | 2.5V | 08:11:02 | 02:21:41 | 00:00:00 | |
| DL1XH1-15 | 2026-09-04 00:41:10 | 53.39991 | 9.21772 | 111° | 168km/h | 13067m | -9.1m/s | -65.1°C | 42.5% | 173hPa | 2.5V | 08:10:34 | 02:21:34 | 00:00:00 | |
| DF8AY | 2026-09-04 00:41:08 | 53.39944 | 9.21970 | 112° | 168km/h | 13040m | -8.9m/s | -64.9°C | 42.9% | 173.8hPa | 2.4V | 08:11:02 | 02:21:37 | 00:00:00 | |
| BIOWL1-15 | 2026-09-04 00:41:07 | 53.39959 | 9.21905 | 112° | 168km/h | 13049m | -9.4m/s | -64.9°C | 42.2% | 173.5hPa | 2.4V | 08:11:02 | 02:21:36 | 00:00:00 | |
| DM0DOS-11 | 2026-09-04 00:41:06 | 53.39975 | 9.21839 | 111° | 168km/h | 13058m | -9.3m/s | -65°C | 43% | 173.2hPa | 2.5V | 08:10:33 | 02:21:35 | 00:00:00 | |
| AA1-15 | 2026-09-04 00:41:04 | 53.39991 | 9.21773 | 112° | 168km/h | 13067m | -9.1m/s | -65.1°C | 41% | 173hPa | 2.5V | 08:11:02 | 02:21:34 | 00:00:00 | |
| GOEST3-10 | 2026-09-04 00:41:04 | 53.39990 | 9.21773 | 112° | 170km/h | 13068m | -9.1m/s | -65.1°C | 42.5% | 172.9hPa | 2.4V | 00:00:00 | 02:21:34 | 00:00:00 | |
| DB0NH | 2026-09-04 00:41:03 | 53.40006 | 9.21706 | 112° | 170km/h | 13077m | -9.1m/s | -65.1°C | 41.9% | 172.6hPa | 2.4V | 00:00:00 | 02:21:33 | 00:00:00 | |
| DL1XH-15 | 2026-09-04 00:41:02 | 53.40054 | 9.21507 | 111° | 170km/h | 13104m | -9.1m/s | -65.4°C | 40.3% | 171.9hPa | 2.4V | 08:10:38 | 02:21:30 | 00:00:00 | |
| DO2JMG | 2026-09-04 00:41:02 | 53.40022 | 9.21640 | 112° | 170km/h | 13086m | -9.4m/s | -65.3°C | 39.7% | 172.4hPa | 2.4V | 08:11:02 | 02:21:32 | 00:00:00 | |
| DL1XH-west | 2026-09-04 00:41:00 | 53.40070 | 9.21440 | 112° | 170km/h | 13113m | -9.6m/s | -65.5°C | 37.6% | 171.7hPa | 2.4V | 08:11:02 | 02:21:29 | 00:00:00 | |
| DL1XH1-15 | 2026-09-04 00:41:00 | 53.40149 | 9.21108 | 111° | 170km/h | 13160m | -9.2m/s | -66°C | 37.8% | 170.3hPa | 2.4V | 08:10:44 | 02:21:24 | 00:00:00 | |
| DF8AY | 2026-09-04 00:40:57 | 53.40118 | 9.21241 | 112° | 170km/h | 13141m | -9.4m/s | -65.8°C | 35.6% | 170.9hPa | 2.4V | 08:11:02 | 02:21:26 | 00:00:00 | |
| DB0DAN | 2026-09-04 00:40:55 | 53.40133 | 9.21175 | 112° | 161km/h | 13151m | -9.5m/s | -65.9°C | 28.8% | 170.61hPa | 2.4V | 00:00:00 | 00:00:00 | 00:00:00 | |
| BIOWL1-15 | 2026-09-04 00:40:55 | 53.40133 | 9.21175 | 112° | 170km/h | 13151m | -9.5m/s | -65.9°C | 34.9% | 170.6hPa | 2.4V | 08:11:02 | 02:21:25 | 00:00:00 | |
| DL1XH-15 | 2026-09-04 00:40:55 | 53.40215 | 9.20840 | 112° | 173km/h | 13198m | -9m/s | -66.3°C | 36.2% | 169.3hPa | 2.4V | 08:10:48 | 02:21:20 | 00:00:00 | |
| AA1-15 | 2026-09-04 00:40:53 | 53.40166 | 9.21042 | 112° | 170km/h | 13170m | -9.3m/s | -66.1°C | 33.4% | 170.1hPa | 2.4V | 08:11:02 | 02:21:23 | 00:00:00 | |
| DO2JMG | 2026-09-04 00:40:51 | 53.40198 | 9.20907 | 112° | 173km/h | 13188m | -9.5m/s | -66.2°C | 32% | 169.6hPa | 2.5V | 08:11:02 | 02:21:21 | 00:00:00 | |
| DL1XH1-15 | 2026-09-04 00:40:49 | 53.40320 | 9.20430 | 114° | 175km/h | 13254m | -9.3m/s | -66.8°C | 34.9% | 167.7hPa | 2.4V | 08:10:54 | 02:21:14 | 00:00:00 | |
| DL1XH-west | 2026-09-04 00:40:48 | 53.40249 | 9.20703 | 113° | 175km/h | 13216m | -9.3m/s | -66.5°C | 29.8% | 168.8hPa | 2.4V | 08:11:02 | 02:21:18 | 00:00:00 | |
| DJ2DS-15 | 2026-09-04 00:40:46 | 53.40302 | 9.20497 | 113° | 175km/h | 13244m | -9.6m/s | -66.7°C | 25.6% | 168.0hPa | 2.4V | 00:00:00 | 00:00:00 | 00:00:00 | |
| DF8AY | 2026-09-04 00:40:45 | 53.40320 | 9.20430 | 114° | 175km/h | 13254m | -9.3m/s | -66.8°C | 26.9% | 167.8hPa | 2.4V | 08:11:02 | 02:21:14 | 00:00:00 | |
| DL1XH-15 | 2026-09-04 00:40:45 | 53.40393 | 9.20167 | 115° | 170km/h | 13291m | -9.5m/s | -66.9°C | 33.8% | 166.7hPa | 2.4V | 08:10:58 | 02:21:10 | 00:00:00 | |
| AA1-15 | 2026-09-04 00:40:43 | 53.40338 | 9.20363 | 115° | 172km/h | 13263m | -9m/s | -66.8°C | 26.2% | 167.5hPa | 2.4V | 08:11:02 | 02:21:13 | 00:00:00 | |
| DO2JMG | 2026-09-04 00:40:40 | 53.40393 | 9.20167 | 116° | 170km/h | 13291m | -9.5m/s | -66.9°C | 24.4% | 166.7hPa | 2.4V | 08:11:02 | 02:21:10 | 00:00:00 | |
| DL1XH1-15 | 2026-09-04 00:40:39 | 53.40508 | 9.19791 | 118° | 161km/h | 13348m | -9.5m/s | -66.4°C | 26.1% | 165.2hPa | 2.4V | 08:11:04 | 02:21:04 | 00:00:00 | |
| DL1XH-west | 2026-09-04 00:40:37 | 53.40450 | 9.19975 | 117° | 168km/h | 13319m | -9.3m/s | -66.7°C | 21.8% | 165.9hPa | 2.4V | 08:11:02 | 02:21:07 | 00:00:00 | |
| DM0DOS-11 | 2026-09-04 00:40:36 | 53.40488 | 9.19851 | 117° | 162km/h | 13339m | -9.8m/s | -66.5°C | 27.9% | 165.4hPa | 2.4V | 08:11:03 | 02:21:05 | 00:00:00 | |
| AA1-15 | 2026-09-04 00:40:33 | 53.40527 | 9.19731 | 119° | 159km/h | 13358m | -9.4m/s | -66.2°C | 17.2% | 164.9hPa | 2.5V | 08:11:53 | 02:21:03 | 00:00:00 | |
| DF8AY | 2026-09-04 00:40:32 | 53.40546 | 9.19673 | 119° | 157km/h | 13368m | -9.5m/s | -66°C | 15.9% | 164.6hPa | 2.5V | 08:11:53 | 02:21:02 | 00:00:00 | |
| DO2JMG | 2026-09-04 00:40:30 | 53.40584 | 9.19558 | 119° | 153km/h | 13387m | -9.3m/s | -65.5°C | 13.5% | 164.1hPa | 2.4V | 08:11:53 | 02:21:00 | 00:00:00 | |
| DL3AQ-11 | 2026-09-04 00:40:30 | 53.40603 | 9.19501 | 118° | 151km/h | 13397m | -9.9m/s | -65.4°C | 11.3% | 163.8hPa | 2.4V | 00:00:00 | 00:00:00 | 00:00:00 | |
| DL1XH1-15 | 2026-09-04 00:40:29 | 53.40692 | 9.19235 | 120° | 135km/h | 13451m | -10.1m/s | -62.6°C | 12% | 162.4hPa | 2.4V | 08:11:14 | 02:20:54 | 00:00:00 | |
| DL1XH-west | 2026-09-04 00:40:26 | 53.40657 | 9.19337 | 119° | 142km/h | 13430m | -11.4m/s | -64.6°C | 9.9% | 163hPa | 2.5V | 08:11:53 | 02:20:56 | 00:00:00 | |
| DB0DAN | 2026-09-04 00:40:25 | 53.40674 | 9.19285 | 120° | 133km/h | 13441m | -11m/s | -63.6°C | 7.9% | 162.67hPa | 2.4V | 00:00:00 | 00:00:00 | 00:00:00 | |
| AA1-15 | 2026-09-04 00:40:23 | 53.40709 | 9.19185 | 120° | 133km/h | 13461m | -9.7m/s | -62.4°C | 7.6% | 162.1hPa | 2.4V | 08:11:53 | 02:20:53 | 00:00:00 | |
| DF8AY | 2026-09-04 00:40:21 | 53.40742 | 9.19090 | 120° | 130km/h | 13479m | -8.5m/s | -61.6°C | 6.9% | 161.6hPa | 2.5V | 08:11:53 | 02:20:51 | 00:00:00 | |
| DL8OAI-8 | 2026-09-04 00:40:21 | 53.40742 | 9.19090 | 121° | 130km/h | 13479m | -8.5m/s | -61.6°C | 5.9% | 161.6hPa | 2.5V | 08:11:00 | 00:00:00 | 00:00:00 | |
| DF2AP-13 | 2026-09-04 00:40:20 | 53.40758 | 9.19042 | 120° | 115km/h | 13488m | -8.4m/s | -61.4°C | 10.6% | 161.3hPa | 2.5V | 08:11:00 | 02:20:50 | 00:00:00 | |
| DL1XH1-15 | 2026-09-04 00:40:19 | 53.40846 | 9.18759 | 116° | 122km/h | 13529m | -6.8m/s | -61.2°C | 10.4% | 160.3hPa | 2.5V | 08:11:24 | 02:20:44 | 00:00:00 | |
| BIOWL1-15 | 2026-09-04 00:40:16 | 53.40846 | 9.18759 | 116° | 122km/h | 13529m | -6.9m/s | -61.3°C | 6.2% | 160.3hPa | 2.5V | 08:11:53 | 02:20:44 | 00:00:00 | |
| DO2JMG | 2026-09-04 00:40:15 | 53.40832 | 9.18806 | 117° | 124km/h | 13522m | -6.7m/s | -61.4°C | 6.4% | 160.5hPa | 2.5V | 08:11:53 | 02:20:45 | 00:00:00 | |
| AA1-15 | 2026-09-04 00:40:13 | 53.40860 | 9.18712 | 116° | 120km/h | 13535m | -6.6m/s | -61.1°C | 6.1% | 160.1hPa | 2.4V | 08:11:53 | 02:20:43 | 00:00:00 | |
| DF8AY | 2026-09-04 00:40:11 | 53.40898 | 9.18577 | 115° | 117km/h | 13556m | -6.7m/s | -60.7°C | 5.9% | 159.6hPa | 2.4V | 08:11:53 | 02:20:40 | 00:00:00 | |
| DB0DAN | 2026-09-04 00:40:10 | 53.40898 | 9.18577 | 115° | 111km/h | 13556m | -6.7m/s | -60.7°C | 5.3% | 159.61hPa | 2.4V | 00:00:00 | 00:00:00 | 00:00:00 | |
| DJ2DS-15 | 2026-09-04 00:40:10 | 53.40911 | 9.18533 | 114° | 113km/h | 13562m | -5.8m/s | -60.5°C | 5.1% | 159.4hPa | 2.4V | 00:00:00 | 00:00:00 | 00:00:00 | |
| DL1XH1-15 | 2026-09-04 00:40:09 | 53.40966 | 9.18314 | 111° | 111km/h | 13608m | -11.9m/s | -59.1°C | 8.3% | 158.4hPa | 2.4V | 08:11:34 | 02:20:34 | 00:00:00 | |
| DO2SHX-10 | 2026-09-04 00:40:09 | 53.40911 | 9.18533 | 115° | 113km/h | 13562m | -5.8m/s | -60.5°C | 9.6% | 159.4hPa | 2.4V | 00:00:00 | 02:20:39 | 00:00:00 | |
| DF5WG-10 | 2026-09-04 00:40:08 | 53.40923 | 9.18489 | 114° | 110km/h | 13568m | -6.3m/s | -60.2°C | 9.2% | 159.3hPa | 2.4V | 00:00:00 | 02:20:38 | 00:00:00 | |
| DM0DOS-11 | 2026-09-04 00:40:06 | 53.40956 | 9.18357 | 111° | 111km/h | 13597m | -10.2m/s | -59.6°C | 8.7% | 158.6hPa | 2.4V | 08:11:33 | 02:20:35 | 00:00:00 | |
| DL1XH-west | 2026-09-04 00:40:05 | 53.40966 | 9.18314 | 112° | 111km/h | 13608m | -12m/s | -59.2°C | 5.2% | 158.4hPa | 2.4V | 08:11:53 | 02:20:34 | 00:00:00 | |
| DL1XH-15 | 2026-09-04 00:40:05 | 53.41008 | 9.18145 | 112° | 106km/h | 13654m | -10m/s | -58.7°C | 8% | 157.2hPa | 2.4V | 08:11:38 | 02:20:30 | 00:00:00 | |
| DO2JMG | 2026-09-04 00:40:05 | 53.40956 | 9.18357 | 112° | 113km/h | 13597m | -10.2m/s | -59.6°C | 5.4% | 158.6hPa | 2.4V | 08:11:53 | 02:20:35 | 00:00:00 | |
| BIOWL1-15 | 2026-09-04 00:40:03 | 53.40977 | 9.18271 | 112° | 110km/h | 13620m | -12.7m/s | -58.8°C | 5% | 158.1hPa | 2.4V | 08:11:53 | 02:20:33 | 00:00:00 | |
| AA1-15 | 2026-09-04 00:40:02 | 53.40987 | 9.18228 | 113° | 110km/h | 13632m | -11.5m/s | -58.7°C | 5.1% | 157.8hPa | 2.5V | 08:11:53 | 02:20:32 | 00:00:00 | |
| DF8AY | 2026-09-04 00:40:00 | 53.41008 | 9.18145 | 113° | 106km/h | 13654m | -10m/s | -58.7°C | 4.9% | 157.2hPa | 2.4V | 08:11:53 | 02:20:30 | 00:00:00 | |
| HTAHTA | 2026-09-04 00:40:00 | 53.41018 | 9.18104 | 112° | 102km/h | 13664m | -9.8m/s | -58.7°C | 4.1% | 156.9hPa | 2.5V | 00:00:00 | 00:00:00 | 00:00:00 | |
| SONCRA | 2026-09-04 00:39:57 | 53.41038 | 9.18024 | 112° | 100km/h | 13683m | -9.5m/s | -58.8°C | 4.1% | 156.4hPa | 2.5V | 00:00:00 | 00:00:00 | 00:00:00 | |
| DM0DOS-11 | 2026-09-04 00:39:56 | 53.41057 | 9.17947 | 112° | 97km/h | 13703m | -10.1m/s | -58.8°C | 7.9% | 155.9hPa | 2.5V | 08:11:43 | 02:20:25 | 00:00:00 | |
| DB0DAN | 2026-09-04 00:39:55 | 53.41057 | 9.17947 | 112° | 93km/h | 13703m | -10.1m/s | -58.8°C | 4% | 155.93hPa | 2.5V | 00:00:00 | 00:00:00 | 00:00:00 | |
| DL1XH-15 | 2026-09-04 00:39:55 | 53.41099 | 9.17758 | 107° | 95km/h | 13764m | -12.2m/s | -58.4°C | 7.2% | 154.5hPa | 2.5V | 08:11:48 | 02:20:20 | 00:00:00 | |
| DO2JMG | 2026-09-04 00:39:55 | 53.41057 | 9.17947 | 112° | 97km/h | 13703m | -10.1m/s | -58.8°C | 4.6% | 155.9hPa | 2.5V | 08:11:53 | 02:20:25 | 00:00:00 | |
| BIOWL1-15 | 2026-09-04 00:39:53 | 53.41075 | 9.17871 | 111° | 97km/h | 13726m | -13.8m/s | -58.8°C | 4.4% | 155.4hPa | 2.4V | 08:11:53 | 02:20:23 | 00:00:00 | |
| AA1-15 | 2026-09-04 00:39:52 | 53.41092 | 9.17796 | 109° | 95km/h | 13751m | -12.5m/s | -58.6°C | 4.2% | 154.8hPa | 2.4V | 08:11:53 | 02:20:21 | 00:00:00 | |
| DF8AY | 2026-09-04 00:39:48 | 53.41112 | 9.17680 | 106° | 95km/h | 13791m | -13.9m/s | -58.3°C | 3.9% | 153.9hPa | 2.4V | 08:11:53 | 02:20:18 | 00:00:00 | |
| DO2SHX-10 | 2026-09-04 00:39:48 | 53.41112 | 9.17680 | 106° | 97km/h | 13791m | -13.9m/s | -58.3°C | 7.0% | 153.9hPa | 2.4V | 00:00:00 | 02:20:18 | 00:00:00 | |
| DL1XH1-15 | 2026-09-04 00:39:47 | 53.41137 | 9.17519 | 103° | 99km/h | 13846m | -14.9m/s | -58.3°C | 6.6% | 152.6hPa | 2.5V | 08:11:54 | 02:20:14 | 00:00:00 | |
| DO2JMG | 2026-09-04 00:39:44 | 53.41137 | 9.17519 | 104° | 99km/h | 13846m | -14.9m/s | -58.3°C | 3.6% | 152.6hPa | 2.5V | 08:12:44 | 02:20:14 | 00:00:00 | |
| DL1XH-west | 2026-09-04 00:39:44 | 53.41143 | 9.17478 | 103° | 100km/h | 13860m | -14.4m/s | -58.3°C | 3.5% | 152.2hPa | 2.5V | 08:12:44 | 02:20:13 | 00:00:00 | |
| BIOWL1-15 | 2026-09-04 00:39:43 | 53.41163 | 9.17306 | 101° | 106km/h | 13909m | -12.7m/s | -58.1°C | 3.2% | 151hPa | 2.4V | 08:12:44 | 02:20:09 | 00:00:00 | |
| DL1XH-15 | 2026-09-04 00:39:42 | 53.41158 | 9.17350 | 101° | 104km/h | 13898m | -10m/s | -58.2°C | 6.5% | 151.2hPa | 2.4V | 08:11:58 | 02:20:10 | 00:00:00 | |
| AA1-15 | 2026-09-04 00:39:41 | 53.41153 | 9.17393 | 102° | 104km/h | 13887m | -12m/s | -58.3°C | 3.4% | 151.5hPa | 2.4V | 08:12:44 | 02:20:11 | 00:00:00 | |
| DF8AY | 2026-09-04 00:39:38 | 53.41215 | 9.16779 | 97° | 106km/h | 14043m | -11.4m/s | -58°C | 2.9% | 147.8hPa | 2.4V | 08:12:44 | 02:19:57 | 00:00:00 | |
| DO2JMG | 2026-09-04 00:39:33 | 53.41192 | 9.17040 | 99° | 106km/h | 13976m | -9.8m/s | -58°C | 3% | 149.4hPa | 2.5V | 08:12:44 | 02:20:03 | 00:00:00 | |
| DL1XH-west | 2026-09-04 00:39:33 | 53.41204 | 9.16909 | 98° | 102km/h | 14009m | -12m/s | -58°C | 2.9% | 148.6hPa | 2.4V | 08:12:44 | 02:20:00 | 00:00:00 | |
| DO2SHX-10 | 2026-09-04 00:39:33 | 53.41192 | 9.17040 | 100° | 104km/h | 13976m | -9.7m/s | -58.0°C | 6.3% | 149.3hPa | 2.4V | 00:00:00 | 02:20:03 | 00:00:00 | |
| DL1XH-15 | 2026-09-04 00:39:32 | 53.41204 | 9.16909 | 98° | 102km/h | 14009m | -12m/s | -58°C | 6.2% | 148.6hPa | 2.4V | 08:12:08 | 02:20:00 | 00:00:00 | |
| AA1-15 | 2026-09-04 00:39:31 | 53.41200 | 9.16953 | 98° | 104km/h | 13998m | -11.4m/s | -57.9°C | 3% | 148.9hPa | 2.5V | 08:12:44 | 02:20:01 | 00:00:00 | |
| DF8AY | 2026-09-04 00:39:29 | 53.41225 | 9.16648 | 97° | 104km/h | 14077m | -11.8m/s | -58.3°C | 2.8% | 147hPa | 2.4V | 08:12:44 | 02:19:54 | 00:00:00 | |
| DO2JMG | 2026-09-04 00:39:23 | 53.41228 | 9.16604 | 97° | 102km/h | 14089m | -12.3m/s | -58.3°C | 2.8% | 146.7hPa | 2.4V | 08:12:44 | 02:19:53 | 00:00:00 | |
| DL1XH-west | 2026-09-04 00:39:22 | 53.41238 | 9.16471 | 96° | 108km/h | 14126m | -12.4m/s | -58.4°C | 2.7% | 145.9hPa | 2.5V | 08:12:44 | 02:19:50 | 00:00:00 | |
| DL1XH-15 | 2026-09-04 00:39:22 | 53.41238 | 9.16471 | 96° | 108km/h | 14126m | -12.4m/s | -58.4°C | 6.4% | 145.9hPa | 2.5V | 08:12:18 | 02:19:50 | 00:00:00 | |
| AA1-15 | 2026-09-04 00:39:20 | 53.41241 | 9.16426 | 97° | 104km/h | 14139m | -12.7m/s | -58.5°C | 2.7% | 145.6hPa | 2.5V | 08:12:44 | 02:19:49 | 00:00:00 | |
| BIOWL1-15 | 2026-09-04 00:39:20 | 53.41245 | 9.16382 | 99° | 104km/h | 14152m | -14.3m/s | -58.5°C | 2.7% | 145.3hPa | 2.4V | 08:12:44 | 02:19:48 | 00:00:00 | |
| DL1XH1-15 | 2026-09-04 00:39:19 | 53.41263 | 9.16202 | 100° | 110km/h | 14209m | -13.9m/s | -58.2°C | 6.1% | 144hPa | 2.5V | 08:12:24 | 02:19:44 | 00:00:00 | |
| GOEST3-10 | 2026-09-04 00:39:19 | 53.41241 | 9.16426 | 97° | 106km/h | 14139m | -12.7m/s | -58.4°C | 6.3% | 145.5hPa | 2.4V | 00:00:00 | 00:00:00 | 00:00:00 | |
| DO2SHX-10 | 2026-09-04 00:39:18 | 53.41245 | 9.16382 | 99° | 106km/h | 14152m | -14.3m/s | -58.4°C | 6.3% | 145.3hPa | 2.4V | 00:00:00 | 02:19:48 | 00:00:00 | |
| DM0DOS-11 | 2026-09-04 00:39:16 | 53.41258 | 9.16248 | 99° | 110km/h | 14195m | -13.9m/s | -58.3°C | 6.2% | 144.3hPa | 2.4V | 08:12:23 | 02:19:45 | 00:00:00 | |
| DO2JMG | 2026-09-04 00:39:13 | 53.41268 | 9.16156 | 102° | 110km/h | 14223m | -13.2m/s | -58.1°C | 2.5% | 143.6hPa | 2.5V | 08:12:44 | 02:19:43 | 00:00:00 | |
| DL4BBY-15 | 2026-09-04 00:39:13 | 53.41268 | 9.16156 | 102° | 104km/h | 14223m | -13.2m/s | -57.7°C | 0% | 0hPa | 2.4V | 00:00:00 | 00:00:00 | 00:00:00 | |
| DL1XH-15 | 2026-09-04 00:39:12 | 53.41287 | 9.16021 | 104° | 110km/h | 14263m | -12m/s | -58.3°C | 6% | 142.7hPa | 2.4V | 08:12:28 | 02:19:40 | 00:00:00 | |
| HSKMA3-T | 2026-09-04 00:39:12 | 53.41274 | 9.16111 | 103° | 110km/h | 14236m | -13.6m/s | -58.2°C | 2.4% | 143.3hPa | 2.4V | 08:14:26 | 02:19:42 | 00:00:00 | |
| DL1XH-west | 2026-09-04 00:39:10 | 53.41287 | 9.16021 | 105° | 110km/h | 14263m | -12m/s | -58.3°C | 2.4% | 142.7hPa | 2.4V | 08:12:44 | 02:19:40 | 00:00:00 | |
| DL3AQ-11 | 2026-09-04 00:39:10 | 53.41295 | 9.15976 | 105° | 108km/h | 14277m | -14.3m/s | -58.4°C | 2.5% | 142.3hPa | 2.4V | 00:00:00 | 00:00:00 | 00:00:00 | |
| DM0DOS-11 | 2026-09-04 00:39:09 | 53.41326 | 9.15802 | 108° | 108km/h | 14325m | -10.2m/s | -58.3°C | 6.1% | 141.2hPa | 2.4V | 08:12:33 | 02:19:35 | 00:00:00 | |
| BIOWL1-15 | 2026-09-04 00:39:09 | 53.41295 | 9.15976 | 105° | 108km/h | 14277m | -14.3m/s | -58.4°C | 2.4% | 142.3hPa | 2.4V | 08:12:44 | 02:19:39 | 00:00:00 | |
| AA1-15 | 2026-09-04 00:39:08 | 53.41302 | 9.15932 | 106° | 108km/h | 14290m | -13.9m/s | -58.4°C | 2.4% | 142.1hPa | 2.5V | 08:12:44 | 02:19:38 | 00:00:00 | |
| DO2JMG | 2026-09-04 00:39:03 | 53.41343 | 9.15717 | 108° | 104km/h | 14346m | -10.8m/s | -58°C | 2.2% | 140.7hPa | 2.5V | 08:12:44 | 02:19:33 | 00:00:00 | |
| DO2SHX-10 | 2026-09-04 00:39:03 | 53.41342 | 9.15717 | 108° | 102km/h | 14346m | -10.8m/s | -58.0°C | 6.0% | 140.7hPa | 2.5V | 08:12:00 | 02:19:33 | 00:00:00 | |
| DL1XH-15 | 2026-09-04 00:39:02 | 53.41365 | 9.15594 | 106° | 99km/h | 14377m | -9.7m/s | -57.5°C | 5.8% | 140hPa | 2.4V | 08:12:38 | 02:19:30 | 00:00:00 | |
| HSKMA3-T | 2026-09-04 00:39:02 | 53.41351 | 9.15675 | 108° | 102km/h | 14357m | -10.2m/s | -57.8°C | 2.2% | 140.5hPa | 2.5V | 08:14:26 | 02:19:32 | 00:00:00 | |
| BIOWL1-15 | 2026-09-04 00:39:01 | 53.41400 | 9.15355 | 102° | 99km/h | 14437m | -9.9m/s | -56.5°C | 1.9% | 138.8hPa | 2.4V | 08:12:44 | 02:19:24 | 00:00:00 | |
| DL1XH-west | 2026-09-04 00:39:00 | 53.41379 | 9.15515 | 104° | 97km/h | 14397m | -9.7m/s | -57.2°C | 2.1% | 139.6hPa | 2.4V | 08:12:44 | 02:19:28 | 00:00:00 | |
| DO2SHX-10 | 2026-09-04 00:39:00 | 53.41365 | 9.15594 | 107° | 97km/h | 14377m | -9.7m/s | -57.4°C | 5.8% | 140.0hPa | 2.4V | 00:00:00 | 02:19:30 | 00:00:00 | |
| DL1XH1-15 | 2026-09-04 00:38:59 | 53.41400 | 9.15355 | 101° | 99km/h | 14437m | -9.9m/s | -56.5°C | 5.3% | 138.7hPa | 2.4V | 08:12:44 | 02:19:24 | 00:00:00 | |
| AA1-15 | 2026-09-04 00:38:58 | 53.41384 | 9.15475 | 103° | 95km/h | 14407m | -10.1m/s | -56.9°C | 1.9% | 139.4hPa | 2.5V | 08:12:44 | 02:19:27 | 00:00:00 | |
| HTAHTA | 2026-09-04 00:38:58 | 53.41384 | 9.15475 | 103° | 95km/h | 14407m | -10.1m/s | -56.9°C | 2.2% | 139.4hPa | 2.5V | 00:00:00 | 00:00:00 | 00:00:00 | |
| DJ2DS-15 | 2026-09-04 00:38:57 | 53.41384 | 9.15475 | 103° | 95km/h | 14407m | -10.1m/s | -56.9°C | 2.2% | 139.4hPa | 2.5V | 00:00:00 | 00:00:00 | 00:00:00 | |
| DM0DOS-11 | 2026-09-04 00:38:56 | 53.41395 | 9.15396 | 102° | 97km/h | 14426m | -10m/s | -56.6°C | 5.3% | 138.9hPa | 2.5V | 08:12:43 | 02:19:25 | 00:00:00 | |
| DB0DAN | 2026-09-04 00:38:55 | 53.41395 | 9.15395 | 102° | 93km/h | 14427m | -10m/s | -56.6°C | 2.1% | 138.94hPa | 2.5V | 00:00:00 | 00:00:00 | 00:00:00 | |
| DO2JMG | 2026-09-04 00:38:53 | 53.41405 | 9.15313 | 101° | 102km/h | 14447m | -11.5m/s | -56.4°C | 1.8% | 138.6hPa | 2.4V | 08:13:35 | 02:19:23 | 00:00:00 | |
| HSKMA3-T | 2026-09-04 00:38:51 | 53.41416 | 9.15229 | 102° | 102km/h | 14472m | -13m/s | -56.3°C | 1.8% | 138.1hPa | 2.4V | 08:14:26 | 02:19:21 | 00:00:00 | |
| DO2SHX-10 | 2026-09-04 00:38:51 | 53.41416 | 9.15229 | 103° | 102km/h | 14472m | -13.0m/s | -56.2°C | 5.1% | 138.0hPa | 2.5V | 00:00:00 | 02:19:21 | 00:00:00 | |
| DM0DOS-11 | 2026-09-04 00:38:50 | 53.41453 | 9.14976 | 102° | 104km/h | 14553m | -14m/s | -56.4°C | 5.2% | 136.3hPa | 2.5V | 08:12:53 | 02:19:15 | 00:00:00 | |
| DF8AY | 2026-09-04 00:38:49 | 53.41428 | 9.15145 | 105° | 102km/h | 14498m | -13.8m/s | -56.2°C | 1.7% | 137.5hPa | 2.5V | 08:14:26 | 02:19:19 | 00:00:00 | |
| BIOWL1-15 | 2026-09-04 00:38:48 | 53.41434 | 9.15102 | 104° | 104km/h | 14512m | -13.2m/s | -56.3°C | 1.8% | 137.2hPa | 2.4V | 08:14:26 | 02:19:18 | 00:00:00 | |
| DB0UT-7 | 2026-09-04 00:38:48 | 53.41434 | 9.15102 | 105° | 100km/h | 14512m | -13.2m/s | -56.2°C | 5.1% | 137.1hPa | 2.4V | 08:12:00 | 02:19:18 | 00:00:00 | |
| DL1XH1-15 | 2026-09-04 00:38:47 | 53.41458 | 9.14933 | 101° | 102km/h | 14566m | -13.3m/s | -56.5°C | 5.2% | 136hPa | 2.5V | 08:12:54 | 02:19:14 | 00:00:00 | |
| AA1-15 | 2026-09-04 00:38:46 | 53.41447 | 9.15019 | 105° | 102km/h | 14539m | -13.3m/s | -56.4°C | 1.7% | 136.6hPa | 2.4V | 08:13:35 | 02:19:16 | 00:00:00 | |
| DL4XJ-10 | 2026-09-04 00:38:46 | 53.41447 | 9.15019 | 105° | 104km/h | 14540m | -13.2m/s | -55.9°C | 0% | 0hPa | 2.5V | 00:00:00 | 00:00:00 | 00:00:00 | |
| DO2SHX-10 | 2026-09-04 00:38:45 | 53.41453 | 9.14976 | 103° | 104km/h | 14553m | -13.9m/s | -56.4°C | 5.2% | 136.3hPa | 2.5V | 00:00:00 | 02:19:15 | 00:00:00 | |
| GOEST3-10 | 2026-09-04 00:38:44 | 53.41458 | 9.14934 | 102° | 106km/h | 14566m | -13.3m/s | -56.5°C | 5.2% | 136.0hPa | 2.5V | 08:12:00 | 02:19:14 | 00:00:00 | |
| DL4BBY-15 | 2026-09-04 00:38:43 | 53.41463 | 9.14890 | 100° | 99km/h | 14579m | -12.7m/s | -56.1°C | 0% | 0hPa | 2.4V | 00:00:00 | 00:00:00 | 00:00:00 | |
| DL1XH-15 | 2026-09-04 00:38:42 | 53.41475 | 9.14756 | 98° | 108km/h | 14619m | -13.7m/s | -56.6°C | 5.3% | 134.9hPa | 2.4V | 08:12:58 | 02:19:10 | 00:00:00 | |
| DO2JMG | 2026-09-04 00:38:42 | 53.41467 | 9.14845 | 98° | 108km/h | 14592m | -12.9m/s | -56.6°C | 1.9% | 135.4hPa | 2.4V | 08:13:35 | 02:19:12 | 00:00:00 | |
| HSKMA3-T | 2026-09-04 00:38:41 | 53.41471 | 9.14800 | 98° | 108km/h | 14605m | -13.6m/s | -56.6°C | 1.7% | 135.2hPa | 2.4V | 08:14:26 | 02:19:11 | 00:00:00 | |
| DB0DAN | 2026-09-04 00:38:40 | 53.41475 | 9.14756 | 98° | 102km/h | 14619m | -13.7m/s | -56.6°C | 2.1% | 134.92hPa | 2.4V | 00:00:00 | 00:00:00 | 00:00:00 | |
| BIOWL9-15 | 2026-09-04 00:38:40 | 53.41475 | 9.14756 | 98° | 106km/h | 14619m | -13.7m/s | -56.6°C | 2.1% | 134.9hPa | 2.4V | 00:00:00 | 00:00:00 | 00:00:00 | |
| DL1XH1-15 | 2026-09-04 00:38:39 | 53.41512 | 9.14495 | 107° | 100km/h | 14700m | -14m/s | -56.4°C | 5.1% | 133.2hPa | 2.4V | 08:13:04 | 02:19:04 | 00:00:00 | |
| DL1XH-west | 2026-09-04 00:38:38 | 53.41484 | 9.14666 | 102° | 108km/h | 14648m | -14.1m/s | -56.4°C | 1.7% | 134.2hPa | 2.5V | 08:13:35 | 02:19:08 | 00:00:00 | |
| AA1-15 | 2026-09-04 00:38:35 | 53.41505 | 9.14536 | 107° | 102km/h | 14686m | -12.8m/s | -56.4°C | 1.7% | 133.5hPa | 2.4V | 08:13:35 | 02:19:05 | 00:00:00 | |
| DF8AY-15 | 2026-09-04 00:38:34 | 53.41512 | 9.14495 | 108° | 97km/h | 14700m | -13.9m/s | -56.4°C | 5.1% | 133.2hPa | 2.4V | 08:13:00 | 02:19:04 | 00:00:00 | |
| DO2SHX-10 | 2026-09-04 00:38:33 | 53.41519 | 9.14455 | 108° | 99km/h | 14714m | -14.0m/s | -56.4°C | 5.2% | 132.9hPa | 2.4V | 00:00:00 | 02:19:03 | 00:00:00 | |
| DL1XH-15 | 2026-09-04 00:38:32 | 53.41541 | 9.14334 | 106° | 100km/h | 14757m | -12.8m/s | -56.5°C | 5.2% | 132hPa | 2.4V | 08:13:08 | 02:19:00 | 00:00:00 | |
| DO2JMG | 2026-09-04 00:38:32 | 53.41527 | 9.14415 | 106° | 99km/h | 14729m | -15.7m/s | -56.5°C | 1.7% | 132.6hPa | 2.5V | 08:13:35 | 02:19:02 | 00:00:00 | |
| BIOWL1-15 | 2026-09-04 00:38:30 | 53.41614 | 9.13940 | 110° | 93km/h | 14869m | -8.8m/s | -55.7°C | 1.5% | 129.6hPa | 2.5V | 08:14:26 | 02:18:50 | 00:00:00 | |
| DL3AQ-11 | 2026-09-04 00:38:30 | 53.41548 | 9.14294 | 106° | 99km/h | 14770m | -13.1m/s | -56.5°C | 2.0% | 131.7hPa | 2.4V | 00:00:00 | 00:00:00 | 00:00:00 | |
| DL1XH1-15 | 2026-09-04 00:38:29 | 53.41583 | 9.14092 | 107° | 97km/h | 14826m | -11.8m/s | -55.9°C | 4.9% | 130.5hPa | 2.4V | 08:13:14 | 02:18:54 | 00:00:00 | |
| DF8AY | 2026-09-04 00:38:27 | 53.41562 | 9.14212 | 106° | 100km/h | 14794m | -11.5m/s | -56.3°C | 1.6% | 131.2hPa | 2.5V | 08:14:26 | 02:18:57 | 00:00:00 | |
| DB0DAN | 2026-09-04 00:38:25 | 53.41576 | 9.14131 | 107° | 95km/h | 14815m | -10.4m/s | -56.1°C | 1.9% | 130.77hPa | 2.5V | 00:00:00 | 00:00:00 | 00:00:00 | |
| AA1-15 | 2026-09-04 00:38:25 | 53.41590 | 9.14053 | 108° | 97km/h | 14838m | -11.5m/s | -55.8°C | 1.5% | 130.3hPa | 2.5V | 08:13:35 | 02:18:53 | 00:00:00 | |
| DO2JMG | 2026-09-04 00:38:21 | 53.41606 | 9.13977 | 110° | 93km/h | 14860m | -9.4m/s | -55.7°C | 1.5% | 129.8hPa | 2.5V | 08:13:35 | 02:18:51 | 00:00:00 | |
| DF8AY | 2026-09-04 00:38:17 | 53.41638 | 9.13831 | 111° | 91km/h | 14894m | -10m/s | -55.8°C | 1.5% | 129.1hPa | 2.4V | 08:14:26 | 02:18:47 | 00:00:00 | |
| DM0DOS-11 | 2026-09-04 00:38:16 | 53.41653 | 9.13758 | 108° | 91km/h | 14914m | -10.3m/s | -55.9°C | 5% | 128.7hPa | 2.5V | 08:13:23 | 02:18:45 | 00:00:00 | |
| AA1-15 | 2026-09-04 00:38:14 | 53.41661 | 9.13721 | 108° | 89km/h | 14926m | -11.6m/s | -55.9°C | 1.5% | 128.5hPa | 2.5V | 08:13:35 | 02:18:44 | 00:00:00 | |
| DL3AQ-11 | 2026-09-04 00:38:14 | 53.41668 | 9.13685 | 107° | 89km/h | 14936m | -9.5m/s | -55.8°C | 1.9% | 128.3hPa | 2.5V | 00:00:00 | 00:00:00 | 00:00:00 | |
| DL4BBY-15 | 2026-09-04 00:38:13 | 53.41668 | 9.13685 | 108° | 84km/h | 14936m | -9.4m/s | -55.3°C | 0% | 0hPa | 2.5V | 00:00:00 | 00:00:00 | 00:00:00 | |
| DL1XH-15 | 2026-09-04 00:38:12 | 53.41687 | 9.13579 | 106° | 84km/h | 14966m | -10m/s | -55.8°C | 4.9% | 127.7hPa | 2.5V | 08:13:28 | 02:18:40 | 00:00:00 | |
| DO2JMG | 2026-09-04 00:38:10 | 53.41687 | 9.13579 | 106° | 84km/h | 14966m | -10m/s | -55.8°C | 1.5% | 127.7hPa | 2.5V | 08:13:35 | 02:18:40 | 00:00:00 | |
| DM0DOS-11 | 2026-09-04 00:38:10 | 53.41713 | 9.13414 | 103° | 78km/h | 15027m | -12m/s | -55.6°C | 4.8% | 126.5hPa | 2.4V | 08:13:33 | 02:18:35 | 00:00:00 | |
| DL1XH1-15 | 2026-09-04 00:38:09 | 53.41717 | 9.13381 | 102° | 78km/h | 15039m | -11.8m/s | -55.6°C | 4.8% | 126.3hPa | 2.4V | 08:13:34 | 02:18:34 | 00:00:00 | |
| DL1XH-west | 2026-09-04 00:38:07 | 53.41703 | 9.13478 | 104° | 80km/h | 15000m | -15.4m/s | -55.7°C | 1.4% | 127.1hPa | 2.5V | 08:13:35 | 02:18:37 | 00:00:00 | |
| DF8AY | 2026-09-04 00:38:06 | 53.41713 | 9.13414 | 104° | 78km/h | 15027m | -12m/s | -55.6°C | 1.4% | 126.5hPa | 2.4V | 08:14:26 | 02:18:35 | 00:00:00 | |
| AA1-15 | 2026-09-04 00:38:03 | 53.41721 | 9.13348 | 101° | 80km/h | 15050m | -10.8m/s | -55.7°C | 1.4% | 126hPa | 2.5V | 08:13:35 | 02:18:33 | 00:00:00 | |
| DO2JMG | 2026-09-04 00:37:59 | 53.41737 | 9.13212 | 101° | 84km/h | 15093m | -11.6m/s | -55.7°C | 1.3% | 125.2hPa | 2.4V | 08:15:17 | 02:18:29 | 00:00:00 | |
| BIOWL1-15 | 2026-09-04 00:37:59 | 53.41745 | 9.13142 | 101° | 84km/h | 15117m | -12.8m/s | -55.8°C | 1.3% | 124.8hPa | 2.5V | 08:14:26 | 02:18:27 | 00:00:00 | |
| DL1XH1-15 | 2026-09-04 00:37:59 | 53.41759 | 9.13037 | 104° | 86km/h | 15154m | -12.5m/s | -56°C | 4.9% | 124hPa | 2.4V | 08:13:44 | 02:18:24 | 00:00:00 | |
| DL1XH-west | 2026-09-04 00:37:56 | 53.41749 | 9.13107 | 103° | 86km/h | 15129m | -11.2m/s | -55.9°C | 1.3% | 124.5hPa | 2.5V | 08:14:26 | 02:18:26 | 00:00:00 | |
| DF8AY | 2026-09-04 00:37:51 | 53.41776 | 9.12931 | 106° | 88km/h | 15188m | -11.1m/s | -55.9°C | 1.4% | 123.3hPa | 2.5V | 08:14:26 | 02:18:21 | 00:00:00 | |
| DO2JMG | 2026-09-04 00:37:48 | 53.41795 | 9.12825 | 107° | 86km/h | 15217m | -10.8m/s | -55.7°C | 1.4% | 122.8hPa | 2.4V | 08:15:17 | 02:18:18 | 00:00:00 | |
| DL1XH-west | 2026-09-04 00:37:45 | 53.41813 | 9.12725 | 107° | 80km/h | 15249m | -11.3m/s | -55.5°C | 1.3% | 122.1hPa | 2.5V | 08:14:26 | 02:18:15 | 00:00:00 | |
| DF8AY | 2026-09-04 00:37:41 | 53.41837 | 9.12593 | 106° | 82km/h | 15295m | -12.5m/s | -55.3°C | 1.3% | 121.3hPa | 2.4V | 08:14:26 | 02:18:11 | 00:00:00 | |
| AA1-15 | 2026-09-04 00:37:41 | 53.41843 | 9.12560 | 106° | 84km/h | 15307m | -12m/s | -55.1°C | 1.2% | 121.1hPa | 2.5V | 08:14:26 | 02:18:10 | 00:00:00 | |
| HSKMA3-T | 2026-09-04 00:37:38 | 53.41855 | 9.12493 | 107° | 82km/h | 15334m | -14.2m/s | -54.9°C | 1.1% | 120.6hPa | 2.5V | 08:14:26 | 02:18:08 | 00:00:00 | |
| DO2JMG | 2026-09-04 00:37:37 | 53.41861 | 9.12460 | 107° | 80km/h | 15349m | -15.5m/s | -54.9°C | 1.1% | 120.3hPa | 2.5V | 08:15:17 | 02:18:07 | 00:00:00 | |
| DF5WG-10 | 2026-09-04 00:37:37 | 53.41861 | 9.12460 | 108° | 78km/h | 15349m | -15.4m/s | -54.8°C | 4.5% | 120.3hPa | 2.4V | 00:00:00 | 02:18:07 | 00:00:00 | |
| DO2SHX-10 | 2026-09-04 00:37:35 | 53.41874 | 9.12394 | 109° | 80km/h | 15379m | -13.6m/s | -54.7°C | 4.5% | 119.7hPa | 2.4V | 00:00:00 | 02:18:05 | 00:00:00 | |
| DL1XH-west | 2026-09-04 00:37:35 | 53.41874 | 9.12394 | 108° | 82km/h | 15378m | -13.7m/s | -54.8°C | 1.1% | 119.8hPa | 2.5V | 08:14:26 | 02:18:05 | 00:00:00 | |
| DL1XH-15 | 2026-09-04 00:37:34 | 53.41908 | 9.12234 | 110° | 77km/h | 15441m | -11.8m/s | -54.5°C | 4.5% | 118.5hPa | 2.4V | 08:14:08 | 02:18:00 | 00:00:00 | |
| DF8AY | 2026-09-04 00:37:30 | 53.41908 | 9.12234 | 110° | 78km/h | 15441m | -11.8m/s | -54.5°C | 1.1% | 118.5hPa | 2.4V | 08:14:26 | 02:18:00 | 00:00:00 | |
| DM0DOS-11 | 2026-09-04 00:37:30 | 53.41943 | 9.12087 | 112° | 73km/h | 15495m | -7.3m/s | -54.4°C | 4.4% | 117.5hPa | 2.5V | 08:14:13 | 02:17:55 | 00:00:00 | |
| AA1-15 | 2026-09-04 00:37:29 | 53.41915 | 9.12203 | 112° | 77km/h | 15453m | -11.2m/s | -54.5°C | 1.1% | 118.3hPa | 2.4V | 08:14:26 | 02:17:59 | 00:00:00 | |
| DO2JMG | 2026-09-04 00:37:27 | 53.41929 | 9.12145 | 113° | 73km/h | 15475m | -10.9m/s | -54.5°C | 1.1% | 117.9hPa | 2.5V | 08:15:17 | 02:17:57 | 00:00:00 | |
| HSKMA3-T | 2026-09-04 00:37:26 | 53.41936 | 9.12116 | 113° | 73km/h | 15486m | -9.3m/s | -54.5°C | 1% | 117.7hPa | 2.5V | 08:14:26 | 02:17:56 | 00:00:00 | |
| DL1XH-west | 2026-09-04 00:37:25 | 53.41943 | 9.12087 | 113° | 73km/h | 15495m | -7.3m/s | -54.4°C | 1% | 117.5hPa | 2.5V | 08:14:26 | 02:17:55 | 00:00:00 | |
| DF8AY | 2026-09-04 00:37:21 | 53.41977 | 9.11938 | 109° | 78km/h | 15556m | -12m/s | -54.2°C | 1% | 116.4hPa | 2.6V | 08:14:26 | 02:17:50 | 00:00:00 | |
| AA1-15 | 2026-09-04 00:37:19 | 53.41983 | 9.11907 | 109° | 78km/h | 15568m | -11.4m/s | -54.1°C | 1.1% | 116.2hPa | 2.5V | 08:14:26 | 02:17:49 | 00:00:00 | |
| GOEST3-10 | 2026-09-04 00:37:19 | 53.41983 | 9.11907 | 109° | 77km/h | 15568m | -11.3m/s | -54.1°C | 4.4% | 116.1hPa | 2.5V | 00:00:00 | 00:00:00 | 00:00:00 | |
| DM0DOS-11 | 2026-09-04 00:37:18 | 53.42008 | 9.11784 | 110° | 75km/h | 15614m | -10.6m/s | -54°C | 4.3% | 115.3hPa | 2.5V | 08:14:23 | 02:17:45 | 00:00:00 | |
| HSKMA3-T | 2026-09-04 00:37:16 | 53.42002 | 9.11814 | 109° | 75km/h | 15603m | -13.8m/s | -54°C | 1% | 115.6hPa | 2.5V | 08:14:26 | 02:17:46 | 00:00:00 | |
| BIOWL1-15 | 2026-09-04 00:37:14 | 53.42035 | 9.11668 | 113° | 75km/h | 15663m | -13.6m/s | -53.9°C | 1% | 114.6hPa | 2.5V | 08:15:17 | 02:17:41 | 00:00:00 | |
| DL1XH-west | 2026-09-04 00:37:14 | 53.42015 | 9.11754 | 111° | 75km/h | 15625m | -11.8m/s | -54°C | 1% | 115.2hPa | 2.5V | 08:14:26 | 02:17:44 | 00:00:00 | |
| DO2SHX-10 | 2026-09-04 00:37:14 | 53.42014 | 9.11754 | 111° | 73km/h | 15626m | -11.7m/s | -54.0°C | 4.4% | 115.1hPa | 2.5V | 08:14:00 | 02:17:44 | 00:00:00 | |
| DL4BBY-15 | 2026-09-04 00:37:13 | 53.42021 | 9.11725 | 112° | 73km/h | 15637m | -12.1m/s | -53.5°C | 0% | 0hPa | 2.5V | 00:00:00 | 00:00:00 | 00:00:00 | |
| DB0DAN | 2026-09-04 00:37:10 | 53.42042 | 9.11639 | 113° | 69km/h | 15676m | -11.6m/s | -53.9°C | 1.5% | 114.3hPa | 2.5V | 00:00:00 | 00:00:00 | 00:00:00 | |
| DF8AY | 2026-09-04 00:37:10 | 53.42049 | 9.11610 | 112° | 73km/h | 15687m | -11.3m/s | -53.8°C | 1% | 114.1hPa | 2.5V | 08:15:17 | 02:17:39 | 00:00:00 | |
| DL1XH1-15 | 2026-09-04 00:37:09 | 53.42082 | 9.11469 | 110° | 73km/h | 15753m | -16.5m/s | -53.8°C | 4% | 113hPa | 2.5V | 08:14:34 | 02:17:34 | 00:00:00 | |
| AA1-15 | 2026-09-04 00:37:08 | 53.42056 | 9.11582 | 112° | 69km/h | 15698m | -12.4m/s | -53.8°C | 0.9% | 113.9hPa | 2.5V | 08:15:17 | 02:17:38 | 00:00:00 | |
| DO2SHX-10 | 2026-09-04 00:37:08 | 53.42056 | 9.11582 | 112° | 71km/h | 15698m | -12.4m/s | -53.7°C | 4.2% | 113.8hPa | 2.5V | 00:00:00 | 02:17:38 | 00:00:00 | |
| DM0DOS-11 | 2026-09-04 00:37:06 | 53.42075 | 9.11498 | 112° | 73km/h | 15739m | -12m/s | -53.8°C | 4.1% | 113.2hPa | 2.5V | 08:14:33 | 02:17:35 | 00:00:00 | |
| DO2JMG | 2026-09-04 00:37:06 | 53.42069 | 9.11526 | 111° | 73km/h | 15726m | -14.5m/s | -53.8°C | 0.9% | 113.5hPa | 2.4V | 08:15:17 | 02:17:36 | 00:00:00 | |
| HSKMA3-T | 2026-09-04 00:37:05 | 53.42075 | 9.11498 | 112° | 73km/h | 15739m | -12m/s | -53.8°C | 0.8% | 113.2hPa | 2.5V | 08:15:17 | 02:17:35 | 00:00:00 | |
| DO2SHX-10 | 2026-09-04 00:37:05 | 53.42075 | 9.11497 | 113° | 71km/h | 15740m | -11.9m/s | -53.7°C | 4.1% | 113.1hPa | 2.5V | 00:00:00 | 02:17:35 | 00:00:00 | |
| DL1XH-15 | 2026-09-04 00:37:04 | 53.42110 | 9.11358 | 114° | 71km/h | 15821m | -18m/s | -54.2°C | 4.1% | 111.9hPa | 2.5V | 08:14:38 | 02:17:30 | 00:00:00 | |
| DL1XH-west | 2026-09-04 00:37:04 | 53.42082 | 9.11469 | 111° | 73km/h | 15753m | -16.5m/s | -53.8°C | 0.8% | 113hPa | 2.5V | 08:15:17 | 02:17:34 | 00:00:00 | |
| BIOWL1-15 | 2026-09-04 00:37:02 | 53.42131 | 9.11273 | 113° | 73km/h | 15867m | -13.1m/s | -54.4°C | 0.9% | 111hPa | 2.5V | 08:15:17 | 02:17:27 | 00:00:00 | |
| DF8AY | 2026-09-04 00:36:59 | 53.42117 | 9.11330 | 113° | 73km/h | 15838m | -16.6m/s | -54.3°C | 0.9% | 111.6hPa | 2.5V | 08:15:17 | 02:17:29 | 00:00:00 | |
| DL1XH1-15 | 2026-09-04 00:36:59 | 53.42150 | 9.11187 | 109° | 73km/h | 15906m | -12.6m/s | -54.4°C | 4.1% | 110.2hPa | 2.4V | 08:14:44 | 02:17:24 | 00:00:00 | |
| AA1-15 | 2026-09-04 00:36:58 | 53.42124 | 9.11302 | 112° | 71km/h | 15854m | -14.7m/s | -54.4°C | 0.9% | 111.2hPa | 2.5V | 08:15:17 | 02:17:28 | 00:00:00 | |
| DM0DOS-11 | 2026-09-04 00:36:58 | 53.42144 | 9.11216 | 109° | 73km/h | 15893m | -13.6m/s | -54.4°C | 4.1% | 110.5hPa | 2.5V | 08:14:43 | 02:17:25 | 00:00:00 | |
| DB0DAN | 2026-09-04 00:36:55 | 53.42144 | 9.11216 | 110° | 69km/h | 15893m | -13.6m/s | -54.4°C | 1.4% | 110.52hPa | 2.5V | 00:00:00 | 00:00:00 | 00:00:00 | |
| DO2JMG | 2026-09-04 00:36:55 | 53.42144 | 9.11216 | 110° | 73km/h | 15893m | -13.6m/s | -54.4°C | 0.8% | 110.5hPa | 2.5V | 08:15:17 | 02:17:25 | 00:00:00 | |
| DL1XH-15 | 2026-09-04 00:36:55 | 53.42173 | 9.11068 | 105° | 75km/h | 15956m | -10.6m/s | -54.8°C | 4.4% | 109.4hPa | 2.5V | 08:14:48 | 02:17:20 | 00:00:00 | |
| HSKMA3-T | 2026-09-04 00:36:54 | 53.42151 | 9.11187 | 110° | 73km/h | 15906m | -12.6m/s | -54.4°C | 0.8% | 110.2hPa | 2.4V | 08:15:17 | 02:17:24 | 00:00:00 | |
| DL1XH-west | 2026-09-04 00:36:53 | 53.42157 | 9.11158 | 108° | 73km/h | 15919m | -13m/s | -54.5°C | 0.8% | 110hPa | 2.5V | 08:15:17 | 02:17:23 | 00:00:00 | |
| SONCRA | 2026-09-04 00:36:51 | 53.42173 | 9.11068 | 105° | 75km/h | 15956m | -10.6m/s | -54.8°C | 1.5% | 109.4hPa | 2.5V | 00:00:00 | 00:00:00 | 00:00:00 | |
| DO2SHX-10 | 2026-09-04 00:36:50 | 53.42173 | 9.11068 | 106° | 77km/h | 15956m | -10.6m/s | -54.8°C | 4.4% | 109.4hPa | 2.5V | 00:00:00 | 02:17:20 | 00:00:00 | |
| DL1XH1-15 | 2026-09-04 00:36:49 | 53.42208 | 9.10882 | 111° | 78km/h | 16016m | -11.5m/s | -55.2°C | 4.6% | 108.4hPa | 2.5V | 08:14:54 | 02:17:14 | 00:00:00 | |
| AA1-15 | 2026-09-04 00:36:48 | 53.42183 | 9.11006 | 106° | 77km/h | 15976m | -10.1m/s | -55°C | 1% | 109hPa | 2.4V | 08:15:17 | 02:17:18 | 00:00:00 | |
| DB0UT-7 | 2026-09-04 00:36:48 | 53.42183 | 9.11006 | 106° | 73km/h | 15976m | -10.0m/s | -54.9°C | 4.5% | 109.0hPa | 2.5V | 00:00:00 | 02:17:18 | 00:00:00 | |
| DM0DOS-11 | 2026-09-04 00:36:46 | 53.42201 | 9.10913 | 109° | 78km/h | 16005m | -9.8m/s | -55.1°C | 4.6% | 108.5hPa | 2.5V | 08:14:53 | 02:17:15 | 00:00:00 | |
| SMARD9-15 | 2026-09-04 00:36:46 | 53.42201 | 9.10912 | 109° | 77km/h | 16005m | -9.8m/s | -55.2°C | 1.6% | 108.5hPa | 2.5V | 00:00:00 | 00:00:00 | 00:00:00 | |
| DO2JMG | 2026-09-04 00:36:44 | 53.42208 | 9.10882 | 111° | 78km/h | 16016m | -11.5m/s | -55.2°C | 1.1% | 108.4hPa | 2.5V | 08:15:17 | 02:17:14 | 00:00:00 | |
| DL1XH-15 | 2026-09-04 00:36:44 | 53.42236 | 9.10763 | 112° | 75km/h | 16063m | -14.9m/s | -55.3°C | 4.5% | 107.7hPa | 2.5V | 08:14:58 | 02:17:10 | 00:00:00 | |
| DL1XH-west | 2026-09-04 00:36:43 | 53.42215 | 9.10851 | 112° | 77km/h | 16026m | -9.5m/s | -55.2°C | 1.1% | 108.2hPa | 2.5V | 08:15:17 | 02:17:13 | 00:00:00 | |
| DL4BBY-15 | 2026-09-04 00:36:43 | 53.42215 | 9.10851 | 112° | 73km/h | 16026m | -9.5m/s | -54.7°C | 0% | 0hPa | 2.4V | 00:00:00 | 00:00:00 | 00:00:00 | |
| DL3AQ-11 | 2026-09-04 00:36:41 | 53.42236 | 9.10763 | 112° | 75km/h | 16063m | -15.0m/s | -55.3°C | 1.6% | 107.7hPa | 2.4V | 00:00:00 | 00:00:00 | 00:00:00 | |
| DM0DOS-11 | 2026-09-04 00:36:40 | 53.42269 | 9.10622 | 108° | 68km/h | 16136m | -15m/s | -55.4°C | 4.7% | 106.4hPa | 2.4V | 08:15:03 | 02:17:05 | 00:00:00 | |
| DL1XH1-15 | 2026-09-04 00:36:39 | 53.42274 | 9.10594 | 106° | 69km/h | 16151m | -13.2m/s | -55.4°C | 4.8% | 106.2hPa | 2.4V | 08:15:04 | 02:17:04 | 00:00:00 | |
| AA1-15 | 2026-09-04 00:36:38 | 53.42257 | 9.10677 | 111° | 71km/h | 16107m | -13.7m/s | -55.4°C | 1.1% | 106.9hPa | 2.5V | 08:15:17 | 02:17:07 | 00:00:00 | |
| DL1XH-west | 2026-09-04 00:36:33 | 53.42279 | 9.10566 | 105° | 68km/h | 16163m | -11.1m/s | -55.3°C | 1.2% | 105.9hPa | 2.5V | 08:15:17 | 02:17:03 | 00:00:00 | |
| DL1XH-15 | 2026-09-04 00:36:32 | 53.42290 | 9.10481 | 101° | 71km/h | 16193m | -9.9m/s | -55°C | 4.6% | 105.4hPa | 2.4V | 08:15:08 | 02:17:00 | 00:00:00 | |
| HSKMA3-T | 2026-09-04 00:36:32 | 53.42283 | 9.10538 | 104° | 69km/h | 16173m | -9.8m/s | -55.1°C | 1.1% | 105.7hPa | 2.5V | 08:15:17 | 02:17:02 | 00:00:00 | |
| DO2SHX-10 | 2026-09-04 00:36:32 | 53.42283 | 9.10538 | 105° | 69km/h | 16174m | -9.7m/s | -55.1°C | 4.7% | 105.6hPa | 2.4V | 00:00:00 | 02:17:02 | 00:00:00 | |
| EDDB2-11 | 2026-09-04 00:36:31 | 53.42287 | 9.10510 | 102° | 68km/h | 16183m | -10.6m/s | -55.0°C | 1.6% | 105.6hPa | 2.4V | 00:00:00 | 00:00:00 | 00:00:00 | |
| DL3AQ-11 | 2026-09-04 00:36:30 | 53.42294 | 9.10452 | 100° | 69km/h | 16204m | -11.5m/s | -54.9°C | 1.5% | 105.2hPa | 2.4V | 00:00:00 | 00:00:00 | 00:00:00 | |
| DL1XH1-15 | 2026-09-04 00:36:29 | 53.42312 | 9.10304 | 104° | 71km/h | 16268m | -16.2m/s | -54.5°C | 4.3% | 104.3hPa | 2.4V | 08:15:14 | 02:16:54 | 00:00:00 | |
| DO2SHX-10 | 2026-09-04 00:36:29 | 53.42294 | 9.10452 | 101° | 71km/h | 16204m | -11.4m/s | -54.8°C | 4.6% | 105.2hPa | 2.5V | 00:00:00 | 02:16:59 | 00:00:00 | |
| DM0DOS-11 | 2026-09-04 00:36:28 | 53.42308 | 9.10334 | 103° | 71km/h | 16253m | -14.3m/s | -54.7°C | 4.3% | 104.5hPa | 2.5V | 08:15:13 | 02:16:55 | 00:00:00 | |
| AA1-15 | 2026-09-04 00:36:27 | 53.42300 | 9.10393 | 100° | 71km/h | 16226m | -11.3m/s | -54.8°C | 0.9% | 104.9hPa | 2.5V | 08:15:17 | 02:16:57 | 00:00:00 | |
| DF8AY | 2026-09-04 00:36:26 | 53.42304 | 9.10364 | 102° | 71km/h | 16239m | -14.2m/s | -54.7°C | 0.9% | 104.7hPa | 2.5V | 08:15:17 | 02:16:56 | 00:00:00 | |
| DL1XH-west | 2026-09-04 00:36:22 | 53.42322 | 9.10244 | 107° | 75km/h | 16298m | -14m/s | -54.4°C | 0.9% | 103.7hPa | 2.5V | 08:15:17 | 02:16:52 | 00:00:00 | |
| BIOWL1-15 | 2026-09-04 00:36:20 | 53.42347 | 9.10122 | 111° | 77km/h | 16346m | -9.5m/s | -54.1°C | 0.9% | 102.9hPa | 2.5V | 08:16:08 | 02:16:48 | 00:00:00 | |
| AA1-15 | 2026-09-04 00:36:17 | 53.42354 | 9.10092 | 110° | 77km/h | 16356m | -9.8m/s | -54.2°C | 0.9% | 102.7hPa | 2.5V | 08:16:08 | 02:16:47 | 00:00:00 | |
| DF8AY | 2026-09-04 00:36:16 | 53.42361 | 9.10062 | 111° | 77km/h | 16366m | -9.3m/s | -54.2°C | 0.9% | 102.6hPa | 2.5V | 08:16:59 | 02:16:46 | 00:00:00 | |
| DF5WG-10 | 2026-09-04 00:36:16 | 53.42361 | 9.10062 | 111° | 73km/h | 16366m | -9.3m/s | -54.2°C | 4.4% | 102.5hPa | 2.5V | 00:00:00 | 02:16:46 | 00:00:00 | |
| SMARD9-15 | 2026-09-04 00:36:15 | 53.42374 | 9.10002 | 108° | 73km/h | 16385m | -10.2m/s | -54.3°C | 1.5% | 102.3hPa | 2.5V | 00:00:00 | 00:00:00 | 00:00:00 | |
| DL3AQ-11 | 2026-09-04 00:36:14 | 53.42379 | 9.09972 | 107° | 73km/h | 16395m | -10.1m/s | -54.4°C | 1.5% | 102.2hPa | 2.5V | 00:00:00 | 00:00:00 | 00:00:00 | |
| DL4BBY-15 | 2026-09-04 00:36:13 | 53.42380 | 9.09972 | 108° | 62km/h | 16395m | -10.0m/s | -53.9°C | 0% | 0hPa | 2.5V | 00:00:00 | 00:00:00 | 00:00:00 | |
| DL1XH-15 | 2026-09-04 00:36:11 | 53.42396 | 9.09882 | 106° | 73km/h | 16423m | -9.9m/s | -54.5°C | 4.6% | 101.7hPa | 2.5V | 08:15:28 | 02:16:40 | 00:00:00 | |
| HSKMA3-T | 2026-09-04 00:36:11 | 53.42390 | 9.09912 | 107° | 75km/h | 16414m | -9.3m/s | -54.5°C | 1% | 101.8hPa | 2.5V | 08:16:08 | 02:16:41 | 00:00:00 | |
| DB0DAN | 2026-09-04 00:36:10 | 53.42396 | 9.09882 | 107° | 69km/h | 16423m | -9.9m/s | -54.5°C | 1.5% | 101.67hPa | 2.5V | 00:00:00 | 00:00:00 | 00:00:00 | |
| DF2AP-13 | 2026-09-04 00:36:10 | 53.42395 | 9.09882 | 107° | 57km/h | 16424m | -9.9m/s | -54.4°C | 4.6% | 101.6hPa | 2.5V | 00:00:00 | 02:16:40 | 00:00:00 | |
| DL1XH1-15 | 2026-09-04 00:36:09 | 53.42428 | 9.09715 | 107° | 66km/h | 16492m | -10.1m/s | -53.7°C | 4.4% | 100.6hPa | 2.5V | 08:15:34 | 02:16:34 | 00:00:00 | |
| BIOWL1-15 | 2026-09-04 00:36:08 | 53.42453 | 9.09587 | 109° | 64km/h | 16549m | -10.7m/s | -53.1°C | 0.7% | 99.7hPa | 2.5V | 08:16:08 | 02:16:29 | 00:00:00 | |
| AA1-15 | 2026-09-04 00:36:06 | 53.42418 | 9.09768 | 108° | 68km/h | 16470m | -12.4m/s | -53.8°C | 0.9% | 101hPa | 2.4V | 08:16:08 | 02:16:36 | 00:00:00 | |
| DF8AY | 2026-09-04 00:36:05 | 53.42423 | 9.09742 | 108° | 66km/h | 16481m | -11m/s | -53.8°C | 1% | 100.8hPa | 2.5V | 08:16:59 | 02:16:35 | 00:00:00 | |
| DL1XH-west | 2026-09-04 00:36:01 | 53.42443 | 9.09638 | 108° | 62km/h | 16524m | -11.6m/s | -53.6°C | 0.8% | 100.2hPa | 2.5V | 08:16:08 | 02:16:31 | 00:00:00 | |
| HSKMA3-T | 2026-09-04 00:36:00 | 53.42448 | 9.09613 | 108° | 64km/h | 16537m | -13m/s | -53.3°C | 0.8% | 100hPa | 2.4V | 08:16:08 | 02:16:30 | 00:00:00 | |
| AA1-15 | 2026-09-04 00:35:56 | 53.42468 | 9.09513 | 109° | 60km/h | 16585m | -11.8m/s | -52.7°C | 0.6% | 99.2hPa | 2.5V | 08:16:08 | 02:16:26 | 00:00:00 | |
| DB0DAN | 2026-09-04 00:35:55 | 53.42473 | 9.09489 | 108° | 57km/h | 16597m | -13m/s | -52.6°C | 1.3% | 99.01hPa | 2.5V | 00:00:00 | 00:00:00 | 00:00:00 | |
| DF8AY-15 | 2026-09-04 00:35:54 | 53.42478 | 9.09465 | 109° | 55km/h | 16610m | -12.1m/s | -52.5°C | 3.9% | 98.8hPa | 2.6V | 00:00:00 | 02:16:24 | 00:00:00 | |
| DO2LYB-13 | 2026-09-04 00:35:53 | 53.42482 | 9.09442 | 109° | 58km/h | 16622m | -11.4m/s | -52.4°C | 1.3% | 98.6hPa | 2.6V | 00:00:00 | 00:00:00 | 00:00:00 | |
| DL1XH-15 | 2026-09-04 00:35:51 | 53.42495 | 9.09374 | 105° | 55km/h | 16654m | -10.4m/s | -52.6°C | 3.9% | 98.1hPa | 2.6V | 08:15:48 | 02:16:20 | 00:00:00 | |
| DL1XH-west | 2026-09-04 00:35:51 | 53.42491 | 9.09396 | 106° | 57km/h | 16644m | -10.1m/s | -52.6°C | 0.6% | 98.3hPa | 2.5V | 08:16:08 | 02:16:21 | 00:00:00 | |
| HSKMA3-T | 2026-09-04 00:35:50 | 53.42495 | 9.09374 | 105° | 55km/h | 16654m | -10.4m/s | -52.7°C | 0.7% | 98.1hPa | 2.6V | 08:16:08 | 02:16:20 | 00:00:00 | |
| SONCRA | 2026-09-04 00:35:49 | 53.42501 | 9.09329 | 103° | 53km/h | 16678m | -11.7m/s | -52.7°C | -1.0% | 97.8hPa | 2.5V | 00:00:00 | 00:00:00 | 00:00:00 | |
| DB0UT-7 | 2026-09-04 00:35:48 | 53.42501 | 9.09329 | 104° | 58km/h | 16678m | -11.6m/s | -52.7°C | 3.9% | 97.7hPa | 2.5V | 00:00:00 | 02:16:18 | 00:00:00 | |
| DF5WG-10 | 2026-09-04 00:35:47 | 53.42507 | 9.09286 | 102° | 55km/h | 16701m | -12.1m/s | -52.8°C | 4.0% | 97.4hPa | 2.5V | 00:00:00 | 02:16:16 | 00:00:00 | |
| DL4XJ-10 | 2026-09-04 00:35:46 | 53.42507 | 9.09286 | 102° | 58km/h | 16701m | -12.1m/s | -52.3°C | 0% | 0hPa | 2.5V | 00:00:00 | 00:00:00 | 00:00:00 | |
| DL1XH-15 | 2026-09-04 00:35:45 | 53.42518 | 9.09152 | 94° | 55km/h | 16761m | -8.3m/s | -52.7°C | 3.8% | 96.4hPa | 2.5V | 08:15:58 | 02:16:10 | 00:00:00 | |
| AA1-15 | 2026-09-04 00:35:45 | 53.42509 | 9.09264 | 100° | 53km/h | 16713m | -11m/s | -52.8°C | 0.7% | 97.2hPa | 2.5V | 08:16:08 | 02:16:15 | 00:00:00 | |
| DF8AY | 2026-09-04 00:35:44 | 53.42511 | 9.09242 | 99° | 51km/h | 16723m | -8.6m/s | -52.8°C | 0.7% | 97hPa | 2.6V | 08:16:59 | 02:16:14 | 00:00:00 | |
| BIOWL1-15 | 2026-09-04 00:35:41 | 53.42517 | 9.09175 | 97° | 55km/h | 16752m | -9.2m/s | -52.7°C | 0.6% | 96.6hPa | 2.5V | 08:16:08 | 02:16:11 | 00:00:00 | |
| DL1XH-west | 2026-09-04 00:35:40 | 53.42518 | 9.09152 | 95° | 55km/h | 16761m | -8.3m/s | -52.7°C | 0.6% | 96.4hPa | 2.5V | 08:16:08 | 02:16:10 | 00:00:00 | |
| HSKMA3-T | 2026-09-04 00:35:39 | 53.42519 | 9.09128 | 94° | 57km/h | 16772m | -15.3m/s | -52.7°C | 0.6% | 96.3hPa | 2.5V | 08:16:08 | 02:16:09 | 00:00:00 | |
| GOEST3-10 | 2026-09-04 00:35:39 | 53.42519 | 9.09128 | 95° | 58km/h | 16773m | -15.2m/s | -52.6°C | 3.8% | 96.3hPa | 2.5V | 00:00:00 | 00:00:00 | 00:00:00 | |
| DL1XH1-15 | 2026-09-04 00:35:38 | 53.42521 | 9.09005 | 90° | 60km/h | 16838m | -9.5m/s | -52.9°C | 3.9% | 95.3hPa | 2.5V | 08:16:04 | 02:16:04 | 00:00:00 | |
| DM0DOS-11 | 2026-09-04 00:35:36 | 53.42521 | 9.09031 | 90° | 58km/h | 16828m | -11.1m/s | -52.9°C | 3.9% | 95.5hPa | 2.5V | 08:16:03 | 02:16:05 | 00:00:00 | |
| DF5WG-10 | 2026-09-04 00:35:36 | 53.42521 | 9.09056 | 90° | 60km/h | 16816m | -12.2m/s | -52.7°C | 3.9% | 95.6hPa | 2.5V | 00:00:00 | 02:16:06 | 00:00:00 | |
| DO2SHX-10 | 2026-09-04 00:35:35 | 53.42521 | 9.09030 | 91° | 60km/h | 16828m | -11.1m/s | -52.8°C | 3.9% | 95.4hPa | 2.5V | 00:00:00 | 02:16:05 | 00:00:00 | |
| DL1XH-15 | 2026-09-04 00:35:34 | 53.42521 | 9.08901 | 90° | 62km/h | 16885m | -11.4m/s | -53.1°C | 3.9% | 94.7hPa | 2.5V | 08:16:08 | 02:16:00 | 00:00:00 | |
| AA1-15 | 2026-09-04 00:35:34 | 53.42521 | 9.09005 | 90° | 60km/h | 16838m | -9.5m/s | -52.9°C | 0.6% | 95.3hPa | 2.5V | 08:16:08 | 02:16:04 | 00:00:00 | |
| DF8AY | 2026-09-04 00:35:33 | 53.42521 | 9.08980 | 90° | 60km/h | 16848m | -12.4m/s | -53°C | 0.6% | 95.2hPa | 2.5V | 08:16:59 | 02:16:03 | 00:00:00 | |
| BIOWL1-15 | 2026-09-04 00:35:32 | 53.42521 | 9.08901 | 91° | 62km/h | 16885m | -11.4m/s | -53.2°C | 0.7% | 94.7hPa | 2.5V | 08:16:08 | 02:16:00 | 00:00:00 | |
| DL1XH-west | 2026-09-04 00:35:29 | 53.42522 | 9.08875 | 90° | 60km/h | 16898m | -12.7m/s | -53.2°C | 0.7% | 94.5hPa | 2.5V | 08:16:59 | 02:15:59 | 00:00:00 | |
| HSKMA3-T | 2026-09-04 00:35:28 | 53.42521 | 9.08849 | 89° | 62km/h | 16909m | -10m/s | -53.3°C | 0.7% | 94.3hPa | 2.5V | 08:16:59 | 02:15:58 | 00:00:00 | |
| DL1XH1-15 | 2026-09-04 00:35:27 | 53.42521 | 9.08749 | 88° | 57km/h | 16949m | -12.9m/s | -53.3°C | 4% | 93.7hPa | 2.5V | 08:16:14 | 02:15:54 | 00:00:00 | |
| DM0DOS-11 | 2026-09-04 00:35:26 | 53.42521 | 9.08773 | 89° | 58km/h | 16938m | -8.9m/s | -53.5°C | 4.1% | 93.8hPa | 2.6V | 08:16:13 | 02:15:55 | 00:00:00 | |
| AA1-15 | 2026-09-04 00:35:23 | 53.42521 | 9.08725 | 88° | 57km/h | 16961m | -10.8m/s | -53.1°C | 0.7% | 93.5hPa | 2.5V | 08:16:59 | 02:15:53 | 00:00:00 | |
| DO2SHX-10 | 2026-09-04 00:35:23 | 53.42521 | 9.08725 | 88° | 58km/h | 16961m | -10.7m/s | -53.1°C | 3.9% | 93.5hPa | 2.6V | 00:00:00 | 02:15:53 | 00:00:00 | |
| DL1XH-15 | 2026-09-04 00:35:22 | 53.42520 | 9.08651 | 89° | 60km/h | 17000m | -12.8m/s | -53.3°C | 4% | 93hPa | 2.6V | 08:16:18 | 02:15:50 | 00:00:00 | |
| DL3AQ-11 | 2026-09-04 00:35:21 | 53.42520 | 9.08651 | 89° | 60km/h | 17000m | -12.8m/s | -53.3°C | 1.3% | 93.0hPa | 2.6V | 00:00:00 | 00:00:00 | 00:00:00 | |
| DO2SHX-10 | 2026-09-04 00:35:20 | 53.42520 | 9.08651 | 90° | 60km/h | 17000m | -12.8m/s | -53.3°C | 4.0% | 92.9hPa | 2.6V | 00:00:00 | 02:15:50 | 00:00:00 | |
| DL1XH1-15 | 2026-09-04 00:35:19 | 53.42520 | 9.08499 | 93° | 58km/h | 17072m | -14.5m/s | -53.9°C | 4.1% | 92hPa | 2.6V | 08:16:24 | 02:15:44 | 00:00:00 | |
| HSKMA3-T | 2026-09-04 00:35:18 | 53.42520 | 9.08600 | 90° | 60km/h | 17025m | -11.1m/s | -53.5°C | 0.8% | 92.7hPa | 2.5V | 08:16:59 | 02:15:48 | 00:00:00 | |
| DO2JMG | 2026-09-04 00:35:17 | 53.42519 | 9.08574 | 90° | 60km/h | 17037m | -12.4m/s | -53.6°C | 0.8% | 92.5hPa | 2.5V | 08:16:59 | 02:15:47 | 00:00:00 | |
| DM0DOS-11 | 2026-09-04 00:35:16 | 53.42519 | 9.08524 | 90° | 58km/h | 17060m | -10.6m/s | -53.8°C | 4.1% | 92.1hPa | 2.5V | 08:16:23 | 02:15:45 | 00:00:00 | |
| AA1-15 | 2026-09-04 00:35:13 | 53.42521 | 9.08475 | 94° | 57km/h | 17087m | -13.9m/s | -54°C | 0.7% | 91.8hPa | 2.5V | 08:16:59 | 02:15:43 | 00:00:00 | |
| DL4BBY-15 | 2026-09-04 00:35:13 | 53.42521 | 9.08475 | 95° | 55km/h | 17087m | -13.9m/s | -53.5°C | 0% | 0hPa | 2.5V | 00:00:00 | 00:00:00 | 00:00:00 | |
| DL1XH-15 | 2026-09-04 00:35:11 | 53.42526 | 9.08403 | 99° | 57km/h | 17126m | -12.3m/s | -54.2°C | 4.2% | 91.2hPa | 2.5V | 08:16:28 | 02:15:40 | 00:00:00 | |
| DB0DAN | 2026-09-04 00:35:10 | 53.42526 | 9.08403 | 99° | 55km/h | 17126m | -12.3m/s | -54.3°C | 1.4% | 91.19hPa | 2.5V | 00:00:00 | 00:00:00 | 00:00:00 | |
| DL3AQ-11 | 2026-09-04 00:35:10 | 53.42528 | 9.08379 | 99° | 58km/h | 17138m | -12.0m/s | -54.3°C | 1.4% | 91.0hPa | 2.5V | 00:00:00 | 00:00:00 | 00:00:00 | |
| DL1XH1-15 | 2026-09-04 00:35:09 | 53.42540 | 9.08255 | 97° | 60km/h | 17204m | -13.4m/s | -54.4°C | 4.2% | 90.1hPa | 2.5V | 08:16:34 | 02:15:34 | 00:00:00 | |
| DL1XH-west | 2026-09-04 00:35:08 | 53.42531 | 9.08354 | 100° | 58km/h | 17151m | -13.1m/s | -54.4°C | 0.8% | 90.9hPa | 2.6V | 08:16:59 | 02:15:38 | 00:00:00 | |
| HSKMA3-T | 2026-09-04 00:35:07 | 53.42533 | 9.08330 | 99° | 58km/h | 17164m | -13.3m/s | -54.4°C | 0.9% | 90.7hPa | 2.6V | 08:16:59 | 02:15:37 | 00:00:00 | |
| AA1-15 | 2026-09-04 00:35:03 | 53.42542 | 9.08229 | 96° | 60km/h | 17217m | -12.7m/s | -54.5°C | 0.8% | 90hPa | 2.5V | 08:16:59 | 02:15:33 | 00:00:00 | |
| DL1XH-15 | 2026-09-04 00:35:01 | 53.42547 | 9.08154 | 96° | 58km/h | 17252m | -12.3m/s | -54.4°C | 4.3% | 89.4hPa | 2.5V | 08:16:38 | 02:15:30 | 00:00:00 | |
| DM0DOS-11 | 2026-09-04 00:35:00 | 53.42555 | 9.08035 | 97° | 53km/h | 17303m | -10.3m/s | -54.5°C | 4.2% | 88.7hPa | 2.6V | 08:16:43 | 02:15:25 | 00:00:00 | |
| SONDE2-11 | 2026-09-04 00:35:00 | 53.42547 | 9.08154 | 96° | 58km/h | 17252m | -12.3m/s | -54.4°C | 1.4% | 89.4hPa | 2.5V | 00:00:00 | 00:00:00 | 00:00:00 | |
| DL1XH1-15 | 2026-09-04 00:34:59 | 53.42557 | 9.08013 | 97° | 53km/h | 17312m | -6.2m/s | -54.5°C | 4.2% | 88.5hPa | 2.5V | 08:16:44 | 02:15:24 | 00:00:00 | |
| DL1XH-west | 2026-09-04 00:34:58 | 53.42550 | 9.08105 | 98° | 57km/h | 17275m | -10m/s | -54.3°C | 0.9% | 89.1hPa | 2.5V | 08:16:59 | 02:15:28 | 00:00:00 | |
| DO2JMG | 2026-09-04 00:34:57 | 53.42552 | 9.08081 | 97° | 57km/h | 17284m | -9.1m/s | -54.4°C | 0.8% | 89hPa | 2.5V | 08:16:59 | 02:15:27 | 00:00:00 | |
| DB0DAN | 2026-09-04 00:34:55 | 53.42555 | 9.08035 | 97° | 51km/h | 17303m | -10.3m/s | -54.5°C | 1.4% | 88.7hPa | 2.6V | 00:00:00 | 00:00:00 | 00:00:00 | |
| HSKMA3-T | 2026-09-04 00:34:54 | 53.42557 | 9.08013 | 97° | 53km/h | 17312m | -6.2m/s | -54.5°C | 0.9% | 88.5hPa | 2.5V | 08:16:59 | 02:15:24 | 00:00:00 | |
| AA1-15 | 2026-09-04 00:34:52 | 53.42561 | 9.07970 | 99° | 49km/h | 17331m | -10m/s | -54.5°C | 0.8% | 88.3hPa | 2.5V | 08:16:59 | 02:15:22 | 00:00:00 | |
| DL1XH-15 | 2026-09-04 00:34:51 | 53.42565 | 9.07929 | 99° | 47km/h | 17355m | -10.8m/s | -54.6°C | 4.2% | 88hPa | 2.6V | 08:16:48 | 02:15:20 | 00:00:00 | |
| DM0DOS-11 | 2026-09-04 00:34:50 | 53.42573 | 9.07831 | 95° | 46km/h | 17409m | -10.5m/s | -55°C | 4.2% | 87.2hPa | 2.5V | 08:16:53 | 02:15:15 | 00:00:00 | |
| BIOWL1-15 | 2026-09-04 00:34:50 | 53.42565 | 9.07929 | 99° | 47km/h | 17355m | -10.8m/s | -54.6°C | 0.8% | 88hPa | 2.6V | 08:17:50 | 02:15:20 | 00:00:00 | |
| DL1XH-west | 2026-09-04 00:34:47 | 53.42570 | 9.07870 | 97° | 46km/h | 17388m | -11.5m/s | -54.8°C | 0.8% | 87.5hPa | 2.5V | 08:16:59 | 02:15:17 | 00:00:00 | |
| DL1XH1-15 | 2026-09-04 00:34:47 | 53.42574 | 9.07812 | 93° | 46km/h | 17420m | -11.6m/s | -55°C | 4.3% | 87.1hPa | 2.6V | 08:16:54 | 02:15:14 | 00:00:00 | |
| DO2JMG | 2026-09-04 00:34:46 | 53.42571 | 9.07850 | 98° | 46km/h | 17399m | -11.1m/s | -54.9°C | 0.8% | 87.3hPa | 2.5V | 08:16:59 | 02:15:16 | 00:00:00 | |
| EDDB2-12 | 2026-09-04 00:34:46 | 53.42573 | 9.07831 | 95° | 44km/h | 17410m | -10.5m/s | -55.0°C | 1.4% | 87.2hPa | 2.6V | 00:00:00 | 00:00:00 | 00:00:00 | |
| DJ2DS-15 | 2026-09-04 00:34:45 | 53.42573 | 9.07831 | 95° | 44km/h | 17410m | -10.5m/s | -55.0°C | 1.4% | 87.2hPa | 2.6V | 00:00:00 | 00:00:00 | 00:00:00 | |
| HSKMA3-T | 2026-09-04 00:34:44 | 53.42574 | 9.07812 | 93° | 46km/h | 17421m | -11.6m/s | -55°C | 0.9% | 87.1hPa | 2.6V | 08:16:59 | 02:15:14 | 00:00:00 | |
| AA1-15 | 2026-09-04 00:34:42 | 53.42574 | 9.07774 | 92° | 44km/h | 17445m | -12.9m/s | -55.2°C | 0.9% | 86.8hPa | 2.5V | 08:16:59 | 02:15:12 | 00:00:00 | |
| DB0DAN | 2026-09-04 00:34:40 | 53.42575 | 9.07738 | 90° | 40km/h | 17469m | -12.5m/s | -55.2°C | 1.4% | 86.43hPa | 2.5V | 00:00:00 | 00:00:00 | 00:00:00 | |
| DM0DOS-11 | 2026-09-04 00:34:40 | 53.42572 | 9.07651 | 85° | 40km/h | 17529m | -11.2m/s | -55.4°C | 4.3% | 85.6hPa | 2.5V | 08:17:03 | 02:15:05 | 00:00:00 | |
| DL1XH1-15 | 2026-09-04 00:34:39 | 53.42571 | 9.07634 | 82° | 40km/h | 17541m | -13.4m/s | -55.4°C | 4.3% | 85.5hPa | 2.5V | 08:17:04 | 02:15:04 | 00:00:00 | |
| DF8AY | 2026-09-04 00:34:38 | 53.42574 | 9.07685 | 86° | 40km/h | 17504m | -14.5m/s | -55.3°C | 0.9% | 86hPa | 2.5V | 08:17:50 | 02:15:07 | 00:00:00 | |
| DO2JMG | 2026-09-04 00:34:36 | 53.42573 | 9.07668 | 85° | 40km/h | 17517m | -12.4m/s | -55.3°C | 0.8% | 85.8hPa | 2.5V | 08:17:50 | 02:15:06 | 00:00:00 | |
| HSKMA3-T | 2026-09-04 00:34:34 | 53.42571 | 9.07634 | 83° | 40km/h | 17541m | -13.4m/s | -55.4°C | 0.8% | 85.5hPa | 2.5V | 08:17:50 | 02:15:04 | 00:00:00 | |
| AA1-15 | 2026-09-04 00:34:32 | 53.42568 | 9.07599 | 80° | 44km/h | 17565m | -11.7m/s | -55.6°C | 0.9% | 85.2hPa | 2.6V | 08:17:50 | 02:15:02 | 00:00:00 | |
| DM0DOS-11 | 2026-09-04 00:34:29 | 53.42549 | 9.07465 | 79° | 46km/h | 17647m | -12.6m/s | -55.9°C | 4.4% | 84.1hPa | 2.6V | 08:17:13 | 02:14:55 | 00:00:00 | |
| DJ2DS-15 | 2026-09-04 00:34:29 | 53.42560 | 9.07543 | 76° | 47km/h | 17602m | -9.9m/s | -55.7°C | 4.4% | 84.6hPa | 2.5V | 00:00:00 | 02:14:59 | 00:00:00 | |
| DL1XH1-15 | 2026-09-04 00:34:27 | 53.42547 | 9.07446 | 81° | 46km/h | 17659m | -12.1m/s | -56°C | 4.5% | 83.9hPa | 2.5V | 08:17:14 | 02:14:54 | 00:00:00 | |
| DO2JMG | 2026-09-04 00:34:26 | 53.42551 | 9.07485 | 78° | 47km/h | 17635m | -11.7m/s | -55.8°C | 0.9% | 84.2hPa | 2.6V | 08:17:50 | 02:14:56 | 00:00:00 | |
| DB0DAN | 2026-09-04 00:34:25 | 53.42549 | 9.07465 | 80° | 44km/h | 17647m | -12.6m/s | -55.9°C | 1.4% | 84.09hPa | 2.6V | 00:00:00 | 00:00:00 | 00:00:00 | |
| DL1XH-west | 2026-09-04 00:34:25 | 53.42549 | 9.07465 | 80° | 46km/h | 17647m | -12.6m/s | -55.9°C | 0.9% | 84.1hPa | 2.6V | 08:17:50 | 02:14:55 | 00:00:00 | |
| HSKMA3-T | 2026-09-04 00:34:24 | 53.42547 | 9.07446 | 82° | 46km/h | 17659m | -12.1m/s | -56°C | 1% | 83.9hPa | 2.5V | 08:17:50 | 02:14:54 | 00:00:00 | |
| AA1-15 | 2026-09-04 00:34:22 | 53.42543 | 9.07391 | 84° | 44km/h | 17690m | -9.3m/s | -56.2°C | 0.9% | 83.5hPa | 2.5V | 08:17:50 | 02:14:51 | 00:00:00 | |
| DO2SHX-10 | 2026-09-04 00:34:20 | 53.42542 | 9.07372 | 87° | 46km/h | 17700m | -10.6m/s | -56.2°C | 4.6% | 83.3hPa | 2.6V | 00:00:00 | 02:14:50 | 00:00:00 | |
| DL1XH1-15 | 2026-09-04 00:34:19 | 53.42540 | 9.07251 | 90° | 51km/h | 17762m | -9m/s | -56.4°C | 4.8% | 82.5hPa | 2.6V | 08:17:24 | 02:14:44 | 00:00:00 | |
| DO2JMG | 2026-09-04 00:34:16 | 53.42540 | 9.07294 | 90° | 49km/h | 17742m | -12.6m/s | -56.5°C | 1% | 82.8hPa | 2.5V | 08:17:50 | 02:14:46 | 00:00:00 | |
| DL1XH-west | 2026-09-04 00:34:15 | 53.42540 | 9.07273 | 90° | 51km/h | 17753m | -9m/s | -56.4°C | 1% | 82.6hPa | 2.5V | 08:17:50 | 02:14:45 | 00:00:00 | |
| HSKMA3-T | 2026-09-04 00:34:13 | 53.42540 | 9.07230 | 92° | 51km/h | 17771m | -9.4m/s | -56.4°C | 1.1% | 82.4hPa | 2.6V | 08:17:50 | 02:14:43 | 00:00:00 | |
| AA1-15 | 2026-09-04 00:34:11 | 53.42542 | 9.07185 | 94° | 53km/h | 17789m | -7.8m/s | -56.5°C | 1.2% | 82.1hPa | 2.5V | 08:17:50 | 02:14:41 | 00:00:00 | |
| DB0DAN | 2026-09-04 00:34:10 | 53.42543 | 9.07163 | 97° | 49km/h | 17798m | -9.4m/s | -56.5°C | 1.6% | 82.03hPa | 2.5V | 00:00:00 | 00:00:00 | 00:00:00 | |
| SMARD9-15 | 2026-09-04 00:34:10 | 53.42543 | 9.07163 | 96° | 51km/h | 17798m | -9.4m/s | -56.5°C | 1.6% | 82.0hPa | 2.5V | 00:00:00 | 00:00:00 | 00:00:00 | |
| DJ2DS-15 | 2026-09-04 00:34:09 | 53.42545 | 9.07141 | 100° | 58km/h | 17807m | -9.6m/s | -56.4°C | 4.9% | 81.9hPa | 2.5V | 00:00:00 | 02:14:39 | 00:00:00 | |
| DO2SHX-10 | 2026-09-04 00:34:08 | 53.42547 | 9.07119 | 101° | 55km/h | 17817m | -11.0m/s | -56.3°C | 4.9% | 81.8hPa | 2.5V | 00:00:00 | 02:14:38 | 00:00:00 | |
| DL1XH1-15 | 2026-09-04 00:34:07 | 53.42560 | 9.07026 | 102° | 58km/h | 17864m | -12.7m/s | -56.1°C | 4.8% | 81.2hPa | 2.5V | 08:17:34 | 02:14:34 | 00:00:00 | |
| DO2JMG | 2026-09-04 00:34:06 | 53.42553 | 9.07074 | 104° | 58km/h | 17841m | -14m/s | -56.1°C | 1.2% | 81.5hPa | 2.5V | 08:17:50 | 02:14:36 | 00:00:00 | |
| BIOWL1-15 | 2026-09-04 00:34:05 | 53.42557 | 9.07050 | 104° | 58km/h | 17853m | -10.6m/s | -56.1°C | 1.1% | 81.3hPa | 2.5V | 08:17:50 | 02:14:35 | 00:00:00 | |
| DL1XH-west | 2026-09-04 00:34:04 | 53.42560 | 9.07026 | 103° | 58km/h | 17864m | -12.7m/s | -56.1°C | 1.1% | 81.2hPa | 2.5V | 08:17:50 | 02:14:34 | 00:00:00 | |
| HSKMA3-T | 2026-09-04 00:34:02 | 53.42567 | 9.06977 | 103° | 60km/h | 17887m | -12.2m/s | -56°C | 1.1% | 80.9hPa | 2.5V | 08:17:50 | 02:14:32 | 00:00:00 | |
| AA1-15 | 2026-09-04 00:34:00 | 53.42574 | 9.06928 | 104° | 58km/h | 17914m | -15.4m/s | -55.9°C | 1.1% | 80.7hPa | 2.5V | 08:17:50 | 02:14:30 | 00:00:00 | |
| DL1XH1-15 | 2026-09-04 00:33:59 | 53.42598 | 9.06785 | 109° | 60km/h | 17997m | -13m/s | -55.6°C | 4.8% | 79.6hPa | 2.5V | 08:17:44 | 02:14:24 | 00:00:00 | |
| SONDE2-11 | 2026-09-04 00:33:58 | 53.42585 | 9.06856 | 105° | 57km/h | 17959m | -13.7m/s | -55.8°C | 1.5% | 80.1hPa | 2.5V | 00:00:00 | 00:00:00 | 00:00:00 | |
| EDDB2-11 | 2026-09-04 00:33:56 | 53.42594 | 9.06809 | 107° | 57km/h | 17984m | -13.3m/s | -55.6°C | 1.4% | 79.7hPa | 2.5V | 00:00:00 | 00:00:00 | 00:00:00 | |
| DB0DAN | 2026-09-04 00:33:55 | 53.42594 | 9.06809 | 107° | 55km/h | 17984m | -13.3m/s | -55.6°C | 1.4% | 79.72hPa | 2.5V | 00:00:00 | 00:00:00 | 00:00:00 | |
| DO2JMG | 2026-09-04 00:33:55 | 53.42594 | 9.06809 | 107° | 58km/h | 17984m | -13.3m/s | -55.6°C | 1% | 79.7hPa | 2.5V | 08:17:50 | 02:14:25 | 00:00:00 | |
| DL1XH-west | 2026-09-04 00:33:54 | 53.42598 | 9.06785 | 109° | 60km/h | 17997m | -13m/s | -55.6°C | 1.1% | 79.6hPa | 2.5V | 08:17:50 | 02:14:24 | 00:00:00 | |
| DL1ZP-14 | 2026-09-04 00:33:54 | 53.42604 | 9.06762 | 110° | 58km/h | 18010m | -14.1m/s | -55.6°C | 1.5% | 79.4hPa | 2.5V | 00:00:00 | 00:00:00 | 00:00:00 | |
| DO2SHX-10 | 2026-09-04 00:33:53 | 53.42603 | 9.06762 | 111° | 60km/h | 18011m | -14.1m/s | -55.5°C | 4.8% | 79.4hPa | 2.6V | 00:00:00 | 02:14:23 | 00:00:00 | |
| DL1XH-15 | 2026-09-04 00:33:52 | 53.42621 | 9.06691 | 116° | 60km/h | 18043m | -10.1m/s | -55.2°C | 4.7% | 79hPa | 2.6V | 08:17:48 | 02:14:20 | 00:00:00 | |
| HSKMA3-T | 2026-09-04 00:33:52 | 53.42609 | 9.06738 | 110° | 60km/h | 18023m | -10.7m/s | -55.6°C | 1.1% | 79.2hPa | 2.5V | 08:17:50 | 02:14:22 | 00:00:00 | |
| AA1-15 | 2026-09-04 00:33:50 | 53.42621 | 9.06690 | 117° | 60km/h | 18043m | -10.1m/s | -55.2°C | 1% | 79hPa | 2.6V | 08:17:50 | 02:14:20 | 00:00:00 | |
| DL3AQ-11 | 2026-09-04 00:33:50 | 53.42628 | 9.06668 | 119° | 57km/h | 18055m | -14.6m/s | -54.7°C | 1.3% | 78.9hPa | 2.6V | 00:00:00 | 00:00:00 | 00:00:00 | |
| DJ2DS-15 | 2026-09-04 00:33:49 | 53.42628 | 9.06668 | 120° | 47km/h | 18055m | -14.5m/s | -54.6°C | 4.4% | 78.8hPa | 2.6V | 00:00:00 | 02:14:19 | 00:00:00 | |
| DL1XH1-15 | 2026-09-04 00:33:48 | 53.42668 | 9.06575 | 130° | 51km/h | 18128m | -11.3m/s | -54.5°C | 4.4% | 77.9hPa | 2.6V | 08:17:54 | 02:14:14 | 00:00:00 | |
| BIOWL1-15 | 2026-09-04 00:33:47 | 53.42643 | 9.06628 | 124° | 55km/h | 18089m | -16.8m/s | -54.3°C | 0.8% | 78.5hPa | 2.5V | 08:19:32 | 02:14:17 | 00:00:00 | |
| DO2JMG | 2026-09-04 00:33:45 | 53.42659 | 9.06592 | 130° | 51km/h | 18115m | -12.5m/s | -54.5°C | 0.9% | 78.1hPa | 2.5V | 08:18:41 | 02:14:15 | 00:00:00 | |
| DL1XH-west | 2026-09-04 00:33:43 | 53.42676 | 9.06559 | 131° | 49km/h | 18139m | -11.6m/s | -54.5°C | 0.9% | 77.8hPa | 2.5V | 08:18:41 | 02:14:13 | 00:00:00 | |
| HSKMA3-T | 2026-09-04 00:33:42 | 53.42684 | 9.06543 | 131° | 49km/h | 18150m | -10.6m/s | -54.5°C | 0.9% | 77.6hPa | 2.5V | 08:18:41 | 02:14:12 | 00:00:00 | |
| AA1-15 | 2026-09-04 00:33:40 | 53.42700 | 9.06512 | 129° | 47km/h | 18173m | -13.2m/s | -54.3°C | 0.8% | 77.4hPa | 2.5V | 08:18:41 | 02:14:10 | 00:00:00 | |
| GOEST3-10 | 2026-09-04 00:33:39 | 53.42708 | 9.06496 | 131° | 47km/h | 18186m | -11.1m/s | -54.1°C | 4.3% | 77.2hPa | 2.5V | 00:00:00 | 00:00:00 | 00:00:00 | |
| DL1NUX | 2026-09-04 00:33:38 | 53.42758 | 9.06416 | 140° | 42km/h | 18257m | -11.4m/s | -53.3°C | 4.1% | 76.4hPa | 2.5V | 08:18:05 | 02:14:03 | 00:00:00 | |
| DM0DOS-11 | 2026-09-04 00:33:38 | 53.42741 | 9.06440 | 139° | 46km/h | 18234m | -11.8m/s | -53.9°C | 4.3% | 76.7hPa | 2.5V | 08:18:03 | 02:14:05 | 00:00:00 | |
| BIOWL1-15 | 2026-09-04 00:33:36 | 53.42733 | 9.06453 | 138° | 46km/h | 18222m | -12.4m/s | -54.1°C | 0.8% | 76.8hPa | 2.5V | 08:19:32 | 02:14:06 | 00:00:00 | |
| DO2JMG | 2026-09-04 00:33:34 | 53.42750 | 9.06427 | 141° | 44km/h | 18246m | -10.7m/s | -53.6°C | 0.8% | 76.5hPa | 2.5V | 08:18:41 | 02:14:04 | 00:00:00 | |
| DF8AY | 2026-09-04 00:33:34 | 53.42766 | 9.06405 | 139° | 40km/h | 18268m | -10.6m/s | -53.1°C | 0.7% | 76.3hPa | 2.6V | 08:18:41 | 02:14:02 | 00:00:00 | |
| DL1XH-west | 2026-09-04 00:33:33 | 53.42758 | 9.06416 | 141° | 42km/h | 18257m | -11.4m/s | -53.3°C | 0.7% | 76.4hPa | 2.5V | 08:18:41 | 02:14:03 | 00:00:00 | |
| DL1XH-15 | 2026-09-04 00:33:31 | 53.42780 | 9.06381 | 128° | 40km/h | 18286m | -10.7m/s | -53.1°C | 4.1% | 76hPa | 2.5V | 08:18:08 | 02:14:00 | 00:00:00 | |
| HSKMA3-T | 2026-09-04 00:33:31 | 53.42774 | 9.06394 | 138° | 40km/h | 18277m | -7.1m/s | -53.1°C | 0.7% | 76.1hPa | 2.5V | 08:18:41 | 02:14:01 | 00:00:00 | |
| AA1-15 | 2026-09-04 00:33:30 | 53.42780 | 9.06381 | 129° | 40km/h | 18286m | -10.7m/s | -53.1°C | 0.7% | 76hPa | 2.5V | 08:18:41 | 02:14:00 | 00:00:00 | |
| BIOWL9-15 | 2026-09-04 00:33:30 | 53.42787 | 9.06368 | 126° | 42km/h | 18296m | -9.0m/s | -53.1°C | 1.3% | 75.9hPa | 2.5V | 00:00:00 | 00:00:00 | 00:00:00 | |
| DO2SHX-10 | 2026-09-04 00:33:29 | 53.42787 | 9.06368 | 127° | 44km/h | 18296m | -8.9m/s | -53.1°C | 4.1% | 75.9hPa | 2.5V | 00:00:00 | 02:13:59 | 00:00:00 | |
| DL1XH1-15 | 2026-09-04 00:33:27 | 53.42814 | 9.06278 | 113° | 55km/h | 18351m | -12.2m/s | -53.4°C | 4.1% | 75.3hPa | 2.5V | 08:18:14 | 02:13:54 | 00:00:00 | |
| SONDE2-11 | 2026-09-04 00:33:27 | 53.42803 | 9.06318 | 113° | 49km/h | 18327m | -12.4m/s | -53.3°C | 1.2% | 75.6hPa | 2.6V | 00:00:00 | 00:00:00 | 00:00:00 | |
| DL1XH-15 | 2026-09-04 00:33:26 | 53.42836 | 9.06198 | 117° | 49km/h | 18412m | -15.2m/s | -53.5°C | 4.2% | 74.6hPa | 2.6V | 08:18:18 | 02:13:50 | 00:00:00 | |
| DB0DAN | 2026-09-04 00:33:25 | 53.42808 | 9.06299 | 114° | 51km/h | 18339m | -11.9m/s | -53.3°C | 1.2% | 75.43hPa | 2.6V | 00:00:00 | 00:00:00 | 00:00:00 | |
| BIOWL1-15 | 2026-09-04 00:33:25 | 53.42808 | 9.06299 | 114° | 53km/h | 18339m | -11.9m/s | -53.3°C | 0.7% | 75.4hPa | 2.6V | 08:19:32 | 02:13:55 | 00:00:00 | |
| DO2JMG | 2026-09-04 00:33:24 | 53.42814 | 9.06278 | 113° | 55km/h | 18351m | -12.2m/s | -53.4°C | 0.6% | 75.3hPa | 2.5V | 08:18:41 | 02:13:54 | 00:00:00 | |
| DL1XH-west | 2026-09-04 00:33:22 | 53.42825 | 9.06237 | 115° | 53km/h | 18381m | -15.6m/s | -53.5°C | 0.7% | 75hPa | 2.5V | 08:18:41 | 02:13:52 | 00:00:00 | |
| HSKMA3-T | 2026-09-04 00:33:21 | 53.42831 | 9.06217 | 117° | 51km/h | 18397m | -16.6m/s | -53.5°C | 0.7% | 74.8hPa | 2.5V | 08:18:41 | 02:13:51 | 00:00:00 | |
| AA1-15 | 2026-09-04 00:33:19 | 53.42842 | 9.06180 | 116° | 49km/h | 18425m | -11.4m/s | -53.5°C | 0.7% | 74.4hPa | 2.6V | 08:18:41 | 02:13:49 | 00:00:00 | |
| GOEST3-10 | 2026-09-04 00:33:19 | 53.42842 | 9.06180 | 117° | 47km/h | 18426m | -11.3m/s | -53.4°C | 4.1% | 74.4hPa | 2.5V | 00:00:00 | 00:00:00 | 00:00:00 | |
| DB0UT-7 | 2026-09-04 00:33:18 | 53.42847 | 9.06161 | 117° | 37km/h | 18438m | -13.1m/s | -53.4°C | 4.1% | 74.2hPa | 2.5V | 00:00:00 | 00:00:00 | 00:00:00 | |
| DO2SHX-10 | 2026-09-04 00:33:17 | 53.42852 | 9.06143 | 117° | 47km/h | 18451m | -14.5m/s | -53.3°C | 4.1% | 74.1hPa | 2.5V | 00:00:00 | 02:13:47 | 00:00:00 | |
| DF5WG-10 | 2026-09-04 00:33:16 | 53.42858 | 9.06125 | 116° | 46km/h | 18466m | -15.6m/s | -53.1°C | 4.1% | 73.9hPa | 2.5V | 00:00:00 | 02:13:46 | 00:00:00 | |
| DL1XH-15 | 2026-09-04 00:33:14 | 53.42886 | 9.06015 | 112° | 44km/h | 18536m | -12.9m/s | -52.3°C | 3.7% | 73.2hPa | 2.5V | 08:18:28 | 02:13:40 | 00:00:00 | |
| DO2JMG | 2026-09-04 00:33:14 | 53.42868 | 9.06088 | 116° | 47km/h | 18493m | -11.6m/s | -52.6°C | 0.6% | 73.7hPa | 2.6V | 08:18:41 | 02:13:44 | 00:00:00 | |
| BIOWL1-15 | 2026-09-04 00:33:13 | 53.42873 | 9.06070 | 114° | 47km/h | 18504m | -11.3m/s | -52.4°C | 0.6% | 73.5hPa | 2.6V | 08:19:32 | 02:13:43 | 00:00:00 | |
| DF8AY | 2026-09-04 00:33:12 | 53.42878 | 9.06051 | 113° | 47km/h | 18514m | -8.8m/s | -52.4°C | 0.6% | 73.3hPa | 2.5V | 08:18:41 | 02:13:42 | 00:00:00 | |
| DL1XH-west | 2026-09-04 00:33:11 | 53.42882 | 9.06033 | 112° | 46km/h | 18524m | -11.7m/s | -52.3°C | 0.5% | 73.3hPa | 2.5V | 08:18:41 | 02:13:41 | 00:00:00 | |
| HSKMA3-T | 2026-09-04 00:33:10 | 53.42886 | 9.06016 | 113° | 44km/h | 18536m | -12.9m/s | -52.3°C | 0.5% | 73.2hPa | 2.5V | 08:18:41 | 02:13:40 | 00:00:00 | |
| AA1-15 | 2026-09-04 00:33:09 | 53.42895 | 9.05982 | 113° | 40km/h | 18560m | -10.9m/s | -52.4°C | 0.5% | 72.8hPa | 2.6V | 08:18:41 | 02:13:38 | 00:00:00 | |
| DO2SHX-10 | 2026-09-04 00:33:08 | 53.42895 | 9.05982 | 114° | 40km/h | 18560m | -10.9m/s | -52.4°C | 3.8% | 72.8hPa | 2.5V | 00:00:00 | 02:13:38 | 00:00:00 | |
| DF5WG-10 | 2026-09-04 00:33:06 | 53.42903 | 9.05951 | 116° | 33km/h | 18583m | -9.9m/s | -52.5°C | 3.9% | 72.6hPa | 2.5V | 00:00:00 | 02:13:36 | 00:00:00 | |
| DO2SHX-10 | 2026-09-04 00:33:05 | 53.42907 | 9.05936 | 115° | 37km/h | 18594m | -11.6m/s | -52.6°C | 3.8% | 72.5hPa | 2.5V | 00:00:00 | 02:13:35 | 00:00:00 | |
| DL1XH-15 | 2026-09-04 00:33:04 | 53.42927 | 9.05870 | 116° | 31km/h | 18648m | -10.8m/s | -52.6°C | 3.8% | 71.9hPa | 2.5V | 08:18:38 | 02:13:30 | 00:00:00 | |
| DO2JMG | 2026-09-04 00:33:03 | 53.42915 | 9.05908 | 117° | 37km/h | 18614m | -8.9m/s | -52.7°C | 0.5% | 72.3hPa | 2.5V | 08:18:41 | 02:13:33 | 00:00:00 | |
| DF8AY | 2026-09-04 00:33:02 | 53.42920 | 9.05895 | 118° | 35km/h | 18625m | -13.2m/s | -52.7°C | 0.5% | 72.2hPa | 2.6V | 08:18:41 | 02:13:32 | 00:00:00 | |
| BIOWL1-15 | 2026-09-04 00:33:00 | 53.42934 | 9.05847 | 115° | 29km/h | 18671m | -11.8m/s | -52.6°C | 0.5% | 71.7hPa | 2.5V | 08:19:32 | 02:13:28 | 00:00:00 | |
| DL1XH-west | 2026-09-04 00:33:00 | 53.42927 | 9.05870 | 116° | 31km/h | 18648m | -10.8m/s | -52.6°C | 0.6% | 71.9hPa | 2.5V | 08:18:41 | 02:13:30 | 00:00:00 | |
| HSKMA3-T | 2026-09-04 00:32:59 | 53.42931 | 9.05858 | 117° | 31km/h | 18660m | -12.2m/s | -52.6°C | 0.5% | 71.8hPa | 2.5V | 08:18:41 | 02:13:29 | 00:00:00 | |
| AA1-15 | 2026-09-04 00:32:57 | 53.42937 | 9.05836 | 116° | 26km/h | 18683m | -12.1m/s | -52.6°C | 0.5% | 71.5hPa | 2.5V | 08:18:41 | 02:13:27 | 00:00:00 | |
| DJ2DS-15 | 2026-09-04 00:32:57 | 53.42940 | 9.05826 | 113° | 24km/h | 18697m | -14.4m/s | -52.6°C | 1.1% | 71.4hPa | 2.6V | 00:00:00 | 00:00:00 | 00:00:00 | |
| SONDE2-11 | 2026-09-04 00:32:56 | 53.42942 | 9.05817 | 112° | 24km/h | 18712m | -15.3m/s | -52.7°C | 1.1% | 71.3hPa | 2.6V | 00:00:00 | 00:00:00 | 00:00:00 | |
| DB0DAN | 2026-09-04 00:32:55 | 53.42942 | 9.05817 | 112° | 22km/h | 18712m | -15.3m/s | -52.7°C | 1.1% | 71.29hPa | 2.6V | 00:00:00 | 00:00:00 | 00:00:00 | |
| DO2JMG | 2026-09-04 00:32:53 | 53.42947 | 9.05799 | 112° | 22km/h | 18741m | -13.9m/s | -52.8°C | 0.6% | 70.9hPa | 2.5V | 08:19:32 | 02:13:23 | 00:00:00 | |
| DF8AY | 2026-09-04 00:32:52 | 53.42949 | 9.05791 | 111° | 22km/h | 18755m | -14m/s | -52.9°C | 0.6% | 70.7hPa | 2.5V | 08:19:32 | 02:13:22 | 00:00:00 | |
| DL1XH-west | 2026-09-04 00:32:50 | 53.42953 | 9.05773 | 107° | 24km/h | 18779m | -10.3m/s | -53.2°C | 0.7% | 70.4hPa | 2.6V | 08:19:32 | 02:13:20 | 00:00:00 | |
| HSKMA3-T | 2026-09-04 00:32:49 | 53.42954 | 9.05763 | 102° | 24km/h | 18790m | -11.7m/s | -53.2°C | 0.6% | 70.3hPa | 2.6V | 08:19:32 | 02:13:19 | 00:00:00 | |
| AA1-15 | 2026-09-04 00:32:47 | 53.42956 | 9.05742 | 96° | 27km/h | 18814m | -11.1m/s | -53.4°C | 0.7% | 70.1hPa | 2.5V | 08:19:32 | 02:13:17 | 00:00:00 | |
| DK1YY | 2026-09-04 00:32:47 | 53.42956 | 9.05742 | 96° | 26km/h | 18814m | -11.1m/s | -53.4°C | 1.2% | 70.1hPa | 2.5V | 00:00:00 | 00:00:00 | 00:00:00 | |
| HTAHTA | 2026-09-04 00:32:45 | 53.42957 | 9.05719 | 90° | 27km/h | 18838m | -11.0m/s | -53.4°C | 1.2% | 69.8hPa | 2.5V | 00:00:00 | 00:00:00 | 00:00:00 | |
| DL1XH-15 | 2026-09-04 00:32:44 | 53.42957 | 9.05650 | 90° | 37km/h | 18899m | -13.9m/s | -53.2°C | 4% | 69.2hPa | 2.5V | 08:18:58 | 02:13:10 | 00:00:00 | |
| DO2JMG | 2026-09-04 00:32:42 | 53.42957 | 9.05680 | 89° | 33km/h | 18870m | -9.4m/s | -53.3°C | 0.7% | 69.4hPa | 2.5V | 08:19:32 | 02:13:12 | 00:00:00 | |
| DF8AY | 2026-09-04 00:32:41 | 53.42957 | 9.05665 | 90° | 35km/h | 18883m | -17.2m/s | -53.2°C | 0.6% | 69.4hPa | 2.5V | 08:19:32 | 02:13:11 | 00:00:00 | |
| DL1XH-west | 2026-09-04 00:32:40 | 53.42957 | 9.05650 | 90° | 37km/h | 18899m | -13.9m/s | -53.3°C | 0.7% | 69.2hPa | 2.5V | 08:19:32 | 02:13:10 | 00:00:00 | |
| DL1XH1-15 | 2026-09-04 00:32:39 | 53.42962 | 9.05543 | 97° | 46km/h | 18967m | -8.6m/s | -53.5°C | 4.1% | 68.4hPa | 2.5V | 08:19:04 | 02:13:04 | 00:00:00 | |
| HSKMA3-T | 2026-09-04 00:32:39 | 53.42957 | 9.05634 | 92° | 40km/h | 18912m | -11.7m/s | -53.3°C | 0.7% | 69hPa | 2.6V | 08:19:32 | 02:13:09 | 00:00:00 | |
| AA1-15 | 2026-09-04 00:32:37 | 53.42958 | 9.05599 | 93° | 42km/h | 18935m | -11.2m/s | -53.3°C | 0.7% | 68.8hPa | 2.5V | 08:19:32 | 02:13:07 | 00:00:00 | |
| BIOWL1-15 | 2026-09-04 00:32:35 | 53.42960 | 9.05563 | 96° | 44km/h | 18957m | -10.9m/s | -53.4°C | 0.7% | 68.5hPa | 2.5V | 08:19:32 | 02:13:05 | 00:00:00 | |
| DO2SHX-10 | 2026-09-04 00:32:35 | 53.42960 | 9.05562 | 97° | 46km/h | 18958m | -10.8m/s | -53.4°C | 4.1% | 68.5hPa | 2.5V | 00:00:00 | 02:13:05 | 00:00:00 | |
| DF8AY-15 | 2026-09-04 00:32:34 | 53.42962 | 9.05543 | 98° | 38km/h | 18967m | -8.6m/s | -53.4°C | 4.1% | 68.4hPa | 2.5V | 08:19:00 | 02:13:04 | 00:00:00 | |
| DL1XH-15 | 2026-09-04 00:32:33 | 53.42971 | 9.05467 | 103° | 46km/h | 19016m | -12.2m/s | -53.4°C | 4.2% | 67.9hPa | 2.5V | 08:19:08 | 02:13:00 | 00:00:00 | |
| DO2JMG | 2026-09-04 00:32:32 | 53.42965 | 9.05505 | 102° | 46km/h | 18992m | -12.9m/s | -53.4°C | 0.7% | 68.2hPa | 2.6V | 08:19:32 | 02:13:02 | 00:00:00 | |
| DF8AY | 2026-09-04 00:32:31 | 53.42968 | 9.05486 | 102° | 46km/h | 19004m | -12.1m/s | -53.4°C | 0.7% | 68hPa | 2.5V | 08:19:32 | 02:13:01 | 00:00:00 | |
| DL1XH-west | 2026-09-04 00:32:30 | 53.42971 | 9.05467 | 104° | 46km/h | 19016m | -12.2m/s | -53.4°C | 0.8% | 67.9hPa | 2.5V | 08:19:32 | 02:13:00 | 00:00:00 | |
| HSKMA3-T | 2026-09-04 00:32:29 | 53.42974 | 9.05449 | 107° | 44km/h | 19028m | -11m/s | -53.4°C | 0.8% | 67.8hPa | 2.5V | 08:19:32 | 02:12:59 | 00:00:00 | |
| AA1-15 | 2026-09-04 00:32:26 | 53.42983 | 9.05398 | 108° | 40km/h | 19063m | -11m/s | -53.2°C | 0.7% | 67.4hPa | 2.6V | 08:19:32 | 02:12:56 | 00:00:00 | |
| DB0DAN | 2026-09-04 00:32:25 | 53.42986 | 9.05382 | 108° | 37km/h | 19074m | -10.3m/s | -53.3°C | 1.2% | 67.26hPa | 2.5V | 00:00:00 | 00:00:00 | 00:00:00 | |
| DO2JMG | 2026-09-04 00:32:22 | 53.42995 | 9.05338 | 110° | 37km/h | 19105m | -11.1m/s | -53.2°C | 0.7% | 67hPa | 2.5V | 08:19:32 | 02:12:52 | 00:00:00 | |
| DF8AY | 2026-09-04 00:32:21 | 53.42998 | 9.05323 | 110° | 35km/h | 19115m | -10.4m/s | -53.2°C | 0.7% | 66.9hPa | 2.6V | 08:19:32 | 02:12:51 | 00:00:00 | |
| DL1XH-west | 2026-09-04 00:32:20 | 53.43001 | 9.05310 | 108° | 33km/h | 19126m | -10.5m/s | -53.1°C | 0.7% | 66.7hPa | 2.6V | 08:19:32 | 02:12:50 | 00:00:00 | |
| HSKMA3-T | 2026-09-04 00:32:18 | 53.43006 | 9.05284 | 108° | 31km/h | 19153m | -14.6m/s | -53°C | 0.7% | 66.5hPa | 2.5V | 08:19:32 | 02:12:48 | 00:00:00 | |
| AA1-15 | 2026-09-04 00:32:16 | 53.43011 | 9.05260 | 104° | 29km/h | 19179m | -12.9m/s | -53°C | 0.6% | 66.2hPa | 2.5V | 08:19:32 | 02:12:46 | 00:00:00 | |
| DO2JMG | 2026-09-04 00:32:11 | 53.43018 | 9.05206 | 101° | 24km/h | 19237m | -12.5m/s | -52.9°C | 0.6% | 65.6hPa | 2.5V | 08:19:32 | 02:12:41 | 00:00:00 | |
| DB0DAN | 2026-09-04 00:32:10 | 53.43019 | 9.05195 | 98° | 24km/h | 19250m | -12.5m/s | -53°C | 1.2% | 65.48hPa | 2.5V | 00:00:00 | 00:00:00 | 00:00:00 | |
| DF8AY | 2026-09-04 00:32:10 | 53.43019 | 9.05195 | 98° | 24km/h | 19250m | -12.5m/s | -53°C | 0.6% | 65.5hPa | 2.5V | 08:19:32 | 02:12:40 | 00:00:00 | |
| DL1XH-west | 2026-09-04 00:32:09 | 53.43019 | 9.05185 | 97° | 26km/h | 19262m | -11.8m/s | -53°C | 0.7% | 65.3hPa | 2.6V | 08:19:32 | 02:12:39 | 00:00:00 | |
| HSKMA3-T | 2026-09-04 00:32:07 | 53.43021 | 9.05163 | 97° | 29km/h | 19285m | -12.8m/s | -53°C | 0.6% | 65.1hPa | 2.5V | 08:19:32 | 02:12:37 | 00:00:00 | |
| AA1-15 | 2026-09-04 00:32:05 | 53.43023 | 9.05137 | 98° | 33km/h | 19312m | -14.5m/s | -52.9°C | 0.6% | 64.9hPa | 2.5V | 08:20:23 | 02:12:35 | 00:00:00 | |
| DB0NH | 2026-09-04 00:32:05 | 53.43023 | 9.05137 | 98° | 40km/h | 19312m | -14.5m/s | -52.9°C | 3.9% | 64.8hPa | 2.5V | 00:00:00 | 02:12:35 | 00:00:00 | |
| GOEST3-10 | 2026-09-04 00:32:04 | 53.43023 | 9.05123 | 98° | 35km/h | 19326m | -12.4m/s | -52.9°C | 3.9% | 64.7hPa | 2.5V | 00:00:00 | 02:12:34 | 00:00:00 | |
| DL1XH-15 | 2026-09-04 00:32:03 | 53.43025 | 9.05065 | 85° | 35km/h | 19382m | -18.2m/s | -53.1°C | 3.9% | 64.2hPa | 2.5V | 08:19:38 | 02:12:30 | 00:00:00 | |
| DO2JMG | 2026-09-04 00:32:01 | 53.43025 | 9.05079 | 90° | 37km/h | 19365m | -16.2m/s | -53.1°C | 0.6% | 64.4hPa | 2.5V | 08:20:23 | 02:12:31 | 00:00:00 | |
| DF8AY | 2026-09-04 00:32:00 | 53.43025 | 9.05065 | 85° | 35km/h | 19382m | -18.2m/s | -53.1°C | 0.6% | 64.2hPa | 2.5V | 08:20:23 | 02:12:30 | 00:00:00 | |
| DL1XH1-15 | 2026-09-04 00:31:59 | 53.43018 | 9.04974 | 86° | 37km/h | 19458m | -12.4m/s | -53.4°C | 4% | 63.4hPa | 2.5V | 08:19:44 | 02:12:24 | 00:00:00 | |
| DL1XH-west | 2026-09-04 00:31:59 | 53.43024 | 9.05050 | 82° | 37km/h | 19400m | -16.9m/s | -53.2°C | 0.6% | 64hPa | 2.5V | 08:20:23 | 02:12:29 | 00:00:00 | |
| BIOWL1-15 | 2026-09-04 00:31:57 | 53.43019 | 9.04990 | 84° | 37km/h | 19446m | -11.3m/s | -53.4°C | 0.6% | 63.5hPa | 2.5V | 08:20:23 | 02:12:25 | 00:00:00 | |
| HSKMA3-T | 2026-09-04 00:31:57 | 53.43021 | 9.05020 | 82° | 37km/h | 19426m | -9.2m/s | -53.4°C | 0.7% | 63.7hPa | 2.6V | 08:20:23 | 02:12:27 | 00:00:00 | |
| BIOWL9-15 | 2026-09-04 00:31:56 | 53.43020 | 9.05005 | 82° | 37km/h | 19436m | -10.1m/s | -53.4°C | 1.2% | 63.6hPa | 2.5V | 00:00:00 | 00:00:00 | 00:00:00 | |
| DB0DAN | 2026-09-04 00:31:55 | 53.43019 | 9.04990 | 84° | 35km/h | 19446m | -11.3m/s | -53.4°C | 1.2% | 63.51hPa | 2.5V | 00:00:00 | 00:00:00 | 00:00:00 | |
| AA1-15 | 2026-09-04 00:31:54 | 53.43018 | 9.04974 | 86° | 37km/h | 19458m | -12.4m/s | -53.4°C | 0.7% | 63.4hPa | 2.5V | 08:20:23 | 02:12:24 | 00:00:00 | |
| SONDE2-11 | 2026-09-04 00:31:54 | 53.43018 | 9.04959 | 87° | 37km/h | 19472m | -14.8m/s | -53.4°C | 1.2% | 63.3hPa | 2.5V | 00:00:00 | 00:00:00 | 00:00:00 | |
| DL1XH-15 | 2026-09-04 00:31:53 | 53.43018 | 9.04907 | 92° | 42km/h | 19509m | -7.9m/s | -53.6°C | 4.1% | 62.9hPa | 2.5V | 08:19:48 | 02:12:20 | 00:00:00 | |
| DO2JMG | 2026-09-04 00:31:50 | 53.43018 | 9.04907 | 93° | 42km/h | 19509m | -7.9m/s | -53.6°C | 0.7% | 62.9hPa | 2.5V | 08:20:23 | 02:12:20 | 00:00:00 | |
| DL3AQ-11 | 2026-09-04 00:31:50 | 53.43018 | 9.04889 | 93° | 44km/h | 19517m | -8.2m/s | 0°C | -1.0% | -1.0hPa | 2.6V | 00:00:00 | 00:00:00 | 00:00:00 | |
| DM0DOS-11 | 2026-09-04 00:31:49 | 53.43024 | 9.04809 | 98° | 49km/h | 19559m | -7.9m/s | -53.8°C | 4.4% | 62.4hPa | 2.6V | 08:19:53 | 02:12:15 | 00:00:00 | |
| DF8AY | 2026-09-04 00:31:49 | 53.43018 | 9.04889 | 94° | 44km/h | 19517m | -8.2m/s | -53.6°C | 0.8% | 62.8hPa | 2.5V | 08:20:23 | 02:12:19 | 00:00:00 | |
| DL1XH-west | 2026-09-04 00:31:48 | 53.43020 | 9.04870 | 97° | 47km/h | 19528m | -13.6m/s | -53.7°C | 0.8% | 62.7hPa | 2.5V | 08:20:23 | 02:12:18 | 00:00:00 | |
| BIOWL1-15 | 2026-09-04 00:31:47 | 53.43021 | 9.04850 | 97° | 47km/h | 19540m | -10.7m/s | -53.7°C | 0.8% | 62.6hPa | 2.5V | 08:20:23 | 02:12:17 | 00:00:00 | |
| AA1-15 | 2026-09-04 00:31:43 | 53.43028 | 9.04768 | 99° | 46km/h | 19576m | -11.4m/s | -53.9°C | 0.8% | 62.2hPa | 2.5V | 08:20:23 | 02:12:13 | 00:00:00 | |
| DL1XH-15 | 2026-09-04 00:31:43 | 53.43033 | 9.04717 | 100° | 38km/h | 19609m | -11.8m/s | -53.9°C | 4.3% | 61.9hPa | 2.6V | 08:19:58 | 02:12:10 | 00:00:00 | |
| DL4BBY-15 | 2026-09-04 00:31:43 | 53.43028 | 9.04768 | 100° | 31km/h | 19576m | -11.3m/s | -53.4°C | 0% | 0hPa | 2.6V | 00:00:00 | 00:00:00 | 00:00:00 | |
| DB0DAN | 2026-09-04 00:31:40 | 53.43033 | 9.04717 | 100° | 37km/h | 19609m | -11.8m/s | -53.9°C | 1.3% | 61.94hPa | 2.6V | 00:00:00 | 00:00:00 | 00:00:00 | |
| DO2JMG | 2026-09-04 00:31:40 | 53.43033 | 9.04717 | 100° | 38km/h | 19609m | -11.8m/s | -53.9°C | 0.9% | 61.9hPa | 2.6V | 08:20:23 | 02:12:10 | 00:00:00 | |
| EDDB2-12 | 2026-09-04 00:31:40 | 53.43035 | 9.04701 | 103° | 35km/h | 19622m | -15.0m/s | -53.8°C | 1.2% | 61.8hPa | 2.5V | 00:00:00 | 00:00:00 | 00:00:00 | |
| GOEST3-10 | 2026-09-04 00:31:39 | 53.43035 | 9.04701 | 104° | 35km/h | 19622m | -15.0m/s | -53.7°C | 4.2% | 61.8hPa | 2.5V | 00:00:00 | 00:00:00 | 00:00:00 | |
| DM0DOS-11 | 2026-09-04 00:31:38 | 53.43045 | 9.04645 | 110° | 35km/h | 19676m | -14.8m/s | -53.5°C | 4.2% | 61.3hPa | 2.5V | 08:20:03 | 02:12:05 | 00:00:00 | |
| DF8AY | 2026-09-04 00:31:38 | 53.43037 | 9.04687 | 104° | 35km/h | 19636m | -13.7m/s | -53.8°C | 0.8% | 61.7hPa | 2.5V | 08:20:23 | 02:12:08 | 00:00:00 | |
| DL1XH-west | 2026-09-04 00:31:37 | 53.43040 | 9.04673 | 108° | 35km/h | 19649m | -13.4m/s | -53.7°C | 0.9% | 61.5hPa | 2.5V | 08:20:23 | 02:12:07 | 00:00:00 | |
| HSKMA3-T | 2026-09-04 00:31:36 | 53.43042 | 9.04659 | 109° | 35km/h | 19663m | -13.2m/s | -53.7°C | 0.9% | 61.4hPa | 2.5V | 08:20:23 | 02:12:06 | 00:00:00 | |
| AA1-15 | 2026-09-04 00:31:33 | 53.43055 | 9.04603 | 113° | 38km/h | 19715m | -14.7m/s | -53.2°C | 0.8% | 60.9hPa | 2.5V | 08:20:23 | 02:12:02 | 00:00:00 | |
| DO2JMG | 2026-09-04 00:31:29 | 53.43068 | 9.04558 | 115° | 38km/h | 19757m | -13.9m/s | -53.1°C | 0.8% | 60.5hPa | 2.5V | 08:20:23 | 02:11:59 | 00:00:00 | |
| DJ2DS-15 | 2026-09-04 00:31:29 | 53.43068 | 9.04558 | 116° | 24km/h | 19758m | -13.8m/s | -53.1°C | 4.1% | 60.5hPa | 2.5V | 00:00:00 | 02:11:59 | 00:00:00 | |
| DM0DOS-11 | 2026-09-04 00:31:28 | 53.43084 | 9.04503 | 119° | 33km/h | 19806m | -13.1m/s | -52.9°C | 4% | 60.1hPa | 2.5V | 08:20:13 | 02:11:55 | 00:00:00 | |
| DL1XH-west | 2026-09-04 00:31:27 | 53.43076 | 9.04530 | 118° | 38km/h | 19783m | -10.1m/s | -53°C | 0.7% | 60.3hPa | 2.6V | 08:20:23 | 02:11:57 | 00:00:00 | |
| HSKMA3-T | 2026-09-04 00:31:26 | 53.43080 | 9.04516 | 119° | 35km/h | 19794m | -11.4m/s | -52.9°C | 0.7% | 60.2hPa | 2.5V | 08:20:23 | 02:11:56 | 00:00:00 | |
| AA1-15 | 2026-09-04 00:31:22 | 53.43096 | 9.04470 | 122° | 26km/h | 19842m | -11.8m/s | -52.9°C | 0.7% | 59.7hPa | 2.6V | 08:20:23 | 02:11:52 | 00:00:00 | |
| DL1XH-15 | 2026-09-04 00:31:21 | 53.43102 | 9.04454 | 124° | 20km/h | 19870m | -16.2m/s | -52.8°C | 3.9% | 59.5hPa | 2.5V | 08:20:18 | 02:11:50 | 00:00:00 | |
| BIOWL1-15 | 2026-09-04 00:31:20 | 53.43127 | 9.04388 | 114° | 11km/h | 20024m | -13.5m/s | -52.6°C | 0.7% | 58.1hPa | 2.5V | 08:21:14 | 02:11:39 | 00:00:00 | |
| DL1XH1-15 | 2026-09-04 00:31:20 | 53.43118 | 9.04415 | 120° | 18km/h | 19955m | -14.7m/s | -52.8°C | 4% | 58.7hPa | 2.5V | 08:20:24 | 02:11:44 | 00:00:00 | |
| DL1ZP-14 | 2026-09-04 00:31:19 | 53.43108 | 9.04440 | 124° | 18km/h | 19901m | -14.3m/s | -52.8°C | 1.2% | 59.2hPa | 2.5V | 00:00:00 | 00:00:00 | 00:00:00 | |
| DO2JMG | 2026-09-04 00:31:19 | 53.43105 | 9.04447 | 124° | 20km/h | 19886m | -15.4m/s | -52.8°C | 0.6% | 59.4hPa | 2.5V | 08:20:23 | 02:11:49 | 00:00:00 | |
| GOEST3-10 | 2026-09-04 00:31:18 | 53.43108 | 9.04440 | 125° | 18km/h | 19901m | -14.2m/s | -52.7°C | 4.0% | 59.2hPa | 2.5V | 00:00:00 | 00:00:00 | 00:00:00 | |
| DM0DOS-11 | 2026-09-04 00:31:17 | 53.43116 | 9.04422 | 124° | 18km/h | 19941m | -14.3m/s | -52.8°C | 4% | 58.8hPa | 2.5V | 08:20:23 | 02:11:45 | 00:00:00 | |
| DL1XH-west | 2026-09-04 00:31:17 | 53.43110 | 9.04434 | 124° | 18km/h | 19914m | -13.3m/s | -52.8°C | 0.7% | 59.1hPa | 2.6V | 08:20:23 | 02:11:47 | 00:00:00 | |
| HSKMA3-T | 2026-09-04 00:31:15 | 53.43116 | 9.04421 | 125° | 18km/h | 19941m | -14.3m/s | -52.8°C | 0.6% | 58.8hPa | 2.5V | 08:20:23 | 02:11:45 | 00:00:00 | |
| AA1-15 | 2026-09-04 00:31:12 | 53.43122 | 9.04403 | 120° | 15km/h | 19981m | -13.1m/s | -52.7°C | 0.7% | 58.5hPa | 2.5V | 08:21:14 | 02:11:42 | 00:00:00 | |
| DB0DAN | 2026-09-04 00:31:10 | 53.43125 | 9.04392 | 115° | 11km/h | 20010m | -15.2m/s | -52.7°C | 1.2% | 58.22hPa | 2.6V | 00:00:00 | 00:00:00 | 00:00:00 | |
| DL1XH-15 | 2026-09-04 00:31:10 | 53.43125 | 9.04392 | 114° | 13km/h | 20010m | -15.2m/s | -52.7°C | 3.9% | 58.2hPa | 2.6V | 08:20:28 | 02:11:40 | 00:00:00 | |
| DO2JMG | 2026-09-04 00:31:08 | 53.43128 | 9.04384 | 119° | 11km/h | 20037m | -11.6m/s | -52.6°C | 0.6% | 57.9hPa | 2.5V | 08:21:14 | 02:11:38 | 00:00:00 | |
| GOEST3-10 | 2026-09-04 00:31:08 | 53.43128 | 9.04384 | 119° | 7km/h | 20037m | -11.5m/s | -52.6°C | 3.9% | 57.9hPa | 2.6V | 00:00:00 | 00:00:00 | 00:00:00 | |
| DL1XH1-15 | 2026-09-04 00:31:06 | 53.43133 | 9.04370 | 135° | 7km/h | 20085m | -14m/s | -52.5°C | 3.9% | 57.5hPa | 2.6V | 08:20:34 | 02:11:34 | 00:00:00 | |
| DL1XH-west | 2026-09-04 00:31:06 | 53.43130 | 9.04376 | 125° | 9km/h | 20057m | -14.2m/s | -52.6°C | 0.6% | 57.8hPa | 2.5V | 08:21:14 | 02:11:36 | 00:00:00 | |
| HSKMA3-T | 2026-09-04 00:31:04 | 53.43133 | 9.04370 | 135° | 7km/h | 20085m | -14m/s | -52.5°C | 0.6% | 57.5hPa | 2.6V | 08:21:14 | 02:11:34 | 00:00:00 | |
| BIOWL1-15 | 2026-09-04 00:31:01 | 53.43135 | 9.04365 | 87° | 4km/h | 20123m | -11.6m/s | -52.2°C | 0.6% | 57.2hPa | 2.5V | 08:21:14 | 02:11:31 | 00:00:00 | |
| DO2JMG | 2026-09-04 00:30:58 | 53.43132 | 9.04358 | 51° | 9km/h | 20157m | -12.2m/s | -52.4°C | 0.6% | 56.9hPa | 2.6V | 08:21:14 | 02:11:28 | 00:00:00 | |
| DL1XH-west | 2026-09-04 00:30:56 | 53.43128 | 9.04351 | 41° | 13km/h | 20179m | -9.7m/s | -52.6°C | 0.6% | 56.7hPa | 2.5V | 08:21:14 | 02:11:26 | 00:00:00 | |
| DB0DAN | 2026-09-04 00:30:55 | 53.43126 | 9.04347 | 38° | 13km/h | 20189m | -10.4m/s | -52.6°C | 1.1% | 56.61hPa | 2.5V | 00:00:00 | 00:00:00 | 00:00:00 | |
| BIOWL1-15 | 2026-09-04 00:30:55 | 53.43114 | 9.04336 | 22° | 13km/h | 20238m | -10.5m/s | -52.9°C | 0.6% | 56.2hPa | 2.5V | 08:21:14 | 02:11:21 | 00:00:00 | |
| HSKMA3-T | 2026-09-04 00:30:54 | 53.43123 | 9.04344 | 31° | 15km/h | 20201m | -14m/s | -52.7°C | 0.6% | 56.5hPa | 2.5V | 08:21:14 | 02:11:24 | 00:00:00 | |
| DF8AY-15 | 2026-09-04 00:30:54 | 53.43123 | 9.04344 | 31° | 18km/h | 20201m | -13.9m/s | -52.6°C | 3.8% | 56.5hPa | 2.5V | 00:00:00 | 02:11:24 | 00:00:00 | |
| DO2SHX-10 | 2026-09-04 00:30:53 | 53.43120 | 9.04341 | 28° | 13km/h | 20214m | -12.5m/s | -52.7°C | 3.8% | 56.3hPa | 2.5V | 00:00:00 | 02:11:23 | 00:00:00 | |
| DM0DOS-11 | 2026-09-04 00:30:51 | 53.43100 | 9.04326 | 48° | 15km/h | 20316m | -15.9m/s | -53.4°C | 4% | 55.5hPa | 2.5V | 08:20:53 | 02:11:15 | 00:00:00 | |
| DL1XH-15 | 2026-09-04 00:30:50 | 53.43111 | 9.04335 | 11° | 9km/h | 20250m | -13.1m/s | -53°C | 3.8% | 56.1hPa | 2.5V | 08:20:48 | 02:11:20 | 00:00:00 | |
| AA1-15 | 2026-09-04 00:30:50 | 53.43111 | 9.04335 | 12° | 9km/h | 20250m | -13.1m/s | -53°C | 0.6% | 56.1hPa | 2.5V | 08:21:14 | 02:11:20 | 00:00:00 | |
| DO2SHX-10 | 2026-09-04 00:30:50 | 53.43111 | 9.04335 | 12° | 9km/h | 20250m | -13.0m/s | -52.9°C | 3.8% | 56.0hPa | 2.5V | 00:00:00 | 02:11:20 | 00:00:00 | |
| DL1XH1-15 | 2026-09-04 00:30:49 | 53.43098 | 9.04320 | 56° | 18km/h | 20331m | -14.5m/s | -53.5°C | 4% | 55.4hPa | 2.5V | 08:20:54 | 02:11:14 | 00:00:00 | |
| DO2JMG | 2026-09-04 00:30:47 | 53.43105 | 9.04332 | 22° | 9km/h | 20288m | -12.5m/s | -53.2°C | 0.6% | 55.8hPa | 2.6V | 08:21:14 | 02:11:17 | 00:00:00 | |
| DL1XH-west | 2026-09-04 00:30:45 | 53.43101 | 9.04326 | 49° | 15km/h | 20316m | -16m/s | -53.4°C | 0.7% | 55.5hPa | 2.5V | 08:21:14 | 02:11:15 | 00:00:00 | |
| HSKMA3-T | 2026-09-04 00:30:43 | 53.43095 | 9.04314 | 54° | 20km/h | 20344m | -10m/s | -53.5°C | 0.8% | 55.3hPa | 2.5V | 08:21:14 | 02:11:13 | 00:00:00 | |
| BIOWL1-15 | 2026-09-04 00:30:42 | 53.43085 | 9.04289 | 56° | 26km/h | 20370m | -5.4m/s | -53.7°C | 0.8% | 55hPa | 2.5V | 08:21:14 | 02:11:10 | 00:00:00 | |
| DL1NUX | 2026-09-04 00:30:41 | 53.43085 | 9.04289 | 56° | 26km/h | 20370m | -5.4m/s | -53.7°C | 4.2% | 55hPa | 2.5V | 08:20:58 | 02:11:10 | 00:00:00 | |
| DB0DAN | 2026-09-04 00:30:40 | 53.43085 | 9.04289 | 56° | 24km/h | 20370m | -5.4m/s | -53.7°C | 1.2% | 55.03hPa | 2.5V | 00:00:00 | 00:00:00 | 00:00:00 | |
| AA1-15 | 2026-09-04 00:30:39 | 53.43081 | 9.04280 | 60° | 26km/h | 20378m | -10.6m/s | -53.7°C | 0.8% | 55hPa | 2.5V | 08:21:14 | 02:11:09 | 00:00:00 | |
| DL1XH1-15 | 2026-09-04 00:30:39 | 53.43069 | 9.04216 | 85° | 27km/h | 20448m | -10.1m/s | -53.9°C | 4.2% | 54.4hPa | 2.5V | 08:21:05 | 02:11:03 | 00:00:00 | |
| DM0DOS-11 | 2026-09-04 00:30:38 | 53.43071 | 9.04239 | 75° | 27km/h | 20427m | -12m/s | -53.9°C | 4.3% | 54.6hPa | 2.6V | 08:21:03 | 02:11:05 | 00:00:00 | |
| DO2JMG | 2026-09-04 00:30:37 | 53.43076 | 9.04260 | 68° | 26km/h | 20403m | -11.2m/s | -53.9°C | 0.8% | 54.8hPa | 2.5V | 08:21:14 | 02:11:07 | 00:00:00 | |
| HSKMA3-T | 2026-09-04 00:30:34 | 53.43069 | 9.04216 | 86° | 27km/h | 20448m | -10.1m/s | -53.9°C | 0.8% | 54.4hPa | 2.5V | 08:21:14 | 02:11:03 | 00:00:00 | |
| DL1XH-15 | 2026-09-04 00:30:31 | 53.43070 | 9.04179 | 98° | 31km/h | 20483m | -11.1m/s | -53.7°C | 4.1% | 54.1hPa | 2.6V | 08:21:08 | 02:11:00 | 00:00:00 | |
| BIOWL1-15 | 2026-09-04 00:30:31 | 53.43084 | 9.04055 | 126° | 15km/h | 20622m | -12.9m/s | -53.7°C | 0.8% | 52.9hPa | 2.6V | 08:22:05 | 02:10:48 | 00:00:00 | |
| AA1-15 | 2026-09-04 00:30:28 | 53.43072 | 9.04154 | 96° | 29km/h | 20507m | -16.7m/s | -53.5°C | 0.7% | 53.9hPa | 2.5V | 08:21:14 | 02:10:58 | 00:00:00 | |
| DO2JMG | 2026-09-04 00:30:27 | 53.43073 | 9.04141 | 97° | 29km/h | 20523m | -17.2m/s | -53.6°C | 0.7% | 53.8hPa | 2.5V | 08:21:14 | 02:10:57 | 00:00:00 | |
| DB0DAN | 2026-09-04 00:30:25 | 53.43075 | 9.04116 | 96° | 27km/h | 20553m | -12.2m/s | -53.6°C | 1.2% | 53.51hPa | 2.5V | 00:00:00 | 00:00:00 | 00:00:00 | |
| DL1XH-west | 2026-09-04 00:30:23 | 53.43076 | 9.04094 | 97° | 24km/h | 20577m | -10.6m/s | -53.6°C | 0.8% | 53.3hPa | 2.6V | 08:22:05 | 02:10:53 | 00:00:00 | |
| DL1XH1-15 | 2026-09-04 00:30:23 | 53.43076 | 9.04094 | 96° | 24km/h | 20577m | -10.6m/s | -53.6°C | 4.2% | 53.3hPa | 2.6V | 08:21:15 | 02:10:53 | 00:00:00 | |
| HSKMA3-T | 2026-09-04 00:30:22 | 53.43077 | 9.04084 | 99° | 22km/h | 20587m | -10m/s | -53.6°C | 0.7% | 53.2hPa | 2.5V | 08:22:05 | 02:10:52 | 00:00:00 | |
| DF8AY | 2026-09-04 00:30:21 | 53.43078 | 9.04075 | 105° | 20km/h | 20597m | -10.3m/s | -53.6°C | 0.8% | 53.1hPa | 2.5V | 08:22:56 | 02:10:51 | 00:00:00 | |
| AA1-15 | 2026-09-04 00:30:18 | 53.43086 | 9.04050 | 132° | 16km/h | 20635m | -13.8m/s | -53.8°C | 0.8% | 52.8hPa | 2.6V | 08:22:05 | 02:10:47 | 00:00:00 | |
| DO2JMG | 2026-09-04 00:30:16 | 53.43089 | 9.04045 | 140° | 15km/h | 20647m | -10.4m/s | -53.8°C | 0.8% | 52.7hPa | 2.5V | 08:22:05 | 02:10:46 | 00:00:00 | |
| DL1XH-west | 2026-09-04 00:30:13 | 53.43098 | 9.04033 | 142° | 16km/h | 20687m | -13.8m/s | -53.8°C | 0.9% | 52.4hPa | 2.6V | 08:22:05 | 02:10:43 | 00:00:00 | |
| HSKMA3-T | 2026-09-04 00:30:11 | 53.43104 | 9.04025 | 139° | 15km/h | 20713m | -13.6m/s | -53.8°C | 0.9% | 52.2hPa | 2.5V | 08:22:05 | 02:10:41 | 00:00:00 | |
| DF8AY | 2026-09-04 00:30:10 | 53.43107 | 9.04020 | 133° | 16km/h | 20727m | -14.4m/s | -53.8°C | 0.9% | 52.1hPa | 2.5V | 08:22:56 | 02:10:40 | 00:00:00 | |
| AA1-15 | 2026-09-04 00:30:07 | 53.43116 | 9.03994 | 104° | 20km/h | 20782m | -12m/s | -53.7°C | 0.9% | 51.6hPa | 2.6V | 08:22:05 | 02:10:36 | 00:00:00 | |
| DL1XH1-15 | 2026-09-04 00:30:07 | 53.43117 | 9.03966 | 87° | 24km/h | 20816m | -11.8m/s | -53.7°C | 4.2% | 51.3hPa | 2.5V | 08:21:35 | 02:10:33 | 00:00:00 | |
| DO2JMG | 2026-09-04 00:30:06 | 53.43117 | 9.03985 | 99° | 22km/h | 20793m | -10.9m/s | -53.7°C | 0.9% | 51.5hPa | 2.5V | 08:22:05 | 02:10:35 | 00:00:00 | |
| DL1XH-west | 2026-09-04 00:30:02 | 53.43116 | 9.03956 | 79° | 24km/h | 20829m | -15.1m/s | -53.7°C | 0.8% | 51.3hPa | 2.5V | 08:22:05 | 02:10:32 | 00:00:00 | |
| BIOWL1-15 | 2026-09-04 00:30:02 | 53.43115 | 9.03946 | 76° | 24km/h | 20843m | -13.2m/s | -53.6°C | 0.8% | 51.1hPa | 2.6V | 08:22:05 | 02:10:31 | 00:00:00 | |
| HSKMA3-T | 2026-09-04 00:30:00 | 53.43113 | 9.03935 | 76° | 26km/h | 20857m | -14.3m/s | -53.5°C | 0.8% | 51hPa | 2.6V | 08:22:05 | 02:10:30 | 00:00:00 | |
| DF8AY | 2026-09-04 00:29:58 | 53.43110 | 9.03913 | 75° | 29km/h | 20886m | -14.2m/s | -53.4°C | 0.8% | 50.8hPa | 2.5V | 08:22:56 | 02:10:28 | 00:00:00 | |
| DM0DOS-11 | 2026-09-04 00:29:58 | 53.43105 | 9.03874 | 81° | 35km/h | 20926m | -13.4m/s | -53.3°C | 4.1% | 50.5hPa | 2.6V | 08:21:43 | 02:10:25 | 00:00:00 | |
| AA1-15 | 2026-09-04 00:29:56 | 53.43105 | 9.03874 | 81° | 35km/h | 20926m | -13.4m/s | -53.3°C | 0.7% | 50.5hPa | 2.6V | 08:22:05 | 02:10:25 | 00:00:00 | |
| DO2JMG | 2026-09-04 00:29:54 | 53.43104 | 9.03859 | 84° | 35km/h | 20939m | -12.9m/s | -53.2°C | 0.7% | 50.4hPa | 2.6V | 08:22:05 | 02:10:24 | 00:00:00 | |
| BIOWL1-15 | 2026-09-04 00:29:53 | 53.43102 | 9.03814 | 88° | 37km/h | 20982m | -13.2m/s | -53.3°C | 0.7% | 50.1hPa | 2.5V | 08:22:05 | 02:10:21 | 00:00:00 | |
| DL1XH-west | 2026-09-04 00:29:52 | 53.43102 | 9.03829 | 88° | 37km/h | 20967m | -14.5m/s | -53.2°C | 0.7% | 50.2hPa | 2.5V | 08:22:05 | 02:10:22 | 00:00:00 | |
| DL1XH-15 | 2026-09-04 00:29:51 | 53.43102 | 9.03799 | 90° | 35km/h | 20995m | -14.5m/s | -53.3°C | 4% | 50hPa | 2.5V | 08:21:48 | 02:10:20 | 00:00:00 | |
| HSKMA3-T | 2026-09-04 00:29:50 | 53.43101 | 9.03799 | 90° | 35km/h | 20995m | -14.5m/s | -53.3°C | 0.7% | 50hPa | 2.5V | 08:22:05 | 02:10:20 | 00:00:00 | |
| SONDE2-11 | 2026-09-04 00:29:50 | 53.43101 | 9.03784 | 90° | 35km/h | 21009m | -13.5m/s | -53.4°C | 1.2% | 49.9hPa | 2.6V | 00:00:00 | 00:00:00 | 00:00:00 | |
| DF8AY | 2026-09-04 00:29:47 | 53.43101 | 9.03711 | 88° | 33km/h | 21067m | -10.4m/s | -53.3°C | 0.8% | 49.4hPa | 2.6V | 08:22:56 | 02:10:14 | 00:00:00 | |
| AA1-15 | 2026-09-04 00:29:46 | 53.43101 | 9.03725 | 88° | 33km/h | 21056m | -10.4m/s | -53.3°C | 0.8% | 49.5hPa | 2.5V | 08:22:05 | 02:10:15 | 00:00:00 | |
| DM0DOS-11 | 2026-09-04 00:29:46 | 53.43101 | 9.03725 | 88° | 33km/h | 21056m | -10.3m/s | -53.3°C | 4.1% | 49.5hPa | 2.5V | 08:21:53 | 02:10:15 | 00:00:00 | |
| DO2JMG | 2026-09-04 00:29:43 | 53.43100 | 9.03697 | 86° | 33km/h | 21076m | -9.2m/s | -53.4°C | 0.8% | 49.3hPa | 2.6V | 08:22:05 | 02:10:13 | 00:00:00 | |
| DL1XH-west | 2026-09-04 00:29:42 | 53.43100 | 9.03683 | 88° | 33km/h | 21083m | -4.5m/s | -53.4°C | 0.9% | 49.2hPa | 2.5V | 08:22:05 | 02:10:12 | 00:00:00 | |
| DB0DAN | 2026-09-04 00:29:40 | 53.43099 | 9.03656 | 89° | 29km/h | 21097m | -7.3m/s | -53.4°C | 1.2% | 49.13hPa | 2.5V | 00:00:00 | 00:00:00 | 00:00:00 | |
| BIOWL1-15 | 2026-09-04 00:29:39 | 53.43099 | 9.03631 | 90° | 27km/h | 21115m | -10.7m/s | -53.3°C | 0.8% | 49hPa | 2.6V | 08:22:05 | 02:10:08 | 00:00:00 | |
| HSKMA3-T | 2026-09-04 00:29:39 | 53.43099 | 9.03643 | 87° | 29km/h | 21106m | -9.2m/s | -53.4°C | 0.8% | 49.1hPa | 2.5V | 08:22:05 | 02:10:09 | 00:00:00 | |
| DF8AY | 2026-09-04 00:29:37 | 53.43100 | 9.03610 | 98° | 24km/h | 21142m | -13.2m/s | -53.3°C | 0.7% | 48.8hPa | 2.5V | 08:22:56 | 02:10:06 | 00:00:00 | |
| DL1XH1-15 | 2026-09-04 00:29:37 | 53.43103 | 9.03583 | 102° | 22km/h | 21178m | -8.6m/s | -53.4°C | 4.1% | 48.5hPa | 2.5V | 08:22:05 | 02:10:03 | 00:00:00 | |
| AA1-15 | 2026-09-04 00:29:34 | 53.43102 | 9.03592 | 100° | 22km/h | 21169m | -11.4m/s | -53.4°C | 0.8% | 48.6hPa | 2.5V | 08:22:05 | 02:10:04 | 00:00:00 | |
| DO2JMG | 2026-09-04 00:29:32 | 53.43104 | 9.03574 | 99° | 22km/h | 21189m | -12.6m/s | -53.4°C | 0.8% | 48.4hPa | 2.6V | 08:22:56 | 02:10:02 | 00:00:00 | |
| BIOWL1-15 | 2026-09-04 00:29:31 | 53.43104 | 9.03526 | 79° | 26km/h | 21251m | -10.5m/s | -53.3°C | 0.7% | 48hPa | 2.5V | 08:23:47 | 02:09:57 | 00:00:00 | |
| DL1XH-west | 2026-09-04 00:29:31 | 53.43105 | 9.03565 | 93° | 22km/h | 21202m | -13.7m/s | -53.5°C | 0.8% | 48.4hPa | 2.6V | 08:22:56 | 02:10:01 | 00:00:00 | |
| HSKMA3-T | 2026-09-04 00:29:28 | 53.43105 | 9.03536 | 82° | 26km/h | 21240m | -12m/s | -53.3°C | 0.8% | 48.1hPa | 2.5V | 08:22:56 | 02:09:58 | 00:00:00 | |
| DF8AY | 2026-09-04 00:29:25 | 53.43100 | 9.03502 | 78° | 31km/h | 21272m | -11.5m/s | -53.3°C | 0.8% | 47.9hPa | 2.6V | 08:22:56 | 02:09:55 | 00:00:00 | |
| DB0DAN | 2026-09-04 00:29:25 | 53.43100 | 9.03502 | 78° | 29km/h | 21272m | -11.5m/s | -53.3°C | 1.2% | 47.85hPa | 2.6V | 00:00:00 | 00:00:00 | 00:00:00 | |
| DL1XH-15 | 2026-09-04 00:29:25 | 53.43096 | 9.03432 | 91° | 35km/h | 21322m | -10.5m/s | -53.5°C | 4.2% | 47.4hPa | 2.6V | 08:22:18 | 02:09:50 | 00:00:00 | |
| DL1XH1-15 | 2026-09-04 00:29:24 | 53.43097 | 9.03475 | 81° | 33km/h | 21293m | -10.2m/s | -53.4°C | 4.2% | 47.7hPa | 2.5V | 08:22:15 | 02:09:53 | 00:00:00 | |
| AA1-15 | 2026-09-04 00:29:23 | 53.43097 | 9.03475 | 82° | 33km/h | 21294m | -10.2m/s | -53.4°C | 0.8% | 47.7hPa | 2.5V | 08:22:56 | 02:09:53 | 00:00:00 | |
| DO2JMG | 2026-09-04 00:29:21 | 53.43096 | 9.03447 | 89° | 35km/h | 21312m | -8.8m/s | -53.5°C | 0.9% | 47.5hPa | 2.6V | 08:22:56 | 02:09:51 | 00:00:00 | |
| DL1XH-west | 2026-09-04 00:29:20 | 53.43096 | 9.03432 | 92° | 35km/h | 21322m | -10.5m/s | -53.5°C | 0.8% | 47.4hPa | 2.6V | 08:22:56 | 02:09:50 | 00:00:00 | |
| BIOWL1-15 | 2026-09-04 00:29:18 | 53.43103 | 9.03366 | 108° | 31km/h | 21380m | -12.2m/s | -53.5°C | 0.8% | 47.1hPa | 2.6V | 08:23:47 | 02:09:45 | 00:00:00 | |
| DL1XH1-15 | 2026-09-04 00:29:18 | 53.43108 | 9.03342 | 111° | 29km/h | 21403m | -11.5m/s | -53.3°C | 4.2% | 46.9hPa | 2.5V | 08:22:25 | 02:09:43 | 00:00:00 | |
| HSKMA3-T | 2026-09-04 00:29:18 | 53.43099 | 9.03392 | 103° | 31km/h | 21357m | -12.2m/s | -53.6°C | 0.9% | 47.2hPa | 2.5V | 08:22:56 | 02:09:47 | 00:00:00 | |
| DM0DOS-11 | 2026-09-04 00:29:16 | 53.43103 | 9.03366 | 107° | 31km/h | 21380m | -12.2m/s | -53.5°C | 4.2% | 47hPa | 2.6V | 08:22:23 | 02:09:45 | 00:00:00 | |
| DF8AY | 2026-09-04 00:29:14 | 53.43106 | 9.03354 | 109° | 31km/h | 21392m | -11.1m/s | -53.4°C | 0.9% | 47hPa | 2.6V | 08:22:56 | 02:09:44 | 00:00:00 | |
| AA1-15 | 2026-09-04 00:29:12 | 53.43111 | 9.03330 | 106° | 29km/h | 21416m | -15.3m/s | -53°C | 0.7% | 46.8hPa | 2.5V | 08:22:56 | 02:09:42 | 00:00:00 | |
| DO2JMG | 2026-09-04 00:29:11 | 53.43113 | 9.03318 | 109° | 27km/h | 21430m | -12.9m/s | -52.7°C | 0.7% | 46.7hPa | 2.5V | 08:22:56 | 02:09:41 | 00:00:00 | |
| DM0DOS-11 | 2026-09-04 00:29:11 | 53.43119 | 9.03263 | 99° | 15km/h | 21510m | -14.7m/s | -52.6°C | 3.9% | 46.1hPa | 2.5V | 08:22:33 | 02:09:35 | 00:00:00 | |
| DB0DAN | 2026-09-04 00:29:10 | 53.43115 | 9.03307 | 105° | 26km/h | 21444m | -13.5m/s | -52.6°C | 1.1% | 46.58hPa | 2.5V | 00:00:00 | 00:00:00 | 00:00:00 | |
| DL1XH-15 | 2026-09-04 00:29:10 | 53.43115 | 9.03307 | 104° | 27km/h | 21444m | -13.5m/s | -52.6°C | 3.9% | 46.6hPa | 2.5V | 08:22:28 | 02:09:40 | 00:00:00 | |
| DL1XH-west | 2026-09-04 00:29:10 | 53.43115 | 9.03307 | 105° | 27km/h | 21444m | -13.5m/s | -52.6°C | 0.7% | 46.6hPa | 2.5V | 08:22:56 | 02:09:40 | 00:00:00 | |
| HSKMA3-T | 2026-09-04 00:29:07 | 53.43118 | 9.03277 | 93° | 18km/h | 21484m | -13.1m/s | -52.6°C | 0.7% | 46.3hPa | 2.5V | 08:22:56 | 02:09:37 | 00:00:00 | |
| DL4XJ-10 | 2026-09-04 00:29:06 | 53.43118 | 9.03270 | 97° | 20km/h | 21497m | -12.4m/s | -52.1°C | 0% | 0hPa | 2.5V | 00:00:00 | 00:00:00 | 00:00:00 | |
| DL1XH-15 | 2026-09-04 00:29:05 | 53.43122 | 9.03235 | 96° | 15km/h | 21573m | -13.9m/s | -52.8°C | 4% | 45.7hPa | 2.5V | 08:22:38 | 02:09:30 | 00:00:00 | |
| DF8AY | 2026-09-04 00:29:04 | 53.43120 | 9.03258 | 104° | 15km/h | 21524m | -12.8m/s | -52.7°C | 0.7% | 46hPa | 2.5V | 08:22:56 | 02:09:34 | 00:00:00 | |
| DL1XH1-15 | 2026-09-04 00:29:04 | 53.43120 | 9.03252 | 98° | 13km/h | 21536m | -12.3m/s | -52.7°C | 4% | 45.9hPa | 2.6V | 08:22:35 | 02:09:33 | 00:00:00 | |
| AA1-15 | 2026-09-04 00:29:02 | 53.43121 | 9.03247 | 98° | 13km/h | 21548m | -11.8m/s | -52.8°C | 0.8% | 45.8hPa | 2.6V | 08:22:56 | 02:09:32 | 00:00:00 | |
| DO2JMG | 2026-09-04 00:29:01 | 53.43121 | 9.03242 | 105° | 15km/h | 21560m | -11.5m/s | -52.8°C | 0.7% | 45.8hPa | 2.5V | 08:22:56 | 02:09:31 | 00:00:00 | |
| DL1XH-west | 2026-09-04 00:28:59 | 53.43123 | 9.03229 | 100° | 16km/h | 21587m | -14.8m/s | -52.7°C | 0.7% | 45.6hPa | 2.5V | 08:22:56 | 02:09:29 | 00:00:00 | |
| HSKMA3-T | 2026-09-04 00:28:57 | 53.43124 | 9.03212 | 97° | 22km/h | 21613m | -10.6m/s | -52.8°C | 0.7% | 45.4hPa | 2.6V | 08:22:56 | 02:09:27 | 00:00:00 | |
| DB0DAN | 2026-09-04 00:28:55 | 53.43125 | 9.03192 | 96° | 26km/h | 21638m | -12.9m/s | -52.9°C | 1.2% | 45.21hPa | 2.5V | 00:00:00 | 00:00:00 | 00:00:00 | |
| DF8AY | 2026-09-04 00:28:54 | 53.43128 | 9.03170 | 101° | 26km/h | 21664m | -13.7m/s | -52.9°C | 0.8% | 45hPa | 2.5V | 08:22:56 | 02:09:23 | 00:00:00 | |
| AA1-15 | 2026-09-04 00:28:52 | 53.43129 | 9.03160 | 101° | 26km/h | 21677m | -12.7m/s | -52.9°C | 0.7% | 44.9hPa | 2.6V | 08:22:56 | 02:09:22 | 00:00:00 | |
| DO2JMG | 2026-09-04 00:28:51 | 53.43130 | 9.03150 | 108° | 22km/h | 21691m | -15m/s | -52.8°C | 0.7% | 44.9hPa | 2.6V | 08:22:56 | 02:09:21 | 00:00:00 | |
| DL1XH-15 | 2026-09-04 00:28:50 | 53.43132 | 9.03141 | 110° | 20km/h | 21706m | -15.2m/s | -52.9°C | 3.9% | 44.7hPa | 2.5V | 08:22:48 | 02:09:20 | 00:00:00 | |
| DL1XH-west | 2026-09-04 00:28:49 | 53.43133 | 9.03133 | 109° | 20km/h | 21721m | -14.8m/s | -52.9°C | 0.7% | 44.6hPa | 2.5V | 08:22:56 | 02:09:19 | 00:00:00 | |
| DJ2DS-15 | 2026-09-04 00:28:49 | 53.43133 | 9.03133 | 109° | 22km/h | 21721m | -14.7m/s | -52.8°C | 4.0% | 44.6hPa | 2.5V | 00:00:00 | 02:09:19 | 00:00:00 | |
| DL1XH1-15 | 2026-09-04 00:28:48 | 53.43139 | 9.03083 | 94° | 24km/h | 21802m | -13m/s | -53°C | 4% | 44.1hPa | 2.5V | 08:22:55 | 02:09:13 | 00:00:00 | |
| HSKMA3-T | 2026-09-04 00:28:47 | 53.43136 | 9.03118 | 103° | 20km/h | 21750m | -12.5m/s | -52.9°C | 0.8% | 44.4hPa | 2.5V | 08:22:56 | 02:09:17 | 00:00:00 | |
| EDDB2-11 | 2026-09-04 00:28:46 | 53.43138 | 9.03101 | 97° | 20km/h | 21777m | -13.4m/s | -53.0°C | 1.1% | 44.3hPa | 2.5V | 00:00:00 | 00:00:00 | 00:00:00 | |
| DF8AY | 2026-09-04 00:28:43 | 53.43139 | 9.03083 | 95° | 24km/h | 21802m | -13m/s | -53°C | 0.7% | 44.1hPa | 2.5V | 08:22:56 | 02:09:13 | 00:00:00 | |
| DL4BBY-15 | 2026-09-04 00:28:43 | 53.43139 | 9.03082 | 95° | 29km/h | 21803m | -13.0m/s | -52.4°C | 0% | 0hPa | 2.6V | 00:00:00 | 00:00:00 | 00:00:00 | |
| DF4FW | 2026-09-04 00:28:42 | 53.43139 | 9.03082 | 96° | 24km/h | 21802m | -13.0m/s | -53.0°C | 1.2% | 44.1hPa | 2.6V | 08:22:00 | 00:00:00 | 00:00:00 | |
| DL1NUX | 2026-09-04 00:28:41 | 53.43141 | 9.03044 | 94° | 22km/h | 21848m | -8.7m/s | -52.8°C | 4.1% | 43.8hPa | 2.6V | 08:22:59 | 02:09:09 | 00:00:00 | |
| AA1-15 | 2026-09-04 00:28:41 | 53.43140 | 9.03063 | 95° | 24km/h | 21826m | -11.7m/s | -52.9°C | 0.8% | 43.9hPa | 2.5V | 08:23:47 | 02:09:11 | 00:00:00 | |
| DB0DAN | 2026-09-04 00:28:40 | 53.43140 | 9.03053 | 94° | 20km/h | 21838m | -10.9m/s | -52.8°C | 1.2% | 43.82hPa | 2.6V | 00:00:00 | 00:00:00 | 00:00:00 | |
| DO2JMG | 2026-09-04 00:28:40 | 53.43140 | 9.03053 | 94° | 22km/h | 21838m | -10.9m/s | -52.8°C | 0.8% | 43.8hPa | 2.6V | 08:23:47 | 02:09:10 | 00:00:00 | |
| DL1XH-west | 2026-09-04 00:28:38 | 53.43141 | 9.03035 | 88° | 20km/h | 21857m | -8.8m/s | -52.8°C | 0.7% | 43.7hPa | 2.5V | 08:23:47 | 02:09:08 | 00:00:00 | |
| DO2SHX-10 | 2026-09-04 00:28:38 | 53.43141 | 9.03035 | 89° | 20km/h | 21857m | -8.8m/s | -52.8°C | 4.0% | 43.7hPa | 2.5V | 00:00:00 | 02:09:08 | 00:00:00 | |
| DL1XH1-15 | 2026-09-04 00:28:37 | 53.43142 | 9.02992 | 99° | 26km/h | 21915m | -11.7m/s | -52.7°C | 4% | 43.3hPa | 2.5V | 08:23:05 | 02:09:03 | 00:00:00 | |
| HSKMA3-T | 2026-09-04 00:28:36 | 53.43141 | 9.03019 | 90° | 20km/h | 21877m | -11.2m/s | -52.9°C | 0.7% | 43.6hPa | 2.5V | 08:23:47 | 02:09:06 | 00:00:00 | |
| DB0UT-7 | 2026-09-04 00:28:36 | 53.43140 | 9.03019 | 90° | 31km/h | 21877m | -11.1m/s | -52.8°C | 4.0% | 43.5hPa | 2.5V | 00:00:00 | 02:09:06 | 00:00:00 | |
| DO2SHX-10 | 2026-09-04 00:28:35 | 53.43141 | 9.03010 | 92° | 22km/h | 21890m | -12.7m/s | -52.8°C | 4.0% | 43.4hPa | 2.5V | 00:00:00 | 02:09:05 | 00:00:00 | |
| DL1XH-15 | 2026-09-04 00:28:34 | 53.43148 | 9.02955 | 109° | 35km/h | 21951m | -12.6m/s | -52.9°C | 4% | 43.1hPa | 2.5V | 08:23:08 | 02:09:00 | 00:00:00 | |
| DF8AY | 2026-09-04 00:28:33 | 53.43142 | 9.02992 | 100° | 26km/h | 21916m | -11.7m/s | -52.7°C | 0.7% | 43.3hPa | 2.5V | 08:23:47 | 02:09:03 | 00:00:00 | |
| DO2SHX-10 | 2026-09-04 00:28:32 | 53.43143 | 9.02981 | 102° | 31km/h | 21928m | -11.7m/s | -52.7°C | 4.0% | 43.2hPa | 2.5V | 00:00:00 | 02:09:02 | 00:00:00 | |
| DM0DOS-11 | 2026-09-04 00:28:31 | 53.43166 | 9.02884 | 116° | 35km/h | 22018m | -11.2m/s | -53.3°C | 4.1% | 42.6hPa | 2.5V | 08:23:13 | 02:08:55 | 00:00:00 | |
| BIOWL1-15 | 2026-09-04 00:28:30 | 53.43148 | 9.02955 | 110° | 35km/h | 21951m | -12.6m/s | -52.9°C | 0.8% | 43.1hPa | 2.5V | 08:23:47 | 02:09:00 | 00:00:00 | |
| DL1XH-west | 2026-09-04 00:28:27 | 53.43158 | 9.02911 | 114° | 37km/h | 21991m | -15.1m/s | -53.2°C | 0.8% | 42.8hPa | 2.5V | 08:23:47 | 02:08:57 | 00:00:00 | |
| HSKMA3-T | 2026-09-04 00:28:25 | 53.43166 | 9.02884 | 117° | 35km/h | 22018m | -11.2m/s | -53.3°C | 0.8% | 42.6hPa | 2.5V | 08:23:47 | 02:08:55 | 00:00:00 | |
| DF8AY | 2026-09-04 00:28:23 | 53.43173 | 9.02861 | 114° | 27km/h | 22044m | -13.4m/s | -53.4°C | 0.8% | 42.4hPa | 2.6V | 08:23:47 | 02:08:53 | 00:00:00 | |
| DO2SHX-10 | 2026-09-04 00:28:23 | 53.43173 | 9.02861 | 115° | 27km/h | 22044m | -13.3m/s | -53.4°C | 4.2% | 42.4hPa | 2.6V | 00:00:00 | 02:08:53 | 00:00:00 | |
| DL1NUX | 2026-09-04 00:28:21 | 53.43187 | 9.02819 | 124° | 31km/h | 22098m | -13.4m/s | -53.3°C | 4.3% | 42.1hPa | 2.5V | 08:23:19 | 02:08:49 | 00:00:00 | |
| DO2JMG | 2026-09-04 00:28:20 | 53.43183 | 9.02830 | 122° | 29km/h | 22084m | -13.7m/s | -53.3°C | 0.9% | 42.2hPa | 2.5V | 08:23:47 | 02:08:50 | 00:00:00 | |
| AA1-15 | 2026-09-04 00:28:19 | 53.43187 | 9.02819 | 124° | 31km/h | 22098m | -13.4m/s | -53.3°C | 0.9% | 42.1hPa | 2.5V | 08:23:47 | 02:08:49 | 00:00:00 | |
| DM0DOS-11 | 2026-09-04 00:28:19 | 53.43211 | 9.02771 | 134° | 38km/h | 22142m | -8.9m/s | -53.1°C | 4.3% | 41.8hPa | 2.5V | 08:23:23 | 02:08:45 | 00:00:00 | |
| DL1XH-west | 2026-09-04 00:28:16 | 53.43204 | 9.02783 | 131° | 38km/h | 22132m | -10.5m/s | -53.2°C | 0.9% | 41.8hPa | 2.6V | 08:23:47 | 02:08:46 | 00:00:00 | |
| HSKMA3-T | 2026-09-04 00:28:14 | 53.43218 | 9.02759 | 137° | 38km/h | 22150m | -6.1m/s | -53.1°C | 0.9% | 41.7hPa | 2.5V | 08:23:47 | 02:08:44 | 00:00:00 | |
| DF8AY | 2026-09-04 00:28:13 | 53.43261 | 9.02722 | 164° | 18km/h | 22216m | -12.2m/s | -52.5°C | 0.8% | 41.3hPa | 2.5V | 08:23:47 | 02:08:37 | 00:00:00 | |
| DL1NUX | 2026-09-04 00:28:11 | 53.43251 | 9.02726 | 168° | 22km/h | 22192m | -13.9m/s | -52.8°C | 4.2% | 41.5hPa | 2.5V | 08:23:29 | 02:08:39 | 00:00:00 | |
| DM0DOS-11 | 2026-09-04 00:28:11 | 53.43270 | 9.02717 | 155° | 18km/h | 22238m | -9.5m/s | -52.2°C | 4% | 41.2hPa | 2.6V | 08:23:33 | 02:08:35 | 00:00:00 | |
| DB0DAN | 2026-09-04 00:28:10 | 53.43245 | 9.02729 | 161° | 22km/h | 22178m | -14.4m/s | -52.9°C | 1.2% | 41.58hPa | 2.5V | 00:00:00 | 00:00:00 | 00:00:00 | |
| DO2JMG | 2026-09-04 00:28:09 | 53.43251 | 9.02726 | 168° | 22km/h | 22192m | -13.9m/s | -52.8°C | 0.8% | 41.5hPa | 2.5V | 08:23:47 | 02:08:39 | 00:00:00 | |
| AA1-15 | 2026-09-04 00:28:08 | 53.43256 | 9.02724 | 167° | 22km/h | 22204m | -11.2m/s | -52.7°C | 0.9% | 41.4hPa | 2.5V | 08:23:47 | 02:08:38 | 00:00:00 | |
| DK1YY | 2026-09-04 00:28:08 | 53.43265 | 9.02720 | 161° | 18km/h | 22228m | -11.1m/s | -52.3°C | 1.1% | 41.2hPa | 2.6V | 00:00:00 | 00:00:00 | 00:00:00 | |
| DB0UT-7 | 2026-09-04 00:28:06 | 53.43265 | 9.02720 | 162° | 13km/h | 22228m | -11.1m/s | -52.2°C | 4.0% | 41.2hPa | 2.6V | 00:00:00 | 00:00:00 | 00:00:00 | |
| DL1XH1-15 | 2026-09-04 00:28:05 | 53.43277 | 9.02710 | 144° | 15km/h | 22258m | -10.7m/s | -52.1°C | 3.9% | 41.1hPa | 2.5V | 08:23:35 | 02:08:33 | 00:00:00 | |
| DL1XH-west | 2026-09-04 00:28:05 | 53.43270 | 9.02717 | 156° | 18km/h | 22238m | -9.5m/s | -52.2°C | 0.7% | 41.2hPa | 2.6V | 08:23:47 | 02:08:35 | 00:00:00 | |
| HSKMA3-T | 2026-09-04 00:28:03 | 53.43277 | 9.02710 | 145° | 16km/h | 22258m | -10.7m/s | -52.1°C | 0.7% | 41.1hPa | 2.5V | 08:23:47 | 02:08:33 | 00:00:00 | |
| DF8AY | 2026-09-04 00:28:02 | 53.43280 | 9.02706 | 141° | 15km/h | 22270m | -12.2m/s | -52°C | 0.6% | 41hPa | 2.5V | 08:23:47 | 02:08:32 | 00:00:00 | |
| DL1XH-15 | 2026-09-04 00:28:01 | 53.43285 | 9.02698 | 126° | 11km/h | 22294m | -12.9m/s | -51.8°C | 3.7% | 40.8hPa | 2.6V | 08:23:38 | 02:08:30 | 00:00:00 | |
| DM0DOS-11 | 2026-09-04 00:28:01 | 53.43292 | 9.02682 | 136° | 9km/h | 22359m | -14.3m/s | -51.9°C | 3.8% | 40.4hPa | 2.5V | 08:23:43 | 02:08:25 | 00:00:00 | |
| DO2JMG | 2026-09-04 00:27:59 | 53.43286 | 9.02694 | 132° | 11km/h | 22308m | -14.2m/s | -51.7°C | 0.5% | 40.8hPa | 2.6V | 08:23:47 | 02:08:29 | 00:00:00 | |
| AA1-15 | 2026-09-04 00:27:58 | 53.43288 | 9.02691 | 129° | 9km/h | 22322m | -13.9m/s | -51.8°C | 0.6% | 40.6hPa | 2.5V | 08:23:47 | 02:08:28 | 00:00:00 | |
| DL1XH-west | 2026-09-04 00:27:55 | 53.43292 | 9.02682 | 136° | 9km/h | 22359m | -14.3m/s | -51.9°C | 0.6% | 40.4hPa | 2.5V | 08:23:47 | 02:08:25 | 00:00:00 | |
| HSKMA3-T | 2026-09-04 00:27:53 | 53.43296 | 9.02676 | 143° | 11km/h | 22380m | -8.8m/s | -52°C | 0.6% | 40.2hPa | 2.6V | 08:23:47 | 02:08:23 | 00:00:00 | |
| DF8AY | 2026-09-04 00:27:53 | 53.43319 | 9.02659 | 187° | 15km/h | 22467m | -12m/s | -52.1°C | 0.6% | 39.7hPa | 2.5V | 08:24:38 | 02:08:16 | 00:00:00 | |
| GOEST3-10 | 2026-09-04 00:27:51 | 53.43301 | 9.02669 | 148° | 16km/h | 22403m | -14.4m/s | -52.0°C | 3.8% | 40.1hPa | 2.5V | 00:00:00 | 00:00:00 | 00:00:00 | |
| DO2SHX-10 | 2026-09-04 00:27:50 | 53.43305 | 9.02665 | 151° | 16km/h | 22418m | -14.4m/s | -52.1°C | 3.8% | 40.0hPa | 2.5V | 00:00:00 | 02:08:20 | 00:00:00 | |
| DM0DOS-11 | 2026-09-04 00:27:49 | 53.43323 | 9.02660 | 192° | 13km/h | 22479m | -11.9m/s | -52.1°C | 3.9% | 39.7hPa | 2.5V | 08:23:53 | 02:08:15 | 00:00:00 | |
| DO2JMG | 2026-09-04 00:27:49 | 53.43309 | 9.02663 | 158° | 16km/h | 22431m | -13m/s | -52.2°C | 0.6% | 40hPa | 2.6V | 08:24:38 | 02:08:19 | 00:00:00 | |
| AA1-15 | 2026-09-04 00:27:47 | 53.43316 | 9.02659 | 175° | 15km/h | 22456m | -11.9m/s | -52.1°C | 0.7% | 39.8hPa | 2.5V | 08:24:38 | 02:08:17 | 00:00:00 | |
| SONDE2-11 | 2026-09-04 00:27:45 | 53.43323 | 9.02660 | 192° | 13km/h | 22480m | -11.9m/s | -52.1°C | 1.1% | 39.7hPa | 2.5V | 00:00:00 | 00:00:00 | 00:00:00 | |
| DL1XH-west | 2026-09-04 00:27:44 | 53.43326 | 9.02662 | 202° | 13km/h | 22490m | -9.4m/s | -52.2°C | 0.7% | 39.6hPa | 2.5V | 08:24:38 | 02:08:14 | 00:00:00 | |
| BIOWL1-15 | 2026-09-04 00:27:43 | 53.43328 | 9.02664 | 204° | 11km/h | 22499m | -8.7m/s | -52.3°C | 0.7% | 39.5hPa | 2.6V | 08:24:38 | 02:08:13 | 00:00:00 | |
| HSKMA3-T | 2026-09-04 00:27:42 | 53.43331 | 9.02665 | 195° | 9km/h | 22509m | -9.2m/s | -52.3°C | 0.7% | 39.5hPa | 2.6V | 08:24:38 | 02:08:12 | 00:00:00 | |
| DL1XH-15 | 2026-09-04 00:27:41 | 53.43335 | 9.02665 | 161° | 7km/h | 22527m | -9.4m/s | -52.3°C | 4% | 39.4hPa | 2.5V | 08:23:58 | 02:08:10 | 00:00:00 | |
| DB0DAN | 2026-09-04 00:27:40 | 53.43335 | 9.02665 | 161° | 7km/h | 22527m | -9.4m/s | -52.3°C | 1.1% | 39.38hPa | 2.5V | 00:00:00 | 00:00:00 | 00:00:00 | |
| DM0DOS-11 | 2026-09-04 00:27:40 | 53.43344 | 9.02653 | 138° | 7km/h | 22593m | -14.3m/s | -52.2°C | 3.9% | 39hPa | 2.5V | 08:24:03 | 02:08:05 | 00:00:00 | |
| DO2JMG | 2026-09-04 00:27:38 | 53.43339 | 9.02661 | 134° | 11km/h | 22551m | -12.6m/s | -52.3°C | 0.7% | 39.2hPa | 2.5V | 08:24:38 | 02:08:08 | 00:00:00 | |
| AA1-15 | 2026-09-04 00:27:37 | 53.43340 | 9.02658 | 134° | 9km/h | 22564m | -14.1m/s | -52.3°C | 0.6% | 39.2hPa | 2.6V | 08:24:38 | 02:08:07 | 00:00:00 | |
| DF8AY | 2026-09-04 00:27:36 | 53.43344 | 9.02653 | 139° | 7km/h | 22593m | -14.3m/s | -52.2°C | 0.7% | 39hPa | 2.5V | 08:24:38 | 02:08:05 | 00:00:00 | |
| DL1XH-15 | 2026-09-04 00:27:35 | 53.43348 | 9.02652 | 285° | 4km/h | 22656m | -11.7m/s | -51.9°C | 3.8% | 38.6hPa | 2.5V | 08:24:08 | 02:08:00 | 00:00:00 | |
| DL1XH-west | 2026-09-04 00:27:34 | 53.43345 | 9.02651 | 162° | 5km/h | 22608m | -14.5m/s | -52.3°C | 0.7% | 38.9hPa | 2.5V | 08:24:38 | 02:08:04 | 00:00:00 | |
| DL1XH1-15 | 2026-09-04 00:27:34 | 53.43346 | 9.02651 | 160° | 5km/h | 22621m | -11.6m/s | -52.3°C | 3.9% | 38.8hPa | 2.5V | 08:24:05 | 02:08:03 | 00:00:00 | |
| BIOWL1-15 | 2026-09-04 00:27:32 | 53.43344 | 9.02657 | 349° | 9km/h | 22693m | -12.2m/s | -51.9°C | 0.6% | 38.4hPa | 2.5V | 08:24:38 | 02:07:57 | 00:00:00 | |
| HSKMA3-T | 2026-09-04 00:27:32 | 53.43347 | 9.02650 | 201° | 4km/h | 22633m | -11.8m/s | -52.2°C | 0.6% | 38.8hPa | 2.6V | 08:24:38 | 02:08:02 | 00:00:00 | |
| AU51GT2 | 2026-09-04 00:27:32 | 53.43348 | 9.02651 | 245° | 2km/h | 22645m | -11.5m/s | -52.1°C | 1.1% | 38.7hPa | 2.5V | 00:00:00 | 00:00:00 | 00:00:00 | |
| GOEST3-10 | 2026-09-04 00:27:31 | 53.43347 | 9.02651 | 246° | 5km/h | 22645m | -11.5m/s | -52.0°C | 3.8% | 38.6hPa | 2.5V | 00:00:00 | 00:00:00 | 00:00:00 | |
| BUE01 | 2026-09-04 00:27:30 | 53.43347 | 9.02654 | 308° | 4km/h | 22667m | -10.5m/s | -51.9°C | 1.1% | 38.6hPa | 2.5V | 00:00:00 | 00:00:00 | 00:00:00 | |
| DO2SHX-10 | 2026-09-04 00:27:29 | 53.43347 | 9.02654 | 309° | 7km/h | 22667m | -10.5m/s | -51.8°C | 3.8% | 38.5hPa | 2.5V | 00:00:00 | 02:07:59 | 00:00:00 | |
| DL1XH1-15 | 2026-09-04 00:27:28 | 53.43337 | 9.02652 | 79° | 9km/h | 22738m | -14.3m/s | -52.2°C | 3.9% | 38.1hPa | 2.5V | 08:24:15 | 02:07:53 | 00:00:00 | |
| DO2JMG | 2026-09-04 00:27:28 | 53.43346 | 9.02656 | 334° | 7km/h | 22679m | -14m/s | -51.8°C | 0.6% | 38.5hPa | 2.5V | 08:24:38 | 02:07:58 | 00:00:00 | |
| AA1-15 | 2026-09-04 00:27:26 | 53.43342 | 9.02657 | 356° | 7km/h | 22705m | -11.3m/s | -52°C | 0.6% | 38.3hPa | 2.6V | 08:24:38 | 02:07:56 | 00:00:00 | |
| DB0DAN | 2026-09-04 00:27:25 | 53.43340 | 9.02657 | 18° | 9km/h | 22716m | -11.4m/s | -52.1°C | 1.1% | 38.25hPa | 2.6V | 00:00:00 | 00:00:00 | 00:00:00 | |
| DL1XH-west | 2026-09-04 00:27:24 | 53.43338 | 9.02655 | 40° | 9km/h | 22726m | -9.5m/s | -52.1°C | 0.7% | 38.2hPa | 2.5V | 08:24:38 | 02:07:54 | 00:00:00 | |
| HSKMA3-T | 2026-09-04 00:27:22 | 53.43337 | 9.02647 | 94° | 13km/h | 22752m | -14.8m/s | -52.3°C | 0.7% | 38.1hPa | 2.5V | 08:24:38 | 02:07:52 | 00:00:00 | |
| DM0DOS-11 | 2026-09-04 00:27:21 | 53.43345 | 9.02612 | 124° | 11km/h | 22855m | -14.1m/s | -52.6°C | 3.9% | 37.5hPa | 2.5V | 08:24:23 | 02:07:45 | 00:00:00 | |
| DO2JMG | 2026-09-04 00:27:17 | 53.43343 | 9.02619 | 115° | 11km/h | 22823m | -18.5m/s | -52.5°C | 0.7% | 37.7hPa | 2.5V | 08:24:38 | 02:07:47 | 00:00:00 | |
| AA1-15 | 2026-09-04 00:27:16 | 53.43344 | 9.02615 | 121° | 11km/h | 22840m | -15.4m/s | -52.6°C | 0.7% | 37.5hPa | 2.5V | 08:24:38 | 02:07:46 | 00:00:00 | |
| GOEST3-10 | 2026-09-04 00:27:16 | 53.43344 | 9.02615 | 122° | 9km/h | 22840m | -15.4m/s | -52.5°C | 3.9% | 37.5hPa | 2.5V | 00:00:00 | 02:07:46 | 00:00:00 | |
| DL1XH-15 | 2026-09-04 00:27:15 | 53.43354 | 9.02596 | 140° | 15km/h | 22916m | -9.5m/s | -52.6°C | 4.1% | 37.1hPa | 2.5V | 08:24:28 | 02:07:40 | 00:00:00 | |
| DL1XH-west | 2026-09-04 00:27:14 | 53.43347 | 9.02608 | 130° | 9km/h | 22869m | -12.9m/s | -52.6°C | 0.7% | 37.4hPa | 2.6V | 08:24:38 | 02:07:44 | 00:00:00 | |
| HSKMA3-T | 2026-09-04 00:27:11 | 53.43352 | 9.02599 | 141° | 13km/h | 22905m | -12.4m/s | -52.6°C | 0.8% | 37.2hPa | 2.5V | 08:24:38 | 02:07:41 | 00:00:00 | |
| DF8AY | 2026-09-04 00:27:10 | 53.43354 | 9.02595 | 140° | 15km/h | 22916m | -9.5m/s | -52.6°C | 0.8% | 37.1hPa | 2.5V | 08:24:38 | 02:07:40 | 00:00:00 | |
| DM0DOS-11 | 2026-09-04 00:27:10 | 53.43371 | 9.02572 | 134° | 16km/h | 22960m | -11.2m/s | -52.8°C | 4.1% | 36.8hPa | 2.5V | 08:24:33 | 02:07:35 | 00:00:00 | |
| DL1XH1-15 | 2026-09-04 00:27:09 | 53.43376 | 9.02565 | 137° | 11km/h | 22985m | -12.1m/s | -52.8°C | 4.2% | 36.7hPa | 2.6V | 08:24:35 | 02:07:33 | 00:00:00 | |
| DO2JMG | 2026-09-04 00:27:07 | 53.43364 | 9.02582 | 139° | 18km/h | 22946m | -7m/s | -52.8°C | 0.9% | 36.9hPa | 2.5V | 08:24:38 | 02:07:37 | 00:00:00 | |
| AA1-15 | 2026-09-04 00:27:05 | 53.43371 | 9.02572 | 134° | 16km/h | 22960m | -11.2m/s | -52.8°C | 0.8% | 36.8hPa | 2.5V | 08:24:38 | 02:07:35 | 00:00:00 | |
| DL1XH-west | 2026-09-04 00:27:03 | 53.43376 | 9.02565 | 137° | 11km/h | 22985m | -12.1m/s | -52.8°C | 0.8% | 36.7hPa | 2.6V | 08:24:38 | 02:07:33 | 00:00:00 | |
| HSKMA3-T | 2026-09-04 00:27:01 | 53.43379 | 9.02560 | 150° | 5km/h | 23015m | -14.7m/s | -52.8°C | 0.9% | 36.6hPa | 2.5V | 08:24:38 | 02:07:31 | 00:00:00 | |
| DF8AY | 2026-09-04 00:26:58 | 53.43380 | 9.02558 | 128° | 4km/h | 23057m | -14m/s | -52.5°C | 0.8% | 36.3hPa | 2.5V | 08:25:29 | 02:07:28 | 00:00:00 | |
| DL1XH1-15 | 2026-09-04 00:26:58 | 53.43380 | 9.02547 | 78° | 7km/h | 23128m | -13.6m/s | -51.8°C | 3.9% | 35.9hPa | 2.5V | 08:24:45 | 02:07:23 | 00:00:00 | |
| DO2JMG | 2026-09-04 00:26:56 | 53.43381 | 9.02555 | 98° | 5km/h | 23085m | -14.7m/s | -52.2°C | 0.7% | 36.1hPa | 2.6V | 08:25:29 | 02:07:26 | 00:00:00 | |
| DJ2DS-15 | 2026-09-04 00:26:56 | 53.43381 | 9.02555 | 98° | 4km/h | 23086m | -14.7m/s | -52.2°C | 1.1% | 36.1hPa | 2.5V | 00:00:00 | 00:00:00 | 00:00:00 | |
| DB0DAN | 2026-09-04 00:26:55 | 53.43381 | 9.02553 | 77° | 5km/h | 23100m | -13.6m/s | -52°C | 1.1% | 36.08hPa | 2.5V | 00:00:00 | 00:00:00 | 00:00:00 | |
| AA1-15 | 2026-09-04 00:26:54 | 53.43381 | 9.02550 | 78° | 7km/h | 23114m | -14.7m/s | -51.9°C | 0.7% | 36hPa | 2.5V | 08:25:29 | 02:07:24 | 00:00:00 | |
| DL1XH-west | 2026-09-04 00:26:52 | 53.43380 | 9.02543 | 69° | 9km/h | 23142m | -13.2m/s | -51.8°C | 0.7% | 35.8hPa | 2.6V | 08:25:29 | 02:07:22 | 00:00:00 | |
| HSKMA3-T | 2026-09-04 00:26:51 | 53.43379 | 9.02539 | 76° | 11km/h | 23152m | -8m/s | -51.8°C | 0.7% | 35.8hPa | 2.6V | 08:25:29 | 02:07:21 | 00:00:00 | |
| DO2SHX-10 | 2026-09-04 00:26:50 | 53.43378 | 9.02535 | 63° | 13km/h | 23161m | -9.5m/s | -51.8°C | 3.9% | 35.7hPa | 2.5V | 00:00:00 | 02:07:20 | 00:00:00 | |
| DJ2DS-15 | 2026-09-04 00:26:49 | 53.43377 | 9.02530 | 64° | 18km/h | 23170m | -8.5m/s | -51.8°C | 3.9% | 35.6hPa | 2.5V | 00:00:00 | 02:07:19 | 00:00:00 | |
| DL1XH1-15 | 2026-09-04 00:26:48 | 53.43365 | 9.02498 | 61° | 16km/h | 23252m | -15.9m/s | -51.7°C | 3.8% | 35.2hPa | 2.5V | 08:24:55 | 02:07:13 | 00:00:00 | |
| DF8AY | 2026-09-04 00:26:48 | 53.43355 | 9.02456 | 78° | 18km/h | 23325m | -10.7m/s | -51.7°C | 0.7% | 34.8hPa | 2.5V | 08:25:29 | 02:07:07 | 00:00:00 | |
| DO2JMG | 2026-09-04 00:26:45 | 53.43369 | 9.02510 | 61° | 16km/h | 23221m | -15.4m/s | -51.7°C | 0.6% | 35.4hPa | 2.6V | 08:25:29 | 02:07:15 | 00:00:00 | |
| AA1-15 | 2026-09-04 00:26:44 | 53.43367 | 9.02504 | 56° | 16km/h | 23236m | -15.6m/s | -51.7°C | 0.6% | 35.3hPa | 2.5V | 08:25:29 | 02:07:14 | 00:00:00 | |
| DO2SHX-10 | 2026-09-04 00:26:44 | 53.43367 | 9.02504 | 57° | 16km/h | 23237m | -15.6m/s | -51.6°C | 3.8% | 35.3hPa | 2.5V | 00:00:00 | 02:07:14 | 00:00:00 | |
| DL4BBY-15 | 2026-09-04 00:26:43 | 53.43365 | 9.02498 | 62° | 18km/h | 23252m | -15.9m/s | -51.2°C | 0% | 0hPa | 2.6V | 00:00:00 | 00:00:00 | 00:00:00 | |
| DL1XH-15 | 2026-09-04 00:26:42 | 53.43360 | 9.02478 | 64° | 18km/h | 23291m | -13.3m/s | -51.6°C | 3.8% | 35hPa | 2.6V | 08:24:58 | 02:07:10 | 00:00:00 | |
| BIOWL1-15 | 2026-09-04 00:26:41 | 53.43354 | 9.02448 | 81° | 18km/h | 23336m | -10.8m/s | -51.8°C | 0.7% | 34.8hPa | 2.5V | 08:25:29 | 02:07:06 | 00:00:00 | |
| DL1XH-west | 2026-09-04 00:26:41 | 53.43362 | 9.02485 | 67° | 18km/h | 23279m | -11.9m/s | -51.7°C | 0.7% | 35hPa | 2.5V | 08:25:29 | 02:07:11 | 00:00:00 | |
| DB0DAN | 2026-09-04 00:26:40 | 53.43360 | 9.02478 | 64° | 16km/h | 23292m | -13.3m/s | -51.6°C | 1.1% | 35hPa | 2.6V | 00:00:00 | 00:00:00 | 00:00:00 | |
| HSKMA3-T | 2026-09-04 00:26:40 | 53.43360 | 9.02478 | 64° | 18km/h | 23292m | -13.3m/s | -51.6°C | 0.6% | 35hPa | 2.6V | 08:25:29 | 02:07:10 | 00:00:00 | |
| DO2SHX-10 | 2026-09-04 00:26:38 | 53.43356 | 9.02464 | 70° | 18km/h | 23315m | -11.7m/s | -51.6°C | 3.9% | 34.8hPa | 2.5V | 00:00:00 | 02:07:08 | 00:00:00 | |
| GOEST3-10 | 2026-09-04 00:26:37 | 53.43354 | 9.02448 | 81° | 20km/h | 23336m | -10.8m/s | -51.7°C | 3.9% | 34.7hPa | 2.5V | 08:25:00 | 02:07:06 | 00:00:00 | |
| DB0UT-7 | 2026-09-04 00:26:36 | 53.43354 | 9.02448 | 81° | 20km/h | 23336m | -10.8m/s | -51.7°C | 3.9% | 34.7hPa | 2.5V | 00:00:00 | 02:07:06 | 00:00:00 | |
| DL1XH-15 | 2026-09-04 00:26:35 | 53.43357 | 9.02400 | 103° | 16km/h | 23413m | -13.7m/s | -51.8°C | 3.9% | 34.3hPa | 2.5V | 08:25:08 | 02:07:00 | 00:00:00 | |
| DL1XH1-15 | 2026-09-04 00:26:35 | 53.43354 | 9.02424 | 95° | 20km/h | 23370m | -12.4m/s | -51.8°C | 3.9% | 34.5hPa | 2.5V | 08:25:05 | 02:07:03 | 00:00:00 | |
| DO2JMG | 2026-09-04 00:26:35 | 53.43353 | 9.02440 | 87° | 18km/h | 23347m | -11.8m/s | -51.8°C | 0.7% | 34.7hPa | 2.6V | 08:25:29 | 02:07:05 | 00:00:00 | |
| AA1-15 | 2026-09-04 00:26:34 | 53.43353 | 9.02432 | 91° | 20km/h | 23358m | -11.5m/s | -51.8°C | 0.7% | 34.6hPa | 2.6V | 08:25:29 | 02:07:04 | 00:00:00 | |
| DF8AY | 2026-09-04 00:26:33 | 53.43354 | 9.02424 | 96° | 20km/h | 23370m | -12.4m/s | -51.8°C | 0.7% | 34.5hPa | 2.5V | 08:25:29 | 02:07:03 | 00:00:00 | |
| DL1XH-west | 2026-09-04 00:26:31 | 53.43356 | 9.02407 | 104° | 20km/h | 23399m | -16.4m/s | -51.8°C | 0.7% | 34.4hPa | 2.5V | 08:25:29 | 02:07:01 | 00:00:00 | |
| BIOWL1-15 | 2026-09-04 00:26:30 | 53.43347 | 9.02365 | 44° | 18km/h | 23522m | -14.3m/s | -51.6°C | 0.7% | 33.8hPa | 2.6V | 08:25:29 | 02:06:52 | 00:00:00 | |
| HSKMA3-T | 2026-09-04 00:26:30 | 53.43357 | 9.02400 | 103° | 16km/h | 23413m | -13.7m/s | -51.8°C | 0.7% | 34.3hPa | 2.5V | 08:25:29 | 02:07:00 | 00:00:00 | |
| AU51GT2 | 2026-09-04 00:26:30 | 53.43357 | 9.02393 | 94° | 15km/h | 23426m | -12.1m/s | -51.8°C | 1.1% | 34.3hPa | 2.5V | 00:00:00 | 00:00:00 | 00:00:00 | |
| DJ2DS-15 | 2026-09-04 00:26:29 | 53.43357 | 9.02393 | 95° | 18km/h | 23426m | -12.1m/s | -51.7°C | 3.9% | 34.2hPa | 2.5V | 00:00:00 | 02:06:59 | 00:00:00 | |
| DB0DAN | 2026-09-04 00:26:25 | 53.43355 | 9.02377 | 40° | 11km/h | 23480m | -15.8m/s | -51.7°C | 1.1% | 33.99hPa | 2.5V | 00:00:00 | 00:00:00 | 00:00:00 | |
| AA1-15 | 2026-09-04 00:26:24 | 53.43353 | 9.02373 | 41° | 13km/h | 23494m | -13m/s | -51.6°C | 0.6% | 33.9hPa | 2.5V | 08:25:29 | 02:06:54 | 00:00:00 | |
| DF8AY | 2026-09-04 00:26:23 | 53.43350 | 9.02370 | 36° | 15km/h | 23508m | -14.8m/s | -51.6°C | 0.6% | 33.8hPa | 2.6V | 08:25:29 | 02:06:53 | 00:00:00 | |
| DO2SHX-10 | 2026-09-04 00:26:23 | 53.43350 | 9.02370 | 37° | 16km/h | 23508m | -14.8m/s | -51.5°C | 3.8% | 33.8hPa | 2.5V | 00:00:00 | 02:06:53 | 00:00:00 | |
| DL1XH-15 | 2026-09-04 00:26:21 | 53.43341 | 9.02353 | 50° | 20km/h | 23550m | -13.6m/s | -51.6°C | 3.8% | 33.6hPa | 2.5V | 08:25:18 | 02:06:50 | 00:00:00 | |
| DL1XH-west | 2026-09-04 00:26:20 | 53.43341 | 9.02353 | 51° | 20km/h | 23550m | -13.6m/s | -51.6°C | 0.6% | 33.6hPa | 2.5V | 08:25:29 | 02:06:50 | 00:00:00 | |
| BIOWL1-15 | 2026-09-04 00:26:19 | 53.43337 | 9.02347 | 48° | 20km/h | 23563m | -14.2m/s | -51.6°C | 0.6% | 33.5hPa | 2.5V | 08:25:29 | 02:06:49 | 00:00:00 | |
| DL1XH1-15 | 2026-09-04 00:26:18 | 53.43311 | 9.02309 | 37° | 24km/h | 23651m | -14.1m/s | -51.6°C | 3.7% | 33.1hPa | 2.5V | 08:25:25 | 02:06:43 | 00:00:00 | |
| DO2JMG | 2026-09-04 00:26:14 | 53.43315 | 9.02315 | 37° | 24km/h | 23636m | -15.2m/s | -51.5°C | 0.6% | 33.2hPa | 2.5V | 08:25:29 | 02:06:44 | 00:00:00 | |
| AA1-15 | 2026-09-04 00:26:13 | 53.43311 | 9.02309 | 38° | 24km/h | 23651m | -14.1m/s | -51.6°C | 0.6% | 33.1hPa | 2.5V | 08:25:29 | 02:06:43 | 00:00:00 | |
| DF8AY | 2026-09-04 00:26:12 | 53.43306 | 9.02303 | 37° | 24km/h | 23664m | -14m/s | -51.7°C | 0.6% | 33hPa | 2.6V | 08:25:29 | 02:06:42 | 00:00:00 | |
| SONDE2-11 | 2026-09-04 00:26:12 | 53.43301 | 9.02297 | 43° | 22km/h | 23678m | -13.3m/s | -51.7°C | 1.1% | 33.0hPa | 2.6V | 00:00:00 | 00:00:00 | 00:00:00 | |
| DM0DOS-11 | 2026-09-04 00:26:11 | 53.43279 | 9.02237 | 70° | 31km/h | 23750m | -7.3m/s | -52°C | 4% | 32.6hPa | 2.6V | 08:25:33 | 02:06:35 | 00:00:00 | |
| DL1XH-west | 2026-09-04 00:26:10 | 53.43297 | 9.02290 | 45° | 24km/h | 23691m | -13m/s | -51.8°C | 0.7% | 32.9hPa | 2.5V | 08:25:29 | 02:06:40 | 00:00:00 | |
| BIOWL1-15 | 2026-09-04 00:26:09 | 53.43293 | 9.02281 | 53° | 29km/h | 23707m | -17.4m/s | -51.8°C | 0.6% | 32.9hPa | 2.5V | 08:25:29 | 02:06:39 | 00:00:00 | |
| DL1XH1-15 | 2026-09-04 00:26:08 | 53.43275 | 9.02211 | 82° | 31km/h | 23767m | -11.3m/s | -51.9°C | 3.9% | 32.5hPa | 2.5V | 08:25:35 | 02:06:33 | 00:00:00 | |
| HSKMA3-T | 2026-09-04 00:26:08 | 53.43288 | 9.02271 | 58° | 29km/h | 23722m | -13.2m/s | -51.9°C | 0.7% | 32.8hPa | 2.5V | 08:26:20 | 02:06:38 | 00:00:00 | |
| DO2JMG | 2026-09-04 00:26:04 | 53.43276 | 9.02225 | 76° | 31km/h | 23758m | -8m/s | -51.9°C | 0.7% | 32.6hPa | 2.5V | 08:26:20 | 02:06:34 | 00:00:00 | |
| DF8AY | 2026-09-04 00:26:02 | 53.43274 | 9.02198 | 84° | 31km/h | 23779m | -11.6m/s | -51.9°C | 0.7% | 32.4hPa | 2.5V | 08:26:20 | 02:06:32 | 00:00:00 | |
| DL1XH-15 | 2026-09-04 00:26:01 | 53.43272 | 9.02173 | 87° | 27km/h | 23800m | -11.4m/s | -51.9°C | 3.9% | 32.3hPa | 2.6V | 08:25:38 | 02:06:30 | 00:00:00 | |
| DL1XH-west | 2026-09-04 00:26:00 | 53.43272 | 9.02173 | 87° | 27km/h | 23800m | -11.4m/s | -51.9°C | 0.7% | 32.3hPa | 2.6V | 08:26:20 | 02:06:30 | 00:00:00 | |
| BIOWL1-15 | 2026-09-04 00:25:59 | 53.43272 | 9.02126 | 94° | 18km/h | 23866m | -14.7m/s | -51.8°C | 0.7% | 32hPa | 2.6V | 08:27:11 | 02:06:25 | 00:00:00 | |
| HSKMA3-T | 2026-09-04 00:25:57 | 53.43272 | 9.02143 | 89° | 22km/h | 23837m | -14.4m/s | -51.9°C | 0.7% | 32.2hPa | 2.5V | 08:26:20 | 02:06:27 | 00:00:00 | |
| DB0DAN | 2026-09-04 00:25:55 | 53.43272 | 9.02126 | 94° | 18km/h | 23866m | -14.7m/s | -51.8°C | 1.1% | 32.04hPa | 2.6V | 00:00:00 | 00:00:00 | 00:00:00 | |
| DL1XH-15 | 2026-09-04 00:25:55 | 53.43278 | 9.02085 | 108° | 24km/h | 23930m | -11.6m/s | -51.7°C | 4% | 31.7hPa | 2.5V | 08:25:48 | 02:06:20 | 00:00:00 | |
| DO2JMG | 2026-09-04 00:25:54 | 53.43272 | 9.02118 | 97° | 18km/h | 23880m | -12.5m/s | -51.8°C | 0.7% | 31.9hPa | 2.6V | 08:26:20 | 02:06:24 | 00:00:00 | |
| AA1-15 | 2026-09-04 00:25:51 | 53.43276 | 9.02094 | 107° | 22km/h | 23917m | -13.7m/s | -51.8°C | 0.7% | 31.8hPa | 2.5V | 08:26:20 | 02:06:21 | 00:00:00 | |
| DM0DOS-11 | 2026-09-04 00:25:50 | 53.43288 | 9.02024 | 95° | 33km/h | 23984m | -12.4m/s | -51.6°C | 3.9% | 31.4hPa | 2.5V | 08:25:53 | 02:06:15 | 00:00:00 | |
| DL1XH-west | 2026-09-04 00:25:50 | 53.43280 | 9.02075 | 107° | 26km/h | 23941m | -11.8m/s | -51.8°C | 0.7% | 31.7hPa | 2.6V | 08:26:20 | 02:06:19 | 00:00:00 | |
| GOEST3-10 | 2026-09-04 00:25:50 | 53.43280 | 9.02075 | 108° | 29km/h | 23942m | -11.8m/s | -51.7°C | 4.0% | 31.6hPa | 2.6V | 08:25:00 | 00:00:00 | 00:00:00 | |
| DJ2DS-15 | 2026-09-04 00:25:49 | 53.43280 | 9.02075 | 108° | 29km/h | 23942m | -11.8m/s | -51.7°C | 4.0% | 31.6hPa | 2.6V | 00:00:00 | 02:06:19 | 00:00:00 | |
| DL1XH1-15 | 2026-09-04 00:25:48 | 53.43288 | 9.01998 | 88° | 31km/h | 24015m | -15m/s | -51.6°C | 3.8% | 31.3hPa | 2.6V | 08:25:55 | 02:06:13 | 00:00:00 | |
| HSKMA3-T | 2026-09-04 00:25:46 | 53.43286 | 9.02038 | 104° | 33km/h | 23973m | -9.8m/s | -51.7°C | 0.7% | 31.5hPa | 2.5V | 08:26:20 | 02:06:16 | 00:00:00 | |
| S3001 | 2026-09-04 00:25:45 | 53.43288 | 9.02024 | 95° | 33km/h | 23984m | -12.4m/s | -51.7°C | 1.1% | 31.4hPa | 2.6V | 00:00:00 | 00:00:00 | 00:00:00 | |
| DO2JMG | 2026-09-04 00:25:43 | 53.43288 | 9.01998 | 89° | 31km/h | 24015m | -15m/s | -51.6°C | 0.7% | 31.3hPa | 2.6V | 08:26:20 | 02:06:13 | 00:00:00 | |
| BIOWL1-15 | 2026-09-04 00:25:40 | 53.43286 | 9.01945 | 92° | 29km/h | 24079m | -16.7m/s | -51.6°C | 0.7% | 31hPa | 2.5V | 08:27:11 | 02:06:09 | 00:00:00 | |
| AA1-15 | 2026-09-04 00:25:40 | 53.43286 | 9.01958 | 86° | 31km/h | 24062m | -16.8m/s | -51.6°C | 0.7% | 31.1hPa | 2.5V | 08:26:20 | 02:06:10 | 00:00:00 | |
| DL1XH-west | 2026-09-04 00:25:38 | 53.43286 | 9.01933 | 99° | 29km/h | 24095m | -14.7m/s | -51.6°C | 0.7% | 30.9hPa | 2.6V | 08:26:20 | 02:06:08 | 00:00:00 | |
| DO2SHX-10 | 2026-09-04 00:25:38 | 53.43286 | 9.01933 | 99° | 29km/h | 24095m | -14.7m/s | -51.6°C | 3.9% | 30.9hPa | 2.5V | 00:00:00 | 02:06:08 | 00:00:00 | |
| DM0DOS-11 | 2026-09-04 00:25:37 | 53.43294 | 9.01898 | 118° | 31km/h | 24132m | -10.3m/s | -51.5°C | 3.9% | 30.7hPa | 2.5V | 08:26:03 | 02:06:05 | 00:00:00 | |
| HSKMA3-T | 2026-09-04 00:25:36 | 53.43290 | 9.01909 | 114° | 31km/h | 24121m | -12m/s | -51.5°C | 0.7% | 30.8hPa | 2.5V | 08:26:20 | 02:06:06 | 00:00:00 | |
| DO2JMG | 2026-09-04 00:25:32 | 53.43304 | 9.01867 | 118° | 24km/h | 24174m | -13.7m/s | -51.4°C | 0.6% | 30.5hPa | 2.6V | 08:26:20 | 02:06:02 | 00:00:00 | |
| DO2SHX-10 | 2026-09-04 00:25:32 | 53.43304 | 9.01867 | 118° | 22km/h | 24175m | -13.7m/s | -51.3°C | 3.8% | 30.5hPa | 2.6V | 08:26:00 | 02:06:02 | 00:00:00 | |
| DM0DOS-11 | 2026-09-04 00:25:30 | 53.43314 | 9.01819 | 110° | 15km/h | 24270m | -10.6m/s | -51.3°C | 3.7% | 30.1hPa | 2.5V | 08:26:13 | 02:05:55 | 00:00:00 | |
| DL1NUX | 2026-09-04 00:25:30 | 53.43310 | 9.01844 | 104° | 15km/h | 24215m | -14.6m/s | -51.2°C | 3.8% | 30.4hPa | 2.5V | 08:30:00 | 02:05:59 | 00:00:00 | |
| AA1-15 | 2026-09-04 00:25:29 | 53.43310 | 9.01844 | 105° | 15km/h | 24215m | -14.6m/s | -51.2°C | 0.6% | 30.4hPa | 2.5V | 08:26:20 | 02:05:59 | 00:00:00 | |
| DL1XH-west | 2026-09-04 00:25:28 | 53.43312 | 9.01831 | 105° | 16km/h | 24243m | -14.2m/s | -51.3°C | 0.6% | 30.2hPa | 2.6V | 08:26:20 | 02:05:57 | 00:00:00 | |
| HSKMA3-T | 2026-09-04 00:25:25 | 53.43314 | 9.01819 | 110° | 15km/h | 24270m | -10.6m/s | -51.3°C | 0.6% | 30.1hPa | 2.5V | 08:26:20 | 02:05:55 | 00:00:00 | |
| DO2JMG | 2026-09-04 00:25:22 | 53.43321 | 9.01800 | 131° | 20km/h | 24308m | -16.5m/s | -51.2°C | 0.6% | 29.9hPa | 2.5V | 08:26:20 | 02:05:52 | 00:00:00 | |
| BIOWL1-15 | 2026-09-04 00:25:21 | 53.43344 | 9.01730 | 112° | 22km/h | 24443m | -13.6m/s | -51.2°C | 0.6% | 29.3hPa | 2.5V | 08:27:11 | 02:05:43 | 00:00:00 | |
| DL1XH-15 | 2026-09-04 00:25:21 | 53.43328 | 9.01786 | 128° | 24km/h | 24341m | -14m/s | -51.3°C | 3.8% | 29.8hPa | 2.6V | 08:26:18 | 02:05:50 | 00:00:00 | |
| AA1-15 | 2026-09-04 00:25:18 | 53.43334 | 9.01770 | 120° | 20km/h | 24370m | -14.6m/s | -51.3°C | 0.6% | 29.6hPa | 2.5V | 08:26:20 | 02:05:48 | 00:00:00 | |
| DM0DOS-11 | 2026-09-04 00:25:17 | 53.43340 | 9.01748 | 110° | 22km/h | 24413m | -17.9m/s | -51.3°C | 3.8% | 29.4hPa | 2.6V | 08:26:23 | 02:05:45 | 00:00:00 | |
| DL1XH-west | 2026-09-04 00:25:17 | 53.43336 | 9.01763 | 118° | 20km/h | 24383m | -11.6m/s | -51.3°C | 0.6% | 29.6hPa | 2.5V | 08:27:11 | 02:05:47 | 00:00:00 | |
| DO2SHX-10 | 2026-09-04 00:25:17 | 53.43336 | 9.01763 | 118° | 20km/h | 24383m | -11.5m/s | -51.3°C | 3.8% | 29.5hPa | 2.6V | 00:00:00 | 02:05:47 | 00:00:00 | |
| DL1XH-15 | 2026-09-04 00:25:15 | 53.43351 | 9.01708 | 137° | 18km/h | 24485m | -14.8m/s | -51.2°C | 3.8% | 29.1hPa | 2.6V | 08:26:28 | 02:05:40 | 00:00:00 | |
| HSKMA3-T | 2026-09-04 00:25:15 | 53.43340 | 9.01748 | 111° | 22km/h | 24413m | -18m/s | -51.3°C | 0.6% | 29.4hPa | 2.6V | 08:27:11 | 02:05:45 | 00:00:00 | |
| DO2JMG | 2026-09-04 00:25:11 | 53.43349 | 9.01714 | 126° | 18km/h | 24471m | -14.3m/s | -51.2°C | 0.6% | 29.2hPa | 2.5V | 08:27:11 | 02:05:41 | 00:00:00 | |
| DB0DAN | 2026-09-04 00:25:10 | 53.43351 | 9.01708 | 137° | 16km/h | 24485m | -14.8m/s | -51.2°C | 1.1% | 29.12hPa | 2.6V | 00:00:00 | 00:00:00 | 00:00:00 | |
| SONDE2-11 | 2026-09-04 00:25:10 | 53.43355 | 9.01704 | 139° | 16km/h | 24499m | -13.5m/s | -51.3°C | 1.0% | 29.0hPa | 2.6V | 00:00:00 | 00:00:00 | 00:00:00 | |
| DJ2DS-15 | 2026-09-04 00:25:09 | 53.43355 | 9.01703 | 140° | 15km/h | 24499m | -13.4m/s | -51.2°C | 3.8% | 29.0hPa | 2.6V | 00:00:00 | 02:05:39 | 00:00:00 | |
| DL1XH1-15 | 2026-09-04 00:25:08 | 53.43380 | 9.01684 | 163° | 18km/h | 24582m | -12.3m/s | -51.2°C | 3.8% | 28.7hPa | 2.6V | 08:26:35 | 02:05:33 | 00:00:00 | |
| AA1-15 | 2026-09-04 00:25:08 | 53.43358 | 9.01699 | 149° | 18km/h | 24511m | -10.8m/s | -51.3°C | 0.6% | 29hPa | 2.5V | 08:27:11 | 02:05:38 | 00:00:00 | |
| DL1XH-west | 2026-09-04 00:25:07 | 53.43362 | 9.01695 | 154° | 18km/h | 24524m | -14.7m/s | -51.3°C | 0.6% | 28.9hPa | 2.5V | 08:27:11 | 02:05:37 | 00:00:00 | |
| HSKMA3-T | 2026-09-04 00:25:04 | 53.43376 | 9.01686 | 161° | 18km/h | 24569m | -14.4m/s | -51.2°C | 0.7% | 28.7hPa | 2.6V | 08:27:11 | 02:05:34 | 00:00:00 | |
| DO2JMG | 2026-09-04 00:25:01 | 53.43389 | 9.01680 | 170° | 18km/h | 24604m | -10.1m/s | -51.2°C | 0.7% | 28.6hPa | 2.5V | 08:27:11 | 02:05:31 | 00:00:00 | |
| AA1-15 | 2026-09-04 00:24:58 | 53.43402 | 9.01677 | 179° | 15km/h | 24640m | -12.5m/s | -51.2°C | 0.6% | 28.4hPa | 2.6V | 08:27:11 | 02:05:28 | 00:00:00 | |
| DL1XH-west | 2026-09-04 00:24:57 | 53.43406 | 9.01677 | 187° | 16km/h | 24654m | -15m/s | -51.2°C | 0.6% | 28.4hPa | 2.6V | 08:27:11 | 02:05:27 | 00:00:00 | |
| DO2SHX-10 | 2026-09-04 00:24:56 | 53.43410 | 9.01678 | 188° | 13km/h | 24668m | -13.7m/s | -51.2°C | 3.8% | 28.3hPa | 2.5V | 00:00:00 | 02:05:26 | 00:00:00 | |
| DL1XH1-15 | 2026-09-04 00:24:54 | 53.43419 | 9.01682 | 204° | 11km/h | 24710m | -13.6m/s | -51.2°C | 3.8% | 28.1hPa | 2.6V | 08:26:45 | 02:05:23 | 00:00:00 | |
| HSKMA3-T | 2026-09-04 00:24:53 | 53.43419 | 9.01682 | 204° | 11km/h | 24711m | -13.6m/s | -51.3°C | 0.6% | 28.1hPa | 2.6V | 08:27:11 | 02:05:23 | 00:00:00 | |
| DO2SHX-10 | 2026-09-04 00:24:53 | 53.43419 | 9.01682 | 205° | 11km/h | 24711m | -13.5m/s | -51.2°C | 3.8% | 28.1hPa | 2.5V | 00:00:00 | 02:05:23 | 00:00:00 | |
| DM0DOS-11 | 2026-09-04 00:24:52 | 53.43436 | 9.01684 | 162° | 9km/h | 24833m | -13m/s | -51.3°C | 3.9% | 27.6hPa | 2.5V | 08:26:53 | 02:05:15 | 00:00:00 | |
| DO2JMG | 2026-09-04 00:24:51 | 53.43426 | 9.01684 | 176° | 7km/h | 24757m | -16.2m/s | -51.4°C | 0.6% | 27.9hPa | 2.5V | 08:27:11 | 02:05:20 | 00:00:00 | |
| DO2SHX-10 | 2026-09-04 00:24:50 | 53.43426 | 9.01684 | 176° | 9km/h | 24757m | -16.2m/s | -51.3°C | 3.8% | 27.9hPa | 2.5V | 00:00:00 | 02:05:20 | 00:00:00 | |
| DJ2DS-15 | 2026-09-04 00:24:49 | 53.43428 | 9.01684 | 191° | 15km/h | 24775m | -19.4m/s | -51.3°C | 3.8% | 27.8hPa | 2.5V | 00:00:00 | 02:05:19 | 00:00:00 | |
| DL1XH1-15 | 2026-09-04 00:24:48 | 53.43440 | 9.01680 | 129° | 7km/h | 24859m | -14.2m/s | -51.2°C | 3.8% | 27.5hPa | 2.5V | 08:26:55 | 02:05:13 | 00:00:00 | |
| AA1-15 | 2026-09-04 00:24:48 | 53.43433 | 9.01685 | 174° | 7km/h | 24807m | -13.1m/s | -51.4°C | 0.7% | 27.7hPa | 2.6V | 08:27:11 | 02:05:17 | 00:00:00 | |
| BIOWL1-15 | 2026-09-04 00:24:47 | 53.43436 | 9.01684 | 163° | 9km/h | 24833m | -13m/s | -51.3°C | 0.7% | 27.6hPa | 2.5V | 08:27:11 | 02:05:15 | 00:00:00 | |
| DL1XH-west | 2026-09-04 00:24:46 | 53.43434 | 9.01684 | 181° | 7km/h | 24820m | -13.2m/s | -51.4°C | 0.7% | 27.6hPa | 2.6V | 08:27:11 | 02:05:16 | 00:00:00 | |
| HSKMA3-T | 2026-09-04 00:24:42 | 53.43441 | 9.01678 | 134° | 9km/h | 24873m | -12.9m/s | -51.2°C | 0.7% | 27.4hPa | 2.5V | 08:27:11 | 02:05:12 | 00:00:00 | |
| DB0DAN | 2026-09-04 00:24:40 | 53.43446 | 9.01669 | 135° | 16km/h | 24900m | -14.4m/s | -51.2°C | 1.1% | 27.33hPa | 2.6V | 00:00:00 | 00:00:00 | 00:00:00 | |
| DO2JMG | 2026-09-04 00:24:40 | 53.43446 | 9.01669 | 135° | 16km/h | 24900m | -14.4m/s | -51.2°C | 0.7% | 27.3hPa | 2.6V | 08:27:11 | 02:05:10 | 00:00:00 | |
| DL1XH1-15 | 2026-09-04 00:24:39 | 53.43472 | 9.01628 | 137° | 22km/h | 25006m | -12.4m/s | -50.9°C | 3.7% | 26.9hPa | 2.5V | 08:27:05 | 02:05:03 | 00:00:00 | |
| DO2SHX-10 | 2026-09-04 00:24:38 | 53.43453 | 9.01659 | 139° | 22km/h | 24929m | -13.3m/s | -51.1°C | 3.8% | 27.1hPa | 2.5V | 08:27:00 | 02:05:08 | 00:00:00 | |
| DM0DOS-11 | 2026-09-04 00:24:37 | 53.43465 | 9.01641 | 136° | 20km/h | 24977m | -15.6m/s | -51°C | 3.7% | 27hPa | 2.6V | 08:27:03 | 02:05:05 | 00:00:00 | |
| BIOWL1-15 | 2026-09-04 00:24:37 | 53.43464 | 9.01641 | 137° | 22km/h | 24977m | -15.6m/s | -51°C | 0.6% | 27hPa | 2.6V | 08:27:11 | 02:05:05 | 00:00:00 | |
| DL1XH-west | 2026-09-04 00:24:36 | 53.43461 | 9.01647 | 137° | 22km/h | 24961m | -15.1m/s | -51°C | 0.6% | 27.1hPa | 2.6V | 08:27:11 | 02:05:06 | 00:00:00 | |
| HSKMA3-T | 2026-09-04 00:24:31 | 53.43480 | 9.01616 | 138° | 18km/h | 25033m | -13.8m/s | -50.9°C | 0.6% | 26.8hPa | 2.5V | 08:27:11 | 02:05:01 | 00:00:00 | |
| DO2JMG | 2026-09-04 00:24:29 | 53.43485 | 9.01607 | 137° | 13km/h | 25062m | -13.9m/s | -50.8°C | 0.5% | 26.6hPa | 2.6V | 08:27:11 | 02:04:59 | 00:00:00 | |
| AA1-15 | 2026-09-04 00:24:26 | 53.43493 | 9.01596 | 142° | 15km/h | 25107m | -14.5m/s | -50.8°C | 0.5% | 26.4hPa | 2.5V | 08:28:02 | 02:04:56 | 00:00:00 | |
| DB0DAN | 2026-09-04 00:24:25 | 53.43497 | 9.01592 | 147° | 16km/h | 25122m | -15.3m/s | -50.8°C | 1% | 26.41hPa | 2.5V | 00:00:00 | 00:00:00 | 00:00:00 | |
| DL1XH-west | 2026-09-04 00:24:25 | 53.43497 | 9.01592 | 148° | 16km/h | 25122m | -15.3m/s | -50.8°C | 0.6% | 26.4hPa | 2.5V | 08:28:02 | 02:04:55 | 00:00:00 | |
| DF8AY | 2026-09-04 00:24:25 | 53.43560 | 9.01587 | 221° | 22km/h | 25271m | -10.9m/s | -51.1°C | 0.6% | 25.8hPa | 2.6V | 18:12:15 | 02:04:43 | 00:00:00 | |
| BIOWL1-15 | 2026-09-04 00:24:24 | 53.43511 | 9.01583 | 163° | 26km/h | 25164m | -14.5m/s | -50.9°C | 0.7% | 26.2hPa | 2.5V | 08:29:44 | 02:04:52 | 00:00:00 | |
| HSKMA3-T | 2026-09-04 00:24:21 | 53.43517 | 9.01580 | 164° | 26km/h | 25177m | -11.5m/s | -51°C | 0.7% | 26.1hPa | 2.5V | 08:28:02 | 02:04:51 | 00:00:00 | |
| DO2JMG | 2026-09-04 00:24:19 | 53.43530 | 9.01575 | 171° | 24km/h | 25199m | -11.2m/s | -51°C | 0.7% | 26.1hPa | 2.6V | 08:28:02 | 02:04:49 | 00:00:00 | |
| DL1XH-west | 2026-09-04 00:24:15 | 53.43551 | 9.01578 | 206° | 20km/h | 25251m | -12.4m/s | -51.2°C | 0.7% | 25.9hPa | 2.5V | 08:28:02 | 02:04:45 | 00:00:00 | |
| BIOWL1-15 | 2026-09-04 00:24:12 | 53.43569 | 9.01598 | 222° | 20km/h | 25301m | -18m/s | -51°C | 0.6% | 25.7hPa | 2.5V | 08:29:44 | 02:04:41 | 00:00:00 | |
| DL1XH-15 | 2026-09-04 00:24:11 | 53.43573 | 9.01603 | 221° | 18km/h | 25320m | -19.5m/s | -51°C | 3.8% | 25.6hPa | 2.5V | 08:27:28 | 02:04:40 | 00:00:00 | |
| DM0DOS-11 | 2026-09-04 00:24:11 | 53.43589 | 9.01614 | 185° | 11km/h | 25398m | -12.1m/s | -50.9°C | 3.8% | 25.3hPa | 2.5V | 08:27:33 | 02:04:35 | 00:00:00 | |
| DB0DAN | 2026-09-04 00:24:10 | 53.43573 | 9.01603 | 221° | 18km/h | 25320m | -19.5m/s | -51°C | 1% | 25.63hPa | 2.5V | 00:00:00 | 00:00:00 | 00:00:00 | |
| HSKMA3-T | 2026-09-04 00:24:10 | 53.43573 | 9.01603 | 221° | 18km/h | 25320m | -19.5m/s | -51°C | 0.6% | 25.6hPa | 2.5V | 08:28:02 | 02:04:40 | 00:00:00 | |
| DO2JMG | 2026-09-04 00:24:08 | 53.43580 | 9.01611 | 200° | 15km/h | 25353m | -16.2m/s | -50.9°C | 0.6% | 25.5hPa | 2.5V | 08:28:02 | 02:04:38 | 00:00:00 | |
| AA1-15 | 2026-09-04 00:24:05 | 53.43589 | 9.01614 | 186° | 13km/h | 25398m | -12.1m/s | -50.9°C | 0.7% | 25.3hPa | 2.5V | 08:28:02 | 02:04:35 | 00:00:00 | |
| DL1XH-west | 2026-09-04 00:24:04 | 53.43592 | 9.01615 | 192° | 11km/h | 25411m | -13.9m/s | -50.8°C | 0.6% | 25.2hPa | 2.5V | 08:28:02 | 02:04:34 | 00:00:00 | |
| BIOWL1-15 | 2026-09-04 00:24:01 | 53.43606 | 9.01641 | 245° | 13km/h | 25502m | -11.9m/s | -50.4°C | 0.6% | 24.9hPa | 2.5V | 08:29:44 | 02:04:27 | 00:00:00 | |
| DF8AY | 2026-09-04 00:24:01 | 53.43599 | 9.01620 | 229° | 11km/h | 25451m | -10.7m/s | -50.7°C | 0.7% | 25.1hPa | 2.6V | 18:12:15 | 02:04:31 | 00:00:00 | |
| DL1XH-15 | 2026-09-04 00:24:01 | 53.43601 | 9.01625 | 239° | 15km/h | 25462m | -12.1m/s | -50.6°C | 3.8% | 25hPa | 2.5V | 08:27:38 | 02:04:30 | 00:00:00 | |
| HSKMA3-T | 2026-09-04 00:24:00 | 53.43601 | 9.01625 | 239° | 15km/h | 25462m | -12.1m/s | -50.6°C | 0.6% | 25hPa | 2.5V | 08:28:02 | 02:04:30 | 00:00:00 | |
| DO2JMG | 2026-09-04 00:23:58 | 53.43604 | 9.01635 | 239° | 15km/h | 25489m | -12.5m/s | -50.5°C | 0.7% | 24.9hPa | 2.5V | 08:28:02 | 02:04:28 | 00:00:00 | |
| DM0DOS-11 | 2026-09-04 00:23:57 | 53.43608 | 9.01649 | 234° | 7km/h | 25524m | -11.3m/s | -50.3°C | 3.7% | 24.8hPa | 2.6V | 08:27:43 | 02:04:25 | 00:00:00 | |
| HTAHTA | 2026-09-04 00:23:57 | 53.43606 | 9.01641 | 245° | 13km/h | 25502m | -11.9m/s | -50.4°C | 1.0% | 24.9hPa | 2.6V | 00:00:00 | 00:00:00 | 00:00:00 | |
| DB0DAN | 2026-09-04 00:23:55 | 53.43608 | 9.01649 | 235° | 7km/h | 25525m | -11.3m/s | -50.3°C | 1% | 24.8hPa | 2.6V | 00:00:00 | 00:00:00 | 00:00:00 | |
| DL1XH-west | 2026-09-04 00:23:54 | 53.43609 | 9.01651 | 230° | 4km/h | 25535m | -10.1m/s | -50.2°C | 0.6% | 24.7hPa | 2.5V | 08:28:02 | 02:04:24 | 00:00:00 | |
| BUE01 | 2026-09-04 00:23:52 | 53.43608 | 9.01651 | 7° | 5km/h | 25559m | -13.7m/s | -50.1°C | 1.0% | 24.7hPa | 2.6V | 00:00:00 | 00:00:00 | 00:00:00 | |
| DL1XH-15 | 2026-09-04 00:23:51 | 53.43604 | 9.01649 | 4° | 11km/h | 25586m | -14.6m/s | -50.1°C | 3.6% | 24.6hPa | 2.6V | 08:27:48 | 02:04:20 | 00:00:00 | |
| DM0DOS-11 | 2026-09-04 00:23:50 | 53.43590 | 9.01665 | 293° | 15km/h | 25653m | -11.7m/s | -50.2°C | 3.6% | 24.3hPa | 2.6V | 08:27:53 | 02:04:15 | 00:00:00 | |
| HSKMA3-T | 2026-09-04 00:23:49 | 53.43601 | 9.01649 | 343° | 13km/h | 25600m | -14.6m/s | -50.2°C | 0.6% | 24.6hPa | 2.6V | 08:28:02 | 02:04:19 | 00:00:00 | |
| DF8AY | 2026-09-04 00:23:48 | 53.43598 | 9.01651 | 328° | 15km/h | 25615m | -14.1m/s | -50.2°C | 0.6% | 24.5hPa | 2.5V | 18:12:15 | 02:04:18 | 00:00:00 | |
| DO2JMG | 2026-09-04 00:23:47 | 53.43595 | 9.01655 | 317° | 15km/h | 25628m | -12.2m/s | -50.3°C | 0.5% | 24.4hPa | 2.5V | 08:28:02 | 02:04:17 | 00:00:00 | |
| AA1-15 | 2026-09-04 00:23:44 | 53.43589 | 9.01672 | 288° | 16km/h | 25664m | -10.9m/s | -50.3°C | 0.6% | 24.3hPa | 2.6V | 08:28:02 | 02:04:14 | 00:00:00 | |
| DL1XH-west | 2026-09-04 00:23:44 | 53.43587 | 9.01678 | 287° | 16km/h | 25675m | -10.4m/s | -50.3°C | 0.6% | 24.2hPa | 2.5V | 08:28:02 | 02:04:13 | 00:00:00 | |
| DL4BBY-15 | 2026-09-04 00:23:43 | 53.43587 | 9.01678 | 287° | 9km/h | 25675m | -10.3m/s | -49.8°C | 0% | 0hPa | 2.5V | 00:00:00 | 00:00:00 | 00:00:00 | |
| DL1XH-15 | 2026-09-04 00:23:41 | 53.43583 | 9.01696 | 299° | 11km/h | 25712m | -14.2m/s | -50.5°C | 3.7% | 24.1hPa | 2.5V | 08:27:58 | 02:04:10 | 00:00:00 | |
| HSKMA3-T | 2026-09-04 00:23:39 | 53.43581 | 9.01700 | 322° | 9km/h | 25727m | -15.1m/s | -50.5°C | 0.6% | 24.1hPa | 2.6V | 08:28:02 | 02:04:09 | 00:00:00 | |
| DF8AY | 2026-09-04 00:23:38 | 53.43579 | 9.01701 | 344° | 9km/h | 25741m | -13.2m/s | -50.4°C | 0.6% | 24hPa | 2.6V | 18:12:15 | 02:04:08 | 00:00:00 | |
| DO2SHX-10 | 2026-09-04 00:23:38 | 53.43579 | 9.01701 | 344° | 9km/h | 25742m | -13.1m/s | -50.3°C | 3.7% | 23.9hPa | 2.5V | 00:00:00 | 02:04:08 | 00:00:00 | |
| DM0DOS-11 | 2026-09-04 00:23:37 | 53.43571 | 9.01701 | 13° | 13km/h | 25775m | -11.5m/s | -50.1°C | 3.6% | 23.8hPa | 2.5V | 08:28:03 | 02:04:05 | 00:00:00 | |
| DO2JMG | 2026-09-04 00:23:37 | 53.43577 | 9.01702 | 0° | 9km/h | 25753m | -11.1m/s | -50.2°C | 0.5% | 23.9hPa | 2.5V | 08:28:02 | 02:04:07 | 00:00:00 | |
| BIOWL1-15 | 2026-09-04 00:23:34 | 53.43560 | 9.01707 | 316° | 7km/h | 25856m | -16.8m/s | -50.3°C | 0.6% | 23.6hPa | 2.5V | 08:29:44 | 02:03:59 | 00:00:00 | |
| AA1-15 | 2026-09-04 00:23:33 | 53.43566 | 9.01700 | 359° | 9km/h | 25798m | -11.9m/s | -50.2°C | 0.5% | 23.8hPa | 2.6V | 08:28:53 | 02:04:03 | 00:00:00 | |
| DF4FW | 2026-09-04 00:23:33 | 53.43566 | 9.01699 | 360° | 9km/h | 25798m | -11.9m/s | -50.2°C | 1.0% | 23.8hPa | 2.5V | 08:28:00 | 00:00:00 | 00:00:00 | |
| DL1XH-15 | 2026-09-04 00:23:31 | 53.43561 | 9.01705 | 314° | 7km/h | 25840m | -15.7m/s | -50.3°C | 3.7% | 23.6hPa | 2.5V | 08:28:08 | 02:04:00 | 00:00:00 | |
| DM0DOS-11 | 2026-09-04 00:23:31 | 53.43556 | 9.01713 | 316° | 5km/h | 25905m | -12m/s | -50.3°C | 3.7% | 23.4hPa | 2.5V | 08:28:13 | 02:03:55 | 00:00:00 | |
| HSKMA3-T | 2026-09-04 00:23:28 | 53.43559 | 9.01709 | 310° | 5km/h | 25871m | -13.2m/s | -50.3°C | 0.6% | 23.5hPa | 2.6V | 08:28:53 | 02:03:58 | 00:00:00 | |
| DO2JMG | 2026-09-04 00:23:27 | 53.43558 | 9.01710 | 318° | 5km/h | 25882m | -10.7m/s | -50.3°C | 0.6% | 23.5hPa | 2.6V | 08:28:53 | 02:03:57 | 00:00:00 | |
| DB0DAN | 2026-09-04 00:23:25 | 53.43556 | 9.01713 | 316° | 5km/h | 25905m | -12m/s | -50.3°C | 1% | 23.39hPa | 2.5V | 00:00:00 | 00:00:00 | 00:00:00 | |
| BIOWL1-15 | 2026-09-04 00:23:22 | 53.43551 | 9.01717 | 357° | 11km/h | 25948m | -14.9m/s | -50.4°C | 0.7% | 23.2hPa | 2.6V | 08:29:44 | 02:03:52 | 00:00:00 | |
| HSKMA3-T | 2026-09-04 00:23:18 | 53.43540 | 9.01711 | 40° | 11km/h | 26004m | -14.5m/s | -50.3°C | 0.6% | 23hPa | 2.5V | 08:28:53 | 02:03:48 | 00:00:00 | |
| DO2JMG | 2026-09-04 00:23:17 | 53.43538 | 9.01707 | 53° | 11km/h | 26020m | -16m/s | -50.2°C | 0.6% | 23hPa | 2.5V | 08:28:53 | 02:03:47 | 00:00:00 | |
| DF8AY | 2026-09-04 00:23:16 | 53.43537 | 9.01704 | 57° | 9km/h | 26035m | -14.6m/s | -50.3°C | 0.6% | 22.9hPa | 2.6V | 18:12:15 | 02:03:46 | 00:00:00 | |
| DL1XH1-15 | 2026-09-04 00:23:15 | 53.43535 | 9.01691 | 92° | 11km/h | 26075m | -12.9m/s | -50.1°C | 3.7% | 22.8hPa | 2.5V | 08:28:25 | 02:03:43 | 00:00:00 | |
| AA1-15 | 2026-09-04 00:23:12 | 53.43535 | 9.01687 | 93° | 9km/h | 26090m | -16.6m/s | -50°C | 0.6% | 22.8hPa | 2.5V | 08:28:53 | 02:03:42 | 00:00:00 | |
| DL1XH-west | 2026-09-04 00:23:11 | 53.43536 | 9.01682 | 105° | 11km/h | 26105m | -14.2m/s | -49.9°C | 0.6% | 22.7hPa | 2.6V | 08:28:53 | 02:03:41 | 00:00:00 | |
| DB0DAN | 2026-09-04 00:23:10 | 53.43536 | 9.01679 | 99° | 7km/h | 26120m | -16.4m/s | -49.9°C | 1% | 22.62hPa | 2.6V | 00:00:00 | 00:00:00 | 00:00:00 | |
| HSKMA3-T | 2026-09-04 00:23:08 | 53.43537 | 9.01672 | 114° | 5km/h | 26146m | -11.8m/s | -49.9°C | 0.6% | 22.5hPa | 2.5V | 08:28:53 | 02:03:38 | 00:00:00 | |
| DL1CLM-18 | 2026-09-04 00:23:08 | 53.43538 | 9.01672 | 115° | 5km/h | 26146m | -11.8m/s | -49.9°C | 1.0% | 22.5hPa | 2.5V | 00:00:00 | 00:00:00 | 00:00:00 | |
| DL1XH1-15 | 2026-09-04 00:23:06 | 53.43539 | 9.01660 | 94° | 7km/h | 26216m | -13.3m/s | -49.7°C | 3.7% | 22.3hPa | 2.5V | 08:28:35 | 02:03:33 | 00:00:00 | |
| DF8AY | 2026-09-04 00:23:06 | 53.43538 | 9.01665 | 83° | 5km/h | 26189m | -16.5m/s | -49.7°C | 0.5% | 22.4hPa | 2.6V | 18:12:15 | 02:03:35 | 00:00:00 | |
| DO2JMG | 2026-09-04 00:23:06 | 53.43538 | 9.01668 | 93° | 4km/h | 26172m | -16.2m/s | -49.8°C | 0.5% | 22.4hPa | 2.5V | 08:28:53 | 02:03:36 | 00:00:00 | |
| AA1-15 | 2026-09-04 00:23:01 | 53.43540 | 9.01653 | 123° | 9km/h | 26244m | -15.2m/s | -49.7°C | 0.6% | 22.2hPa | 2.5V | 08:28:53 | 02:03:31 | 00:00:00 | |
| DL1ZP-14 | 2026-09-04 00:23:01 | 53.43542 | 9.01649 | 128° | 13km/h | 26259m | -15.6m/s | -49.7°C | 1.0% | 22.1hPa | 2.5V | 00:00:00 | 00:00:00 | 00:00:00 | |
| DF4FW | 2026-09-04 00:23:00 | 53.43540 | 9.01653 | 124° | 9km/h | 26244m | -15.2m/s | -49.7°C | 1.0% | 22.2hPa | 2.6V | 08:28:00 | 00:00:00 | 00:00:00 | |
| DL1XH-west | 2026-09-04 00:23:00 | 53.43542 | 9.01649 | 129° | 13km/h | 26259m | -15.6m/s | -49.7°C | 0.6% | 22.1hPa | 2.5V | 08:28:53 | 02:03:30 | 00:00:00 | |
| DO2SHX-10 | 2026-09-04 00:22:59 | 53.43544 | 9.01645 | 129° | 11km/h | 26274m | -13.9m/s | -49.7°C | 3.7% | 22.0hPa | 2.6V | 00:00:00 | 02:03:29 | 00:00:00 | |
| DM0DOS-11 | 2026-09-04 00:22:57 | 53.43546 | 9.01631 | 61° | 9km/h | 26323m | -10.8m/s | -49.7°C | 3.8% | 21.9hPa | 2.5V | 08:28:43 | 02:03:25 | 00:00:00 | |
| HSKMA3-T | 2026-09-04 00:22:57 | 53.43546 | 9.01638 | 102° | 9km/h | 26299m | -12.6m/s | -49.8°C | 0.6% | 22hPa | 2.5V | 08:28:53 | 02:03:27 | 00:00:00 | |
| DK1YY | 2026-09-04 00:22:57 | 53.43541 | 9.01622 | 41° | 11km/h | 26350m | -9.9m/s | -49.4°C | 1.0% | 21.8hPa | 2.5V | 00:00:00 | 00:00:00 | 00:00:00 | |
| DB0DAN | 2026-09-04 00:22:55 | 53.43546 | 9.01631 | 61° | 9km/h | 26323m | -10.8m/s | -49.7°C | 1% | 21.92hPa | 2.5V | 00:00:00 | 00:00:00 | 00:00:00 | |
| DO2JMG | 2026-09-04 00:22:55 | 53.43546 | 9.01631 | 61° | 9km/h | 26323m | -10.8m/s | -49.7°C | 0.6% | 21.9hPa | 2.5V | 08:28:53 | 02:03:25 | 00:00:00 | |
| HTAHTA | 2026-09-04 00:22:55 | 53.43542 | 9.01625 | 51° | 9km/h | 26341m | -8.3m/s | -49.5°C | 1.0% | 21.9hPa | 2.5V | 00:00:00 | 00:00:00 | 00:00:00 | |
| DL1XH-15 | 2026-09-04 00:22:54 | 53.43535 | 9.01615 | 38° | 13km/h | 26377m | -13.7m/s | -49.1°C | 3.5% | 21.8hPa | 2.5V | 08:28:48 | 02:03:20 | 00:00:00 | |
| BIOWL1-15 | 2026-09-04 00:22:51 | 53.43533 | 9.01610 | 52° | 15km/h | 26393m | -17.1m/s | -49.1°C | 0.5% | 21.7hPa | 2.5V | 08:29:44 | 02:03:19 | 00:00:00 | |
| SP3BTT-10 | 2026-09-04 00:22:51 | 53.43538 | 9.01618 | 34° | 11km/h | 26363m | -15.6m/s | -49.2°C | 3.5% | 21.7hPa | 2.5V | 00:00:00 | 00:00:00 | 00:00:00 | |
| DM0DOS-11 | 2026-09-04 00:22:50 | 53.43530 | 9.01586 | 104° | 16km/h | 26453m | -15.3m/s | -49.1°C | 3.6% | 21.5hPa | 2.5V | 08:28:53 | 02:03:15 | 00:00:00 | |
| AA1-15 | 2026-09-04 00:22:50 | 53.43535 | 9.01615 | 38° | 13km/h | 26377m | -13.7m/s | -49.2°C | 0.5% | 21.8hPa | 2.5V | 08:28:53 | 02:03:20 | 00:00:00 | |
| HSKMA3-T | 2026-09-04 00:22:46 | 53.43529 | 9.01593 | 90° | 15km/h | 26439m | -14.1m/s | -49.1°C | 0.5% | 21.5hPa | 2.5V | 08:28:53 | 02:03:16 | 00:00:00 | |
| DO2JMG | 2026-09-04 00:22:45 | 53.43530 | 9.01586 | 104° | 16km/h | 26453m | -15.3m/s | -49.1°C | 0.6% | 21.5hPa | 2.5V | 08:28:53 | 02:03:15 | 00:00:00 | |
| DF8AY | 2026-09-04 00:22:44 | 53.43537 | 9.01544 | 91° | 9km/h | 26543m | -11.4m/s | -48.8°C | 0.6% | 21.2hPa | 2.5V | 18:12:15 | 02:03:08 | 00:00:00 | |
| DL4BBY-15 | 2026-09-04 00:22:43 | 53.43532 | 9.01573 | 111° | 11km/h | 26483m | -12.7m/s | -48.6°C | 0% | 0hPa | 2.5V | 00:00:00 | 00:00:00 | 00:00:00 | |
| DB0DAN | 2026-09-04 00:22:40 | 53.43536 | 9.01554 | 105° | 13km/h | 26521m | -13.2m/s | -48.9°C | 1% | 21.28hPa | 2.5V | 00:00:00 | 00:00:00 | 00:00:00 | |
| AA1-15 | 2026-09-04 00:22:39 | 53.43537 | 9.01548 | 103° | 13km/h | 26533m | -10.3m/s | -48.9°C | 0.6% | 21.2hPa | 2.5V | 08:29:44 | 02:03:09 | 00:00:00 | |
| HSKMA3-T | 2026-09-04 00:22:36 | 53.43537 | 9.01536 | 89° | 11km/h | 26571m | -16.5m/s | -48.7°C | 0.5% | 21.1hPa | 2.6V | 08:29:44 | 02:03:06 | 00:00:00 | |
| DO2JMG | 2026-09-04 00:22:34 | 53.43538 | 9.01527 | 89° | 11km/h | 26602m | -12.4m/s | -48.6°C | 0.5% | 21hPa | 2.5V | 08:29:44 | 02:03:04 | 00:00:00 | |
| DF8AY-15 | 2026-09-04 00:22:34 | 53.43538 | 9.01527 | 90° | 9km/h | 26603m | -12.4m/s | -48.5°C | 3.6% | 20.9hPa | 2.5V | 00:00:00 | 02:03:04 | 00:00:00 | |
| EDDB2-11 | 2026-09-04 00:22:33 | 53.43539 | 9.01519 | 125° | 9km/h | 26625m | -10.4m/s | -48.3°C | 1.0% | 20.9hPa | 2.5V | 00:00:00 | 00:00:00 | 00:00:00 | |
| DO2SHX-10 | 2026-09-04 00:22:32 | 53.43539 | 9.01519 | 126° | 11km/h | 26626m | -10.3m/s | -48.3°C | 3.5% | 20.8hPa | 2.5V | 00:00:00 | 02:03:02 | 00:00:00 | |
| DM0DOS-11 | 2026-09-04 00:22:31 | 53.43560 | 9.01508 | 171° | 13km/h | 26750m | -12.6m/s | -47.4°C | 3.3% | 20.5hPa | 2.6V | 08:29:13 | 02:02:55 | 00:00:00 | |
| AA1-15 | 2026-09-04 00:22:29 | 53.43547 | 9.01511 | 160° | 13km/h | 26678m | -22.2m/s | -47.9°C | 0.4% | 20.8hPa | 2.5V | 08:29:44 | 02:02:59 | 00:00:00 | |
| DL1XH-west | 2026-09-04 00:22:28 | 53.43550 | 9.01510 | 172° | 13km/h | 26699m | -20.4m/s | -47.8°C | 0.3% | 20.7hPa | 2.5V | 08:29:44 | 02:02:58 | 00:00:00 | |
| HSKMA3-T | 2026-09-04 00:22:25 | 53.43560 | 9.01508 | 171° | 13km/h | 26750m | -12.6m/s | -47.4°C | 0.3% | 20.6hPa | 2.6V | 08:29:44 | 02:02:55 | 00:00:00 | |
| DO2JMG | 2026-09-04 00:22:24 | 53.43563 | 9.01507 | 185° | 11km/h | 26764m | -15.3m/s | -47.4°C | 0.3% | 20.5hPa | 2.6V | 08:29:44 | 02:02:54 | 00:00:00 | |
| BIOWL1-15 | 2026-09-04 00:22:20 | 53.43572 | 9.01507 | 168° | 5km/h | 26810m | -14.2m/s | -47.2°C | 0.2% | 20.4hPa | 2.6V | 08:29:44 | 02:02:50 | 00:00:00 | |
| AA1-15 | 2026-09-04 00:22:18 | 53.43573 | 9.01504 | 84° | 4km/h | 26839m | -13.9m/s | -47.2°C | 0.2% | 20.3hPa | 2.5V | 08:29:44 | 02:02:48 | 00:00:00 | |
| DL1XH-west | 2026-09-04 00:22:17 | 53.43573 | 9.01502 | 84° | 7km/h | 26853m | -14m/s | -47.2°C | 0.2% | 20.2hPa | 2.5V | 08:29:44 | 02:02:47 | 00:00:00 | |
| DM0DOS-11 | 2026-09-04 00:22:17 | 53.43572 | 9.01495 | 83° | 7km/h | 26883m | -19m/s | -47.1°C | 3.1% | 20.1hPa | 2.5V | 08:29:23 | 02:02:45 | 00:00:00 | |
| HSKMA3-T | 2026-09-04 00:22:15 | 53.43572 | 9.01495 | 83° | 7km/h | 26883m | -19m/s | -47.2°C | 0.2% | 20.1hPa | 2.5V | 08:29:44 | 02:02:45 | 00:00:00 | |
| DL1XH1-15 | 2026-09-04 00:22:14 | 53.43572 | 9.01488 | 109° | 9km/h | 26917m | -16.8m/s | -47.2°C | 3.2% | 20hPa | 2.6V | 08:29:25 | 02:02:43 | 00:00:00 | |
| DO2JMG | 2026-09-04 00:22:13 | 53.43572 | 9.01488 | 109° | 9km/h | 26917m | -16.8m/s | -47.2°C | 0.3% | 20.1hPa | 2.6V | 08:29:44 | 02:02:43 | 00:00:00 | |
| DB0NH | 2026-09-04 00:22:12 | 53.43573 | 9.01484 | 127° | 11km/h | 26936m | -19.3m/s | -47.2°C | 3.2% | 19.9hPa | 2.5V | 00:00:00 | 02:02:42 | 00:00:00 | |
| DO2SHX-10 | 2026-09-04 00:22:11 | 53.43575 | 9.01481 | 134° | 9km/h | 26953m | -14.8m/s | -47.3°C | 3.2% | 19.9hPa | 2.5V | 00:00:00 | 02:02:41 | 00:00:00 | |
| DM0DOS-11 | 2026-09-04 00:22:10 | 53.43584 | 9.01460 | 137° | 7km/h | 27035m | -18.3m/s | -47.3°C | 3.1% | 19.7hPa | 2.5V | 08:29:33 | 02:02:35 | 00:00:00 | |
| BIOWL1-15 | 2026-09-04 00:22:08 | 53.43586 | 9.01458 | 135° | 7km/h | 27052m | -15.8m/s | -47.4°C | 0.2% | 19.6hPa | 2.5V | 08:29:44 | 02:02:34 | 00:00:00 | |
| DL1XH1-15 | 2026-09-04 00:22:08 | 53.43588 | 9.01455 | 148° | 11km/h | 27066m | -12.7m/s | -47.4°C | 3.1% | 19.6hPa | 2.6V | 08:29:35 | 02:02:33 | 00:00:00 | |
| AA1-15 | 2026-09-04 00:22:08 | 53.43580 | 9.01471 | 120° | 11km/h | 26990m | -12.8m/s | -47.4°C | 0.2% | 19.8hPa | 2.6V | 08:29:44 | 02:02:38 | 00:00:00 | |
| DL1XH-west | 2026-09-04 00:22:07 | 53.43581 | 9.01467 | 122° | 9km/h | 27003m | -13.3m/s | -47.4°C | 0.3% | 19.8hPa | 2.6V | 08:29:44 | 02:02:37 | 00:00:00 | |
| HSKMA3-T | 2026-09-04 00:22:05 | 53.43584 | 9.01460 | 137° | 7km/h | 27035m | -18.3m/s | -47.3°C | 0.2% | 19.7hPa | 2.5V | 08:29:44 | 02:02:35 | 00:00:00 | |
| DO2JMG | 2026-09-04 00:22:02 | 53.43590 | 9.01453 | 151° | 9km/h | 27077m | -10.3m/s | -47.5°C | 0.2% | 19.5hPa | 2.6V | 08:29:44 | 02:02:32 | 00:00:00 | |
| EDDB2-11 | 2026-09-04 00:22:02 | 53.43592 | 9.01452 | 171° | 13km/h | 27088m | -10.6m/s | -47.5°C | 0.9% | 19.5hPa | 2.5V | 00:00:00 | 00:00:00 | 00:00:00 | |
| DL3AQ-11 | 2026-09-04 00:22:01 | 53.43596 | 9.01451 | 184° | 13km/h | 27100m | -14.3m/s | -47.6°C | 0.9% | 19.5hPa | 2.5V | 00:00:00 | 00:00:00 | 00:00:00 | |
| DO2SHX-10 | 2026-09-04 00:21:59 | 53.43599 | 9.01453 | 199° | 15km/h | 27114m | -13.9m/s | -47.6°C | 3.2% | 19.4hPa | 2.5V | 00:00:00 | 02:02:29 | 00:00:00 | |
| DM0DOS-11 | 2026-09-04 00:21:58 | 53.43611 | 9.01463 | 215° | 11km/h | 27162m | -11.8m/s | -47.8°C | 3.2% | 19.3hPa | 2.5V | 08:29:43 | 02:02:25 | 00:00:00 | |
| AA1-15 | 2026-09-04 00:21:57 | 53.43605 | 9.01457 | 210° | 13km/h | 27140m | -10.8m/s | -47.8°C | 0.2% | 19.4hPa | 2.6V | 08:29:44 | 02:02:27 | 00:00:00 | |
| DF8AY | 2026-09-04 00:21:56 | 53.43608 | 9.01460 | 209° | 15km/h | 27151m | -10.6m/s | -47.8°C | 0.3% | 19.3hPa | 2.6V | 18:12:15 | 02:02:26 | 00:00:00 | |
| DB0DAN | 2026-09-04 00:21:55 | 53.43611 | 9.01463 | 216° | 11km/h | 27162m | -11.8m/s | -47.8°C | 0.9% | 19.29hPa | 2.5V | 00:00:00 | 00:00:00 | 00:00:00 | |
| DK1YY | 2026-09-04 00:21:55 | 53.43611 | 9.01463 | 215° | 11km/h | 27162m | -11.8m/s | -47.8°C | 0.9% | 19.3hPa | 2.5V | 00:00:00 | 00:00:00 | 00:00:00 | |
| HSKMA3-T | 2026-09-04 00:21:55 | 53.43611 | 9.01463 | 216° | 11km/h | 27162m | -11.8m/s | -47.8°C | 0.3% | 19.3hPa | 2.5V | 08:29:44 | 02:02:25 | 00:00:00 | |
| DL1XH1-15 | 2026-09-04 00:21:54 | 53.43616 | 9.01466 | 199° | 9km/h | 27189m | -13.6m/s | -47.9°C | 3.2% | 19.2hPa | 2.5V | 08:30:00 | 02:02:23 | 00:00:00 | |
| DO2JMG | 2026-09-04 00:21:52 | 53.43619 | 9.01467 | 188° | 15km/h | 27202m | -14.1m/s | -47.9°C | 0.2% | 19.2hPa | 2.5V | 18:12:15 | 02:02:22 | 00:00:00 | |
| GOEST3-10 | 2026-09-04 00:21:52 | 53.43621 | 9.01467 | 169° | 7km/h | 27219m | -17.7m/s | -47.9°C | 3.2% | 19.1hPa | 2.6V | 00:00:00 | 02:02:21 | 00:00:00 | |
| DM0DOS-11 | 2026-09-04 00:21:51 | 53.43626 | 9.01454 | 43° | 5km/h | 27311m | -12.1m/s | -48.5°C | 3.4% | 18.9hPa | 2.6V | 08:30:00 | 02:02:15 | 00:00:00 | |
| DL3AQ-11 | 2026-09-04 00:21:50 | 53.43625 | 9.01463 | 126° | 9km/h | 27252m | -17.0m/s | -48.1°C | 0.9% | 19.1hPa | 2.5V | 00:00:00 | 00:00:00 | 00:00:00 | |
| DJ2DS-15 | 2026-09-04 00:21:49 | 53.43625 | 9.01463 | 127° | 11km/h | 27253m | -17.0m/s | -48.1°C | 3.3% | 19.0hPa | 2.5V | 00:00:00 | 02:02:19 | 00:00:00 | |
| DL1XH1-15 | 2026-09-04 00:21:48 | 53.43624 | 9.01454 | 48° | 2km/h | 27333m | -10.4m/s | -48.6°C | 3.4% | 18.8hPa | 2.5V | 08:30:00 | 02:02:13 | 00:00:00 | |
| BIOWL1-15 | 2026-09-04 00:21:47 | 53.43626 | 9.01458 | 87° | 7km/h | 27285m | -14.6m/s | -48.3°C | 0.4% | 18.9hPa | 2.5V | 18:12:15 | 02:02:17 | 00:00:00 | |
| DL1XH-west | 2026-09-04 00:21:46 | 53.43626 | 9.01456 | 82° | 4km/h | 27299m | -13.5m/s | -48.4°C | 0.4% | 18.9hPa | 2.6V | 18:12:15 | 02:02:16 | 00:00:00 | |
| DF8AY | 2026-09-04 00:21:45 | 53.43626 | 9.01454 | 43° | 5km/h | 27311m | -12.1m/s | -48.5°C | 0.4% | 18.9hPa | 2.6V | 18:12:15 | 02:02:15 | 00:00:00 | |
| HSKMA3-T | 2026-09-04 00:21:44 | 53.43625 | 9.01454 | 347° | 4km/h | 27323m | -11.1m/s | -48.5°C | 0.5% | 18.8hPa | 2.5V | 18:12:15 | 02:02:14 | 00:00:00 | |
| DO2JMG | 2026-09-04 00:21:41 | 53.43625 | 9.01452 | 145° | 7km/h | 27355m | -11.7m/s | -48.7°C | 0.4% | 18.7hPa | 2.5V | 18:12:15 | 02:02:11 | 00:00:00 | |
| DL1LOL-11 | 2026-09-04 00:21:40 | 53.43625 | 9.01452 | 146° | 7km/h | 27355m | -11.7m/s | -48.7°C | 0.9% | 18.7hPa | 2.6V | 00:00:00 | 00:00:00 | 00:00:00 | |
| DL1XH1-15 | 2026-09-04 00:21:38 | 53.43646 | 9.01414 | 120° | 18km/h | 27457m | -17.6m/s | -48.8°C | 3.4% | 18.4hPa | 2.6V | 08:30:00 | 02:02:03 | 00:00:00 | |
| DO2SHX-10 | 2026-09-04 00:21:38 | 53.43631 | 9.01443 | 136° | 16km/h | 27394m | -14.9m/s | -48.7°C | 3.4% | 18.6hPa | 2.5V | 00:00:00 | 02:02:08 | 00:00:00 | |
| DM0DOS-11 | 2026-09-04 00:21:37 | 53.43640 | 9.01427 | 133° | 18km/h | 27427m | -9.7m/s | -48.8°C | 3.5% | 18.5hPa | 2.5V | 08:30:00 | 02:02:05 | 00:00:00 | |
| AA1-15 | 2026-09-04 00:21:35 | 53.43640 | 9.01427 | 134° | 18km/h | 27428m | -9.7m/s | -48.8°C | 0.5% | 18.5hPa | 2.5V | 18:12:15 | 02:02:05 | 00:00:00 | |
| HSKMA3-T | 2026-09-04 00:21:34 | 53.43643 | 9.01421 | 129° | 20km/h | 27440m | -15.8m/s | -48.8°C | 0.4% | 18.5hPa | 2.6V | 18:12:15 | 02:02:04 | 00:00:00 | |
| DO2JMG | 2026-09-04 00:21:31 | 53.43650 | 9.01402 | 122° | 18km/h | 27488m | -11.9m/s | -48.8°C | 0.5% | 18.3hPa | 2.5V | 18:12:15 | 02:02:01 | 00:00:00 | |
| DL1XH-15 | 2026-09-04 00:21:31 | 53.43653 | 9.01395 | 116° | 18km/h | 27500m | -12.1m/s | -48.8°C | 3.6% | 18.3hPa | 2.5V | 08:30:00 | 02:02:00 | 00:00:00 | |
| GOEST3-10 | 2026-09-04 00:21:31 | 53.43650 | 9.01401 | 122° | 16km/h | 27488m | -11.8m/s | -48.7°C | 3.5% | 18.3hPa | 2.5V | 00:00:00 | 02:02:01 | 00:00:00 | |
| EDDB2-11 | 2026-09-04 00:21:30 | 53.43653 | 9.01395 | 116° | 16km/h | 27501m | -12.1m/s | -48.8°C | 1.0% | 18.3hPa | 2.5V | 00:00:00 | 00:00:00 | 00:00:00 | |
| DO2SHX-10 | 2026-09-04 00:21:29 | 53.43655 | 9.01388 | 114° | 16km/h | 27510m | -6.6m/s | -48.7°C | 3.6% | 18.2hPa | 2.5V | 00:00:00 | 02:01:59 | 08:30:00 | |
| DL1ZP-14 | 2026-09-04 00:21:28 | 53.43658 | 9.01376 | 117° | 13km/h | 27529m | -15.2m/s | -48.6°C | 1.0% | 18.2hPa | 2.6V | 00:00:00 | 00:00:00 | 00:00:00 | |
| DL1XH1-15 | 2026-09-04 00:21:25 | 53.43667 | 9.01356 | 133° | 15km/h | 27582m | -8.9m/s | -48.4°C | 3.5% | 18.1hPa | 2.6V | 08:30:00 | 02:01:53 | 00:00:00 | |
| DB0DAN | 2026-09-04 00:21:25 | 53.43662 | 9.01366 | 127° | 15km/h | 27559m | -14.5m/s | -48.5°C | 1% | 18.17hPa | 2.5V | 00:00:00 | 00:00:00 | 00:00:00 | |
| AA1-15 | 2026-09-04 00:21:25 | 53.43662 | 9.01366 | 127° | 15km/h | 27559m | -14.5m/s | -48.5°C | 0.5% | 18.2hPa | 2.5V | 18:12:15 | 02:01:55 | 00:00:00 | |
| BIOWL1-15 | 2026-09-04 00:21:25 | 53.43691 | 9.01334 | 167° | 11km/h | 27696m | -21.8m/s | -48.1°C | 0.3% | 17.8hPa | 2.6V | 18:12:15 | 02:01:46 | 00:00:00 | |
| HSKMA3-T | 2026-09-04 00:21:23 | 53.43667 | 9.01356 | 133° | 15km/h | 27582m | -8.9m/s | -48.4°C | 0.5% | 18.1hPa | 2.6V | 18:12:15 | 02:01:53 | 00:00:00 | |
| DO2SHX-10 | 2026-09-04 00:21:23 | 53.43667 | 9.01356 | 134° | 15km/h | 27582m | -8.9m/s | -48.4°C | 3.5% | 18.1hPa | 2.5V | 00:00:00 | 02:01:53 | 00:00:00 | |
| DL1XH-15 | 2026-09-04 00:21:21 | 53.43676 | 9.01344 | 152° | 18km/h | 27623m | -16.8m/s | -48.3°C | 3.4% | 18hPa | 2.5V | 08:30:00 | 02:01:50 | 00:00:00 | |
| DO2JMG | 2026-09-04 00:21:21 | 53.43672 | 9.01348 | 145° | 16km/h | 27607m | -14.9m/s | -48.4°C | 0.4% | 18hPa | 2.5V | 18:12:15 | 02:01:51 | 00:00:00 | |
| DO2SHX-10 | 2026-09-04 00:21:21 | 53.43676 | 9.01344 | 153° | 18km/h | 27623m | -16.7m/s | -48.2°C | 3.4% | 18.0hPa | 2.5V | 00:00:00 | 02:01:50 | 00:00:00 | |
| AU51GT2 | 2026-09-04 00:21:20 | 53.43680 | 9.01341 | 156° | 16km/h | 27640m | -18.2m/s | -48.2°C | 0.9% | 18.0hPa | 2.5V | 00:00:00 | 00:00:00 | 00:00:00 | |
| SONCRA | 2026-09-04 00:21:19 | 53.43680 | 9.01341 | 156° | 16km/h | 27640m | -18.2m/s | -48.2°C | -1.0% | 18.0hPa | 2.5V | 00:00:00 | 00:00:00 | 00:00:00 | |
| DO2SHX-10 | 2026-09-04 00:21:17 | 53.43688 | 9.01336 | 163° | 11km/h | 27676m | -19.8m/s | -48.0°C | 3.3% | 17.8hPa | 2.5V | 00:00:00 | 02:01:47 | 00:00:00 | |
| DL1XH1-15 | 2026-09-04 00:21:16 | 53.43696 | 9.01332 | 164° | 5km/h | 27749m | -14.7m/s | -48.1°C | 3.3% | 17.6hPa | 2.5V | 08:30:00 | 02:01:43 | 00:00:00 | |
| AA1-15 | 2026-09-04 00:21:14 | 53.43695 | 9.01333 | 168° | 7km/h | 27734m | -16m/s | -48.2°C | 0.3% | 17.7hPa | 2.5V | 18:12:15 | 02:01:44 | 00:00:00 | |
| BIOWL1-15 | 2026-09-04 00:21:13 | 53.43696 | 9.01332 | 164° | 5km/h | 27749m | -14.7m/s | -48.1°C | 0.3% | 17.6hPa | 2.5V | 18:12:15 | 02:01:43 | 00:00:00 | |
| HSKMA3-T | 2026-09-04 00:21:12 | 53.43697 | 9.01331 | 148° | 5km/h | 27766m | -19.4m/s | -48°C | 0.3% | 17.6hPa | 2.5V | 18:12:15 | 02:01:42 | 00:00:00 | |
| DL1XH-15 | 2026-09-04 00:21:11 | 53.43701 | 9.01328 | 156° | 9km/h | 27800m | -13.3m/s | -48°C | 3.3% | 17.5hPa | 2.6V | 08:30:00 | 02:01:40 | 00:00:00 | |
| DB0DAN | 2026-09-04 00:21:10 | 53.43701 | 9.01328 | 157° | 9km/h | 27800m | -13.3m/s | -48°C | 0.9% | 17.47hPa | 2.6V | 00:00:00 | 00:00:00 | 00:00:00 | |
| DM0DOS-11 | 2026-09-04 00:21:10 | 53.43720 | 9.01317 | 162° | 22km/h | 27806m | 5.7m/s | -48.1°C | 3.3% | 17.4hPa | 2.6V | 08:30:00 | 02:01:35 | 00:00:00 | |
| DO2JMG | 2026-09-04 00:21:10 | 53.43701 | 9.01328 | 157° | 9km/h | 27800m | -13.3m/s | -48°C | 0.3% | 17.5hPa | 2.6V | 18:12:15 | 02:01:40 | 00:00:00 | |
| BIOWL1-15 | 2026-09-04 00:21:04 | 53.43743 | 9.01307 | 171° | 16km/h | 27778m | 5.8m/s | -48.2°C | 0.4% | 17.5hPa | 2.6V | 18:12:15 | 02:01:30 | 00:00:00 | |
| DL1XH1-15 | 2026-09-04 00:21:04 | 53.43731 | 9.01312 | 166° | 20km/h | 27795m | 6.5m/s | -48.1°C | 3.3% | 17.5hPa | 2.5V | 08:30:00 | 02:01:33 | 00:00:00 | |
| DL1XH-west | 2026-09-04 00:21:04 | 53.43726 | 9.01314 | 165° | 22km/h | 27801m | 5.2m/s | -48.1°C | 0.4% | 17.5hPa | 2.5V | 18:12:15 | 02:01:34 | 00:00:00 | |
| AA1-15 | 2026-09-04 00:21:03 | 53.43731 | 9.01312 | 166° | 20km/h | 27795m | 6.5m/s | -48.2°C | 0.4% | 17.5hPa | 2.5V | 18:12:15 | 02:01:33 | 00:00:00 | |
| DF4FW | 2026-09-04 00:21:03 | 53.43731 | 9.01312 | 167° | 20km/h | 27795m | 6.5m/s | -48.2°C | 0.9% | 17.5hPa | 2.6V | 00:00:00 | 00:00:00 | 00:00:00 | |
| DL1XH-15 | 2026-09-04 00:21:01 | 53.43744 | 9.01307 | 170° | 16km/h | 27778m | 5.8m/s | -48.2°C | 3.3% | 17.5hPa | 2.6V | 08:30:00 | 02:01:30 | 00:00:00 | |
| HSKMA3-T | 2026-09-04 00:21:01 | 53.43739 | 9.01309 | 168° | 16km/h | 27783m | 4.8m/s | -48.2°C | 0.3% | 17.5hPa | 2.5V | 18:12:15 | 02:01:31 | 00:00:00 | |
| DO2JMG | 2026-09-04 00:20:59 | 53.43748 | 9.01306 | 172° | 18km/h | 27772m | 6.3m/s | -48.2°C | 0.4% | 17.6hPa | 2.6V | 18:12:15 | 02:01:29 | 00:00:00 | |
| DL1ZP-14 | 2026-09-04 00:20:57 | 53.43760 | 9.01304 | 176° | 9km/h | 27756m | 6.2m/s | -48.3°C | 0.9% | 17.6hPa | 2.5V | 00:00:00 | 00:00:00 | 00:00:00 | |
| DJ2DS-15 | 2026-09-04 00:20:56 | 53.43762 | 9.01304 | 189° | 5km/h | 27750m | 5.7m/s | -48.4°C | 0.9% | 17.6hPa | 2.5V | 00:00:00 | 00:00:00 | 00:00:00 | |
| DB0DAN | 2026-09-04 00:20:55 | 53.43762 | 9.01304 | 189° | 5km/h | 27750m | 5.7m/s | -48.4°C | 0.9% | 17.61hPa | 2.5V | 00:00:00 | 00:00:00 | 00:00:00 | |
| DL1XH-west | 2026-09-04 00:20:54 | 53.43764 | 9.01305 | 195° | 5km/h | 27740m | 4.9m/s | -48.3°C | 0.4% | 17.6hPa | 2.6V | 18:12:15 | 02:01:23 | 00:00:00 | |
| AA1-15 | 2026-09-04 00:20:52 | 53.43766 | 9.01306 | 179° | 9km/h | 27734m | 5.9m/s | -48.3°C | 0.4% | 17.6hPa | 2.5V | 18:12:15 | 02:01:22 | 00:00:00 | |
| DL1XH-15 | 2026-09-04 00:20:51 | 53.43774 | 9.01302 | 155° | 18km/h | 27723m | 4.8m/s | -48.2°C | 3.3% | 17.7hPa | 2.5V | 08:30:00 | 02:01:20 | 00:00:00 | |
| HSKMA3-T | 2026-09-04 00:20:51 | 53.43770 | 9.01305 | 166° | 15km/h | 27729m | 5.6m/s | -48.3°C | 0.4% | 17.7hPa | 2.5V | 18:12:15 | 02:01:21 | 00:00:00 | |
| BIOWL1-15 | 2026-09-04 00:20:51 | 53.43797 | 9.01270 | 135° | 7km/h | 27662m | 4.9m/s | -48.5°C | 0.4% | 0hPa | 2.5V | 18:12:15 | 02:01:09 | 00:00:00 | |
| DO2JMG | 2026-09-04 00:20:49 | 53.43778 | 9.01298 | 145° | 20km/h | 27719m | 4.9m/s | -48.2°C | 0.3% | 17.7hPa | 2.5V | 18:12:15 | 02:01:19 | 00:00:00 | |
| AU51GT2 | 2026-09-04 00:20:49 | 53.43782 | 9.01293 | 134° | 18km/h | 27713m | 6.2m/s | -48.2°C | 0.9% | 17.7hPa | 2.5V | 00:00:00 | 00:00:00 | 00:00:00 | |
| EDDB2-12 | 2026-09-04 00:20:48 | 53.43785 | 9.01287 | 121° | 16km/h | 27707m | 6.0m/s | -48.2°C | 0.9% | 17.7hPa | 2.5V | 00:00:00 | 00:00:00 | 00:00:00 | |
| BUE01 | 2026-09-04 00:20:46 | 53.43788 | 9.01276 | 116° | 11km/h | 27696m | 5.3m/s | -48.3°C | 0.9% | 17.8hPa | 2.5V | 00:00:00 | 00:00:00 | 00:00:00 | |
| DF8AY | 2026-09-04 00:20:42 | 53.43796 | 9.01271 | 169° | 4km/h | 27667m | 6m/s | -48.5°C | 0.4% | 17.8hPa | 2.5V | 18:12:15 | 02:01:10 | 00:00:00 | |
| AA1-15 | 2026-09-04 00:20:42 | 53.43793 | 9.01271 | 186° | 7km/h | 27679m | 4.9m/s | -48.4°C | 0.4% | 17.8hPa | 2.6V | 18:12:15 | 02:01:12 | 00:00:00 | |
| DL1XH-15 | 2026-09-04 00:20:41 | 53.43796 | 9.01271 | 168° | 4km/h | 27667m | 6m/s | -48.4°C | 3.3% | 17.8hPa | 2.5V | 08:30:00 | 02:01:10 | 00:00:00 | |
| HSKMA3-T | 2026-09-04 00:20:41 | 53.43795 | 9.01271 | 193° | 5km/h | 27673m | 6m/s | -48.4°C | 0.4% | 17.8hPa | 2.5V | 18:12:15 | 02:01:11 | 00:00:00 | |
| DB0DAN | 2026-09-04 00:20:40 | 53.43796 | 9.01271 | 169° | 4km/h | 27667m | 6m/s | -48.5°C | 0.9% | 17.84hPa | 2.5V | 00:00:00 | 00:00:00 | 00:00:00 | |
| DO2JMG | 2026-09-04 00:20:38 | 53.43799 | 9.01267 | 132° | 13km/h | 27657m | 4.7m/s | -48.5°C | 0.4% | 17.9hPa | 2.5V | 18:12:15 | 02:01:08 | 00:00:00 | |
| AA1-15 | 2026-09-04 00:20:31 | 53.43824 | 9.01219 | 127° | 16km/h | 27616m | 5m/s | -48.6°C | 0.5% | 18hPa | 2.6V | 18:12:15 | 02:01:01 | 00:00:00 | |
| HSKMA3-T | 2026-09-04 00:20:30 | 53.43827 | 9.01214 | 137° | 15km/h | 27611m | 6.5m/s | -48.6°C | 0.4% | 18hPa | 2.6V | 18:12:15 | 02:01:00 | 00:00:00 | |
| DF8AY | 2026-09-04 00:20:29 | 53.43830 | 9.01211 | 150° | 13km/h | 27605m | 6m/s | -48.6°C | 0.4% | 18hPa | 2.5V | 18:12:15 | 02:00:59 | 00:00:00 | |
| BIOWL1-15 | 2026-09-04 00:20:29 | 53.43838 | 9.01197 | 109° | 13km/h | 27576m | 4.8m/s | -48.7°C | 0.5% | 0hPa | 2.5V | 18:12:15 | 02:00:54 | 00:00:00 | |
| DO2JMG | 2026-09-04 00:20:28 | 53.43833 | 9.01208 | 158° | 11km/h | 27599m | 5.1m/s | -48.6°C | 0.4% | 18hPa | 2.5V | 18:12:15 | 02:00:58 | 00:00:00 | |
| DB0DAN | 2026-09-04 00:20:25 | 53.43838 | 9.01201 | 110° | 9km/h | 27581m | 5.3m/s | -48.7°C | 0.9% | 18.09hPa | 2.6V | 00:00:00 | 00:00:00 | 00:00:00 | |
| DL1XH1-15 | 2026-09-04 00:20:24 | 53.43840 | 9.01192 | 118° | 15km/h | 27571m | 6.4m/s | -48.7°C | 3.4% | 18.1hPa | 2.5V | 08:30:00 | 02:00:53 | 00:00:00 | |
| GOEST3-10 | 2026-09-04 00:20:24 | 53.43838 | 9.01197 | 109° | 18km/h | 27577m | 4.8m/s | -48.6°C | 3.4% | 18.0hPa | 2.6V | 00:00:00 | 02:00:54 | 00:00:00 | |
| DL1XH-15 | 2026-09-04 00:20:23 | 53.43850 | 9.01173 | 135° | 22km/h | 27554m | 4.9m/s | -48.9°C | 3.4% | 18.2hPa | 2.6V | 08:30:00 | 02:00:50 | 00:00:00 | |
| AA1-15 | 2026-09-04 00:20:20 | 53.43850 | 9.01173 | 135° | 22km/h | 27554m | 4.9m/s | -48.9°C | 0.4% | 18.2hPa | 2.6V | 18:12:15 | 02:00:50 | 00:00:00 | |
| DF8AY | 2026-09-04 00:20:19 | 53.43869 | 9.01144 | 156° | 15km/h | 27519m | 5.6m/s | -48.9°C | 0.5% | 18.2hPa | 2.6V | 18:12:15 | 02:00:44 | 00:00:00 | |
| BIOWL1-15 | 2026-09-04 00:20:19 | 53.43865 | 9.01147 | 151° | 15km/h | 27525m | 6.5m/s | -48.9°C | 0.5% | 0hPa | 2.5V | 18:12:15 | 02:00:45 | 00:00:00 | |
| DO2JMG | 2026-09-04 00:20:18 | 53.43857 | 9.01160 | 129° | 18km/h | 27542m | 5.7m/s | -48.9°C | 0.5% | 18.2hPa | 2.5V | 18:12:15 | 02:00:48 | 00:00:00 | |
| DM0DOS-11 | 2026-09-04 00:20:18 | 53.43865 | 9.01147 | 151° | 15km/h | 27525m | 6.5m/s | -48.9°C | 3.5% | 18.2hPa | 2.5V | 08:30:00 | 02:00:45 | 00:00:00 | |
| AU51GT2 | 2026-09-04 00:20:17 | 53.43860 | 9.01155 | 130° | 15km/h | 27537m | 5.0m/s | -48.9°C | 1.0% | 18.2hPa | 2.5V | 00:00:00 | 00:00:00 | 00:00:00 | |
| DL1XH-15 | 2026-09-04 00:20:16 | 53.43878 | 9.01128 | 113° | 15km/h | 27496m | 5m/s | -49°C | 3.5% | 18.3hPa | 2.5V | 08:30:00 | 02:00:40 | 00:00:00 | |
| BUE01 | 2026-09-04 00:20:15 | 53.43869 | 9.01144 | 156° | 15km/h | 27519m | 5.6m/s | -48.9°C | 1.0% | 18.2hPa | 2.5V | 00:00:00 | 00:00:00 | 00:00:00 | |
| DO2SHX-10 | 2026-09-04 00:20:14 | 53.43869 | 9.01144 | 157° | 15km/h | 27519m | 5.5m/s | -48.9°C | 3.5% | 18.2hPa | 2.5V | 00:00:00 | 02:00:44 | 00:00:00 | |
| DL4BBY-15 | 2026-09-04 00:20:13 | 53.43872 | 9.01142 | 152° | 9km/h | 27514m | 5.0m/s | -48.4°C | 0% | 0hPa | 2.5V | 00:00:00 | 00:00:00 | 00:00:00 | |
| DL8OAI-8 | 2026-09-04 00:20:12 | 53.43875 | 9.01138 | 139° | 13km/h | 27509m | 6.6m/s | -48.9°C | 1.0% | 18.3hPa | 2.5V | 00:00:00 | 00:00:00 | 00:00:00 | |
| DO2SHX-10 | 2026-09-04 00:20:11 | 53.43877 | 9.01134 | 118° | 15km/h | 27502m | 6.2m/s | -48.9°C | 3.5% | 18.2hPa | 2.5V | 00:00:00 | 02:00:41 | 00:00:00 | |
| DM0DOS-11 | 2026-09-04 00:20:10 | 53.43889 | 9.01103 | 124° | 13km/h | 27467m | 6.9m/s | -49°C | 3.5% | 18.4hPa | 2.5V | 08:30:00 | 02:00:35 | 00:00:00 | |
| HSKMA3-T | 2026-09-04 00:20:10 | 53.43878 | 9.01128 | 113° | 15km/h | 27496m | 5m/s | -49°C | 0.5% | 18.3hPa | 2.5V | 18:12:15 | 02:00:40 | 00:00:00 | |
| AA1-15 | 2026-09-04 00:20:09 | 53.43880 | 9.01123 | 118° | 15km/h | 27491m | 6m/s | -49°C | 0.5% | 18.3hPa | 2.5V | 18:12:15 | 02:00:39 | 00:00:00 | |
| DO2JMG | 2026-09-04 00:20:07 | 53.43884 | 9.01112 | 134° | 16km/h | 27478m | 5.5m/s | -49°C | 0.5% | 18.4hPa | 2.6V | 18:12:15 | 02:00:37 | 00:00:00 | |
| DB0UT-7 | 2026-09-04 00:20:06 | 53.43887 | 9.01108 | 133° | 9km/h | 27473m | 5.4m/s | -49.0°C | 3.5% | 18.3hPa | 2.5V | 00:00:00 | 00:00:00 | 00:00:00 | |
| DO2SHX-10 | 2026-09-04 00:20:05 | 53.43889 | 9.01103 | 125° | 13km/h | 27467m | 6.8m/s | -49.0°C | 3.5% | 18.3hPa | 2.5V | 00:00:00 | 02:00:35 | 00:00:00 | |
| S3001 | 2026-09-04 00:20:04 | 53.43892 | 9.01094 | 116° | 11km/h | 27455m | 5.7m/s | -49.0°C | 1.0% | 18.4hPa | 2.5V | 00:00:00 | 00:00:00 | 00:00:00 | |
| DL1XH-15 | 2026-09-04 00:20:03 | 53.43898 | 9.01085 | 149° | 11km/h | 27436m | 5.1m/s | -48.9°C | 3.5% | 18.5hPa | 2.5V | 08:30:00 | 02:00:30 | 00:00:00 | |
| AA1-15 | 2026-09-04 00:19:59 | 53.43900 | 9.01082 | 143° | 9km/h | 27431m | 5.1m/s | -48.9°C | 0.5% | 18.5hPa | 2.5V | 18:12:15 | 02:00:29 | 00:00:00 | |
| DL1XH-west | 2026-09-04 00:19:58 | 53.43901 | 9.01080 | 119° | 7km/h | 27426m | 6.4m/s | -48.9°C | 0.5% | 18.5hPa | 2.5V | 18:12:15 | 02:00:28 | 00:00:00 | |
| DM0DOS-11 | 2026-09-04 00:19:58 | 53.43900 | 9.01069 | 71° | 9km/h | 27408m | 5.5m/s | -48.9°C | 3.5% | 18.6hPa | 2.5V | 08:30:00 | 02:00:25 | 00:00:00 | |
| DO2JMG | 2026-09-04 00:19:57 | 53.43901 | 9.01076 | 88° | 9km/h | 27419m | 6.4m/s | -48.9°C | 0.5% | 18.5hPa | 2.6V | 18:12:15 | 02:00:27 | 00:00:00 | |
| DB0DAN | 2026-09-04 00:19:55 | 53.43900 | 9.01069 | 71° | 9km/h | 27408m | 5.5m/s | -48.9°C | 1% | 18.55hPa | 2.5V | 00:00:00 | 00:00:00 | 00:00:00 | |
| DL1ZP-14 | 2026-09-04 00:19:55 | 53.43900 | 9.01066 | 81° | 5km/h | 27402m | 6.4m/s | -48.9°C | 1.0% | 18.6hPa | 2.5V | 00:00:00 | 00:00:00 | 00:00:00 | |
| DL4XJ-10 | 2026-09-04 00:19:54 | 53.43900 | 9.01066 | 82° | 5km/h | 27402m | 6.4m/s | -48.3°C | 0% | 0hPa | 2.6V | 00:00:00 | 00:00:00 | 00:00:00 | |
| DO2SHX-10 | 2026-09-04 00:19:53 | 53.43900 | 9.01064 | 100° | 4km/h | 27396m | 5.7m/s | -48.8°C | 3.5% | 18.5hPa | 2.6V | 00:00:00 | 02:00:23 | 00:00:00 | |
| DM0DOS-11 | 2026-09-04 00:19:51 | 53.43904 | 9.01055 | 155° | 11km/h | 27350m | 5m/s | -48.6°C | 3.5% | 18.7hPa | 2.6V | 08:30:00 | 02:00:15 | 00:00:00 | |
| HSKMA3-T | 2026-09-04 00:19:49 | 53.43899 | 9.01059 | 51° | 4km/h | 27373m | 4.8m/s | -48.8°C | 0.5% | 18.6hPa | 2.5V | 18:12:15 | 02:00:19 | 00:00:00 | |
| AA1-15 | 2026-09-04 00:19:48 | 53.43899 | 9.01058 | 105° | 2km/h | 27368m | 4.9m/s | -48.7°C | 0.5% | 18.7hPa | 2.5V | 18:12:15 | 02:00:18 | 00:00:00 | |
| DL1XH-west | 2026-09-04 00:19:47 | 53.43900 | 9.01057 | 151° | 5km/h | 27363m | 6.9m/s | -48.7°C | 0.5% | 18.7hPa | 2.5V | 18:12:15 | 02:00:17 | 00:00:00 | |
| DO2JMG | 2026-09-04 00:19:46 | 53.43901 | 9.01056 | 162° | 9km/h | 27356m | 6.2m/s | -48.7°C | 0.6% | 18.7hPa | 2.5V | 18:12:15 | 02:00:16 | 00:00:00 | |
| EDDB2-12 | 2026-09-04 00:19:45 | 53.43904 | 9.01055 | 155° | 11km/h | 27351m | 5.0m/s | -48.6°C | 1.0% | 18.7hPa | 2.6V | 00:00:00 | 00:00:00 | 00:00:00 | |
| BUE01 | 2026-09-04 00:19:44 | 53.43908 | 9.01049 | 122° | 9km/h | 27339m | 6.6m/s | -48.6°C | 1.0% | 18.7hPa | 2.6V | 00:00:00 | 00:00:00 | 00:00:00 | |
| DL4BBY-15 | 2026-09-04 00:19:43 | 53.43908 | 9.01049 | 123° | 11km/h | 27339m | 6.5m/s | -48.1°C | 0% | 0hPa | 2.6V | 00:00:00 | 00:00:00 | 00:00:00 | |
| DB0DAN | 2026-09-04 00:19:40 | 53.43909 | 9.01036 | 97° | 11km/h | 27323m | 5.7m/s | -48.5°C | 1% | 18.8hPa | 2.6V | 00:00:00 | 00:00:00 | 00:00:00 | |
| HSKMA3-T | 2026-09-04 00:19:39 | 53.43910 | 9.01032 | 109° | 9km/h | 27317m | 6.1m/s | -48.5°C | 0.5% | 18.8hPa | 2.6V | 18:12:15 | 02:00:09 | 00:00:00 | |
| DF8AY | 2026-09-04 00:19:38 | 53.43911 | 9.01029 | 129° | 7km/h | 27311m | 5.8m/s | -48.4°C | 0.5% | 18.8hPa | 2.5V | 18:12:15 | 02:00:08 | 00:00:00 | |
| BIOWL1-15 | 2026-09-04 00:19:38 | 53.43912 | 9.01029 | 308° | 5km/h | 27294m | 6.7m/s | -48.3°C | 0.5% | 0hPa | 2.5V | 18:12:15 | 02:00:05 | 00:00:00 | |
| DM0DOS-11 | 2026-09-04 00:19:38 | 53.43912 | 9.01029 | 307° | 5km/h | 27294m | 6.7m/s | -48.3°C | 3.5% | 18.9hPa | 2.5V | 08:30:00 | 02:00:05 | 00:00:00 | |
| DL1XH-west | 2026-09-04 00:19:37 | 53.43912 | 9.01027 | 157° | 4km/h | 27306m | 4.9m/s | -48.4°C | 0.4% | 18.9hPa | 2.5V | 18:12:15 | 02:00:07 | 00:00:00 | |
| DO2JMG | 2026-09-04 00:19:36 | 53.43912 | 9.01027 | 261° | 2km/h | 27300m | 5.8m/s | -48.4°C | 0.5% | 18.8hPa | 2.5V | 18:12:15 | 02:00:06 | 00:00:00 | |
| DB0UT-7 | 2026-09-04 00:19:36 | 53.43912 | 9.01027 | 262° | 11km/h | 27301m | 5.8m/s | -48.3°C | 3.4% | 18.8hPa | 2.5V | 00:00:00 | 02:00:06 | 00:00:00 | |
| DO2SHX-10 | 2026-09-04 00:19:35 | 53.43912 | 9.01029 | 308° | 9km/h | 27295m | 6.7m/s | -48.3°C | 3.5% | 18.8hPa | 2.5V | 00:00:00 | 02:00:05 | 00:00:00 | |
| DL3AQ-11 | 2026-09-04 00:19:34 | 53.43910 | 9.01035 | 289° | 11km/h | 27283m | 5.1m/s | -48.3°C | 0.9% | 18.9hPa | 2.5V | 00:00:00 | 00:00:00 | 00:00:00 | |
| DO2SHX-10 | 2026-09-04 00:19:32 | 53.43909 | 9.01040 | 271° | 13km/h | 27277m | 6.7m/s | -48.2°C | 3.5% | 18.9hPa | 2.5V | 00:00:00 | 02:00:02 | 00:00:00 | |
| BIOWL9-15 | 2026-09-04 00:19:31 | 53.43910 | 9.01045 | 246° | 13km/h | 27271m | 6.3m/s | -48.3°C | 1.0% | 19.0hPa | 2.5V | 00:00:00 | 00:00:00 | 00:00:00 | |
| DM0DOS-11 | 2026-09-04 00:19:30 | 53.43922 | 9.01057 | 164° | 9km/h | 27237m | 5.3m/s | -48.1°C | 3.4% | 19.1hPa | 2.5V | 08:30:00 | 01:59:55 | 00:00:00 | |
| HSKMA3-T | 2026-09-04 00:19:28 | 53.43916 | 9.01057 | 210° | 9km/h | 27253m | 6.8m/s | -48.2°C | 0.4% | 19hPa | 2.6V | 18:12:15 | 01:59:58 | 00:00:00 | |
| DL1XH-west | 2026-09-04 00:19:27 | 53.43918 | 9.01058 | 187° | 7km/h | 27247m | 5.7m/s | -48.2°C | 0.4% | 19hPa | 2.6V | 18:12:15 | 01:59:57 | 00:00:00 | |
| AA1-15 | 2026-09-04 00:19:26 | 53.43920 | 9.01058 | 165° | 7km/h | 27242m | 4.9m/s | -48.1°C | 0.5% | 19hPa | 2.5V | 18:12:15 | 01:59:56 | 00:00:00 | |
| DB0DAN | 2026-09-04 00:19:25 | 53.43921 | 9.01057 | 164° | 9km/h | 27237m | 5.4m/s | -48.1°C | 1% | 19.06hPa | 2.5V | 00:00:00 | 00:00:00 | 00:00:00 | |
| DO2JMG | 2026-09-04 00:19:25 | 53.43921 | 9.01057 | 164° | 9km/h | 27237m | 5.4m/s | -48.1°C | 0.5% | 19.1hPa | 2.5V | 18:12:15 | 01:59:55 | 00:00:00 | |
| DL1XH1-15 | 2026-09-04 00:19:24 | 53.43927 | 9.01056 | 181° | 15km/h | 27224m | 6.5m/s | -48°C | 3.4% | 19.1hPa | 2.5V | 08:30:00 | 01:59:53 | 00:00:00 | |
| DL1ZP-14 | 2026-09-04 00:19:24 | 53.43927 | 9.01056 | 181° | 15km/h | 27224m | 6.5m/s | -48.0°C | 0.9% | 19.1hPa | 2.5V | 00:00:00 | 00:00:00 | 00:00:00 | |
| DO2SHX-10 | 2026-09-04 00:19:23 | 53.43927 | 9.01056 | 182° | 15km/h | 27224m | 6.4m/s | -48.0°C | 3.4% | 19.0hPa | 2.5V | 00:00:00 | 01:59:53 | 00:00:00 | |
| DL1LOL-11 | 2026-09-04 00:19:21 | 53.43931 | 9.01057 | 192° | 16km/h | 27218m | 5.3m/s | -48.0°C | 0.9% | 19.1hPa | 2.5V | 00:00:00 | 00:00:00 | 00:00:00 | |
| DK1YY | 2026-09-04 00:19:20 | 53.43941 | 9.01067 | 251° | 7km/h | 27194m | 5.8m/s | -48.0°C | 1.0% | 19.2hPa | 2.5V | 00:00:00 | 00:00:00 | 00:00:00 | |
| DL1XH1-15 | 2026-09-04 00:19:18 | 53.43950 | 9.01084 | 194° | 9km/h | 27165m | 6.4m/s | -48°C | 3.4% | 19.2hPa | 2.5V | 08:30:00 | 01:59:43 | 00:00:00 | |
| HSKMA3-T | 2026-09-04 00:19:18 | 53.43941 | 9.01067 | 252° | 9km/h | 27194m | 5.8m/s | -48°C | 0.5% | 19.2hPa | 2.5V | 18:12:15 | 01:59:48 | 00:00:00 | |
| DM0DOS-11 | 2026-09-04 00:19:17 | 53.43945 | 9.01079 | 220° | 13km/h | 27176m | 5.5m/s | -48°C | 3.4% | 19.2hPa | 2.5V | 08:30:00 | 01:59:45 | 00:00:00 | |
| DF8AY | 2026-09-04 00:19:17 | 53.43943 | 9.01075 | 237° | 11km/h | 27182m | 6.9m/s | -48°C | 0.4% | 19.2hPa | 2.6V | 18:12:15 | 01:59:46 | 00:00:00 | |
| AA1-15 | 2026-09-04 00:19:15 | 53.43945 | 9.01079 | 221° | 13km/h | 27176m | 5.5m/s | -48°C | 0.4% | 19.2hPa | 2.5V | 18:12:15 | 01:59:45 | 00:00:00 | |
| DO2JMG | 2026-09-04 00:19:14 | 53.43947 | 9.01082 | 209° | 13km/h | 27170m | 5.1m/s | -48°C | 0.4% | 19.2hPa | 2.5V | 18:12:15 | 01:59:44 | 00:00:00 | |
| DF8AY-15 | 2026-09-04 00:19:14 | 53.43947 | 9.01082 | 210° | 9km/h | 27171m | 5.0m/s | -47.9°C | 3.4% | 19.2hPa | 2.6V | 00:00:00 | 01:59:44 | 00:00:00 | |
| DL4BBY-15 | 2026-09-04 00:19:13 | 53.43950 | 9.01084 | 195° | 9km/h | 27165m | 6.3m/s | -47.4°C | 0% | 0hPa | 2.6V | 00:00:00 | 00:00:00 | 00:00:00 | |
| DB0DAN | 2026-09-04 00:19:10 | 53.43956 | 9.01081 | 149° | 9km/h | 27147m | 5.6m/s | -47.8°C | 0.9% | 19.33hPa | 2.6V | 00:00:00 | 00:00:00 | 00:00:00 | |
| DM0DOS-11 | 2026-09-04 00:19:10 | 53.43966 | 9.01082 | 249° | 5km/h | 27117m | 6.7m/s | -47.6°C | 3.3% | 19.4hPa | 2.6V | 08:30:00 | 01:59:35 | 00:00:00 | |
| BIOWL1-15 | 2026-09-04 00:19:08 | 53.43965 | 9.01080 | 215° | 7km/h | 27123m | 6.3m/s | -47.7°C | 0.4% | 0hPa | 2.5V | 18:12:15 | 01:59:36 | 00:00:00 | |
| HSKMA3-T | 2026-09-04 00:19:07 | 53.43963 | 9.01079 | 195° | 9km/h | 27129m | 5.4m/s | -47.7°C | 0.4% | 19.4hPa | 2.5V | 18:12:15 | 01:59:37 | 00:00:00 | |
| AA1-15 | 2026-09-04 00:19:05 | 53.43965 | 9.01082 | 250° | 5km/h | 27117m | 6.7m/s | -47.6°C | 0.4% | 19.4hPa | 2.6V | 18:12:15 | 01:59:35 | 00:00:00 | |
| DL1XH1-15 | 2026-09-04 00:19:04 | 53.43966 | 9.01087 | 254° | 7km/h | 27105m | 5.4m/s | -47.6°C | 3.3% | 19.4hPa | 2.5V | 08:30:00 | 01:59:33 | 00:00:00 | |
| DO2JMG | 2026-09-04 00:19:04 | 53.43966 | 9.01085 | 266° | 7km/h | 27110m | 5.4m/s | -47.6°C | 0.3% | 19.4hPa | 2.6V | 18:12:15 | 01:59:34 | 00:00:00 | |
| GOEST3-10 | 2026-09-04 00:19:04 | 53.43966 | 9.01084 | 266° | 9km/h | 27111m | 5.4m/s | -47.5°C | 3.3% | 19.4hPa | 2.6V | 00:00:00 | 00:00:00 | 00:00:00 | |
| S3001 | 2026-09-04 00:19:01 | 53.43969 | 9.01094 | 212° | 11km/h | 27093m | 5.6m/s | -47.6°C | 0.9% | 19.5hPa | 2.5V | 00:00:00 | 00:00:00 | 00:00:00 | |
| BIOWL9-15 | 2026-09-04 00:19:00 | 53.43979 | 9.01091 | 125° | 11km/h | 27069m | 5.6m/s | -47.6°C | 0.9% | 19.5hPa | 2.5V | 00:00:00 | 00:00:00 | 00:00:00 | |
| DO2SHX-10 | 2026-09-04 00:18:59 | 53.43974 | 9.01096 | 171° | 11km/h | 27082m | 6.0m/s | -47.6°C | 3.3% | 19.4hPa | 2.5V | 00:00:00 | 01:59:29 | 00:00:00 | |
| DM0DOS-11 | 2026-09-04 00:18:57 | 53.43983 | 9.01081 | 130° | 15km/h | 27057m | 6.4m/s | -47.5°C | 3.3% | 19.6hPa | 2.5V | 08:30:00 | 01:59:25 | 00:00:00 | |
| HSKMA3-T | 2026-09-04 00:18:56 | 53.43981 | 9.01086 | 123° | 13km/h | 27063m | 5.5m/s | -47.5°C | 0.3% | 19.6hPa | 2.5V | 18:12:15 | 01:59:26 | 00:00:00 | |
| EDDB2-11 | 2026-09-04 00:18:56 | 53.43983 | 9.01081 | 130° | 13km/h | 27058m | 6.4m/s | -47.5°C | 0.9% | 19.6hPa | 2.5V | 00:00:00 | 00:00:00 | 00:00:00 | |
| DB0DAN | 2026-09-04 00:18:55 | 53.43983 | 9.01081 | 131° | 13km/h | 27058m | 6.4m/s | -47.5°C | 0.9% | 19.58hPa | 2.5V | 00:00:00 | 00:00:00 | 00:00:00 | |
| DL1XH-west | 2026-09-04 00:18:55 | 53.43983 | 9.01081 | 131° | 15km/h | 27058m | 6.4m/s | -47.5°C | 0.4% | 19.6hPa | 2.5V | 18:12:15 | 01:59:25 | 00:00:00 | |
| DO2JMG | 2026-09-04 00:18:54 | 53.43985 | 9.01078 | 143° | 13km/h | 27052m | 5.6m/s | -47.5°C | 0.4% | 19.6hPa | 2.6V | 18:12:15 | 01:59:24 | 00:00:00 | |
| DL3AQ-11 | 2026-09-04 00:18:53 | 53.43987 | 9.01075 | 153° | 9km/h | 27046m | 4.9m/s | -47.5°C | 0.9% | 19.6hPa | 2.5V | 00:00:00 | 00:00:00 | 00:00:00 | |
| DL1ZP-14 | 2026-09-04 00:18:52 | 53.43989 | 9.01074 | 164° | 4km/h | 27041m | 5.4m/s | -47.6°C | 0.9% | 19.6hPa | 2.5V | 00:00:00 | 00:00:00 | 00:00:00 | |
| DM0DOS-11 | 2026-09-04 00:18:51 | 53.43993 | 9.01074 | 145° | 13km/h | 27001m | 4.8m/s | -47.5°C | 3.3% | 19.7hPa | 2.5V | 08:30:00 | 01:59:15 | 00:00:00 | |
| DK1YY | 2026-09-04 00:18:49 | 53.43988 | 9.01076 | 262° | 0km/h | 27018m | 6.4m/s | -47.6°C | 0.9% | 19.7hPa | 2.5V | 00:00:00 | 00:00:00 | 00:00:00 | |
| HTAHTA | 2026-09-04 00:18:46 | 53.43991 | 9.01076 | 159° | 9km/h | 27006m | 4.8m/s | -47.6°C | 0.9% | 19.7hPa | 2.5V | 00:00:00 | 00:00:00 | 00:00:00 | |
| BIOWL1-15 | 2026-09-04 00:18:45 | 53.44005 | 9.01039 | 133° | 11km/h | 26961m | 5m/s | -47.5°C | 0.3% | 0hPa | 2.5V | 18:12:15 | 01:59:08 | 00:00:00 | |
| HSKMA3-T | 2026-09-04 00:18:45 | 53.43993 | 9.01074 | 146° | 13km/h | 27001m | 4.8m/s | -47.5°C | 0.4% | 19.7hPa | 2.5V | 18:12:15 | 01:59:15 | 00:00:00 | |
| DL1XH-west | 2026-09-04 00:18:44 | 53.43995 | 9.01070 | 131° | 13km/h | 26996m | 6.2m/s | -47.5°C | 0.4% | 19.8hPa | 2.5V | 18:12:15 | 01:59:14 | 00:00:00 | |
| DL1XH1-15 | 2026-09-04 00:18:44 | 53.43997 | 9.01065 | 114° | 15km/h | 26989m | 6.2m/s | -47.5°C | 3.3% | 19.8hPa | 2.5V | 08:30:00 | 01:59:13 | 00:00:00 | |
| DO2JMG | 2026-09-04 00:18:43 | 53.43997 | 9.01065 | 115° | 15km/h | 26989m | 6.2m/s | -47.5°C | 0.3% | 19.8hPa | 2.5V | 18:12:15 | 01:59:13 | 00:00:00 | |
| DL4BBY-15 | 2026-09-04 00:18:43 | 53.43997 | 9.01065 | 115° | 7km/h | 26989m | 6.1m/s | -47.0°C | 0% | 0hPa | 2.5V | 00:00:00 | 00:00:00 | 00:00:00 | |
| DB0DAN | 2026-09-04 00:18:40 | 53.44001 | 9.01048 | 116° | 15km/h | 26972m | 6.6m/s | -47.5°C | 0.9% | 19.85hPa | 2.5V | 00:00:00 | 00:00:00 | 00:00:00 | |
| GOEST3-10 | 2026-09-04 00:18:40 | 53.44001 | 9.01048 | 117° | 11km/h | 26973m | 6.6m/s | -47.4°C | 3.3% | 19.8hPa | 2.5V | 00:00:00 | 00:00:00 | 00:00:00 | |
| SMARD9-15 | 2026-09-04 00:18:39 | 53.44005 | 9.01039 | 133° | 11km/h | 26961m | 5.0m/s | -47.5°C | 0.9% | 19.9hPa | 2.5V | 00:00:00 | 00:00:00 | 00:00:00 | |
| DL1XH1-15 | 2026-09-04 00:18:38 | 53.44009 | 9.01027 | 162° | 4km/h | 26932m | 6.8m/s | -47.4°C | 3.3% | 20hPa | 2.5V | 08:30:00 | 01:59:03 | 00:00:00 | |
| DO2SHX-10 | 2026-09-04 00:18:38 | 53.44005 | 9.01039 | 134° | 9km/h | 26961m | 4.9m/s | -47.4°C | 3.3% | 19.8hPa | 2.5V | 00:00:00 | 01:59:08 | 00:00:00 | |
| DM0DOS-11 | 2026-09-04 00:18:37 | 53.44008 | 9.01030 | 98° | 5km/h | 26943m | 5.4m/s | -47.5°C | 3.3% | 19.9hPa | 2.6V | 08:30:00 | 01:59:05 | 00:00:00 | |
| BIOWL1-15 | 2026-09-04 00:18:37 | 53.44008 | 9.01030 | 98° | 5km/h | 26943m | 5.4m/s | -47.5°C | 0% | 0hPa | 2.6V | 18:12:15 | 01:59:05 | 00:00:00 | |
| DB0UT-7 | 2026-09-04 00:18:36 | 53.44008 | 9.01032 | 112° | 5km/h | 26950m | 6.3m/s | -47.4°C | 3.3% | 19.8hPa | 2.6V | 00:00:00 | 01:59:06 | 00:00:00 | |
| DL1XH-15 | 2026-09-04 00:18:35 | 53.44013 | 9.01027 | 155° | 5km/h | 26914m | 6.5m/s | -47.4°C | 3.2% | 20hPa | 2.6V | 08:30:00 | 01:59:00 | 00:00:00 | |
| DL1XH-west | 2026-09-04 00:18:34 | 53.44008 | 9.01028 | 115° | 4km/h | 26938m | 5.4m/s | -47.4°C | 0.3% | 19.9hPa | 2.5V | 18:12:15 | 01:59:04 | 00:00:00 | |
| AA1-15 | 2026-09-04 00:18:33 | 53.44009 | 9.01027 | 163° | 4km/h | 26932m | 6.8m/s | -47.4°C | 0.3% | 20hPa | 2.5V | 18:12:15 | 01:59:03 | 00:00:00 | |
| DO2JMG | 2026-09-04 00:18:32 | 53.44010 | 9.01027 | 186° | 5km/h | 26925m | 5.5m/s | -47.4°C | 0.3% | 20hPa | 2.5V | 18:12:15 | 01:59:02 | 00:00:00 | |
| DO2SHX-10 | 2026-09-04 00:18:32 | 53.44010 | 9.01027 | 186° | 5km/h | 26926m | 5.5m/s | -47.4°C | 3.3% | 19.9hPa | 2.6V | 00:00:00 | 01:59:02 | 00:00:00 | |
| DJ2DS-15 | 2026-09-04 00:18:31 | 53.44011 | 9.01027 | 176° | 5km/h | 26921m | 5.0m/s | -47.4°C | 0.9% | 20.0hPa | 2.6V | 00:00:00 | 00:00:00 | 00:00:00 | |
| DM0DOS-11 | 2026-09-04 00:18:30 | 53.44017 | 9.01016 | 158° | 7km/h | 26885m | 5.8m/s | -47.4°C | 3.2% | 20.1hPa | 2.6V | 08:30:00 | 01:58:55 | 00:00:00 | |
| BIOWL1-15 | 2026-09-04 00:18:27 | 53.44017 | 9.01016 | 159° | 9km/h | 26885m | 5.8m/s | -47.4°C | 0% | 0hPa | 2.6V | 18:12:15 | 01:58:55 | 00:00:00 | |
| DB0DAN | 2026-09-04 00:18:25 | 53.44017 | 9.01016 | 159° | 7km/h | 26885m | 5.8m/s | -47.4°C | 0.9% | 20.09hPa | 2.6V | 00:00:00 | 00:00:00 | 00:00:00 | |
| DL1XH1-15 | 2026-09-04 00:18:24 | 53.44021 | 9.01015 | 178° | 7km/h | 26874m | 5.9m/s | -47.4°C | 3.2% | 20.1hPa | 2.5V | 08:30:00 | 01:58:53 | 00:00:00 | |
| HSKMA3-T | 2026-09-04 00:18:24 | 53.44019 | 9.01015 | 173° | 9km/h | 26879m | 5.4m/s | -47.4°C | 0.3% | 20.1hPa | 2.6V | 18:12:15 | 01:58:54 | 00:00:00 | |
| DL1XH-15 | 2026-09-04 00:18:23 | 53.44024 | 9.01013 | 138° | 4km/h | 26857m | 4.5m/s | -47.4°C | 3.2% | 20.2hPa | 2.5V | 08:30:00 | 01:58:50 | 00:00:00 | |
| AA1-15 | 2026-09-04 00:18:22 | 53.44022 | 9.01014 | 169° | 4km/h | 26868m | 6.6m/s | -47.4°C | 0.2% | 20.1hPa | 2.5V | 18:12:15 | 01:58:52 | 00:00:00 | |
| DO2JMG | 2026-09-04 00:18:21 | 53.44023 | 9.01014 | 134° | 4km/h | 26862m | 5.3m/s | -47.4°C | 0.3% | 20.2hPa | 2.5V | 18:12:15 | 01:58:51 | 00:00:00 | |
| DO2SHX-10 | 2026-09-04 00:18:20 | 53.44024 | 9.01013 | 139° | 5km/h | 26857m | 4.5m/s | -47.3°C | 3.2% | 20.2hPa | 2.5V | 00:00:00 | 01:58:50 | 08:30:00 | |
| DL1XH1-15 | 2026-09-04 00:18:18 | 53.44035 | 9.01019 | 273° | 2km/h | 26817m | 5.3m/s | -47.5°C | 3.2% | 20.3hPa | 2.6V | 08:30:00 | 01:58:43 | 00:00:00 | |
| DM0DOS-11 | 2026-09-04 00:18:17 | 53.44033 | 9.01016 | 212° | 9km/h | 26829m | 6.1m/s | -47.5°C | 3.2% | 20.3hPa | 2.5V | 08:30:00 | 01:58:45 | 00:00:00 | |
| HSKMA3-T | 2026-09-04 00:18:14 | 53.44035 | 9.01018 | 236° | 5km/h | 26823m | 6.3m/s | -47.5°C | 0.3% | 20.3hPa | 2.5V | 18:12:15 | 01:58:44 | 00:00:00 | |
| DL1XH-west | 2026-09-04 00:18:13 | 53.44035 | 9.01019 | 274° | 2km/h | 26817m | 5.3m/s | -47.5°C | 0.3% | 20.3hPa | 2.6V | 18:12:15 | 01:58:43 | 00:00:00 | |
| BIOWL1-15 | 2026-09-04 00:18:12 | 53.44035 | 9.01020 | 279° | 2km/h | 26811m | 5.3m/s | -47.6°C | 0% | 0hPa | 2.6V | 18:12:15 | 01:58:42 | 00:00:00 | |
| AA1-15 | 2026-09-04 00:18:11 | 53.44035 | 9.01020 | 194° | 2km/h | 26806m | 6.4m/s | -47.6°C | 0.3% | 20.3hPa | 2.5V | 18:12:15 | 01:58:41 | 00:00:00 | |
| BUE01 | 2026-09-04 00:18:11 | 53.44036 | 9.01020 | 175° | 5km/h | 26800m | 6.5m/s | -47.6°C | 0.9% | 20.3hPa | 2.5V | 00:00:00 | 00:00:00 | 00:00:00 | |
| DM0DOS-11 | 2026-09-04 00:18:10 | 53.44044 | 9.01015 | 149° | 7km/h | 26771m | 4.9m/s | -47.7°C | 3.2% | 20.4hPa | 2.5V | 08:30:00 | 01:58:35 | 00:00:00 | |
| GOEST3-10 | 2026-09-04 00:18:10 | 53.44036 | 9.01020 | 176° | 7km/h | 26800m | 6.5m/s | -47.5°C | 3.2% | 20.3hPa | 2.5V | 00:00:00 | 00:00:00 | 00:00:00 | |
| DJ2DS-15 | 2026-09-04 00:18:09 | 53.44038 | 9.01020 | 171° | 9km/h | 26794m | 5.4m/s | -47.6°C | 3.2% | 20.3hPa | 2.5V | 00:00:00 | 01:58:39 | 08:30:00 | |
| DO2SHX-10 | 2026-09-04 00:18:08 | 53.44040 | 9.01019 | 163° | 7km/h | 26788m | 5.5m/s | -47.6°C | 3.2% | 20.3hPa | 2.5V | 00:00:00 | 01:58:38 | 00:00:00 | |
| SMARD9-15 | 2026-09-04 00:18:07 | 53.44041 | 9.01018 | 148° | 5km/h | 26782m | 6.4m/s | -47.7°C | 0.9% | 20.4hPa | 2.5V | 00:00:00 | 00:00:00 | 00:00:00 | |
| DB0UT-7 | 2026-09-04 00:18:06 | 53.44042 | 9.01016 | 141° | 9km/h | 26776m | 5.2m/s | -47.7°C | 3.2% | 20.4hPa | 2.5V | 00:00:00 | 00:00:00 | 00:00:00 | |
| SMARD9-10 | 2026-09-04 00:18:05 | 53.44042 | 9.01016 | 142° | 7km/h | 26776m | 5.3m/s | -47.7°C | 0.9% | 20.4hPa | 2.5V | 00:00:00 | 00:00:00 | 00:00:00 | |
| DL1XH1-15 | 2026-09-04 00:18:04 | 53.44049 | 9.01012 | 169° | 13km/h | 26759m | 6.2m/s | -47.8°C | 3.2% | 20.5hPa | 2.5V | 08:30:00 | 01:58:33 | 00:00:00 | |
| DL1XH-15 | 2026-09-04 00:18:03 | 53.44057 | 9.01011 | 189° | 7km/h | 26741m | 5.7m/s | -48°C | 3.2% | 20.5hPa | 2.5V | 08:30:00 | 01:58:30 | 00:00:00 | |
| DL1XH-west | 2026-09-04 00:18:03 | 53.44049 | 9.01012 | 169° | 13km/h | 26759m | 6.2m/s | -47.8°C | 0.3% | 20.5hPa | 2.5V | 18:12:15 | 01:58:33 | 00:00:00 | |
| AA1-15 | 2026-09-04 00:18:01 | 53.44055 | 9.01011 | 179° | 11km/h | 26747m | 6.3m/s | -47.9°C | 0.3% | 20.5hPa | 2.6V | 18:12:15 | 01:58:31 | 00:00:00 | |
| DF8AY | 2026-09-04 00:18:01 | 53.44067 | 9.01018 | 183° | 11km/h | 26713m | 5.4m/s | -48.2°C | 0.4% | 20.6hPa | 2.6V | 18:12:15 | 01:58:25 | 00:00:00 | |
| GOEST3-10 | 2026-09-04 00:18:00 | 53.44057 | 9.01011 | 190° | 9km/h | 26741m | 5.6m/s | -47.9°C | 3.2% | 20.5hPa | 2.5V | 00:00:00 | 00:00:00 | 08:30:00 | |
| DO2SHX-10 | 2026-09-04 00:17:59 | 53.44058 | 9.01012 | 207° | 9km/h | 26736m | 4.6m/s | -48.0°C | 3.2% | 20.5hPa | 2.5V | 00:00:00 | 01:58:29 | 00:00:00 | |
| DL1XH1-15 | 2026-09-04 00:17:58 | 53.44072 | 9.01015 | 137° | 9km/h | 26701m | 5.6m/s | -48.2°C | 3.3% | 20.6hPa | 2.5V | 08:30:00 | 01:58:23 | 00:00:00 | |
| SP3BTT-10 | 2026-09-04 00:17:58 | 53.44060 | 9.01013 | 212° | 15km/h | 26731m | 5.8m/s | 0°C | 0% | 0hPa | 2.6V | 00:00:00 | 00:00:00 | 00:00:00 | |
| DL1CLM-18 | 2026-09-04 00:17:57 | 53.44060 | 9.01013 | 213° | 7km/h | 26731m | 5.9m/s | -48.1°C | 0.9% | 20.6hPa | 2.6V | 00:00:00 | 00:00:00 | 00:00:00 | |
| DB0DAN | 2026-09-04 00:17:55 | 53.44067 | 9.01018 | 183° | 9km/h | 26713m | 5.4m/s | -48.2°C | 0.9% | 20.63hPa | 2.6V | 00:00:00 | 00:00:00 | 00:00:00 | |
| DL1XH-15 | 2026-09-04 00:17:55 | 53.44082 | 9.01002 | 157° | 15km/h | 26679m | 4.5m/s | -48.4°C | 3.3% | 20.7hPa | 2.6V | 08:30:00 | 01:58:19 | 00:00:00 | |
| HSKMA3-T | 2026-09-04 00:17:52 | 53.44074 | 9.01012 | 133° | 11km/h | 26696m | 5m/s | -48.3°C | 0.3% | 20.7hPa | 2.5V | 18:12:15 | 01:58:22 | 00:00:00 | |
| DO2JMG | 2026-09-04 00:17:51 | 53.44076 | 9.01008 | 140° | 13km/h | 26690m | 6.2m/s | -48.3°C | 0.4% | 20.7hPa | 2.5V | 18:12:15 | 01:58:21 | 00:00:00 | |
| AA1-15 | 2026-09-04 00:17:50 | 53.44082 | 9.01002 | 157° | 15km/h | 26679m | 4.5m/s | -48.4°C | 0.4% | 20.7hPa | 2.6V | 18:12:15 | 01:58:19 | 00:00:00 | |
| DF8AY | 2026-09-04 00:17:46 | 53.44089 | 9.00998 | 168° | 4km/h | 26662m | 5.5m/s | -48.5°C | 0.4% | 20.8hPa | 2.5V | 18:12:15 | 01:58:16 | 00:00:00 | |
| DL1XH1-15 | 2026-09-04 00:17:44 | 53.44093 | 9.00997 | 163° | 7km/h | 26644m | 5.6m/s | -48.6°C | 3.4% | 20.8hPa | 2.5V | 08:30:00 | 01:58:13 | 00:00:00 | |
| DO2SHX-10 | 2026-09-04 00:17:44 | 53.44091 | 9.00998 | 173° | 7km/h | 26651m | 6.5m/s | -48.5°C | 3.3% | 20.8hPa | 2.6V | 00:00:00 | 01:58:14 | 00:00:00 | |
| DL1XH-15 | 2026-09-04 00:17:43 | 53.44098 | 9.00989 | 112° | 11km/h | 26629m | 6.2m/s | -48.8°C | 3.4% | 20.9hPa | 2.5V | 08:30:00 | 01:58:10 | 00:00:00 | |
| BIOWL1-15 | 2026-09-04 00:17:42 | 53.44099 | 9.00984 | 97° | 11km/h | 26623m | 6m/s | -48.9°C | 0% | 0hPa | 2.6V | 18:12:15 | 01:58:09 | 00:00:00 | |
| DO2JMG | 2026-09-04 00:17:41 | 53.44097 | 9.00993 | 132° | 11km/h | 26635m | 4.9m/s | -48.8°C | 0.4% | 20.9hPa | 2.5V | 18:12:15 | 01:58:11 | 00:00:00 | |
| DB0DAN | 2026-09-04 00:17:40 | 53.44098 | 9.00989 | 113° | 11km/h | 26629m | 6.2m/s | -48.8°C | 1% | 20.92hPa | 2.5V | 00:00:00 | 00:00:00 | 00:00:00 | |
| AA1-15 | 2026-09-04 00:17:40 | 53.44098 | 9.00989 | 113° | 11km/h | 26629m | 6.2m/s | -48.8°C | 0.4% | 20.9hPa | 2.5V | 18:12:15 | 01:58:10 | 00:00:00 | |
| BUE01 | 2026-09-04 00:17:39 | 53.44099 | 9.00984 | 97° | 11km/h | 26623m | 6.0m/s | -48.9°C | 0.9% | 20.9hPa | 2.5V | 00:00:00 | 00:00:00 | 00:00:00 | |
| DO2SHX-10 | 2026-09-04 00:17:38 | 53.44099 | 9.00979 | 97° | 13km/h | 26618m | 4.6m/s | -48.8°C | 3.4% | 20.9hPa | 2.5V | 00:00:00 | 01:58:08 | 00:00:00 | |
| DB0UT-7 | 2026-09-04 00:17:36 | 53.44101 | 9.00970 | 131° | 15km/h | 26607m | 6.5m/s | -48.9°C | 3.4% | 20.9hPa | 2.5V | 00:00:00 | 01:58:06 | 00:00:00 | |
| DL1XH-15 | 2026-09-04 00:17:35 | 53.44115 | 9.00950 | 116° | 11km/h | 26567m | 5.7m/s | -49°C | 3.4% | 21.1hPa | 2.5V | 08:30:00 | 01:57:59 | 00:00:00 | |
| DF8AY | 2026-09-04 00:17:34 | 53.44107 | 9.00964 | 154° | 13km/h | 26596m | 5m/s | -48.9°C | 0.4% | 21hPa | 2.5V | 18:12:15 | 01:58:04 | 00:00:00 | |
| HSKMA3-T | 2026-09-04 00:17:31 | 53.44113 | 9.00957 | 127° | 7km/h | 26578m | 5.5m/s | -49°C | 0.5% | 21.1hPa | 2.5V | 18:12:15 | 01:58:01 | 00:00:00 | |
| DO2JMG | 2026-09-04 00:17:30 | 53.44114 | 9.00954 | 118° | 9km/h | 26573m | 5.3m/s | -49.1°C | 0.4% | 21.1hPa | 2.5V | 18:12:15 | 01:58:00 | 00:00:00 | |
| AA1-15 | 2026-09-04 00:17:30 | 53.44116 | 9.00950 | 117° | 11km/h | 26567m | 5.7m/s | -49.1°C | 0.4% | 21.1hPa | 2.5V | 18:12:15 | 01:57:59 | 00:00:00 | |
| BIOWL1-15 | 2026-09-04 00:17:29 | 53.44120 | 9.00933 | 97° | 18km/h | 26551m | 5.1m/s | -49.1°C | 0% | 0hPa | 2.6V | 18:12:15 | 01:57:56 | 00:00:00 | |
| S3001 | 2026-09-04 00:17:28 | 53.44117 | 9.00946 | 118° | 13km/h | 26561m | 6.2m/s | -49.1°C | 1.0% | 21.1hPa | 2.5V | 00:00:00 | 00:00:00 | 00:00:00 | |
| DB0DAN | 2026-09-04 00:17:25 | 53.44119 | 9.00924 | 83° | 20km/h | 26545m | 6.5m/s | -49.1°C | 1% | 21.16hPa | 2.5V | 00:00:00 | 00:00:00 | 00:00:00 | |
| DF8AY | 2026-09-04 00:17:24 | 53.44118 | 9.00915 | 72° | 24km/h | 26539m | 5.8m/s | -49.2°C | 0.5% | 21.2hPa | 2.5V | 18:12:15 | 01:57:54 | 00:00:00 | |
| DL1XH1-15 | 2026-09-04 00:17:24 | 53.44116 | 9.00905 | 68° | 26km/h | 26534m | 4.8m/s | -49.2°C | 3.5% | 21.2hPa | 2.5V | 08:30:00 | 01:57:53 | 00:00:00 | |
| DL1XH-15 | 2026-09-04 00:17:24 | 53.44112 | 9.00881 | 86° | 15km/h | 26518m | 5.6m/s | -49.2°C | 3.5% | 21.3hPa | 2.5V | 08:30:00 | 01:57:50 | 00:00:00 | |
| HSKMA3-T | 2026-09-04 00:17:21 | 53.44112 | 9.00887 | 76° | 18km/h | 26524m | 6.3m/s | -49.2°C | 0.5% | 21.2hPa | 2.6V | 18:12:15 | 01:57:51 | 00:00:00 | |
| DO2JMG | 2026-09-04 00:17:20 | 53.44112 | 9.00880 | 86° | 15km/h | 26518m | 5.6m/s | -49.3°C | 0.5% | 21.3hPa | 2.5V | 18:12:15 | 01:57:50 | 00:00:00 | |
| DL1XH-west | 2026-09-04 00:17:19 | 53.44112 | 9.00876 | 94° | 9km/h | 26512m | 5.3m/s | -49.3°C | 0.5% | 21.3hPa | 2.5V | 18:12:15 | 01:57:49 | 00:00:00 | |
| AA1-15 | 2026-09-04 00:17:18 | 53.44112 | 9.00872 | 87° | 7km/h | 26506m | 6.6m/s | -49.2°C | 0.5% | 21.3hPa | 2.5V | 18:12:15 | 01:57:48 | 00:00:00 | |
| SP3BTT-10 | 2026-09-04 00:17:17 | 53.44111 | 9.00870 | 71° | 7km/h | 26500m | 5.7m/s | 0°C | 0% | 0hPa | 2.6V | 00:00:00 | 00:00:00 | 00:00:00 | |
| DL1XH-15 | 2026-09-04 00:17:15 | 53.44109 | 9.00841 | 63° | 22km/h | 26461m | 5.7m/s | -49.2°C | 3.4% | 21.4hPa | 2.6V | 08:30:00 | 01:57:40 | 00:00:00 | |
| DF8AY | 2026-09-04 00:17:15 | 53.44102 | 9.00807 | 87° | 16km/h | 26439m | 4.7m/s | -49.3°C | 0.5% | 21.5hPa | 2.5V | 18:12:15 | 01:57:36 | 00:00:00 | |
| DL4BBY-15 | 2026-09-04 00:17:13 | 53.44112 | 9.00861 | 101° | 11km/h | 26478m | 4.4m/s | -48.7°C | 0% | 0hPa | 2.6V | 00:00:00 | 00:00:00 | 00:00:00 | |
| DB0DAN | 2026-09-04 00:17:10 | 53.44109 | 9.00841 | 64° | 22km/h | 26461m | 5.7m/s | -49.2°C | 1% | 21.45hPa | 2.6V | 00:00:00 | 00:00:00 | 00:00:00 | |
| DM0DOS-11 | 2026-09-04 00:17:10 | 53.44102 | 9.00801 | 92° | 13km/h | 26434m | 5m/s | -49.3°C | 3.5% | 21.5hPa | 2.5V | 08:30:00 | 01:57:35 | 00:00:00 | |
| DO2JMG | 2026-09-04 00:17:10 | 53.44109 | 9.00841 | 64° | 22km/h | 26461m | 5.7m/s | -49.2°C | 0.5% | 21.4hPa | 2.6V | 18:12:15 | 01:57:40 | 00:00:00 | |
| BIOWL1-15 | 2026-09-04 00:17:09 | 53.44107 | 9.00832 | 64° | 24km/h | 26456m | 5.5m/s | -49.2°C | 0% | 0hPa | 2.6V | 18:12:15 | 01:57:39 | 00:00:00 | |
| DF8AY | 2026-09-04 00:17:09 | 53.44106 | 9.00793 | 101° | 4km/h | 26396m | 4.6m/s | -49.4°C | 0.4% | 21.7hPa | 2.6V | 18:12:15 | 01:57:28 | 00:00:00 | |
| AA1-15 | 2026-09-04 00:17:07 | 53.44103 | 9.00815 | 79° | 20km/h | 26444m | 5.6m/s | -49.3°C | 0.5% | 21.5hPa | 2.5V | 18:12:15 | 01:57:37 | 00:00:00 | |
| HSKMA3-T | 2026-09-04 00:17:00 | 53.44104 | 9.00794 | 193° | 5km/h | 26405m | 5.6m/s | -49.3°C | 0.4% | 21.6hPa | 2.5V | 18:12:15 | 01:57:30 | 00:00:00 | |
| DO2JMG | 2026-09-04 00:16:59 | 53.44105 | 9.00794 | 172° | 4km/h | 26400m | 3.7m/s | -49.3°C | 0.4% | 21.6hPa | 2.5V | 18:12:15 | 01:57:29 | 00:00:00 | |
| BIOWL1-15 | 2026-09-04 00:16:58 | 53.44097 | 9.00769 | 74° | 20km/h | 26367m | 5.8m/s | 0°C | 0% | 0hPa | 2.6V | 18:12:15 | 01:57:23 | 00:00:00 | |
| AA1-15 | 2026-09-04 00:16:57 | 53.44105 | 9.00792 | 57° | 7km/h | 26390m | 6.5m/s | -49.4°C | 0.4% | 21.7hPa | 2.6V | 18:12:15 | 01:57:27 | 00:00:00 | |
| BIOWL9-15 | 2026-09-04 00:16:56 | 53.44102 | 9.00783 | 55° | 16km/h | 26379m | 5.2m/s | -49.5°C | 1.0% | 21.7hPa | 2.5V | 00:00:00 | 00:00:00 | 00:00:00 | |
| DB0DAN | 2026-09-04 00:16:55 | 53.44102 | 9.00783 | 55° | 16km/h | 26378m | 5.2m/s | -49.5°C | 1% | 21.73hPa | 2.5V | 00:00:00 | 00:00:00 | 00:00:00 | |
| DL1XH-15 | 2026-09-04 00:16:55 | 53.44095 | 9.00750 | 64° | 9km/h | 26352m | 5.8m/s | -49.8°C | 3.5% | 21.8hPa | 2.5V | 08:30:00 | 01:57:20 | 00:00:00 | |
| SONDE2-11 | 2026-09-04 00:16:53 | 53.44096 | 9.00761 | 79° | 16km/h | 26362m | 4.3m/s | -49.8°C | 1.0% | 21.8hPa | 2.5V | 00:00:00 | 00:00:00 | 00:00:00 | |
| EDDB2-11 | 2026-09-04 00:16:51 | 53.44096 | 9.00755 | 78° | 13km/h | 26358m | 4.3m/s | -49.8°C | 1.0% | 21.8hPa | 2.5V | 00:00:00 | 00:00:00 | 00:00:00 | |
| DO2SHX-10 | 2026-09-04 00:16:50 | 53.44095 | 9.00750 | 65° | 7km/h | 26353m | 5.7m/s | -49.8°C | 3.5% | 21.7hPa | 2.5V | 00:00:00 | 01:57:20 | 00:00:00 | |
| DM0DOS-11 | 2026-09-04 00:16:49 | 53.44091 | 9.00748 | 97° | 7km/h | 26315m | 5.1m/s | -49.9°C | 3.6% | 21.9hPa | 2.5V | 08:30:00 | 01:57:13 | 00:00:00 | |
| HSKMA3-T | 2026-09-04 00:16:49 | 53.44093 | 9.00748 | 23° | 7km/h | 26347m | 6m/s | -49.9°C | 0.6% | 21.8hPa | 2.5V | 18:12:15 | 01:57:19 | 00:00:00 | |
| DO2JMG | 2026-09-04 00:16:48 | 53.44092 | 9.00748 | 340° | 7km/h | 26341m | 5m/s | -49.9°C | 0.5% | 21.8hPa | 2.5V | 18:12:15 | 01:57:18 | 00:00:00 | |
| AA1-15 | 2026-09-04 00:16:46 | 53.44090 | 9.00750 | 300° | 4km/h | 26331m | 6.2m/s | -49.9°C | 0.6% | 21.9hPa | 2.6V | 18:12:15 | 01:57:16 | 00:00:00 | |
| BIOWL1-15 | 2026-09-04 00:16:45 | 53.44090 | 9.00751 | 170° | 2km/h | 26325m | 5.5m/s | 0°C | 0% | 0hPa | 2.5V | 18:12:15 | 01:57:15 | 00:00:00 | |
| DO2SHX-10 | 2026-09-04 00:16:44 | 53.44090 | 9.00750 | 121° | 7km/h | 26320m | 5.1m/s | -49.9°C | 3.6% | 21.9hPa | 2.6V | 00:00:00 | 01:57:14 | 00:00:00 | |
| DL4BBY-15 | 2026-09-04 00:16:43 | 53.44090 | 9.00748 | 98° | 7km/h | 26315m | 5.1m/s | -49.4°C | 0% | 0hPa | 2.6V | 00:00:00 | 00:00:00 | 00:00:00 | |
| DB0DAN | 2026-09-04 00:16:40 | 53.44089 | 9.00737 | 69° | 9km/h | 26298m | 5.2m/s | -49.9°C | 1% | 21.98hPa | 2.6V | 00:00:00 | 00:00:00 | 00:00:00 | |
| HSKMA3-T | 2026-09-04 00:16:39 | 53.44088 | 9.00733 | 81° | 9km/h | 26292m | 6.2m/s | -49.9°C | 0.5% | 22hPa | 2.5V | 18:12:15 | 01:57:09 | 00:00:00 | |
| GOEST3-10 | 2026-09-04 00:16:39 | 53.44088 | 9.00733 | 81° | 7km/h | 26292m | 6.1m/s | -49.9°C | 3.6% | 21.9hPa | 2.5V | 00:00:00 | 00:00:00 | 00:00:00 | |
| DL1XH1-15 | 2026-09-04 00:16:38 | 53.44091 | 9.00728 | 268° | 5km/h | 26258m | 4.9m/s | -49.9°C | 3.6% | 22.1hPa | 2.5V | 08:30:00 | 01:57:03 | 00:00:00 | |
| DO2JMG | 2026-09-04 00:16:38 | 53.44088 | 9.00730 | 102° | 9km/h | 26286m | 5.8m/s | -49.9°C | 0.5% | 22.1hPa | 2.5V | 18:12:15 | 01:57:08 | 00:00:00 | |
| DO2SHX-10 | 2026-09-04 00:16:38 | 53.44088 | 9.00730 | 102° | 7km/h | 26286m | 5.7m/s | -49.9°C | 3.6% | 22.0hPa | 2.6V | 00:00:00 | 01:57:08 | 00:00:00 | |
| DM0DOS-11 | 2026-09-04 00:16:37 | 53.44091 | 9.00726 | 269° | 5km/h | 26264m | 5.7m/s | -49.9°C | 3.6% | 22.1hPa | 2.6V | 08:30:00 | 01:57:04 | 00:00:00 | |
| DF8AY | 2026-09-04 00:16:37 | 53.44092 | 9.00731 | 188° | 5km/h | 26247m | 5.7m/s | -49.9°C | 0.6% | 22.2hPa | 2.5V | 18:12:15 | 01:57:01 | 00:00:00 | |
| AA1-15 | 2026-09-04 00:16:36 | 53.44090 | 9.00725 | 150° | 4km/h | 26276m | 5.2m/s | -49.9°C | 0.6% | 22.1hPa | 2.5V | 18:12:15 | 01:57:06 | 00:00:00 | |
| DO2JMG | 2026-09-04 00:16:28 | 53.44096 | 9.00726 | 109° | 7km/h | 26231m | 6.3m/s | -49.9°C | 0.5% | 22.2hPa | 2.5V | 18:12:15 | 01:56:58 | 00:00:00 | |
| DF4FW | 2026-09-04 00:16:28 | 53.44095 | 9.00726 | 110° | 7km/h | 26232m | 6.3m/s | -49.9°C | 1.0% | 22.2hPa | 2.6V | 00:00:00 | 00:00:00 | 00:00:00 | |
| DM0DOS-11 | 2026-09-04 00:16:27 | 53.44096 | 9.00709 | 98° | 15km/h | 26209m | 5.8m/s | -50.1°C | 3.7% | 22.3hPa | 2.6V | 08:30:00 | 01:56:54 | 00:00:00 | |
| DL1XH-west | 2026-09-04 00:16:26 | 53.44096 | 9.00719 | 82° | 11km/h | 26220m | 4.9m/s | -50°C | 0.5% | 22.2hPa | 2.5V | 18:12:15 | 01:56:56 | 00:00:00 | |
| DB0DAN | 2026-09-04 00:16:25 | 53.44095 | 9.00714 | 90° | 11km/h | 26215m | 6.3m/s | -50°C | 1% | 22.25hPa | 2.5V | 00:00:00 | 00:00:00 | 00:00:00 | |
| AA1-15 | 2026-09-04 00:16:25 | 53.44095 | 9.00714 | 90° | 13km/h | 26215m | 6.3m/s | -50°C | 0.6% | 22.2hPa | 2.5V | 18:12:15 | 01:56:55 | 00:00:00 | |
| DF8AY | 2026-09-04 00:16:24 | 53.44096 | 9.00709 | 98° | 15km/h | 26209m | 5.8m/s | -50.1°C | 0.6% | 22.3hPa | 2.6V | 18:12:15 | 01:56:54 | 00:00:00 | |
| DL1XH1-15 | 2026-09-04 00:16:24 | 53.44096 | 9.00703 | 99° | 13km/h | 26203m | 4.8m/s | -50.1°C | 3.7% | 22.3hPa | 2.6V | 08:30:00 | 01:56:53 | 00:00:00 | |
| DO2SHX-10 | 2026-09-04 00:16:23 | 53.44096 | 9.00703 | 100° | 11km/h | 26204m | 4.7m/s | -50.1°C | 3.7% | 22.3hPa | 2.6V | 00:00:00 | 01:56:53 | 00:00:00 | |
| SONDE2-11 | 2026-09-04 00:16:22 | 53.44096 | 9.00694 | 77° | 7km/h | 26193m | 6.3m/s | -50.1°C | 1.0% | 22.4hPa | 2.5V | 00:00:00 | 00:00:00 | 00:00:00 | |
| DO9LL-15 | 2026-09-04 00:16:21 | 53.44096 | 9.00694 | 78° | 9km/h | 26193m | 6.3m/s | -50.0°C | 3.6% | 22.3hPa | 2.5V | 00:00:00 | 01:56:51 | 00:00:00 | |
| DO2SHX-10 | 2026-09-04 00:16:20 | 53.44095 | 9.00691 | 53° | 4km/h | 26187m | 5.2m/s | -50.0°C | 3.7% | 22.3hPa | 2.5V | 00:00:00 | 01:56:50 | 00:00:00 | |
| DM0DOS-11 | 2026-09-04 00:16:19 | 53.44096 | 9.00680 | 81° | 5km/h | 26154m | 6.1m/s | -50.1°C | 3.6% | 22.5hPa | 2.5V | 08:30:00 | 01:56:44 | 00:00:00 | |
| DO2JMG | 2026-09-04 00:16:17 | 53.44095 | 9.00687 | 119° | 5km/h | 26170m | 5.6m/s | -50.1°C | 0.5% | 22.4hPa | 2.6V | 18:12:15 | 01:56:47 | 00:00:00 | |
| DL1XH-west | 2026-09-04 00:16:16 | 53.44095 | 9.00685 | 122° | 5km/h | 26165m | 4.8m/s | -50.1°C | 0.5% | 22.4hPa | 2.5V | 18:12:15 | 01:56:46 | 00:00:00 | |
| AA1-15 | 2026-09-04 00:16:15 | 53.44096 | 9.00682 | 107° | 5km/h | 26160m | 5.5m/s | -50.1°C | 0.6% | 22.4hPa | 2.5V | 18:12:15 | 01:56:45 | 00:00:00 | |
| DL1XH1-15 | 2026-09-04 00:16:15 | 53.44096 | 9.00677 | 64° | 7km/h | 26148m | 5m/s | -50.1°C | 3.6% | 22.5hPa | 2.5V | 08:30:00 | 01:56:43 | 00:00:00 | |
| DF8AY | 2026-09-04 00:16:13 | 53.44096 | 9.00677 | 64° | 7km/h | 26148m | 5m/s | -50.1°C | 0.5% | 22.5hPa | 2.5V | 18:12:15 | 01:56:43 | 00:00:00 | |
| DL4BBY-15 | 2026-09-04 00:16:13 | 53.44095 | 9.00677 | 65° | 9km/h | 26148m | 5.0m/s | -49.6°C | 0% | 0hPa | 2.5V | 00:00:00 | 00:00:00 | 00:00:00 | |
| DB0DAN | 2026-09-04 00:16:10 | 53.44093 | 9.00665 | 83° | 11km/h | 26132m | 5.2m/s | -50.2°C | 1% | 22.54hPa | 2.5V | 00:00:00 | 00:00:00 | 00:00:00 | |
| DJ2DS-15 | 2026-09-04 00:16:09 | 53.44093 | 9.00660 | 76° | 9km/h | 26127m | 4.2m/s | -50.2°C | 3.7% | 22.5hPa | 2.5V | 00:00:00 | 01:56:39 | 00:00:00 | |
| DL1XH1-15 | 2026-09-04 00:16:08 | 53.44088 | 9.00649 | 196° | 5km/h | 26094m | 5.5m/s | -50.4°C | 3.7% | 22.7hPa | 2.5V | 08:30:00 | 01:56:33 | 00:00:00 | |
| DM0DOS-11 | 2026-09-04 00:16:08 | 53.44088 | 9.00649 | 173° | 2km/h | 26100m | 6.4m/s | -50.3°C | 3.7% | 22.7hPa | 2.5V | 08:30:00 | 01:56:34 | 00:00:00 | |
| HSKMA3-T | 2026-09-04 00:16:07 | 53.44090 | 9.00652 | 43° | 9km/h | 26116m | 5.7m/s | -50.2°C | 0.6% | 22.6hPa | 2.6V | 18:12:15 | 01:56:37 | 00:00:00 | |
| DL1XH-west | 2026-09-04 00:16:06 | 53.44089 | 9.00650 | 32° | 7km/h | 26111m | 4.5m/s | -50.3°C | 0.6% | 22.6hPa | 2.6V | 18:12:15 | 01:56:36 | 00:00:00 | |
| AA1-15 | 2026-09-04 00:16:05 | 53.44088 | 9.00649 | 31° | 4km/h | 26106m | 5.1m/s | -50.3°C | 0.6% | 22.7hPa | 2.5V | 18:12:15 | 01:56:35 | 00:00:00 | |
| DO2SHX-10 | 2026-09-04 00:16:05 | 53.44088 | 9.00649 | 31° | 4km/h | 26106m | 5.0m/s | -50.2°C | 3.7% | 22.6hPa | 2.5V | 00:00:00 | 01:56:35 | 08:30:00 | |
| DL1XH-15 | 2026-09-04 00:16:03 | 53.44091 | 9.00654 | 278° | 5km/h | 26077m | 5.6m/s | -50.4°C | 3.7% | 22.7hPa | 2.6V | 08:30:00 | 01:56:30 | 00:00:00 | |
| DF8AY | 2026-09-04 00:16:02 | 53.44090 | 9.00650 | 209° | 7km/h | 26089m | 5.1m/s | -50.4°C | 0.7% | 22.7hPa | 2.5V | 18:12:15 | 01:56:32 | 00:00:00 | |
| DL3AQ-11 | 2026-09-04 00:16:00 | 53.44092 | 9.00654 | 278° | 4km/h | 26078m | 5.6m/s | -50.4°C | 1.0% | 22.7hPa | 2.6V | 00:00:00 | 00:00:00 | 00:00:00 | |
| DO2SHX-10 | 2026-09-04 00:15:59 | 53.44091 | 9.00656 | 319° | 7km/h | 26073m | 4.6m/s | -50.3°C | 3.7% | 22.7hPa | 2.6V | 00:00:00 | 01:56:29 | 00:00:00 | |
| DM0DOS-11 | 2026-09-04 00:15:57 | 53.44078 | 9.00647 | 27° | 18km/h | 26045m | 6.3m/s | -50.3°C | 3.7% | 22.9hPa | 2.6V | 08:30:00 | 01:56:24 | 00:00:00 | |
| DO2JMG | 2026-09-04 00:15:56 | 53.44085 | 9.00654 | 33° | 13km/h | 26056m | 5.1m/s | -50.3°C | 0.6% | 22.8hPa | 2.5V | 18:12:15 | 01:56:26 | 00:00:00 | |
| DB0DAN | 2026-09-04 00:15:55 | 53.44082 | 9.00650 | 32° | 15km/h | 26051m | 5.6m/s | -50.3°C | 1% | 22.84hPa | 2.6V | 00:00:00 | 00:00:00 | 00:00:00 | |
| DL1XH-west | 2026-09-04 00:15:55 | 53.44082 | 9.00650 | 32° | 16km/h | 26051m | 5.6m/s | -50.3°C | 0.6% | 22.8hPa | 2.6V | 18:12:15 | 01:56:25 | 00:00:00 | |
| AA1-15 | 2026-09-04 00:15:54 | 53.44079 | 9.00647 | 28° | 18km/h | 26045m | 6.3m/s | -50.3°C | 0.6% | 22.9hPa | 2.6V | 18:12:15 | 01:56:24 | 00:00:00 | |
| DL1XH1-15 | 2026-09-04 00:15:54 | 53.44074 | 9.00643 | 25° | 20km/h | 26039m | 4.9m/s | -50.4°C | 3.6% | 22.9hPa | 2.5V | 08:30:00 | 01:56:23 | 00:00:00 | |
| DF8AY | 2026-09-04 00:15:51 | 53.44065 | 9.00636 | 272° | 9km/h | 26007m | 6m/s | -50.4°C | 0.5% | 23hPa | 2.5V | 18:12:15 | 01:56:17 | 00:00:00 | |
| SONDE2-11 | 2026-09-04 00:15:51 | 53.44065 | 9.00634 | 50° | 5km/h | 26023m | 5.4m/s | -50.4°C | 1.0% | 22.9hPa | 2.6V | 00:00:00 | 00:00:00 | 00:00:00 | |
| DL3AQ-11 | 2026-09-04 00:15:50 | 53.44065 | 9.00633 | 96° | 0km/h | 26018m | 4.9m/s | -50.4°C | -1.0% | 22.9hPa | 2.6V | 00:00:00 | 00:00:00 | 00:00:00 | |
| DJ2DS-15 | 2026-09-04 00:15:49 | 53.44065 | 9.00633 | 97° | 13km/h | 26018m | 4.8m/s | -50.3°C | 3.6% | 22.9hPa | 2.6V | 00:00:00 | 01:56:19 | 00:00:00 | |
| DL1XH1-15 | 2026-09-04 00:15:48 | 53.44064 | 9.00652 | 306° | 4km/h | 25985m | 4.9m/s | -50.4°C | 3.7% | 23.1hPa | 2.6V | 08:30:00 | 01:56:13 | 00:00:00 | |
| SP3BTT-10 | 2026-09-04 00:15:48 | 53.44065 | 9.00634 | 260° | 11km/h | 26013m | 5.8m/s | 0°C | 0% | 0hPa | 2.5V | 00:00:00 | 00:00:00 | 00:00:00 | |
| DM0DOS-11 | 2026-09-04 00:15:47 | 53.44064 | 9.00650 | 278° | 9km/h | 25991m | 6m/s | -50.4°C | 3.7% | 23.1hPa | 2.5V | 08:30:00 | 01:56:14 | 00:00:00 | |
| DF8AY | 2026-09-04 00:15:46 | 53.44060 | 9.00651 | 28° | 13km/h | 25975m | 6.1m/s | -50.4°C | 0.6% | 23.1hPa | 2.5V | 18:12:15 | 01:56:11 | 00:00:00 | |
| DO2JMG | 2026-09-04 00:15:46 | 53.44065 | 9.00640 | 276° | 11km/h | 26001m | 5.1m/s | -50.4°C | 0.6% | 23hPa | 2.5V | 18:12:15 | 01:56:16 | 00:00:00 | |
| DL1XH-west | 2026-09-04 00:15:44 | 53.44064 | 9.00650 | 278° | 9km/h | 25991m | 6m/s | -50.4°C | 0.6% | 23.1hPa | 2.5V | 18:12:15 | 01:56:14 | 00:00:00 | |
| DO2SHX-10 | 2026-09-04 00:15:44 | 53.44064 | 9.00649 | 279° | 7km/h | 25991m | 5.9m/s | -50.4°C | 3.7% | 23.0hPa | 2.5V | 00:00:00 | 01:56:14 | 00:00:00 | |
| DL4BBY-15 | 2026-09-04 00:15:43 | 53.44064 | 9.00652 | 307° | 15km/h | 25986m | 4.8m/s | -49.9°C | 0% | 0hPa | 2.5V | 00:00:00 | 00:00:00 | 00:00:00 | |
| DB0DAN | 2026-09-04 00:15:40 | 53.44057 | 9.00648 | 29° | 18km/h | 25969m | 6.8m/s | -50.4°C | 1% | 23.13hPa | 2.5V | 00:00:00 | 00:00:00 | 00:00:00 | |
| HTAHTA | 2026-09-04 00:15:40 | 53.44052 | 9.00643 | 30° | 22km/h | 25963m | 5.6m/s | -50.4°C | 1.1% | 23.1hPa | 2.5V | 00:00:00 | 00:00:00 | 00:00:00 | |
| DL1XH1-15 | 2026-09-04 00:15:38 | 53.44034 | 9.00633 | 294° | 15km/h | 25931m | 6.2m/s | -50.5°C | 3.7% | 23.3hPa | 2.5V | 08:30:00 | 01:56:03 | 00:00:00 | |
| DM0DOS-11 | 2026-09-04 00:15:37 | 53.44035 | 9.00629 | 315° | 9km/h | 25938m | 6.5m/s | -50.4°C | 3.7% | 23.2hPa | 2.5V | 08:30:00 | 01:56:04 | 00:00:00 | |
| HSKMA3-T | 2026-09-04 00:15:36 | 53.44040 | 9.00629 | 32° | 13km/h | 25948m | 4m/s | -50.4°C | 0.7% | 23.2hPa | 2.5V | 18:12:15 | 01:56:06 | 00:00:00 | |
| DB0UT-7 | 2026-09-04 00:15:36 | 53.44040 | 9.00629 | 33° | 13km/h | 25948m | 3.9m/s | -50.4°C | 3.7% | 23.2hPa | 2.5V | 00:00:00 | 01:56:06 | 00:00:00 | |
| DL1XH-15 | 2026-09-04 00:15:35 | 53.44030 | 9.00656 | 277° | 16km/h | 25916m | 5.7m/s | -50.4°C | 3.7% | 23.3hPa | 2.5V | 08:30:00 | 01:56:00 | 00:00:00 | |
| DO2JMG | 2026-09-04 00:15:35 | 53.44037 | 9.00627 | 358° | 7km/h | 25943m | 4.3m/s | -50.4°C | 0.6% | 23.2hPa | 2.5V | 18:12:15 | 01:56:05 | 00:00:00 | |
| AA1-15 | 2026-09-04 00:15:33 | 53.44034 | 9.00633 | 295° | 16km/h | 25932m | 6.3m/s | -50.5°C | 0.7% | 23.3hPa | 2.5V | 18:12:15 | 01:56:03 | 00:00:00 | |
| DF8AY | 2026-09-04 00:15:28 | 53.44027 | 9.00666 | 354° | 9km/h | 25900m | 5.9m/s | -50.4°C | 0.6% | 23.4hPa | 2.5V | 18:12:15 | 01:55:57 | 00:00:00 | |
| DL1XH1-15 | 2026-09-04 00:15:28 | 53.44014 | 9.00658 | 37° | 15km/h | 25878m | 5.8m/s | -50.4°C | 3.7% | 23.4hPa | 2.5V | 08:30:00 | 01:55:53 | 00:00:00 | |
| AP2371 | 2026-09-04 00:15:27 | 53.44029 | 9.00665 | 318° | 7km/h | 25906m | 4.8m/s | -50.4°C | 0% | 0hPa | 2.6V | 00:00:00 | 00:00:00 | 00:00:00 | |
| DB0DAN | 2026-09-04 00:15:25 | 53.44021 | 9.00664 | 19° | 15km/h | 25889m | 5.2m/s | -50.4°C | 1.1% | 23.41hPa | 2.6V | 00:00:00 | 00:00:00 | 00:00:00 | |
| DO2JMG | 2026-09-04 00:15:25 | 53.44021 | 9.00664 | 19° | 16km/h | 25889m | 5.2m/s | -50.4°C | 0.7% | 23.4hPa | 2.6V | 18:12:15 | 01:55:55 | 00:00:00 | |
| S3001 | 2026-09-04 00:15:24 | 53.44017 | 9.00662 | 28° | 15km/h | 25884m | 5.6m/s | -50.4°C | 1.1% | 23.4hPa | 2.6V | 00:00:00 | 00:00:00 | 00:00:00 | |
| DL1XH-15 | 2026-09-04 00:15:23 | 53.44007 | 9.00655 | 333° | 11km/h | 25864m | 6.3m/s | -50.3°C | 3.7% | 23.5hPa | 2.6V | 08:30:00 | 01:55:50 | 00:00:00 | |
| DL1XH-west | 2026-09-04 00:15:23 | 53.44014 | 9.00658 | 38° | 15km/h | 25878m | 5.8m/s | -50.4°C | 0.6% | 23.5hPa | 2.5V | 18:12:15 | 01:55:53 | 00:00:00 | |
| AA1-15 | 2026-09-04 00:15:22 | 53.44012 | 9.00655 | 33° | 11km/h | 25873m | 3.9m/s | -50.4°C | 0.7% | 23.5hPa | 2.5V | 18:12:15 | 01:55:52 | 00:00:00 | |
| GOEST3-10 | 2026-09-04 00:15:22 | 53.44012 | 9.00655 | 34° | 13km/h | 25874m | 3.8m/s | -50.3°C | 3.7% | 23.4hPa | 2.5V | 00:00:00 | 01:55:52 | 00:00:00 | |
| DL3AQ-11 | 2026-09-04 00:15:21 | 53.44007 | 9.00655 | 333° | 9km/h | 25864m | 6.3m/s | -50.3°C | -1.0% | -1.0hPa | 2.5V | 00:00:00 | 00:00:00 | 00:00:00 | |
| SONDE2-11 | 2026-09-04 00:15:20 | 53.44005 | 9.00658 | 312° | 15km/h | 25858m | 5.8m/s | -50.3°C | 1.0% | 23.5hPa | 2.5V | 00:00:00 | 00:00:00 | 00:00:00 | |
| DL1XH1-15 | 2026-09-04 00:15:18 | 53.43995 | 9.00694 | 293° | 7km/h | 25827m | 5.2m/s | -50.1°C | 3.6% | 23.6hPa | 2.5V | 08:30:00 | 01:55:43 | 00:00:00 | |
| DF8AY | 2026-09-04 00:15:18 | 53.43994 | 9.00696 | 317° | 7km/h | 25821m | 5.8m/s | -50.1°C | 0.6% | 23.7hPa | 2.5V | 18:12:15 | 01:55:42 | 00:00:00 | |
| DM0DOS-11 | 2026-09-04 00:15:17 | 53.43995 | 9.00690 | 281° | 9km/h | 25832m | 5.1m/s | -50.1°C | 3.6% | 23.6hPa | 2.6V | 08:30:00 | 01:55:44 | 00:00:00 | |
| DL1XH-15 | 2026-09-04 00:15:16 | 53.43986 | 9.00700 | 0° | 13km/h | 25806m | 5.1m/s | -50.2°C | 3.6% | 23.7hPa | 2.6V | 08:30:00 | 01:55:39 | 00:00:00 | |
| DO2JMG | 2026-09-04 00:15:14 | 53.43995 | 9.00690 | 282° | 9km/h | 25832m | 5.1m/s | -50.2°C | 0.6% | 23.6hPa | 2.6V | 18:12:15 | 01:55:44 | 00:00:00 | |
| DF8AY | 2026-09-04 00:15:12 | 53.43979 | 9.00698 | 12° | 15km/h | 25795m | 5.2m/s | -50.3°C | 0.6% | 23.8hPa | 2.5V | 18:12:15 | 01:55:37 | 00:00:00 | |
| DL1XH-west | 2026-09-04 00:15:12 | 53.43989 | 9.00699 | 348° | 13km/h | 25810m | 4.7m/s | -50.2°C | 0.5% | 23.7hPa | 2.5V | 18:12:15 | 01:55:40 | 00:00:00 | |
| AA1-15 | 2026-09-04 00:15:12 | 53.43986 | 9.00700 | 0° | 13km/h | 25806m | 5.1m/s | -50.2°C | 0.6% | 23.7hPa | 2.6V | 18:12:15 | 01:55:39 | 00:00:00 | |
| DB0DAN | 2026-09-04 00:15:10 | 53.43989 | 9.00699 | 348° | 13km/h | 25810m | 4.7m/s | -50.2°C | 1% | 23.7hPa | 2.5V | 00:00:00 | 00:00:00 | 00:00:00 | |
| DJ2DS-15 | 2026-09-04 00:15:10 | 53.43986 | 9.00700 | 1° | 13km/h | 25806m | 5.0m/s | -50.1°C | 3.6% | 23.7hPa | 2.6V | 00:00:00 | 01:55:39 | 08:30:00 | |
| DL1XH1-15 | 2026-09-04 00:15:08 | 53.43965 | 9.00704 | 312° | 16km/h | 25774m | 4.7m/s | -50.3°C | 3.7% | 23.8hPa | 2.6V | 08:30:00 | 01:55:33 | 00:00:00 | |
| DO2SHX-10 | 2026-09-04 00:15:08 | 53.43982 | 9.00699 | 10° | 15km/h | 25800m | 5.9m/s | -50.2°C | 3.6% | 23.7hPa | 2.5V | 00:00:00 | 01:55:38 | 00:00:00 | |
| GOEST3-10 | 2026-09-04 00:15:07 | 53.43979 | 9.00698 | 13° | 15km/h | 25795m | 5.1m/s | -50.2°C | 3.6% | 23.7hPa | 2.5V | 00:00:00 | 00:00:00 | 00:00:00 | |
| DM0DOS-11 | 2026-09-04 00:15:05 | 53.43968 | 9.00700 | 330° | 16km/h | 25779m | 5.6m/s | -50.3°C | 3.7% | 23.8hPa | 2.5V | 08:30:00 | 01:55:34 | 00:00:00 | |
| DO2JMG | 2026-09-04 00:15:04 | 53.43968 | 9.00700 | 331° | 16km/h | 25779m | 5.6m/s | -50.3°C | 0.6% | 23.8hPa | 2.5V | 18:12:15 | 01:55:34 | 00:00:00 | |
| AA1-15 | 2026-09-04 00:15:00 | 53.43963 | 9.00719 | 243° | 11km/h | 25757m | 5.2m/s | -50.4°C | 0.6% | 23.9hPa | 2.5V | 18:12:15 | 01:55:30 | 00:00:00 | |
| DO2SHX-10 | 2026-09-04 00:14:59 | 53.43964 | 9.00723 | 224° | 9km/h | 25753m | 4.3m/s | -50.4°C | 3.7% | 23.9hPa | 2.5V | 00:00:00 | 01:55:29 | 00:00:00 | |
| DL1XH1-15 | 2026-09-04 00:14:58 | 53.43959 | 9.00740 | 335° | 16km/h | 25721m | 6.1m/s | -50.5°C | 3.8% | 24hPa | 2.5V | 08:30:00 | 01:55:23 | 00:00:00 | |
| DF8AY | 2026-09-04 00:14:57 | 53.43967 | 9.00731 | 298° | 7km/h | 25737m | 5.6m/s | -50.6°C | 0.7% | 24hPa | 2.6V | 18:12:15 | 01:55:26 | 00:00:00 | |
| DB0DAN | 2026-09-04 00:14:55 | 53.43965 | 9.00734 | 319° | 11km/h | 25732m | 5.5m/s | -50.6°C | 1.1% | 24hPa | 2.5V | 00:00:00 | 00:00:00 | 00:00:00 | |
| DL1XH-15 | 2026-09-04 00:14:55 | 53.43948 | 9.00749 | 331° | 18km/h | 25704m | 6m/s | -50.5°C | 3.7% | 24.1hPa | 2.6V | 08:30:00 | 01:55:20 | 00:00:00 | |
| DO2JMG | 2026-09-04 00:14:53 | 53.43959 | 9.00740 | 336° | 16km/h | 25721m | 6.1m/s | -50.5°C | 0.7% | 24hPa | 2.5V | 18:12:15 | 01:55:23 | 00:00:00 | |
| AA1-15 | 2026-09-04 00:14:50 | 53.43948 | 9.00749 | 331° | 18km/h | 25704m | 6m/s | -50.5°C | 0.6% | 24.1hPa | 2.6V | 18:12:15 | 01:55:20 | 00:00:00 | |
| DF8AY | 2026-09-04 00:14:45 | 53.43932 | 9.00776 | 294° | 11km/h | 25676m | 5.5m/s | -50.4°C | 0.7% | 24.2hPa | 2.6V | 18:12:15 | 01:55:15 | 00:00:00 | |
| DL1XH-15 | 2026-09-04 00:14:44 | 53.43924 | 9.00791 | 322° | 15km/h | 25651m | 4.5m/s | -50.5°C | 3.7% | 24.3hPa | 2.6V | 08:30:00 | 01:55:10 | 00:00:00 | |
| DO2JMG | 2026-09-04 00:14:43 | 53.43930 | 9.00782 | 312° | 7km/h | 25667m | 4.8m/s | -50.5°C | 0.6% | 24.2hPa | 2.5V | 18:12:15 | 01:55:13 | 00:00:00 | |
| DL4BBY-15 | 2026-09-04 00:14:43 | 53.43930 | 9.00782 | 313° | 9km/h | 25667m | 4.7m/s | -49.9°C | 0% | 0hPa | 2.6V | 00:00:00 | 00:00:00 | 00:00:00 | |
| DL8OAI-8 | 2026-09-04 00:14:42 | 53.43930 | 9.00782 | 313° | 7km/h | 25667m | 4.8m/s | -50.5°C | 1.1% | 24.2hPa | 2.6V | 00:00:00 | 00:00:00 | 00:00:00 | |
| DB0DAN | 2026-09-04 00:14:40 | 53.43924 | 9.00791 | 323° | 15km/h | 25651m | 4.5m/s | -50.5°C | 1% | 24.31hPa | 2.6V | 00:00:00 | 00:00:00 | 00:00:00 | |
| AA1-15 | 2026-09-04 00:14:39 | 53.43921 | 9.00795 | 321° | 15km/h | 25646m | 4.7m/s | -50.4°C | 0.6% | 24.3hPa | 2.6V | 18:12:15 | 01:55:09 | 00:00:00 | |
| DO2SHX-10 | 2026-09-04 00:14:38 | 53.43918 | 9.00799 | 317° | 9km/h | 25641m | 6.2m/s | -50.4°C | 3.7% | 24.3hPa | 2.5V | 00:00:00 | 01:55:08 | 00:00:00 | |
| GOEST3-10 | 2026-09-04 00:14:37 | 53.43916 | 9.00802 | 306° | 9km/h | 25635m | 5.8m/s | -50.4°C | 3.7% | 24.3hPa | 2.5V | 00:00:00 | 00:00:00 | 00:00:00 | |
| DB0UT-7 | 2026-09-04 00:14:36 | 53.43915 | 9.00805 | 289° | 9km/h | 25630m | 4.8m/s | !°C | 3.7% | 24.3hPa | 2.5V | 00:00:00 | 01:55:06 | 00:00:00 | |
| DO2SHX-10 | 2026-09-04 00:14:35 | 53.43915 | 9.00808 | 280° | 9km/h | 25624m | 6.1m/s | -50.3°C | 3.7% | 24.3hPa | 2.5V | 00:00:00 | 01:55:05 | 00:00:00 | |
| DL1CLM-18 | 2026-09-04 00:14:34 | 53.43914 | 9.00812 | 279° | 9km/h | 25618m | 5.5m/s | -50.4°C | 1.1% | 24.4hPa | 2.5V | 00:00:00 | 00:00:00 | 00:00:00 | |
| DL1XH-15 | 2026-09-04 00:14:33 | 53.43914 | 9.00823 | 262° | 2km/h | 25596m | 5.1m/s | -50.3°C | 3.6% | 24.5hPa | 2.5V | 08:30:00 | 01:55:00 | 00:00:00 | |
| HSKMA3-T | 2026-09-04 00:14:33 | 53.43914 | 9.00816 | 276° | 9km/h | 25613m | 4.2m/s | -50.3°C | 0.5% | 24.4hPa | 2.6V | 18:12:15 | 01:55:03 | 00:00:00 | |
| DO2JMG | 2026-09-04 00:14:32 | 53.43914 | 9.00820 | 268° | 7km/h | 25608m | 5.4m/s | -50.3°C | 0.6% | 24.5hPa | 2.5V | 18:12:15 | 01:55:02 | 00:00:00 | |
| GOEST3-10 | 2026-09-04 00:14:32 | 53.43914 | 9.00820 | 268° | 4km/h | 25608m | 5.4m/s | -50.3°C | 3.6% | 24.4hPa | 2.5V | 00:00:00 | 01:55:02 | 00:00:00 | |
| SMARD9-15 | 2026-09-04 00:14:30 | 53.43914 | 9.00823 | 262° | 0km/h | 25596m | 5.1m/s | -50.3°C | 1.0% | 24.5hPa | 2.5V | 00:00:00 | 00:00:00 | 00:00:00 | |
| DM0DOS-11 | 2026-09-04 00:14:29 | 53.43908 | 9.00839 | 265° | 9km/h | 25564m | 5.9m/s | -50.5°C | 3.7% | 24.6hPa | 2.5V | 08:30:00 | 01:54:54 | 00:00:00 | |
| AA1-15 | 2026-09-04 00:14:29 | 53.43913 | 9.00825 | 320° | 7km/h | 25586m | 6.2m/s | -50.3°C | 0.5% | 24.5hPa | 2.6V | 18:12:15 | 01:54:58 | 00:00:00 | |
| DL1XH-west | 2026-09-04 00:14:29 | 53.43914 | 9.00823 | 321° | 2km/h | 25591m | 5m/s | -50.3°C | 0.6% | 24.5hPa | 2.5V | 18:12:15 | 01:54:59 | 00:00:00 | |
| DJ2DS-15 | 2026-09-04 00:14:29 | 53.43914 | 9.00823 | 322° | 9km/h | 25592m | 5.0m/s | -50.3°C | 3.6% | 24.5hPa | 2.5V | 00:00:00 | 01:54:59 | 00:00:00 | |
| DB0DAN | 2026-09-04 00:14:25 | 53.43909 | 9.00835 | 290° | 11km/h | 25570m | 6m/s | -50.4°C | 1% | 24.59hPa | 2.5V | 00:00:00 | 00:00:00 | 00:00:00 | |
| DL1XH-15 | 2026-09-04 00:14:23 | 53.43914 | 9.00857 | 245° | 13km/h | 25543m | 5.3m/s | -50.5°C | 3.7% | 24.7hPa | 2.5V | 08:30:00 | 01:54:50 | 00:00:00 | |
| HSKMA3-T | 2026-09-04 00:14:22 | 53.43911 | 9.00847 | 239° | 13km/h | 25554m | 4.8m/s | -50.5°C | 0.6% | 24.7hPa | 2.6V | 18:12:15 | 01:54:52 | 00:00:00 | |
| DO2JMG | 2026-09-04 00:14:21 | 53.43912 | 9.00852 | 243° | 15km/h | 25549m | 6.1m/s | -50.5°C | 0.6% | 24.7hPa | 2.5V | 18:12:15 | 01:54:51 | 00:00:00 | |
| DO2SHX-10 | 2026-09-04 00:14:20 | 53.43914 | 9.00857 | 246° | 11km/h | 25543m | 5.2m/s | -50.5°C | 3.7% | 24.6hPa | 2.5V | 00:00:00 | 01:54:50 | 00:00:00 | |
| DM0DOS-11 | 2026-09-04 00:14:19 | 53.43925 | 9.00861 | 152° | 9km/h | 25511m | 6.2m/s | -50.7°C | 3.7% | 24.8hPa | 2.5V | 08:30:00 | 01:54:44 | 00:00:00 | |
| AA1-15 | 2026-09-04 00:14:19 | 53.43915 | 9.00862 | 241° | 11km/h | 25538m | 4.7m/s | -50.6°C | 0.6% | 24.7hPa | 2.5V | 18:12:15 | 01:54:49 | 00:00:00 | |
| DL1XH-west | 2026-09-04 00:14:19 | 53.43916 | 9.00865 | 218° | 7km/h | 25533m | 5m/s | -50.6°C | 0.6% | 24.8hPa | 2.5V | 18:12:15 | 01:54:48 | 00:00:00 | |
| DL1XH1-15 | 2026-09-04 00:14:18 | 53.43927 | 9.00859 | 175° | 7km/h | 25505m | 5.6m/s | -50.7°C | 3.7% | 24.9hPa | 2.5V | 08:30:00 | 01:54:43 | 00:00:00 | |
| DL1CLM-18 | 2026-09-04 00:14:18 | 53.43916 | 9.00865 | 218° | 7km/h | 25533m | 5.0m/s | -50.6°C | 1.1% | 24.7hPa | 2.6V | 00:00:00 | 00:00:00 | 00:00:00 | |
| DO2SHX-10 | 2026-09-04 00:14:17 | 53.43918 | 9.00866 | 179° | 9km/h | 25528m | 6.7m/s | -50.6°C | 3.7% | 24.7hPa | 2.6V | 00:00:00 | 01:54:47 | 08:30:00 | |
| DO2SHX-10 | 2026-09-04 00:14:14 | 53.43925 | 9.00860 | 153° | 9km/h | 25511m | 6.2m/s | -50.7°C | 3.7% | 24.8hPa | 2.6V | 00:00:00 | 01:54:44 | 00:00:00 | |
| DL1XH-15 | 2026-09-04 00:14:13 | 53.43934 | 9.00862 | 195° | 13km/h | 25488m | 6.2m/s | -50.8°C | 3.7% | 24.9hPa | 2.6V | 08:30:00 | 01:54:40 | 00:00:00 | |
| HSKMA3-T | 2026-09-04 00:14:12 | 53.43929 | 9.00860 | 194° | 9km/h | 25500m | 5.4m/s | -50.8°C | 0.7% | 24.9hPa | 2.5V | 18:12:15 | 01:54:42 | 00:00:00 | |
| DF8AY | 2026-09-04 00:14:11 | 53.43931 | 9.00861 | 198° | 11km/h | 25494m | 5.6m/s | -50.8°C | 0.6% | 24.9hPa | 2.6V | 18:12:15 | 01:54:41 | 00:00:00 | |
| DB0DAN | 2026-09-04 00:14:10 | 53.43934 | 9.00862 | 196° | 11km/h | 25488m | 6.2m/s | -50.8°C | 1% | 24.92hPa | 2.6V | 00:00:00 | 00:00:00 | 00:00:00 | |
| DO2JMG | 2026-09-04 00:14:10 | 53.43934 | 9.00862 | 196° | 13km/h | 25488m | 6.2m/s | -50.8°C | 0.6% | 24.9hPa | 2.6V | 18:12:15 | 01:54:40 | 00:00:00 | |
| DJ2DS-15 | 2026-09-04 00:14:09 | 53.43937 | 9.00864 | 199° | 16km/h | 25483m | 4.9m/s | -50.7°C | 3.7% | 24.9hPa | 2.5V | 00:00:00 | 01:54:39 | 00:00:00 | |
| DL1XH1-15 | 2026-09-04 00:14:08 | 53.43954 | 9.00881 | 186° | 11km/h | 25449m | 5m/s | -50.8°C | 3.8% | 25.1hPa | 2.5V | 08:30:00 | 01:54:33 | 00:00:00 | |
| AA1-15 | 2026-09-04 00:14:08 | 53.43940 | 9.00866 | 207° | 15km/h | 25478m | 5.3m/s | -50.8°C | 0.6% | 24.9hPa | 2.5V | 18:12:15 | 01:54:38 | 00:00:00 | |
| DO2SHX-10 | 2026-09-04 00:14:08 | 53.43940 | 9.00866 | 207° | 15km/h | 25478m | 5.2m/s | -50.7°C | 3.7% | 24.9hPa | 2.5V | 00:00:00 | 01:54:38 | 00:00:00 | |
| DB0UT-7 | 2026-09-04 00:14:07 | 53.43946 | 9.00873 | 224° | 18km/h | 25466m | 5.5m/s | -50.8°C | 3.7% | 24.9hPa | 2.5V | 00:00:00 | 00:00:00 | 00:00:00 | |
| DO2SHX-10 | 2026-09-04 00:14:06 | 53.43949 | 9.00877 | 218° | 11km/h | 25461m | 5.0m/s | -50.8°C | 3.8% | 25.0hPa | 2.5V | 00:00:00 | 01:54:35 | 00:00:00 | |
| AU51GT2 | 2026-09-04 00:14:05 | 53.43951 | 9.00880 | 202° | 11km/h | 25455m | 6.6m/s | -50.8°C | 1.0% | 25.0hPa | 2.5V | 00:00:00 | 00:00:00 | 00:00:00 | |
| EDDB2-12 | 2026-09-04 00:14:04 | 53.43954 | 9.00881 | 186° | 9km/h | 25449m | 5.0m/s | -50.8°C | 1.1% | 25.1hPa | 2.5V | 00:00:00 | 00:00:00 | 00:00:00 | |
| DL1XH-15 | 2026-09-04 00:14:03 | 53.43961 | 9.00884 | 217° | 9km/h | 25432m | 6.1m/s | -50.9°C | 3.7% | 25.1hPa | 2.5V | 08:30:00 | 01:54:30 | 00:00:00 | |
| HSKMA3-T | 2026-09-04 00:14:02 | 53.43957 | 9.00881 | 186° | 9km/h | 25444m | 5m/s | -50.8°C | 0.6% | 25.1hPa | 2.5V | 18:12:15 | 01:54:32 | 00:00:00 | |
| DO2JMG | 2026-09-04 00:14:00 | 53.43961 | 9.00884 | 217° | 9km/h | 25432m | 6.1m/s | -50.9°C | 0.7% | 25.1hPa | 2.5V | 18:12:15 | 01:54:30 | 00:00:00 | |
| DO2SHX-10 | 2026-09-04 00:13:59 | 53.43963 | 9.00887 | 229° | 16km/h | 25427m | 4.3m/s | -50.9°C | 3.8% | 25.1hPa | 2.6V | 00:00:00 | 01:54:29 | 00:00:00 | |
| DL1XH1-15 | 2026-09-04 00:13:58 | 53.43987 | 9.00923 | 229° | 26km/h | 25395m | 6.5m/s | -51°C | 3.8% | 25.3hPa | 2.6V | 08:30:00 | 01:54:23 | 00:00:00 | |
| AA1-15 | 2026-09-04 00:13:57 | 53.43969 | 9.00897 | 221° | 18km/h | 25417m | 6.1m/s | -51.1°C | 0.7% | 25.2hPa | 2.5V | 18:12:15 | 01:54:27 | 00:00:00 | |
| DB0DAN | 2026-09-04 00:13:55 | 53.43978 | 9.00908 | 217° | 24km/h | 25406m | 5.1m/s | -51.1°C | 1.1% | 25.25hPa | 2.5V | 00:00:00 | 00:00:00 | 00:00:00 | |
| HSKMA3-T | 2026-09-04 00:13:51 | 53.43995 | 9.00940 | 232° | 24km/h | 25383m | 5.4m/s | -51°C | 0.7% | 25.3hPa | 2.5V | 18:12:15 | 01:54:21 | 00:00:00 | |
| DO2JMG | 2026-09-04 00:13:49 | 53.44003 | 9.00954 | 218° | 22km/h | 25372m | 5m/s | -51°C | 0.7% | 25.3hPa | 2.5V | 18:12:15 | 01:54:19 | 00:00:00 | |
| DL1XH-west | 2026-09-04 00:13:46 | 53.44015 | 9.00969 | 222° | 18km/h | 25355m | 5.1m/s | -51°C | 0.7% | 25.4hPa | 2.5V | 18:12:15 | 01:54:16 | 00:00:00 | |
| DO9LL-15 | 2026-09-04 00:13:45 | 53.44018 | 9.00974 | 218° | 22km/h | 25351m | 4.6m/s | -51.0°C | 3.8% | 25.4hPa | 2.6V | 00:00:00 | 01:54:15 | 00:00:00 | |
| DO2SHX-10 | 2026-09-04 00:13:44 | 53.44023 | 9.00979 | 214° | 24km/h | 25345m | 6.2m/s | -51.0°C | 3.8% | 25.4hPa | 2.6V | 00:00:00 | 01:54:14 | 00:00:00 | |
| DL4BBY-15 | 2026-09-04 00:13:43 | 53.44027 | 9.00984 | 209° | 22km/h | 25339m | 5.9m/s | -50.5°C | 0% | 0hPa | 2.6V | 00:00:00 | 00:00:00 | 00:00:00 | |
| DL1ZP-14 | 2026-09-04 00:13:42 | 53.44038 | 9.00994 | 210° | 24km/h | 25328m | 5.9m/s | -51.1°C | 1.1% | 25.5hPa | 2.6V | 00:00:00 | 00:00:00 | 00:00:00 | |
| DO2SHX-10 | 2026-09-04 00:13:41 | 53.44038 | 9.00993 | 211° | 22km/h | 25328m | 5.8m/s | -51.1°C | 3.8% | 25.5hPa | 2.6V | 00:00:00 | 01:54:11 | 00:00:00 | |
| HSKMA3-T | 2026-09-04 00:13:41 | 53.44038 | 9.00994 | 210° | 24km/h | 25328m | 5.9m/s | -51.1°C | 0.7% | 25.5hPa | 2.6V | 18:12:15 | 01:54:11 | 00:00:00 | |
| DF4FW | 2026-09-04 00:13:40 | 53.44038 | 9.00993 | 211° | 24km/h | 25328m | 5.9m/s | -51.1°C | 1.1% | 25.5hPa | 2.5V | 00:00:00 | 00:00:00 | 00:00:00 | |
| DM0DOS-11 | 2026-09-04 00:13:39 | 53.44073 | 9.01026 | 210° | 16km/h | 25282m | 5m/s | -51.1°C | 3.8% | 25.7hPa | 2.5V | 08:30:00 | 01:54:03 | 00:00:00 | |
| DO2JMG | 2026-09-04 00:13:39 | 53.44048 | 9.01004 | 217° | 20km/h | 25316m | 5m/s | -51.2°C | 0.8% | 25.6hPa | 2.5V | 18:12:15 | 01:54:09 | 00:00:00 | |
| AA1-15 | 2026-09-04 00:13:35 | 53.44070 | 9.01022 | 208° | 18km/h | 25288m | 6.5m/s | -51.1°C | 0.7% | 25.7hPa | 2.5V | 18:12:15 | 01:54:04 | 00:00:00 | |
| DL1XH-west | 2026-09-04 00:13:35 | 53.44065 | 9.01019 | 202° | 18km/h | 25294m | 5.1m/s | -51.1°C | 0.7% | 25.7hPa | 2.6V | 18:12:15 | 01:54:05 | 00:00:00 | |
| HSKMA3-T | 2026-09-04 00:13:31 | 53.44082 | 9.01031 | 195° | 18km/h | 25272m | 6.4m/s | -51.1°C | 0.7% | 25.8hPa | 2.6V | 18:12:15 | 01:54:01 | 00:00:00 | |
| DF8AY | 2026-09-04 00:13:29 | 53.44092 | 9.01033 | 179° | 24km/h | 25260m | 5m/s | -51.1°C | 0.7% | 25.8hPa | 2.5V | 18:12:15 | 01:53:59 | 00:00:00 | |
| DO2SHX-10 | 2026-09-04 00:13:29 | 53.44092 | 9.01033 | 180° | 24km/h | 25260m | 4.9m/s | -51.1°C | 3.9% | 25.8hPa | 2.6V | 00:00:00 | 01:53:59 | 00:00:00 | |
| DM0DOS-11 | 2026-09-04 00:13:28 | 53.44123 | 9.01038 | 188° | 27km/h | 25233m | 6m/s | -51°C | 3.9% | 25.9hPa | 2.6V | 08:30:00 | 01:53:54 | 00:00:00 | |
| DL1XH1-15 | 2026-09-04 00:13:28 | 53.44130 | 9.01039 | 184° | 27km/h | 25227m | 6.3m/s | -51°C | 3.9% | 25.9hPa | 2.5V | 08:30:00 | 01:53:53 | 00:00:00 | |
| DO2JMG | 2026-09-04 00:13:28 | 53.44099 | 9.01033 | 180° | 26km/h | 25255m | 4.9m/s | -51.1°C | 0.7% | 25.8hPa | 2.5V | 18:12:15 | 01:53:58 | 00:00:00 | |
| DL1XH-west | 2026-09-04 00:13:25 | 53.44117 | 9.01036 | 190° | 26km/h | 25239m | 4.8m/s | -51.1°C | 0.7% | 25.9hPa | 2.6V | 18:12:15 | 01:53:55 | 00:00:00 | |
| DL1LOL-11 | 2026-09-04 00:13:24 | 53.44117 | 9.01036 | 191° | 26km/h | 25239m | 4.8m/s | -51.1°C | 1.1% | 25.9hPa | 2.5V | 00:00:00 | 00:00:00 | 00:00:00 | |
| DL1XH-15 | 2026-09-04 00:13:21 | 53.44150 | 9.01041 | 185° | 22km/h | 25210m | 6.4m/s | -50.9°C | 3.8% | 26hPa | 2.5V | 08:30:00 | 01:53:50 | 00:00:00 | |
| DF8AY | 2026-09-04 00:13:20 | 53.44160 | 9.01042 | 175° | 18km/h | 25199m | 5.2m/s | -50.9°C | 0.7% | 26.1hPa | 2.6V | 18:12:15 | 01:53:48 | 00:00:00 | |
| HSKMA3-T | 2026-09-04 00:13:20 | 53.44150 | 9.01041 | 186° | 22km/h | 25210m | 6.4m/s | -50.9°C | 0.7% | 26hPa | 2.5V | 18:12:15 | 01:53:50 | 00:00:00 | |
| DO2SHX-10 | 2026-09-04 00:13:19 | 53.44155 | 9.01042 | 184° | 18km/h | 25205m | 5.2m/s | -50.9°C | 3.8% | 26.0hPa | 2.6V | 00:00:00 | 01:53:49 | 00:00:00 | |
| DL1XH1-15 | 2026-09-04 00:13:18 | 53.44185 | 9.01029 | 167° | 20km/h | 25170m | 5.6m/s | -50.8°C | 3.8% | 26.2hPa | 2.6V | 08:30:00 | 01:53:43 | 00:00:00 | |
| DO2JMG | 2026-09-04 00:13:17 | 53.44165 | 9.01041 | 166° | 20km/h | 25193m | 6.3m/s | -50.9°C | 0.7% | 26.1hPa | 2.5V | 18:12:15 | 01:53:47 | 00:00:00 | |
| DL1XH-west | 2026-09-04 00:13:15 | 53.44175 | 9.01035 | 159° | 22km/h | 25182m | 5m/s | -50.8°C | 0.7% | 26.1hPa | 2.5V | 18:12:15 | 01:53:45 | 00:00:00 | |
| AA1-15 | 2026-09-04 00:13:14 | 53.44180 | 9.01032 | 162° | 20km/h | 25176m | 6.3m/s | -50.8°C | 0.7% | 26.2hPa | 2.5V | 18:12:15 | 01:53:44 | 00:00:00 | |
| DF8AY-15 | 2026-09-04 00:13:14 | 53.44180 | 9.01032 | 163° | 20km/h | 25177m | 6.3m/s | -50.8°C | 3.8% | 26.1hPa | 2.6V | 00:00:00 | 01:53:44 | 00:00:00 | |
| DO2SHX-10 | 2026-09-04 00:13:13 | 53.44185 | 9.01030 | 168° | 22km/h | 25171m | 5.6m/s | -50.7°C | 3.8% | 26.1hPa | 2.6V | 00:00:00 | 01:53:43 | 00:00:00 | |
| DL1XH-15 | 2026-09-04 00:13:11 | 53.44201 | 9.01024 | 166° | 26km/h | 25154m | 6.1m/s | -50.8°C | 3.8% | 26.2hPa | 2.5V | 08:30:00 | 01:53:40 | 00:00:00 | |
| DB0DAN | 2026-09-04 00:13:10 | 53.44201 | 9.01024 | 166° | 24km/h | 25154m | 6.1m/s | -50.8°C | 1.1% | 26.21hPa | 2.5V | 00:00:00 | 00:00:00 | 00:00:00 | |
| HSKMA3-T | 2026-09-04 00:13:10 | 53.44201 | 9.01024 | 166° | 26km/h | 25154m | 6.1m/s | -50.8°C | 0.7% | 26.2hPa | 2.5V | 18:12:15 | 01:53:40 | 00:00:00 | |
| DO2SHX-10 | 2026-09-04 00:13:10 | 53.44201 | 9.01024 | 167° | 26km/h | 25155m | 6.1m/s | -50.7°C | 3.8% | 26.2hPa | 2.5V | 00:00:00 | 01:53:40 | 00:00:00 | |
| DF4FW | 2026-09-04 00:13:09 | 53.44207 | 9.01021 | 167° | 27km/h | 25149m | 5.4m/s | -50.7°C | 1.1% | 26.2hPa | 2.5V | 00:00:00 | 00:00:00 | 00:00:00 | |
| DM0DOS-11 | 2026-09-04 00:13:08 | 53.44235 | 9.01011 | 154° | 20km/h | 25122m | 6.3m/s | -50.6°C | 3.8% | 26.4hPa | 2.5V | 08:30:00 | 01:53:34 | 00:00:00 | |
| DO2JMG | 2026-09-04 00:13:07 | 53.44220 | 9.01017 | 171° | 24km/h | 25137m | 6.1m/s | -50.7°C | 0.7% | 26.3hPa | 2.6V | 18:12:15 | 01:53:37 | 00:00:00 | |
| AA1-15 | 2026-09-04 00:13:05 | 53.44239 | 9.01006 | 141° | 22km/h | 25116m | 6.2m/s | -50.6°C | 0.7% | 26.4hPa | 2.5V | 18:12:15 | 01:53:33 | 00:00:00 | |
| DL1XH-west | 2026-09-04 00:13:05 | 53.44235 | 9.01011 | 154° | 20km/h | 25122m | 6.4m/s | -50.7°C | 0.7% | 26.4hPa | 2.5V | 18:12:15 | 01:53:34 | 00:00:00 | |
| DO2SHX-10 | 2026-09-04 00:13:04 | 53.44235 | 9.01011 | 155° | 20km/h | 25122m | 6.3m/s | -50.6°C | 3.8% | 26.3hPa | 2.5V | 00:00:00 | 01:53:34 | 00:00:00 | |
| DL1XH-15 | 2026-09-04 00:13:01 | 53.44249 | 9.00987 | 127° | 18km/h | 25097m | 6.1m/s | -50.6°C | 3.7% | 26.5hPa | 2.5V | 08:30:00 | 01:53:30 | 00:00:00 | |
| HSKMA3-T | 2026-09-04 00:12:59 | 53.44252 | 9.00981 | 129° | 16km/h | 25092m | 4.7m/s | -50.6°C | 0.6% | 26.5hPa | 2.5V | 18:12:15 | 01:53:29 | 00:00:00 | |
| GOEST3-10 | 2026-09-04 00:12:59 | 53.44252 | 9.00981 | 129° | 18km/h | 25092m | 4.7m/s | -50.5°C | 3.7% | 26.4hPa | 2.5V | 00:00:00 | 01:53:29 | 00:00:00 | |
| DM0DOS-11 | 2026-09-04 00:12:58 | 53.44270 | 9.00957 | 161° | 18km/h | 25063m | 6.2m/s | -50.7°C | 3.7% | 26.6hPa | 2.5V | 08:30:00 | 01:53:24 | 00:00:00 | |
| DL1XH1-15 | 2026-09-04 00:12:58 | 53.44275 | 9.00954 | 162° | 18km/h | 25058m | 5m/s | -50.7°C | 3.7% | 26.6hPa | 2.5V | 08:30:00 | 01:53:23 | 00:00:00 | |
| DO2JMG | 2026-09-04 00:12:56 | 53.44262 | 9.00964 | 143° | 20km/h | 25075m | 4.8m/s | -50.6°C | 0.6% | 26.5hPa | 2.6V | 18:12:15 | 01:53:26 | 00:00:00 | |
| DB0DAN | 2026-09-04 00:12:55 | 53.44266 | 9.00960 | 152° | 18km/h | 25069m | 6m/s | -50.6°C | 1% | 26.55hPa | 2.6V | 00:00:00 | 00:00:00 | 00:00:00 | |
| DO2SHX-10 | 2026-09-04 00:12:55 | 53.44266 | 9.00960 | 152° | 18km/h | 25070m | 5.9m/s | -50.6°C | 3.6% | 26.5hPa | 2.6V | 00:00:00 | 01:53:25 | 08:30:00 | |
| DL1XH-15 | 2026-09-04 00:12:54 | 53.44288 | 9.00940 | 133° | 26km/h | 25041m | 5.8m/s | -50.8°C | 3.7% | 26.7hPa | 2.6V | 08:30:00 | 01:53:20 | 00:00:00 | |
| AA1-15 | 2026-09-04 00:12:53 | 53.44275 | 9.00954 | 162° | 18km/h | 25058m | 5m/s | -50.7°C | 0.6% | 26.6hPa | 2.5V | 18:12:15 | 01:53:23 | 00:00:00 | |
| S3001 | 2026-09-04 00:12:49 | 53.44296 | 9.00922 | 122° | 27km/h | 25030m | 6.2m/s | -50.9°C | 1.1% | 26.7hPa | 2.6V | 00:00:00 | 00:00:00 | 00:00:00 | |
| DL1XH1-15 | 2026-09-04 00:12:48 | 53.44312 | 9.00876 | 125° | 26km/h | 25001m | 4.9m/s | -50.8°C | 3.7% | 26.9hPa | 2.6V | 08:30:00 | 01:53:13 | 00:00:00 | |
| DM0DOS-11 | 2026-09-04 00:12:48 | 53.44309 | 9.00885 | 120° | 26km/h | 25006m | 6.3m/s | -50.8°C | 3.7% | 26.8hPa | 2.6V | 08:30:00 | 01:53:14 | 00:00:00 | |
| HSKMA3-T | 2026-09-04 00:12:48 | 53.44296 | 9.00922 | 123° | 27km/h | 25030m | 6.2m/s | -50.9°C | 0.7% | 26.7hPa | 2.5V | 18:12:15 | 01:53:18 | 00:00:00 | |
| DO2JMG | 2026-09-04 00:12:46 | 53.44303 | 9.00903 | 119° | 24km/h | 25018m | 5.3m/s | -50.9°C | 0.7% | 26.8hPa | 2.5V | 18:12:15 | 01:53:16 | 00:00:00 | |
| AA1-15 | 2026-09-04 00:12:43 | 53.44312 | 9.00876 | 126° | 26km/h | 25001m | 4.9m/s | -50.8°C | 0.6% | 26.9hPa | 2.6V | 18:12:15 | 01:53:13 | 00:00:00 | |
| DL1XH-west | 2026-09-04 00:12:42 | 53.44316 | 9.00868 | 132° | 24km/h | 24996m | 4.9m/s | -50.8°C | 0.7% | 26.9hPa | 2.5V | 18:12:15 | 01:53:12 | 00:00:00 | |
| DB0DAN | 2026-09-04 00:12:40 | 53.44324 | 9.00856 | 144° | 16km/h | 24984m | 5.6m/s | -50.8°C | 1.1% | 26.92hPa | 2.5V | 00:00:00 | 00:00:00 | 00:00:00 | |
| DF8AY | 2026-09-04 00:12:38 | 53.44344 | 9.00811 | 115° | 16km/h | 24946m | 6m/s | -50.9°C | 0.7% | 27.1hPa | 2.6V | 18:12:15 | 01:53:03 | 00:00:00 | |
| DM0DOS-11 | 2026-09-04 00:12:38 | 53.44342 | 9.00818 | 115° | 20km/h | 24952m | 6.1m/s | -50.9°C | 3.8% | 27.1hPa | 2.5V | 08:30:00 | 01:53:04 | 00:00:00 | |
| DL1XH1-15 | 2026-09-04 00:12:38 | 53.44344 | 9.00811 | 115° | 16km/h | 24946m | 6m/s | -50.9°C | 3.8% | 27.1hPa | 2.6V | 08:30:00 | 01:53:03 | 00:00:00 | |
| BIOWL1-15 | 2026-09-04 00:12:37 | 53.44342 | 9.00818 | 116° | 20km/h | 24952m | 6.1m/s | -50.9°C | 0.7% | 27.1hPa | 2.5V | 18:12:15 | 01:53:04 | 00:00:00 | |
| HSKMA3-T | 2026-09-04 00:12:37 | 53.44334 | 9.00841 | 129° | 20km/h | 24967m | 5.9m/s | -50.8°C | 0.6% | 27hPa | 2.6V | 18:12:15 | 01:53:07 | 00:00:00 | |
| DO2JMG | 2026-09-04 00:12:36 | 53.44337 | 9.00834 | 123° | 22km/h | 24962m | 4.5m/s | -50.8°C | 0.7% | 27hPa | 2.5V | 18:12:15 | 01:53:06 | 00:00:00 | |
| DL1XH-west | 2026-09-04 00:12:32 | 53.44346 | 9.00805 | 120° | 15km/h | 24940m | 5.1m/s | -51°C | 0.7% | 27.1hPa | 2.6V | 18:12:15 | 01:53:02 | 00:00:00 | |
| EDDB2-12 | 2026-09-04 00:12:31 | 53.44351 | 9.00795 | 130° | 16km/h | 24930m | 6.3m/s | -51.0°C | 1.1% | 27.1hPa | 2.5V | 00:00:00 | 00:00:00 | 00:00:00 | |
| DJ2DS-15 | 2026-09-04 00:12:30 | 53.44351 | 9.00795 | 130° | 16km/h | 24930m | 6.3m/s | -51.0°C | 1.1% | 27.1hPa | 2.5V | 00:00:00 | 00:00:00 | 00:00:00 | |
| DJ2DS-15 | 2026-09-04 00:12:29 | 53.44354 | 9.00788 | 133° | 13km/h | 24924m | 6.0m/s | -51.0°C | 3.8% | 27.1hPa | 2.5V | 00:00:00 | 01:52:59 | 00:00:00 | |
| DM0DOS-11 | 2026-09-04 00:12:28 | 53.44369 | 9.00761 | 133° | 13km/h | 24896m | 4.7m/s | -51.1°C | 3.8% | 27.3hPa | 2.5V | 08:30:00 | 01:52:54 | 00:00:00 | |
| DL1XH1-15 | 2026-09-04 00:12:28 | 53.44371 | 9.00757 | 137° | 15km/h | 24890m | 6.3m/s | -51.1°C | 3.8% | 27.3hPa | 2.5V | 08:30:00 | 01:52:53 | 00:00:00 | |
| HSKMA3-T | 2026-09-04 00:12:26 | 53.44364 | 9.00770 | 132° | 16km/h | 24906m | 6.2m/s | -51.1°C | 0.7% | 27.2hPa | 2.6V | 18:12:15 | 01:52:56 | 00:00:00 | |
| DB0DAN | 2026-09-04 00:12:25 | 53.44367 | 9.00765 | 131° | 13km/h | 24901m | 5.3m/s | -51.1°C | 1.1% | 27.27hPa | 2.5V | 00:00:00 | 00:00:00 | 00:00:00 | |
| DO2JMG | 2026-09-04 00:12:25 | 53.44367 | 9.00765 | 131° | 13km/h | 24901m | 5.3m/s | -51.1°C | 0.7% | 27.3hPa | 2.5V | 18:12:15 | 01:52:55 | 00:00:00 | |
| AA1-15 | 2026-09-04 00:12:22 | 53.44374 | 9.00753 | 145° | 16km/h | 24884m | 5.8m/s | -51.1°C | 0.8% | 27.4hPa | 2.5V | 18:12:15 | 01:52:52 | 00:00:00 | |
| DL1XH-west | 2026-09-04 00:12:21 | 53.44378 | 9.00750 | 153° | 15km/h | 24879m | 4.6m/s | -51.1°C | 0.7% | 27.4hPa | 2.6V | 18:12:15 | 01:52:51 | 00:00:00 | |
| DL4XJ-10 | 2026-09-04 00:12:19 | 53.44384 | 9.00746 | 175° | 13km/h | 24868m | 6.8m/s | -50.5°C | 0% | 0hPa | 2.5V | 00:00:00 | 00:00:00 | 00:00:00 | |
| DL1XH1-15 | 2026-09-04 00:12:18 | 53.44398 | 9.00751 | 162° | 9km/h | 24834m | 5.2m/s | -51°C | 3.8% | 27.6hPa | 2.5V | 08:30:00 | 01:52:43 | 00:00:00 | |
| HSKMA3-T | 2026-09-04 00:12:16 | 53.44391 | 9.00750 | 207° | 9km/h | 24851m | 5.4m/s | -51.1°C | 0.7% | 27.5hPa | 2.5V | 18:12:15 | 01:52:46 | 00:00:00 | |
| DO2JMG | 2026-09-04 00:12:15 | 53.44393 | 9.00751 | 195° | 11km/h | 24845m | 6.4m/s | -51.1°C | 0.7% | 27.5hPa | 2.6V | 18:12:15 | 01:52:45 | 00:00:00 | |
| AA1-15 | 2026-09-04 00:12:12 | 53.44400 | 9.00749 | 141° | 9km/h | 24828m | 6.6m/s | -51.1°C | 0.7% | 27.6hPa | 2.5V | 18:12:15 | 01:52:42 | 00:00:00 | |
| DF8AY | 2026-09-04 00:12:11 | 53.44426 | 9.00736 | 192° | 13km/h | 24777m | 5m/s | -51.1°C | 0.7% | 27.8hPa | 2.6V | 18:12:15 | 01:52:33 | 00:00:00 | |
| DB0DAN | 2026-09-04 00:12:10 | 53.44403 | 9.00744 | 125° | 7km/h | 24817m | 5.3m/s | -51.1°C | 1.1% | 27.63hPa | 2.5V | 00:00:00 | 00:00:00 | 00:00:00 | |
| DL1XH-west | 2026-09-04 00:12:10 | 53.44403 | 9.00744 | 125° | 9km/h | 24817m | 5.3m/s | -51.1°C | 0.7% | 27.6hPa | 2.5V | 18:12:15 | 01:52:40 | 00:00:00 | |
| DO9LL-15 | 2026-09-04 00:12:10 | 53.44403 | 9.00744 | 125° | 18km/h | 24817m | 5.3m/s | -51.0°C | 3.8% | 27.6hPa | 2.6V | 00:00:00 | 01:52:40 | 00:00:00 | |
| DJ2DS-15 | 2026-09-04 00:12:09 | 53.44404 | 9.00741 | 141° | 13km/h | 24811m | 6.4m/s | -51.0°C | 3.8% | 27.6hPa | 2.6V | 00:00:00 | 01:52:39 | 08:30:00 | |
| DL1XH1-15 | 2026-09-04 00:12:07 | 53.44426 | 9.00736 | 192° | 13km/h | 24777m | 5m/s | -51.1°C | 3.9% | 27.8hPa | 2.6V | 08:30:00 | 01:52:33 | 00:00:00 | |
| HSKMA3-T | 2026-09-04 00:12:06 | 53.44415 | 9.00735 | 173° | 16km/h | 24794m | 5m/s | -51.1°C | 0.7% | 27.7hPa | 2.5V | 18:12:15 | 01:52:36 | 00:00:00 | |
| DO2JMG | 2026-09-04 00:12:05 | 53.44419 | 9.00735 | 177° | 16km/h | 24788m | 6.4m/s | -51.2°C | 0.8% | 27.8hPa | 2.5V | 18:12:15 | 01:52:35 | 00:00:00 | |
| AA1-15 | 2026-09-04 00:12:02 | 53.44429 | 9.00737 | 196° | 15km/h | 24772m | 5.8m/s | -51.1°C | 0.7% | 27.8hPa | 2.5V | 18:12:15 | 01:52:32 | 00:00:00 | |
| DL1XH-west | 2026-09-04 00:11:59 | 53.44441 | 9.00744 | 200° | 15km/h | 24755m | 5.2m/s | -51.1°C | 0.7% | 27.9hPa | 2.5V | 18:12:15 | 01:52:29 | 00:00:00 | |
| DL4XJ-10 | 2026-09-04 00:11:59 | 53.44441 | 9.00743 | 201° | 16km/h | 24755m | 5.2m/s | -50.6°C | 0% | 0hPa | 2.5V | 00:00:00 | 00:00:00 | 00:00:00 | |
| DM0DOS-11 | 2026-09-04 00:11:58 | 53.44452 | 9.00747 | 173° | 11km/h | 24725m | 5.6m/s | -51.1°C | 3.8% | 28hPa | 2.5V | 08:30:00 | 01:52:24 | 00:00:00 | |
| BIOWL1-15 | 2026-09-04 00:11:57 | 53.44450 | 9.00747 | 174° | 7km/h | 24731m | 6.3m/s | -51.1°C | 0.7% | 28hPa | 2.5V | 18:12:15 | 01:52:25 | 00:00:00 | |
| HSKMA3-T | 2026-09-04 00:11:56 | 53.44448 | 9.00747 | 184° | 7km/h | 24737m | 5.1m/s | -51.1°C | 0.8% | 28hPa | 2.5V | 18:12:15 | 01:52:26 | 00:00:00 | |
| DB0DAN | 2026-09-04 00:11:55 | 53.44450 | 9.00747 | 174° | 7km/h | 24731m | 6.3m/s | -51.1°C | 1.1% | 28hPa | 2.5V | 00:00:00 | 00:00:00 | 00:00:00 | |
| DO2JMG | 2026-09-04 00:11:54 | 53.44452 | 9.00747 | 173° | 11km/h | 24725m | 5.6m/s | -51.1°C | 0.7% | 28hPa | 2.5V | 18:12:15 | 01:52:24 | 00:00:00 | |
| AA1-15 | 2026-09-04 00:11:52 | 53.44458 | 9.00747 | 185° | 13km/h | 24715m | 5.9m/s | -51°C | 0.7% | 28.1hPa | 2.6V | 18:12:15 | 01:52:22 | 00:00:00 | |
| DL1XH-west | 2026-09-04 00:11:49 | 53.44469 | 9.00752 | 201° | 18km/h | 24699m | 5.6m/s | -50.9°C | 0.7% | 28.1hPa | 2.5V | 18:12:15 | 01:52:19 | 00:00:00 | |
| S3001 | 2026-09-04 00:11:47 | 53.44485 | 9.00760 | 191° | 22km/h | 24682m | 5.0m/s | -50.9°C | 1.1% | 28.2hPa | 2.5V | 00:00:00 | 00:00:00 | 00:00:00 | |
| DM0DOS-11 | 2026-09-04 00:11:46 | 53.44494 | 9.00761 | 176° | 15km/h | 24670m | 5.5m/s | -50.9°C | 3.8% | 28.2hPa | 2.5V | 08:30:00 | 01:52:14 | 00:00:00 | |
| HSKMA3-T | 2026-09-04 00:11:45 | 53.44490 | 9.00761 | 187° | 20km/h | 24676m | 6.5m/s | -50.9°C | 0.7% | 28.2hPa | 2.6V | 18:12:15 | 01:52:15 | 00:00:00 | |
| DF8AY | 2026-09-04 00:11:45 | 53.44508 | 9.00748 | 141° | 20km/h | 24647m | 5.3m/s | -50.8°C | 0.7% | 28.3hPa | 2.6V | 18:12:15 | 01:52:10 | 00:00:00 | |
| DO2JMG | 2026-09-04 00:11:44 | 53.44494 | 9.00761 | 176° | 15km/h | 24671m | 5.5m/s | -50.9°C | 0.7% | 28.2hPa | 2.5V | 18:12:15 | 01:52:14 | 00:00:00 | |
| GOEST3-10 | 2026-09-04 00:11:44 | 53.44494 | 9.00761 | 177° | 16km/h | 24671m | 5.4m/s | -50.8°C | 3.8% | 28.2hPa | 2.6V | 00:00:00 | 00:00:00 | 00:00:00 | |
| DL1XH-15 | 2026-09-04 00:11:43 | 53.44508 | 9.00748 | 140° | 20km/h | 24647m | 5.3m/s | -50.8°C | 3.8% | 28.3hPa | 2.6V | 08:30:00 | 01:52:10 | 00:00:00 | |
| AA1-15 | 2026-09-04 00:11:42 | 53.44501 | 9.00758 | 147° | 15km/h | 24659m | 6.2m/s | -50.9°C | 0.7% | 28.3hPa | 2.5V | 18:12:15 | 01:52:12 | 00:00:00 | |
| DB0DAN | 2026-09-04 00:11:40 | 53.44508 | 9.00748 | 140° | 18km/h | 24647m | 5.3m/s | -50.8°C | 1.1% | 28.34hPa | 2.6V | 00:00:00 | 00:00:00 | 00:00:00 | |
| BIOWL1-15 | 2026-09-04 00:11:38 | 53.44515 | 9.00740 | 150° | 16km/h | 24637m | 5.9m/s | -50.9°C | 0.7% | 28.4hPa | 2.5V | 18:12:15 | 01:52:08 | 00:00:00 | |
| DO2SHX-10 | 2026-09-04 00:11:37 | 53.44519 | 9.00737 | 165° | 15km/h | 24631m | 5.7m/s | -50.8°C | 3.8% | 28.4hPa | 2.6V | 00:00:00 | 01:52:07 | 00:00:00 | |
| DM0DOS-11 | 2026-09-04 00:11:35 | 53.44531 | 9.00738 | 187° | 22km/h | 24614m | 6.4m/s | -50.9°C | 3.8% | 28.5hPa | 2.6V | 08:30:00 | 01:52:04 | 00:00:00 | |
| DL1XH-15 | 2026-09-04 00:11:35 | 53.44556 | 9.00741 | 177° | 24km/h | 24592m | 4.8m/s | -51°C | 3.8% | 28.6hPa | 2.5V | 08:30:00 | 01:52:00 | 00:00:00 | |
| HSKMA3-T | 2026-09-04 00:11:35 | 53.44526 | 9.00737 | 187° | 18km/h | 24620m | 5.4m/s | -50.9°C | 0.7% | 28.4hPa | 2.6V | 18:12:15 | 01:52:05 | 00:00:00 | |
| DO2JMG | 2026-09-04 00:11:33 | 53.44537 | 9.00739 | 186° | 26km/h | 24608m | 5.7m/s | -50.9°C | 0.7% | 28.5hPa | 2.5V | 18:12:15 | 01:52:03 | 00:00:00 | |
| AA1-15 | 2026-09-04 00:11:31 | 53.44550 | 9.00741 | 183° | 26km/h | 24597m | 5.9m/s | -50.9°C | 0.6% | 28.6hPa | 2.5V | 18:12:15 | 01:52:01 | 00:00:00 | |
| DO2SHX-10 | 2026-09-04 00:11:31 | 53.44550 | 9.00741 | 184° | 24km/h | 24598m | 5.8m/s | -50.9°C | 3.7% | 28.5hPa | 2.5V | 00:00:00 | 01:52:01 | 00:00:00 | |
| DM0DOS-11 | 2026-09-04 00:11:29 | 53.44590 | 9.00716 | 145° | 22km/h | 24559m | 5.6m/s | -51°C | 3.7% | 28.7hPa | 2.5V | 08:30:00 | 01:51:54 | 00:00:00 | |
| BIOWL1-15 | 2026-09-04 00:11:28 | 53.44568 | 9.00737 | 162° | 27km/h | 24582m | 6.7m/s | -51°C | 0.7% | 28.6hPa | 2.6V | 18:12:15 | 01:51:58 | 00:00:00 | |
| DL1XH-west | 2026-09-04 00:11:28 | 53.44574 | 9.00732 | 154° | 27km/h | 24575m | 5.4m/s | -51.1°C | 0.7% | 28.7hPa | 2.5V | 18:12:15 | 01:51:57 | 00:00:00 | |
| DJ2DS-15 | 2026-09-04 00:11:28 | 53.44568 | 9.00736 | 162° | 26km/h | 24582m | 6.6m/s | -51.0°C | 3.8% | 28.6hPa | 2.6V | 00:00:00 | 01:51:58 | 00:00:00 | |
| DL1XH1-15 | 2026-09-04 00:11:27 | 53.44595 | 9.00711 | 146° | 20km/h | 24553m | 5.2m/s | -51°C | 3.8% | 28.8hPa | 2.6V | 08:30:00 | 01:51:53 | 00:00:00 | |
| DB0DAN | 2026-09-04 00:11:25 | 53.44586 | 9.00721 | 147° | 24km/h | 24565m | 6.5m/s | -51°C | 1.1% | 28.72hPa | 2.5V | 00:00:00 | 00:00:00 | 00:00:00 | |
| DL1XH-15 | 2026-09-04 00:11:25 | 53.44610 | 9.00697 | 154° | 27km/h | 24536m | 4.7m/s | -51°C | 3.8% | 28.8hPa | 2.5V | 08:30:00 | 01:51:50 | 00:00:00 | |
| HSKMA3-T | 2026-09-04 00:11:24 | 53.44591 | 9.00716 | 146° | 22km/h | 24559m | 5.6m/s | -51°C | 0.6% | 28.7hPa | 2.5V | 18:12:15 | 01:51:54 | 00:00:00 | |
| DO2JMG | 2026-09-04 00:11:23 | 53.44595 | 9.00711 | 147° | 20km/h | 24553m | 5.2m/s | -51°C | 0.7% | 28.8hPa | 2.6V | 18:12:15 | 01:51:53 | 00:00:00 | |
| AA1-15 | 2026-09-04 00:11:21 | 53.44604 | 9.00702 | 152° | 24km/h | 24542m | 6m/s | -51°C | 0.7% | 28.8hPa | 2.5V | 18:12:15 | 01:51:51 | 00:00:00 | |
| DF8AY | 2026-09-04 00:11:20 | 53.44610 | 9.00697 | 154° | 27km/h | 24536m | 4.7m/s | -51.1°C | 0.7% | 28.8hPa | 2.5V | 18:12:15 | 01:51:50 | 00:00:00 | |
| BIOWL1-15 | 2026-09-04 00:11:18 | 53.44623 | 9.00687 | 157° | 26km/h | 24527m | 5.6m/s | -51.1°C | 0.6% | 28.9hPa | 2.5V | 18:12:15 | 01:51:48 | 00:00:00 | |
| DL1XH-west | 2026-09-04 00:11:17 | 53.44629 | 9.00683 | 157° | 24km/h | 24521m | 5.7m/s | -51.1°C | 0.7% | 28.9hPa | 2.6V | 18:12:15 | 01:51:47 | 00:00:00 | |
| DL1XH1-15 | 2026-09-04 00:11:17 | 53.44652 | 9.00661 | 144° | 29km/h | 24500m | 5.2m/s | -51.1°C | 3.8% | 29hPa | 2.5V | 08:30:00 | 01:51:43 | 00:00:00 | |
| HSKMA3-T | 2026-09-04 00:11:14 | 53.44646 | 9.00668 | 149° | 29km/h | 24505m | 6.2m/s | -51.1°C | 0.7% | 29hPa | 2.5V | 18:12:15 | 01:51:44 | 00:00:00 | |
| DO2JMG | 2026-09-04 00:11:12 | 53.44658 | 9.00654 | 139° | 29km/h | 24494m | 5.4m/s | -51.1°C | 0.8% | 29.1hPa | 2.6V | 18:12:15 | 01:51:42 | 00:00:00 | |
| DB0DAN | 2026-09-04 00:11:10 | 53.44667 | 9.00637 | 128° | 24km/h | 24482m | 5.4m/s | -51.1°C | 1.1% | 29.07hPa | 2.5V | 00:00:00 | 00:00:00 | 00:00:00 | |
| AA1-15 | 2026-09-04 00:11:10 | 53.44667 | 9.00637 | 128° | 26km/h | 24482m | 5.4m/s | -51.1°C | 0.7% | 29.1hPa | 2.5V | 18:12:15 | 01:51:40 | 00:00:00 | |
| DO2SHX-10 | 2026-09-04 00:11:10 | 53.44667 | 9.00637 | 128° | 26km/h | 24483m | 5.4m/s | -51.0°C | 3.8% | 29.0hPa | 2.5V | 00:00:00 | 01:51:40 | 00:00:00 | |
| GOEST3-10 | 2026-09-04 00:11:09 | 53.44671 | 9.00628 | 127° | 26km/h | 24478m | 5.0m/s | -51.0°C | 3.8% | 29.0hPa | 2.5V | 00:00:00 | 01:51:39 | 08:30:00 | |
| DM0DOS-11 | 2026-09-04 00:11:08 | 53.44691 | 9.00590 | 134° | 16km/h | 24450m | 6.2m/s | -51.1°C | 3.8% | 29.2hPa | 2.5V | 08:30:00 | 01:51:34 | 00:00:00 | |
| BIOWL1-15 | 2026-09-04 00:11:08 | 53.44745 | 9.00492 | 125° | 22km/h | 24376m | 6.1m/s | -51.2°C | 0.7% | 29.6hPa | 2.5V | 18:12:15 | 01:51:20 | 00:00:00 | |
| DF8AY | 2026-09-04 00:11:07 | 53.44680 | 9.00611 | 131° | 27km/h | 24466m | 5.2m/s | -51.1°C | 0.7% | 29.2hPa | 2.5V | 18:12:15 | 01:51:37 | 00:00:00 | |
| DL1XH-west | 2026-09-04 00:11:06 | 53.44684 | 9.00603 | 133° | 24km/h | 24461m | 4.6m/s | -51.1°C | 0.7% | 29.2hPa | 2.6V | 18:12:15 | 01:51:36 | 00:00:00 | |
| DB0UT-7 | 2026-09-04 00:11:06 | 53.44684 | 9.00603 | 134° | 20km/h | 24461m | 4.5m/s | -51.0°C | 3.8% | 29.1hPa | 2.6V | 00:00:00 | 00:00:00 | 00:00:00 | |
| DL1XH-15 | 2026-09-04 00:11:05 | 53.44704 | 9.00571 | 142° | 22km/h | 24428m | 4.6m/s | -51.1°C | 3.9% | 29.3hPa | 2.6V | 08:30:00 | 01:51:30 | 00:00:00 | |
| HSKMA3-T | 2026-09-04 00:11:03 | 53.44694 | 9.00585 | 137° | 15km/h | 24445m | 5.1m/s | -51.1°C | 0.7% | 29.3hPa | 2.5V | 18:12:15 | 01:51:33 | 00:00:00 | |
| DO2JMG | 2026-09-04 00:11:02 | 53.44697 | 9.00581 | 140° | 16km/h | 24439m | 5.6m/s | -51.1°C | 0.7% | 29.3hPa | 2.5V | 18:12:15 | 01:51:32 | 00:00:00 | |
| AA1-15 | 2026-09-04 00:10:59 | 53.44709 | 9.00565 | 142° | 24km/h | 24424m | 4.4m/s | -51.1°C | 0.7% | 29.4hPa | 2.6V | 18:12:15 | 01:51:29 | 00:00:00 | |
| DM0DOS-11 | 2026-09-04 00:10:59 | 53.44728 | 9.00529 | 126° | 27km/h | 24398m | 6m/s | -51.1°C | 3.8% | 29.4hPa | 2.6V | 08:30:00 | 01:51:24 | 00:00:00 | |
| EDDB2-12 | 2026-09-04 00:10:58 | 53.44717 | 9.00552 | 133° | 20km/h | 24413m | 5.8m/s | -51.1°C | 1.1% | 29.4hPa | 2.5V | 00:00:00 | 00:00:00 | 00:00:00 | |
| DB0DAN | 2026-09-04 00:10:55 | 53.44724 | 9.00538 | 126° | 22km/h | 24403m | 4.5m/s | -51.1°C | 1.1% | 29.44hPa | 2.5V | 00:00:00 | 00:00:00 | 00:00:00 | |
| DL1XH-west | 2026-09-04 00:10:55 | 53.44724 | 9.00538 | 126° | 24km/h | 24403m | 4.5m/s | -51.1°C | 0.7% | 29.4hPa | 2.5V | 18:12:15 | 01:51:25 | 00:00:00 | |
| HSKMA3-T | 2026-09-04 00:10:53 | 53.44732 | 9.00520 | 127° | 29km/h | 24392m | 5.8m/s | -51.1°C | 0.7% | 29.5hPa | 2.6V | 18:12:15 | 01:51:23 | 00:00:00 | |
| DO2JMG | 2026-09-04 00:10:51 | 53.44741 | 9.00500 | 127° | 26km/h | 24382m | 5.3m/s | -51.1°C | 0.8% | 29.5hPa | 2.5V | 18:12:15 | 01:51:21 | 00:00:00 | |
| DO2SHX-10 | 2026-09-04 00:10:49 | 53.44747 | 9.00485 | 121° | 16km/h | 24371m | 5.1m/s | -51.1°C | 3.8% | 29.5hPa | 2.5V | 00:00:00 | 01:51:19 | 00:00:00 | |
| DM0DOS-11 | 2026-09-04 00:10:48 | 53.44758 | 9.00457 | 132° | 15km/h | 24343m | 6.1m/s | -51.1°C | 3.9% | 29.7hPa | 2.5V | 08:30:00 | 01:51:14 | 00:00:00 | |
| AA1-15 | 2026-09-04 00:10:48 | 53.44749 | 9.00479 | 119° | 16km/h | 24365m | 5.2m/s | -51.1°C | 0.8% | 29.6hPa | 2.6V | 18:12:15 | 01:51:18 | 00:00:00 | |
| BIOWL1-15 | 2026-09-04 00:10:46 | 53.44754 | 9.00467 | 123° | 16km/h | 24354m | 5.2m/s | -51.1°C | 0.7% | 29.6hPa | 2.5V | 18:12:15 | 01:51:16 | 00:00:00 | |
| DF8AY | 2026-09-04 00:10:45 | 53.44758 | 9.00457 | 133° | 15km/h | 24343m | 6.1m/s | -51.1°C | 0.8% | 29.7hPa | 2.5V | 18:12:15 | 01:51:14 | 00:00:00 | |
| HSKMA3-T | 2026-09-04 00:10:43 | 53.44761 | 9.00453 | 141° | 15km/h | 24337m | 5.2m/s | -51.1°C | 0.7% | 29.7hPa | 2.6V | 18:12:15 | 01:51:13 | 00:00:00 | |
| DO2JMG | 2026-09-04 00:10:41 | 53.44768 | 9.00445 | 147° | 20km/h | 24327m | 6m/s | -51.1°C | 0.7% | 29.8hPa | 2.5V | 18:12:15 | 01:51:11 | 00:00:00 | |
| DB0DAN | 2026-09-04 00:10:40 | 53.44773 | 9.00439 | 143° | 24km/h | 24322m | 5.8m/s | -51.1°C | 1.1% | 29.83hPa | 2.5V | 00:00:00 | 00:00:00 | 00:00:00 | |
| AA1-15 | 2026-09-04 00:10:38 | 53.44783 | 9.00425 | 136° | 26km/h | 24311m | 5m/s | -51.1°C | 0.7% | 29.9hPa | 2.5V | 18:12:15 | 01:51:08 | 00:00:00 | |
| BIOWL1-15 | 2026-09-04 00:10:35 | 53.44793 | 9.00404 | 119° | 18km/h | 24296m | 4.5m/s | -51.1°C | 0.7% | 29.9hPa | 2.5V | 18:12:15 | 01:51:05 | 00:00:00 | |
| DL1XH-15 | 2026-09-04 00:10:35 | 53.44802 | 9.00368 | 111° | 15km/h | 24268m | 5.7m/s | -51.1°C | 3.8% | 30.1hPa | 2.6V | 08:30:00 | 01:51:00 | 00:00:00 | |
| DF8AY | 2026-09-04 00:10:34 | 53.44795 | 9.00397 | 115° | 20km/h | 24290m | 5.9m/s | -51.1°C | 0.7% | 29.9hPa | 2.5V | 18:12:15 | 01:51:04 | 00:00:00 | |
| DL1XH1-15 | 2026-09-04 00:10:34 | 53.44797 | 9.00389 | 115° | 20km/h | 24284m | 6.1m/s | -51.1°C | 3.8% | 30hPa | 2.5V | 08:30:00 | 01:51:03 | 00:00:00 | |
| HSKMA3-T | 2026-09-04 00:10:33 | 53.44797 | 9.00389 | 115° | 20km/h | 24284m | 6.1m/s | -51.1°C | 0.7% | 30hPa | 2.5V | 18:12:15 | 01:51:03 | 00:00:00 | |
| DO2JMG | 2026-09-04 00:10:30 | 53.44802 | 9.00368 | 111° | 15km/h | 24268m | 5.7m/s | -51.1°C | 0.7% | 30.1hPa | 2.6V | 18:12:15 | 01:51:00 | 00:00:00 | |
| GOEST3-10 | 2026-09-04 00:10:29 | 53.44804 | 9.00362 | 122° | 20km/h | 24263m | 4.2m/s | -51.1°C | 3.8% | 30.0hPa | 2.5V | 00:00:00 | 01:50:59 | 00:00:00 | |
| DL1XH1-15 | 2026-09-04 00:10:28 | 53.44828 | 9.00328 | 135° | 24km/h | 24230m | 5.3m/s | -51.1°C | 3.8% | 30.2hPa | 2.5V | 08:30:00 | 01:50:53 | 00:00:00 | |
| AA1-15 | 2026-09-04 00:10:28 | 53.44806 | 9.00357 | 132° | 16km/h | 24259m | 4.8m/s | -51.1°C | 0.7% | 30.1hPa | 2.5V | 18:12:15 | 01:50:58 | 00:00:00 | |
| BIOWL1-15 | 2026-09-04 00:10:27 | 53.44819 | 9.00341 | 145° | 26km/h | 24241m | 5.3m/s | -51.1°C | 0.7% | 30.2hPa | 2.6V | 18:12:15 | 01:50:55 | 00:00:00 | |
| DB0DAN | 2026-09-04 00:10:25 | 53.44819 | 9.00341 | 145° | 24km/h | 24241m | 5.3m/s | -51.1°C | 1.1% | 30.19hPa | 2.6V | 00:00:00 | 00:00:00 | 00:00:00 | |
| DL1XH-15 | 2026-09-04 00:10:25 | 53.44840 | 9.00303 | 123° | 26km/h | 24214m | 5.8m/s | -51.1°C | 3.8% | 30.3hPa | 2.5V | 08:30:00 | 01:50:50 | 00:00:00 | |
| HSKMA3-T | 2026-09-04 00:10:23 | 53.44829 | 9.00328 | 136° | 24km/h | 24230m | 5.3m/s | -51.1°C | 0.7% | 30.2hPa | 2.5V | 18:12:15 | 01:50:53 | 00:00:00 | |
| DO2JMG | 2026-09-04 00:10:19 | 53.44843 | 9.00294 | 120° | 26km/h | 24209m | 4.5m/s | -51.2°C | 0.7% | 30.3hPa | 2.6V | 18:12:15 | 01:50:49 | 00:00:00 | |
| DF4FW | 2026-09-04 00:10:19 | 53.44843 | 9.00294 | 121° | 26km/h | 24209m | 4.5m/s | -51.1°C | 1.1% | 30.3hPa | 2.6V | 00:00:00 | 00:00:00 | 00:00:00 | |
| DL1XH1-15 | 2026-09-04 00:10:18 | 53.44856 | 9.00254 | 133° | 18km/h | 24177m | 5.7m/s | -51.2°C | 3.8% | 30.5hPa | 2.6V | 08:30:00 | 01:50:43 | 00:00:00 | |
| AA1-15 | 2026-09-04 00:10:17 | 53.44848 | 9.00277 | 112° | 18km/h | 24199m | 6.3m/s | -51.2°C | 0.7% | 30.4hPa | 2.5V | 18:12:15 | 01:50:47 | 00:00:00 | |
| DO2SHX-10 | 2026-09-04 00:10:16 | 53.44850 | 9.00270 | 110° | 15km/h | 24193m | 4.9m/s | -51.1°C | 3.8% | 30.4hPa | 2.5V | 00:00:00 | 01:50:46 | 00:00:00 | |
| DL1XH-15 | 2026-09-04 00:10:15 | 53.44868 | 9.00234 | 135° | 24km/h | 24162m | 5.9m/s | -51.3°C | 3.8% | 30.6hPa | 2.5V | 08:30:00 | 01:50:40 | 00:00:00 | |
| BIOWL1-15 | 2026-09-04 00:10:14 | 53.44860 | 9.00248 | 138° | 24km/h | 24172m | 4.6m/s | -51.3°C | 0.7% | 30.5hPa | 2.5V | 18:12:15 | 01:50:42 | 00:00:00 | |
| DL1XH-west | 2026-09-04 00:10:13 | 53.44856 | 9.00254 | 134° | 18km/h | 24178m | 5.7m/s | -51.2°C | 0.7% | 30.5hPa | 2.6V | 18:12:15 | 01:50:43 | 00:00:00 | |
| DL4BBY-15 | 2026-09-04 00:10:13 | 53.44856 | 9.00254 | 134° | 27km/h | 24178m | 5.7m/s | -50.7°C | 0% | 0hPa | 2.5V | 00:00:00 | 00:00:00 | 00:00:00 | |
| DB0DAN | 2026-09-04 00:10:10 | 53.44869 | 9.00234 | 136° | 24km/h | 24162m | 5.9m/s | -51.3°C | 1.1% | 30.55hPa | 2.5V | 00:00:00 | 00:00:00 | 00:00:00 | |
| DO2JMG | 2026-09-04 00:10:09 | 53.44873 | 9.00226 | 132° | 26km/h | 24157m | 4.9m/s | -51.4°C | 0.7% | 30.6hPa | 2.5V | 18:12:15 | 01:50:39 | 00:00:00 | |
| AA1-15 | 2026-09-04 00:10:07 | 53.44881 | 9.00208 | 124° | 29km/h | 24147m | 6m/s | -51.5°C | 0.7% | 30.6hPa | 2.6V | 18:12:15 | 01:50:37 | 00:00:00 | |
| BIOWL1-15 | 2026-09-04 00:10:04 | 53.44892 | 9.00174 | 110° | 29km/h | 24131m | 5.5m/s | -51.6°C | 0.7% | 30.7hPa | 2.5V | 18:12:15 | 01:50:34 | 00:00:00 | |
| HSKMA3-T | 2026-09-04 00:10:02 | 53.44896 | 9.00152 | 100° | 24km/h | 24120m | 4.5m/s | -51.5°C | 0.7% | 30.8hPa | 2.6V | 18:12:15 | 01:50:32 | 00:00:00 | |
| DO2JMG | 2026-09-04 00:09:59 | 53.44901 | 9.00125 | 120° | 22km/h | 24104m | 4.6m/s | -51.6°C | 0.7% | 30.8hPa | 2.5V | 18:12:15 | 01:50:29 | 00:00:00 | |
| DM0DOS-11 | 2026-09-04 00:09:58 | 53.44911 | 9.00082 | 99° | 29km/h | 24079m | 5.7m/s | -51.7°C | 3.9% | 30.9hPa | 2.5V | 08:30:00 | 01:50:24 | 00:00:00 | |
| AA1-15 | 2026-09-04 00:09:56 | 53.44909 | 9.00102 | 111° | 22km/h | 24090m | 5.9m/s | -51.7°C | 0.7% | 30.9hPa | 2.6V | 18:12:15 | 01:50:26 | 00:00:00 | |
| DL1XH-15 | 2026-09-04 00:09:56 | 53.44916 | 9.00023 | 91° | 37km/h | 24057m | 6.1m/s | -51.7°C | 3.8% | 31.1hPa | 2.6V | 08:30:00 | 01:50:20 | 00:00:00 | |
| DB0DAN | 2026-09-04 00:09:55 | 53.44910 | 9.00093 | 102° | 24km/h | 24084m | 5.3m/s | -51.7°C | 1.1% | 30.94hPa | 2.6V | 00:00:00 | 00:00:00 | 00:00:00 | |
| BIOWL1-15 | 2026-09-04 00:09:53 | 53.44913 | 9.00069 | 100° | 33km/h | 24073m | 6.1m/s | -51.7°C | 0.8% | 31hPa | 2.5V | 18:12:15 | 01:50:23 | 00:00:00 | |
| DL1XH-west | 2026-09-04 00:09:52 | 53.44914 | 9.00054 | 99° | 37km/h | 24067m | 4.7m/s | -51.7°C | 0.7% | 31hPa | 2.5V | 18:12:15 | 01:50:22 | 00:00:00 | |
| HSKMA3-T | 2026-09-04 00:09:51 | 53.44915 | 9.00039 | 96° | 38km/h | 24062m | 4.7m/s | -51.7°C | 0.7% | 31hPa | 2.6V | 18:12:15 | 01:50:21 | 00:00:00 | |
| DF8AY | 2026-09-04 00:09:49 | 53.44916 | 9.00008 | 90° | 35km/h | 24051m | 4.9m/s | -51.8°C | 0.8% | 31.1hPa | 2.5V | 18:12:15 | 01:50:19 | 00:00:00 | |
| DO2SHX-10 | 2026-09-04 00:09:49 | 53.44916 | 9.00008 | 91° | 33km/h | 24052m | 4.8m/s | -51.7°C | 3.9% | 31.0hPa | 2.6V | 00:00:00 | 01:50:19 | 00:00:00 | |
| DM0DOS-11 | 2026-09-04 00:09:48 | 53.44922 | 8.99947 | 103° | 26km/h | 24026m | 6m/s | -51.8°C | 3.9% | 31.2hPa | 2.6V | 08:30:00 | 01:50:14 | 00:00:00 | |
| DO2JMG | 2026-09-04 00:09:48 | 53.44916 | 8.99994 | 93° | 31km/h | 24047m | 4.7m/s | -51.8°C | 0.7% | 31.1hPa | 2.5V | 18:12:15 | 01:50:18 | 00:00:00 | |
| DJ2DS-15 | 2026-09-04 00:09:48 | 53.44916 | 8.99994 | 94° | 27km/h | 24047m | 4.7m/s | -51.7°C | 3.9% | 31.1hPa | 2.5V | 00:00:00 | 01:50:18 | 00:00:00 | |
| DL1XH1-15 | 2026-09-04 00:09:46 | 53.44923 | 8.99937 | 97° | 24km/h | 24020m | 5.3m/s | -51.9°C | 3.9% | 31.2hPa | 2.5V | 08:30:00 | 01:50:13 | 00:00:00 | |
| DO2SHX-10 | 2026-09-04 00:09:46 | 53.44918 | 8.99969 | 104° | 27km/h | 24036m | 4.6m/s | -51.8°C | 3.9% | 31.1hPa | 2.5V | 00:00:00 | 01:50:16 | 08:30:00 | |
| DL1XH-15 | 2026-09-04 00:09:45 | 53.44925 | 8.99905 | 98° | 29km/h | 24005m | 6.1m/s | -51.9°C | 3.9% | 31.3hPa | 2.5V | 08:30:00 | 01:50:10 | 00:00:00 | |
| AA1-15 | 2026-09-04 00:09:45 | 53.44920 | 8.99957 | 106° | 27km/h | 24031m | 4.4m/s | -51.8°C | 0.7% | 31.2hPa | 2.6V | 18:12:15 | 01:50:15 | 00:00:00 | |
| BIOWL1-15 | 2026-09-04 00:09:43 | 53.44924 | 8.99916 | 96° | 26km/h | 24011m | 5.1m/s | -51.9°C | 0.8% | 31.3hPa | 2.5V | 18:12:15 | 01:50:11 | 00:00:00 | |
| DL1XH-west | 2026-09-04 00:09:42 | 53.44923 | 8.99927 | 93° | 24km/h | 24015m | 4.6m/s | -51.9°C | 0.7% | 31.2hPa | 2.5V | 18:12:15 | 01:50:12 | 00:00:00 | |
| HSKMA3-T | 2026-09-04 00:09:40 | 53.44925 | 8.99905 | 99° | 29km/h | 24005m | 6.1m/s | -51.9°C | 0.7% | 31.3hPa | 2.5V | 18:12:15 | 01:50:10 | 00:00:00 | |
| DB0DAN | 2026-09-04 00:09:40 | 53.44925 | 8.99905 | 99° | 27km/h | 24005m | 6.1m/s | -51.9°C | 1.1% | 31.32hPa | 2.5V | 00:00:00 | 00:00:00 | 00:00:00 | |
| DO2JMG | 2026-09-04 00:09:38 | 53.44927 | 8.99879 | 97° | 35km/h | 23994m | 4.8m/s | -51.9°C | 0.8% | 31.4hPa | 2.6V | 18:12:15 | 01:50:08 | 00:00:00 | |
| DF8AY | 2026-09-04 00:09:36 | 53.44928 | 8.99850 | 90° | 33km/h | 23984m | 4.7m/s | -52°C | 0.8% | 31.4hPa | 2.5V | 18:12:15 | 01:50:06 | 00:00:00 | |
| DL1XH1-15 | 2026-09-04 00:09:36 | 53.44930 | 8.99815 | 102° | 24km/h | 23968m | 4.9m/s | -52°C | 3.9% | 31.5hPa | 2.6V | 08:30:00 | 01:50:03 | 00:00:00 | |
| DB0UT-7 | 2026-09-04 00:09:36 | 53.44928 | 8.99850 | 90° | 22km/h | 23984m | 4.6m/s | -51.9°C | 4.0% | 31.4hPa | 2.5V | 00:00:00 | 01:50:06 | 00:00:00 | |
| DL1XH-15 | 2026-09-04 00:09:35 | 53.44932 | 8.99790 | 93° | 16km/h | 23952m | 5.3m/s | -52°C | 4% | 31.6hPa | 2.5V | 08:30:00 | 01:50:00 | 00:00:00 | |
| AA1-15 | 2026-09-04 00:09:34 | 53.44929 | 8.99825 | 97° | 27km/h | 23974m | 6.1m/s | -52°C | 0.8% | 31.5hPa | 2.5V | 18:12:15 | 01:50:04 | 00:00:00 | |
| BIOWL1-15 | 2026-09-04 00:09:33 | 53.44930 | 8.99814 | 102° | 24km/h | 23968m | 4.9m/s | -52°C | 0.8% | 31.5hPa | 2.6V | 18:12:15 | 01:50:03 | 00:00:00 | |
| DL1XH-west | 2026-09-04 00:09:32 | 53.44931 | 8.99805 | 103° | 20km/h | 23963m | 4.3m/s | -52°C | 0.8% | 31.5hPa | 2.6V | 18:12:15 | 01:50:02 | 00:00:00 | |
| HSKMA3-T | 2026-09-04 00:09:30 | 53.44932 | 8.99790 | 93° | 16km/h | 23952m | 5.3m/s | -52.1°C | 0.8% | 31.6hPa | 2.5V | 18:12:15 | 01:50:00 | 00:00:00 | |
| DO2JMG | 2026-09-04 00:09:27 | 53.44934 | 8.99768 | 106° | 18km/h | 23937m | 5.3m/s | -52.1°C | 0.8% | 31.7hPa | 2.6V | 18:12:15 | 01:49:57 | 00:00:00 | |
| DF8AY | 2026-09-04 00:09:26 | 53.44935 | 8.99760 | 107° | 20km/h | 23932m | 4.4m/s | -52.2°C | 0.8% | 31.7hPa | 2.6V | 18:12:15 | 01:49:56 | 00:00:00 | |
| DL1XH1-15 | 2026-09-04 00:09:25 | 53.44938 | 8.99734 | 89° | 22km/h | 23916m | 4.8m/s | -52.2°C | 4% | 31.7hPa | 2.5V | 08:30:00 | 01:49:53 | 00:00:00 | |
| AA1-15 | 2026-09-04 00:09:24 | 53.44937 | 8.99743 | 94° | 22km/h | 23922m | 6m/s | -52.2°C | 0.8% | 31.7hPa | 2.5V | 18:12:15 | 01:49:54 | 00:00:00 | |
| DL1XH-west | 2026-09-04 00:09:21 | 53.44938 | 8.99716 | 96° | 22km/h | 23906m | 6.2m/s | -52.2°C | 0.8% | 31.8hPa | 2.6V | 18:12:15 | 01:49:51 | 00:00:00 | |
| DL1NUX | 2026-09-04 00:09:19 | 53.44938 | 8.99671 | 80° | 22km/h | 23880m | 4.7m/s | -52.2°C | 4% | 31.9hPa | 2.6V | 08:30:00 | 01:49:46 | 00:00:00 | |
| HSKMA3-T | 2026-09-04 00:09:19 | 53.44939 | 8.99698 | 97° | 22km/h | 23896m | 4.4m/s | -52.2°C | 0.8% | 31.8hPa | 2.5V | 18:12:15 | 01:49:49 | 00:00:00 | |
| DF8AY | 2026-09-04 00:09:17 | 53.44937 | 8.99652 | 89° | 22km/h | 23869m | 5.5m/s | -52.3°C | 0.8% | 32hPa | 2.5V | 18:12:15 | 01:49:44 | 00:00:00 | |
| DO2JMG | 2026-09-04 00:09:16 | 53.44938 | 8.99671 | 80° | 22km/h | 23880m | 4.7m/s | -52.3°C | 0.9% | 31.9hPa | 2.6V | 18:12:15 | 01:49:46 | 00:00:00 | |
| AA1-15 | 2026-09-04 00:09:13 | 53.44937 | 8.99642 | 90° | 24km/h | 23865m | 4.5m/s | -52.3°C | 0.9% | 32hPa | 2.5V | 18:12:15 | 01:49:43 | 00:00:00 | |
| DO2SHX-10 | 2026-09-04 00:09:13 | 53.44937 | 8.99642 | 91° | 24km/h | 23865m | 4.5m/s | -52.3°C | 4.1% | 31.9hPa | 2.6V | 00:00:00 | 01:49:43 | 00:00:00 | |
| DB0DAN | 2026-09-04 00:09:10 | 53.44934 | 8.99611 | 75° | 26km/h | 23849m | 5.3m/s | -52.4°C | 1.2% | 32.08hPa | 2.6V | 00:00:00 | 00:00:00 | 00:00:00 | |
| DL1XH-west | 2026-09-04 00:09:10 | 53.44934 | 8.99611 | 75° | 27km/h | 23849m | 5.3m/s | -52.4°C | 0.9% | 32.1hPa | 2.6V | 18:12:15 | 01:49:40 | 00:00:00 | |
| HSKMA3-T | 2026-09-04 00:09:09 | 53.44933 | 8.99600 | 74° | 27km/h | 23844m | 4.7m/s | -52.3°C | 0.9% | 32.1hPa | 2.6V | 18:12:15 | 01:49:39 | 00:00:00 | |
| DO2JMG | 2026-09-04 00:09:05 | 53.44926 | 8.99557 | 68° | 26km/h | 23824m | 5.9m/s | -52.3°C | 0.9% | 32.2hPa | 2.5V | 18:12:15 | 01:49:35 | 00:00:00 | |
| DF8AY | 2026-09-04 00:09:03 | 53.44920 | 8.99538 | 64° | 26km/h | 23813m | 4.5m/s | -52.3°C | 0.9% | 32.3hPa | 2.6V | 18:12:15 | 01:49:33 | 00:00:00 | |
| AA1-15 | 2026-09-04 00:09:02 | 53.44917 | 8.99527 | 69° | 26km/h | 23808m | 6m/s | -52.3°C | 0.8% | 32.3hPa | 2.5V | 18:12:15 | 01:49:32 | 00:00:00 | |
| DL1XH-west | 2026-09-04 00:08:59 | 53.44912 | 8.99495 | 73° | 27km/h | 23794m | 4.4m/s | -52.3°C | 0.9% | 32.4hPa | 2.6V | 18:12:15 | 01:49:29 | 00:00:00 | |
| BIOWL1-15 | 2026-09-04 00:08:59 | 53.44906 | 8.99472 | 59° | 31km/h | 23783m | 5m/s | -52.2°C | 0.9% | 32.4hPa | 2.5V | 18:12:15 | 01:49:27 | 00:00:00 | |
| HSKMA3-T | 2026-09-04 00:08:58 | 53.44909 | 8.99484 | 66° | 29km/h | 23788m | 6.1m/s | -52.3°C | 0.9% | 32.4hPa | 2.6V | 18:12:15 | 01:49:28 | 00:00:00 | |
| HTAHTA | 2026-09-04 00:08:56 | 53.44901 | 8.99461 | 55° | 29km/h | 23778m | 4.6m/s | -52.2°C | 1.2% | 32.4hPa | 2.5V | 00:00:00 | 00:00:00 | 00:00:00 | |
| DB0DAN | 2026-09-04 00:08:55 | 53.44897 | 8.99451 | 56° | 27km/h | 23773m | 6m/s | -52.2°C | 1.2% | 32.48hPa | 2.5V | 00:00:00 | 00:00:00 | 00:00:00 | |
| DO2JMG | 2026-09-04 00:08:55 | 53.44897 | 8.99451 | 56° | 29km/h | 23773m | 6m/s | -52.2°C | 0.8% | 32.5hPa | 2.5V | 18:12:15 | 01:49:25 | 00:00:00 | |
| DF8AY | 2026-09-04 00:08:52 | 53.44884 | 8.99423 | 48° | 27km/h | 23758m | 5.6m/s | -52.1°C | 0.9% | 32.5hPa | 2.6V | 18:12:15 | 01:49:22 | 00:00:00 | |
| AA1-15 | 2026-09-04 00:08:51 | 53.44879 | 8.99414 | 45° | 31km/h | 23752m | 5.6m/s | -52.1°C | 0.9% | 32.5hPa | 2.5V | 18:12:15 | 01:49:21 | 00:00:00 | |
| BIOWL1-15 | 2026-09-04 00:08:49 | 53.44869 | 8.99396 | 49° | 29km/h | 23743m | 4.6m/s | -52.1°C | 0.8% | 32.6hPa | 2.5V | 18:12:15 | 01:49:19 | 00:00:00 | |
| HSKMA3-T | 2026-09-04 00:08:48 | 53.44864 | 8.99386 | 55° | 27km/h | 23738m | 5.9m/s | -52.1°C | 0.8% | 32.6hPa | 2.5V | 18:12:15 | 01:49:18 | 00:00:00 | |
| DJ2DS-15 | 2026-09-04 00:08:48 | 53.44864 | 8.99386 | 56° | 24km/h | 23738m | 5.9m/s | -52.0°C | 4.0% | 32.6hPa | 2.6V | 00:00:00 | 01:49:18 | 00:00:00 | |
| DO2SHX-10 | 2026-09-04 00:08:46 | 53.44858 | 8.99368 | 64° | 24km/h | 23728m | 4.7m/s | -52.0°C | 4.0% | 32.6hPa | 2.6V | 00:00:00 | 01:49:16 | 00:00:00 | |
| DL1XH-15 | 2026-09-04 00:08:45 | 53.44835 | 8.99318 | 47° | 22km/h | 23697m | 4.8m/s | -51.9°C | 3.9% | 32.8hPa | 2.6V | 08:30:00 | 01:49:10 | 00:00:00 | |
| DO2JMG | 2026-09-04 00:08:45 | 53.44855 | 8.99359 | 60° | 24km/h | 23723m | 5.1m/s | -52°C | 0.8% | 32.7hPa | 2.5V | 18:12:15 | 01:49:15 | 00:00:00 | |
| AA1-15 | 2026-09-04 00:08:41 | 53.44839 | 8.99326 | 47° | 24km/h | 23702m | 5.8m/s | -51.9°C | 0.8% | 32.8hPa | 2.6V | 18:12:15 | 01:49:11 | 00:00:00 | |
| BIOWL1-15 | 2026-09-04 00:08:38 | 53.44827 | 8.99304 | 44° | 26km/h | 23688m | 5.8m/s | -51.9°C | 0.8% | 32.9hPa | 2.5V | 18:12:15 | 01:49:08 | 00:00:00 | |
| HSKMA3-T | 2026-09-04 00:08:37 | 53.44822 | 8.99296 | 41° | 27km/h | 23682m | 5.2m/s | -52°C | 0.8% | 32.9hPa | 2.5V | 18:12:15 | 01:49:07 | 00:00:00 | |
| DO2JMG | 2026-09-04 00:08:35 | 53.44812 | 8.99281 | 40° | 26km/h | 23673m | 5m/s | -51.9°C | 0.8% | 33hPa | 2.6V | 18:12:15 | 01:49:05 | 00:00:00 | |
| DL1NUX | 2026-09-04 00:08:34 | 53.44801 | 8.99265 | 36° | 15km/h | 23658m | 4m/s | -51.9°C | 3.9% | 33hPa | 2.5V | 08:30:00 | 01:49:02 | 00:00:00 | |
| AA1-15 | 2026-09-04 00:08:31 | 53.44797 | 8.99262 | 32° | 16km/h | 23653m | 5.6m/s | -51.9°C | 0.8% | 33.1hPa | 2.5V | 18:12:15 | 01:49:01 | 00:00:00 | |
| DF8AY | 2026-09-04 00:08:30 | 53.44794 | 8.99258 | 28° | 18km/h | 23648m | 5m/s | -51.9°C | 0.8% | 33.1hPa | 2.6V | 18:12:15 | 01:49:00 | 00:00:00 | |
| DL1XH-west | 2026-09-04 00:08:28 | 53.44786 | 8.99252 | 26° | 16km/h | 23639m | 4.7m/s | -51.9°C | 0.8% | 33.1hPa | 2.5V | 18:12:15 | 01:48:58 | 00:00:00 | |
| BIOWL1-15 | 2026-09-04 00:08:27 | 53.44782 | 8.99249 | 30° | 15km/h | 23633m | 6.1m/s | -51.9°C | 0.8% | 33.1hPa | 2.5V | 18:12:15 | 01:48:57 | 00:00:00 | |
| HSKMA3-T | 2026-09-04 00:08:26 | 53.44779 | 8.99245 | 38° | 13km/h | 23627m | 5.1m/s | -51.9°C | 0.8% | 33.2hPa | 2.5V | 18:12:15 | 01:48:56 | 00:00:00 | |
| DB0DAN | 2026-09-04 00:08:25 | 53.44777 | 8.99241 | 42° | 15km/h | 23622m | 5.2m/s | -51.9°C | 1.1% | 33.21hPa | 2.5V | 00:00:00 | 00:00:00 | 00:00:00 | |
| DL1XH-15 | 2026-09-04 00:08:25 | 53.44759 | 8.99218 | 30° | 15km/h | 23598m | 5.7m/s | -52°C | 4% | 33.3hPa | 2.5V | 08:30:00 | 01:48:50 | 00:00:00 | |
| DO2SHX-10 | 2026-09-04 00:08:25 | 53.44777 | 8.99241 | 42° | 18km/h | 23623m | 5.1m/s | -51.9°C | 3.9% | 33.2hPa | 2.5V | 00:00:00 | 01:48:55 | 08:30:00 | |
| DL1NUX | 2026-09-04 00:08:24 | 53.44766 | 8.99227 | 36° | 20km/h | 23608m | 3.3m/s | -52°C | 4% | 33.3hPa | 2.5V | 08:30:00 | 01:48:52 | 00:00:00 | |
| DO2JMG | 2026-09-04 00:08:24 | 53.44774 | 8.99237 | 42° | 18km/h | 23617m | 6m/s | -52°C | 0.8% | 33.2hPa | 2.6V | 18:12:15 | 01:48:54 | 00:00:00 | |
| AA1-15 | 2026-09-04 00:08:20 | 53.44759 | 8.99218 | 31° | 15km/h | 23598m | 5.7m/s | -52°C | 0.8% | 33.4hPa | 2.5V | 18:12:15 | 01:48:50 | 00:00:00 | |
| GOEST3-10 | 2026-09-04 00:08:19 | 53.44756 | 8.99216 | 25° | 11km/h | 23593m | 5.2m/s | -52.0°C | 4.0% | 33.3hPa | 2.5V | 00:00:00 | 01:48:49 | 00:00:00 | |
| DL1XH1-15 | 2026-09-04 00:08:18 | 53.44742 | 8.99207 | 37° | 7km/h | 23562m | 5.8m/s | -52°C | 3.9% | 33.5hPa | 2.5V | 08:30:00 | 01:48:43 | 00:00:00 | |
| DL1XH-west | 2026-09-04 00:08:18 | 53.44754 | 8.99215 | 16° | 9km/h | 23588m | 4.8m/s | -52.1°C | 0.8% | 33.4hPa | 2.6V | 18:12:15 | 01:48:48 | 00:00:00 | |
| DJ2DS-15 | 2026-09-04 00:08:18 | 53.44752 | 8.99214 | 14° | 9km/h | 23583m | 5.5m/s | -52.1°C | 1.2% | 33.4hPa | 2.5V | 00:00:00 | 00:00:00 | 00:00:00 | |
| SMARD9-15 | 2026-09-04 00:08:17 | 53.44752 | 8.99214 | 14° | 9km/h | 23583m | 5.5m/s | -52.1°C | 1.2% | 33.4hPa | 2.5V | 00:00:00 | 00:00:00 | 00:00:00 | |
| DO2SHX-10 | 2026-09-04 00:08:16 | 53.44749 | 8.99212 | 19° | 11km/h | 23577m | 5.4m/s | -52.0°C | 4.0% | 33.4hPa | 2.5V | 00:00:00 | 01:48:46 | 00:00:00 | |
| DL1XH-15 | 2026-09-04 00:08:15 | 53.44738 | 8.99199 | 56° | 11km/h | 23547m | 6m/s | -52.1°C | 3.9% | 33.6hPa | 2.5V | 08:30:00 | 01:48:40 | 00:00:00 | |
| HSKMA3-T | 2026-09-04 00:08:15 | 53.44746 | 8.99211 | 24° | 11km/h | 23572m | 4.5m/s | -52°C | 0.8% | 33.5hPa | 2.5V | 18:12:15 | 01:48:45 | 00:00:00 | |
| BIOWL1-15 | 2026-09-04 00:08:15 | 53.44741 | 8.99205 | 50° | 7km/h | 23557m | 4.2m/s | -52.1°C | 0.8% | 33.5hPa | 2.6V | 18:12:15 | 01:48:42 | 00:00:00 | |
| DO2JMG | 2026-09-04 00:08:13 | 53.44742 | 8.99207 | 37° | 7km/h | 23562m | 5.8m/s | -52.1°C | 0.8% | 33.5hPa | 2.5V | 18:12:15 | 01:48:43 | 00:00:00 | |
| DL4BBY-15 | 2026-09-04 00:08:13 | 53.44742 | 8.99206 | 38° | 13km/h | 23562m | 5.7m/s | -51.5°C | 0% | 0hPa | 2.5V | 00:00:00 | 00:00:00 | 00:00:00 | |
| DB0DAN | 2026-09-04 00:08:10 | 53.44738 | 8.99199 | 57° | 11km/h | 23547m | 6m/s | -52.1°C | 1.2% | 33.61hPa | 2.5V | 00:00:00 | 00:00:00 | 00:00:00 | |
| AA1-15 | 2026-09-04 00:08:10 | 53.44738 | 8.99199 | 57° | 11km/h | 23547m | 6m/s | -52.1°C | 0.8% | 33.6hPa | 2.5V | 18:12:15 | 01:48:40 | 00:00:00 | |
| DF8AY | 2026-09-04 00:08:09 | 53.44737 | 8.99194 | 57° | 15km/h | 23542m | 5.1m/s | -52.1°C | 0.8% | 33.6hPa | 2.5V | 18:12:15 | 01:48:39 | 00:00:00 | |
| DL1XH1-15 | 2026-09-04 00:08:09 | 53.44731 | 8.99167 | 76° | 9km/h | 23511m | 5.4m/s | -52.2°C | 4% | 33.8hPa | 2.5V | 08:30:00 | 01:48:33 | 00:00:00 | |
| DL1XH-west | 2026-09-04 00:08:08 | 53.44735 | 8.99189 | 60° | 15km/h | 23537m | 4.7m/s | -52.1°C | 0.8% | 33.7hPa | 2.5V | 18:12:15 | 01:48:38 | 00:00:00 | |
| DJ2DS-15 | 2026-09-04 00:08:08 | 53.44735 | 8.99188 | 61° | 15km/h | 23537m | 4.7m/s | -52.0°C | 4.0% | 33.6hPa | 2.5V | 00:00:00 | 01:48:38 | 00:00:00 | |
| DO2SHX-10 | 2026-09-04 00:08:07 | 53.44733 | 8.99183 | 66° | 11km/h | 23532m | 5.6m/s | -52.1°C | 4.0% | 33.6hPa | 2.6V | 00:00:00 | 01:48:37 | 00:00:00 | |
| DB0UT-7 | 2026-09-04 00:08:06 | 53.44732 | 8.99179 | 76° | 16km/h | 23526m | 5.5m/s | -52.1°C | 4.0% | 33.6hPa | 2.6V | 00:00:00 | 00:00:00 | 00:00:00 | |
| DL1XH-15 | 2026-09-04 00:08:05 | 53.44731 | 8.99156 | 113° | 9km/h | 23496m | 5.9m/s | -52.3°C | 4.1% | 33.9hPa | 2.6V | 08:30:00 | 01:48:30 | 00:00:00 | |
| BIOWL1-15 | 2026-09-04 00:08:04 | 53.44731 | 8.99171 | 82° | 9km/h | 23516m | 5.3m/s | -52.2°C | 0.9% | 33.8hPa | 2.5V | 18:12:15 | 01:48:34 | 00:00:00 | |
| DO2JMG | 2026-09-04 00:08:03 | 53.44731 | 8.99167 | 77° | 9km/h | 23511m | 5.4m/s | -52.2°C | 0.9% | 33.8hPa | 2.5V | 18:12:15 | 01:48:33 | 00:00:00 | |
| AA1-15 | 2026-09-04 00:08:00 | 53.44731 | 8.99156 | 114° | 9km/h | 23496m | 5.9m/s | -52.3°C | 0.9% | 33.9hPa | 2.6V | 18:12:15 | 01:48:30 | 00:00:00 | |
| GOEST3-10 | 2026-09-04 00:07:59 | 53.44732 | 8.99151 | 124° | 15km/h | 23491m | 4.7m/s | -52.2°C | 4.1% | 33.8hPa | 2.5V | 00:00:00 | 01:48:29 | 00:00:00 | |
| DL1XH1-15 | 2026-09-04 00:07:58 | 53.44733 | 8.99112 | 82° | 18km/h | 23461m | 5.8m/s | -52.2°C | 4.1% | 34hPa | 2.5V | 08:30:00 | 01:48:23 | 00:00:00 | |
| DL1XH-west | 2026-09-04 00:07:57 | 53.44735 | 8.99142 | 106° | 15km/h | 23481m | 5.5m/s | -52.2°C | 0.9% | 33.9hPa | 2.5V | 18:12:15 | 01:48:27 | 00:00:00 | |
| DK1YY | 2026-09-04 00:07:56 | 53.44736 | 8.99135 | 89° | 15km/h | 23476m | 5.7m/s | -52.2°C | 1.2% | 34.0hPa | 2.6V | 00:00:00 | 00:00:00 | 00:00:00 | |
| DB0DAN | 2026-09-04 00:07:55 | 53.44735 | 8.99128 | 80° | 18km/h | 23471m | 4.6m/s | -52.2°C | 1.2% | 34hPa | 2.6V | 00:00:00 | 00:00:00 | 00:00:00 | |
| DL1XH-15 | 2026-09-04 00:07:55 | 53.44732 | 8.99090 | 77° | 16km/h | 23446m | 5.6m/s | -52.2°C | 4.1% | 34.1hPa | 2.5V | 08:30:00 | 01:48:20 | 00:00:00 | |
| BIOWL1-15 | 2026-09-04 00:07:53 | 53.44734 | 8.99112 | 83° | 18km/h | 23461m | 5.8m/s | -52.2°C | 0.9% | 34hPa | 2.5V | 18:12:15 | 01:48:23 | 00:00:00 | |
| DO2JMG | 2026-09-04 00:07:52 | 53.44733 | 8.99104 | 87° | 18km/h | 23456m | 4.6m/s | -52.2°C | 0.9% | 34.1hPa | 2.5V | 18:12:15 | 01:48:22 | 00:00:00 | |
| AA1-15 | 2026-09-04 00:07:49 | 53.44731 | 8.99084 | 70° | 16km/h | 23441m | 5.6m/s | -52.2°C | 0.9% | 34.1hPa | 2.6V | 18:12:15 | 01:48:19 | 00:00:00 | |
| DO2SHX-10 | 2026-09-04 00:07:49 | 53.44731 | 8.99084 | 70° | 15km/h | 23441m | 5.6m/s | -52.1°C | 4.1% | 34.1hPa | 2.6V | 00:00:00 | 01:48:19 | 00:00:00 | |
| DL1XH1-15 | 2026-09-04 00:07:48 | 53.44729 | 8.99050 | 88° | 18km/h | 23411m | 5.8m/s | -52.1°C | 4% | 34.3hPa | 2.6V | 08:30:00 | 01:48:13 | 00:00:00 | |
| DL1XH-west | 2026-09-04 00:07:47 | 53.44728 | 8.99072 | 75° | 13km/h | 23431m | 5.6m/s | -52.1°C | 0.9% | 34.2hPa | 2.5V | 18:12:15 | 01:48:17 | 00:00:00 | |
| SMARD9-15 | 2026-09-04 00:07:46 | 53.44728 | 8.99067 | 90° | 11km/h | 23425m | 5.5m/s | -52.1°C | 1.2% | 34.2hPa | 2.6V | 00:00:00 | 00:00:00 | 00:00:00 | |
| HSKMA3-T | 2026-09-04 00:07:43 | 53.44729 | 8.99050 | 88° | 18km/h | 23411m | 5.8m/s | -52.1°C | 0.9% | 34.3hPa | 2.6V | 18:12:15 | 01:48:13 | 00:00:00 | |
| DF8AY | 2026-09-04 00:07:42 | 53.44728 | 8.99042 | 85° | 22km/h | 23405m | 5.3m/s | -52.1°C | 0.9% | 34.3hPa | 2.5V | 18:12:15 | 01:48:12 | 00:00:00 | |
| DO2JMG | 2026-09-04 00:07:41 | 53.44728 | 8.99032 | 86° | 24km/h | 23400m | 5m/s | -52.1°C | 0.9% | 34.4hPa | 2.5V | 18:12:15 | 01:48:11 | 00:00:00 | |
| DB0DAN | 2026-09-04 00:07:40 | 53.44728 | 8.99022 | 89° | 24km/h | 23395m | 6m/s | -52.1°C | 1.2% | 34.39hPa | 2.5V | 00:00:00 | 00:00:00 | 00:00:00 | |
| AA1-15 | 2026-09-04 00:07:39 | 53.44728 | 8.99011 | 91° | 26km/h | 23389m | 4.5m/s | -52°C | 0.8% | 34.4hPa | 2.5V | 18:12:15 | 01:48:09 | 00:00:00 | |
| DL1XH-west | 2026-09-04 00:07:36 | 53.44725 | 8.98983 | 67° | 22km/h | 23375m | 5.2m/s | -52°C | 0.9% | 34.5hPa | 2.5V | 18:12:15 | 01:48:06 | 00:00:00 | |
| HSKMA3-T | 2026-09-04 00:07:32 | 53.44717 | 8.98958 | 63° | 11km/h | 23354m | 4.5m/s | -52°C | 0.9% | 34.6hPa | 2.6V | 18:12:15 | 01:48:02 | 00:00:00 | |
| DO2JMG | 2026-09-04 00:07:30 | 53.44714 | 8.98950 | 53° | 13km/h | 23344m | 5.7m/s | -52.1°C | 0.8% | 34.7hPa | 2.5V | 18:12:15 | 01:48:00 | 00:00:00 | |
| AA1-15 | 2026-09-04 00:07:29 | 53.44712 | 8.98945 | 55° | 15km/h | 23339m | 4.5m/s | -52.1°C | 0.9% | 34.7hPa | 2.5V | 18:12:15 | 01:47:59 | 00:00:00 | |
| DF4FW | 2026-09-04 00:07:29 | 53.44712 | 8.98945 | 56° | 15km/h | 23339m | 4.5m/s | -52.1°C | 1.2% | 34.7hPa | 2.5V | 00:00:00 | 00:00:00 | 00:00:00 | |
| DL1XH1-15 | 2026-09-04 00:07:28 | 53.44703 | 8.98908 | 56° | 16km/h | 23308m | 4.7m/s | -52.1°C | 4% | 34.9hPa | 2.5V | 08:30:00 | 01:47:53 | 00:00:00 | |
| DL1XH-west | 2026-09-04 00:07:25 | 53.44707 | 8.98921 | 72° | 16km/h | 23319m | 5.1m/s | -52.1°C | 0.9% | 34.8hPa | 2.6V | 18:12:15 | 01:47:55 | 00:00:00 | |
| DB0DAN | 2026-09-04 00:07:25 | 53.44707 | 8.98921 | 72° | 16km/h | 23319m | 5.1m/s | -52.1°C | 1.2% | 34.8hPa | 2.6V | 00:00:00 | 00:00:00 | 00:00:00 | |
| BIOWL1-15 | 2026-09-04 00:07:23 | 53.44699 | 8.98897 | 58° | 15km/h | 23297m | 5.7m/s | -52.1°C | 0.8% | 34.9hPa | 2.6V | 18:12:15 | 01:47:51 | 00:00:00 | |
| HSKMA3-T | 2026-09-04 00:07:22 | 53.44701 | 8.98902 | 56° | 16km/h | 23303m | 5.4m/s | -52.1°C | 0.8% | 34.9hPa | 2.5V | 18:12:15 | 01:47:52 | 00:00:00 | |
| DO2JMG | 2026-09-04 00:07:20 | 53.44697 | 8.98892 | 58° | 13km/h | 23292m | 4.8m/s | -52.1°C | 0.8% | 35hPa | 2.6V | 18:12:15 | 01:47:50 | 00:00:00 | |
| AA1-15 | 2026-09-04 00:07:18 | 53.44693 | 8.98884 | 39° | 13km/h | 23282m | 5.6m/s | -52.1°C | 0.9% | 35hPa | 2.5V | 18:12:15 | 01:47:48 | 00:00:00 | |
| DL1XH-west | 2026-09-04 00:07:15 | 53.44687 | 8.98873 | 72° | 11km/h | 23267m | 6.1m/s | -52.2°C | 0.8% | 35.1hPa | 2.6V | 18:12:15 | 01:47:45 | 00:00:00 | |
| DL1XH-15 | 2026-09-04 00:07:15 | 53.44683 | 8.98847 | 57° | 11km/h | 23241m | 4.7m/s | -52.2°C | 4% | 35.2hPa | 2.5V | 08:30:00 | 01:47:40 | 00:00:00 | |
| DM0DOS-11 | 2026-09-04 00:07:15 | 53.44687 | 8.98863 | 86° | 15km/h | 23257m | 4.5m/s | -52.1°C | 4% | 35.1hPa | 2.5V | 08:30:00 | 01:47:43 | 00:00:00 | |
| HSKMA3-T | 2026-09-04 00:07:11 | 53.44685 | 8.98851 | 67° | 13km/h | 23246m | 5.3m/s | -52.2°C | 0.8% | 35.2hPa | 2.5V | 18:12:15 | 01:47:41 | 00:00:00 | |
| DB0DAN | 2026-09-04 00:07:10 | 53.44684 | 8.98847 | 57° | 11km/h | 23241m | 4.7m/s | -52.2°C | 1.2% | 35.23hPa | 2.5V | 00:00:00 | 00:00:00 | 00:00:00 | |
| DO2JMG | 2026-09-04 00:07:10 | 53.44684 | 8.98847 | 57° | 11km/h | 23241m | 4.7m/s | -52.2°C | 0.8% | 35.2hPa | 2.5V | 18:12:15 | 01:47:40 | 00:00:00 | |
| DO2SHX-10 | 2026-09-04 00:07:10 | 53.44684 | 8.98847 | 58° | 9km/h | 23242m | 4.6m/s | -52.1°C | 4.0% | 35.2hPa | 2.6V | 00:00:00 | 01:47:40 | 00:00:00 | |
| GOEST3-10 | 2026-09-04 00:07:09 | 53.44682 | 8.98843 | 60° | 7km/h | 23236m | 5.8m/s | -52.1°C | 4.0% | 35.2hPa | 2.6V | 00:00:00 | 01:47:39 | 00:00:00 | |
| DL1XH1-15 | 2026-09-04 00:07:08 | 53.44677 | 8.98829 | 30° | 9km/h | 23206m | 4.3m/s | -52.2°C | 4% | 35.4hPa | 2.6V | 08:30:00 | 01:47:33 | 00:00:00 | |
| AA1-15 | 2026-09-04 00:07:07 | 53.44681 | 8.98837 | 82° | 5km/h | 23225m | 4.1m/s | -52.2°C | 0.9% | 35.3hPa | 2.5V | 18:12:15 | 01:47:37 | 00:00:00 | |
| DO2SHX-10 | 2026-09-04 00:07:07 | 53.44681 | 8.98837 | 82° | 5km/h | 23226m | 4.1m/s | -52.1°C | 4.0% | 35.3hPa | 2.5V | 00:00:00 | 01:47:37 | 00:00:00 | |
| DB0UT-7 | 2026-09-04 00:07:06 | 53.44680 | 8.98834 | 73° | 7km/h | 23221m | 4.3m/s | -52.1°C | 4.0% | 35.3hPa | 2.5V | 00:00:00 | 00:00:00 | 08:30:00 | |
| DL1XH-15 | 2026-09-04 00:07:05 | 53.44672 | 8.98819 | 82° | 11km/h | 23191m | 5m/s | -52.2°C | 3.9% | 35.5hPa | 2.5V | 08:30:00 | 01:47:30 | 00:00:00 | |
| DL1XH-west | 2026-09-04 00:07:05 | 53.44680 | 8.98833 | 44° | 5km/h | 23216m | 5.5m/s | -52.2°C | 0.8% | 35.4hPa | 2.5V | 18:12:15 | 01:47:35 | 00:00:00 | |
| HSKMA3-T | 2026-09-04 00:07:00 | 53.44672 | 8.98819 | 83° | 11km/h | 23191m | 5m/s | -52.2°C | 0.8% | 35.5hPa | 2.5V | 18:12:15 | 01:47:30 | 00:00:00 | |
| DO2JMG | 2026-09-04 00:06:59 | 53.44672 | 8.98814 | 89° | 11km/h | 23186m | 4.5m/s | -52.2°C | 0.8% | 35.5hPa | 2.5V | 18:12:15 | 01:47:29 | 00:00:00 | |
| AA1-15 | 2026-09-04 00:06:56 | 53.44671 | 8.98802 | 72° | 5km/h | 23171m | 4.3m/s | -52.2°C | 0.8% | 35.6hPa | 2.5V | 18:12:15 | 01:47:26 | 00:00:00 | |
| DL1XH-west | 2026-09-04 00:06:55 | 53.44671 | 8.98799 | 144° | 4km/h | 23161m | 5.5m/s | -52.3°C | 0.8% | 35.7hPa | 2.5V | 18:12:15 | 01:47:24 | 00:00:00 | |
| BIOWL1-15 | 2026-09-04 00:06:53 | 53.44672 | 8.98799 | 216° | 2km/h | 23155m | 4.7m/s | -52.3°C | 0.8% | 35.7hPa | 2.5V | 18:12:15 | 01:47:23 | 00:00:00 | |
| HSKMA3-T | 2026-09-04 00:06:50 | 53.44672 | 8.98805 | 263° | 5km/h | 23140m | 4.3m/s | -52.4°C | 0.8% | 35.8hPa | 2.5V | 18:12:15 | 01:47:20 | 00:00:00 | |
| DL1NUX | 2026-09-04 00:06:50 | 53.44672 | 8.98808 | 241° | 5km/h | 23135m | 5.3m/s | -52.4°C | 4% | 35.8hPa | 2.5V | 08:30:00 | 01:47:19 | 00:00:00 | |
| DO2JMG | 2026-09-04 00:06:49 | 53.44672 | 8.98808 | 242° | 5km/h | 23135m | 5.4m/s | -52.4°C | 0.9% | 35.8hPa | 2.5V | 18:12:15 | 01:47:19 | 00:00:00 | |
| AA1-15 | 2026-09-04 00:06:46 | 53.44677 | 8.98810 | 167° | 7km/h | 23120m | 4.8m/s | -52.6°C | 0.9% | 35.9hPa | 2.6V | 18:12:15 | 01:47:16 | 00:00:00 | |
| DO2SHX-10 | 2026-09-04 00:06:46 | 53.44677 | 8.98810 | 167° | 7km/h | 23120m | 4.7m/s | -52.6°C | 4.1% | 35.9hPa | 2.6V | 00:00:00 | 01:47:16 | 00:00:00 | |
| DL1XH-15 | 2026-09-04 00:06:45 | 53.44685 | 8.98801 | 118° | 5km/h | 23089m | 4.2m/s | -52.8°C | 4.1% | 36.1hPa | 2.6V | 08:30:00 | 01:47:10 | 00:00:00 | |
| DL1XH-west | 2026-09-04 00:06:44 | 53.44681 | 8.98807 | 145° | 5km/h | 23104m | 5m/s | -52.7°C | 0.9% | 36hPa | 2.5V | 18:12:15 | 01:47:13 | 00:00:00 | |
| BIOWL1-15 | 2026-09-04 00:06:42 | 53.44683 | 8.98805 | 139° | 7km/h | 23099m | 6.2m/s | -52.7°C | 0.9% | 36hPa | 2.5V | 18:12:15 | 01:47:12 | 00:00:00 | |
| DB0DAN | 2026-09-04 00:06:40 | 53.44685 | 8.98801 | 118° | 5km/h | 23089m | 4.2m/s | -52.8°C | 1.2% | 36.08hPa | 2.6V | 00:00:00 | 00:00:00 | 00:00:00 | |
| HSKMA3-T | 2026-09-04 00:06:40 | 53.44685 | 8.98801 | 118° | 5km/h | 23089m | 4.2m/s | -52.8°C | 0.9% | 36.1hPa | 2.6V | 18:12:15 | 01:47:10 | 00:00:00 | |
| DO2JMG | 2026-09-04 00:06:38 | 53.44685 | 8.98797 | 78° | 4km/h | 23078m | 4.9m/s | -52.9°C | 0.9% | 36.1hPa | 2.5V | 18:12:15 | 01:47:08 | 00:00:00 | |
| DO2SHX-10 | 2026-09-04 00:06:37 | 53.44685 | 8.98795 | 97° | 5km/h | 23074m | 3.6m/s | -52.8°C | 4.2% | 36.1hPa | 2.5V | 00:00:00 | 01:47:07 | 08:30:00 | |
| DB0UT-7 | 2026-09-04 00:06:36 | 53.44685 | 8.98794 | 131° | 13km/h | 23069m | 5.7m/s | -52.8°C | 4.1% | 36.1hPa | 2.5V | 00:00:00 | 01:47:06 | 00:00:00 | |
| DL1XH-15 | 2026-09-04 00:06:35 | 53.44702 | 8.98788 | 179° | 11km/h | 23037m | 4.6m/s | -53°C | 4.3% | 36.4hPa | 2.5V | 08:30:00 | 01:47:00 | 00:00:00 | |
| DL1XH1-15 | 2026-09-04 00:06:35 | 53.44693 | 8.98789 | 170° | 15km/h | 23053m | 4.7m/s | -52.9°C | 4.2% | 36.3hPa | 2.5V | 08:30:00 | 01:47:03 | 00:00:00 | |
| AA1-15 | 2026-09-04 00:06:35 | 53.44687 | 8.98792 | 157° | 9km/h | 23063m | 5.7m/s | -52.8°C | 0.9% | 36.2hPa | 2.6V | 18:12:15 | 01:47:05 | 00:00:00 | |
| DL1XH-west | 2026-09-04 00:06:32 | 53.44696 | 8.98789 | 174° | 15km/h | 23048m | 5.6m/s | -52.9°C | 1% | 36.3hPa | 2.5V | 18:12:15 | 01:47:02 | 00:00:00 | |
| HSKMA3-T | 2026-09-04 00:06:30 | 53.44702 | 8.98788 | 180° | 11km/h | 23037m | 4.6m/s | -53°C | 1.1% | 36.4hPa | 2.5V | 18:12:15 | 01:47:00 | 00:00:00 | |
| DO2JMG | 2026-09-04 00:06:28 | 53.44708 | 8.98788 | 180° | 13km/h | 23027m | 5.8m/s | -53°C | 1% | 36.4hPa | 2.6V | 18:12:15 | 01:46:58 | 00:00:00 | |
| DB0DAN | 2026-09-04 00:06:25 | 53.44716 | 8.98790 | 197° | 7km/h | 23011m | 5.2m/s | -52.9°C | 1.3% | 36.5hPa | 2.5V | 00:00:00 | 00:00:00 | 00:00:00 | |
| DL1XH-15 | 2026-09-04 00:06:25 | 53.44732 | 8.98788 | 163° | 20km/h | 22986m | 5.1m/s | -52.8°C | 4.3% | 36.6hPa | 2.5V | 08:30:00 | 01:46:50 | 00:00:00 | |
| AA1-15 | 2026-09-04 00:06:24 | 53.44718 | 8.98791 | 195° | 9km/h | 23007m | 4.3m/s | -52.9°C | 1% | 36.5hPa | 2.5V | 18:12:15 | 01:46:54 | 00:00:00 | |
| DL1XH-west | 2026-09-04 00:06:21 | 53.44728 | 8.98790 | 167° | 18km/h | 22990m | 4.8m/s | -52.9°C | 1% | 36.6hPa | 2.5V | 18:12:15 | 01:46:51 | 00:00:00 | |
| BIOWL1-15 | 2026-09-04 00:06:21 | 53.44748 | 8.98779 | 167° | 15km/h | 22965m | 5.3m/s | -52.7°C | 0.9% | 36.8hPa | 2.6V | 18:12:15 | 01:46:46 | 00:00:00 | |
| HTAHTA | 2026-09-04 00:06:21 | 53.44728 | 8.98790 | 167° | 18km/h | 22991m | 4.8m/s | -52.9°C | 1.3% | 36.6hPa | 2.5V | 00:00:00 | 00:00:00 | 00:00:00 | |
| DL1NUX | 2026-09-04 00:06:19 | 53.44741 | 8.98783 | 159° | 16km/h | 22974m | 5.1m/s | -52.8°C | 4.2% | 36.7hPa | 2.5V | 08:30:00 | 01:46:48 | 00:00:00 | |
| HSKMA3-T | 2026-09-04 00:06:19 | 53.44737 | 8.98785 | 162° | 18km/h | 22980m | 5.9m/s | -52.8°C | 1% | 36.7hPa | 2.5V | 18:12:15 | 01:46:49 | 00:00:00 | |
| DO2JMG | 2026-09-04 00:06:18 | 53.44745 | 8.98781 | 162° | 15km/h | 22969m | 4.7m/s | -52.7°C | 0.9% | 36.7hPa | 2.6V | 18:12:15 | 01:46:47 | 00:00:00 | |
| AA1-15 | 2026-09-04 00:06:13 | 53.44759 | 8.98778 | 185° | 13km/h | 22949m | 4.4m/s | -52.7°C | 1% | 36.8hPa | 2.5V | 18:12:15 | 01:46:43 | 00:00:00 | |
| DL4BBY-15 | 2026-09-04 00:06:13 | 53.44759 | 8.98777 | 185° | 11km/h | 22949m | 4.3m/s | -52.2°C | 0% | 0hPa | 2.5V | 00:00:00 | 00:00:00 | 00:00:00 | |
| DF4FW | 2026-09-04 00:06:12 | 53.44759 | 8.98777 | 186° | 13km/h | 22949m | 4.4m/s | -52.7°C | 1.3% | 36.8hPa | 2.5V | 00:00:00 | 00:00:00 | 00:00:00 | |
| DB0DAN | 2026-09-04 00:06:10 | 53.44765 | 8.98779 | 173° | 5km/h | 22933m | 4.8m/s | -52.6°C | 1.3% | 36.96hPa | 2.5V | 00:00:00 | 00:00:00 | 00:00:00 | |
| DL1NUX | 2026-09-04 00:06:10 | 53.44769 | 8.98776 | 143° | 11km/h | 22922m | 4.6m/s | -52.5°C | 4.2% | 37hPa | 2.5V | 08:30:00 | 01:46:38 | 00:00:00 | |
| DL1XH-west | 2026-09-04 00:06:10 | 53.44765 | 8.98779 | 173° | 5km/h | 22933m | 4.8m/s | -52.6°C | 1% | 37hPa | 2.5V | 18:12:15 | 01:46:40 | 00:00:00 | |
| HSKMA3-T | 2026-09-04 00:06:08 | 53.44769 | 8.98776 | 144° | 11km/h | 22922m | 4.6m/s | -52.5°C | 1% | 37hPa | 2.5V | 18:12:15 | 01:46:38 | 00:00:00 | |
| DO2JMG | 2026-09-04 00:06:06 | 53.44773 | 8.98768 | 128° | 13km/h | 22912m | 5.9m/s | -52.4°C | 1% | 37.1hPa | 2.6V | 18:12:15 | 01:46:36 | 00:00:00 | |
| DB0UT-7 | 2026-09-04 00:06:06 | 53.44773 | 8.98768 | 129° | 9km/h | 22912m | 5.8m/s | -52.4°C | 4.2% | 37.0hPa | 2.6V | 00:00:00 | 00:00:00 | 00:00:00 | |
| DL1XH-15 | 2026-09-04 00:06:05 | 53.44788 | 8.98748 | 165° | 13km/h | 22880m | 4.7m/s | -52.3°C | 4.1% | 37.2hPa | 2.6V | 08:30:00 | 01:46:30 | 00:00:00 | |
| AA1-15 | 2026-09-04 00:06:02 | 53.44781 | 8.98752 | 149° | 13km/h | 22891m | 6m/s | -52.3°C | 1% | 37.2hPa | 2.5V | 18:12:15 | 01:46:32 | 00:00:00 | |
| SONDE2-11 | 2026-09-04 00:06:01 | 53.44787 | 8.98749 | 165° | 13km/h | 22881m | 4.7m/s | -52.3°C | 1.2% | 37.2hPa | 2.5V | 00:00:00 | 00:00:00 | 00:00:00 | |
| DL1NUX | 2026-09-04 00:05:59 | 53.44793 | 8.98746 | 154° | 7km/h | 22869m | 5.3m/s | -52.3°C | 4.2% | 37.3hPa | 2.5V | 08:30:00 | 01:46:28 | 00:00:00 | |
| DL1XH-west | 2026-09-04 00:05:59 | 53.44790 | 8.98747 | 166° | 11km/h | 22875m | 6.1m/s | -52.3°C | 0.9% | 37.3hPa | 2.6V | 18:12:15 | 01:46:29 | 00:00:00 | |
| DF8AY | 2026-09-04 00:05:58 | 53.44792 | 8.98746 | 155° | 7km/h | 22869m | 5.3m/s | -52.3°C | 1% | 37.3hPa | 2.5V | 18:12:15 | 01:46:28 | 00:00:00 | |
| HSKMA3-T | 2026-09-04 00:05:57 | 53.44794 | 8.98745 | 140° | 5km/h | 22864m | 4.7m/s | -52.3°C | 1% | 37.4hPa | 2.5V | 18:12:15 | 01:46:27 | 00:00:00 | |
| DO2JMG | 2026-09-04 00:05:56 | 53.44795 | 8.98743 | 138° | 5km/h | 22859m | 5.5m/s | -52.4°C | 0.9% | 37.4hPa | 2.5V | 18:12:15 | 01:46:26 | 00:00:00 | |
| BIOWL1-15 | 2026-09-04 00:05:55 | 53.44796 | 8.98741 | 142° | 7km/h | 22854m | 5.5m/s | -52.4°C | 0.9% | 37.4hPa | 2.5V | 18:12:15 | 01:46:25 | 00:00:00 | |
| DL1XH-15 | 2026-09-04 00:05:55 | 53.44802 | 8.98725 | 119° | 11km/h | 22828m | 5.1m/s | -52.3°C | 4.1% | 37.5hPa | 2.5V | 08:30:00 | 01:46:20 | 00:00:00 | |
| AA1-15 | 2026-09-04 00:05:51 | 53.44801 | 8.98729 | 109° | 9km/h | 22833m | 4.7m/s | -52.3°C | 0.9% | 37.5hPa | 2.5V | 18:12:15 | 01:46:21 | 00:00:00 | |
| HTAHTA | 2026-09-04 00:05:50 | 53.44802 | 8.98725 | 119° | 11km/h | 22828m | 5.1m/s | -52.3°C | 1.2% | 37.5hPa | 2.6V | 00:00:00 | 00:00:00 | 00:00:00 | |
| DL1XH1-15 | 2026-09-04 00:05:49 | 53.44813 | 8.98699 | 95° | 9km/h | 22792m | 6.1m/s | -52.2°C | 4.1% | 37.7hPa | 2.6V | 08:30:00 | 01:46:13 | 00:00:00 | |
| DF8AY | 2026-09-04 00:05:49 | 53.44806 | 8.98717 | 140° | 15km/h | 22818m | 4.4m/s | -52.3°C | 1% | 37.6hPa | 2.6V | 18:12:15 | 01:46:18 | 00:00:00 | |
| DO2JMG | 2026-09-04 00:05:46 | 53.44811 | 8.98710 | 129° | 11km/h | 22808m | 5.8m/s | -52.2°C | 0.9% | 37.7hPa | 2.5V | 18:12:15 | 01:46:16 | 00:00:00 | |
| BIOWL1-15 | 2026-09-04 00:05:45 | 53.44812 | 8.98703 | 98° | 9km/h | 22798m | 4.9m/s | -52.2°C | 0.9% | 37.7hPa | 2.5V | 18:12:15 | 01:46:14 | 00:00:00 | |
| GOEST3-10 | 2026-09-04 00:05:44 | 53.44812 | 8.98703 | 98° | 7km/h | 22798m | 4.8m/s | -52.2°C | 4.1% | 37.7hPa | 2.5V | 00:00:00 | 00:00:00 | 00:00:00 | |
| DL4BBY-15 | 2026-09-04 00:05:43 | 53.44812 | 8.98699 | 96° | 5km/h | 22793m | 6.0m/s | -51.7°C | 0% | 0hPa | 2.5V | 00:00:00 | 00:00:00 | 00:00:00 | |
| DB0DAN | 2026-09-04 00:05:40 | 53.44813 | 8.98690 | 58° | 5km/h | 22776m | 6.3m/s | -52.1°C | 1.2% | 37.84hPa | 2.5V | 00:00:00 | 00:00:00 | 00:00:00 | |
| AA1-15 | 2026-09-04 00:05:40 | 53.44813 | 8.98690 | 58° | 5km/h | 22776m | 6.3m/s | -52.1°C | 0.9% | 37.8hPa | 2.5V | 18:12:15 | 01:46:10 | 00:00:00 | |
| DL1NUX | 2026-09-04 00:05:39 | 53.44810 | 8.98687 | 13° | 5km/h | 22765m | 4.9m/s | -52.1°C | 4.1% | 37.9hPa | 2.5V | 08:30:00 | 01:46:08 | 00:00:00 | |
| DF8AY | 2026-09-04 00:05:38 | 53.44809 | 8.98687 | 359° | 4km/h | 22760m | 5.8m/s | -52.1°C | 0.9% | 37.9hPa | 2.6V | 18:12:15 | 01:46:07 | 00:00:00 | |
| DL1XH-west | 2026-09-04 00:05:38 | 53.44810 | 8.98687 | 13° | 5km/h | 22765m | 4.9m/s | -52.1°C | 1% | 37.9hPa | 2.5V | 18:12:15 | 01:46:08 | 00:00:00 | |
| DO2JMG | 2026-09-04 00:05:36 | 53.44808 | 8.98687 | 285° | 2km/h | 22754m | 5.5m/s | -52°C | 0.9% | 38hPa | 2.6V | 18:12:15 | 01:46:06 | 00:00:00 | |
| BIOWL1-15 | 2026-09-04 00:05:33 | 53.44809 | 8.98689 | 226° | 0km/h | 22739m | 6m/s | -52°C | 0.9% | 38.1hPa | 2.5V | 18:12:15 | 01:46:03 | 00:00:00 | |
| BIOWL9-15 | 2026-09-04 00:05:33 | 53.44809 | 8.98689 | 42° | 2km/h | 22734m | 4.7m/s | -51.9°C | 1.2% | 38.1hPa | 2.5V | 00:00:00 | 00:00:00 | 00:00:00 | |
| DO2SHX-10 | 2026-09-04 00:05:31 | 53.44808 | 8.98688 | 63° | 5km/h | 22729m | 4.4m/s | -51.9°C | 4.0% | 38.1hPa | 2.5V | 00:00:00 | 01:46:01 | 00:00:00 | |
| DF4FW | 2026-09-04 00:05:30 | 53.44808 | 8.98688 | 63° | 4km/h | 22729m | 4.4m/s | -51.9°C | 1.2% | 38.1hPa | 2.5V | 00:00:00 | 00:00:00 | 00:00:00 | |
| DL1NUX | 2026-09-04 00:05:29 | 53.44809 | 8.98681 | 118° | 7km/h | 22713m | 4.9m/s | -51.8°C | 4% | 38.2hPa | 2.5V | 08:30:00 | 01:45:58 | 00:00:00 | |
| AA1-15 | 2026-09-04 00:05:29 | 53.44809 | 8.98684 | 117° | 5km/h | 22719m | 5.7m/s | -51.8°C | 0.9% | 38.2hPa | 2.5V | 18:12:15 | 01:45:59 | 00:00:00 | |
| DL1XH-west | 2026-09-04 00:05:27 | 53.44810 | 8.98679 | 108° | 7km/h | 22708m | 5.6m/s | -51.8°C | 0.8% | 38.3hPa | 2.5V | 18:12:15 | 01:45:57 | 00:00:00 | |
| DF8AY | 2026-09-04 00:05:27 | 53.44810 | 8.98675 | 91° | 7km/h | 22702m | 5.6m/s | -51.7°C | 0.9% | 38.3hPa | 2.6V | 18:12:15 | 01:45:56 | 00:00:00 | |
| DB0DAN | 2026-09-04 00:05:25 | 53.44810 | 8.98673 | 67° | 5km/h | 22697m | 4.3m/s | -51.7°C | 1.2% | 38.33hPa | 2.6V | 00:00:00 | 00:00:00 | 00:00:00 | |
| DO2JMG | 2026-09-04 00:05:25 | 53.44810 | 8.98673 | 67° | 5km/h | 22697m | 4.3m/s | -51.7°C | 0.9% | 38.3hPa | 2.6V | 18:12:15 | 01:45:55 | 00:00:00 | |
| BIOWL1-15 | 2026-09-04 00:05:22 | 53.44810 | 8.98674 | 249° | 7km/h | 22677m | 5m/s | -51.6°C | 0.8% | 38.4hPa | 2.5V | 18:12:15 | 01:45:51 | 00:00:00 | |
| DO2SHX-10 | 2026-09-04 00:05:22 | 53.44810 | 8.98672 | 248° | 5km/h | 22682m | 5.2m/s | -51.6°C | 4.0% | 38.4hPa | 2.5V | 00:00:00 | 01:45:52 | 00:00:00 | |
| DK1YY | 2026-09-04 00:05:21 | 53.44810 | 8.98674 | 248° | 5km/h | 22677m | 5.0m/s | -51.6°C | -1.0% | 38.4hPa | 2.5V | 00:00:00 | 00:00:00 | 00:00:00 | |
| DL1NUX | 2026-09-04 00:05:19 | 53.44811 | 8.98682 | 268° | 5km/h | 22661m | 3.9m/s | -51.5°C | 3.9% | 38.6hPa | 2.5V | 08:30:00 | 01:45:48 | 00:00:00 | |
| AA1-15 | 2026-09-04 00:05:18 | 53.44811 | 8.98682 | 268° | 5km/h | 22661m | 3.9m/s | -51.5°C | 0.8% | 38.6hPa | 2.5V | 18:12:15 | 01:45:48 | 00:00:00 | |
| DL1XH-west | 2026-09-04 00:05:17 | 53.44811 | 8.98684 | 254° | 5km/h | 22657m | 5.2m/s | -51.5°C | 0.8% | 38.6hPa | 2.5V | 18:12:15 | 01:45:47 | 00:00:00 | |
| DO2JMG | 2026-09-04 00:05:15 | 53.44813 | 8.98688 | 218° | 5km/h | 22646m | 4.7m/s | -51.5°C | 0.8% | 38.6hPa | 2.5V | 18:12:15 | 01:45:45 | 00:00:00 | |
| DL1XH1-15 | 2026-09-04 00:05:14 | 53.44814 | 8.98690 | 249° | 4km/h | 22636m | 5.5m/s | -51.6°C | 3.9% | 38.7hPa | 2.6V | 08:30:00 | 01:45:43 | 00:00:00 | |
| DF8AY-15 | 2026-09-04 00:05:14 | 53.44814 | 8.98689 | 221° | 9km/h | 22642m | 4.8m/s | -51.5°C | 3.9% | 38.6hPa | 2.5V | 00:00:00 | 01:45:44 | 00:00:00 | |
| DL1XH-15 | 2026-09-04 00:05:13 | 53.44815 | 8.98695 | 225° | 7km/h | 22620m | 5.6m/s | -51.7°C | 4% | 38.8hPa | 2.5V | 08:30:00 | 01:45:40 | 00:00:00 | |
| BIOWL1-15 | 2026-09-04 00:05:13 | 53.44822 | 8.98701 | 182° | 7km/h | 22596m | 4.4m/s | -51.9°C | 1% | 38.9hPa | 2.5V | 18:12:15 | 01:45:35 | 00:00:00 | |
| DB0DAN | 2026-09-04 00:05:10 | 53.44816 | 8.98695 | 225° | 5km/h | 22620m | 5.6m/s | -51.7°C | 1.2% | 38.77hPa | 2.5V | 00:00:00 | 00:00:00 | 00:00:00 | |
| DL1NUX | 2026-09-04 00:05:09 | 53.44818 | 8.98699 | 216° | 5km/h | 22611m | 5.2m/s | -51.8°C | 4% | 38.8hPa | 2.6V | 08:30:00 | 01:45:38 | 00:00:00 | |
| GOEST3-10 | 2026-09-04 00:05:09 | 53.44817 | 8.98697 | 217° | 7km/h | 22616m | 4.0m/s | -51.7°C | 4.0% | 38.8hPa | 2.5V | 00:00:00 | 01:45:39 | 08:30:00 | |
| DL1XH1-15 | 2026-09-04 00:05:08 | 53.44827 | 8.98701 | 181° | 15km/h | 22585m | 5.5m/s | -51.9°C | 4.1% | 39hPa | 2.6V | 08:30:00 | 01:45:33 | 00:00:00 | |
| AA1-15 | 2026-09-04 00:05:08 | 53.44818 | 8.98699 | 216° | 5km/h | 22611m | 5.2m/s | -51.8°C | 0.9% | 38.8hPa | 2.6V | 18:12:15 | 01:45:38 | 00:00:00 | |
| DL1XH-west | 2026-09-04 00:05:06 | 53.44820 | 8.98701 | 191° | 5km/h | 22601m | 4.6m/s | -51.9°C | 0.9% | 38.9hPa | 2.5V | 18:12:15 | 01:45:36 | 00:00:00 | |
| DB0UT-7 | 2026-09-04 00:05:06 | 53.44820 | 8.98701 | 192° | 13km/h | 22601m | 4.6m/s | -51.8°C | 4.0% | 38.9hPa | 2.5V | 00:00:00 | 00:00:00 | 00:00:00 | |
| DL1XH-15 | 2026-09-04 00:05:05 | 53.44838 | 8.98703 | 194° | 13km/h | 22569m | 5m/s | -51.9°C | 4.1% | 39.1hPa | 2.5V | 08:30:00 | 01:45:30 | 00:00:00 | |
| DO2JMG | 2026-09-04 00:05:04 | 53.44824 | 8.98701 | 180° | 11km/h | 22591m | 6.2m/s | -51.9°C | 0.9% | 39hPa | 2.5V | 18:12:15 | 01:45:34 | 00:00:00 | |
| GOEST3-10 | 2026-09-04 00:05:03 | 53.44827 | 8.98701 | 182° | 15km/h | 22585m | 5.4m/s | -51.9°C | 4.1% | 38.9hPa | 2.5V | 00:00:00 | 00:00:00 | 00:00:00 | |
| BIOWL9-15 | 2026-09-04 00:05:02 | 53.44835 | 8.98702 | 186° | 13km/h | 22574m | 5.9m/s | -51.9°C | 1.2% | 39.1hPa | 2.5V | 00:00:00 | 00:00:00 | 00:00:00 | |
| SONDE2-11 | 2026-09-04 00:04:59 | 53.44844 | 8.98706 | 200° | 13km/h | 22559m | 6.0m/s | -51.9°C | 1.2% | 39.1hPa | 2.5V | 00:00:00 | 00:00:00 | 00:00:00 | |
| DL1XH1-15 | 2026-09-04 00:04:58 | 53.44868 | 8.98724 | 162° | 13km/h | 22506m | 4.8m/s | -51.9°C | 4.1% | 39.5hPa | 2.5V | 08:30:00 | 01:45:18 | 00:00:00 | |
| AA1-15 | 2026-09-04 00:04:57 | 53.44848 | 8.98709 | 204° | 15km/h | 22553m | 5m/s | -51.9°C | 1% | 39.2hPa | 2.6V | 18:12:15 | 01:45:27 | 00:00:00 | |
| BIOWL1-15 | 2026-09-04 00:04:55 | 53.44897 | 8.98714 | 189° | 13km/h | 22470m | 4.5m/s | -51.8°C | 1% | 39.7hPa | 2.5V | 18:12:15 | 01:45:11 | 00:00:00 | |
| DB0DAN | 2026-09-04 00:04:55 | 53.44853 | 8.98714 | 225° | 11km/h | 22543m | 5.9m/s | -52°C | 1.3% | 39.26hPa | 2.5V | 00:00:00 | 00:00:00 | 00:00:00 | |
| HSKMA3-T | 2026-09-04 00:04:54 | 53.44885 | 8.98716 | 169° | 20km/h | 22485m | 4.2m/s | 0°C | 0% | 0hPa | 2.6V | 18:12:15 | 01:45:14 | 00:00:00 | |
| DO2JMG | 2026-09-04 00:04:54 | 53.44855 | 8.98718 | 234° | 9km/h | 22538m | 4.5m/s | -52°C | 1% | 39.3hPa | 2.5V | 18:12:15 | 01:45:24 | 00:00:00 | |
| DF8AY-15 | 2026-09-04 00:04:54 | 53.44855 | 8.98718 | 235° | 13km/h | 22538m | 4.4m/s | -52.0°C | 4.1% | 39.2hPa | 2.5V | 00:00:00 | 01:45:24 | 00:00:00 | |
| DL1NUX | 2026-09-04 00:04:53 | 53.44868 | 8.98724 | 162° | 13km/h | 22506m | 4.8m/s | -51.9°C | 4.1% | 39.5hPa | 2.5V | 08:30:00 | 01:45:18 | 00:00:00 | |
| DL1ZP-14 | 2026-09-04 00:04:53 | 53.44856 | 8.98721 | 227° | 7km/h | 22533m | 4.5m/s | -52.0°C | 1.3% | 39.3hPa | 2.5V | 00:00:00 | 00:00:00 | 00:00:00 | |
| AA1-15 | 2026-09-04 00:04:52 | 53.44893 | 8.98714 | 178° | 13km/h | 22475m | 5.4m/s | -51.9°C | 1.1% | 39.7hPa | 2.5V | 18:12:15 | 01:45:12 | 00:00:00 | |
| DO2JMG | 2026-09-04 00:04:50 | 53.44889 | 8.98715 | 171° | 16km/h | 22481m | 5.6m/s | -51.9°C | 1% | 39.6hPa | 2.5V | 18:12:15 | 01:45:13 | 00:00:00 | |
| HTAHTA | 2026-09-04 00:04:48 | 53.44872 | 8.98722 | 161° | 13km/h | 22502m | 4.8m/s | -51.9°C | 1.3% | 39.5hPa | 2.6V | 00:00:00 | 00:00:00 | 00:00:00 | |
| EDDB2-12 | 2026-09-04 00:04:45 | 53.44880 | 8.98718 | 165° | 18km/h | 22491m | 5.4m/s | -51.9°C | 1.3% | 39.6hPa | 2.6V | 00:00:00 | 00:00:00 | 00:00:00 | |
| DL1XH1-15 | 2026-09-04 00:04:43 | 53.44903 | 8.98718 | 204° | 15km/h | 22460m | 5.7m/s | -51.8°C | 4.1% | 39.8hPa | 2.6V | 08:30:00 | 01:45:09 | 00:00:00 | |
| DL1XH-west | 2026-09-04 00:04:39 | 53.44903 | 8.98718 | 204° | 15km/h | 22460m | 5.7m/s | -51.8°C | 1% | 39.8hPa | 2.6V | 18:12:15 | 01:45:09 | 00:00:00 | |
| AA1-15 | 2026-09-04 00:04:36 | 53.44913 | 8.98725 | 197° | 13km/h | 22445m | 5.4m/s | -51.8°C | 1% | 39.8hPa | 2.5V | 18:12:15 | 01:45:06 | 00:00:00 | |
| DF8AY | 2026-09-04 00:04:35 | 53.44916 | 8.98726 | 183° | 11km/h | 22440m | 3.9m/s | -51.8°C | 1% | 39.9hPa | 2.5V | 18:12:15 | 01:45:05 | 00:00:00 | |
| DL1XH1-15 | 2026-09-04 00:04:34 | 53.44946 | 8.98715 | 157° | 13km/h | 22404m | 4.8m/s | -51.8°C | 4.1% | 40.1hPa | 2.6V | 08:30:00 | 01:44:58 | 00:00:00 | |
| DO2JMG | 2026-09-04 00:04:32 | 53.44928 | 8.98724 | 169° | 22km/h | 22425m | 4.6m/s | -51.8°C | 1% | 40hPa | 2.5V | 18:12:15 | 01:45:02 | 00:00:00 | |
| DO2SHX-10 | 2026-09-04 00:04:31 | 53.44934 | 8.98721 | 167° | 18km/h | 22420m | 4.6m/s | -51.7°C | 4.1% | 40.0hPa | 2.5V | 00:00:00 | 01:45:01 | 00:00:00 | |
| DL1NUX | 2026-09-04 00:04:29 | 53.44946 | 8.98715 | 157° | 13km/h | 22404m | 4.8m/s | -51.8°C | 4.1% | 40.1hPa | 2.6V | 08:30:00 | 01:44:58 | 00:00:00 | |
| DM0DOS-11 | 2026-09-04 00:04:29 | 53.44958 | 8.98711 | 134° | 5km/h | 22374m | 5.2m/s | -51.8°C | 4.1% | 40.3hPa | 2.6V | 08:30:00 | 01:44:52 | 00:00:00 | |
| DL1XH-west | 2026-09-04 00:04:28 | 53.44946 | 8.98715 | 158° | 13km/h | 22404m | 4.8m/s | -51.8°C | 1% | 40.1hPa | 2.6V | 18:12:15 | 01:44:58 | 00:00:00 | |
| AA1-15 | 2026-09-04 00:04:25 | 53.44953 | 8.98712 | 182° | 9km/h | 22389m | 3.9m/s | -51.8°C | 1% | 40.2hPa | 2.5V | 18:12:15 | 01:44:55 | 00:00:00 | |
| DF8AY | 2026-09-04 00:04:25 | 53.44957 | 8.98712 | 161° | 5km/h | 22380m | 5.7m/s | -51.8°C | 1% | 40.2hPa | 2.5V | 18:12:15 | 01:44:53 | 00:00:00 | |
| DL1XH-15 | 2026-09-04 00:04:24 | 53.44968 | 8.98703 | 165° | 20km/h | 22354m | 4.3m/s | -51.7°C | 4.1% | 40.4hPa | 2.5V | 08:30:00 | 01:44:48 | 00:00:00 | |
| HSKMA3-T | 2026-09-04 00:04:22 | 53.44958 | 8.98711 | 134° | 5km/h | 22374m | 5.3m/s | 0°C | 0% | 0hPa | 2.6V | 18:12:15 | 01:44:52 | 00:00:00 | |
| DO2JMG | 2026-09-04 00:04:21 | 53.44959 | 8.98709 | 138° | 7km/h | 22370m | 4.6m/s | -51.8°C | 1% | 40.3hPa | 2.6V | 18:12:15 | 01:44:51 | 00:00:00 | |
| DL1XH-west | 2026-09-04 00:04:18 | 53.44968 | 8.98703 | 166° | 20km/h | 22354m | 4.3m/s | -51.7°C | 1% | 40.4hPa | 2.5V | 18:12:15 | 01:44:48 | 00:00:00 | |
| DM0DOS-11 | 2026-09-04 00:04:17 | 53.44988 | 8.98686 | 134° | 5km/h | 22325m | 5.4m/s | -51.5°C | 4% | 40.6hPa | 2.5V | 08:30:00 | 01:44:42 | 00:00:00 | |
| AA1-15 | 2026-09-04 00:04:15 | 53.44982 | 8.98694 | 150° | 16km/h | 22340m | 4.9m/s | -51.6°C | 1% | 40.5hPa | 2.5V | 18:12:15 | 01:44:45 | 00:00:00 | |
| DF8AY-15 | 2026-09-04 00:04:14 | 53.44985 | 8.98691 | 140° | 13km/h | 22336m | 4.6m/s | -51.5°C | 4.1% | 40.5hPa | 2.5V | 00:00:00 | 01:44:44 | 00:00:00 | |
| DL1NUX | 2026-09-04 00:04:13 | 53.44992 | 8.98675 | 112° | 15km/h | 22306m | 5.2m/s | -51.5°C | 4% | 40.7hPa | 2.5V | 08:30:00 | 01:44:38 | 00:00:00 | |
| DO2JMG | 2026-09-04 00:04:10 | 53.44990 | 8.98683 | 124° | 7km/h | 22316m | 4.1m/s | -51.4°C | 1% | 40.6hPa | 2.6V | 18:12:15 | 01:44:40 | 00:00:00 | |
| DL1XH-west | 2026-09-04 00:04:08 | 53.44994 | 8.98669 | 118° | 16km/h | 22301m | 4.3m/s | -51.5°C | 1% | 40.7hPa | 2.5V | 18:12:15 | 01:44:37 | 00:00:00 | |
| DF4FW | 2026-09-04 00:04:08 | 53.44996 | 8.98663 | 130° | 18km/h | 22296m | 5.3m/s | -51.5°C | 1.3% | 40.8hPa | 2.5V | 00:00:00 | 00:00:00 | 00:00:00 | |
| DJ2DS-15 | 2026-09-04 00:04:06 | 53.44999 | 8.98658 | 142° | 16km/h | 22291m | 5.5m/s | -51.5°C | 1.3% | 40.8hPa | 2.5V | 00:00:00 | 00:00:00 | 00:00:00 | |
| DM0DOS-11 | 2026-09-04 00:04:05 | 53.45011 | 8.98649 | 159° | 15km/h | 22276m | 5.8m/s | -51.6°C | 4% | 40.9hPa | 2.5V | 08:30:00 | 01:44:32 | 00:00:00 | |
| AA1-15 | 2026-09-04 00:04:04 | 53.45003 | 8.98654 | 154° | 18km/h | 22286m | 4.3m/s | -51.5°C | 1% | 40.8hPa | 2.6V | 18:12:15 | 01:44:34 | 00:00:00 | |
| DO2SHX-10 | 2026-09-04 00:04:04 | 53.45003 | 8.98654 | 155° | 16km/h | 22286m | 4.3m/s | -51.5°C | 4.0% | 40.8hPa | 2.6V | 00:00:00 | 01:44:34 | 00:00:00 | |
| DL1NUX | 2026-09-04 00:04:02 | 53.45032 | 8.98640 | 158° | 13km/h | 22246m | 5.4m/s | -51.7°C | 4.1% | 41.1hPa | 2.5V | 08:30:00 | 01:44:26 | 00:00:00 | |
| BIOWL1-15 | 2026-09-04 00:04:02 | 53.45015 | 8.98646 | 159° | 15km/h | 22271m | 5m/s | -51.6°C | 1.2% | 40.9hPa | 2.5V | 18:12:15 | 01:44:31 | 00:00:00 | |
| S3001 | 2026-09-04 00:04:01 | 53.45015 | 8.98646 | 158° | 13km/h | 22271m | 5.0m/s | -51.6°C | 1.4% | 40.9hPa | 2.6V | 00:00:00 | 00:00:00 | 00:00:00 | |
| DL1XH1-15 | 2026-09-04 00:04:00 | 53.45021 | 8.98643 | 168° | 15km/h | 22261m | 5.8m/s | -51.7°C | 4% | 41hPa | 2.6V | 08:30:00 | 01:44:29 | 00:00:00 | |
| DO2JMG | 2026-09-04 00:03:59 | 53.45021 | 8.98643 | 169° | 15km/h | 22261m | 5.8m/s | -51.7°C | 1.1% | 41hPa | 2.6V | 18:12:15 | 01:44:29 | 00:00:00 | |
| DL1XH-west | 2026-09-04 00:03:58 | 53.45025 | 8.98642 | 173° | 15km/h | 22256m | 5.3m/s | -51.7°C | 1.1% | 41hPa | 2.6V | 18:12:15 | 01:44:28 | 00:00:00 | |
| SONDE2-11 | 2026-09-04 00:03:57 | 53.45032 | 8.98640 | 158° | 13km/h | 22246m | 5.4m/s | -51.7°C | 1.4% | 41.1hPa | 2.5V | 00:00:00 | 00:00:00 | 00:00:00 | |
| DB0DAN | 2026-09-04 00:03:55 | 53.45034 | 8.98637 | 144° | 11km/h | 22240m | 5.3m/s | -51.8°C | 1.4% | 41.11hPa | 2.5V | 00:00:00 | 00:00:00 | 00:00:00 | |
| AA1-15 | 2026-09-04 00:03:54 | 53.45037 | 8.98634 | 139° | 13km/h | 22236m | 4.1m/s | -51.8°C | 1.1% | 41.1hPa | 2.6V | 18:12:15 | 01:44:24 | 00:00:00 | |
| DL1ZP-14 | 2026-09-04 00:03:52 | 53.45048 | 8.98624 | 161° | 20km/h | 22221m | 4.8m/s | -52.1°C | 1.4% | 41.2hPa | 2.5V | 00:00:00 | 00:00:00 | 00:00:00 | |
| BIOWL1-15 | 2026-09-04 00:03:51 | 53.45134 | 8.98552 | 144° | 29km/h | 22149m | 4.7m/s | -52.9°C | 1.2% | 41.7hPa | 2.6V | 18:12:15 | 01:44:06 | 00:00:00 | |
| DO2JMG | 2026-09-04 00:03:49 | 53.45059 | 8.98617 | 160° | 26km/h | 22211m | 5.5m/s | -52.5°C | 1.2% | 41.3hPa | 2.5V | 18:12:15 | 01:44:19 | 00:00:00 | |
| DL1XH-west | 2026-09-04 00:03:48 | 53.45065 | 8.98613 | 157° | 26km/h | 22206m | 5.1m/s | -52.6°C | 1.3% | 41.4hPa | 2.6V | 18:12:15 | 01:44:18 | 00:00:00 | |
| DL1NUX | 2026-09-04 00:03:47 | 53.45077 | 8.98606 | 162° | 24km/h | 22197m | 4.8m/s | -52.7°C | 4.3% | 41.4hPa | 2.5V | 08:30:00 | 01:44:16 | 00:00:00 | |
| DJ2DS-15 | 2026-09-04 00:03:47 | 53.45071 | 8.98609 | 159° | 27km/h | 22202m | 3.9m/s | -52.6°C | 4.3% | 41.3hPa | 2.5V | 00:00:00 | 01:44:17 | 00:00:00 | |
| DL1LOL-11 | 2026-09-04 00:03:46 | 53.45077 | 8.98606 | 164° | 26km/h | 22197m | 4.8m/s | -52.7°C | 1.4% | 41.4hPa | 2.5V | 00:00:00 | 00:00:00 | 00:00:00 | |
| DF4FW | 2026-09-04 00:03:45 | 53.45077 | 8.98606 | 164° | 26km/h | 22197m | 4.8m/s | -52.7°C | 1.4% | 41.4hPa | 2.5V | 00:00:00 | 00:00:00 | 00:00:00 | |
| DL1XH-15 | 2026-09-04 00:03:43 | 53.45122 | 8.98567 | 142° | 31km/h | 22158m | 4.7m/s | -52.9°C | 4.3% | 41.6hPa | 2.5V | 08:30:00 | 01:44:08 | 00:00:00 | |
| BIOWL1-15 | 2026-09-04 00:03:43 | 53.45145 | 8.98537 | 139° | 27km/h | 22139m | 5m/s | -53°C | 1.1% | 41.8hPa | 2.5V | 18:12:15 | 01:44:04 | 00:00:00 | |
| AA1-15 | 2026-09-04 00:03:43 | 53.45095 | 8.98599 | 164° | 24km/h | 22183m | 4.2m/s | -52.8°C | 1.2% | 41.5hPa | 2.5V | 18:12:15 | 01:44:13 | 00:00:00 | |
| DL4BBY-15 | 2026-09-04 00:03:43 | 53.45095 | 8.98599 | 165° | 31km/h | 22184m | 4.1m/s | -52.3°C | 0% | 0hPa | 2.5V | 00:00:00 | 00:00:00 | 00:00:00 | |
| DL1XH1-15 | 2026-09-04 00:03:42 | 53.45116 | 8.98575 | 138° | 29km/h | 22163m | 5.1m/s | -52.9°C | 4.3% | 41.6hPa | 2.5V | 08:30:00 | 01:44:09 | 00:00:00 | |
| DL1NUX | 2026-09-04 00:03:42 | 53.45140 | 8.98545 | 141° | 27km/h | 22144m | 5.8m/s | -52.9°C | 4.2% | 41.7hPa | 2.6V | 08:30:00 | 01:44:05 | 00:00:00 | |
| DB0DAN | 2026-09-04 00:03:40 | 53.45110 | 8.98583 | 138° | 26km/h | 22168m | 4.3m/s | -52.8°C | 1.4% | 41.59hPa | 2.5V | 00:00:00 | 00:00:00 | 00:00:00 | |
| DF8AY | 2026-09-04 00:03:39 | 53.45116 | 8.98575 | 139° | 29km/h | 22163m | 5.1m/s | -52.9°C | 1.2% | 41.6hPa | 2.5V | 18:12:15 | 01:44:09 | 00:00:00 | |
| DO2JMG | 2026-09-04 00:03:39 | 53.45122 | 8.98567 | 142° | 31km/h | 22158m | 4.7m/s | -52.9°C | 1.2% | 41.7hPa | 2.5V | 18:12:15 | 01:44:08 | 00:00:00 | |
| DL1XH-west | 2026-09-04 00:03:37 | 53.45128 | 8.98559 | 144° | 31km/h | 22154m | 4.2m/s | -52.9°C | 1.1% | 41.7hPa | 2.5V | 18:12:15 | 01:44:07 | 00:00:00 | |
| DO2SHX-10 | 2026-09-04 00:03:37 | 53.45128 | 8.98559 | 145° | 29km/h | 22154m | 4.2m/s | -52.8°C | 4.2% | 41.6hPa | 2.5V | 00:00:00 | 01:44:07 | 00:00:00 | |
| DB0UT-7 | 2026-09-04 00:03:36 | 53.45134 | 8.98552 | 145° | 35km/h | 22150m | 4.6m/s | -52.8°C | 4.2% | 41.7hPa | 2.5V | 00:00:00 | 01:44:06 | 00:00:00 | |
| DL1XH1-15 | 2026-09-04 00:03:35 | 53.45179 | 8.98484 | 124° | 37km/h | 22108m | 5m/s | -53.2°C | 4.4% | 42hPa | 2.5V | 08:30:00 | 01:43:58 | 00:00:00 | |
| DL1XH-15 | 2026-09-04 00:03:34 | 53.45179 | 8.98484 | 124° | 37km/h | 22108m | 5m/s | -53.2°C | 4.4% | 42hPa | 2.5V | 08:30:00 | 01:43:58 | 00:00:00 | |
| AA1-15 | 2026-09-04 00:03:33 | 53.45150 | 8.98530 | 140° | 27km/h | 22134m | 4.9m/s | -53.1°C | 1.2% | 41.8hPa | 2.5V | 18:12:15 | 01:44:03 | 00:00:00 | |
| BIOWL1-15 | 2026-09-04 00:03:31 | 53.45174 | 8.98496 | 131° | 35km/h | 22113m | 6m/s | -53.2°C | 1.2% | 42hPa | 2.5V | 18:12:15 | 01:43:59 | 00:00:00 | |
| S3001 | 2026-09-04 00:03:31 | 53.45168 | 8.98506 | 137° | 33km/h | 22118m | 4.2m/s | -53.2°C | 1.4% | 41.9hPa | 2.6V | 00:00:00 | 00:00:00 | 00:00:00 | |
| DL1NUX | 2026-09-04 00:03:30 | 53.45195 | 8.98444 | 125° | 38km/h | 22093m | 4.5m/s | -53.3°C | 4.4% | 42.1hPa | 2.6V | 08:30:00 | 01:43:55 | 00:00:00 | |
| DF8AY | 2026-09-04 00:03:29 | 53.45179 | 8.98484 | 125° | 37km/h | 22108m | 5m/s | -53.2°C | 1.2% | 42hPa | 2.5V | 18:12:15 | 01:43:58 | 00:00:00 | |
| DO2JMG | 2026-09-04 00:03:27 | 53.45184 | 8.98471 | 123° | 38km/h | 22103m | 4.2m/s | -53.3°C | 1.2% | 42hPa | 2.5V | 18:12:15 | 01:43:57 | 00:00:00 | |
| SONDE2-11 | 2026-09-04 00:03:26 | 53.45195 | 8.98444 | 125° | 38km/h | 22093m | 4.5m/s | -53.3°C | 1.4% | 42.1hPa | 2.6V | 00:00:00 | 00:00:00 | 00:00:00 | |
| DO2SHX-10 | 2026-09-04 00:03:25 | 53.45195 | 8.98444 | 126° | 37km/h | 22093m | 4.4m/s | -53.2°C | 4.4% | 42.0hPa | 2.6V | 00:00:00 | 01:43:55 | 00:00:00 | |
| DL1XH-15 | 2026-09-04 00:03:24 | 53.45230 | 8.98365 | 131° | 31km/h | 22058m | 4.7m/s | -53.4°C | 4.4% | 42.3hPa | 2.6V | 08:30:00 | 01:43:48 | 00:00:00 | |
| AA1-15 | 2026-09-04 00:03:22 | 53.45210 | 8.98407 | 122° | 33km/h | 22078m | 4.9m/s | -53.3°C | 1.2% | 42.2hPa | 2.5V | 18:12:15 | 01:43:52 | 00:00:00 | |
| DL1XH1-15 | 2026-09-04 00:03:21 | 53.45224 | 8.98375 | 132° | 31km/h | 22063m | 4.6m/s | -53.3°C | 4.4% | 42.3hPa | 2.6V | 08:30:00 | 01:43:49 | 00:00:00 | |
| GOEST3-10 | 2026-09-04 00:03:21 | 53.45214 | 8.98395 | 125° | 31km/h | 22074m | 4.3m/s | -53.3°C | 4.4% | 42.2hPa | 2.5V | 00:00:00 | 01:43:51 | 00:00:00 | |
| DL1ZP-14 | 2026-09-04 00:03:20 | 53.45219 | 8.98385 | 129° | 29km/h | 22069m | 5.9m/s | -53.3°C | 1.4% | 42.2hPa | 2.5V | 00:00:00 | 00:00:00 | 00:00:00 | |
| DO2SHX-10 | 2026-09-04 00:03:19 | 53.45224 | 8.98375 | 133° | 31km/h | 22064m | 4.6m/s | -53.3°C | 4.4% | 42.2hPa | 2.6V | 00:00:00 | 01:43:49 | 00:00:00 | |
| DL1NUX | 2026-09-04 00:03:18 | 53.45244 | 8.98331 | 122° | 37km/h | 22043m | 4.4m/s | -53.5°C | 4.5% | 42.4hPa | 2.5V | 08:30:00 | 01:43:45 | 00:00:00 | |
| DK1YY | 2026-09-04 00:03:18 | 53.45235 | 8.98355 | 127° | 31km/h | 22053m | 6.0m/s | 0°C | -1.0% | 42.3hPa | 2.5V | 00:00:00 | 00:00:00 | 00:00:00 | |
| DL1XH-west | 2026-09-04 00:03:17 | 53.45235 | 8.98355 | 128° | 31km/h | 22053m | 6m/s | -53.4°C | 1.2% | 42.3hPa | 2.5V | 18:12:15 | 01:43:47 | 00:00:00 | |
| DM0DOS-11 | 2026-09-04 00:03:17 | 53.45269 | 8.98255 | 109° | 38km/h | 22018m | 4.7m/s | -53.3°C | 4.4% | 42.5hPa | 2.5V | 08:30:00 | 01:43:40 | 00:00:00 | |
| DO2JMG | 2026-09-04 00:03:16 | 53.45240 | 8.98344 | 123° | 35km/h | 22048m | 4.5m/s | -53.5°C | 1.3% | 42.4hPa | 2.5V | 18:12:15 | 01:43:46 | 00:00:00 | |
| HTAHTA | 2026-09-04 00:03:15 | 53.45249 | 8.98318 | 122° | 38km/h | 22039m | 5.6m/s | -53.4°C | 1.4% | 42.4hPa | 2.6V | 00:00:00 | 00:00:00 | 00:00:00 | |
| DF8AY-15 | 2026-09-04 00:03:14 | 53.45249 | 8.98318 | 123° | 35km/h | 22039m | 5.6m/s | -53.4°C | 4.5% | 42.4hPa | 2.6V | 00:00:00 | 01:43:44 | 00:00:00 | |
| DL1XH-15 | 2026-09-04 00:03:13 | 53.45274 | 8.98227 | 109° | 33km/h | 22009m | 4.8m/s | -53.2°C | 4.5% | 42.6hPa | 2.6V | 08:30:00 | 01:43:38 | 00:00:00 | |
| AA1-15 | 2026-09-04 00:03:12 | 53.45260 | 8.98287 | 118° | 44km/h | 22029m | 4.5m/s | -53.4°C | 1.2% | 42.5hPa | 2.6V | 18:12:15 | 01:43:42 | 00:00:00 | |
| DB0DAN | 2026-09-04 00:03:10 | 53.45269 | 8.98255 | 110° | 37km/h | 22018m | 4.7m/s | -53.3°C | 1.4% | 42.56hPa | 2.5V | 00:00:00 | 00:00:00 | 00:00:00 | |
| DO2SHX-10 | 2026-09-04 00:03:10 | 53.45269 | 8.98255 | 110° | 37km/h | 22019m | 4.7m/s | -53.3°C | 4.4% | 42.5hPa | 2.5V | 00:00:00 | 01:43:40 | 00:00:00 | |
| DL1NUX | 2026-09-04 00:03:06 | 53.45285 | 8.98190 | 119° | 31km/h | 21995m | 4.2m/s | -53.2°C | 4.4% | 42.7hPa | 2.5V | 08:30:00 | 01:43:35 | 00:00:00 | |
| DL1XH-west | 2026-09-04 00:03:06 | 53.45281 | 8.98202 | 119° | 33km/h | 21999m | 4.7m/s | -53.2°C | 1.2% | 42.7hPa | 2.5V | 18:12:15 | 01:43:36 | 00:00:00 | |
| DO2JMG | 2026-09-04 00:03:05 | 53.45285 | 8.98190 | 120° | 31km/h | 21995m | 4.2m/s | -53.2°C | 1.2% | 42.7hPa | 2.5V | 18:12:15 | 01:43:35 | 00:00:00 | |
| DO2SHX-10 | 2026-09-04 00:03:05 | 53.45289 | 8.98178 | 118° | 31km/h | 21990m | 6.0m/s | -53.1°C | 4.3% | 42.7hPa | 2.5V | 00:00:00 | 01:43:34 | 00:00:00 | |
| DL1XH1-15 | 2026-09-04 00:03:02 | 53.45306 | 8.98118 | 115° | 33km/h | 21964m | 4.5m/s | -53°C | 4.3% | 42.9hPa | 2.5V | 08:30:00 | 01:43:29 | 00:00:00 | |
| AA1-15 | 2026-09-04 00:03:01 | 53.45299 | 8.98142 | 117° | 33km/h | 21974m | 5.7m/s | -53°C | 1.2% | 42.9hPa | 2.6V | 18:12:15 | 01:43:31 | 00:00:00 | |
| DL1XH-west | 2026-09-04 00:02:55 | 53.45316 | 8.98070 | 107° | 27km/h | 21944m | 5.3m/s | -52.9°C | 1.2% | 43hPa | 2.6V | 18:12:15 | 01:43:25 | 00:00:00 | |
| DB0DAN | 2026-09-04 00:02:55 | 53.45316 | 8.98070 | 106° | 26km/h | 21944m | 5.3m/s | -52.9°C | 1.4% | 43.04hPa | 2.6V | 00:00:00 | 00:00:00 | 00:00:00 | |
| DM0DOS-11 | 2026-09-04 00:02:54 | 53.45328 | 8.98017 | 105° | 27km/h | 21919m | 4.7m/s | -53.1°C | 4.4% | 43.2hPa | 2.6V | 08:30:00 | 01:43:20 | 00:00:00 | |
| DO2JMG | 2026-09-04 00:02:54 | 53.45318 | 8.98059 | 112° | 26km/h | 21939m | 5.1m/s | -53°C | 1.1% | 43.1hPa | 2.5V | 18:12:15 | 01:43:24 | 00:00:00 | |
| BIOWL1-15 | 2026-09-04 00:02:51 | 53.45330 | 8.98006 | 107° | 29km/h | 21914m | 4.4m/s | -53.1°C | 1.2% | 43.2hPa | 2.6V | 18:12:15 | 01:43:19 | 00:00:00 | |
| AA1-15 | 2026-09-04 00:02:51 | 53.45326 | 8.98028 | 109° | 27km/h | 21924m | 6m/s | -53.1°C | 1.2% | 43.2hPa | 2.5V | 18:12:15 | 01:43:21 | 00:00:00 | |
| DL1NUX | 2026-09-04 00:02:46 | 53.45341 | 8.97958 | 108° | 29km/h | 21894m | 5.8m/s | -53.1°C | 4.4% | 43.4hPa | 2.6V | 08:30:00 | 01:43:15 | 00:00:00 | |
| DL1XH-west | 2026-09-04 00:02:45 | 53.45341 | 8.97958 | 108° | 29km/h | 21894m | 5.8m/s | -53.1°C | 1.2% | 43.4hPa | 2.6V | 18:12:15 | 01:43:15 | 00:00:00 | |
| DL1XH1-15 | 2026-09-04 00:02:44 | 53.45352 | 8.97901 | 104° | 18km/h | 21864m | 6m/s | -53.2°C | 4.4% | 43.6hPa | 2.6V | 08:30:00 | 01:43:09 | 00:00:00 | |
| DF8AY | 2026-09-04 00:02:44 | 53.45352 | 8.97901 | 105° | 18km/h | 21864m | 6.1m/s | -53.2°C | 1.2% | 43.6hPa | 2.6V | 18:12:15 | 01:43:09 | 00:00:00 | |
| DO2JMG | 2026-09-04 00:02:43 | 53.45345 | 8.97936 | 106° | 26km/h | 21884m | 4.3m/s | -53.1°C | 1.2% | 43.5hPa | 2.5V | 18:12:15 | 01:43:13 | 00:00:00 | |
| DM0DOS-11 | 2026-09-04 00:02:42 | 53.45351 | 8.97908 | 111° | 20km/h | 21869m | 4.5m/s | -53.2°C | 4.4% | 43.6hPa | 2.5V | 08:30:00 | 01:43:10 | 00:00:00 | |
| DL1NUX | 2026-09-04 00:02:41 | 53.45354 | 8.97875 | 104° | 16km/h | 21845m | 5.4m/s | -53.1°C | 4.5% | 43.7hPa | 2.5V | 08:30:00 | 01:43:05 | 00:00:00 | |
| AA1-15 | 2026-09-04 00:02:40 | 53.45351 | 8.97908 | 111° | 20km/h | 21869m | 4.5m/s | -53.2°C | 1.3% | 43.6hPa | 2.5V | 18:12:15 | 01:43:10 | 00:00:00 | |
| BIOWL1-15 | 2026-09-04 00:02:38 | 53.45353 | 8.97881 | 93° | 15km/h | 21850m | 4.9m/s | -53.2°C | 1.3% | 43.7hPa | 2.5V | 18:12:15 | 01:43:06 | 00:00:00 | |
| DL1XH-west | 2026-09-04 00:02:35 | 53.45355 | 8.97868 | 114° | 18km/h | 21840m | 4.6m/s | -53.2°C | 1.3% | 43.8hPa | 2.5V | 18:12:15 | 01:43:04 | 00:00:00 | |
| DO2JMG | 2026-09-04 00:02:33 | 53.45357 | 8.97860 | 117° | 20km/h | 21835m | 4.3m/s | -53.1°C | 1.3% | 43.8hPa | 2.6V | 18:12:15 | 01:43:03 | 00:00:00 | |
| DL1XH1-15 | 2026-09-04 00:02:32 | 53.45364 | 8.97829 | 111° | 15km/h | 21817m | 4.4m/s | -53.1°C | 4.4% | 43.9hPa | 2.5V | 08:30:00 | 01:42:59 | 00:00:00 | |
| DO2LYB-13 | 2026-09-04 00:02:32 | 53.45397 | 8.97689 | 116° | 18km/h | 21729m | 5.7m/s | -53.3°C | 1.5% | 44.5hPa | 2.5V | 00:00:00 | 00:00:00 | 00:00:00 | |
| DF8AY | 2026-09-04 00:02:31 | 53.45361 | 8.97844 | 109° | 20km/h | 21826m | 5m/s | -53.1°C | 1.3% | 43.8hPa | 2.5V | 18:12:15 | 01:43:01 | 00:00:00 | |
| SONCRA | 2026-09-04 00:02:31 | 53.45422 | 8.97570 | 136° | 18km/h | 21677m | 3.8m/s | -53.3°C | 1.5% | 44.9hPa | 2.5V | 00:00:00 | 00:00:00 | 00:00:00 | |
| AA1-15 | 2026-09-04 00:02:30 | 53.45364 | 8.97829 | 112° | 15km/h | 21817m | 4.4m/s | -53.1°C | 1.3% | 43.9hPa | 2.5V | 18:12:15 | 01:42:59 | 00:00:00 | |
| DL1XH-15 | 2026-09-04 00:02:30 | 53.45366 | 8.97824 | 122° | 15km/h | 21812m | 4.6m/s | -53.1°C | 4.4% | 43.9hPa | 2.5V | 08:30:00 | 01:42:58 | 00:00:00 | |
| BUE01 | 2026-09-04 00:02:28 | 53.45402 | 8.97664 | 107° | 24km/h | 21715m | 5.6m/s | -53.4°C | 1.4% | 44.6hPa | 2.5V | 00:00:00 | 00:00:00 | 00:00:00 | |
| GOEST3-10 | 2026-09-04 00:02:27 | 53.45406 | 8.97640 | 107° | 33km/h | 21705m | 4.7m/s | -53.3°C | 4.4% | 44.6hPa | 2.5V | 00:00:00 | 00:00:00 | 00:00:00 | |
| DM0DOS-11 | 2026-09-04 00:02:26 | 53.45385 | 8.97748 | 105° | 24km/h | 21769m | 4.9m/s | -53.2°C | 4.5% | 44.2hPa | 2.5V | 08:30:00 | 01:42:49 | 00:00:00 | |
| DB0UT-7 | 2026-09-04 00:02:26 | 53.45406 | 8.97640 | 107° | 18km/h | 21705m | 4.7m/s | -53.3°C | 4.4% | 44.6hPa | 2.5V | 00:00:00 | 00:00:00 | 00:00:00 | |
| DL1XH1-15 | 2026-09-04 00:02:25 | 53.45386 | 8.97739 | 106° | 22km/h | 21764m | 4.7m/s | -53.2°C | 4.4% | 44.3hPa | 2.5V | 08:30:00 | 01:42:48 | 00:00:00 | |
| DL1XH-15 | 2026-09-04 00:02:23 | 53.45386 | 8.97739 | 106° | 22km/h | 21764m | 4.7m/s | -53.2°C | 4.4% | 44.3hPa | 2.5V | 08:30:00 | 01:42:48 | 00:00:00 | |
| DL1XH-west | 2026-09-04 00:02:23 | 53.45380 | 8.97789 | 107° | 24km/h | 21789m | 5.5m/s | -53.1°C | 1.2% | 44.1hPa | 2.5V | 18:12:15 | 01:42:53 | 00:00:00 | |
| DO2JMG | 2026-09-04 00:02:22 | 53.45381 | 8.97779 | 99° | 26km/h | 21784m | 4.8m/s | -53.2°C | 1.2% | 44.2hPa | 2.6V | 18:12:15 | 01:42:52 | 00:00:00 | |
| DF8AY | 2026-09-04 00:02:22 | 53.45382 | 8.97769 | 99° | 26km/h | 21779m | 4.4m/s | -53.2°C | 1.3% | 44.2hPa | 2.6V | 18:12:15 | 01:42:51 | 00:00:00 | |
| BIOWL1-15 | 2026-09-04 00:02:21 | 53.45390 | 8.97715 | 106° | 16km/h | 21749m | 4.2m/s | -53.3°C | 1.2% | 44.4hPa | 2.6V | 18:12:15 | 01:42:45 | 00:00:00 | |
| GOEST3-10 | 2026-09-04 00:02:20 | 53.45419 | 8.97577 | 125° | 16km/h | 21681m | 4.7m/s | -53.3°C | 4.5% | 44.8hPa | 2.5V | 00:00:00 | 01:42:31 | 00:00:00 | |
| DL1CLM-18 | 2026-09-04 00:02:19 | 53.45419 | 8.97577 | 125° | 24km/h | 21681m | 4.8m/s | -53.3°C | 1.5% | 44.8hPa | 2.6V | 00:00:00 | 00:00:00 | 00:00:00 | |
| AA1-15 | 2026-09-04 00:02:19 | 53.45384 | 8.97748 | 106° | 24km/h | 21769m | 4.9m/s | -53.2°C | 1.3% | 44.2hPa | 2.5V | 18:12:15 | 01:42:49 | 00:00:00 | |
| DO2SHX-10 | 2026-09-04 00:02:17 | 53.45425 | 8.97566 | 143° | 13km/h | 21672m | 5.0m/s | -53.2°C | 4.5% | 44.9hPa | 2.6V | 00:00:00 | 01:42:29 | 00:00:00 | |
| DF4FW | 2026-09-04 00:02:16 | 53.45428 | 8.97562 | 141° | 13km/h | 21667m | 5.5m/s | -53.3°C | 1.5% | 44.9hPa | 2.6V | 00:00:00 | 00:00:00 | 00:00:00 | |
| S3001 | 2026-09-04 00:02:15 | 53.45432 | 8.97555 | 124° | 11km/h | 21658m | 3.8m/s | -53.2°C | 1.5% | 45.0hPa | 2.6V | 00:00:00 | 00:00:00 | 00:00:00 | |
| DL1XH1-15 | 2026-09-04 00:02:13 | 53.45401 | 8.97673 | 105° | 22km/h | 21720m | 4.2m/s | -53.4°C | 4.5% | 44.5hPa | 2.6V | 08:30:00 | 01:42:39 | 00:00:00 | |
| BIOWL9-15 | 2026-09-04 00:02:13 | 53.45434 | 8.97550 | 122° | 15km/h | 21654m | 5.4m/s | -53.2°C | 1.5% | 45.1hPa | 2.5V | 00:00:00 | 00:00:00 | 00:00:00 | |
| DL1XH-west | 2026-09-04 00:02:12 | 53.45395 | 8.97696 | 121° | 18km/h | 21734m | 3.9m/s | -53.3°C | 1.3% | 44.5hPa | 2.5V | 18:12:15 | 01:42:42 | 00:00:00 | |
| DO2JMG | 2026-09-04 00:02:11 | 53.45398 | 8.97689 | 115° | 18km/h | 21729m | 5.7m/s | -53.3°C | 1.3% | 44.5hPa | 2.5V | 18:12:15 | 01:42:41 | 00:00:00 | |
| DF8AY-15 | 2026-09-04 00:02:11 | 53.45436 | 8.97543 | 119° | 16km/h | 21649m | 5.0m/s | -53.1°C | 4.4% | 45.0hPa | 2.6V | 00:00:00 | 01:42:24 | 00:00:00 | |
| BIOWL1-15 | 2026-09-04 00:02:10 | 53.45399 | 8.97682 | 107° | 20km/h | 21724m | 4.5m/s | -53.3°C | 1.3% | 44.5hPa | 2.6V | 18:12:15 | 01:42:40 | 00:00:00 | |
| SONDE2-11 | 2026-09-04 00:02:10 | 53.45441 | 8.97526 | 108° | 22km/h | 21639m | 4.9m/s | -53.3°C | 1.5% | 45.1hPa | 2.5V | 00:00:00 | 00:00:00 | 00:00:00 | |
| DL1XH-15 | 2026-09-04 00:02:09 | 53.45402 | 8.97664 | 107° | 26km/h | 21715m | 5.6m/s | -53.4°C | 4.4% | 44.6hPa | 2.5V | 08:30:00 | 01:42:38 | 00:00:00 | |
| AA1-15 | 2026-09-04 00:02:08 | 53.45402 | 8.97664 | 107° | 26km/h | 21715m | 5.6m/s | -53.4°C | 1.3% | 44.6hPa | 2.5V | 18:12:15 | 01:42:38 | 00:00:00 | |
| GOEST3-10 | 2026-09-04 00:02:08 | 53.45442 | 8.97516 | 104° | 18km/h | 21634m | 4.7m/s | -53.2°C | 4.5% | 45.1hPa | 2.6V | 00:00:00 | 01:42:21 | 00:00:00 | |
| DO2SHX-10 | 2026-09-04 00:02:06 | 53.45444 | 8.97508 | 101° | 18km/h | 21630m | 4.2m/s | -53.2°C | 4.5% | 45.1hPa | 2.6V | 00:00:00 | 01:42:20 | 00:00:00 | |
| DL1XH-15 | 2026-09-04 00:02:04 | 53.45428 | 8.97562 | 140° | 13km/h | 21667m | 5.5m/s | -53.2°C | 4.5% | 44.9hPa | 2.6V | 08:30:00 | 01:42:28 | 00:00:00 | |
| DO2JMG | 2026-09-04 00:02:01 | 53.45419 | 8.97577 | 124° | 24km/h | 21681m | 4.8m/s | -53.3°C | 1.4% | 44.8hPa | 2.5V | 18:12:15 | 01:42:31 | 00:00:00 | |
| DM0DOS-11 | 2026-09-04 00:02:00 | 53.45425 | 8.97566 | 142° | 15km/h | 21672m | 5.1m/s | -53.3°C | 4.5% | 44.9hPa | 2.6V | 08:30:00 | 01:42:29 | 00:00:00 | |
| BIOWL1-15 | 2026-09-04 00:02:00 | 53.45422 | 8.97570 | 137° | 20km/h | 21677m | 3.8m/s | -53.3°C | 1.3% | 44.9hPa | 2.5V | 18:12:15 | 01:42:30 | 00:00:00 | |
| DF4FW | 2026-09-04 00:02:00 | 53.45448 | 8.97487 | 121° | 16km/h | 21616m | 4.6m/s | -53.3°C | 1.5% | 45.3hPa | 2.6V | 00:00:00 | 00:00:00 | 00:00:00 | |
| GOEST3-10 | 2026-09-04 00:01:59 | 53.45450 | 8.97482 | 121° | 15km/h | 21612m | 3.9m/s | -53.2°C | 4.4% | 45.3hPa | 2.6V | 00:00:00 | 00:00:00 | 08:30:00 | |
| AA1-15 | 2026-09-04 00:01:58 | 53.45430 | 8.97559 | 133° | 11km/h | 21662m | 4.2m/s | -53.2°C | 1.3% | 45hPa | 2.5V | 18:12:15 | 01:42:27 | 00:00:00 | |
| DO2SHX-10 | 2026-09-04 00:01:57 | 53.45453 | 8.97471 | 106° | 15km/h | 21601m | 5.2m/s | -53.2°C | 4.4% | 45.4hPa | 2.5V | 00:00:00 | 01:42:14 | 00:00:00 | |
| DL4BBY-15 | 2026-09-04 00:01:56 | 53.45454 | 8.97465 | 106° | 22km/h | 21597m | 4.2m/s | -52.8°C | 0% | 0hPa | 2.5V | 00:00:00 | 00:00:00 | 00:00:00 | |
| DB0DAN | 2026-09-04 00:01:55 | 53.45434 | 8.97550 | 123° | 15km/h | 21654m | 5.4m/s | -53.2°C | 1.5% | 45.06hPa | 2.5V | 00:00:00 | 00:00:00 | 00:00:00 | |
| HTAHTA | 2026-09-04 00:01:55 | 53.45458 | 8.97448 | 117° | 15km/h | 21582m | 4.4m/s | -53.3°C | 1.5% | 45.5hPa | 2.5V | 00:00:00 | 00:00:00 | 00:00:00 | |
| DO2SHX-10 | 2026-09-04 00:01:54 | 53.45456 | 8.97453 | 118° | 15km/h | 21587m | 4.9m/s | -53.2°C | 4.4% | 45.5hPa | 2.5V | 00:00:00 | 01:42:11 | 00:00:00 | |
| DL1XH1-15 | 2026-09-04 00:01:52 | 53.45445 | 8.97500 | 104° | 18km/h | 21625m | 4.4m/s | -53.3°C | 4.5% | 45.2hPa | 2.5V | 08:30:00 | 01:42:19 | 00:00:00 | |
| DL1LOL-11 | 2026-09-04 00:01:52 | 53.45458 | 8.97447 | 118° | 15km/h | 21582m | 4.4m/s | -53.3°C | 1.5% | 45.5hPa | 2.5V | 00:00:00 | 00:00:00 | 00:00:00 | |
| SONCRA | 2026-09-04 00:01:51 | 53.45508 | 8.97236 | 101° | 27km/h | 21462m | 5.4m/s | -54.0°C | 1.6% | 46.4hPa | 2.5V | 00:00:00 | 00:00:00 | 00:00:00 | |
| DO2JMG | 2026-09-04 00:01:50 | 53.45444 | 8.97508 | 101° | 20km/h | 21630m | 4.2m/s | -53.3°C | 1.3% | 45.2hPa | 2.5V | 18:12:15 | 01:42:20 | 00:00:00 | |
| BIOWL1-15 | 2026-09-04 00:01:50 | 53.45445 | 8.97500 | 105° | 18km/h | 21625m | 4.4m/s | -53.3°C | 1.4% | 45.2hPa | 2.5V | 18:12:15 | 01:42:19 | 00:00:00 | |
| DO2SHX-10 | 2026-09-04 00:01:49 | 53.45461 | 8.97436 | 102° | 13km/h | 21572m | 5.5m/s | -53.3°C | 4.4% | 45.6hPa | 2.5V | 00:00:00 | 01:42:08 | 00:00:00 | |
| BUE01 | 2026-09-04 00:01:48 | 53.45461 | 8.97431 | 96° | 11km/h | 21567m | 4.3m/s | -53.3°C | 1.5% | 45.6hPa | 2.5V | 00:00:00 | 00:00:00 | 00:00:00 | |
| AA1-15 | 2026-09-04 00:01:46 | 53.45452 | 8.97476 | 114° | 15km/h | 21607m | 5.6m/s | -53.3°C | 1.2% | 45.4hPa | 2.5V | 18:12:15 | 01:42:15 | 00:00:00 | |
| DB0UT-7 | 2026-09-04 00:01:46 | 53.45462 | 8.97426 | 105° | 27km/h | 21563m | 4.5m/s | -53.3°C | 4.5% | 45.6hPa | 2.5V | 00:00:00 | 01:42:06 | 00:00:00 | |
| DL1XH1-15 | 2026-09-04 00:01:45 | 53.45461 | 8.97437 | 101° | 13km/h | 21572m | 5.5m/s | -53.3°C | 4.4% | 45.6hPa | 2.5V | 08:30:00 | 01:42:08 | 00:00:00 | |
| DF4FW | 2026-09-04 00:01:44 | 53.45462 | 8.97426 | 105° | 13km/h | 21563m | 4.6m/s | -53.3°C | 1.5% | 45.7hPa | 2.5V | 00:00:00 | 00:00:00 | 00:00:00 | |
| DM0DOS-11 | 2026-09-04 00:01:43 | 53.45461 | 8.97437 | 101° | 13km/h | 21572m | 5.5m/s | -53.3°C | 4.4% | 45.6hPa | 2.5V | 08:30:00 | 01:42:08 | 00:00:00 | |
| DO2SHX-10 | 2026-09-04 00:01:42 | 53.45463 | 8.97421 | 116° | 13km/h | 21558m | 5.7m/s | -53.3°C | 4.4% | 45.7hPa | 2.6V | 00:00:00 | 01:42:05 | 08:30:00 | |
| DF8AY-15 | 2026-09-04 00:01:41 | 53.45465 | 8.97415 | 123° | 26km/h | 21552m | 4.5m/s | -53.2°C | 4.4% | 45.7hPa | 2.5V | 00:00:00 | 01:42:04 | 00:00:00 | |
| DB0DAN | 2026-09-04 00:01:40 | 53.45458 | 8.97448 | 117° | 15km/h | 21582m | 4.4m/s | -53.3°C | 1.5% | 45.53hPa | 2.5V | 00:00:00 | 00:00:00 | 00:00:00 | |
| DO2JMG | 2026-09-04 00:01:40 | 53.45458 | 8.97448 | 117° | 15km/h | 21582m | 4.4m/s | -53.3°C | 1.3% | 45.5hPa | 2.5V | 18:12:15 | 01:42:10 | 00:00:00 | |
| BIOWL1-15 | 2026-09-04 00:01:40 | 53.45460 | 8.97442 | 112° | 15km/h | 21577m | 5m/s | -53.3°C | 1.2% | 45.6hPa | 2.5V | 18:12:15 | 01:42:09 | 00:00:00 | |
| DL1XH-west | 2026-09-04 00:01:39 | 53.45462 | 8.97426 | 104° | 13km/h | 21562m | 4.6m/s | -53.3°C | 1.4% | 45.7hPa | 2.6V | 18:12:15 | 01:42:06 | 00:00:00 | |
| DF8AY | 2026-09-04 00:01:38 | 53.45461 | 8.97436 | 102° | 13km/h | 21572m | 5.5m/s | -53.3°C | 1.3% | 45.6hPa | 2.5V | 18:12:15 | 01:42:08 | 00:00:00 | |
| DO2SHX-10 | 2026-09-04 00:01:38 | 53.45471 | 8.97392 | 106° | 26km/h | 21537m | 5.2m/s | -53.2°C | 4.4% | 45.8hPa | 2.5V | 00:00:00 | 01:42:01 | 00:00:00 | |
| AA1-15 | 2026-09-04 00:01:36 | 53.45467 | 8.97409 | 120° | 18km/h | 21548m | 4.2m/s | -53.3°C | 1.4% | 45.8hPa | 2.5V | 18:12:15 | 01:42:03 | 00:00:00 | |
| DJ2DS-15 | 2026-09-04 00:01:34 | 53.45480 | 8.97347 | 111° | 31km/h | 21517m | 4.4m/s | -53.2°C | 4.4% | 46.0hPa | 2.6V | 00:00:00 | 01:41:57 | 00:00:00 | |
| DO2SHX-10 | 2026-09-04 00:01:33 | 53.45480 | 8.97347 | 111° | 29km/h | 21517m | 4.4m/s | -53.2°C | 4.4% | 46.0hPa | 2.6V | 00:00:00 | 01:41:57 | 00:00:00 | |
| DL1XH1-15 | 2026-09-04 00:01:31 | 53.45475 | 8.97371 | 105° | 29km/h | 21527m | 5.6m/s | -53.2°C | 4.4% | 45.9hPa | 2.6V | 08:30:00 | 01:41:59 | 00:00:00 | |
| S3001 | 2026-09-04 00:01:30 | 53.45485 | 8.97323 | 107° | 27km/h | 21506m | 5.4m/s | -53.3°C | 1.5% | 46.1hPa | 2.6V | 00:00:00 | 00:00:00 | 00:00:00 | |
| DL1XH-west | 2026-09-04 00:01:29 | 53.45475 | 8.97371 | 106° | 29km/h | 21527m | 5.6m/s | -53.3°C | 1.3% | 45.9hPa | 2.6V | 18:12:15 | 01:41:59 | 00:00:00 | |
| DF4FW | 2026-09-04 00:01:29 | 53.45484 | 8.97323 | 109° | 27km/h | 21506m | 5.4m/s | -53.3°C | 1.5% | 46.1hPa | 2.5V | 00:00:00 | 00:00:00 | 00:00:00 | |
| BIOWL1-15 | 2026-09-04 00:01:28 | 53.45477 | 8.97359 | 110° | 31km/h | 21522m | 5.2m/s | -53.3°C | 1.4% | 46hPa | 2.5V | 18:12:15 | 01:41:58 | 00:00:00 | |
| DL2RXE-15 | 2026-09-04 00:01:28 | 53.45487 | 8.97312 | 111° | 27km/h | 21502m | 4.1m/s | 0°C | 0% | 0hPa | 2.5V | 00:00:00 | 00:00:00 | 00:00:00 | |
| DF8AY | 2026-09-04 00:01:27 | 53.45480 | 8.97347 | 111° | 31km/h | 21517m | 4.5m/s | -53.3°C | 1.4% | 46hPa | 2.5V | 18:12:15 | 01:41:57 | 00:00:00 | |
| SONDE2-11 | 2026-09-04 00:01:26 | 53.45496 | 8.97284 | 126° | 24km/h | 21487m | 4.4m/s | -53.6°C | 1.5% | 46.2hPa | 2.6V | 00:00:00 | 00:00:00 | 00:00:00 | |
| DB0DAN | 2026-09-04 00:01:25 | 53.45485 | 8.97323 | 108° | 27km/h | 21506m | 5.4m/s | -53.3°C | 1.5% | 46.08hPa | 2.6V | 00:00:00 | 00:00:00 | 00:00:00 | |
| DL1XH1-15 | 2026-09-04 00:01:25 | 53.45502 | 8.97266 | 115° | 24km/h | 21477m | 5.5m/s | -53.9°C | 4.5% | 46.3hPa | 2.6V | 08:30:00 | 01:41:49 | 00:00:00 | |
| AA1-15 | 2026-09-04 00:01:23 | 53.45492 | 8.97292 | 123° | 26km/h | 21492m | 5.6m/s | -53.5°C | 1.3% | 46.2hPa | 2.5V | 18:12:15 | 01:41:52 | 00:00:00 | |
| DM0DOS-11 | 2026-09-04 00:01:21 | 53.45505 | 8.97257 | 106° | 24km/h | 21472m | 4.7m/s | -53.9°C | 4.6% | 46.3hPa | 2.6V | 08:30:00 | 01:41:48 | 00:00:00 | |
| DO2SHX-10 | 2026-09-04 00:01:21 | 53.45505 | 8.97257 | 107° | 29km/h | 21472m | 4.6m/s | -53.9°C | 4.6% | 46.3hPa | 2.6V | 00:00:00 | 01:41:48 | 00:00:00 | |
| DO2JMG | 2026-09-04 00:01:19 | 53.45503 | 8.97266 | 116° | 24km/h | 21477m | 5.5m/s | -53.9°C | 1.4% | 46.3hPa | 2.6V | 18:12:15 | 01:41:49 | 00:00:00 | |
| DL1XH-west | 2026-09-04 00:01:18 | 53.45506 | 8.97247 | 103° | 26km/h | 21467m | 4.6m/s | -54°C | 1.4% | 46.4hPa | 2.5V | 18:12:15 | 01:41:47 | 00:00:00 | |
| DL1NUX | 2026-09-04 00:01:18 | 53.45509 | 8.97224 | 103° | 31km/h | 21457m | 5.4m/s | -54.1°C | 4.7% | 46.4hPa | 2.5V | 08:30:00 | 01:41:45 | 00:00:00 | |
| DF8AY | 2026-09-04 00:01:17 | 53.45508 | 8.97236 | 101° | 27km/h | 21462m | 5.4m/s | -54°C | 1.5% | 46.4hPa | 2.5V | 18:12:15 | 01:41:46 | 00:00:00 | |
| BIOWL1-15 | 2026-09-04 00:01:16 | 53.45513 | 8.97195 | 100° | 38km/h | 21447m | 5.8m/s | -54.2°C | 1.5% | 46.5hPa | 2.6V | 18:12:15 | 01:41:43 | 00:00:00 | |
| DL4BBY-15 | 2026-09-04 00:01:16 | 53.45512 | 8.97195 | 100° | 29km/h | 21447m | 5.7m/s | -53.7°C | 0% | 0hPa | 2.5V | 00:00:00 | 00:00:00 | 00:00:00 | |
| DF5WG-10 | 2026-09-04 00:01:14 | 53.45514 | 8.97179 | 98° | 33km/h | 21442m | 5.5m/s | -54.1°C | 4.7% | 46.5hPa | 2.5V | 00:00:00 | 01:41:42 | 00:00:00 | |
| HTAHTA | 2026-09-04 00:01:13 | 53.45522 | 8.97115 | 109° | 33km/h | 21422m | 4.9m/s | -54.2°C | 1.6% | 46.7hPa | 2.5V | 00:00:00 | 00:00:00 | 00:00:00 | |
| AA1-15 | 2026-09-04 00:01:12 | 53.45516 | 8.97162 | 98° | 40km/h | 21437m | 3.8m/s | -54.2°C | 1.6% | 46.6hPa | 2.5V | 18:12:15 | 01:41:41 | 00:00:00 | |
| SO1NDE-10 | 2026-09-04 00:01:11 | 53.45522 | 8.97115 | 110° | 31km/h | 21422m | 4.8m/s | -54.1°C | 4.8% | 46.6hPa | 2.5V | 00:00:00 | 01:41:38 | 00:00:00 | |
| DL1XH1-15 | 2026-09-04 00:01:10 | 53.45520 | 8.97130 | 106° | 37km/h | 21427m | 5.8m/s | -54.2°C | 4.7% | 46.6hPa | 2.5V | 08:30:00 | 01:41:39 | 00:00:00 | |
| BUE01 | 2026-09-04 00:01:09 | 53.45527 | 8.97090 | 102° | 27km/h | 21413m | 5.7m/s | -54.1°C | 1.6% | 46.8hPa | 2.6V | 00:00:00 | 00:00:00 | 00:00:00 | |
| DO2JMG | 2026-09-04 00:01:08 | 53.45522 | 8.97115 | 110° | 35km/h | 21422m | 4.9m/s | -54.2°C | 1.6% | 46.7hPa | 2.6V | 18:12:15 | 01:41:38 | 00:00:00 | |
| GOEST3-10 | 2026-09-04 00:01:08 | 53.45527 | 8.97090 | 103° | 29km/h | 21413m | 5.7m/s | -54.1°C | 4.8% | 46.7hPa | 2.5V | 00:00:00 | 00:00:00 | 00:00:00 | |
| DB0UT-7 | 2026-09-04 00:01:07 | 53.45527 | 8.97090 | 103° | 27km/h | 21413m | 5.7m/s | -54.1°C | 4.8% | 46.7hPa | 2.5V | 00:00:00 | 00:00:00 | 00:00:00 | |
| DL1XH-west | 2026-09-04 00:01:07 | 53.45528 | 8.97078 | 93° | 27km/h | 21407m | 5.5m/s | -54.1°C | 1.6% | 46.8hPa | 2.5V | 18:12:15 | 01:41:35 | 00:00:00 | |
| DF8AY | 2026-09-04 00:01:06 | 53.45527 | 8.97090 | 102° | 29km/h | 21412m | 5.7m/s | -54.1°C | 1.6% | 46.8hPa | 2.5V | 18:12:15 | 01:41:36 | 00:00:00 | |
| DL1NUX | 2026-09-04 00:01:06 | 53.45525 | 8.97001 | 86° | 35km/h | 21378m | 5.5m/s | -54.1°C | 4.7% | 47hPa | 2.5V | 08:30:00 | 01:41:29 | 00:00:00 | |
| DJ2DS-15 | 2026-09-04 00:01:05 | 53.45528 | 8.97066 | 83° | 27km/h | 21402m | 4.3m/s | -54.1°C | 1.6% | 46.8hPa | 2.5V | 00:00:00 | 00:00:00 | 00:00:00 | |
| DL1XH-15 | 2026-09-04 00:01:04 | 53.45524 | 8.96986 | 86° | 35km/h | 21373m | 5.1m/s | -54.1°C | 4.8% | 47hPa | 2.5V | 08:30:00 | 01:41:28 | 00:00:00 | |
| AA1-15 | 2026-09-04 00:01:02 | 53.45525 | 8.97029 | 87° | 31km/h | 21388m | 4.9m/s | -54.1°C | 1.6% | 46.9hPa | 2.6V | 18:12:15 | 01:41:31 | 00:00:00 | |
| DL1LOL-11 | 2026-09-04 00:00:59 | 53.45524 | 8.96986 | 87° | 35km/h | 21373m | 5.1m/s | -54.1°C | 1.7% | 47.0hPa | 2.5V | 00:00:00 | 00:00:00 | 00:00:00 | |
| DO2JMG | 2026-09-04 00:00:58 | 53.45524 | 8.96986 | 86° | 35km/h | 21373m | 5.1m/s | -54.1°C | 1.6% | 47hPa | 2.5V | 18:12:15 | 01:41:28 | 00:00:00 | |
| BIOWL1-15 | 2026-09-04 00:00:58 | 53.45528 | 8.96921 | 106° | 24km/h | 21348m | 4.7m/s | -54.1°C | 1.7% | 47.2hPa | 2.5V | 18:12:15 | 01:41:23 | 00:00:00 | |
| S3001 | 2026-09-04 00:00:56 | 53.45526 | 8.96932 | 106° | 26km/h | 21353m | 4.2m/s | -54.1°C | 1.7% | 47.2hPa | 2.6V | 00:00:00 | 00:00:00 | 00:00:00 | |
| DF8AY | 2026-09-04 00:00:55 | 53.45525 | 8.96943 | 101° | 29km/h | 21358m | 5.3m/s | -54.1°C | 1.7% | 47.1hPa | 2.6V | 18:12:15 | 01:41:25 | 00:00:00 | |
| DB0DAN | 2026-09-04 00:00:55 | 53.45525 | 8.96943 | 101° | 29km/h | 21358m | 5.3m/s | -54.1°C | 1.7% | 47.15hPa | 2.6V | 00:00:00 | 00:00:00 | 00:00:00 | |
| DF4FW | 2026-09-04 00:00:54 | 53.45527 | 8.96932 | 107° | 27km/h | 21353m | 4.2m/s | -54.1°C | 1.7% | 47.2hPa | 2.5V | 00:00:00 | 00:00:00 | 00:00:00 | |
| BIOWL9-15 | 2026-09-04 00:00:53 | 53.45528 | 8.96921 | 105° | 24km/h | 21348m | 4.7m/s | -54.1°C | 1.7% | 47.2hPa | 2.5V | 00:00:00 | 00:00:00 | 00:00:00 | |
| DM0DOS-11 | 2026-09-04 00:00:52 | 53.45531 | 8.96878 | 94° | 18km/h | 21323m | 4.8m/s | -54°C | 4.8% | 47.4hPa | 2.5V | 08:30:00 | 01:41:18 | 00:00:00 | |
| AA1-15 | 2026-09-04 00:00:51 | 53.45530 | 8.96894 | 91° | 20km/h | 21333m | 4.5m/s | -54°C | 1.6% | 47.3hPa | 2.6V | 18:12:15 | 01:41:20 | 00:00:00 | |
| DL4XJ-10 | 2026-09-04 00:00:50 | 53.45530 | 8.96894 | 92° | 22km/h | 21334m | 4.5m/s | -53.5°C | 0% | 0hPa | 2.5V | 00:00:00 | 00:00:00 | 00:00:00 | |
| DO2SHX-10 | 2026-09-04 00:00:48 | 53.45531 | 8.96878 | 95° | 20km/h | 21323m | 4.7m/s | -53.9°C | 4.8% | 47.4hPa | 2.5V | 00:00:00 | 01:41:18 | 00:00:00 | |
| DL1XH-west | 2026-09-04 00:00:47 | 53.45531 | 8.96870 | 91° | 20km/h | 21318m | 4.5m/s | -54°C | 1.7% | 47.5hPa | 2.5V | 18:12:15 | 01:41:17 | 00:00:00 | |
| GOEST3-10 | 2026-09-04 00:00:47 | 53.45531 | 8.96861 | 87° | 26km/h | 21313m | 5.8m/s | -54.0°C | 4.8% | 47.4hPa | 2.5V | 00:00:00 | 00:00:00 | 00:00:00 | |
| DO2SHX-10 | 2026-09-04 00:00:46 | 53.45530 | 8.96852 | 85° | 24km/h | 21308m | 4.7m/s | -54.0°C | 4.8% | 47.4hPa | 2.6V | 00:00:00 | 01:41:15 | 00:00:00 | |
| DF8AY | 2026-09-04 00:00:45 | 53.45530 | 8.96842 | 89° | 26km/h | 21303m | 4.3m/s | -54.1°C | 1.6% | 47.5hPa | 2.6V | 18:12:15 | 01:41:14 | 00:00:00 | |
| DL4BBY-15 | 2026-09-04 00:00:43 | 53.45530 | 8.96830 | 95° | 24km/h | 21299m | 5.8m/s | -53.6°C | 0% | 0hPa | 2.5V | 00:00:00 | 00:00:00 | 00:00:00 | |
| BIOWL1-15 | 2026-09-04 00:00:42 | 53.45531 | 8.96819 | 102° | 29km/h | 21293m | 5m/s | -54°C | 1.6% | 47.6hPa | 2.5V | 18:12:15 | 01:41:12 | 00:00:00 | |
| DO2SHX-10 | 2026-09-04 00:00:42 | 53.45531 | 8.96819 | 103° | 26km/h | 21293m | 4.9m/s | -54.0°C | 4.8% | 47.6hPa | 2.5V | 00:00:00 | 01:41:12 | 00:00:00 | |
| GOEST3-10 | 2026-09-04 00:00:41 | 53.45533 | 8.96807 | 105° | 26km/h | 21288m | 5.1m/s | -54.0°C | 4.8% | 47.6hPa | 2.5V | 00:00:00 | 01:41:11 | 00:00:00 | |
| DM0DOS-11 | 2026-09-04 00:00:41 | 53.45539 | 8.96777 | 116° | 24km/h | 21273m | 5.3m/s | -54.1°C | 4.8% | 47.8hPa | 2.6V | 08:30:00 | 01:41:08 | 00:00:00 | |
| AA1-15 | 2026-09-04 00:00:40 | 53.45535 | 8.96796 | 106° | 26km/h | 21283m | 5.6m/s | -54.1°C | 1.7% | 47.7hPa | 2.5V | 18:12:15 | 01:41:10 | 00:00:00 | |
| Es werden nur die letzten 3500 von 6910 Frames angezeigt. GPX/KML und Diagramme bleiben verfügbar. | |||||||||||||||